﻿<?xml version="1.0" encoding="UTF-8"?>
<gpx version="v1.1.5" creator="iTravel Tech Inc. - http://www.itravel-tech.com" xmlns:xsi="http://www.w3.org/2001/XMLSchema-instance" xmlns="http://www.topografix.com/GPX/1/1" xsi:schemaLocation="http://www.topografix.com/GPX/1/1 http://www.topografix.com/GPX/1/1/gpx.xsd http://www.topografix.com/GPX/gpx_overlay/0/3 http://www.topografix.com/GPX/gpx_overlay/0/3/gpx_overlay.xsd http://www.topografix.com/GPX/gpx_modified/0/1 http://www.topografix.com/GPX/gpx_modified/0/1/gpx_modified.xsd">
<trk>
<name>Holux2011/04/26_04:27</name>
<trkseg>
<trkpt lat="22.065081" lon="103.872223">
<ele>598.414551</ele>
<time>2011-04-26T01:27:05Z</time>
<desc>lat.=22.065081, lon.=103.872223, Alt.=598.414551m. Speed=0.144000m/h.</desc>
<speed>0.040000</speed>
</trkpt>
<trkpt lat="22.065107" lon="103.872231">
<ele>596.648926</ele>
<time>2011-04-26T01:27:10Z</time>
<desc>lat.=22.065107, lon.=103.872231, Alt.=596.648926m. Speed=0.252000m/h.</desc>
<speed>0.070000</speed>
</trkpt>
<trkpt lat="22.065117" lon="103.872231">
<ele>597.008301</ele>
<time>2011-04-26T01:27:15Z</time>
<desc>lat.=22.065117, lon.=103.872231, Alt.=597.008301m. Speed=0.252000m/h.</desc>
<speed>0.070000</speed>
</trkpt>
<trkpt lat="22.065111" lon="103.872215">
<ele>598.742676</ele>
<time>2011-04-26T01:27:20Z</time>
<desc>lat.=22.065111, lon.=103.872215, Alt.=598.742676m. Speed=0.036000m/h.</desc>
<speed>0.010000</speed>
</trkpt>
<trkpt lat="22.065090" lon="103.872192">
<ele>600.055176</ele>
<time>2011-04-26T01:27:25Z</time>
<desc>lat.=22.065090, lon.=103.872192, Alt.=600.055176m. Speed=0.324000m/h.</desc>
<speed>0.090000</speed>
</trkpt>
<trkpt lat="22.065088" lon="103.872192">
<ele>599.320801</ele>
<time>2011-04-26T01:27:30Z</time>
<desc>lat.=22.065088, lon.=103.872192, Alt.=599.320801m. Speed=0.180000m/h.</desc>
<speed>0.050000</speed>
</trkpt>
<trkpt lat="22.065083" lon="103.872185">
<ele>598.258301</ele>
<time>2011-04-26T01:27:35Z</time>
<desc>lat.=22.065083, lon.=103.872185, Alt.=598.258301m. Speed=0.072000m/h.</desc>
<speed>0.020000</speed>
</trkpt>
<trkpt lat="22.065084" lon="103.872185">
<ele>597.055176</ele>
<time>2011-04-26T01:27:40Z</time>
<desc>lat.=22.065084, lon.=103.872185, Alt.=597.055176m. Speed=0.000000m/h.</desc>
<speed>0.000000</speed>
</trkpt>
<trkpt lat="22.065084" lon="103.872185">
<ele>596.945801</ele>
<time>2011-04-26T01:27:45Z</time>
<desc>lat.=22.065084, lon.=103.872185, Alt.=596.945801m. Speed=0.036000m/h.</desc>
<speed>0.010000</speed>
</trkpt>
<trkpt lat="22.065084" lon="103.872185">
<ele>596.961426</ele>
<time>2011-04-26T01:27:50Z</time>
<desc>lat.=22.065084, lon.=103.872185, Alt.=596.961426m. Speed=0.036000m/h.</desc>
<speed>0.010000</speed>
</trkpt>
<trkpt lat="22.065084" lon="103.872185">
<ele>596.945801</ele>
<time>2011-04-26T01:27:55Z</time>
<desc>lat.=22.065084, lon.=103.872185, Alt.=596.945801m. Speed=0.108000m/h.</desc>
<speed>0.030000</speed>
</trkpt>
<trkpt lat="22.065084" lon="103.872185">
<ele>596.930176</ele>
<time>2011-04-26T01:28:00Z</time>
<desc>lat.=22.065084, lon.=103.872185, Alt.=596.930176m. Speed=0.036000m/h.</desc>
<speed>0.010000</speed>
</trkpt>
<trkpt lat="22.065084" lon="103.872185">
<ele>596.930176</ele>
<time>2011-04-26T01:28:05Z</time>
<desc>lat.=22.065084, lon.=103.872185, Alt.=596.930176m. Speed=0.036000m/h.</desc>
<speed>0.010000</speed>
</trkpt>
<trkpt lat="22.065084" lon="103.872185">
<ele>596.945801</ele>
<time>2011-04-26T01:28:10Z</time>
<desc>lat.=22.065084, lon.=103.872185, Alt.=596.945801m. Speed=0.000000m/h.</desc>
<speed>0.000000</speed>
</trkpt>
<trkpt lat="22.065084" lon="103.872185">
<ele>596.945801</ele>
<time>2011-04-26T01:28:15Z</time>
<desc>lat.=22.065084, lon.=103.872185, Alt.=596.945801m. Speed=0.072000m/h.</desc>
<speed>0.020000</speed>
</trkpt>
<trkpt lat="22.065084" lon="103.872185">
<ele>596.930176</ele>
<time>2011-04-26T01:28:20Z</time>
<desc>lat.=22.065084, lon.=103.872185, Alt.=596.930176m. Speed=0.180000m/h.</desc>
<speed>0.050000</speed>
</trkpt>
<trkpt lat="22.065084" lon="103.872185">
<ele>596.914551</ele>
<time>2011-04-26T01:28:25Z</time>
<desc>lat.=22.065084, lon.=103.872185, Alt.=596.914551m. Speed=0.108000m/h.</desc>
<speed>0.030000</speed>
</trkpt>
<trkpt lat="22.065083" lon="103.872185">
<ele>596.898926</ele>
<time>2011-04-26T01:28:30Z</time>
<desc>lat.=22.065083, lon.=103.872185, Alt.=596.898926m. Speed=0.000000m/h.</desc>
<speed>0.000000</speed>
</trkpt>
<trkpt lat="22.065083" lon="103.872185">
<ele>596.898926</ele>
<time>2011-04-26T01:28:35Z</time>
<desc>lat.=22.065083, lon.=103.872185, Alt.=596.898926m. Speed=0.000000m/h.</desc>
<speed>0.000000</speed>
</trkpt>
<trkpt lat="22.065083" lon="103.872185">
<ele>596.898926</ele>
<time>2011-04-26T01:28:40Z</time>
<desc>lat.=22.065083, lon.=103.872185, Alt.=596.898926m. Speed=0.000000m/h.</desc>
<speed>0.000000</speed>
</trkpt>
<trkpt lat="22.065083" lon="103.872185">
<ele>596.883301</ele>
<time>2011-04-26T01:28:45Z</time>
<desc>lat.=22.065083, lon.=103.872185, Alt.=596.883301m. Speed=0.036000m/h.</desc>
<speed>0.010000</speed>
</trkpt>
<trkpt lat="22.065083" lon="103.872185">
<ele>596.867676</ele>
<time>2011-04-26T01:28:50Z</time>
<desc>lat.=22.065083, lon.=103.872185, Alt.=596.867676m. Speed=0.036000m/h.</desc>
<speed>0.010000</speed>
</trkpt>
<trkpt lat="22.065083" lon="103.872185">
<ele>596.867676</ele>
<time>2011-04-26T01:28:55Z</time>
<desc>lat.=22.065083, lon.=103.872185, Alt.=596.867676m. Speed=0.000000m/h.</desc>
<speed>0.000000</speed>
</trkpt>
<trkpt lat="22.065083" lon="103.872185">
<ele>596.867676</ele>
<time>2011-04-26T01:29:00Z</time>
<desc>lat.=22.065083, lon.=103.872185, Alt.=596.867676m. Speed=0.000000m/h.</desc>
<speed>0.000000</speed>
</trkpt>
<trkpt lat="22.065083" lon="103.872185">
<ele>596.852051</ele>
<time>2011-04-26T01:29:05Z</time>
<desc>lat.=22.065083, lon.=103.872185, Alt.=596.852051m. Speed=0.036000m/h.</desc>
<speed>0.010000</speed>
</trkpt>
<trkpt lat="22.065083" lon="103.872185">
<ele>596.836426</ele>
<time>2011-04-26T01:29:10Z</time>
<desc>lat.=22.065083, lon.=103.872185, Alt.=596.836426m. Speed=0.000000m/h.</desc>
<speed>0.000000</speed>
</trkpt>
<trkpt lat="22.065083" lon="103.872185">
<ele>596.805176</ele>
<time>2011-04-26T01:29:15Z</time>
<desc>lat.=22.065083, lon.=103.872185, Alt.=596.805176m. Speed=0.000000m/h.</desc>
<speed>0.000000</speed>
</trkpt>
<trkpt lat="22.065083" lon="103.872185">
<ele>596.789551</ele>
<time>2011-04-26T01:29:20Z</time>
<desc>lat.=22.065083, lon.=103.872185, Alt.=596.789551m. Speed=0.000000m/h.</desc>
<speed>0.000000</speed>
</trkpt>
<trkpt lat="22.065083" lon="103.872185">
<ele>596.789551</ele>
<time>2011-04-26T01:29:25Z</time>
<desc>lat.=22.065083, lon.=103.872185, Alt.=596.789551m. Speed=0.036000m/h.</desc>
<speed>0.010000</speed>
</trkpt>
<trkpt lat="22.065083" lon="103.872185">
<ele>596.789551</ele>
<time>2011-04-26T01:29:30Z</time>
<desc>lat.=22.065083, lon.=103.872185, Alt.=596.789551m. Speed=0.144000m/h.</desc>
<speed>0.040000</speed>
</trkpt>
<trkpt lat="22.065083" lon="103.872185">
<ele>596.773926</ele>
<time>2011-04-26T01:29:35Z</time>
<desc>lat.=22.065083, lon.=103.872185, Alt.=596.773926m. Speed=0.036000m/h.</desc>
<speed>0.010000</speed>
</trkpt>
<trkpt lat="22.065083" lon="103.872185">
<ele>596.773926</ele>
<time>2011-04-26T01:29:40Z</time>
<desc>lat.=22.065083, lon.=103.872185, Alt.=596.773926m. Speed=0.072000m/h.</desc>
<speed>0.020000</speed>
</trkpt>
<trkpt lat="22.065083" lon="103.872185">
<ele>596.758301</ele>
<time>2011-04-26T01:29:45Z</time>
<desc>lat.=22.065083, lon.=103.872185, Alt.=596.758301m. Speed=0.000000m/h.</desc>
<speed>0.000000</speed>
</trkpt>
<trkpt lat="22.065083" lon="103.872185">
<ele>596.758301</ele>
<time>2011-04-26T01:29:50Z</time>
<desc>lat.=22.065083, lon.=103.872185, Alt.=596.758301m. Speed=0.000000m/h.</desc>
<speed>0.000000</speed>
</trkpt>
<trkpt lat="22.065083" lon="103.872185">
<ele>596.742676</ele>
<time>2011-04-26T01:29:55Z</time>
<desc>lat.=22.065083, lon.=103.872185, Alt.=596.742676m. Speed=0.000000m/h.</desc>
<speed>0.000000</speed>
</trkpt>
<trkpt lat="22.065083" lon="103.872185">
<ele>596.727051</ele>
<time>2011-04-26T01:30:00Z</time>
<desc>lat.=22.065083, lon.=103.872185, Alt.=596.727051m. Speed=0.000000m/h.</desc>
<speed>0.000000</speed>
</trkpt>
<trkpt lat="22.065083" lon="103.872185">
<ele>596.727051</ele>
<time>2011-04-26T01:30:05Z</time>
<desc>lat.=22.065083, lon.=103.872185, Alt.=596.727051m. Speed=0.144000m/h.</desc>
<speed>0.040000</speed>
</trkpt>
<trkpt lat="22.065083" lon="103.872185">
<ele>596.727051</ele>
<time>2011-04-26T01:30:10Z</time>
<desc>lat.=22.065083, lon.=103.872185, Alt.=596.727051m. Speed=0.000000m/h.</desc>
<speed>0.000000</speed>
</trkpt>
<trkpt lat="22.065073" lon="103.872185">
<ele>596.617676</ele>
<time>2011-04-26T01:30:15Z</time>
<desc>lat.=22.065073, lon.=103.872185, Alt.=596.617676m. Speed=0.108000m/h.</desc>
<speed>0.030000</speed>
</trkpt>
<trkpt lat="22.065060" lon="103.872177">
<ele>596.742676</ele>
<time>2011-04-26T01:30:20Z</time>
<desc>lat.=22.065060, lon.=103.872177, Alt.=596.742676m. Speed=0.180000m/h.</desc>
<speed>0.050000</speed>
</trkpt>
<trkpt lat="22.065060" lon="103.872169">
<ele>596.367676</ele>
<time>2011-04-26T01:30:25Z</time>
<desc>lat.=22.065060, lon.=103.872169, Alt.=596.367676m. Speed=0.000000m/h.</desc>
<speed>0.000000</speed>
</trkpt>
<trkpt lat="22.065052" lon="103.872162">
<ele>596.945801</ele>
<time>2011-04-26T01:30:30Z</time>
<desc>lat.=22.065052, lon.=103.872162, Alt.=596.945801m. Speed=0.000000m/h.</desc>
<speed>0.000000</speed>
</trkpt>
<trkpt lat="22.065048" lon="103.872162">
<ele>596.742676</ele>
<time>2011-04-26T01:30:35Z</time>
<desc>lat.=22.065048, lon.=103.872162, Alt.=596.742676m. Speed=0.000000m/h.</desc>
<speed>0.000000</speed>
</trkpt>
<trkpt lat="22.065048" lon="103.872154">
<ele>596.164551</ele>
<time>2011-04-26T01:30:40Z</time>
<desc>lat.=22.065048, lon.=103.872154, Alt.=596.164551m. Speed=0.000000m/h.</desc>
<speed>0.000000</speed>
</trkpt>
<trkpt lat="22.065044" lon="103.872154">
<ele>596.086426</ele>
<time>2011-04-26T01:30:45Z</time>
<desc>lat.=22.065044, lon.=103.872154, Alt.=596.086426m. Speed=0.000000m/h.</desc>
<speed>0.000000</speed>
</trkpt>
<trkpt lat="22.065039" lon="103.872147">
<ele>596.180176</ele>
<time>2011-04-26T01:30:50Z</time>
<desc>lat.=22.065039, lon.=103.872147, Alt.=596.180176m. Speed=0.000000m/h.</desc>
<speed>0.000000</speed>
</trkpt>
<trkpt lat="22.065039" lon="103.872154">
<ele>595.961426</ele>
<time>2011-04-26T01:30:55Z</time>
<desc>lat.=22.065039, lon.=103.872154, Alt.=595.961426m. Speed=0.036000m/h.</desc>
<speed>0.010000</speed>
</trkpt>
<trkpt lat="22.065039" lon="103.872154">
<ele>595.961426</ele>
<time>2011-04-26T01:31:00Z</time>
<desc>lat.=22.065039, lon.=103.872154, Alt.=595.961426m. Speed=0.000000m/h.</desc>
<speed>0.000000</speed>
</trkpt>
<trkpt lat="22.065039" lon="103.872154">
<ele>595.945801</ele>
<time>2011-04-26T01:31:05Z</time>
<desc>lat.=22.065039, lon.=103.872154, Alt.=595.945801m. Speed=0.036000m/h.</desc>
<speed>0.010000</speed>
</trkpt>
<trkpt lat="22.065039" lon="103.872154">
<ele>595.930176</ele>
<time>2011-04-26T01:31:10Z</time>
<desc>lat.=22.065039, lon.=103.872154, Alt.=595.930176m. Speed=0.036000m/h.</desc>
<speed>0.010000</speed>
</trkpt>
<trkpt lat="22.065039" lon="103.872154">
<ele>595.914551</ele>
<time>2011-04-26T01:31:15Z</time>
<desc>lat.=22.065039, lon.=103.872154, Alt.=595.914551m. Speed=0.036000m/h.</desc>
<speed>0.010000</speed>
</trkpt>
<trkpt lat="22.065039" lon="103.872154">
<ele>595.898926</ele>
<time>2011-04-26T01:31:20Z</time>
<desc>lat.=22.065039, lon.=103.872154, Alt.=595.898926m. Speed=0.072000m/h.</desc>
<speed>0.020000</speed>
</trkpt>
<trkpt lat="22.065039" lon="103.872154">
<ele>595.883301</ele>
<time>2011-04-26T01:31:25Z</time>
<desc>lat.=22.065039, lon.=103.872154, Alt.=595.883301m. Speed=0.000000m/h.</desc>
<speed>0.000000</speed>
</trkpt>
<trkpt lat="22.065039" lon="103.872154">
<ele>595.883301</ele>
<time>2011-04-26T01:31:30Z</time>
<desc>lat.=22.065039, lon.=103.872154, Alt.=595.883301m. Speed=0.036000m/h.</desc>
<speed>0.010000</speed>
</trkpt>
<trkpt lat="22.065039" lon="103.872154">
<ele>595.883301</ele>
<time>2011-04-26T01:31:35Z</time>
<desc>lat.=22.065039, lon.=103.872154, Alt.=595.883301m. Speed=0.036000m/h.</desc>
<speed>0.010000</speed>
</trkpt>
<trkpt lat="22.065039" lon="103.872154">
<ele>595.867676</ele>
<time>2011-04-26T01:31:40Z</time>
<desc>lat.=22.065039, lon.=103.872154, Alt.=595.867676m. Speed=0.036000m/h.</desc>
<speed>0.010000</speed>
</trkpt>
<trkpt lat="22.065039" lon="103.872154">
<ele>595.836426</ele>
<time>2011-04-26T01:31:45Z</time>
<desc>lat.=22.065039, lon.=103.872154, Alt.=595.836426m. Speed=0.036000m/h.</desc>
<speed>0.010000</speed>
</trkpt>
<trkpt lat="22.065039" lon="103.872154">
<ele>595.820801</ele>
<time>2011-04-26T01:31:50Z</time>
<desc>lat.=22.065039, lon.=103.872154, Alt.=595.820801m. Speed=0.036000m/h.</desc>
<speed>0.010000</speed>
</trkpt>
<trkpt lat="22.065039" lon="103.872154">
<ele>595.805176</ele>
<time>2011-04-26T01:31:55Z</time>
<desc>lat.=22.065039, lon.=103.872154, Alt.=595.805176m. Speed=0.000000m/h.</desc>
<speed>0.000000</speed>
</trkpt>
<trkpt lat="22.065039" lon="103.872154">
<ele>595.805176</ele>
<time>2011-04-26T01:32:00Z</time>
<desc>lat.=22.065039, lon.=103.872154, Alt.=595.805176m. Speed=0.036000m/h.</desc>
<speed>0.010000</speed>
</trkpt>
<trkpt lat="22.065039" lon="103.872154">
<ele>595.805176</ele>
<time>2011-04-26T01:32:05Z</time>
<desc>lat.=22.065039, lon.=103.872154, Alt.=595.805176m. Speed=0.036000m/h.</desc>
<speed>0.010000</speed>
</trkpt>
<trkpt lat="22.065039" lon="103.872154">
<ele>595.805176</ele>
<time>2011-04-26T01:32:10Z</time>
<desc>lat.=22.065039, lon.=103.872154, Alt.=595.805176m. Speed=0.000000m/h.</desc>
<speed>0.000000</speed>
</trkpt>
<trkpt lat="22.065037" lon="103.872154">
<ele>595.773926</ele>
<time>2011-04-26T01:32:15Z</time>
<desc>lat.=22.065037, lon.=103.872154, Alt.=595.773926m. Speed=0.000000m/h.</desc>
<speed>0.000000</speed>
</trkpt>
<trkpt lat="22.065037" lon="103.872154">
<ele>595.773926</ele>
<time>2011-04-26T01:32:20Z</time>
<desc>lat.=22.065037, lon.=103.872154, Alt.=595.773926m. Speed=0.000000m/h.</desc>
<speed>0.000000</speed>
</trkpt>
<trkpt lat="22.065037" lon="103.872154">
<ele>595.758301</ele>
<time>2011-04-26T01:32:25Z</time>
<desc>lat.=22.065037, lon.=103.872154, Alt.=595.758301m. Speed=0.000000m/h.</desc>
<speed>0.000000</speed>
</trkpt>
<trkpt lat="22.065037" lon="103.872154">
<ele>595.742676</ele>
<time>2011-04-26T01:32:30Z</time>
<desc>lat.=22.065037, lon.=103.872154, Alt.=595.742676m. Speed=0.000000m/h.</desc>
<speed>0.000000</speed>
</trkpt>
<trkpt lat="22.065037" lon="103.872154">
<ele>595.758301</ele>
<time>2011-04-26T01:32:35Z</time>
<desc>lat.=22.065037, lon.=103.872154, Alt.=595.758301m. Speed=0.000000m/h.</desc>
<speed>0.000000</speed>
</trkpt>
<trkpt lat="22.065037" lon="103.872154">
<ele>595.742676</ele>
<time>2011-04-26T01:32:40Z</time>
<desc>lat.=22.065037, lon.=103.872154, Alt.=595.742676m. Speed=0.000000m/h.</desc>
<speed>0.000000</speed>
</trkpt>
<trkpt lat="22.065037" lon="103.872154">
<ele>595.758301</ele>
<time>2011-04-26T01:32:45Z</time>
<desc>lat.=22.065037, lon.=103.872154, Alt.=595.758301m. Speed=0.000000m/h.</desc>
<speed>0.000000</speed>
</trkpt>
<trkpt lat="22.065037" lon="103.872154">
<ele>595.758301</ele>
<time>2011-04-26T01:32:50Z</time>
<desc>lat.=22.065037, lon.=103.872154, Alt.=595.758301m. Speed=0.000000m/h.</desc>
<speed>0.000000</speed>
</trkpt>
<trkpt lat="22.065037" lon="103.872154">
<ele>595.742676</ele>
<time>2011-04-26T01:32:55Z</time>
<desc>lat.=22.065037, lon.=103.872154, Alt.=595.742676m. Speed=0.000000m/h.</desc>
<speed>0.000000</speed>
</trkpt>
<trkpt lat="22.065037" lon="103.872154">
<ele>595.742676</ele>
<time>2011-04-26T01:33:00Z</time>
<desc>lat.=22.065037, lon.=103.872154, Alt.=595.742676m. Speed=0.036000m/h.</desc>
<speed>0.010000</speed>
</trkpt>
<trkpt lat="22.065037" lon="103.872154">
<ele>595.727051</ele>
<time>2011-04-26T01:33:05Z</time>
<desc>lat.=22.065037, lon.=103.872154, Alt.=595.727051m. Speed=0.000000m/h.</desc>
<speed>0.000000</speed>
</trkpt>
<trkpt lat="22.065037" lon="103.872154">
<ele>595.711426</ele>
<time>2011-04-26T01:33:10Z</time>
<desc>lat.=22.065037, lon.=103.872154, Alt.=595.711426m. Speed=0.036000m/h.</desc>
<speed>0.010000</speed>
</trkpt>
<trkpt lat="22.065037" lon="103.872154">
<ele>595.695801</ele>
<time>2011-04-26T01:33:15Z</time>
<desc>lat.=22.065037, lon.=103.872154, Alt.=595.695801m. Speed=0.036000m/h.</desc>
<speed>0.010000</speed>
</trkpt>
<trkpt lat="22.065037" lon="103.872154">
<ele>595.664551</ele>
<time>2011-04-26T01:33:20Z</time>
<desc>lat.=22.065037, lon.=103.872154, Alt.=595.664551m. Speed=0.000000m/h.</desc>
<speed>0.000000</speed>
</trkpt>
<trkpt lat="22.065037" lon="103.872154">
<ele>595.664551</ele>
<time>2011-04-26T01:33:25Z</time>
<desc>lat.=22.065037, lon.=103.872154, Alt.=595.664551m. Speed=0.036000m/h.</desc>
<speed>0.010000</speed>
</trkpt>
<trkpt lat="22.065037" lon="103.872154">
<ele>595.664551</ele>
<time>2011-04-26T01:33:30Z</time>
<desc>lat.=22.065037, lon.=103.872154, Alt.=595.664551m. Speed=0.000000m/h.</desc>
<speed>0.000000</speed>
</trkpt>
<trkpt lat="22.065037" lon="103.872154">
<ele>595.648926</ele>
<time>2011-04-26T01:33:35Z</time>
<desc>lat.=22.065037, lon.=103.872154, Alt.=595.648926m. Speed=0.000000m/h.</desc>
<speed>0.000000</speed>
</trkpt>
<trkpt lat="22.065037" lon="103.872154">
<ele>595.633301</ele>
<time>2011-04-26T01:33:40Z</time>
<desc>lat.=22.065037, lon.=103.872154, Alt.=595.633301m. Speed=0.000000m/h.</desc>
<speed>0.000000</speed>
</trkpt>
<trkpt lat="22.065037" lon="103.872154">
<ele>595.633301</ele>
<time>2011-04-26T01:33:45Z</time>
<desc>lat.=22.065037, lon.=103.872154, Alt.=595.633301m. Speed=0.000000m/h.</desc>
<speed>0.000000</speed>
</trkpt>
<trkpt lat="22.065037" lon="103.872154">
<ele>595.633301</ele>
<time>2011-04-26T01:33:50Z</time>
<desc>lat.=22.065037, lon.=103.872154, Alt.=595.633301m. Speed=0.036000m/h.</desc>
<speed>0.010000</speed>
</trkpt>
<trkpt lat="22.065037" lon="103.872154">
<ele>595.648926</ele>
<time>2011-04-26T01:33:55Z</time>
<desc>lat.=22.065037, lon.=103.872154, Alt.=595.648926m. Speed=0.000000m/h.</desc>
<speed>0.000000</speed>
</trkpt>
<trkpt lat="22.065037" lon="103.872154">
<ele>595.633301</ele>
<time>2011-04-26T01:34:00Z</time>
<desc>lat.=22.065037, lon.=103.872154, Alt.=595.633301m. Speed=0.036000m/h.</desc>
<speed>0.010000</speed>
</trkpt>
<trkpt lat="22.065037" lon="103.872154">
<ele>595.617676</ele>
<time>2011-04-26T01:34:05Z</time>
<desc>lat.=22.065037, lon.=103.872154, Alt.=595.617676m. Speed=0.000000m/h.</desc>
<speed>0.000000</speed>
</trkpt>
<trkpt lat="22.065037" lon="103.872154">
<ele>595.617676</ele>
<time>2011-04-26T01:34:10Z</time>
<desc>lat.=22.065037, lon.=103.872154, Alt.=595.617676m. Speed=0.000000m/h.</desc>
<speed>0.000000</speed>
</trkpt>
<trkpt lat="22.065037" lon="103.872154">
<ele>595.602051</ele>
<time>2011-04-26T01:34:15Z</time>
<desc>lat.=22.065037, lon.=103.872154, Alt.=595.602051m. Speed=0.036000m/h.</desc>
<speed>0.010000</speed>
</trkpt>
<trkpt lat="22.065037" lon="103.872154">
<ele>595.570801</ele>
<time>2011-04-26T01:34:20Z</time>
<desc>lat.=22.065037, lon.=103.872154, Alt.=595.570801m. Speed=0.036000m/h.</desc>
<speed>0.010000</speed>
</trkpt>
<trkpt lat="22.065037" lon="103.872154">
<ele>595.539551</ele>
<time>2011-04-26T01:34:25Z</time>
<desc>lat.=22.065037, lon.=103.872154, Alt.=595.539551m. Speed=0.000000m/h.</desc>
<speed>0.000000</speed>
</trkpt>
<trkpt lat="22.065037" lon="103.872154">
<ele>595.508301</ele>
<time>2011-04-26T01:34:30Z</time>
<desc>lat.=22.065037, lon.=103.872154, Alt.=595.508301m. Speed=0.000000m/h.</desc>
<speed>0.000000</speed>
</trkpt>
<trkpt lat="22.065037" lon="103.872154">
<ele>595.477051</ele>
<time>2011-04-26T01:34:35Z</time>
<desc>lat.=22.065037, lon.=103.872154, Alt.=595.477051m. Speed=0.036000m/h.</desc>
<speed>0.010000</speed>
</trkpt>
<trkpt lat="22.065037" lon="103.872154">
<ele>595.445801</ele>
<time>2011-04-26T01:34:40Z</time>
<desc>lat.=22.065037, lon.=103.872154, Alt.=595.445801m. Speed=0.000000m/h.</desc>
<speed>0.000000</speed>
</trkpt>
<trkpt lat="22.065037" lon="103.872154">
<ele>595.414551</ele>
<time>2011-04-26T01:34:45Z</time>
<desc>lat.=22.065037, lon.=103.872154, Alt.=595.414551m. Speed=0.036000m/h.</desc>
<speed>0.010000</speed>
</trkpt>
<trkpt lat="22.065037" lon="103.872154">
<ele>595.383301</ele>
<time>2011-04-26T01:34:50Z</time>
<desc>lat.=22.065037, lon.=103.872154, Alt.=595.383301m. Speed=0.036000m/h.</desc>
<speed>0.010000</speed>
</trkpt>
<trkpt lat="22.065037" lon="103.872154">
<ele>595.383301</ele>
<time>2011-04-26T01:34:55Z</time>
<desc>lat.=22.065037, lon.=103.872154, Alt.=595.383301m. Speed=0.036000m/h.</desc>
<speed>0.010000</speed>
</trkpt>
<trkpt lat="22.065037" lon="103.872154">
<ele>595.383301</ele>
<time>2011-04-26T01:35:00Z</time>
<desc>lat.=22.065037, lon.=103.872154, Alt.=595.383301m. Speed=0.036000m/h.</desc>
<speed>0.010000</speed>
</trkpt>
<trkpt lat="22.065037" lon="103.872154">
<ele>595.352051</ele>
<time>2011-04-26T01:35:05Z</time>
<desc>lat.=22.065037, lon.=103.872154, Alt.=595.352051m. Speed=0.072000m/h.</desc>
<speed>0.020000</speed>
</trkpt>
<trkpt lat="22.065037" lon="103.872154">
<ele>595.336426</ele>
<time>2011-04-26T01:35:10Z</time>
<desc>lat.=22.065037, lon.=103.872154, Alt.=595.336426m. Speed=0.000000m/h.</desc>
<speed>0.000000</speed>
</trkpt>
<trkpt lat="22.065037" lon="103.872154">
<ele>595.336426</ele>
<time>2011-04-26T01:35:15Z</time>
<desc>lat.=22.065037, lon.=103.872154, Alt.=595.336426m. Speed=0.000000m/h.</desc>
<speed>0.000000</speed>
</trkpt>
<trkpt lat="22.065037" lon="103.872154">
<ele>595.336426</ele>
<time>2011-04-26T01:35:20Z</time>
<desc>lat.=22.065037, lon.=103.872154, Alt.=595.336426m. Speed=0.036000m/h.</desc>
<speed>0.010000</speed>
</trkpt>
<trkpt lat="22.065037" lon="103.872154">
<ele>595.336426</ele>
<time>2011-04-26T01:35:25Z</time>
<desc>lat.=22.065037, lon.=103.872154, Alt.=595.336426m. Speed=0.000000m/h.</desc>
<speed>0.000000</speed>
</trkpt>
<trkpt lat="22.065037" lon="103.872154">
<ele>595.320801</ele>
<time>2011-04-26T01:35:30Z</time>
<desc>lat.=22.065037, lon.=103.872154, Alt.=595.320801m. Speed=0.000000m/h.</desc>
<speed>0.000000</speed>
</trkpt>
<trkpt lat="22.065037" lon="103.872154">
<ele>595.336426</ele>
<time>2011-04-26T01:35:35Z</time>
<desc>lat.=22.065037, lon.=103.872154, Alt.=595.336426m. Speed=0.036000m/h.</desc>
<speed>0.010000</speed>
</trkpt>
<trkpt lat="22.065037" lon="103.872154">
<ele>595.352051</ele>
<time>2011-04-26T01:35:40Z</time>
<desc>lat.=22.065037, lon.=103.872154, Alt.=595.352051m. Speed=0.036000m/h.</desc>
<speed>0.010000</speed>
</trkpt>
<trkpt lat="22.065037" lon="103.872154">
<ele>595.352051</ele>
<time>2011-04-26T01:35:45Z</time>
<desc>lat.=22.065037, lon.=103.872154, Alt.=595.352051m. Speed=0.000000m/h.</desc>
<speed>0.000000</speed>
</trkpt>
<trkpt lat="22.065037" lon="103.872154">
<ele>595.352051</ele>
<time>2011-04-26T01:35:50Z</time>
<desc>lat.=22.065037, lon.=103.872154, Alt.=595.352051m. Speed=0.000000m/h.</desc>
<speed>0.000000</speed>
</trkpt>
<trkpt lat="22.065037" lon="103.872154">
<ele>595.352051</ele>
<time>2011-04-26T01:35:55Z</time>
<desc>lat.=22.065037, lon.=103.872154, Alt.=595.352051m. Speed=0.036000m/h.</desc>
<speed>0.010000</speed>
</trkpt>
<trkpt lat="22.065037" lon="103.872154">
<ele>595.352051</ele>
<time>2011-04-26T01:36:00Z</time>
<desc>lat.=22.065037, lon.=103.872154, Alt.=595.352051m. Speed=0.036000m/h.</desc>
<speed>0.010000</speed>
</trkpt>
<trkpt lat="22.065037" lon="103.872154">
<ele>595.320801</ele>
<time>2011-04-26T01:36:05Z</time>
<desc>lat.=22.065037, lon.=103.872154, Alt.=595.320801m. Speed=0.000000m/h.</desc>
<speed>0.000000</speed>
</trkpt>
<trkpt lat="22.065037" lon="103.872154">
<ele>595.336426</ele>
<time>2011-04-26T01:36:10Z</time>
<desc>lat.=22.065037, lon.=103.872154, Alt.=595.336426m. Speed=0.000000m/h.</desc>
<speed>0.000000</speed>
</trkpt>
<trkpt lat="22.065037" lon="103.872154">
<ele>595.336426</ele>
<time>2011-04-26T01:36:15Z</time>
<desc>lat.=22.065037, lon.=103.872154, Alt.=595.336426m. Speed=0.000000m/h.</desc>
<speed>0.000000</speed>
</trkpt>
<trkpt lat="22.065037" lon="103.872154">
<ele>595.305176</ele>
<time>2011-04-26T01:36:20Z</time>
<desc>lat.=22.065037, lon.=103.872154, Alt.=595.305176m. Speed=0.000000m/h.</desc>
<speed>0.000000</speed>
</trkpt>
<trkpt lat="22.065037" lon="103.872154">
<ele>595.305176</ele>
<time>2011-04-26T01:36:25Z</time>
<desc>lat.=22.065037, lon.=103.872154, Alt.=595.305176m. Speed=0.036000m/h.</desc>
<speed>0.010000</speed>
</trkpt>
<trkpt lat="22.065037" lon="103.872154">
<ele>595.273926</ele>
<time>2011-04-26T01:36:30Z</time>
<desc>lat.=22.065037, lon.=103.872154, Alt.=595.273926m. Speed=0.000000m/h.</desc>
<speed>0.000000</speed>
</trkpt>
<trkpt lat="22.065037" lon="103.872154">
<ele>595.258301</ele>
<time>2011-04-26T01:36:35Z</time>
<desc>lat.=22.065037, lon.=103.872154, Alt.=595.258301m. Speed=0.000000m/h.</desc>
<speed>0.000000</speed>
</trkpt>
<trkpt lat="22.065037" lon="103.872154">
<ele>595.258301</ele>
<time>2011-04-26T01:36:40Z</time>
<desc>lat.=22.065037, lon.=103.872154, Alt.=595.258301m. Speed=0.000000m/h.</desc>
<speed>0.000000</speed>
</trkpt>
<trkpt lat="22.065037" lon="103.872154">
<ele>595.289551</ele>
<time>2011-04-26T01:36:45Z</time>
<desc>lat.=22.065037, lon.=103.872154, Alt.=595.289551m. Speed=0.036000m/h.</desc>
<speed>0.010000</speed>
</trkpt>
<trkpt lat="22.065037" lon="103.872154">
<ele>595.305176</ele>
<time>2011-04-26T01:36:50Z</time>
<desc>lat.=22.065037, lon.=103.872154, Alt.=595.305176m. Speed=0.000000m/h.</desc>
<speed>0.000000</speed>
</trkpt>
<trkpt lat="22.065037" lon="103.872154">
<ele>595.320801</ele>
<time>2011-04-26T01:36:55Z</time>
<desc>lat.=22.065037, lon.=103.872154, Alt.=595.320801m. Speed=0.036000m/h.</desc>
<speed>0.010000</speed>
</trkpt>
<trkpt lat="22.065037" lon="103.872154">
<ele>595.352051</ele>
<time>2011-04-26T01:37:00Z</time>
<desc>lat.=22.065037, lon.=103.872154, Alt.=595.352051m. Speed=0.000000m/h.</desc>
<speed>0.000000</speed>
</trkpt>
<trkpt lat="22.065037" lon="103.872154">
<ele>595.383301</ele>
<time>2011-04-26T01:37:05Z</time>
<desc>lat.=22.065037, lon.=103.872154, Alt.=595.383301m. Speed=0.000000m/h.</desc>
<speed>0.000000</speed>
</trkpt>
<trkpt lat="22.065037" lon="103.872154">
<ele>595.414551</ele>
<time>2011-04-26T01:37:10Z</time>
<desc>lat.=22.065037, lon.=103.872154, Alt.=595.414551m. Speed=0.000000m/h.</desc>
<speed>0.000000</speed>
</trkpt>
<trkpt lat="22.065037" lon="103.872154">
<ele>595.414551</ele>
<time>2011-04-26T01:37:15Z</time>
<desc>lat.=22.065037, lon.=103.872154, Alt.=595.414551m. Speed=0.000000m/h.</desc>
<speed>0.000000</speed>
</trkpt>
<trkpt lat="22.065037" lon="103.872154">
<ele>595.430176</ele>
<time>2011-04-26T01:37:20Z</time>
<desc>lat.=22.065037, lon.=103.872154, Alt.=595.430176m. Speed=0.036000m/h.</desc>
<speed>0.010000</speed>
</trkpt>
<trkpt lat="22.065037" lon="103.872154">
<ele>595.461426</ele>
<time>2011-04-26T01:37:25Z</time>
<desc>lat.=22.065037, lon.=103.872154, Alt.=595.461426m. Speed=0.036000m/h.</desc>
<speed>0.010000</speed>
</trkpt>
<trkpt lat="22.065037" lon="103.872154">
<ele>595.445801</ele>
<time>2011-04-26T01:37:30Z</time>
<desc>lat.=22.065037, lon.=103.872154, Alt.=595.445801m. Speed=0.000000m/h.</desc>
<speed>0.000000</speed>
</trkpt>
<trkpt lat="22.065037" lon="103.872154">
<ele>595.445801</ele>
<time>2011-04-26T01:37:35Z</time>
<desc>lat.=22.065037, lon.=103.872154, Alt.=595.445801m. Speed=0.036000m/h.</desc>
<speed>0.010000</speed>
</trkpt>
<trkpt lat="22.065037" lon="103.872154">
<ele>595.461426</ele>
<time>2011-04-26T01:37:40Z</time>
<desc>lat.=22.065037, lon.=103.872154, Alt.=595.461426m. Speed=0.000000m/h.</desc>
<speed>0.000000</speed>
</trkpt>
<trkpt lat="22.065037" lon="103.872154">
<ele>595.477051</ele>
<time>2011-04-26T01:37:45Z</time>
<desc>lat.=22.065037, lon.=103.872154, Alt.=595.477051m. Speed=0.000000m/h.</desc>
<speed>0.000000</speed>
</trkpt>
<trkpt lat="22.065037" lon="103.872154">
<ele>595.492676</ele>
<time>2011-04-26T01:37:50Z</time>
<desc>lat.=22.065037, lon.=103.872154, Alt.=595.492676m. Speed=0.000000m/h.</desc>
<speed>0.000000</speed>
</trkpt>
<trkpt lat="22.065037" lon="103.872154">
<ele>595.508301</ele>
<time>2011-04-26T01:37:55Z</time>
<desc>lat.=22.065037, lon.=103.872154, Alt.=595.508301m. Speed=0.036000m/h.</desc>
<speed>0.010000</speed>
</trkpt>
<trkpt lat="22.065037" lon="103.872154">
<ele>595.539551</ele>
<time>2011-04-26T01:38:00Z</time>
<desc>lat.=22.065037, lon.=103.872154, Alt.=595.539551m. Speed=0.000000m/h.</desc>
<speed>0.000000</speed>
</trkpt>
<trkpt lat="22.065037" lon="103.872154">
<ele>595.570801</ele>
<time>2011-04-26T01:38:05Z</time>
<desc>lat.=22.065037, lon.=103.872154, Alt.=595.570801m. Speed=0.000000m/h.</desc>
<speed>0.000000</speed>
</trkpt>
<trkpt lat="22.065037" lon="103.872154">
<ele>595.602051</ele>
<time>2011-04-26T01:38:10Z</time>
<desc>lat.=22.065037, lon.=103.872154, Alt.=595.602051m. Speed=0.036000m/h.</desc>
<speed>0.010000</speed>
</trkpt>
<trkpt lat="22.065037" lon="103.872154">
<ele>595.617676</ele>
<time>2011-04-26T01:38:15Z</time>
<desc>lat.=22.065037, lon.=103.872154, Alt.=595.617676m. Speed=0.036000m/h.</desc>
<speed>0.010000</speed>
</trkpt>
<trkpt lat="22.065037" lon="103.872154">
<ele>595.617676</ele>
<time>2011-04-26T01:38:20Z</time>
<desc>lat.=22.065037, lon.=103.872154, Alt.=595.617676m. Speed=0.036000m/h.</desc>
<speed>0.010000</speed>
</trkpt>
<trkpt lat="22.065037" lon="103.872154">
<ele>595.648926</ele>
<time>2011-04-26T01:38:25Z</time>
<desc>lat.=22.065037, lon.=103.872154, Alt.=595.648926m. Speed=0.036000m/h.</desc>
<speed>0.010000</speed>
</trkpt>
<trkpt lat="22.065037" lon="103.872154">
<ele>595.664551</ele>
<time>2011-04-26T01:38:30Z</time>
<desc>lat.=22.065037, lon.=103.872154, Alt.=595.664551m. Speed=0.036000m/h.</desc>
<speed>0.010000</speed>
</trkpt>
<trkpt lat="22.065037" lon="103.872154">
<ele>595.680176</ele>
<time>2011-04-26T01:38:35Z</time>
<desc>lat.=22.065037, lon.=103.872154, Alt.=595.680176m. Speed=0.000000m/h.</desc>
<speed>0.000000</speed>
</trkpt>
<trkpt lat="22.065037" lon="103.872154">
<ele>595.695801</ele>
<time>2011-04-26T01:38:40Z</time>
<desc>lat.=22.065037, lon.=103.872154, Alt.=595.695801m. Speed=0.036000m/h.</desc>
<speed>0.010000</speed>
</trkpt>
<trkpt lat="22.065037" lon="103.872154">
<ele>595.695801</ele>
<time>2011-04-26T01:38:45Z</time>
<desc>lat.=22.065037, lon.=103.872154, Alt.=595.695801m. Speed=0.036000m/h.</desc>
<speed>0.010000</speed>
</trkpt>
<trkpt lat="22.065037" lon="103.872154">
<ele>595.711426</ele>
<time>2011-04-26T01:38:50Z</time>
<desc>lat.=22.065037, lon.=103.872154, Alt.=595.711426m. Speed=0.036000m/h.</desc>
<speed>0.010000</speed>
</trkpt>
<trkpt lat="22.065037" lon="103.872154">
<ele>595.711426</ele>
<time>2011-04-26T01:38:55Z</time>
<desc>lat.=22.065037, lon.=103.872154, Alt.=595.711426m. Speed=0.036000m/h.</desc>
<speed>0.010000</speed>
</trkpt>
<trkpt lat="22.065037" lon="103.872154">
<ele>595.711426</ele>
<time>2011-04-26T01:39:00Z</time>
<desc>lat.=22.065037, lon.=103.872154, Alt.=595.711426m. Speed=0.036000m/h.</desc>
<speed>0.010000</speed>
</trkpt>
<trkpt lat="22.065037" lon="103.872154">
<ele>595.727051</ele>
<time>2011-04-26T01:39:05Z</time>
<desc>lat.=22.065037, lon.=103.872154, Alt.=595.727051m. Speed=0.000000m/h.</desc>
<speed>0.000000</speed>
</trkpt>
<trkpt lat="22.065037" lon="103.872154">
<ele>595.742676</ele>
<time>2011-04-26T01:39:10Z</time>
<desc>lat.=22.065037, lon.=103.872154, Alt.=595.742676m. Speed=0.036000m/h.</desc>
<speed>0.010000</speed>
</trkpt>
<trkpt lat="22.065037" lon="103.872162">
<ele>595.727051</ele>
<time>2011-04-26T01:39:15Z</time>
<desc>lat.=22.065037, lon.=103.872162, Alt.=595.727051m. Speed=0.000000m/h.</desc>
<speed>0.000000</speed>
</trkpt>
<trkpt lat="22.065037" lon="103.872162">
<ele>595.711426</ele>
<time>2011-04-26T01:39:20Z</time>
<desc>lat.=22.065037, lon.=103.872162, Alt.=595.711426m. Speed=0.000000m/h.</desc>
<speed>0.000000</speed>
</trkpt>
<trkpt lat="22.065037" lon="103.872162">
<ele>595.695801</ele>
<time>2011-04-26T01:39:25Z</time>
<desc>lat.=22.065037, lon.=103.872162, Alt.=595.695801m. Speed=0.072000m/h.</desc>
<speed>0.020000</speed>
</trkpt>
<trkpt lat="22.065042" lon="103.872154">
<ele>595.711426</ele>
<time>2011-04-26T01:39:30Z</time>
<desc>lat.=22.065042, lon.=103.872154, Alt.=595.711426m. Speed=0.936000m/h.</desc>
<speed>0.260000</speed>
</trkpt>
<trkpt lat="22.065056" lon="103.872147">
<ele>595.195801</ele>
<time>2011-04-26T01:39:35Z</time>
<desc>lat.=22.065056, lon.=103.872147, Alt.=595.195801m. Speed=1.368000m/h.</desc>
<speed>0.380000</speed>
</trkpt>
<trkpt lat="22.065117" lon="103.872162">
<ele>594.195801</ele>
<time>2011-04-26T01:39:40Z</time>
<desc>lat.=22.065117, lon.=103.872162, Alt.=594.195801m. Speed=6.804000m/h.</desc>
<speed>1.890000</speed>
</trkpt>
<trkpt lat="22.065159" lon="103.872284">
<ele>594.320801</ele>
<time>2011-04-26T01:39:45Z</time>
<desc>lat.=22.065159, lon.=103.872284, Alt.=594.320801m. Speed=10.188000m/h.</desc>
<speed>2.830000</speed>
</trkpt>
<trkpt lat="22.065165" lon="103.872414">
<ele>593.992676</ele>
<time>2011-04-26T01:39:50Z</time>
<desc>lat.=22.065165, lon.=103.872414, Alt.=593.992676m. Speed=9.612000m/h.</desc>
<speed>2.670000</speed>
</trkpt>
<trkpt lat="22.065180" lon="103.872543">
<ele>594.742676</ele>
<time>2011-04-26T01:39:55Z</time>
<desc>lat.=22.065180, lon.=103.872543, Alt.=594.742676m. Speed=9.720000m/h.</desc>
<speed>2.700000</speed>
</trkpt>
<trkpt lat="22.065193" lon="103.872681">
<ele>596.336426</ele>
<time>2011-04-26T01:40:00Z</time>
<desc>lat.=22.065193, lon.=103.872681, Alt.=596.336426m. Speed=10.332000m/h.</desc>
<speed>2.870000</speed>
</trkpt>
<trkpt lat="22.065191" lon="103.872810">
<ele>597.773926</ele>
<time>2011-04-26T01:40:05Z</time>
<desc>lat.=22.065191, lon.=103.872810, Alt.=597.773926m. Speed=10.080000m/h.</desc>
<speed>2.800000</speed>
</trkpt>
<trkpt lat="22.065182" lon="103.872955">
<ele>599.133301</ele>
<time>2011-04-26T01:40:10Z</time>
<desc>lat.=22.065182, lon.=103.872955, Alt.=599.133301m. Speed=10.404000m/h.</desc>
<speed>2.890000</speed>
</trkpt>
<trkpt lat="22.065166" lon="103.873131">
<ele>600.148926</ele>
<time>2011-04-26T01:40:15Z</time>
<desc>lat.=22.065166, lon.=103.873131, Alt.=600.148926m. Speed=13.176000m/h.</desc>
<speed>3.660000</speed>
</trkpt>
<trkpt lat="22.065159" lon="103.873306">
<ele>600.352051</ele>
<time>2011-04-26T01:40:20Z</time>
<desc>lat.=22.065159, lon.=103.873306, Alt.=600.352051m. Speed=12.780000m/h.</desc>
<speed>3.550000</speed>
</trkpt>
<trkpt lat="22.065149" lon="103.873474">
<ele>603.398926</ele>
<time>2011-04-26T01:40:25Z</time>
<desc>lat.=22.065149, lon.=103.873474, Alt.=603.398926m. Speed=12.672000m/h.</desc>
<speed>3.520000</speed>
</trkpt>
<trkpt lat="22.065130" lon="103.873642">
<ele>605.055176</ele>
<time>2011-04-26T01:40:30Z</time>
<desc>lat.=22.065130, lon.=103.873642, Alt.=605.055176m. Speed=13.464000m/h.</desc>
<speed>3.740000</speed>
</trkpt>
<trkpt lat="22.065130" lon="103.873802">
<ele>609.789551</ele>
<time>2011-04-26T01:40:35Z</time>
<desc>lat.=22.065130, lon.=103.873802, Alt.=609.789551m. Speed=11.340000m/h.</desc>
<speed>3.150000</speed>
</trkpt>
<trkpt lat="22.065157" lon="103.873962">
<ele>613.211426</ele>
<time>2011-04-26T01:40:40Z</time>
<desc>lat.=22.065157, lon.=103.873962, Alt.=613.211426m. Speed=10.764000m/h.</desc>
<speed>2.990000</speed>
</trkpt>
<trkpt lat="22.065222" lon="103.874107">
<ele>615.977051</ele>
<time>2011-04-26T01:40:45Z</time>
<desc>lat.=22.065222, lon.=103.874107, Alt.=615.977051m. Speed=12.168000m/h.</desc>
<speed>3.380000</speed>
</trkpt>
<trkpt lat="22.065329" lon="103.874245">
<ele>617.695801</ele>
<time>2011-04-26T01:40:50Z</time>
<desc>lat.=22.065329, lon.=103.874245, Alt.=617.695801m. Speed=10.620000m/h.</desc>
<speed>2.950000</speed>
</trkpt>
<trkpt lat="22.065460" lon="103.874359">
<ele>618.648926</ele>
<time>2011-04-26T01:40:55Z</time>
<desc>lat.=22.065460, lon.=103.874359, Alt.=618.648926m. Speed=12.348000m/h.</desc>
<speed>3.430000</speed>
</trkpt>
<trkpt lat="22.065603" lon="103.874451">
<ele>620.492676</ele>
<time>2011-04-26T01:41:00Z</time>
<desc>lat.=22.065603, lon.=103.874451, Alt.=620.492676m. Speed=10.872000m/h.</desc>
<speed>3.020000</speed>
</trkpt>
<trkpt lat="22.065718" lon="103.874542">
<ele>622.523926</ele>
<time>2011-04-26T01:41:05Z</time>
<desc>lat.=22.065718, lon.=103.874542, Alt.=622.523926m. Speed=10.368000m/h.</desc>
<speed>2.880000</speed>
</trkpt>
<trkpt lat="22.065815" lon="103.874687">
<ele>623.789551</ele>
<time>2011-04-26T01:41:10Z</time>
<desc>lat.=22.065815, lon.=103.874687, Alt.=623.789551m. Speed=12.240000m/h.</desc>
<speed>3.400000</speed>
</trkpt>
<trkpt lat="22.065859" lon="103.874832">
<ele>625.117676</ele>
<time>2011-04-26T01:41:15Z</time>
<desc>lat.=22.065859, lon.=103.874832, Alt.=625.117676m. Speed=12.924000m/h.</desc>
<speed>3.590000</speed>
</trkpt>
<trkpt lat="22.065844" lon="103.874947">
<ele>626.602051</ele>
<time>2011-04-26T01:41:20Z</time>
<desc>lat.=22.065844, lon.=103.874947, Alt.=626.602051m. Speed=10.836000m/h.</desc>
<speed>3.010000</speed>
</trkpt>
<trkpt lat="22.065842" lon="103.875092">
<ele>626.617676</ele>
<time>2011-04-26T01:41:25Z</time>
<desc>lat.=22.065842, lon.=103.875092, Alt.=626.617676m. Speed=9.504000m/h.</desc>
<speed>2.640000</speed>
</trkpt>
<trkpt lat="22.065817" lon="103.875214">
<ele>626.852051</ele>
<time>2011-04-26T01:41:30Z</time>
<desc>lat.=22.065817, lon.=103.875214, Alt.=626.852051m. Speed=9.288000m/h.</desc>
<speed>2.580000</speed>
</trkpt>
<trkpt lat="22.065798" lon="103.875343">
<ele>627.727051</ele>
<time>2011-04-26T01:41:35Z</time>
<desc>lat.=22.065798, lon.=103.875343, Alt.=627.727051m. Speed=8.388000m/h.</desc>
<speed>2.330000</speed>
</trkpt>
<trkpt lat="22.065788" lon="103.875465">
<ele>627.820801</ele>
<time>2011-04-26T01:41:40Z</time>
<desc>lat.=22.065788, lon.=103.875465, Alt.=627.820801m. Speed=9.972000m/h.</desc>
<speed>2.770000</speed>
</trkpt>
<trkpt lat="22.065771" lon="103.875603">
<ele>628.289551</ele>
<time>2011-04-26T01:41:45Z</time>
<desc>lat.=22.065771, lon.=103.875603, Alt.=628.289551m. Speed=9.720000m/h.</desc>
<speed>2.700000</speed>
</trkpt>
<trkpt lat="22.065756" lon="103.875740">
<ele>628.133301</ele>
<time>2011-04-26T01:41:50Z</time>
<desc>lat.=22.065756, lon.=103.875740, Alt.=628.133301m. Speed=9.792000m/h.</desc>
<speed>2.720000</speed>
</trkpt>
<trkpt lat="22.065739" lon="103.875870">
<ele>628.352051</ele>
<time>2011-04-26T01:41:55Z</time>
<desc>lat.=22.065739, lon.=103.875870, Alt.=628.352051m. Speed=9.180000m/h.</desc>
<speed>2.550000</speed>
</trkpt>
<trkpt lat="22.065729" lon="103.876007">
<ele>629.070801</ele>
<time>2011-04-26T01:42:00Z</time>
<desc>lat.=22.065729, lon.=103.876007, Alt.=629.070801m. Speed=9.900000m/h.</desc>
<speed>2.750000</speed>
</trkpt>
<trkpt lat="22.065714" lon="103.876144">
<ele>630.523926</ele>
<time>2011-04-26T01:42:05Z</time>
<desc>lat.=22.065714, lon.=103.876144, Alt.=630.523926m. Speed=10.404000m/h.</desc>
<speed>2.890000</speed>
</trkpt>
<trkpt lat="22.065693" lon="103.876274">
<ele>631.414551</ele>
<time>2011-04-26T01:42:10Z</time>
<desc>lat.=22.065693, lon.=103.876274, Alt.=631.414551m. Speed=8.388000m/h.</desc>
<speed>2.330000</speed>
</trkpt>
<trkpt lat="22.065676" lon="103.876381">
<ele>631.508301</ele>
<time>2011-04-26T01:42:15Z</time>
<desc>lat.=22.065676, lon.=103.876381, Alt.=631.508301m. Speed=8.424000m/h.</desc>
<speed>2.340000</speed>
</trkpt>
<trkpt lat="22.065657" lon="103.876511">
<ele>632.680176</ele>
<time>2011-04-26T01:42:20Z</time>
<desc>lat.=22.065657, lon.=103.876511, Alt.=632.680176m. Speed=7.416000m/h.</desc>
<speed>2.060000</speed>
</trkpt>
<trkpt lat="22.065609" lon="103.876671">
<ele>633.914551</ele>
<time>2011-04-26T01:42:25Z</time>
<desc>lat.=22.065609, lon.=103.876671, Alt.=633.914551m. Speed=8.820000m/h.</desc>
<speed>2.450000</speed>
</trkpt>
<trkpt lat="22.065601" lon="103.876778">
<ele>635.586426</ele>
<time>2011-04-26T01:42:30Z</time>
<desc>lat.=22.065601, lon.=103.876778, Alt.=635.586426m. Speed=8.928000m/h.</desc>
<speed>2.480000</speed>
</trkpt>
<trkpt lat="22.065596" lon="103.876892">
<ele>637.648926</ele>
<time>2011-04-26T01:42:35Z</time>
<desc>lat.=22.065596, lon.=103.876892, Alt.=637.648926m. Speed=8.244000m/h.</desc>
<speed>2.290000</speed>
</trkpt>
<trkpt lat="22.065588" lon="103.877007">
<ele>639.680176</ele>
<time>2011-04-26T01:42:40Z</time>
<desc>lat.=22.065588, lon.=103.877007, Alt.=639.680176m. Speed=7.956000m/h.</desc>
<speed>2.210000</speed>
</trkpt>
<trkpt lat="22.065561" lon="103.877121">
<ele>642.305176</ele>
<time>2011-04-26T01:42:45Z</time>
<desc>lat.=22.065561, lon.=103.877121, Alt.=642.305176m. Speed=9.252000m/h.</desc>
<speed>2.570000</speed>
</trkpt>
<trkpt lat="22.065556" lon="103.877251">
<ele>644.586426</ele>
<time>2011-04-26T01:42:50Z</time>
<desc>lat.=22.065556, lon.=103.877251, Alt.=644.586426m. Speed=6.840000m/h.</desc>
<speed>1.900000</speed>
</trkpt>
<trkpt lat="22.065552" lon="103.877365">
<ele>645.695801</ele>
<time>2011-04-26T01:42:55Z</time>
<desc>lat.=22.065552, lon.=103.877365, Alt.=645.695801m. Speed=6.084000m/h.</desc>
<speed>1.690000</speed>
</trkpt>
<trkpt lat="22.065546" lon="103.877464">
<ele>646.180176</ele>
<time>2011-04-26T01:43:00Z</time>
<desc>lat.=22.065546, lon.=103.877464, Alt.=646.180176m. Speed=7.668000m/h.</desc>
<speed>2.130000</speed>
</trkpt>
<trkpt lat="22.065544" lon="103.877586">
<ele>647.648926</ele>
<time>2011-04-26T01:43:05Z</time>
<desc>lat.=22.065544, lon.=103.877586, Alt.=647.648926m. Speed=8.064000m/h.</desc>
<speed>2.240000</speed>
</trkpt>
<trkpt lat="22.065552" lon="103.877686">
<ele>648.523926</ele>
<time>2011-04-26T01:43:10Z</time>
<desc>lat.=22.065552, lon.=103.877686, Alt.=648.523926m. Speed=6.876000m/h.</desc>
<speed>1.910000</speed>
</trkpt>
<trkpt lat="22.065571" lon="103.877808">
<ele>646.914551</ele>
<time>2011-04-26T01:43:15Z</time>
<desc>lat.=22.065571, lon.=103.877808, Alt.=646.914551m. Speed=5.364000m/h.</desc>
<speed>1.490000</speed>
</trkpt>
<trkpt lat="22.065573" lon="103.877914">
<ele>645.586426</ele>
<time>2011-04-26T01:43:20Z</time>
<desc>lat.=22.065573, lon.=103.877914, Alt.=645.586426m. Speed=7.236000m/h.</desc>
<speed>2.010000</speed>
</trkpt>
<trkpt lat="22.065588" lon="103.878021">
<ele>645.977051</ele>
<time>2011-04-26T01:43:25Z</time>
<desc>lat.=22.065588, lon.=103.878021, Alt.=645.977051m. Speed=7.380000m/h.</desc>
<speed>2.050000</speed>
</trkpt>
<trkpt lat="22.065599" lon="103.878128">
<ele>646.008301</ele>
<time>2011-04-26T01:43:30Z</time>
<desc>lat.=22.065599, lon.=103.878128, Alt.=646.008301m. Speed=7.884000m/h.</desc>
<speed>2.190000</speed>
</trkpt>
<trkpt lat="22.065613" lon="103.878235">
<ele>644.023926</ele>
<time>2011-04-26T01:43:35Z</time>
<desc>lat.=22.065613, lon.=103.878235, Alt.=644.023926m. Speed=6.768000m/h.</desc>
<speed>1.880000</speed>
</trkpt>
<trkpt lat="22.065626" lon="103.878357">
<ele>640.664551</ele>
<time>2011-04-26T01:43:40Z</time>
<desc>lat.=22.065626, lon.=103.878357, Alt.=640.664551m. Speed=7.272000m/h.</desc>
<speed>2.020000</speed>
</trkpt>
<trkpt lat="22.065634" lon="103.878471">
<ele>639.852051</ele>
<time>2011-04-26T01:43:45Z</time>
<desc>lat.=22.065634, lon.=103.878471, Alt.=639.852051m. Speed=7.236000m/h.</desc>
<speed>2.010000</speed>
</trkpt>
<trkpt lat="22.065647" lon="103.878571">
<ele>640.211426</ele>
<time>2011-04-26T01:43:50Z</time>
<desc>lat.=22.065647, lon.=103.878571, Alt.=640.211426m. Speed=6.660000m/h.</desc>
<speed>1.850000</speed>
</trkpt>
<trkpt lat="22.065643" lon="103.878670">
<ele>640.930176</ele>
<time>2011-04-26T01:43:55Z</time>
<desc>lat.=22.065643, lon.=103.878670, Alt.=640.930176m. Speed=6.912000m/h.</desc>
<speed>1.920000</speed>
</trkpt>
<trkpt lat="22.065660" lon="103.878761">
<ele>640.867676</ele>
<time>2011-04-26T01:44:00Z</time>
<desc>lat.=22.065660, lon.=103.878761, Alt.=640.867676m. Speed=8.136000m/h.</desc>
<speed>2.260000</speed>
</trkpt>
<trkpt lat="22.065659" lon="103.878860">
<ele>641.086426</ele>
<time>2011-04-26T01:44:05Z</time>
<desc>lat.=22.065659, lon.=103.878860, Alt.=641.086426m. Speed=6.948000m/h.</desc>
<speed>1.930000</speed>
</trkpt>
<trkpt lat="22.065666" lon="103.878967">
<ele>640.977051</ele>
<time>2011-04-26T01:44:10Z</time>
<desc>lat.=22.065666, lon.=103.878967, Alt.=640.977051m. Speed=7.560000m/h.</desc>
<speed>2.100000</speed>
</trkpt>
<trkpt lat="22.065676" lon="103.879059">
<ele>639.836426</ele>
<time>2011-04-26T01:44:15Z</time>
<desc>lat.=22.065676, lon.=103.879059, Alt.=639.836426m. Speed=6.480000m/h.</desc>
<speed>1.800000</speed>
</trkpt>
<trkpt lat="22.065676" lon="103.879158">
<ele>640.430176</ele>
<time>2011-04-26T01:44:20Z</time>
<desc>lat.=22.065676, lon.=103.879158, Alt.=640.430176m. Speed=7.380000m/h.</desc>
<speed>2.050000</speed>
</trkpt>
<trkpt lat="22.065680" lon="103.879265">
<ele>640.539551</ele>
<time>2011-04-26T01:44:25Z</time>
<desc>lat.=22.065680, lon.=103.879265, Alt.=640.539551m. Speed=8.604000m/h.</desc>
<speed>2.390000</speed>
</trkpt>
<trkpt lat="22.065689" lon="103.879379">
<ele>640.508301</ele>
<time>2011-04-26T01:44:30Z</time>
<desc>lat.=22.065689, lon.=103.879379, Alt.=640.508301m. Speed=6.948000m/h.</desc>
<speed>1.930000</speed>
</trkpt>
<trkpt lat="22.065697" lon="103.879478">
<ele>640.602051</ele>
<time>2011-04-26T01:44:35Z</time>
<desc>lat.=22.065697, lon.=103.879478, Alt.=640.602051m. Speed=4.968000m/h.</desc>
<speed>1.380000</speed>
</trkpt>
<trkpt lat="22.065702" lon="103.879578">
<ele>640.945801</ele>
<time>2011-04-26T01:44:40Z</time>
<desc>lat.=22.065702, lon.=103.879578, Alt.=640.945801m. Speed=5.796000m/h.</desc>
<speed>1.610000</speed>
</trkpt>
<trkpt lat="22.065708" lon="103.879684">
<ele>639.945801</ele>
<time>2011-04-26T01:44:45Z</time>
<desc>lat.=22.065708, lon.=103.879684, Alt.=639.945801m. Speed=7.488000m/h.</desc>
<speed>2.080000</speed>
</trkpt>
<trkpt lat="22.065702" lon="103.879807">
<ele>640.102051</ele>
<time>2011-04-26T01:44:50Z</time>
<desc>lat.=22.065702, lon.=103.879807, Alt.=640.102051m. Speed=7.236000m/h.</desc>
<speed>2.010000</speed>
</trkpt>
<trkpt lat="22.065718" lon="103.879906">
<ele>639.961426</ele>
<time>2011-04-26T01:44:55Z</time>
<desc>lat.=22.065718, lon.=103.879906, Alt.=639.961426m. Speed=7.092000m/h.</desc>
<speed>1.970000</speed>
</trkpt>
<trkpt lat="22.065737" lon="103.879997">
<ele>640.133301</ele>
<time>2011-04-26T01:45:00Z</time>
<desc>lat.=22.065737, lon.=103.879997, Alt.=640.133301m. Speed=4.140000m/h.</desc>
<speed>1.150000</speed>
</trkpt>
<trkpt lat="22.065741" lon="103.880066">
<ele>639.992676</ele>
<time>2011-04-26T01:45:05Z</time>
<desc>lat.=22.065741, lon.=103.880066, Alt.=639.992676m. Speed=6.480000m/h.</desc>
<speed>1.800000</speed>
</trkpt>
<trkpt lat="22.065752" lon="103.880165">
<ele>638.680176</ele>
<time>2011-04-26T01:45:10Z</time>
<desc>lat.=22.065752, lon.=103.880165, Alt.=638.680176m. Speed=6.912000m/h.</desc>
<speed>1.920000</speed>
</trkpt>
<trkpt lat="22.065763" lon="103.880257">
<ele>639.133301</ele>
<time>2011-04-26T01:45:15Z</time>
<desc>lat.=22.065763, lon.=103.880257, Alt.=639.133301m. Speed=6.048000m/h.</desc>
<speed>1.680000</speed>
</trkpt>
<trkpt lat="22.065767" lon="103.880356">
<ele>639.945801</ele>
<time>2011-04-26T01:45:20Z</time>
<desc>lat.=22.065767, lon.=103.880356, Alt.=639.945801m. Speed=5.796000m/h.</desc>
<speed>1.610000</speed>
</trkpt>
<trkpt lat="22.065763" lon="103.880447">
<ele>641.617676</ele>
<time>2011-04-26T01:45:25Z</time>
<desc>lat.=22.065763, lon.=103.880447, Alt.=641.617676m. Speed=7.344000m/h.</desc>
<speed>2.040000</speed>
</trkpt>
<trkpt lat="22.065760" lon="103.880547">
<ele>642.336426</ele>
<time>2011-04-26T01:45:30Z</time>
<desc>lat.=22.065760, lon.=103.880547, Alt.=642.336426m. Speed=7.812000m/h.</desc>
<speed>2.170000</speed>
</trkpt>
<trkpt lat="22.065762" lon="103.880638">
<ele>643.211426</ele>
<time>2011-04-26T01:45:35Z</time>
<desc>lat.=22.065762, lon.=103.880638, Alt.=643.211426m. Speed=5.796000m/h.</desc>
<speed>1.610000</speed>
</trkpt>
<trkpt lat="22.065769" lon="103.880737">
<ele>643.180176</ele>
<time>2011-04-26T01:45:40Z</time>
<desc>lat.=22.065769, lon.=103.880737, Alt.=643.180176m. Speed=6.624000m/h.</desc>
<speed>1.840000</speed>
</trkpt>
<trkpt lat="22.065771" lon="103.880798">
<ele>643.539551</ele>
<time>2011-04-26T01:45:45Z</time>
<desc>lat.=22.065771, lon.=103.880798, Alt.=643.539551m. Speed=5.256000m/h.</desc>
<speed>1.460000</speed>
</trkpt>
<trkpt lat="22.065779" lon="103.880882">
<ele>643.805176</ele>
<time>2011-04-26T01:45:50Z</time>
<desc>lat.=22.065779, lon.=103.880882, Alt.=643.805176m. Speed=6.552000m/h.</desc>
<speed>1.820000</speed>
</trkpt>
<trkpt lat="22.065790" lon="103.880959">
<ele>644.664551</ele>
<time>2011-04-26T01:45:55Z</time>
<desc>lat.=22.065790, lon.=103.880959, Alt.=644.664551m. Speed=6.120000m/h.</desc>
<speed>1.700000</speed>
</trkpt>
<trkpt lat="22.065796" lon="103.881042">
<ele>645.273926</ele>
<time>2011-04-26T01:46:00Z</time>
<desc>lat.=22.065796, lon.=103.881042, Alt.=645.273926m. Speed=5.940000m/h.</desc>
<speed>1.650000</speed>
</trkpt>
<trkpt lat="22.065811" lon="103.881134">
<ele>645.102051</ele>
<time>2011-04-26T01:46:05Z</time>
<desc>lat.=22.065811, lon.=103.881134, Alt.=645.102051m. Speed=6.228000m/h.</desc>
<speed>1.730000</speed>
</trkpt>
<trkpt lat="22.065813" lon="103.881233">
<ele>645.133301</ele>
<time>2011-04-26T01:46:10Z</time>
<desc>lat.=22.065813, lon.=103.881233, Alt.=645.133301m. Speed=6.948000m/h.</desc>
<speed>1.930000</speed>
</trkpt>
<trkpt lat="22.065811" lon="103.881310">
<ele>644.789551</ele>
<time>2011-04-26T01:46:15Z</time>
<desc>lat.=22.065811, lon.=103.881310, Alt.=644.789551m. Speed=4.284000m/h.</desc>
<speed>1.190000</speed>
</trkpt>
<trkpt lat="22.065821" lon="103.881393">
<ele>644.383301</ele>
<time>2011-04-26T01:46:20Z</time>
<desc>lat.=22.065821, lon.=103.881393, Alt.=644.383301m. Speed=5.832000m/h.</desc>
<speed>1.620000</speed>
</trkpt>
<trkpt lat="22.065832" lon="103.881454">
<ele>644.273926</ele>
<time>2011-04-26T01:46:25Z</time>
<desc>lat.=22.065832, lon.=103.881454, Alt.=644.273926m. Speed=1.044000m/h.</desc>
<speed>0.290000</speed>
</trkpt>
<trkpt lat="22.065832" lon="103.881462">
<ele>644.227051</ele>
<time>2011-04-26T01:46:30Z</time>
<desc>lat.=22.065832, lon.=103.881462, Alt.=644.227051m. Speed=0.864000m/h.</desc>
<speed>0.240000</speed>
</trkpt>
<trkpt lat="22.065825" lon="103.881485">
<ele>644.180176</ele>
<time>2011-04-26T01:46:35Z</time>
<desc>lat.=22.065825, lon.=103.881485, Alt.=644.180176m. Speed=2.124000m/h.</desc>
<speed>0.590000</speed>
</trkpt>
<trkpt lat="22.065821" lon="103.881561">
<ele>643.898926</ele>
<time>2011-04-26T01:46:40Z</time>
<desc>lat.=22.065821, lon.=103.881561, Alt.=643.898926m. Speed=7.596000m/h.</desc>
<speed>2.110000</speed>
</trkpt>
<trkpt lat="22.065828" lon="103.881668">
<ele>643.586426</ele>
<time>2011-04-26T01:46:45Z</time>
<desc>lat.=22.065828, lon.=103.881668, Alt.=643.586426m. Speed=7.668000m/h.</desc>
<speed>2.130000</speed>
</trkpt>
<trkpt lat="22.065844" lon="103.881783">
<ele>642.914551</ele>
<time>2011-04-26T01:46:50Z</time>
<desc>lat.=22.065844, lon.=103.881783, Alt.=642.914551m. Speed=7.740000m/h.</desc>
<speed>2.150000</speed>
</trkpt>
<trkpt lat="22.065842" lon="103.881897">
<ele>641.711426</ele>
<time>2011-04-26T01:46:55Z</time>
<desc>lat.=22.065842, lon.=103.881897, Alt.=641.711426m. Speed=5.868000m/h.</desc>
<speed>1.630000</speed>
</trkpt>
<trkpt lat="22.065842" lon="103.881996">
<ele>640.836426</ele>
<time>2011-04-26T01:47:00Z</time>
<desc>lat.=22.065842, lon.=103.881996, Alt.=640.836426m. Speed=6.696000m/h.</desc>
<speed>1.860000</speed>
</trkpt>
<trkpt lat="22.065845" lon="103.882072">
<ele>639.789551</ele>
<time>2011-04-26T01:47:05Z</time>
<desc>lat.=22.065845, lon.=103.882072, Alt.=639.789551m. Speed=4.428000m/h.</desc>
<speed>1.230000</speed>
</trkpt>
<trkpt lat="22.065847" lon="103.882141">
<ele>640.586426</ele>
<time>2011-04-26T01:47:10Z</time>
<desc>lat.=22.065847, lon.=103.882141, Alt.=640.586426m. Speed=3.960000m/h.</desc>
<speed>1.100000</speed>
</trkpt>
<trkpt lat="22.065853" lon="103.882225">
<ele>640.648926</ele>
<time>2011-04-26T01:47:15Z</time>
<desc>lat.=22.065853, lon.=103.882225, Alt.=640.648926m. Speed=5.688000m/h.</desc>
<speed>1.580000</speed>
</trkpt>
<trkpt lat="22.065865" lon="103.882301">
<ele>639.586426</ele>
<time>2011-04-26T01:47:20Z</time>
<desc>lat.=22.065865, lon.=103.882301, Alt.=639.586426m. Speed=4.392000m/h.</desc>
<speed>1.220000</speed>
</trkpt>
<trkpt lat="22.065868" lon="103.882385">
<ele>639.305176</ele>
<time>2011-04-26T01:47:25Z</time>
<desc>lat.=22.065868, lon.=103.882385, Alt.=639.305176m. Speed=5.148000m/h.</desc>
<speed>1.430000</speed>
</trkpt>
<trkpt lat="22.065884" lon="103.882469">
<ele>641.695801</ele>
<time>2011-04-26T01:47:30Z</time>
<desc>lat.=22.065884, lon.=103.882469, Alt.=641.695801m. Speed=3.852000m/h.</desc>
<speed>1.070000</speed>
</trkpt>
<trkpt lat="22.065891" lon="103.882553">
<ele>643.602051</ele>
<time>2011-04-26T01:47:35Z</time>
<desc>lat.=22.065891, lon.=103.882553, Alt.=643.602051m. Speed=5.220000m/h.</desc>
<speed>1.450000</speed>
</trkpt>
<trkpt lat="22.065899" lon="103.882629">
<ele>642.477051</ele>
<time>2011-04-26T01:47:40Z</time>
<desc>lat.=22.065899, lon.=103.882629, Alt.=642.477051m. Speed=5.508000m/h.</desc>
<speed>1.530000</speed>
</trkpt>
<trkpt lat="22.065908" lon="103.882706">
<ele>642.508301</ele>
<time>2011-04-26T01:47:45Z</time>
<desc>lat.=22.065908, lon.=103.882706, Alt.=642.508301m. Speed=6.372000m/h.</desc>
<speed>1.770000</speed>
</trkpt>
<trkpt lat="22.065908" lon="103.882790">
<ele>642.023926</ele>
<time>2011-04-26T01:47:50Z</time>
<desc>lat.=22.065908, lon.=103.882790, Alt.=642.023926m. Speed=6.804000m/h.</desc>
<speed>1.890000</speed>
</trkpt>
<trkpt lat="22.065910" lon="103.882881">
<ele>641.789551</ele>
<time>2011-04-26T01:47:55Z</time>
<desc>lat.=22.065910, lon.=103.882881, Alt.=641.789551m. Speed=6.444000m/h.</desc>
<speed>1.790000</speed>
</trkpt>
<trkpt lat="22.065926" lon="103.882973">
<ele>641.117676</ele>
<time>2011-04-26T01:48:00Z</time>
<desc>lat.=22.065926, lon.=103.882973, Alt.=641.117676m. Speed=6.588000m/h.</desc>
<speed>1.830000</speed>
</trkpt>
<trkpt lat="22.065916" lon="103.883041">
<ele>643.273926</ele>
<time>2011-04-26T01:48:05Z</time>
<desc>lat.=22.065916, lon.=103.883041, Alt.=643.273926m. Speed=6.012000m/h.</desc>
<speed>1.670000</speed>
</trkpt>
<trkpt lat="22.065933" lon="103.883133">
<ele>642.492676</ele>
<time>2011-04-26T01:48:10Z</time>
<desc>lat.=22.065933, lon.=103.883133, Alt.=642.492676m. Speed=6.552000m/h.</desc>
<speed>1.820000</speed>
</trkpt>
<trkpt lat="22.065950" lon="103.883217">
<ele>644.242676</ele>
<time>2011-04-26T01:48:15Z</time>
<desc>lat.=22.065950, lon.=103.883217, Alt.=644.242676m. Speed=5.364000m/h.</desc>
<speed>1.490000</speed>
</trkpt>
<trkpt lat="22.065958" lon="103.883308">
<ele>646.883301</ele>
<time>2011-04-26T01:48:20Z</time>
<desc>lat.=22.065958, lon.=103.883308, Alt.=646.883301m. Speed=6.300000m/h.</desc>
<speed>1.750000</speed>
</trkpt>
<trkpt lat="22.065962" lon="103.883392">
<ele>648.023926</ele>
<time>2011-04-26T01:48:25Z</time>
<desc>lat.=22.065962, lon.=103.883392, Alt.=648.023926m. Speed=6.768000m/h.</desc>
<speed>1.880000</speed>
</trkpt>
<trkpt lat="22.065960" lon="103.883499">
<ele>648.602051</ele>
<time>2011-04-26T01:48:30Z</time>
<desc>lat.=22.065960, lon.=103.883499, Alt.=648.602051m. Speed=7.452000m/h.</desc>
<speed>2.070000</speed>
</trkpt>
<trkpt lat="22.065962" lon="103.883591">
<ele>648.445801</ele>
<time>2011-04-26T01:48:35Z</time>
<desc>lat.=22.065962, lon.=103.883591, Alt.=648.445801m. Speed=6.660000m/h.</desc>
<speed>1.850000</speed>
</trkpt>
<trkpt lat="22.065969" lon="103.883690">
<ele>648.914551</ele>
<time>2011-04-26T01:48:40Z</time>
<desc>lat.=22.065969, lon.=103.883690, Alt.=648.914551m. Speed=7.128000m/h.</desc>
<speed>1.980000</speed>
</trkpt>
<trkpt lat="22.065981" lon="103.883781">
<ele>648.430176</ele>
<time>2011-04-26T01:48:45Z</time>
<desc>lat.=22.065981, lon.=103.883781, Alt.=648.430176m. Speed=6.408000m/h.</desc>
<speed>1.780000</speed>
</trkpt>
<trkpt lat="22.065985" lon="103.883865">
<ele>648.633301</ele>
<time>2011-04-26T01:48:50Z</time>
<desc>lat.=22.065985, lon.=103.883865, Alt.=648.633301m. Speed=5.472000m/h.</desc>
<speed>1.520000</speed>
</trkpt>
<trkpt lat="22.065990" lon="103.883942">
<ele>648.102051</ele>
<time>2011-04-26T01:48:55Z</time>
<desc>lat.=22.065990, lon.=103.883942, Alt.=648.102051m. Speed=6.300000m/h.</desc>
<speed>1.750000</speed>
</trkpt>
<trkpt lat="22.066004" lon="103.884041">
<ele>649.258301</ele>
<time>2011-04-26T01:49:00Z</time>
<desc>lat.=22.066004, lon.=103.884041, Alt.=649.258301m. Speed=6.624000m/h.</desc>
<speed>1.840000</speed>
</trkpt>
<trkpt lat="22.066006" lon="103.884125">
<ele>649.773926</ele>
<time>2011-04-26T01:49:05Z</time>
<desc>lat.=22.066006, lon.=103.884125, Alt.=649.773926m. Speed=5.184000m/h.</desc>
<speed>1.440000</speed>
</trkpt>
<trkpt lat="22.066015" lon="103.884201">
<ele>650.914551</ele>
<time>2011-04-26T01:49:10Z</time>
<desc>lat.=22.066015, lon.=103.884201, Alt.=650.914551m. Speed=5.904000m/h.</desc>
<speed>1.640000</speed>
</trkpt>
<trkpt lat="22.066021" lon="103.884285">
<ele>650.523926</ele>
<time>2011-04-26T01:49:15Z</time>
<desc>lat.=22.066021, lon.=103.884285, Alt.=650.523926m. Speed=5.904000m/h.</desc>
<speed>1.640000</speed>
</trkpt>
<trkpt lat="22.066034" lon="103.884369">
<ele>650.039551</ele>
<time>2011-04-26T01:49:20Z</time>
<desc>lat.=22.066034, lon.=103.884369, Alt.=650.039551m. Speed=6.732000m/h.</desc>
<speed>1.870000</speed>
</trkpt>
<trkpt lat="22.066040" lon="103.884453">
<ele>649.164551</ele>
<time>2011-04-26T01:49:25Z</time>
<desc>lat.=22.066040, lon.=103.884453, Alt.=649.164551m. Speed=5.472000m/h.</desc>
<speed>1.520000</speed>
</trkpt>
<trkpt lat="22.066046" lon="103.884529">
<ele>648.586426</ele>
<time>2011-04-26T01:49:30Z</time>
<desc>lat.=22.066046, lon.=103.884529, Alt.=648.586426m. Speed=4.536000m/h.</desc>
<speed>1.260000</speed>
</trkpt>
<trkpt lat="22.066046" lon="103.884598">
<ele>649.289551</ele>
<time>2011-04-26T01:49:35Z</time>
<desc>lat.=22.066046, lon.=103.884598, Alt.=649.289551m. Speed=6.336000m/h.</desc>
<speed>1.760000</speed>
</trkpt>
<trkpt lat="22.066042" lon="103.884674">
<ele>648.930176</ele>
<time>2011-04-26T01:49:40Z</time>
<desc>lat.=22.066042, lon.=103.884674, Alt.=648.930176m. Speed=6.012000m/h.</desc>
<speed>1.670000</speed>
</trkpt>
<trkpt lat="22.066061" lon="103.884766">
<ele>649.039551</ele>
<time>2011-04-26T01:49:45Z</time>
<desc>lat.=22.066061, lon.=103.884766, Alt.=649.039551m. Speed=6.624000m/h.</desc>
<speed>1.840000</speed>
</trkpt>
<trkpt lat="22.066074" lon="103.884850">
<ele>649.227051</ele>
<time>2011-04-26T01:49:50Z</time>
<desc>lat.=22.066074, lon.=103.884850, Alt.=649.227051m. Speed=5.004000m/h.</desc>
<speed>1.390000</speed>
</trkpt>
<trkpt lat="22.066076" lon="103.884926">
<ele>649.117676</ele>
<time>2011-04-26T01:49:55Z</time>
<desc>lat.=22.066076, lon.=103.884926, Alt.=649.117676m. Speed=5.688000m/h.</desc>
<speed>1.580000</speed>
</trkpt>
<trkpt lat="22.066080" lon="103.885010">
<ele>649.977051</ele>
<time>2011-04-26T01:50:00Z</time>
<desc>lat.=22.066080, lon.=103.885010, Alt.=649.977051m. Speed=6.300000m/h.</desc>
<speed>1.750000</speed>
</trkpt>
<trkpt lat="22.066084" lon="103.885109">
<ele>652.055176</ele>
<time>2011-04-26T01:50:05Z</time>
<desc>lat.=22.066084, lon.=103.885109, Alt.=652.055176m. Speed=6.588000m/h.</desc>
<speed>1.830000</speed>
</trkpt>
<trkpt lat="22.066095" lon="103.885193">
<ele>653.211426</ele>
<time>2011-04-26T01:50:10Z</time>
<desc>lat.=22.066095, lon.=103.885193, Alt.=653.211426m. Speed=5.472000m/h.</desc>
<speed>1.520000</speed>
</trkpt>
<trkpt lat="22.066099" lon="103.885262">
<ele>654.414551</ele>
<time>2011-04-26T01:50:15Z</time>
<desc>lat.=22.066099, lon.=103.885262, Alt.=654.414551m. Speed=4.824000m/h.</desc>
<speed>1.340000</speed>
</trkpt>
<trkpt lat="22.066103" lon="103.885338">
<ele>654.180176</ele>
<time>2011-04-26T01:50:20Z</time>
<desc>lat.=22.066103, lon.=103.885338, Alt.=654.180176m. Speed=6.300000m/h.</desc>
<speed>1.750000</speed>
</trkpt>
<trkpt lat="22.066114" lon="103.885429">
<ele>654.727051</ele>
<time>2011-04-26T01:50:25Z</time>
<desc>lat.=22.066114, lon.=103.885429, Alt.=654.727051m. Speed=7.200000m/h.</desc>
<speed>2.000000</speed>
</trkpt>
<trkpt lat="22.066124" lon="103.885506">
<ele>656.258301</ele>
<time>2011-04-26T01:50:30Z</time>
<desc>lat.=22.066124, lon.=103.885506, Alt.=656.258301m. Speed=5.904000m/h.</desc>
<speed>1.640000</speed>
</trkpt>
<trkpt lat="22.066124" lon="103.885590">
<ele>657.195801</ele>
<time>2011-04-26T01:50:35Z</time>
<desc>lat.=22.066124, lon.=103.885590, Alt.=657.195801m. Speed=6.192000m/h.</desc>
<speed>1.720000</speed>
</trkpt>
<trkpt lat="22.066135" lon="103.885666">
<ele>658.633301</ele>
<time>2011-04-26T01:50:40Z</time>
<desc>lat.=22.066135, lon.=103.885666, Alt.=658.633301m. Speed=6.264000m/h.</desc>
<speed>1.740000</speed>
</trkpt>
<trkpt lat="22.066145" lon="103.885750">
<ele>659.695801</ele>
<time>2011-04-26T01:50:45Z</time>
<desc>lat.=22.066145, lon.=103.885750, Alt.=659.695801m. Speed=5.616000m/h.</desc>
<speed>1.560000</speed>
</trkpt>
<trkpt lat="22.066147" lon="103.885818">
<ele>661.039551</ele>
<time>2011-04-26T01:50:50Z</time>
<desc>lat.=22.066147, lon.=103.885818, Alt.=661.039551m. Speed=5.796000m/h.</desc>
<speed>1.610000</speed>
</trkpt>
<trkpt lat="22.066149" lon="103.885895">
<ele>661.039551</ele>
<time>2011-04-26T01:50:55Z</time>
<desc>lat.=22.066149, lon.=103.885895, Alt.=661.039551m. Speed=5.652000m/h.</desc>
<speed>1.570000</speed>
</trkpt>
<trkpt lat="22.066158" lon="103.885979">
<ele>662.555176</ele>
<time>2011-04-26T01:51:00Z</time>
<desc>lat.=22.066158, lon.=103.885979, Alt.=662.555176m. Speed=5.004000m/h.</desc>
<speed>1.390000</speed>
</trkpt>
<trkpt lat="22.066166" lon="103.886055">
<ele>664.836426</ele>
<time>2011-04-26T01:51:05Z</time>
<desc>lat.=22.066166, lon.=103.886055, Alt.=664.836426m. Speed=5.148000m/h.</desc>
<speed>1.430000</speed>
</trkpt>
<trkpt lat="22.066168" lon="103.886131">
<ele>665.711426</ele>
<time>2011-04-26T01:51:10Z</time>
<desc>lat.=22.066168, lon.=103.886131, Alt.=665.711426m. Speed=5.508000m/h.</desc>
<speed>1.530000</speed>
</trkpt>
<trkpt lat="22.066168" lon="103.886200">
<ele>666.680176</ele>
<time>2011-04-26T01:51:15Z</time>
<desc>lat.=22.066168, lon.=103.886200, Alt.=666.680176m. Speed=5.256000m/h.</desc>
<speed>1.460000</speed>
</trkpt>
<trkpt lat="22.066175" lon="103.886269">
<ele>667.508301</ele>
<time>2011-04-26T01:51:20Z</time>
<desc>lat.=22.066175, lon.=103.886269, Alt.=667.508301m. Speed=5.796000m/h.</desc>
<speed>1.610000</speed>
</trkpt>
<trkpt lat="22.066172" lon="103.886330">
<ele>668.742676</ele>
<time>2011-04-26T01:51:25Z</time>
<desc>lat.=22.066172, lon.=103.886330, Alt.=668.742676m. Speed=5.544000m/h.</desc>
<speed>1.540000</speed>
</trkpt>
<trkpt lat="22.066174" lon="103.886406">
<ele>669.961426</ele>
<time>2011-04-26T01:51:30Z</time>
<desc>lat.=22.066174, lon.=103.886406, Alt.=669.961426m. Speed=5.976000m/h.</desc>
<speed>1.660000</speed>
</trkpt>
<trkpt lat="22.066185" lon="103.886482">
<ele>671.102051</ele>
<time>2011-04-26T01:51:35Z</time>
<desc>lat.=22.066185, lon.=103.886482, Alt.=671.102051m. Speed=6.228000m/h.</desc>
<speed>1.730000</speed>
</trkpt>
<trkpt lat="22.066200" lon="103.886559">
<ele>672.367676</ele>
<time>2011-04-26T01:51:40Z</time>
<desc>lat.=22.066200, lon.=103.886559, Alt.=672.367676m. Speed=4.752000m/h.</desc>
<speed>1.320000</speed>
</trkpt>
<trkpt lat="22.066212" lon="103.886620">
<ele>673.742676</ele>
<time>2011-04-26T01:51:45Z</time>
<desc>lat.=22.066212, lon.=103.886620, Alt.=673.742676m. Speed=6.876000m/h.</desc>
<speed>1.910000</speed>
</trkpt>
<trkpt lat="22.066227" lon="103.886711">
<ele>674.805176</ele>
<time>2011-04-26T01:51:50Z</time>
<desc>lat.=22.066227, lon.=103.886711, Alt.=674.805176m. Speed=7.092000m/h.</desc>
<speed>1.970000</speed>
</trkpt>
<trkpt lat="22.066250" lon="103.886818">
<ele>675.695801</ele>
<time>2011-04-26T01:51:55Z</time>
<desc>lat.=22.066250, lon.=103.886818, Alt.=675.695801m. Speed=9.252000m/h.</desc>
<speed>2.570000</speed>
</trkpt>
<trkpt lat="22.066301" lon="103.886971">
<ele>675.211426</ele>
<time>2011-04-26T01:52:00Z</time>
<desc>lat.=22.066301, lon.=103.886971, Alt.=675.211426m. Speed=13.752000m/h.</desc>
<speed>3.820000</speed>
</trkpt>
<trkpt lat="22.066383" lon="103.887146">
<ele>673.445801</ele>
<time>2011-04-26T01:52:05Z</time>
<desc>lat.=22.066383, lon.=103.887146, Alt.=673.445801m. Speed=14.148000m/h.</desc>
<speed>3.930000</speed>
</trkpt>
<trkpt lat="22.066475" lon="103.887321">
<ele>671.883301</ele>
<time>2011-04-26T01:52:10Z</time>
<desc>lat.=22.066475, lon.=103.887321, Alt.=671.883301m. Speed=13.716000m/h.</desc>
<speed>3.810000</speed>
</trkpt>
<trkpt lat="22.066547" lon="103.887474">
<ele>672.773926</ele>
<time>2011-04-26T01:52:15Z</time>
<desc>lat.=22.066547, lon.=103.887474, Alt.=672.773926m. Speed=12.384000m/h.</desc>
<speed>3.440000</speed>
</trkpt>
<trkpt lat="22.066608" lon="103.887634">
<ele>675.945801</ele>
<time>2011-04-26T01:52:20Z</time>
<desc>lat.=22.066608, lon.=103.887634, Alt.=675.945801m. Speed=11.160000m/h.</desc>
<speed>3.100000</speed>
</trkpt>
<trkpt lat="22.066643" lon="103.887787">
<ele>677.195801</ele>
<time>2011-04-26T01:52:25Z</time>
<desc>lat.=22.066643, lon.=103.887787, Alt.=677.195801m. Speed=9.576000m/h.</desc>
<speed>2.660000</speed>
</trkpt>
<trkpt lat="22.066654" lon="103.887917">
<ele>678.273926</ele>
<time>2011-04-26T01:52:30Z</time>
<desc>lat.=22.066654, lon.=103.887917, Alt.=678.273926m. Speed=4.968000m/h.</desc>
<speed>1.380000</speed>
</trkpt>
<trkpt lat="22.066648" lon="103.888016">
<ele>679.289551</ele>
<time>2011-04-26T01:52:35Z</time>
<desc>lat.=22.066648, lon.=103.888016, Alt.=679.289551m. Speed=7.056000m/h.</desc>
<speed>1.960000</speed>
</trkpt>
<trkpt lat="22.066633" lon="103.888100">
<ele>679.961426</ele>
<time>2011-04-26T01:52:40Z</time>
<desc>lat.=22.066633, lon.=103.888100, Alt.=679.961426m. Speed=6.480000m/h.</desc>
<speed>1.800000</speed>
</trkpt>
<trkpt lat="22.066628" lon="103.888191">
<ele>682.008301</ele>
<time>2011-04-26T01:52:45Z</time>
<desc>lat.=22.066628, lon.=103.888191, Alt.=682.008301m. Speed=6.336000m/h.</desc>
<speed>1.760000</speed>
</trkpt>
<trkpt lat="22.066605" lon="103.888268">
<ele>682.430176</ele>
<time>2011-04-26T01:52:50Z</time>
<desc>lat.=22.066605, lon.=103.888268, Alt.=682.430176m. Speed=6.156000m/h.</desc>
<speed>1.710000</speed>
</trkpt>
<trkpt lat="22.066584" lon="103.888336">
<ele>682.820801</ele>
<time>2011-04-26T01:52:55Z</time>
<desc>lat.=22.066584, lon.=103.888336, Alt.=682.820801m. Speed=4.536000m/h.</desc>
<speed>1.260000</speed>
</trkpt>
<trkpt lat="22.066559" lon="103.888390">
<ele>683.289551</ele>
<time>2011-04-26T01:53:00Z</time>
<desc>lat.=22.066559, lon.=103.888390, Alt.=683.289551m. Speed=4.752000m/h.</desc>
<speed>1.320000</speed>
</trkpt>
<trkpt lat="22.066513" lon="103.888466">
<ele>684.523926</ele>
<time>2011-04-26T01:53:05Z</time>
<desc>lat.=22.066513, lon.=103.888466, Alt.=684.523926m. Speed=3.672000m/h.</desc>
<speed>1.020000</speed>
</trkpt>
<trkpt lat="22.066494" lon="103.888512">
<ele>685.086426</ele>
<time>2011-04-26T01:53:10Z</time>
<desc>lat.=22.066494, lon.=103.888512, Alt.=685.086426m. Speed=5.940000m/h.</desc>
<speed>1.650000</speed>
</trkpt>
<trkpt lat="22.066473" lon="103.888573">
<ele>685.758301</ele>
<time>2011-04-26T01:53:15Z</time>
<desc>lat.=22.066473, lon.=103.888573, Alt.=685.758301m. Speed=4.248000m/h.</desc>
<speed>1.180000</speed>
</trkpt>
<trkpt lat="22.066448" lon="103.888657">
<ele>686.117676</ele>
<time>2011-04-26T01:53:20Z</time>
<desc>lat.=22.066448, lon.=103.888657, Alt.=686.117676m. Speed=7.164000m/h.</desc>
<speed>1.990000</speed>
</trkpt>
<trkpt lat="22.066423" lon="103.888748">
<ele>686.805176</ele>
<time>2011-04-26T01:53:25Z</time>
<desc>lat.=22.066423, lon.=103.888748, Alt.=686.805176m. Speed=6.696000m/h.</desc>
<speed>1.860000</speed>
</trkpt>
<trkpt lat="22.066414" lon="103.888817">
<ele>687.195801</ele>
<time>2011-04-26T01:53:30Z</time>
<desc>lat.=22.066414, lon.=103.888817, Alt.=687.195801m. Speed=4.860000m/h.</desc>
<speed>1.350000</speed>
</trkpt>
<trkpt lat="22.066399" lon="103.888878">
<ele>688.195801</ele>
<time>2011-04-26T01:53:35Z</time>
<desc>lat.=22.066399, lon.=103.888878, Alt.=688.195801m. Speed=5.184000m/h.</desc>
<speed>1.440000</speed>
</trkpt>
<trkpt lat="22.066404" lon="103.888962">
<ele>689.242676</ele>
<time>2011-04-26T01:53:40Z</time>
<desc>lat.=22.066404, lon.=103.888962, Alt.=689.242676m. Speed=6.120000m/h.</desc>
<speed>1.700000</speed>
</trkpt>
<trkpt lat="22.066402" lon="103.889046">
<ele>690.211426</ele>
<time>2011-04-26T01:53:45Z</time>
<desc>lat.=22.066402, lon.=103.889046, Alt.=690.211426m. Speed=5.652000m/h.</desc>
<speed>1.570000</speed>
</trkpt>
<trkpt lat="22.066401" lon="103.889122">
<ele>691.070801</ele>
<time>2011-04-26T01:53:50Z</time>
<desc>lat.=22.066401, lon.=103.889122, Alt.=691.070801m. Speed=5.256000m/h.</desc>
<speed>1.460000</speed>
</trkpt>
<trkpt lat="22.066399" lon="103.889198">
<ele>691.945801</ele>
<time>2011-04-26T01:53:55Z</time>
<desc>lat.=22.066399, lon.=103.889198, Alt.=691.945801m. Speed=5.400000m/h.</desc>
<speed>1.500000</speed>
</trkpt>
<trkpt lat="22.066410" lon="103.889259">
<ele>693.492676</ele>
<time>2011-04-26T01:54:00Z</time>
<desc>lat.=22.066410, lon.=103.889259, Alt.=693.492676m. Speed=5.076000m/h.</desc>
<speed>1.410000</speed>
</trkpt>
<trkpt lat="22.066404" lon="103.889320">
<ele>693.258301</ele>
<time>2011-04-26T01:54:05Z</time>
<desc>lat.=22.066404, lon.=103.889320, Alt.=693.258301m. Speed=5.616000m/h.</desc>
<speed>1.560000</speed>
</trkpt>
<trkpt lat="22.066408" lon="103.889397">
<ele>694.070801</ele>
<time>2011-04-26T01:54:10Z</time>
<desc>lat.=22.066408, lon.=103.889397, Alt.=694.070801m. Speed=3.420000m/h.</desc>
<speed>0.950000</speed>
</trkpt>
<trkpt lat="22.066420" lon="103.889465">
<ele>695.508301</ele>
<time>2011-04-26T01:54:15Z</time>
<desc>lat.=22.066420, lon.=103.889465, Alt.=695.508301m. Speed=5.400000m/h.</desc>
<speed>1.500000</speed>
</trkpt>
<trkpt lat="22.066429" lon="103.889534">
<ele>696.320801</ele>
<time>2011-04-26T01:54:20Z</time>
<desc>lat.=22.066429, lon.=103.889534, Alt.=696.320801m. Speed=4.572000m/h.</desc>
<speed>1.270000</speed>
</trkpt>
<trkpt lat="22.066425" lon="103.889557">
<ele>695.914551</ele>
<time>2011-04-26T01:54:25Z</time>
<desc>lat.=22.066425, lon.=103.889557, Alt.=695.914551m. Speed=1.188000m/h.</desc>
<speed>0.330000</speed>
</trkpt>
<trkpt lat="22.066425" lon="103.889557">
<ele>695.414551</ele>
<time>2011-04-26T01:54:30Z</time>
<desc>lat.=22.066425, lon.=103.889557, Alt.=695.414551m. Speed=0.360000m/h.</desc>
<speed>0.100000</speed>
</trkpt>
<trkpt lat="22.066425" lon="103.889557">
<ele>695.273926</ele>
<time>2011-04-26T01:54:35Z</time>
<desc>lat.=22.066425, lon.=103.889557, Alt.=695.273926m. Speed=0.396000m/h.</desc>
<speed>0.110000</speed>
</trkpt>
<trkpt lat="22.066423" lon="103.889565">
<ele>695.320801</ele>
<time>2011-04-26T01:54:40Z</time>
<desc>lat.=22.066423, lon.=103.889565, Alt.=695.320801m. Speed=0.864000m/h.</desc>
<speed>0.240000</speed>
</trkpt>
<trkpt lat="22.066416" lon="103.889572">
<ele>695.273926</ele>
<time>2011-04-26T01:54:45Z</time>
<desc>lat.=22.066416, lon.=103.889572, Alt.=695.273926m. Speed=2.880000m/h.</desc>
<speed>0.800000</speed>
</trkpt>
<trkpt lat="22.066423" lon="103.889618">
<ele>695.773926</ele>
<time>2011-04-26T01:54:50Z</time>
<desc>lat.=22.066423, lon.=103.889618, Alt.=695.773926m. Speed=3.096000m/h.</desc>
<speed>0.860000</speed>
</trkpt>
<trkpt lat="22.066418" lon="103.889633">
<ele>696.258301</ele>
<time>2011-04-26T01:54:55Z</time>
<desc>lat.=22.066418, lon.=103.889633, Alt.=696.258301m. Speed=0.036000m/h.</desc>
<speed>0.010000</speed>
</trkpt>
<trkpt lat="22.066418" lon="103.889633">
<ele>696.227051</ele>
<time>2011-04-26T01:55:00Z</time>
<desc>lat.=22.066418, lon.=103.889633, Alt.=696.227051m. Speed=0.216000m/h.</desc>
<speed>0.060000</speed>
</trkpt>
<trkpt lat="22.066416" lon="103.889633">
<ele>696.289551</ele>
<time>2011-04-26T01:55:05Z</time>
<desc>lat.=22.066416, lon.=103.889633, Alt.=696.289551m. Speed=0.072000m/h.</desc>
<speed>0.020000</speed>
</trkpt>
<trkpt lat="22.066416" lon="103.889633">
<ele>696.305176</ele>
<time>2011-04-26T01:55:10Z</time>
<desc>lat.=22.066416, lon.=103.889633, Alt.=696.305176m. Speed=0.036000m/h.</desc>
<speed>0.010000</speed>
</trkpt>
<trkpt lat="22.066416" lon="103.889633">
<ele>696.320801</ele>
<time>2011-04-26T01:55:15Z</time>
<desc>lat.=22.066416, lon.=103.889633, Alt.=696.320801m. Speed=0.144000m/h.</desc>
<speed>0.040000</speed>
</trkpt>
<trkpt lat="22.066418" lon="103.889633">
<ele>696.336426</ele>
<time>2011-04-26T01:55:20Z</time>
<desc>lat.=22.066418, lon.=103.889633, Alt.=696.336426m. Speed=0.036000m/h.</desc>
<speed>0.010000</speed>
</trkpt>
<trkpt lat="22.066418" lon="103.889633">
<ele>696.336426</ele>
<time>2011-04-26T01:55:25Z</time>
<desc>lat.=22.066418, lon.=103.889633, Alt.=696.336426m. Speed=0.000000m/h.</desc>
<speed>0.000000</speed>
</trkpt>
<trkpt lat="22.066418" lon="103.889633">
<ele>696.336426</ele>
<time>2011-04-26T01:55:30Z</time>
<desc>lat.=22.066418, lon.=103.889633, Alt.=696.336426m. Speed=0.000000m/h.</desc>
<speed>0.000000</speed>
</trkpt>
<trkpt lat="22.066418" lon="103.889633">
<ele>696.336426</ele>
<time>2011-04-26T01:55:35Z</time>
<desc>lat.=22.066418, lon.=103.889633, Alt.=696.336426m. Speed=0.000000m/h.</desc>
<speed>0.000000</speed>
</trkpt>
<trkpt lat="22.066418" lon="103.889633">
<ele>696.336426</ele>
<time>2011-04-26T01:55:40Z</time>
<desc>lat.=22.066418, lon.=103.889633, Alt.=696.336426m. Speed=0.036000m/h.</desc>
<speed>0.010000</speed>
</trkpt>
<trkpt lat="22.066418" lon="103.889633">
<ele>696.336426</ele>
<time>2011-04-26T01:55:45Z</time>
<desc>lat.=22.066418, lon.=103.889633, Alt.=696.336426m. Speed=0.000000m/h.</desc>
<speed>0.000000</speed>
</trkpt>
<trkpt lat="22.066418" lon="103.889633">
<ele>696.336426</ele>
<time>2011-04-26T01:55:50Z</time>
<desc>lat.=22.066418, lon.=103.889633, Alt.=696.336426m. Speed=0.036000m/h.</desc>
<speed>0.010000</speed>
</trkpt>
<trkpt lat="22.066418" lon="103.889633">
<ele>696.336426</ele>
<time>2011-04-26T01:55:55Z</time>
<desc>lat.=22.066418, lon.=103.889633, Alt.=696.336426m. Speed=0.036000m/h.</desc>
<speed>0.010000</speed>
</trkpt>
<trkpt lat="22.066418" lon="103.889633">
<ele>696.336426</ele>
<time>2011-04-26T01:56:00Z</time>
<desc>lat.=22.066418, lon.=103.889633, Alt.=696.336426m. Speed=0.000000m/h.</desc>
<speed>0.000000</speed>
</trkpt>
<trkpt lat="22.066418" lon="103.889633">
<ele>696.336426</ele>
<time>2011-04-26T01:56:05Z</time>
<desc>lat.=22.066418, lon.=103.889633, Alt.=696.336426m. Speed=0.000000m/h.</desc>
<speed>0.000000</speed>
</trkpt>
<trkpt lat="22.066418" lon="103.889633">
<ele>696.336426</ele>
<time>2011-04-26T01:56:10Z</time>
<desc>lat.=22.066418, lon.=103.889633, Alt.=696.336426m. Speed=0.036000m/h.</desc>
<speed>0.010000</speed>
</trkpt>
<trkpt lat="22.066418" lon="103.889633">
<ele>696.336426</ele>
<time>2011-04-26T01:56:15Z</time>
<desc>lat.=22.066418, lon.=103.889633, Alt.=696.336426m. Speed=0.036000m/h.</desc>
<speed>0.010000</speed>
</trkpt>
<trkpt lat="22.066418" lon="103.889633">
<ele>696.336426</ele>
<time>2011-04-26T01:56:20Z</time>
<desc>lat.=22.066418, lon.=103.889633, Alt.=696.336426m. Speed=0.000000m/h.</desc>
<speed>0.000000</speed>
</trkpt>
<trkpt lat="22.066418" lon="103.889633">
<ele>696.336426</ele>
<time>2011-04-26T01:56:25Z</time>
<desc>lat.=22.066418, lon.=103.889633, Alt.=696.336426m. Speed=0.000000m/h.</desc>
<speed>0.000000</speed>
</trkpt>
<trkpt lat="22.066418" lon="103.889633">
<ele>696.336426</ele>
<time>2011-04-26T01:56:30Z</time>
<desc>lat.=22.066418, lon.=103.889633, Alt.=696.336426m. Speed=0.000000m/h.</desc>
<speed>0.000000</speed>
</trkpt>
<trkpt lat="22.066418" lon="103.889633">
<ele>696.336426</ele>
<time>2011-04-26T01:56:35Z</time>
<desc>lat.=22.066418, lon.=103.889633, Alt.=696.336426m. Speed=0.036000m/h.</desc>
<speed>0.010000</speed>
</trkpt>
<trkpt lat="22.066418" lon="103.889633">
<ele>696.336426</ele>
<time>2011-04-26T01:56:40Z</time>
<desc>lat.=22.066418, lon.=103.889633, Alt.=696.336426m. Speed=0.036000m/h.</desc>
<speed>0.010000</speed>
</trkpt>
<trkpt lat="22.066418" lon="103.889633">
<ele>696.352051</ele>
<time>2011-04-26T01:56:45Z</time>
<desc>lat.=22.066418, lon.=103.889633, Alt.=696.352051m. Speed=0.216000m/h.</desc>
<speed>0.060000</speed>
</trkpt>
<trkpt lat="22.066418" lon="103.889633">
<ele>696.352051</ele>
<time>2011-04-26T01:56:50Z</time>
<desc>lat.=22.066418, lon.=103.889633, Alt.=696.352051m. Speed=0.036000m/h.</desc>
<speed>0.010000</speed>
</trkpt>
<trkpt lat="22.066418" lon="103.889633">
<ele>696.367676</ele>
<time>2011-04-26T01:56:55Z</time>
<desc>lat.=22.066418, lon.=103.889633, Alt.=696.367676m. Speed=0.648000m/h.</desc>
<speed>0.180000</speed>
</trkpt>
<trkpt lat="22.066420" lon="103.889633">
<ele>696.477051</ele>
<time>2011-04-26T01:57:00Z</time>
<desc>lat.=22.066420, lon.=103.889633, Alt.=696.477051m. Speed=0.180000m/h.</desc>
<speed>0.050000</speed>
</trkpt>
<trkpt lat="22.066420" lon="103.889633">
<ele>696.508301</ele>
<time>2011-04-26T01:57:05Z</time>
<desc>lat.=22.066420, lon.=103.889633, Alt.=696.508301m. Speed=3.384000m/h.</desc>
<speed>0.940000</speed>
</trkpt>
<trkpt lat="22.066427" lon="103.889702">
<ele>697.570801</ele>
<time>2011-04-26T01:57:10Z</time>
<desc>lat.=22.066427, lon.=103.889702, Alt.=697.570801m. Speed=4.752000m/h.</desc>
<speed>1.320000</speed>
</trkpt>
<trkpt lat="22.066435" lon="103.889778">
<ele>697.742676</ele>
<time>2011-04-26T01:57:15Z</time>
<desc>lat.=22.066435, lon.=103.889778, Alt.=697.742676m. Speed=5.652000m/h.</desc>
<speed>1.570000</speed>
</trkpt>
<trkpt lat="22.066448" lon="103.889862">
<ele>698.180176</ele>
<time>2011-04-26T01:57:20Z</time>
<desc>lat.=22.066448, lon.=103.889862, Alt.=698.180176m. Speed=6.768000m/h.</desc>
<speed>1.880000</speed>
</trkpt>
<trkpt lat="22.066454" lon="103.889961">
<ele>699.102051</ele>
<time>2011-04-26T01:57:25Z</time>
<desc>lat.=22.066454, lon.=103.889961, Alt.=699.102051m. Speed=8.532000m/h.</desc>
<speed>2.370000</speed>
</trkpt>
<trkpt lat="22.066462" lon="103.890068">
<ele>699.602051</ele>
<time>2011-04-26T01:57:30Z</time>
<desc>lat.=22.066462, lon.=103.890068, Alt.=699.602051m. Speed=7.380000m/h.</desc>
<speed>2.050000</speed>
</trkpt>
<trkpt lat="22.066462" lon="103.890182">
<ele>699.805176</ele>
<time>2011-04-26T01:57:35Z</time>
<desc>lat.=22.066462, lon.=103.890182, Alt.=699.805176m. Speed=9.252000m/h.</desc>
<speed>2.570000</speed>
</trkpt>
<trkpt lat="22.066471" lon="103.890320">
<ele>698.773926</ele>
<time>2011-04-26T01:57:40Z</time>
<desc>lat.=22.066471, lon.=103.890320, Alt.=698.773926m. Speed=9.504000m/h.</desc>
<speed>2.640000</speed>
</trkpt>
<trkpt lat="22.066490" lon="103.890450">
<ele>698.070801</ele>
<time>2011-04-26T01:57:45Z</time>
<desc>lat.=22.066490, lon.=103.890450, Alt.=698.070801m. Speed=9.252000m/h.</desc>
<speed>2.570000</speed>
</trkpt>
<trkpt lat="22.066502" lon="103.890594">
<ele>698.492676</ele>
<time>2011-04-26T01:57:50Z</time>
<desc>lat.=22.066502, lon.=103.890594, Alt.=698.492676m. Speed=11.520000m/h.</desc>
<speed>3.200000</speed>
</trkpt>
<trkpt lat="22.066507" lon="103.890747">
<ele>699.086426</ele>
<time>2011-04-26T01:57:55Z</time>
<desc>lat.=22.066507, lon.=103.890747, Alt.=699.086426m. Speed=10.260000m/h.</desc>
<speed>2.850000</speed>
</trkpt>
<trkpt lat="22.066515" lon="103.890884">
<ele>699.289551</ele>
<time>2011-04-26T01:58:00Z</time>
<desc>lat.=22.066515, lon.=103.890884, Alt.=699.289551m. Speed=10.008000m/h.</desc>
<speed>2.780000</speed>
</trkpt>
<trkpt lat="22.066526" lon="103.890984">
<ele>700.055176</ele>
<time>2011-04-26T01:58:05Z</time>
<desc>lat.=22.066526, lon.=103.890984, Alt.=700.055176m. Speed=5.868000m/h.</desc>
<speed>1.630000</speed>
</trkpt>
<trkpt lat="22.066526" lon="103.891068">
<ele>699.492676</ele>
<time>2011-04-26T01:58:10Z</time>
<desc>lat.=22.066526, lon.=103.891068, Alt.=699.492676m. Speed=6.228000m/h.</desc>
<speed>1.730000</speed>
</trkpt>
<trkpt lat="22.066532" lon="103.891151">
<ele>699.758301</ele>
<time>2011-04-26T01:58:15Z</time>
<desc>lat.=22.066532, lon.=103.891151, Alt.=699.758301m. Speed=5.580000m/h.</desc>
<speed>1.550000</speed>
</trkpt>
<trkpt lat="22.066532" lon="103.891228">
<ele>699.852051</ele>
<time>2011-04-26T01:58:20Z</time>
<desc>lat.=22.066532, lon.=103.891228, Alt.=699.852051m. Speed=5.616000m/h.</desc>
<speed>1.560000</speed>
</trkpt>
<trkpt lat="22.066536" lon="103.891312">
<ele>699.945801</ele>
<time>2011-04-26T01:58:25Z</time>
<desc>lat.=22.066536, lon.=103.891312, Alt.=699.945801m. Speed=5.040000m/h.</desc>
<speed>1.400000</speed>
</trkpt>
<trkpt lat="22.066525" lon="103.891380">
<ele>700.664551</ele>
<time>2011-04-26T01:58:30Z</time>
<desc>lat.=22.066525, lon.=103.891380, Alt.=700.664551m. Speed=5.040000m/h.</desc>
<speed>1.400000</speed>
</trkpt>
<trkpt lat="22.066519" lon="103.891449">
<ele>701.070801</ele>
<time>2011-04-26T01:58:35Z</time>
<desc>lat.=22.066519, lon.=103.891449, Alt.=701.070801m. Speed=4.788000m/h.</desc>
<speed>1.330000</speed>
</trkpt>
<trkpt lat="22.066507" lon="103.891518">
<ele>701.727051</ele>
<time>2011-04-26T01:58:40Z</time>
<desc>lat.=22.066507, lon.=103.891518, Alt.=701.727051m. Speed=6.192000m/h.</desc>
<speed>1.720000</speed>
</trkpt>
<trkpt lat="22.066496" lon="103.891586">
<ele>701.758301</ele>
<time>2011-04-26T01:58:45Z</time>
<desc>lat.=22.066496, lon.=103.891586, Alt.=701.758301m. Speed=5.112000m/h.</desc>
<speed>1.420000</speed>
</trkpt>
<trkpt lat="22.066481" lon="103.891670">
<ele>702.383301</ele>
<time>2011-04-26T01:58:50Z</time>
<desc>lat.=22.066481, lon.=103.891670, Alt.=702.383301m. Speed=6.372000m/h.</desc>
<speed>1.770000</speed>
</trkpt>
<trkpt lat="22.066475" lon="103.891739">
<ele>702.742676</ele>
<time>2011-04-26T01:58:55Z</time>
<desc>lat.=22.066475, lon.=103.891739, Alt.=702.742676m. Speed=3.996000m/h.</desc>
<speed>1.110000</speed>
</trkpt>
<trkpt lat="22.066465" lon="103.891815">
<ele>702.914551</ele>
<time>2011-04-26T01:59:00Z</time>
<desc>lat.=22.066465, lon.=103.891815, Alt.=702.914551m. Speed=6.300000m/h.</desc>
<speed>1.750000</speed>
</trkpt>
<trkpt lat="22.066441" lon="103.891914">
<ele>703.367676</ele>
<time>2011-04-26T01:59:05Z</time>
<desc>lat.=22.066441, lon.=103.891914, Alt.=703.367676m. Speed=9.396000m/h.</desc>
<speed>2.610000</speed>
</trkpt>
<trkpt lat="22.066414" lon="103.892014">
<ele>703.586426</ele>
<time>2011-04-26T01:59:10Z</time>
<desc>lat.=22.066414, lon.=103.892014, Alt.=703.586426m. Speed=8.028000m/h.</desc>
<speed>2.230000</speed>
</trkpt>
<trkpt lat="22.066372" lon="103.892136">
<ele>704.992676</ele>
<time>2011-04-26T01:59:15Z</time>
<desc>lat.=22.066372, lon.=103.892136, Alt.=704.992676m. Speed=11.628000m/h.</desc>
<speed>3.230000</speed>
</trkpt>
<trkpt lat="22.066311" lon="103.892281">
<ele>704.461426</ele>
<time>2011-04-26T01:59:20Z</time>
<desc>lat.=22.066311, lon.=103.892281, Alt.=704.461426m. Speed=13.032000m/h.</desc>
<speed>3.620000</speed>
</trkpt>
<trkpt lat="22.066221" lon="103.892448">
<ele>703.898926</ele>
<time>2011-04-26T01:59:25Z</time>
<desc>lat.=22.066221, lon.=103.892448, Alt.=703.898926m. Speed=15.588000m/h.</desc>
<speed>4.330000</speed>
</trkpt>
<trkpt lat="22.066107" lon="103.892639">
<ele>703.945801</ele>
<time>2011-04-26T01:59:30Z</time>
<desc>lat.=22.066107, lon.=103.892639, Alt.=703.945801m. Speed=15.912000m/h.</desc>
<speed>4.420000</speed>
</trkpt>
<trkpt lat="22.065985" lon="103.892807">
<ele>703.430176</ele>
<time>2011-04-26T01:59:35Z</time>
<desc>lat.=22.065985, lon.=103.892807, Alt.=703.430176m. Speed=16.128000m/h.</desc>
<speed>4.480000</speed>
</trkpt>
<trkpt lat="22.065844" lon="103.892967">
<ele>704.039551</ele>
<time>2011-04-26T01:59:40Z</time>
<desc>lat.=22.065844, lon.=103.892967, Alt.=704.039551m. Speed=15.372000m/h.</desc>
<speed>4.270000</speed>
</trkpt>
<trkpt lat="22.065720" lon="103.893112">
<ele>704.211426</ele>
<time>2011-04-26T01:59:45Z</time>
<desc>lat.=22.065720, lon.=103.893112, Alt.=704.211426m. Speed=15.408000m/h.</desc>
<speed>4.280000</speed>
</trkpt>
<trkpt lat="22.065598" lon="103.893242">
<ele>704.445801</ele>
<time>2011-04-26T01:59:50Z</time>
<desc>lat.=22.065598, lon.=103.893242, Alt.=704.445801m. Speed=12.420000m/h.</desc>
<speed>3.450000</speed>
</trkpt>
<trkpt lat="22.065489" lon="103.893372">
<ele>704.914551</ele>
<time>2011-04-26T01:59:55Z</time>
<desc>lat.=22.065489, lon.=103.893372, Alt.=704.914551m. Speed=12.600000m/h.</desc>
<speed>3.500000</speed>
</trkpt>
<trkpt lat="22.065386" lon="103.893478">
<ele>705.148926</ele>
<time>2011-04-26T02:00:00Z</time>
<desc>lat.=22.065386, lon.=103.893478, Alt.=705.148926m. Speed=12.240000m/h.</desc>
<speed>3.400000</speed>
</trkpt>
<trkpt lat="22.065279" lon="103.893600">
<ele>705.055176</ele>
<time>2011-04-26T02:00:05Z</time>
<desc>lat.=22.065279, lon.=103.893600, Alt.=705.055176m. Speed=10.548000m/h.</desc>
<speed>2.930000</speed>
</trkpt>
<trkpt lat="22.065205" lon="103.893700">
<ele>705.367676</ele>
<time>2011-04-26T02:00:10Z</time>
<desc>lat.=22.065205, lon.=103.893700, Alt.=705.367676m. Speed=7.992000m/h.</desc>
<speed>2.220000</speed>
</trkpt>
<trkpt lat="22.065115" lon="103.893806">
<ele>705.617676</ele>
<time>2011-04-26T02:00:15Z</time>
<desc>lat.=22.065115, lon.=103.893806, Alt.=705.617676m. Speed=11.628000m/h.</desc>
<speed>3.230000</speed>
</trkpt>
<trkpt lat="22.065008" lon="103.893921">
<ele>706.008301</ele>
<time>2011-04-26T02:00:20Z</time>
<desc>lat.=22.065008, lon.=103.893921, Alt.=706.008301m. Speed=10.368000m/h.</desc>
<speed>2.880000</speed>
</trkpt>
<trkpt lat="22.064911" lon="103.894035">
<ele>707.570801</ele>
<time>2011-04-26T02:00:25Z</time>
<desc>lat.=22.064911, lon.=103.894035, Alt.=707.570801m. Speed=9.432000m/h.</desc>
<speed>2.620000</speed>
</trkpt>
<trkpt lat="22.064831" lon="103.894142">
<ele>707.570801</ele>
<time>2011-04-26T02:00:30Z</time>
<desc>lat.=22.064831, lon.=103.894142, Alt.=707.570801m. Speed=10.548000m/h.</desc>
<speed>2.930000</speed>
</trkpt>
<trkpt lat="22.064745" lon="103.894249">
<ele>707.805176</ele>
<time>2011-04-26T02:00:35Z</time>
<desc>lat.=22.064745, lon.=103.894249, Alt.=707.805176m. Speed=9.180000m/h.</desc>
<speed>2.550000</speed>
</trkpt>
<trkpt lat="22.064653" lon="103.894356">
<ele>707.742676</ele>
<time>2011-04-26T02:00:40Z</time>
<desc>lat.=22.064653, lon.=103.894356, Alt.=707.742676m. Speed=7.812000m/h.</desc>
<speed>2.170000</speed>
</trkpt>
<trkpt lat="22.064587" lon="103.894424">
<ele>708.477051</ele>
<time>2011-04-26T02:00:45Z</time>
<desc>lat.=22.064587, lon.=103.894424, Alt.=708.477051m. Speed=8.496000m/h.</desc>
<speed>2.360000</speed>
</trkpt>
<trkpt lat="22.064529" lon="103.894493">
<ele>708.898926</ele>
<time>2011-04-26T02:00:50Z</time>
<desc>lat.=22.064529, lon.=103.894493, Alt.=708.898926m. Speed=6.012000m/h.</desc>
<speed>1.670000</speed>
</trkpt>
<trkpt lat="22.064434" lon="103.894585">
<ele>709.867676</ele>
<time>2011-04-26T02:00:55Z</time>
<desc>lat.=22.064434, lon.=103.894585, Alt.=709.867676m. Speed=8.424000m/h.</desc>
<speed>2.340000</speed>
</trkpt>
<trkpt lat="22.064363" lon="103.894669">
<ele>711.133301</ele>
<time>2011-04-26T02:01:00Z</time>
<desc>lat.=22.064363, lon.=103.894669, Alt.=711.133301m. Speed=7.200000m/h.</desc>
<speed>2.000000</speed>
</trkpt>
<trkpt lat="22.064312" lon="103.894745">
<ele>713.023926</ele>
<time>2011-04-26T02:01:05Z</time>
<desc>lat.=22.064312, lon.=103.894745, Alt.=713.023926m. Speed=6.228000m/h.</desc>
<speed>1.730000</speed>
</trkpt>
<trkpt lat="22.064253" lon="103.894806">
<ele>714.570801</ele>
<time>2011-04-26T02:01:10Z</time>
<desc>lat.=22.064253, lon.=103.894806, Alt.=714.570801m. Speed=5.976000m/h.</desc>
<speed>1.660000</speed>
</trkpt>
<trkpt lat="22.064211" lon="103.894859">
<ele>715.117676</ele>
<time>2011-04-26T02:01:15Z</time>
<desc>lat.=22.064211, lon.=103.894859, Alt.=715.117676m. Speed=0.684000m/h.</desc>
<speed>0.190000</speed>
</trkpt>
<trkpt lat="22.064207" lon="103.894867">
<ele>715.289551</ele>
<time>2011-04-26T02:01:20Z</time>
<desc>lat.=22.064207, lon.=103.894867, Alt.=715.289551m. Speed=0.288000m/h.</desc>
<speed>0.080000</speed>
</trkpt>
<trkpt lat="22.064209" lon="103.894867">
<ele>715.367676</ele>
<time>2011-04-26T02:01:25Z</time>
<desc>lat.=22.064209, lon.=103.894867, Alt.=715.367676m. Speed=0.360000m/h.</desc>
<speed>0.100000</speed>
</trkpt>
<trkpt lat="22.064211" lon="103.894875">
<ele>715.414551</ele>
<time>2011-04-26T02:01:30Z</time>
<desc>lat.=22.064211, lon.=103.894875, Alt.=715.414551m. Speed=0.180000m/h.</desc>
<speed>0.050000</speed>
</trkpt>
<trkpt lat="22.064213" lon="103.894875">
<ele>715.430176</ele>
<time>2011-04-26T02:01:35Z</time>
<desc>lat.=22.064213, lon.=103.894875, Alt.=715.430176m. Speed=0.396000m/h.</desc>
<speed>0.110000</speed>
</trkpt>
<trkpt lat="22.064213" lon="103.894882">
<ele>715.430176</ele>
<time>2011-04-26T02:01:40Z</time>
<desc>lat.=22.064213, lon.=103.894882, Alt.=715.430176m. Speed=0.504000m/h.</desc>
<speed>0.140000</speed>
</trkpt>
<trkpt lat="22.064213" lon="103.894882">
<ele>715.430176</ele>
<time>2011-04-26T02:01:45Z</time>
<desc>lat.=22.064213, lon.=103.894882, Alt.=715.430176m. Speed=0.108000m/h.</desc>
<speed>0.030000</speed>
</trkpt>
<trkpt lat="22.064215" lon="103.894882">
<ele>715.414551</ele>
<time>2011-04-26T02:01:50Z</time>
<desc>lat.=22.064215, lon.=103.894882, Alt.=715.414551m. Speed=0.396000m/h.</desc>
<speed>0.110000</speed>
</trkpt>
<trkpt lat="22.064217" lon="103.894882">
<ele>715.398926</ele>
<time>2011-04-26T02:01:55Z</time>
<desc>lat.=22.064217, lon.=103.894882, Alt.=715.398926m. Speed=0.216000m/h.</desc>
<speed>0.060000</speed>
</trkpt>
<trkpt lat="22.064217" lon="103.894890">
<ele>715.398926</ele>
<time>2011-04-26T02:02:00Z</time>
<desc>lat.=22.064217, lon.=103.894890, Alt.=715.398926m. Speed=0.720000m/h.</desc>
<speed>0.200000</speed>
</trkpt>
<trkpt lat="22.064217" lon="103.894897">
<ele>715.398926</ele>
<time>2011-04-26T02:02:05Z</time>
<desc>lat.=22.064217, lon.=103.894897, Alt.=715.398926m. Speed=0.216000m/h.</desc>
<speed>0.060000</speed>
</trkpt>
<trkpt lat="22.064219" lon="103.894897">
<ele>715.383301</ele>
<time>2011-04-26T02:02:10Z</time>
<desc>lat.=22.064219, lon.=103.894897, Alt.=715.383301m. Speed=0.540000m/h.</desc>
<speed>0.150000</speed>
</trkpt>
<trkpt lat="22.064219" lon="103.894897">
<ele>715.555176</ele>
<time>2011-04-26T02:02:15Z</time>
<desc>lat.=22.064219, lon.=103.894897, Alt.=715.555176m. Speed=0.072000m/h.</desc>
<speed>0.020000</speed>
</trkpt>
<trkpt lat="22.064219" lon="103.894897">
<ele>715.570801</ele>
<time>2011-04-26T02:02:20Z</time>
<desc>lat.=22.064219, lon.=103.894897, Alt.=715.570801m. Speed=0.000000m/h.</desc>
<speed>0.000000</speed>
</trkpt>
<trkpt lat="22.064219" lon="103.894897">
<ele>715.555176</ele>
<time>2011-04-26T02:02:25Z</time>
<desc>lat.=22.064219, lon.=103.894897, Alt.=715.555176m. Speed=0.000000m/h.</desc>
<speed>0.000000</speed>
</trkpt>
<trkpt lat="22.064219" lon="103.894897">
<ele>715.555176</ele>
<time>2011-04-26T02:02:30Z</time>
<desc>lat.=22.064219, lon.=103.894897, Alt.=715.555176m. Speed=0.000000m/h.</desc>
<speed>0.000000</speed>
</trkpt>
<trkpt lat="22.064219" lon="103.894897">
<ele>715.555176</ele>
<time>2011-04-26T02:02:35Z</time>
<desc>lat.=22.064219, lon.=103.894897, Alt.=715.555176m. Speed=0.072000m/h.</desc>
<speed>0.020000</speed>
</trkpt>
<trkpt lat="22.064219" lon="103.894890">
<ele>715.523926</ele>
<time>2011-04-26T02:02:40Z</time>
<desc>lat.=22.064219, lon.=103.894890, Alt.=715.523926m. Speed=0.000000m/h.</desc>
<speed>0.000000</speed>
</trkpt>
<trkpt lat="22.064219" lon="103.894890">
<ele>715.508301</ele>
<time>2011-04-26T02:02:45Z</time>
<desc>lat.=22.064219, lon.=103.894890, Alt.=715.508301m. Speed=0.036000m/h.</desc>
<speed>0.010000</speed>
</trkpt>
<trkpt lat="22.064219" lon="103.894890">
<ele>715.492676</ele>
<time>2011-04-26T02:02:50Z</time>
<desc>lat.=22.064219, lon.=103.894890, Alt.=715.492676m. Speed=0.036000m/h.</desc>
<speed>0.010000</speed>
</trkpt>
<trkpt lat="22.064219" lon="103.894890">
<ele>715.492676</ele>
<time>2011-04-26T02:02:55Z</time>
<desc>lat.=22.064219, lon.=103.894890, Alt.=715.492676m. Speed=0.036000m/h.</desc>
<speed>0.010000</speed>
</trkpt>
<trkpt lat="22.064219" lon="103.894890">
<ele>715.492676</ele>
<time>2011-04-26T02:03:00Z</time>
<desc>lat.=22.064219, lon.=103.894890, Alt.=715.492676m. Speed=0.000000m/h.</desc>
<speed>0.000000</speed>
</trkpt>
<trkpt lat="22.064219" lon="103.894890">
<ele>715.492676</ele>
<time>2011-04-26T02:03:05Z</time>
<desc>lat.=22.064219, lon.=103.894890, Alt.=715.492676m. Speed=0.144000m/h.</desc>
<speed>0.040000</speed>
</trkpt>
<trkpt lat="22.064219" lon="103.894890">
<ele>715.477051</ele>
<time>2011-04-26T02:03:10Z</time>
<desc>lat.=22.064219, lon.=103.894890, Alt.=715.477051m. Speed=0.144000m/h.</desc>
<speed>0.040000</speed>
</trkpt>
<trkpt lat="22.064177" lon="103.894936">
<ele>714.773926</ele>
<time>2011-04-26T02:03:15Z</time>
<desc>lat.=22.064177, lon.=103.894936, Alt.=714.773926m. Speed=7.488000m/h.</desc>
<speed>2.080000</speed>
</trkpt>
<trkpt lat="22.064102" lon="103.895004">
<ele>714.914551</ele>
<time>2011-04-26T02:03:20Z</time>
<desc>lat.=22.064102, lon.=103.895004, Alt.=714.914551m. Speed=8.712000m/h.</desc>
<speed>2.420000</speed>
</trkpt>
<trkpt lat="22.064030" lon="103.895073">
<ele>715.555176</ele>
<time>2011-04-26T02:03:25Z</time>
<desc>lat.=22.064030, lon.=103.895073, Alt.=715.555176m. Speed=6.480000m/h.</desc>
<speed>1.800000</speed>
</trkpt>
<trkpt lat="22.063961" lon="103.895134">
<ele>716.289551</ele>
<time>2011-04-26T02:03:30Z</time>
<desc>lat.=22.063961, lon.=103.895134, Alt.=716.289551m. Speed=7.020000m/h.</desc>
<speed>1.950000</speed>
</trkpt>
<trkpt lat="22.063889" lon="103.895210">
<ele>717.727051</ele>
<time>2011-04-26T02:03:35Z</time>
<desc>lat.=22.063889, lon.=103.895210, Alt.=717.727051m. Speed=6.660000m/h.</desc>
<speed>1.850000</speed>
</trkpt>
<trkpt lat="22.063829" lon="103.895294">
<ele>719.352051</ele>
<time>2011-04-26T02:03:40Z</time>
<desc>lat.=22.063829, lon.=103.895294, Alt.=719.352051m. Speed=6.912000m/h.</desc>
<speed>1.920000</speed>
</trkpt>
<trkpt lat="22.063766" lon="103.895386">
<ele>720.523926</ele>
<time>2011-04-26T02:03:45Z</time>
<desc>lat.=22.063766, lon.=103.895386, Alt.=720.523926m. Speed=8.136000m/h.</desc>
<speed>2.260000</speed>
</trkpt>
<trkpt lat="22.063698" lon="103.895462">
<ele>722.133301</ele>
<time>2011-04-26T02:03:50Z</time>
<desc>lat.=22.063698, lon.=103.895462, Alt.=722.133301m. Speed=9.072000m/h.</desc>
<speed>2.520000</speed>
</trkpt>
<trkpt lat="22.063608" lon="103.895561">
<ele>720.555176</ele>
<time>2011-04-26T02:03:55Z</time>
<desc>lat.=22.063608, lon.=103.895561, Alt.=720.555176m. Speed=11.052000m/h.</desc>
<speed>3.070000</speed>
</trkpt>
<trkpt lat="22.063517" lon="103.895668">
<ele>719.742676</ele>
<time>2011-04-26T02:04:00Z</time>
<desc>lat.=22.063517, lon.=103.895668, Alt.=719.742676m. Speed=8.748000m/h.</desc>
<speed>2.430000</speed>
</trkpt>
<trkpt lat="22.063416" lon="103.895782">
<ele>719.289551</ele>
<time>2011-04-26T02:04:05Z</time>
<desc>lat.=22.063416, lon.=103.895782, Alt.=719.289551m. Speed=12.852000m/h.</desc>
<speed>3.570000</speed>
</trkpt>
<trkpt lat="22.063309" lon="103.895889">
<ele>719.914551</ele>
<time>2011-04-26T02:04:10Z</time>
<desc>lat.=22.063309, lon.=103.895889, Alt.=719.914551m. Speed=11.772000m/h.</desc>
<speed>3.270000</speed>
</trkpt>
<trkpt lat="22.063181" lon="103.895981">
<ele>719.945801</ele>
<time>2011-04-26T02:04:15Z</time>
<desc>lat.=22.063181, lon.=103.895981, Alt.=719.945801m. Speed=12.420000m/h.</desc>
<speed>3.450000</speed>
</trkpt>
<trkpt lat="22.063034" lon="103.896057">
<ele>720.227051</ele>
<time>2011-04-26T02:04:20Z</time>
<desc>lat.=22.063034, lon.=103.896057, Alt.=720.227051m. Speed=13.212000m/h.</desc>
<speed>3.670000</speed>
</trkpt>
<trkpt lat="22.062893" lon="103.896126">
<ele>720.289551</ele>
<time>2011-04-26T02:04:25Z</time>
<desc>lat.=22.062893, lon.=103.896126, Alt.=720.289551m. Speed=12.060000m/h.</desc>
<speed>3.350000</speed>
</trkpt>
<trkpt lat="22.062748" lon="103.896202">
<ele>721.070801</ele>
<time>2011-04-26T02:04:30Z</time>
<desc>lat.=22.062748, lon.=103.896202, Alt.=721.070801m. Speed=13.320000m/h.</desc>
<speed>3.700000</speed>
</trkpt>
<trkpt lat="22.062599" lon="103.896286">
<ele>720.805176</ele>
<time>2011-04-26T02:04:35Z</time>
<desc>lat.=22.062599, lon.=103.896286, Alt.=720.805176m. Speed=11.808000m/h.</desc>
<speed>3.280000</speed>
</trkpt>
<trkpt lat="22.062464" lon="103.896370">
<ele>720.820801</ele>
<time>2011-04-26T02:04:40Z</time>
<desc>lat.=22.062464, lon.=103.896370, Alt.=720.820801m. Speed=13.536000m/h.</desc>
<speed>3.760000</speed>
</trkpt>
<trkpt lat="22.062309" lon="103.896454">
<ele>720.945801</ele>
<time>2011-04-26T02:04:45Z</time>
<desc>lat.=22.062309, lon.=103.896454, Alt.=720.945801m. Speed=14.148000m/h.</desc>
<speed>3.930000</speed>
</trkpt>
<trkpt lat="22.062168" lon="103.896538">
<ele>721.008301</ele>
<time>2011-04-26T02:04:50Z</time>
<desc>lat.=22.062168, lon.=103.896538, Alt.=721.008301m. Speed=11.808000m/h.</desc>
<speed>3.280000</speed>
</trkpt>
<trkpt lat="22.062031" lon="103.896614">
<ele>720.695801</ele>
<time>2011-04-26T02:04:55Z</time>
<desc>lat.=22.062031, lon.=103.896614, Alt.=720.695801m. Speed=12.492000m/h.</desc>
<speed>3.470000</speed>
</trkpt>
<trkpt lat="22.061893" lon="103.896690">
<ele>720.586426</ele>
<time>2011-04-26T02:05:00Z</time>
<desc>lat.=22.061893, lon.=103.896690, Alt.=720.586426m. Speed=11.988000m/h.</desc>
<speed>3.330000</speed>
</trkpt>
<trkpt lat="22.061768" lon="103.896759">
<ele>721.320801</ele>
<time>2011-04-26T02:05:05Z</time>
<desc>lat.=22.061768, lon.=103.896759, Alt.=721.320801m. Speed=11.772000m/h.</desc>
<speed>3.270000</speed>
</trkpt>
<trkpt lat="22.061638" lon="103.896835">
<ele>722.133301</ele>
<time>2011-04-26T02:05:10Z</time>
<desc>lat.=22.061638, lon.=103.896835, Alt.=722.133301m. Speed=10.836000m/h.</desc>
<speed>3.010000</speed>
</trkpt>
<trkpt lat="22.061514" lon="103.896912">
<ele>723.867676</ele>
<time>2011-04-26T02:05:15Z</time>
<desc>lat.=22.061514, lon.=103.896912, Alt.=723.867676m. Speed=12.312000m/h.</desc>
<speed>3.420000</speed>
</trkpt>
<trkpt lat="22.061378" lon="103.896988">
<ele>724.398926</ele>
<time>2011-04-26T02:05:20Z</time>
<desc>lat.=22.061378, lon.=103.896988, Alt.=724.398926m. Speed=10.512000m/h.</desc>
<speed>2.920000</speed>
</trkpt>
<trkpt lat="22.061274" lon="103.897057">
<ele>724.992676</ele>
<time>2011-04-26T02:05:25Z</time>
<desc>lat.=22.061274, lon.=103.897057, Alt.=724.992676m. Speed=8.748000m/h.</desc>
<speed>2.430000</speed>
</trkpt>
<trkpt lat="22.061146" lon="103.897125">
<ele>725.070801</ele>
<time>2011-04-26T02:05:30Z</time>
<desc>lat.=22.061146, lon.=103.897125, Alt.=725.070801m. Speed=13.608000m/h.</desc>
<speed>3.780000</speed>
</trkpt>
<trkpt lat="22.061005" lon="103.897209">
<ele>726.258301</ele>
<time>2011-04-26T02:05:35Z</time>
<desc>lat.=22.061005, lon.=103.897209, Alt.=726.258301m. Speed=13.500000m/h.</desc>
<speed>3.750000</speed>
</trkpt>
<trkpt lat="22.060852" lon="103.897308">
<ele>726.586426</ele>
<time>2011-04-26T02:05:40Z</time>
<desc>lat.=22.060852, lon.=103.897308, Alt.=726.586426m. Speed=15.588000m/h.</desc>
<speed>4.330000</speed>
</trkpt>
<trkpt lat="22.060724" lon="103.897385">
<ele>726.398926</ele>
<time>2011-04-26T02:05:45Z</time>
<desc>lat.=22.060724, lon.=103.897385, Alt.=726.398926m. Speed=6.840000m/h.</desc>
<speed>1.900000</speed>
</trkpt>
<trkpt lat="22.060581" lon="103.897430">
<ele>726.195801</ele>
<time>2011-04-26T02:05:50Z</time>
<desc>lat.=22.060581, lon.=103.897430, Alt.=726.195801m. Speed=15.372000m/h.</desc>
<speed>4.270000</speed>
</trkpt>
<trkpt lat="22.060341" lon="103.897568">
<ele>726.086426</ele>
<time>2011-04-26T02:05:55Z</time>
<desc>lat.=22.060341, lon.=103.897568, Alt.=726.086426m. Speed=25.740000m/h.</desc>
<speed>7.150000</speed>
</trkpt>
<trkpt lat="22.060022" lon="103.897728">
<ele>725.273926</ele>
<time>2011-04-26T02:06:00Z</time>
<desc>lat.=22.060022, lon.=103.897728, Alt.=725.273926m. Speed=26.316000m/h.</desc>
<speed>7.310000</speed>
</trkpt>
<trkpt lat="22.059763" lon="103.897949">
<ele>724.633301</ele>
<time>2011-04-26T02:06:05Z</time>
<desc>lat.=22.059763, lon.=103.897949, Alt.=724.633301m. Speed=27.504000m/h.</desc>
<speed>7.640000</speed>
</trkpt>
<trkpt lat="22.059608" lon="103.898239">
<ele>724.664551</ele>
<time>2011-04-26T02:06:10Z</time>
<desc>lat.=22.059608, lon.=103.898239, Alt.=724.664551m. Speed=24.660000m/h.</desc>
<speed>6.850000</speed>
</trkpt>
<trkpt lat="22.059536" lon="103.898567">
<ele>725.117676</ele>
<time>2011-04-26T02:06:15Z</time>
<desc>lat.=22.059536, lon.=103.898567, Alt.=725.117676m. Speed=23.940001m/h.</desc>
<speed>6.650000</speed>
</trkpt>
<trkpt lat="22.059528" lon="103.898880">
<ele>724.977051</ele>
<time>2011-04-26T02:06:20Z</time>
<desc>lat.=22.059528, lon.=103.898880, Alt.=724.977051m. Speed=21.996000m/h.</desc>
<speed>6.110000</speed>
</trkpt>
<trkpt lat="22.059557" lon="103.899170">
<ele>722.070801</ele>
<time>2011-04-26T02:06:25Z</time>
<desc>lat.=22.059557, lon.=103.899170, Alt.=722.070801m. Speed=18.000000m/h.</desc>
<speed>5.000000</speed>
</trkpt>
<trkpt lat="22.059547" lon="103.899353">
<ele>720.742676</ele>
<time>2011-04-26T02:06:30Z</time>
<desc>lat.=22.059547, lon.=103.899353, Alt.=720.742676m. Speed=11.520000m/h.</desc>
<speed>3.200000</speed>
</trkpt>
<trkpt lat="22.059540" lon="103.899490">
<ele>720.648926</ele>
<time>2011-04-26T02:06:35Z</time>
<desc>lat.=22.059540, lon.=103.899490, Alt.=720.648926m. Speed=9.864000m/h.</desc>
<speed>2.740000</speed>
</trkpt>
<trkpt lat="22.059486" lon="103.899681">
<ele>720.820801</ele>
<time>2011-04-26T02:06:40Z</time>
<desc>lat.=22.059486, lon.=103.899681, Alt.=720.820801m. Speed=16.524000m/h.</desc>
<speed>4.590000</speed>
</trkpt>
<trkpt lat="22.059341" lon="103.899879">
<ele>721.180176</ele>
<time>2011-04-26T02:06:45Z</time>
<desc>lat.=22.059341, lon.=103.899879, Alt.=721.180176m. Speed=20.879999m/h.</desc>
<speed>5.800000</speed>
</trkpt>
<trkpt lat="22.059134" lon="103.900032">
<ele>721.492676</ele>
<time>2011-04-26T02:06:50Z</time>
<desc>lat.=22.059134, lon.=103.900032, Alt.=721.492676m. Speed=21.888000m/h.</desc>
<speed>6.080000</speed>
</trkpt>
<trkpt lat="22.058882" lon="103.900169">
<ele>722.289551</ele>
<time>2011-04-26T02:06:55Z</time>
<desc>lat.=22.058882, lon.=103.900169, Alt.=722.289551m. Speed=23.327999m/h.</desc>
<speed>6.480000</speed>
</trkpt>
<trkpt lat="22.058613" lon="103.900215">
<ele>722.898926</ele>
<time>2011-04-26T02:07:00Z</time>
<desc>lat.=22.058613, lon.=103.900215, Alt.=722.898926m. Speed=20.952000m/h.</desc>
<speed>5.820000</speed>
</trkpt>
<trkpt lat="22.058308" lon="103.900169">
<ele>722.352051</ele>
<time>2011-04-26T02:07:05Z</time>
<desc>lat.=22.058308, lon.=103.900169, Alt.=722.352051m. Speed=23.400000m/h.</desc>
<speed>6.500000</speed>
</trkpt>
<trkpt lat="22.058020" lon="103.900108">
<ele>722.570801</ele>
<time>2011-04-26T02:07:10Z</time>
<desc>lat.=22.058020, lon.=103.900108, Alt.=722.570801m. Speed=22.643999m/h.</desc>
<speed>6.290000</speed>
</trkpt>
<trkpt lat="22.057728" lon="103.900047">
<ele>723.539551</ele>
<time>2011-04-26T02:07:15Z</time>
<desc>lat.=22.057728, lon.=103.900047, Alt.=723.539551m. Speed=23.472000m/h.</desc>
<speed>6.520000</speed>
</trkpt>
<trkpt lat="22.057434" lon="103.899963">
<ele>724.320801</ele>
<time>2011-04-26T02:07:20Z</time>
<desc>lat.=22.057434, lon.=103.899963, Alt.=724.320801m. Speed=22.356001m/h.</desc>
<speed>6.210000</speed>
</trkpt>
<trkpt lat="22.057158" lon="103.899971">
<ele>725.273926</ele>
<time>2011-04-26T02:07:25Z</time>
<desc>lat.=22.057158, lon.=103.899971, Alt.=725.273926m. Speed=19.656000m/h.</desc>
<speed>5.460000</speed>
</trkpt>
<trkpt lat="22.056889" lon="103.900032">
<ele>726.305176</ele>
<time>2011-04-26T02:07:30Z</time>
<desc>lat.=22.056889, lon.=103.900032, Alt.=726.305176m. Speed=22.068001m/h.</desc>
<speed>6.130000</speed>
</trkpt>
<trkpt lat="22.056589" lon="103.900253">
<ele>727.430176</ele>
<time>2011-04-26T02:07:35Z</time>
<desc>lat.=22.056589, lon.=103.900253, Alt.=727.430176m. Speed=30.672001m/h.</desc>
<speed>8.520000</speed>
</trkpt>
<trkpt lat="22.056236" lon="103.900650">
<ele>728.336426</ele>
<time>2011-04-26T02:07:40Z</time>
<desc>lat.=22.056236, lon.=103.900650, Alt.=728.336426m. Speed=40.787998m/h.</desc>
<speed>11.329999</speed>
</trkpt>
<trkpt lat="22.055855" lon="103.901093">
<ele>729.117676</ele>
<time>2011-04-26T02:07:45Z</time>
<desc>lat.=22.055855, lon.=103.901093, Alt.=729.117676m. Speed=43.632000m/h.</desc>
<speed>12.120000</speed>
</trkpt>
<trkpt lat="22.055519" lon="103.901657">
<ele>727.789551</ele>
<time>2011-04-26T02:07:50Z</time>
<desc>lat.=22.055519, lon.=103.901657, Alt.=727.789551m. Speed=43.416000m/h.</desc>
<speed>12.060000</speed>
</trkpt>
<trkpt lat="22.055317" lon="103.902206">
<ele>727.711426</ele>
<time>2011-04-26T02:07:55Z</time>
<desc>lat.=22.055317, lon.=103.902206, Alt.=727.711426m. Speed=44.748001m/h.</desc>
<speed>12.430000</speed>
</trkpt>
<trkpt lat="22.055077" lon="103.902817">
<ele>727.414551</ele>
<time>2011-04-26T02:08:00Z</time>
<desc>lat.=22.055077, lon.=103.902817, Alt.=727.414551m. Speed=48.816002m/h.</desc>
<speed>13.560001</speed>
</trkpt>
<trkpt lat="22.054852" lon="103.903381">
<ele>727.992676</ele>
<time>2011-04-26T02:08:05Z</time>
<desc>lat.=22.054852, lon.=103.903381, Alt.=727.992676m. Speed=44.604000m/h.</desc>
<speed>12.390000</speed>
</trkpt>
<trkpt lat="22.054552" lon="103.903831">
<ele>728.836426</ele>
<time>2011-04-26T02:08:10Z</time>
<desc>lat.=22.054552, lon.=103.903831, Alt.=728.836426m. Speed=39.743999m/h.</desc>
<speed>11.040000</speed>
</trkpt>
<trkpt lat="22.054203" lon="103.904182">
<ele>729.867676</ele>
<time>2011-04-26T02:08:15Z</time>
<desc>lat.=22.054203, lon.=103.904182, Alt.=729.867676m. Speed=38.268002m/h.</desc>
<speed>10.630000</speed>
</trkpt>
<trkpt lat="22.053757" lon="103.904297">
<ele>730.570801</ele>
<time>2011-04-26T02:08:20Z</time>
<desc>lat.=22.053757, lon.=103.904297, Alt.=730.570801m. Speed=35.495998m/h.</desc>
<speed>9.860000</speed>
</trkpt>
<trkpt lat="22.053347" lon="103.904419">
<ele>731.352051</ele>
<time>2011-04-26T02:08:25Z</time>
<desc>lat.=22.053347, lon.=103.904419, Alt.=731.352051m. Speed=31.104000m/h.</desc>
<speed>8.640000</speed>
</trkpt>
<trkpt lat="22.053005" lon="103.904686">
<ele>732.523926</ele>
<time>2011-04-26T02:08:30Z</time>
<desc>lat.=22.053005, lon.=103.904686, Alt.=732.523926m. Speed=34.056000m/h.</desc>
<speed>9.460000</speed>
</trkpt>
<trkpt lat="22.052711" lon="103.905106">
<ele>731.383301</ele>
<time>2011-04-26T02:08:35Z</time>
<desc>lat.=22.052711, lon.=103.905106, Alt.=731.383301m. Speed=36.360001m/h.</desc>
<speed>10.100000</speed>
</trkpt>
<trkpt lat="22.052464" lon="103.905518">
<ele>728.070801</ele>
<time>2011-04-26T02:08:40Z</time>
<desc>lat.=22.052464, lon.=103.905518, Alt.=728.070801m. Speed=34.740002m/h.</desc>
<speed>9.650000</speed>
</trkpt>
<trkpt lat="22.052319" lon="103.906006">
<ele>721.602051</ele>
<time>2011-04-26T02:08:45Z</time>
<desc>lat.=22.052319, lon.=103.906006, Alt.=721.602051m. Speed=39.240002m/h.</desc>
<speed>10.900000</speed>
</trkpt>
<trkpt lat="22.052259" lon="103.906525">
<ele>715.711426</ele>
<time>2011-04-26T02:08:50Z</time>
<desc>lat.=22.052259, lon.=103.906525, Alt.=715.711426m. Speed=38.088001m/h.</desc>
<speed>10.580000</speed>
</trkpt>
<trkpt lat="22.052179" lon="103.907028">
<ele>715.102051</ele>
<time>2011-04-26T02:08:55Z</time>
<desc>lat.=22.052179, lon.=103.907028, Alt.=715.102051m. Speed=35.279999m/h.</desc>
<speed>9.800000</speed>
</trkpt>
<trkpt lat="22.051975" lon="103.907387">
<ele>714.664551</ele>
<time>2011-04-26T02:09:00Z</time>
<desc>lat.=22.051975, lon.=103.907387, Alt.=714.664551m. Speed=29.844000m/h.</desc>
<speed>8.290000</speed>
</trkpt>
<trkpt lat="22.051733" lon="103.907661">
<ele>714.648926</ele>
<time>2011-04-26T02:09:05Z</time>
<desc>lat.=22.051733, lon.=103.907661, Alt.=714.648926m. Speed=26.459999m/h.</desc>
<speed>7.350000</speed>
</trkpt>
<trkpt lat="22.051521" lon="103.907928">
<ele>714.414551</ele>
<time>2011-04-26T02:09:10Z</time>
<desc>lat.=22.051521, lon.=103.907928, Alt.=714.414551m. Speed=25.992001m/h.</desc>
<speed>7.220000</speed>
</trkpt>
<trkpt lat="22.051315" lon="103.908203">
<ele>714.352051</ele>
<time>2011-04-26T02:09:15Z</time>
<desc>lat.=22.051315, lon.=103.908203, Alt.=714.352051m. Speed=25.271999m/h.</desc>
<speed>7.020000</speed>
</trkpt>
<trkpt lat="22.051130" lon="103.908470">
<ele>714.102051</ele>
<time>2011-04-26T02:09:20Z</time>
<desc>lat.=22.051130, lon.=103.908470, Alt.=714.102051m. Speed=23.436001m/h.</desc>
<speed>6.510000</speed>
</trkpt>
<trkpt lat="22.050982" lon="103.908722">
<ele>714.148926</ele>
<time>2011-04-26T02:09:25Z</time>
<desc>lat.=22.050982, lon.=103.908722, Alt.=714.148926m. Speed=22.104000m/h.</desc>
<speed>6.140000</speed>
</trkpt>
<trkpt lat="22.050797" lon="103.908966">
<ele>714.352051</ele>
<time>2011-04-26T02:09:30Z</time>
<desc>lat.=22.050797, lon.=103.908966, Alt.=714.352051m. Speed=23.040001m/h.</desc>
<speed>6.400000</speed>
</trkpt>
<trkpt lat="22.050606" lon="103.909195">
<ele>710.961426</ele>
<time>2011-04-26T02:09:35Z</time>
<desc>lat.=22.050606, lon.=103.909195, Alt.=710.961426m. Speed=25.775999m/h.</desc>
<speed>7.160000</speed>
</trkpt>
<trkpt lat="22.050278" lon="103.909355">
<ele>707.742676</ele>
<time>2011-04-26T02:09:40Z</time>
<desc>lat.=22.050278, lon.=103.909355, Alt.=707.742676m. Speed=30.924000m/h.</desc>
<speed>8.590000</speed>
</trkpt>
<trkpt lat="22.049892" lon="103.909508">
<ele>703.102051</ele>
<time>2011-04-26T02:09:45Z</time>
<desc>lat.=22.049892, lon.=103.909508, Alt.=703.102051m. Speed=34.452000m/h.</desc>
<speed>9.570000</speed>
</trkpt>
<trkpt lat="22.049612" lon="103.909584">
<ele>701.508301</ele>
<time>2011-04-26T02:09:50Z</time>
<desc>lat.=22.049612, lon.=103.909584, Alt.=701.508301m. Speed=16.200001m/h.</desc>
<speed>4.500000</speed>
</trkpt>
<trkpt lat="22.049461" lon="103.909676">
<ele>697.398926</ele>
<time>2011-04-26T02:09:55Z</time>
<desc>lat.=22.049461, lon.=103.909676, Alt.=697.398926m. Speed=12.204000m/h.</desc>
<speed>3.390000</speed>
</trkpt>
<trkpt lat="22.049290" lon="103.909798">
<ele>691.992676</ele>
<time>2011-04-26T02:10:00Z</time>
<desc>lat.=22.049290, lon.=103.909798, Alt.=691.992676m. Speed=15.588000m/h.</desc>
<speed>4.330000</speed>
</trkpt>
<trkpt lat="22.049086" lon="103.909866">
<ele>689.227051</ele>
<time>2011-04-26T02:10:05Z</time>
<desc>lat.=22.049086, lon.=103.909866, Alt.=689.227051m. Speed=16.524000m/h.</desc>
<speed>4.590000</speed>
</trkpt>
<trkpt lat="22.048855" lon="103.909920">
<ele>687.445801</ele>
<time>2011-04-26T02:10:10Z</time>
<desc>lat.=22.048855, lon.=103.909920, Alt.=687.445801m. Speed=22.104000m/h.</desc>
<speed>6.140000</speed>
</trkpt>
<trkpt lat="22.048519" lon="103.910034">
<ele>681.492676</ele>
<time>2011-04-26T02:10:15Z</time>
<desc>lat.=22.048519, lon.=103.910034, Alt.=681.492676m. Speed=30.420000m/h.</desc>
<speed>8.450000</speed>
</trkpt>
<trkpt lat="22.048147" lon="103.910301">
<ele>674.148926</ele>
<time>2011-04-26T02:10:20Z</time>
<desc>lat.=22.048147, lon.=103.910301, Alt.=674.148926m. Speed=38.771999m/h.</desc>
<speed>10.770000</speed>
</trkpt>
<trkpt lat="22.047718" lon="103.910622">
<ele>667.352051</ele>
<time>2011-04-26T02:10:25Z</time>
<desc>lat.=22.047718, lon.=103.910622, Alt.=667.352051m. Speed=43.956001m/h.</desc>
<speed>12.210000</speed>
</trkpt>
<trkpt lat="22.047239" lon="103.910980">
<ele>660.992676</ele>
<time>2011-04-26T02:10:30Z</time>
<desc>lat.=22.047239, lon.=103.910980, Alt.=660.992676m. Speed=47.160000m/h.</desc>
<speed>13.100000</speed>
</trkpt>
<trkpt lat="22.046751" lon="103.911385">
<ele>654.336426</ele>
<time>2011-04-26T02:10:35Z</time>
<desc>lat.=22.046751, lon.=103.911385, Alt.=654.336426m. Speed=47.952000m/h.</desc>
<speed>13.320000</speed>
</trkpt>
<trkpt lat="22.046276" lon="103.911835">
<ele>648.836426</ele>
<time>2011-04-26T02:10:40Z</time>
<desc>lat.=22.046276, lon.=103.911835, Alt.=648.836426m. Speed=51.155998m/h.</desc>
<speed>14.210000</speed>
</trkpt>
<trkpt lat="22.045792" lon="103.912315">
<ele>643.898926</ele>
<time>2011-04-26T02:10:45Z</time>
<desc>lat.=22.045792, lon.=103.912315, Alt.=643.898926m. Speed=51.840000m/h.</desc>
<speed>14.400000</speed>
</trkpt>
<trkpt lat="22.045319" lon="103.912781">
<ele>638.273926</ele>
<time>2011-04-26T02:10:50Z</time>
<desc>lat.=22.045319, lon.=103.912781, Alt.=638.273926m. Speed=48.924000m/h.</desc>
<speed>13.590000</speed>
</trkpt>
<trkpt lat="22.044882" lon="103.913208">
<ele>633.445801</ele>
<time>2011-04-26T02:10:55Z</time>
<desc>lat.=22.044882, lon.=103.913208, Alt.=633.445801m. Speed=46.116001m/h.</desc>
<speed>12.810000</speed>
</trkpt>
<trkpt lat="22.044477" lon="103.913612">
<ele>629.227051</ele>
<time>2011-04-26T02:11:00Z</time>
<desc>lat.=22.044477, lon.=103.913612, Alt.=629.227051m. Speed=40.500000m/h.</desc>
<speed>11.250000</speed>
</trkpt>
<trkpt lat="22.044123" lon="103.913956">
<ele>625.211426</ele>
<time>2011-04-26T02:11:05Z</time>
<desc>lat.=22.044123, lon.=103.913956, Alt.=625.211426m. Speed=38.411999m/h.</desc>
<speed>10.670000</speed>
</trkpt>
<trkpt lat="22.043758" lon="103.914284">
<ele>621.648926</ele>
<time>2011-04-26T02:11:10Z</time>
<desc>lat.=22.043758, lon.=103.914284, Alt.=621.648926m. Speed=37.152000m/h.</desc>
<speed>10.320000</speed>
</trkpt>
<trkpt lat="22.043367" lon="103.914566">
<ele>617.805176</ele>
<time>2011-04-26T02:11:15Z</time>
<desc>lat.=22.043367, lon.=103.914566, Alt.=617.805176m. Speed=37.439999m/h.</desc>
<speed>10.400000</speed>
</trkpt>
<trkpt lat="22.042950" lon="103.914764">
<ele>614.336426</ele>
<time>2011-04-26T02:11:20Z</time>
<desc>lat.=22.042950, lon.=103.914764, Alt.=614.336426m. Speed=32.868000m/h.</desc>
<speed>9.130000</speed>
</trkpt>
<trkpt lat="22.042530" lon="103.914886">
<ele>612.617676</ele>
<time>2011-04-26T02:11:25Z</time>
<desc>lat.=22.042530, lon.=103.914886, Alt.=612.617676m. Speed=38.952000m/h.</desc>
<speed>10.820000</speed>
</trkpt>
<trkpt lat="22.041992" lon="103.915016">
<ele>610.945801</ele>
<time>2011-04-26T02:11:30Z</time>
<desc>lat.=22.041992, lon.=103.915016, Alt.=610.945801m. Speed=44.532001m/h.</desc>
<speed>12.370000</speed>
</trkpt>
<trkpt lat="22.041405" lon="103.915207">
<ele>607.320801</ele>
<time>2011-04-26T02:11:35Z</time>
<desc>lat.=22.041405, lon.=103.915207, Alt.=607.320801m. Speed=43.740002m/h.</desc>
<speed>12.150000</speed>
</trkpt>
<trkpt lat="22.040869" lon="103.915352">
<ele>603.617676</ele>
<time>2011-04-26T02:11:40Z</time>
<desc>lat.=22.040869, lon.=103.915352, Alt.=603.617676m. Speed=43.091999m/h.</desc>
<speed>11.970000</speed>
</trkpt>
<trkpt lat="22.040346" lon="103.915520">
<ele>600.102051</ele>
<time>2011-04-26T02:11:45Z</time>
<desc>lat.=22.040346, lon.=103.915520, Alt.=600.102051m. Speed=42.695999m/h.</desc>
<speed>11.860000</speed>
</trkpt>
<trkpt lat="22.039846" lon="103.915665">
<ele>592.867676</ele>
<time>2011-04-26T02:11:50Z</time>
<desc>lat.=22.039846, lon.=103.915665, Alt.=592.867676m. Speed=41.256001m/h.</desc>
<speed>11.460000</speed>
</trkpt>
<trkpt lat="22.039343" lon="103.915833">
<ele>592.039551</ele>
<time>2011-04-26T02:11:55Z</time>
<desc>lat.=22.039343, lon.=103.915833, Alt.=592.039551m. Speed=39.959999m/h.</desc>
<speed>11.100000</speed>
</trkpt>
<trkpt lat="22.038893" lon="103.915977">
<ele>591.820801</ele>
<time>2011-04-26T02:12:00Z</time>
<desc>lat.=22.038893, lon.=103.915977, Alt.=591.820801m. Speed=34.416000m/h.</desc>
<speed>9.560000</speed>
</trkpt>
<trkpt lat="22.038502" lon="103.916092">
<ele>591.758301</ele>
<time>2011-04-26T02:12:05Z</time>
<desc>lat.=22.038502, lon.=103.916092, Alt.=591.758301m. Speed=30.672001m/h.</desc>
<speed>8.520000</speed>
</trkpt>
<trkpt lat="22.038137" lon="103.916199">
<ele>591.336426</ele>
<time>2011-04-26T02:12:10Z</time>
<desc>lat.=22.038137, lon.=103.916199, Alt.=591.336426m. Speed=28.260000m/h.</desc>
<speed>7.850000</speed>
</trkpt>
<trkpt lat="22.037815" lon="103.916290">
<ele>590.867676</ele>
<time>2011-04-26T02:12:15Z</time>
<desc>lat.=22.037815, lon.=103.916290, Alt.=590.867676m. Speed=24.875999m/h.</desc>
<speed>6.910000</speed>
</trkpt>
<trkpt lat="22.037525" lon="103.916382">
<ele>590.727051</ele>
<time>2011-04-26T02:12:20Z</time>
<desc>lat.=22.037525, lon.=103.916382, Alt.=590.727051m. Speed=23.868000m/h.</desc>
<speed>6.630000</speed>
</trkpt>
<trkpt lat="22.037241" lon="103.916473">
<ele>591.836426</ele>
<time>2011-04-26T02:12:25Z</time>
<desc>lat.=22.037241, lon.=103.916473, Alt.=591.836426m. Speed=23.472000m/h.</desc>
<speed>6.520000</speed>
</trkpt>
<trkpt lat="22.036947" lon="103.916527">
<ele>591.523926</ele>
<time>2011-04-26T02:12:30Z</time>
<desc>lat.=22.036947, lon.=103.916527, Alt.=591.523926m. Speed=23.688000m/h.</desc>
<speed>6.580000</speed>
</trkpt>
<trkpt lat="22.036665" lon="103.916519">
<ele>592.773926</ele>
<time>2011-04-26T02:12:35Z</time>
<desc>lat.=22.036665, lon.=103.916519, Alt.=592.773926m. Speed=21.959999m/h.</desc>
<speed>6.100000</speed>
</trkpt>
<trkpt lat="22.036413" lon="103.916443">
<ele>594.477051</ele>
<time>2011-04-26T02:12:40Z</time>
<desc>lat.=22.036413, lon.=103.916443, Alt.=594.477051m. Speed=20.448000m/h.</desc>
<speed>5.680000</speed>
</trkpt>
<trkpt lat="22.036182" lon="103.916351">
<ele>595.680176</ele>
<time>2011-04-26T02:12:45Z</time>
<desc>lat.=22.036182, lon.=103.916351, Alt.=595.680176m. Speed=19.836000m/h.</desc>
<speed>5.510000</speed>
</trkpt>
<trkpt lat="22.035929" lon="103.916252">
<ele>596.336426</ele>
<time>2011-04-26T02:12:50Z</time>
<desc>lat.=22.035929, lon.=103.916252, Alt.=596.336426m. Speed=24.156000m/h.</desc>
<speed>6.710000</speed>
</trkpt>
<trkpt lat="22.035637" lon="103.916145">
<ele>596.852051</ele>
<time>2011-04-26T02:12:55Z</time>
<desc>lat.=22.035637, lon.=103.916145, Alt.=596.852051m. Speed=26.568001m/h.</desc>
<speed>7.380000</speed>
</trkpt>
<trkpt lat="22.035309" lon="103.916023">
<ele>597.320801</ele>
<time>2011-04-26T02:13:00Z</time>
<desc>lat.=22.035309, lon.=103.916023, Alt.=597.320801m. Speed=27.576000m/h.</desc>
<speed>7.660000</speed>
</trkpt>
<trkpt lat="22.034975" lon="103.915886">
<ele>597.383301</ele>
<time>2011-04-26T02:13:05Z</time>
<desc>lat.=22.034975, lon.=103.915886, Alt.=597.383301m. Speed=26.388000m/h.</desc>
<speed>7.330000</speed>
</trkpt>
<trkpt lat="22.034693" lon="103.915787">
<ele>597.680176</ele>
<time>2011-04-26T02:13:10Z</time>
<desc>lat.=22.034693, lon.=103.915787, Alt.=597.680176m. Speed=23.868000m/h.</desc>
<speed>6.630000</speed>
</trkpt>
<trkpt lat="22.034443" lon="103.915695">
<ele>598.555176</ele>
<time>2011-04-26T02:13:15Z</time>
<desc>lat.=22.034443, lon.=103.915695, Alt.=598.555176m. Speed=19.440001m/h.</desc>
<speed>5.400000</speed>
</trkpt>
<trkpt lat="22.034239" lon="103.915627">
<ele>600.180176</ele>
<time>2011-04-26T02:13:20Z</time>
<desc>lat.=22.034239, lon.=103.915627, Alt.=600.180176m. Speed=15.372000m/h.</desc>
<speed>4.270000</speed>
</trkpt>
<trkpt lat="22.034061" lon="103.915558">
<ele>601.477051</ele>
<time>2011-04-26T02:13:25Z</time>
<desc>lat.=22.034061, lon.=103.915558, Alt.=601.477051m. Speed=13.860000m/h.</desc>
<speed>3.850000</speed>
</trkpt>
<trkpt lat="22.033915" lon="103.915504">
<ele>602.164551</ele>
<time>2011-04-26T02:13:30Z</time>
<desc>lat.=22.033915, lon.=103.915504, Alt.=602.164551m. Speed=11.592000m/h.</desc>
<speed>3.220000</speed>
</trkpt>
<trkpt lat="22.033794" lon="103.915451">
<ele>603.039551</ele>
<time>2011-04-26T02:13:35Z</time>
<desc>lat.=22.033794, lon.=103.915451, Alt.=603.039551m. Speed=10.332000m/h.</desc>
<speed>2.870000</speed>
</trkpt>
<trkpt lat="22.033627" lon="103.915382">
<ele>603.445801</ele>
<time>2011-04-26T02:13:40Z</time>
<desc>lat.=22.033627, lon.=103.915382, Alt.=603.445801m. Speed=15.696000m/h.</desc>
<speed>4.360000</speed>
</trkpt>
<trkpt lat="22.033396" lon="103.915291">
<ele>603.430176</ele>
<time>2011-04-26T02:13:45Z</time>
<desc>lat.=22.033396, lon.=103.915291, Alt.=603.430176m. Speed=21.888000m/h.</desc>
<speed>6.080000</speed>
</trkpt>
<trkpt lat="22.033085" lon="103.915215">
<ele>603.133301</ele>
<time>2011-04-26T02:13:50Z</time>
<desc>lat.=22.033085, lon.=103.915215, Alt.=603.133301m. Speed=27.360001m/h.</desc>
<speed>7.600000</speed>
</trkpt>
<trkpt lat="22.032721" lon="103.915100">
<ele>601.883301</ele>
<time>2011-04-26T02:13:55Z</time>
<desc>lat.=22.032721, lon.=103.915100, Alt.=601.883301m. Speed=31.860001m/h.</desc>
<speed>8.850000</speed>
</trkpt>
<trkpt lat="22.032503" lon="103.915009">
<ele>599.977051</ele>
<time>2011-04-26T02:14:00Z</time>
<desc>lat.=22.032503, lon.=103.915009, Alt.=599.977051m. Speed=9.576000m/h.</desc>
<speed>2.660000</speed>
</trkpt>
<trkpt lat="22.032431" lon="103.914955">
<ele>597.430176</ele>
<time>2011-04-26T02:14:05Z</time>
<desc>lat.=22.032431, lon.=103.914955, Alt.=597.430176m. Speed=8.604000m/h.</desc>
<speed>2.390000</speed>
</trkpt>
<trkpt lat="22.032310" lon="103.914902">
<ele>595.289551</ele>
<time>2011-04-26T02:14:10Z</time>
<desc>lat.=22.032310, lon.=103.914902, Alt.=595.289551m. Speed=10.836000m/h.</desc>
<speed>3.010000</speed>
</trkpt>
<trkpt lat="22.032190" lon="103.914856">
<ele>594.102051</ele>
<time>2011-04-26T02:14:15Z</time>
<desc>lat.=22.032190, lon.=103.914856, Alt.=594.102051m. Speed=10.692000m/h.</desc>
<speed>2.970000</speed>
</trkpt>
<trkpt lat="22.032053" lon="103.914818">
<ele>592.961426</ele>
<time>2011-04-26T02:14:20Z</time>
<desc>lat.=22.032053, lon.=103.914818, Alt.=592.961426m. Speed=9.756000m/h.</desc>
<speed>2.710000</speed>
</trkpt>
<trkpt lat="22.031965" lon="103.914787">
<ele>591.930176</ele>
<time>2011-04-26T02:14:25Z</time>
<desc>lat.=22.031965, lon.=103.914787, Alt.=591.930176m. Speed=4.968000m/h.</desc>
<speed>1.380000</speed>
</trkpt>
<trkpt lat="22.031900" lon="103.914749">
<ele>590.930176</ele>
<time>2011-04-26T02:14:30Z</time>
<desc>lat.=22.031900, lon.=103.914749, Alt.=590.930176m. Speed=7.128000m/h.</desc>
<speed>1.980000</speed>
</trkpt>
<trkpt lat="22.031839" lon="103.914711">
<ele>589.695801</ele>
<time>2011-04-26T02:14:35Z</time>
<desc>lat.=22.031839, lon.=103.914711, Alt.=589.695801m. Speed=2.520000m/h.</desc>
<speed>0.700000</speed>
</trkpt>
<trkpt lat="22.031763" lon="103.914658">
<ele>589.023926</ele>
<time>2011-04-26T02:14:40Z</time>
<desc>lat.=22.031763, lon.=103.914658, Alt.=589.023926m. Speed=10.332000m/h.</desc>
<speed>2.870000</speed>
</trkpt>
<trkpt lat="22.031610" lon="103.914513">
<ele>587.336426</ele>
<time>2011-04-26T02:14:45Z</time>
<desc>lat.=22.031610, lon.=103.914513, Alt.=587.336426m. Speed=20.016001m/h.</desc>
<speed>5.560000</speed>
</trkpt>
<trkpt lat="22.031363" lon="103.914276">
<ele>585.664551</ele>
<time>2011-04-26T02:14:50Z</time>
<desc>lat.=22.031363, lon.=103.914276, Alt.=585.664551m. Speed=29.879999m/h.</desc>
<speed>8.300000</speed>
</trkpt>
<trkpt lat="22.031055" lon="103.913971">
<ele>583.523926</ele>
<time>2011-04-26T02:14:55Z</time>
<desc>lat.=22.031055, lon.=103.913971, Alt.=583.523926m. Speed=36.504002m/h.</desc>
<speed>10.140000</speed>
</trkpt>
<trkpt lat="22.030701" lon="103.913635">
<ele>581.117676</ele>
<time>2011-04-26T02:15:00Z</time>
<desc>lat.=22.030701, lon.=103.913635, Alt.=581.117676m. Speed=36.396000m/h.</desc>
<speed>10.110000</speed>
</trkpt>
<trkpt lat="22.030319" lon="103.913445">
<ele>578.555176</ele>
<time>2011-04-26T02:15:05Z</time>
<desc>lat.=22.030319, lon.=103.913445, Alt.=578.555176m. Speed=33.948002m/h.</desc>
<speed>9.430001</speed>
</trkpt>
<trkpt lat="22.029852" lon="103.913399">
<ele>575.352051</ele>
<time>2011-04-26T02:15:10Z</time>
<desc>lat.=22.029852, lon.=103.913399, Alt.=575.352051m. Speed=39.383999m/h.</desc>
<speed>10.940000</speed>
</trkpt>
<trkpt lat="22.029329" lon="103.913338">
<ele>572.117676</ele>
<time>2011-04-26T02:15:15Z</time>
<desc>lat.=22.029329, lon.=103.913338, Alt.=572.117676m. Speed=43.848000m/h.</desc>
<speed>12.180000</speed>
</trkpt>
<trkpt lat="22.028763" lon="103.913399">
<ele>568.758301</ele>
<time>2011-04-26T02:15:20Z</time>
<desc>lat.=22.028763, lon.=103.913399, Alt.=568.758301m. Speed=44.495998m/h.</desc>
<speed>12.360000</speed>
</trkpt>
<trkpt lat="22.028240" lon="103.913673">
<ele>565.398926</ele>
<time>2011-04-26T02:15:25Z</time>
<desc>lat.=22.028240, lon.=103.913673, Alt.=565.398926m. Speed=44.820000m/h.</desc>
<speed>12.450000</speed>
</trkpt>
<trkpt lat="22.027779" lon="103.913948">
<ele>562.555176</ele>
<time>2011-04-26T02:15:30Z</time>
<desc>lat.=22.027779, lon.=103.913948, Alt.=562.555176m. Speed=40.248001m/h.</desc>
<speed>11.180000</speed>
</trkpt>
<trkpt lat="22.027342" lon="103.914207">
<ele>559.805176</ele>
<time>2011-04-26T02:15:35Z</time>
<desc>lat.=22.027342, lon.=103.914207, Alt.=559.805176m. Speed=37.944000m/h.</desc>
<speed>10.540000</speed>
</trkpt>
<trkpt lat="22.026943" lon="103.914429">
<ele>557.445801</ele>
<time>2011-04-26T02:15:40Z</time>
<desc>lat.=22.026943, lon.=103.914429, Alt.=557.445801m. Speed=35.820000m/h.</desc>
<speed>9.950000</speed>
</trkpt>
<trkpt lat="22.026564" lon="103.914673">
<ele>555.586426</ele>
<time>2011-04-26T02:15:45Z</time>
<desc>lat.=22.026564, lon.=103.914673, Alt.=555.586426m. Speed=34.307999m/h.</desc>
<speed>9.530000</speed>
</trkpt>
<trkpt lat="22.026163" lon="103.914833">
<ele>553.883301</ele>
<time>2011-04-26T02:15:50Z</time>
<desc>lat.=22.026163, lon.=103.914833, Alt.=553.883301m. Speed=32.543999m/h.</desc>
<speed>9.040000</speed>
</trkpt>
<trkpt lat="22.025759" lon="103.914803">
<ele>552.477051</ele>
<time>2011-04-26T02:15:55Z</time>
<desc>lat.=22.025759, lon.=103.914803, Alt.=552.477051m. Speed=32.759998m/h.</desc>
<speed>9.100000</speed>
</trkpt>
<trkpt lat="22.025349" lon="103.914749">
<ele>551.102051</ele>
<time>2011-04-26T02:16:00Z</time>
<desc>lat.=22.025349, lon.=103.914749, Alt.=551.102051m. Speed=33.515999m/h.</desc>
<speed>9.310000</speed>
</trkpt>
<trkpt lat="22.024948" lon="103.914642">
<ele>550.367676</ele>
<time>2011-04-26T02:16:05Z</time>
<desc>lat.=22.024948, lon.=103.914642, Alt.=550.367676m. Speed=31.104000m/h.</desc>
<speed>8.640000</speed>
</trkpt>
<trkpt lat="22.024563" lon="103.914467">
<ele>549.242676</ele>
<time>2011-04-26T02:16:10Z</time>
<desc>lat.=22.024563, lon.=103.914467, Alt.=549.242676m. Speed=30.780001m/h.</desc>
<speed>8.550000</speed>
</trkpt>
<trkpt lat="22.024191" lon="103.914330">
<ele>548.617676</ele>
<time>2011-04-26T02:16:15Z</time>
<desc>lat.=22.024191, lon.=103.914330, Alt.=548.617676m. Speed=31.535999m/h.</desc>
<speed>8.760000</speed>
</trkpt>
<trkpt lat="22.023769" lon="103.914223">
<ele>547.211426</ele>
<time>2011-04-26T02:16:20Z</time>
<desc>lat.=22.023769, lon.=103.914223, Alt.=547.211426m. Speed=34.956001m/h.</desc>
<speed>9.710000</speed>
</trkpt>
<trkpt lat="22.023323" lon="103.914268">
<ele>545.852051</ele>
<time>2011-04-26T02:16:25Z</time>
<desc>lat.=22.023323, lon.=103.914268, Alt.=545.852051m. Speed=32.400002m/h.</desc>
<speed>9.000000</speed>
</trkpt>
<trkpt lat="22.022949" lon="103.914406">
<ele>544.461426</ele>
<time>2011-04-26T02:16:30Z</time>
<desc>lat.=22.022949, lon.=103.914406, Alt.=544.461426m. Speed=29.556000m/h.</desc>
<speed>8.210000</speed>
</trkpt>
<trkpt lat="22.022619" lon="103.914597">
<ele>543.180176</ele>
<time>2011-04-26T02:16:35Z</time>
<desc>lat.=22.022619, lon.=103.914597, Alt.=543.180176m. Speed=28.584000m/h.</desc>
<speed>7.940000</speed>
</trkpt>
<trkpt lat="22.022312" lon="103.914795">
<ele>542.680176</ele>
<time>2011-04-26T02:16:40Z</time>
<desc>lat.=22.022312, lon.=103.914795, Alt.=542.680176m. Speed=26.856001m/h.</desc>
<speed>7.460000</speed>
</trkpt>
<trkpt lat="22.021999" lon="103.914955">
<ele>542.789551</ele>
<time>2011-04-26T02:16:45Z</time>
<desc>lat.=22.021999, lon.=103.914955, Alt.=542.789551m. Speed=23.472000m/h.</desc>
<speed>6.520000</speed>
</trkpt>
<trkpt lat="22.021696" lon="103.915054">
<ele>544.945801</ele>
<time>2011-04-26T02:16:50Z</time>
<desc>lat.=22.021696, lon.=103.915054, Alt.=544.945801m. Speed=24.120001m/h.</desc>
<speed>6.700000</speed>
</trkpt>
<trkpt lat="22.021442" lon="103.915077">
<ele>544.898926</ele>
<time>2011-04-26T02:16:55Z</time>
<desc>lat.=22.021442, lon.=103.915077, Alt.=544.898926m. Speed=21.275999m/h.</desc>
<speed>5.910000</speed>
</trkpt>
<trkpt lat="22.021204" lon="103.915092">
<ele>544.039551</ele>
<time>2011-04-26T02:17:00Z</time>
<desc>lat.=22.021204, lon.=103.915092, Alt.=544.039551m. Speed=17.243999m/h.</desc>
<speed>4.790000</speed>
</trkpt>
<trkpt lat="22.021004" lon="103.915062">
<ele>542.367676</ele>
<time>2011-04-26T02:17:05Z</time>
<desc>lat.=22.021004, lon.=103.915062, Alt.=542.367676m. Speed=14.040000m/h.</desc>
<speed>3.900000</speed>
</trkpt>
<trkpt lat="22.020842" lon="103.915039">
<ele>542.258301</ele>
<time>2011-04-26T02:17:10Z</time>
<desc>lat.=22.020842, lon.=103.915039, Alt.=542.258301m. Speed=11.412000m/h.</desc>
<speed>3.170000</speed>
</trkpt>
<trkpt lat="22.020674" lon="103.915024">
<ele>541.367676</ele>
<time>2011-04-26T02:17:15Z</time>
<desc>lat.=22.020674, lon.=103.915024, Alt.=541.367676m. Speed=12.168000m/h.</desc>
<speed>3.380000</speed>
</trkpt>
<trkpt lat="22.020506" lon="103.915016">
<ele>539.930176</ele>
<time>2011-04-26T02:17:20Z</time>
<desc>lat.=22.020506, lon.=103.915016, Alt.=539.930176m. Speed=14.760000m/h.</desc>
<speed>4.100000</speed>
</trkpt>
<trkpt lat="22.020351" lon="103.915001">
<ele>538.773926</ele>
<time>2011-04-26T02:17:25Z</time>
<desc>lat.=22.020351, lon.=103.915001, Alt.=538.773926m. Speed=10.836000m/h.</desc>
<speed>3.010000</speed>
</trkpt>
<trkpt lat="22.020180" lon="103.914978">
<ele>538.242676</ele>
<time>2011-04-26T02:17:30Z</time>
<desc>lat.=22.020180, lon.=103.914978, Alt.=538.242676m. Speed=13.608000m/h.</desc>
<speed>3.780000</speed>
</trkpt>
<trkpt lat="22.020008" lon="103.914948">
<ele>538.789551</ele>
<time>2011-04-26T02:17:35Z</time>
<desc>lat.=22.020008, lon.=103.914948, Alt.=538.789551m. Speed=16.271999m/h.</desc>
<speed>4.520000</speed>
</trkpt>
<trkpt lat="22.019789" lon="103.914917">
<ele>538.898926</ele>
<time>2011-04-26T02:17:40Z</time>
<desc>lat.=22.019789, lon.=103.914917, Alt.=538.898926m. Speed=15.408000m/h.</desc>
<speed>4.280000</speed>
</trkpt>
<trkpt lat="22.019566" lon="103.914886">
<ele>538.195801</ele>
<time>2011-04-26T02:17:45Z</time>
<desc>lat.=22.019566, lon.=103.914886, Alt.=538.195801m. Speed=16.271999m/h.</desc>
<speed>4.520000</speed>
</trkpt>
<trkpt lat="22.019344" lon="103.914848">
<ele>537.414551</ele>
<time>2011-04-26T02:17:50Z</time>
<desc>lat.=22.019344, lon.=103.914848, Alt.=537.414551m. Speed=16.955999m/h.</desc>
<speed>4.710000</speed>
</trkpt>
<trkpt lat="22.019121" lon="103.914803">
<ele>536.992676</ele>
<time>2011-04-26T02:17:55Z</time>
<desc>lat.=22.019121, lon.=103.914803, Alt.=536.992676m. Speed=16.740000m/h.</desc>
<speed>4.650000</speed>
</trkpt>
<trkpt lat="22.018913" lon="103.914787">
<ele>535.914551</ele>
<time>2011-04-26T02:18:00Z</time>
<desc>lat.=22.018913, lon.=103.914787, Alt.=535.914551m. Speed=16.559999m/h.</desc>
<speed>4.600000</speed>
</trkpt>
<trkpt lat="22.018717" lon="103.914772">
<ele>536.102051</ele>
<time>2011-04-26T02:18:05Z</time>
<desc>lat.=22.018717, lon.=103.914772, Alt.=536.102051m. Speed=14.508000m/h.</desc>
<speed>4.030000</speed>
</trkpt>
<trkpt lat="22.018499" lon="103.914734">
<ele>541.414551</ele>
<time>2011-04-26T02:18:10Z</time>
<desc>lat.=22.018499, lon.=103.914734, Alt.=541.414551m. Speed=16.056000m/h.</desc>
<speed>4.460000</speed>
</trkpt>
<trkpt lat="22.018295" lon="103.914688">
<ele>546.055176</ele>
<time>2011-04-26T02:18:15Z</time>
<desc>lat.=22.018295, lon.=103.914688, Alt.=546.055176m. Speed=15.012000m/h.</desc>
<speed>4.170000</speed>
</trkpt>
<trkpt lat="22.018114" lon="103.914650">
<ele>546.227051</ele>
<time>2011-04-26T02:18:20Z</time>
<desc>lat.=22.018114, lon.=103.914650, Alt.=546.227051m. Speed=13.068000m/h.</desc>
<speed>3.630000</speed>
</trkpt>
<trkpt lat="22.017914" lon="103.914627">
<ele>546.617676</ele>
<time>2011-04-26T02:18:25Z</time>
<desc>lat.=22.017914, lon.=103.914627, Alt.=546.617676m. Speed=14.256000m/h.</desc>
<speed>3.960000</speed>
</trkpt>
<trkpt lat="22.017702" lon="103.914612">
<ele>547.117676</ele>
<time>2011-04-26T02:18:30Z</time>
<desc>lat.=22.017702, lon.=103.914612, Alt.=547.117676m. Speed=14.904000m/h.</desc>
<speed>4.140000</speed>
</trkpt>
<trkpt lat="22.017492" lon="103.914566">
<ele>549.352051</ele>
<time>2011-04-26T02:18:35Z</time>
<desc>lat.=22.017492, lon.=103.914566, Alt.=549.352051m. Speed=15.948000m/h.</desc>
<speed>4.430000</speed>
</trkpt>
<trkpt lat="22.017309" lon="103.914536">
<ele>550.961426</ele>
<time>2011-04-26T02:18:40Z</time>
<desc>lat.=22.017309, lon.=103.914536, Alt.=550.961426m. Speed=12.204000m/h.</desc>
<speed>3.390000</speed>
</trkpt>
<trkpt lat="22.017134" lon="103.914505">
<ele>552.320801</ele>
<time>2011-04-26T02:18:45Z</time>
<desc>lat.=22.017134, lon.=103.914505, Alt.=552.320801m. Speed=14.868000m/h.</desc>
<speed>4.130000</speed>
</trkpt>
<trkpt lat="22.016960" lon="103.914505">
<ele>550.195801</ele>
<time>2011-04-26T02:18:50Z</time>
<desc>lat.=22.016960, lon.=103.914505, Alt.=550.195801m. Speed=12.600000m/h.</desc>
<speed>3.500000</speed>
</trkpt>
<trkpt lat="22.016788" lon="103.914528">
<ele>547.523926</ele>
<time>2011-04-26T02:18:55Z</time>
<desc>lat.=22.016788, lon.=103.914528, Alt.=547.523926m. Speed=14.256000m/h.</desc>
<speed>3.960000</speed>
</trkpt>
<trkpt lat="22.016624" lon="103.914635">
<ele>546.242676</ele>
<time>2011-04-26T02:19:00Z</time>
<desc>lat.=22.016624, lon.=103.914635, Alt.=546.242676m. Speed=13.572000m/h.</desc>
<speed>3.770000</speed>
</trkpt>
<trkpt lat="22.016518" lon="103.914726">
<ele>544.508301</ele>
<time>2011-04-26T02:19:05Z</time>
<desc>lat.=22.016518, lon.=103.914726, Alt.=544.508301m. Speed=9.612000m/h.</desc>
<speed>2.670000</speed>
</trkpt>
<trkpt lat="22.016447" lon="103.914795">
<ele>544.586426</ele>
<time>2011-04-26T02:19:10Z</time>
<desc>lat.=22.016447, lon.=103.914795, Alt.=544.586426m. Speed=8.424000m/h.</desc>
<speed>2.340000</speed>
</trkpt>
<trkpt lat="22.016430" lon="103.914856">
<ele>544.133301</ele>
<time>2011-04-26T02:19:15Z</time>
<desc>lat.=22.016430, lon.=103.914856, Alt.=544.133301m. Speed=4.860000m/h.</desc>
<speed>1.350000</speed>
</trkpt>
<trkpt lat="22.016390" lon="103.914948">
<ele>545.961426</ele>
<time>2011-04-26T02:19:20Z</time>
<desc>lat.=22.016390, lon.=103.914948, Alt.=545.961426m. Speed=7.416000m/h.</desc>
<speed>2.060000</speed>
</trkpt>
<trkpt lat="22.016375" lon="103.915077">
<ele>545.773926</ele>
<time>2011-04-26T02:19:25Z</time>
<desc>lat.=22.016375, lon.=103.915077, Alt.=545.773926m. Speed=5.652000m/h.</desc>
<speed>1.570000</speed>
</trkpt>
<trkpt lat="22.016361" lon="103.915184">
<ele>547.523926</ele>
<time>2011-04-26T02:19:30Z</time>
<desc>lat.=22.016361, lon.=103.915184, Alt.=547.523926m. Speed=8.208000m/h.</desc>
<speed>2.280000</speed>
</trkpt>
<trkpt lat="22.016340" lon="103.915352">
<ele>548.008301</ele>
<time>2011-04-26T02:19:35Z</time>
<desc>lat.=22.016340, lon.=103.915352, Alt.=548.008301m. Speed=10.044000m/h.</desc>
<speed>2.790000</speed>
</trkpt>
<trkpt lat="22.016331" lon="103.915497">
<ele>548.617676</ele>
<time>2011-04-26T02:19:40Z</time>
<desc>lat.=22.016331, lon.=103.915497, Alt.=548.617676m. Speed=9.504000m/h.</desc>
<speed>2.640000</speed>
</trkpt>
<trkpt lat="22.016310" lon="103.915672">
<ele>549.664551</ele>
<time>2011-04-26T02:19:45Z</time>
<desc>lat.=22.016310, lon.=103.915672, Alt.=549.664551m. Speed=8.208000m/h.</desc>
<speed>2.280000</speed>
</trkpt>
<trkpt lat="22.016289" lon="103.915794">
<ele>550.758301</ele>
<time>2011-04-26T02:19:50Z</time>
<desc>lat.=22.016289, lon.=103.915794, Alt.=550.758301m. Speed=7.668000m/h.</desc>
<speed>2.130000</speed>
</trkpt>
<trkpt lat="22.016272" lon="103.915878">
<ele>552.961426</ele>
<time>2011-04-26T02:19:55Z</time>
<desc>lat.=22.016272, lon.=103.915878, Alt.=552.961426m. Speed=6.516000m/h.</desc>
<speed>1.810000</speed>
</trkpt>
<trkpt lat="22.016256" lon="103.916000">
<ele>553.914551</ele>
<time>2011-04-26T02:20:00Z</time>
<desc>lat.=22.016256, lon.=103.916000, Alt.=553.914551m. Speed=7.884000m/h.</desc>
<speed>2.190000</speed>
</trkpt>
<trkpt lat="22.016241" lon="103.916145">
<ele>555.602051</ele>
<time>2011-04-26T02:20:05Z</time>
<desc>lat.=22.016241, lon.=103.916145, Alt.=555.602051m. Speed=8.028000m/h.</desc>
<speed>2.230000</speed>
</trkpt>
<trkpt lat="22.016220" lon="103.916260">
<ele>556.852051</ele>
<time>2011-04-26T02:20:10Z</time>
<desc>lat.=22.016220, lon.=103.916260, Alt.=556.852051m. Speed=8.928000m/h.</desc>
<speed>2.480000</speed>
</trkpt>
<trkpt lat="22.016197" lon="103.916382">
<ele>559.195801</ele>
<time>2011-04-26T02:20:15Z</time>
<desc>lat.=22.016197, lon.=103.916382, Alt.=559.195801m. Speed=7.236000m/h.</desc>
<speed>2.010000</speed>
</trkpt>
<trkpt lat="22.016184" lon="103.916481">
<ele>560.289551</ele>
<time>2011-04-26T02:20:20Z</time>
<desc>lat.=22.016184, lon.=103.916481, Alt.=560.289551m. Speed=7.236000m/h.</desc>
<speed>2.010000</speed>
</trkpt>
<trkpt lat="22.016171" lon="103.916588">
<ele>561.555176</ele>
<time>2011-04-26T02:20:25Z</time>
<desc>lat.=22.016171, lon.=103.916588, Alt.=561.555176m. Speed=5.940000m/h.</desc>
<speed>1.650000</speed>
</trkpt>
<trkpt lat="22.016161" lon="103.916672">
<ele>562.742676</ele>
<time>2011-04-26T02:20:30Z</time>
<desc>lat.=22.016161, lon.=103.916672, Alt.=562.742676m. Speed=6.408000m/h.</desc>
<speed>1.780000</speed>
</trkpt>
<trkpt lat="22.016171" lon="103.916748">
<ele>564.273926</ele>
<time>2011-04-26T02:20:35Z</time>
<desc>lat.=22.016171, lon.=103.916748, Alt.=564.273926m. Speed=6.696000m/h.</desc>
<speed>1.860000</speed>
</trkpt>
<trkpt lat="22.016176" lon="103.916901">
<ele>565.102051</ele>
<time>2011-04-26T02:20:40Z</time>
<desc>lat.=22.016176, lon.=103.916901, Alt.=565.102051m. Speed=8.280000m/h.</desc>
<speed>2.300000</speed>
</trkpt>
<trkpt lat="22.016178" lon="103.917053">
<ele>565.586426</ele>
<time>2011-04-26T02:20:45Z</time>
<desc>lat.=22.016178, lon.=103.917053, Alt.=565.586426m. Speed=9.252000m/h.</desc>
<speed>2.570000</speed>
</trkpt>
<trkpt lat="22.016188" lon="103.917191">
<ele>565.883301</ele>
<time>2011-04-26T02:20:50Z</time>
<desc>lat.=22.016188, lon.=103.917191, Alt.=565.883301m. Speed=9.972000m/h.</desc>
<speed>2.770000</speed>
</trkpt>
<trkpt lat="22.016209" lon="103.917328">
<ele>566.445801</ele>
<time>2011-04-26T02:20:55Z</time>
<desc>lat.=22.016209, lon.=103.917328, Alt.=566.445801m. Speed=9.360000m/h.</desc>
<speed>2.600000</speed>
</trkpt>
<trkpt lat="22.016226" lon="103.917473">
<ele>566.820801</ele>
<time>2011-04-26T02:21:00Z</time>
<desc>lat.=22.016226, lon.=103.917473, Alt.=566.820801m. Speed=9.144000m/h.</desc>
<speed>2.540000</speed>
</trkpt>
<trkpt lat="22.016235" lon="103.917633">
<ele>568.039551</ele>
<time>2011-04-26T02:21:05Z</time>
<desc>lat.=22.016235, lon.=103.917633, Alt.=568.039551m. Speed=8.820000m/h.</desc>
<speed>2.450000</speed>
</trkpt>
<trkpt lat="22.016254" lon="103.917770">
<ele>568.398926</ele>
<time>2011-04-26T02:21:10Z</time>
<desc>lat.=22.016254, lon.=103.917770, Alt.=568.398926m. Speed=9.432000m/h.</desc>
<speed>2.620000</speed>
</trkpt>
<trkpt lat="22.016275" lon="103.917892">
<ele>567.773926</ele>
<time>2011-04-26T02:21:15Z</time>
<desc>lat.=22.016275, lon.=103.917892, Alt.=567.773926m. Speed=7.668000m/h.</desc>
<speed>2.130000</speed>
</trkpt>
<trkpt lat="22.016294" lon="103.917976">
<ele>566.789551</ele>
<time>2011-04-26T02:21:20Z</time>
<desc>lat.=22.016294, lon.=103.917976, Alt.=566.789551m. Speed=5.724000m/h.</desc>
<speed>1.590000</speed>
</trkpt>
<trkpt lat="22.016306" lon="103.918068">
<ele>566.867676</ele>
<time>2011-04-26T02:21:25Z</time>
<desc>lat.=22.016306, lon.=103.918068, Alt.=566.867676m. Speed=5.652000m/h.</desc>
<speed>1.570000</speed>
</trkpt>
<trkpt lat="22.016342" lon="103.918182">
<ele>567.539551</ele>
<time>2011-04-26T02:21:30Z</time>
<desc>lat.=22.016342, lon.=103.918182, Alt.=567.539551m. Speed=7.200000m/h.</desc>
<speed>2.000000</speed>
</trkpt>
<trkpt lat="22.016352" lon="103.918304">
<ele>567.273926</ele>
<time>2011-04-26T02:21:35Z</time>
<desc>lat.=22.016352, lon.=103.918304, Alt.=567.273926m. Speed=7.416000m/h.</desc>
<speed>2.060000</speed>
</trkpt>
<trkpt lat="22.016367" lon="103.918411">
<ele>567.320801</ele>
<time>2011-04-26T02:21:40Z</time>
<desc>lat.=22.016367, lon.=103.918411, Alt.=567.320801m. Speed=6.984000m/h.</desc>
<speed>1.940000</speed>
</trkpt>
<trkpt lat="22.016386" lon="103.918518">
<ele>567.789551</ele>
<time>2011-04-26T02:21:45Z</time>
<desc>lat.=22.016386, lon.=103.918518, Alt.=567.789551m. Speed=7.236000m/h.</desc>
<speed>2.010000</speed>
</trkpt>
<trkpt lat="22.016397" lon="103.918633">
<ele>566.680176</ele>
<time>2011-04-26T02:21:50Z</time>
<desc>lat.=22.016397, lon.=103.918633, Alt.=566.680176m. Speed=7.128000m/h.</desc>
<speed>1.980000</speed>
</trkpt>
<trkpt lat="22.016411" lon="103.918739">
<ele>567.992676</ele>
<time>2011-04-26T02:21:55Z</time>
<desc>lat.=22.016411, lon.=103.918739, Alt.=567.992676m. Speed=7.128000m/h.</desc>
<speed>1.980000</speed>
</trkpt>
<trkpt lat="22.016428" lon="103.918839">
<ele>568.555176</ele>
<time>2011-04-26T02:22:00Z</time>
<desc>lat.=22.016428, lon.=103.918839, Alt.=568.555176m. Speed=5.688000m/h.</desc>
<speed>1.580000</speed>
</trkpt>
<trkpt lat="22.016443" lon="103.918953">
<ele>569.055176</ele>
<time>2011-04-26T02:22:05Z</time>
<desc>lat.=22.016443, lon.=103.918953, Alt.=569.055176m. Speed=7.128000m/h.</desc>
<speed>1.980000</speed>
</trkpt>
<trkpt lat="22.016457" lon="103.919052">
<ele>569.883301</ele>
<time>2011-04-26T02:22:10Z</time>
<desc>lat.=22.016457, lon.=103.919052, Alt.=569.883301m. Speed=6.984000m/h.</desc>
<speed>1.940000</speed>
</trkpt>
<trkpt lat="22.016470" lon="103.919144">
<ele>570.492676</ele>
<time>2011-04-26T02:22:15Z</time>
<desc>lat.=22.016470, lon.=103.919144, Alt.=570.492676m. Speed=6.192000m/h.</desc>
<speed>1.720000</speed>
</trkpt>
<trkpt lat="22.016504" lon="103.919235">
<ele>570.008301</ele>
<time>2011-04-26T02:22:20Z</time>
<desc>lat.=22.016504, lon.=103.919235, Alt.=570.008301m. Speed=5.976000m/h.</desc>
<speed>1.660000</speed>
</trkpt>
<trkpt lat="22.016535" lon="103.919334">
<ele>570.430176</ele>
<time>2011-04-26T02:22:25Z</time>
<desc>lat.=22.016535, lon.=103.919334, Alt.=570.430176m. Speed=7.812000m/h.</desc>
<speed>2.170000</speed>
</trkpt>
<trkpt lat="22.016571" lon="103.919426">
<ele>570.555176</ele>
<time>2011-04-26T02:22:30Z</time>
<desc>lat.=22.016571, lon.=103.919426, Alt.=570.555176m. Speed=7.092000m/h.</desc>
<speed>1.970000</speed>
</trkpt>
<trkpt lat="22.016605" lon="103.919525">
<ele>571.117676</ele>
<time>2011-04-26T02:22:35Z</time>
<desc>lat.=22.016605, lon.=103.919525, Alt.=571.117676m. Speed=6.948000m/h.</desc>
<speed>1.930000</speed>
</trkpt>
<trkpt lat="22.016621" lon="103.919640">
<ele>572.227051</ele>
<time>2011-04-26T02:22:40Z</time>
<desc>lat.=22.016621, lon.=103.919640, Alt.=572.227051m. Speed=5.616000m/h.</desc>
<speed>1.560000</speed>
</trkpt>
<trkpt lat="22.016642" lon="103.919708">
<ele>573.383301</ele>
<time>2011-04-26T02:22:45Z</time>
<desc>lat.=22.016642, lon.=103.919708, Alt.=573.383301m. Speed=4.212000m/h.</desc>
<speed>1.170000</speed>
</trkpt>
<trkpt lat="22.016663" lon="103.919777">
<ele>573.961426</ele>
<time>2011-04-26T02:22:50Z</time>
<desc>lat.=22.016663, lon.=103.919777, Alt.=573.961426m. Speed=6.012000m/h.</desc>
<speed>1.670000</speed>
</trkpt>
<trkpt lat="22.016689" lon="103.919861">
<ele>574.914551</ele>
<time>2011-04-26T02:22:55Z</time>
<desc>lat.=22.016689, lon.=103.919861, Alt.=574.914551m. Speed=6.264000m/h.</desc>
<speed>1.740000</speed>
</trkpt>
<trkpt lat="22.016724" lon="103.919952">
<ele>575.539551</ele>
<time>2011-04-26T02:23:00Z</time>
<desc>lat.=22.016724, lon.=103.919952, Alt.=575.539551m. Speed=7.344000m/h.</desc>
<speed>2.040000</speed>
</trkpt>
<trkpt lat="22.016762" lon="103.920052">
<ele>576.164551</ele>
<time>2011-04-26T02:23:05Z</time>
<desc>lat.=22.016762, lon.=103.920052, Alt.=576.164551m. Speed=7.416000m/h.</desc>
<speed>2.060000</speed>
</trkpt>
<trkpt lat="22.016798" lon="103.920158">
<ele>575.883301</ele>
<time>2011-04-26T02:23:10Z</time>
<desc>lat.=22.016798, lon.=103.920158, Alt.=575.883301m. Speed=5.040000m/h.</desc>
<speed>1.400000</speed>
</trkpt>
<trkpt lat="22.016825" lon="103.920219">
<ele>576.133301</ele>
<time>2011-04-26T02:23:15Z</time>
<desc>lat.=22.016825, lon.=103.920219, Alt.=576.133301m. Speed=3.960000m/h.</desc>
<speed>1.100000</speed>
</trkpt>
<trkpt lat="22.016867" lon="103.920280">
<ele>576.367676</ele>
<time>2011-04-26T02:23:20Z</time>
<desc>lat.=22.016867, lon.=103.920280, Alt.=576.367676m. Speed=4.536000m/h.</desc>
<speed>1.260000</speed>
</trkpt>
<trkpt lat="22.016890" lon="103.920387">
<ele>577.273926</ele>
<time>2011-04-26T02:23:25Z</time>
<desc>lat.=22.016890, lon.=103.920387, Alt.=577.273926m. Speed=5.436000m/h.</desc>
<speed>1.510000</speed>
</trkpt>
<trkpt lat="22.016932" lon="103.920456">
<ele>578.367676</ele>
<time>2011-04-26T02:23:30Z</time>
<desc>lat.=22.016932, lon.=103.920456, Alt.=578.367676m. Speed=5.076000m/h.</desc>
<speed>1.410000</speed>
</trkpt>
<trkpt lat="22.016970" lon="103.920525">
<ele>579.070801</ele>
<time>2011-04-26T02:23:35Z</time>
<desc>lat.=22.016970, lon.=103.920525, Alt.=579.070801m. Speed=4.788000m/h.</desc>
<speed>1.330000</speed>
</trkpt>
<trkpt lat="22.017015" lon="103.920570">
<ele>580.367676</ele>
<time>2011-04-26T02:23:40Z</time>
<desc>lat.=22.017015, lon.=103.920570, Alt.=580.367676m. Speed=5.292000m/h.</desc>
<speed>1.470000</speed>
</trkpt>
<trkpt lat="22.017065" lon="103.920624">
<ele>582.477051</ele>
<time>2011-04-26T02:23:45Z</time>
<desc>lat.=22.017065, lon.=103.920624, Alt.=582.477051m. Speed=6.120000m/h.</desc>
<speed>1.700000</speed>
</trkpt>
<trkpt lat="22.017113" lon="103.920692">
<ele>584.648926</ele>
<time>2011-04-26T02:23:50Z</time>
<desc>lat.=22.017113, lon.=103.920692, Alt.=584.648926m. Speed=5.652000m/h.</desc>
<speed>1.570000</speed>
</trkpt>
<trkpt lat="22.017149" lon="103.920731">
<ele>586.680176</ele>
<time>2011-04-26T02:23:55Z</time>
<desc>lat.=22.017149, lon.=103.920731, Alt.=586.680176m. Speed=5.004000m/h.</desc>
<speed>1.390000</speed>
</trkpt>
<trkpt lat="22.017221" lon="103.920792">
<ele>587.305176</ele>
<time>2011-04-26T02:24:00Z</time>
<desc>lat.=22.017221, lon.=103.920792, Alt.=587.305176m. Speed=4.716000m/h.</desc>
<speed>1.310000</speed>
</trkpt>
<trkpt lat="22.017302" lon="103.920830">
<ele>589.086426</ele>
<time>2011-04-26T02:24:05Z</time>
<desc>lat.=22.017302, lon.=103.920830, Alt.=589.086426m. Speed=5.724000m/h.</desc>
<speed>1.590000</speed>
</trkpt>
<trkpt lat="22.017370" lon="103.920883">
<ele>590.445801</ele>
<time>2011-04-26T02:24:10Z</time>
<desc>lat.=22.017370, lon.=103.920883, Alt.=590.445801m. Speed=6.768000m/h.</desc>
<speed>1.880000</speed>
</trkpt>
<trkpt lat="22.017441" lon="103.920929">
<ele>591.383301</ele>
<time>2011-04-26T02:24:15Z</time>
<desc>lat.=22.017441, lon.=103.920929, Alt.=591.383301m. Speed=6.840000m/h.</desc>
<speed>1.900000</speed>
</trkpt>
<trkpt lat="22.017488" lon="103.920990">
<ele>592.555176</ele>
<time>2011-04-26T02:24:20Z</time>
<desc>lat.=22.017488, lon.=103.920990, Alt.=592.555176m. Speed=5.364000m/h.</desc>
<speed>1.490000</speed>
</trkpt>
<trkpt lat="22.017550" lon="103.921059">
<ele>593.242676</ele>
<time>2011-04-26T02:24:25Z</time>
<desc>lat.=22.017550, lon.=103.921059, Alt.=593.242676m. Speed=7.200000m/h.</desc>
<speed>2.000000</speed>
</trkpt>
<trkpt lat="22.017614" lon="103.921127">
<ele>593.398926</ele>
<time>2011-04-26T02:24:30Z</time>
<desc>lat.=22.017614, lon.=103.921127, Alt.=593.398926m. Speed=5.940000m/h.</desc>
<speed>1.650000</speed>
</trkpt>
<trkpt lat="22.017681" lon="103.921181">
<ele>593.602051</ele>
<time>2011-04-26T02:24:35Z</time>
<desc>lat.=22.017681, lon.=103.921181, Alt.=593.602051m. Speed=5.544000m/h.</desc>
<speed>1.540000</speed>
</trkpt>
<trkpt lat="22.017735" lon="103.921234">
<ele>593.758301</ele>
<time>2011-04-26T02:24:40Z</time>
<desc>lat.=22.017735, lon.=103.921234, Alt.=593.758301m. Speed=5.544000m/h.</desc>
<speed>1.540000</speed>
</trkpt>
<trkpt lat="22.017790" lon="103.921288">
<ele>593.477051</ele>
<time>2011-04-26T02:24:45Z</time>
<desc>lat.=22.017790, lon.=103.921288, Alt.=593.477051m. Speed=5.760000m/h.</desc>
<speed>1.600000</speed>
</trkpt>
<trkpt lat="22.017841" lon="103.921349">
<ele>594.320801</ele>
<time>2011-04-26T02:24:50Z</time>
<desc>lat.=22.017841, lon.=103.921349, Alt.=594.320801m. Speed=6.732000m/h.</desc>
<speed>1.870000</speed>
</trkpt>
<trkpt lat="22.017899" lon="103.921402">
<ele>595.352051</ele>
<time>2011-04-26T02:24:55Z</time>
<desc>lat.=22.017899, lon.=103.921402, Alt.=595.352051m. Speed=7.164000m/h.</desc>
<speed>1.990000</speed>
</trkpt>
<trkpt lat="22.017960" lon="103.921455">
<ele>596.195801</ele>
<time>2011-04-26T02:25:00Z</time>
<desc>lat.=22.017960, lon.=103.921455, Alt.=596.195801m. Speed=5.040000m/h.</desc>
<speed>1.400000</speed>
</trkpt>
<trkpt lat="22.017990" lon="103.921532">
<ele>597.852051</ele>
<time>2011-04-26T02:25:05Z</time>
<desc>lat.=22.017990, lon.=103.921532, Alt.=597.852051m. Speed=5.256000m/h.</desc>
<speed>1.460000</speed>
</trkpt>
<trkpt lat="22.018038" lon="103.921600">
<ele>597.977051</ele>
<time>2011-04-26T02:25:10Z</time>
<desc>lat.=22.018038, lon.=103.921600, Alt.=597.977051m. Speed=5.364000m/h.</desc>
<speed>1.490000</speed>
</trkpt>
<trkpt lat="22.018068" lon="103.921661">
<ele>597.852051</ele>
<time>2011-04-26T02:25:15Z</time>
<desc>lat.=22.018068, lon.=103.921661, Alt.=597.852051m. Speed=5.256000m/h.</desc>
<speed>1.460000</speed>
</trkpt>
<trkpt lat="22.018085" lon="103.921745">
<ele>598.383301</ele>
<time>2011-04-26T02:25:20Z</time>
<desc>lat.=22.018085, lon.=103.921745, Alt.=598.383301m. Speed=5.184000m/h.</desc>
<speed>1.440000</speed>
</trkpt>
<trkpt lat="22.018106" lon="103.921814">
<ele>598.773926</ele>
<time>2011-04-26T02:25:25Z</time>
<desc>lat.=22.018106, lon.=103.921814, Alt.=598.773926m. Speed=5.544000m/h.</desc>
<speed>1.540000</speed>
</trkpt>
<trkpt lat="22.018135" lon="103.921883">
<ele>599.852051</ele>
<time>2011-04-26T02:25:30Z</time>
<desc>lat.=22.018135, lon.=103.921883, Alt.=599.852051m. Speed=5.364000m/h.</desc>
<speed>1.490000</speed>
</trkpt>
<trkpt lat="22.018141" lon="103.921967">
<ele>600.508301</ele>
<time>2011-04-26T02:25:35Z</time>
<desc>lat.=22.018141, lon.=103.921967, Alt.=600.508301m. Speed=5.580000m/h.</desc>
<speed>1.550000</speed>
</trkpt>
<trkpt lat="22.018154" lon="103.922043">
<ele>601.039551</ele>
<time>2011-04-26T02:25:40Z</time>
<desc>lat.=22.018154, lon.=103.922043, Alt.=601.039551m. Speed=6.228000m/h.</desc>
<speed>1.730000</speed>
</trkpt>
<trkpt lat="22.018175" lon="103.922127">
<ele>601.695801</ele>
<time>2011-04-26T02:25:45Z</time>
<desc>lat.=22.018175, lon.=103.922127, Alt.=601.695801m. Speed=6.588000m/h.</desc>
<speed>1.830000</speed>
</trkpt>
<trkpt lat="22.018200" lon="103.922226">
<ele>602.133301</ele>
<time>2011-04-26T02:25:50Z</time>
<desc>lat.=22.018200, lon.=103.922226, Alt.=602.133301m. Speed=6.480000m/h.</desc>
<speed>1.800000</speed>
</trkpt>
<trkpt lat="22.018221" lon="103.922295">
<ele>602.336426</ele>
<time>2011-04-26T02:25:55Z</time>
<desc>lat.=22.018221, lon.=103.922295, Alt.=602.336426m. Speed=5.004000m/h.</desc>
<speed>1.390000</speed>
</trkpt>
<trkpt lat="22.018238" lon="103.922379">
<ele>602.539551</ele>
<time>2011-04-26T02:26:00Z</time>
<desc>lat.=22.018238, lon.=103.922379, Alt.=602.539551m. Speed=5.832000m/h.</desc>
<speed>1.620000</speed>
</trkpt>
<trkpt lat="22.018257" lon="103.922478">
<ele>601.945801</ele>
<time>2011-04-26T02:26:05Z</time>
<desc>lat.=22.018257, lon.=103.922478, Alt.=601.945801m. Speed=5.688000m/h.</desc>
<speed>1.580000</speed>
</trkpt>
<trkpt lat="22.018269" lon="103.922531">
<ele>601.914551</ele>
<time>2011-04-26T02:26:10Z</time>
<desc>lat.=22.018269, lon.=103.922531, Alt.=601.914551m. Speed=6.048000m/h.</desc>
<speed>1.680000</speed>
</trkpt>
<trkpt lat="22.018291" lon="103.922600">
<ele>601.898926</ele>
<time>2011-04-26T02:26:15Z</time>
<desc>lat.=22.018291, lon.=103.922600, Alt.=601.898926m. Speed=5.580000m/h.</desc>
<speed>1.550000</speed>
</trkpt>
<trkpt lat="22.018326" lon="103.922676">
<ele>601.805176</ele>
<time>2011-04-26T02:26:20Z</time>
<desc>lat.=22.018326, lon.=103.922676, Alt.=601.805176m. Speed=6.984000m/h.</desc>
<speed>1.940000</speed>
</trkpt>
<trkpt lat="22.018356" lon="103.922768">
<ele>601.648926</ele>
<time>2011-04-26T02:26:25Z</time>
<desc>lat.=22.018356, lon.=103.922768, Alt.=601.648926m. Speed=6.012000m/h.</desc>
<speed>1.670000</speed>
</trkpt>
<trkpt lat="22.018375" lon="103.922836">
<ele>601.383301</ele>
<time>2011-04-26T02:26:30Z</time>
<desc>lat.=22.018375, lon.=103.922836, Alt.=601.383301m. Speed=7.200000m/h.</desc>
<speed>2.000000</speed>
</trkpt>
<trkpt lat="22.018423" lon="103.922913">
<ele>600.992676</ele>
<time>2011-04-26T02:26:35Z</time>
<desc>lat.=22.018423, lon.=103.922913, Alt.=600.992676m. Speed=5.868000m/h.</desc>
<speed>1.630000</speed>
</trkpt>
<trkpt lat="22.018438" lon="103.922997">
<ele>600.961426</ele>
<time>2011-04-26T02:26:40Z</time>
<desc>lat.=22.018438, lon.=103.922997, Alt.=600.961426m. Speed=6.372000m/h.</desc>
<speed>1.770000</speed>
</trkpt>
<trkpt lat="22.018475" lon="103.923050">
<ele>600.867676</ele>
<time>2011-04-26T02:26:45Z</time>
<desc>lat.=22.018475, lon.=103.923050, Alt.=600.867676m. Speed=5.400000m/h.</desc>
<speed>1.500000</speed>
</trkpt>
<trkpt lat="22.018524" lon="103.923141">
<ele>600.539551</ele>
<time>2011-04-26T02:26:50Z</time>
<desc>lat.=22.018524, lon.=103.923141, Alt.=600.539551m. Speed=7.524000m/h.</desc>
<speed>2.090000</speed>
</trkpt>
<trkpt lat="22.018559" lon="103.923225">
<ele>599.602051</ele>
<time>2011-04-26T02:26:55Z</time>
<desc>lat.=22.018559, lon.=103.923225, Alt.=599.602051m. Speed=6.408000m/h.</desc>
<speed>1.780000</speed>
</trkpt>
<trkpt lat="22.018589" lon="103.923302">
<ele>599.555176</ele>
<time>2011-04-26T02:27:00Z</time>
<desc>lat.=22.018589, lon.=103.923302, Alt.=599.555176m. Speed=7.128000m/h.</desc>
<speed>1.980000</speed>
</trkpt>
<trkpt lat="22.018621" lon="103.923393">
<ele>599.961426</ele>
<time>2011-04-26T02:27:05Z</time>
<desc>lat.=22.018621, lon.=103.923393, Alt.=599.961426m. Speed=5.688000m/h.</desc>
<speed>1.580000</speed>
</trkpt>
<trkpt lat="22.018660" lon="103.923447">
<ele>600.227051</ele>
<time>2011-04-26T02:27:10Z</time>
<desc>lat.=22.018660, lon.=103.923447, Alt.=600.227051m. Speed=7.848000m/h.</desc>
<speed>2.180000</speed>
</trkpt>
<trkpt lat="22.018711" lon="103.923500">
<ele>599.914551</ele>
<time>2011-04-26T02:27:15Z</time>
<desc>lat.=22.018711, lon.=103.923500, Alt.=599.914551m. Speed=5.508000m/h.</desc>
<speed>1.530000</speed>
</trkpt>
<trkpt lat="22.018738" lon="103.923576">
<ele>599.805176</ele>
<time>2011-04-26T02:27:20Z</time>
<desc>lat.=22.018738, lon.=103.923576, Alt.=599.805176m. Speed=6.336000m/h.</desc>
<speed>1.760000</speed>
</trkpt>
<trkpt lat="22.018770" lon="103.923637">
<ele>599.492676</ele>
<time>2011-04-26T02:27:25Z</time>
<desc>lat.=22.018770, lon.=103.923637, Alt.=599.492676m. Speed=4.536000m/h.</desc>
<speed>1.260000</speed>
</trkpt>
<trkpt lat="22.018805" lon="103.923714">
<ele>599.258301</ele>
<time>2011-04-26T02:27:30Z</time>
<desc>lat.=22.018805, lon.=103.923714, Alt.=599.258301m. Speed=5.508000m/h.</desc>
<speed>1.530000</speed>
</trkpt>
<trkpt lat="22.018843" lon="103.923782">
<ele>599.508301</ele>
<time>2011-04-26T02:27:35Z</time>
<desc>lat.=22.018843, lon.=103.923782, Alt.=599.508301m. Speed=7.380000m/h.</desc>
<speed>2.050000</speed>
</trkpt>
<trkpt lat="22.018867" lon="103.923866">
<ele>599.414551</ele>
<time>2011-04-26T02:27:40Z</time>
<desc>lat.=22.018867, lon.=103.923866, Alt.=599.414551m. Speed=4.032000m/h.</desc>
<speed>1.120000</speed>
</trkpt>
<trkpt lat="22.018913" lon="103.923935">
<ele>599.508301</ele>
<time>2011-04-26T02:27:45Z</time>
<desc>lat.=22.018913, lon.=103.923935, Alt.=599.508301m. Speed=5.580000m/h.</desc>
<speed>1.550000</speed>
</trkpt>
<trkpt lat="22.018930" lon="103.923996">
<ele>598.555176</ele>
<time>2011-04-26T02:27:50Z</time>
<desc>lat.=22.018930, lon.=103.923996, Alt.=598.555176m. Speed=3.636000m/h.</desc>
<speed>1.010000</speed>
</trkpt>
<trkpt lat="22.018957" lon="103.924042">
<ele>598.305176</ele>
<time>2011-04-26T02:27:55Z</time>
<desc>lat.=22.018957, lon.=103.924042, Alt.=598.305176m. Speed=4.068000m/h.</desc>
<speed>1.130000</speed>
</trkpt>
<trkpt lat="22.018993" lon="103.924095">
<ele>598.523926</ele>
<time>2011-04-26T02:28:00Z</time>
<desc>lat.=22.018993, lon.=103.924095, Alt.=598.523926m. Speed=2.736000m/h.</desc>
<speed>0.760000</speed>
</trkpt>
<trkpt lat="22.019020" lon="103.924164">
<ele>598.992676</ele>
<time>2011-04-26T02:28:05Z</time>
<desc>lat.=22.019020, lon.=103.924164, Alt.=598.992676m. Speed=5.364000m/h.</desc>
<speed>1.490000</speed>
</trkpt>
<trkpt lat="22.019043" lon="103.924202">
<ele>599.117676</ele>
<time>2011-04-26T02:28:10Z</time>
<desc>lat.=22.019043, lon.=103.924202, Alt.=599.117676m. Speed=0.324000m/h.</desc>
<speed>0.090000</speed>
</trkpt>
<trkpt lat="22.019037" lon="103.924202">
<ele>599.117676</ele>
<time>2011-04-26T02:28:15Z</time>
<desc>lat.=22.019037, lon.=103.924202, Alt.=599.117676m. Speed=0.108000m/h.</desc>
<speed>0.030000</speed>
</trkpt>
<trkpt lat="22.019037" lon="103.924202">
<ele>599.102051</ele>
<time>2011-04-26T02:28:20Z</time>
<desc>lat.=22.019037, lon.=103.924202, Alt.=599.102051m. Speed=0.396000m/h.</desc>
<speed>0.110000</speed>
</trkpt>
<trkpt lat="22.019043" lon="103.924202">
<ele>599.070801</ele>
<time>2011-04-26T02:28:25Z</time>
<desc>lat.=22.019043, lon.=103.924202, Alt.=599.070801m. Speed=0.072000m/h.</desc>
<speed>0.020000</speed>
</trkpt>
<trkpt lat="22.019043" lon="103.924202">
<ele>599.055176</ele>
<time>2011-04-26T02:28:30Z</time>
<desc>lat.=22.019043, lon.=103.924202, Alt.=599.055176m. Speed=0.216000m/h.</desc>
<speed>0.060000</speed>
</trkpt>
<trkpt lat="22.019043" lon="103.924194">
<ele>599.039551</ele>
<time>2011-04-26T02:28:35Z</time>
<desc>lat.=22.019043, lon.=103.924194, Alt.=599.039551m. Speed=0.072000m/h.</desc>
<speed>0.020000</speed>
</trkpt>
<trkpt lat="22.019043" lon="103.924194">
<ele>599.039551</ele>
<time>2011-04-26T02:28:40Z</time>
<desc>lat.=22.019043, lon.=103.924194, Alt.=599.039551m. Speed=0.108000m/h.</desc>
<speed>0.030000</speed>
</trkpt>
<trkpt lat="22.019043" lon="103.924202">
<ele>599.039551</ele>
<time>2011-04-26T02:28:45Z</time>
<desc>lat.=22.019043, lon.=103.924202, Alt.=599.039551m. Speed=0.000000m/h.</desc>
<speed>0.000000</speed>
</trkpt>
<trkpt lat="22.019043" lon="103.924202">
<ele>599.055176</ele>
<time>2011-04-26T02:28:50Z</time>
<desc>lat.=22.019043, lon.=103.924202, Alt.=599.055176m. Speed=0.036000m/h.</desc>
<speed>0.010000</speed>
</trkpt>
<trkpt lat="22.019041" lon="103.924202">
<ele>599.055176</ele>
<time>2011-04-26T02:28:55Z</time>
<desc>lat.=22.019041, lon.=103.924202, Alt.=599.055176m. Speed=0.000000m/h.</desc>
<speed>0.000000</speed>
</trkpt>
<trkpt lat="22.019041" lon="103.924202">
<ele>599.070801</ele>
<time>2011-04-26T02:29:00Z</time>
<desc>lat.=22.019041, lon.=103.924202, Alt.=599.070801m. Speed=0.036000m/h.</desc>
<speed>0.010000</speed>
</trkpt>
<trkpt lat="22.019041" lon="103.924202">
<ele>599.070801</ele>
<time>2011-04-26T02:29:05Z</time>
<desc>lat.=22.019041, lon.=103.924202, Alt.=599.070801m. Speed=0.000000m/h.</desc>
<speed>0.000000</speed>
</trkpt>
<trkpt lat="22.019041" lon="103.924202">
<ele>599.086426</ele>
<time>2011-04-26T02:29:10Z</time>
<desc>lat.=22.019041, lon.=103.924202, Alt.=599.086426m. Speed=0.036000m/h.</desc>
<speed>0.010000</speed>
</trkpt>
<trkpt lat="22.019041" lon="103.924202">
<ele>599.086426</ele>
<time>2011-04-26T02:29:15Z</time>
<desc>lat.=22.019041, lon.=103.924202, Alt.=599.086426m. Speed=0.036000m/h.</desc>
<speed>0.010000</speed>
</trkpt>
<trkpt lat="22.019041" lon="103.924202">
<ele>599.086426</ele>
<time>2011-04-26T02:29:20Z</time>
<desc>lat.=22.019041, lon.=103.924202, Alt.=599.086426m. Speed=0.036000m/h.</desc>
<speed>0.010000</speed>
</trkpt>
<trkpt lat="22.019041" lon="103.924202">
<ele>599.086426</ele>
<time>2011-04-26T02:29:25Z</time>
<desc>lat.=22.019041, lon.=103.924202, Alt.=599.086426m. Speed=0.000000m/h.</desc>
<speed>0.000000</speed>
</trkpt>
<trkpt lat="22.019041" lon="103.924202">
<ele>599.086426</ele>
<time>2011-04-26T02:29:30Z</time>
<desc>lat.=22.019041, lon.=103.924202, Alt.=599.086426m. Speed=0.036000m/h.</desc>
<speed>0.010000</speed>
</trkpt>
<trkpt lat="22.019041" lon="103.924202">
<ele>599.086426</ele>
<time>2011-04-26T02:29:35Z</time>
<desc>lat.=22.019041, lon.=103.924202, Alt.=599.086426m. Speed=0.036000m/h.</desc>
<speed>0.010000</speed>
</trkpt>
<trkpt lat="22.019041" lon="103.924202">
<ele>599.102051</ele>
<time>2011-04-26T02:29:40Z</time>
<desc>lat.=22.019041, lon.=103.924202, Alt.=599.102051m. Speed=0.036000m/h.</desc>
<speed>0.010000</speed>
</trkpt>
<trkpt lat="22.019041" lon="103.924202">
<ele>599.102051</ele>
<time>2011-04-26T02:29:45Z</time>
<desc>lat.=22.019041, lon.=103.924202, Alt.=599.102051m. Speed=0.000000m/h.</desc>
<speed>0.000000</speed>
</trkpt>
<trkpt lat="22.019041" lon="103.924202">
<ele>599.102051</ele>
<time>2011-04-26T02:29:50Z</time>
<desc>lat.=22.019041, lon.=103.924202, Alt.=599.102051m. Speed=0.000000m/h.</desc>
<speed>0.000000</speed>
</trkpt>
<trkpt lat="22.019041" lon="103.924202">
<ele>599.102051</ele>
<time>2011-04-26T02:29:55Z</time>
<desc>lat.=22.019041, lon.=103.924202, Alt.=599.102051m. Speed=0.036000m/h.</desc>
<speed>0.010000</speed>
</trkpt>
<trkpt lat="22.019041" lon="103.924202">
<ele>599.086426</ele>
<time>2011-04-26T02:30:00Z</time>
<desc>lat.=22.019041, lon.=103.924202, Alt.=599.086426m. Speed=0.036000m/h.</desc>
<speed>0.010000</speed>
</trkpt>
<trkpt lat="22.019041" lon="103.924202">
<ele>599.086426</ele>
<time>2011-04-26T02:30:05Z</time>
<desc>lat.=22.019041, lon.=103.924202, Alt.=599.086426m. Speed=0.036000m/h.</desc>
<speed>0.010000</speed>
</trkpt>
<trkpt lat="22.019041" lon="103.924202">
<ele>599.070801</ele>
<time>2011-04-26T02:30:10Z</time>
<desc>lat.=22.019041, lon.=103.924202, Alt.=599.070801m. Speed=0.036000m/h.</desc>
<speed>0.010000</speed>
</trkpt>
<trkpt lat="22.019041" lon="103.924202">
<ele>599.070801</ele>
<time>2011-04-26T02:30:15Z</time>
<desc>lat.=22.019041, lon.=103.924202, Alt.=599.070801m. Speed=0.036000m/h.</desc>
<speed>0.010000</speed>
</trkpt>
<trkpt lat="22.019041" lon="103.924202">
<ele>599.055176</ele>
<time>2011-04-26T02:30:20Z</time>
<desc>lat.=22.019041, lon.=103.924202, Alt.=599.055176m. Speed=0.036000m/h.</desc>
<speed>0.010000</speed>
</trkpt>
<trkpt lat="22.019041" lon="103.924202">
<ele>599.055176</ele>
<time>2011-04-26T02:30:25Z</time>
<desc>lat.=22.019041, lon.=103.924202, Alt.=599.055176m. Speed=0.036000m/h.</desc>
<speed>0.010000</speed>
</trkpt>
<trkpt lat="22.019041" lon="103.924202">
<ele>599.070801</ele>
<time>2011-04-26T02:30:30Z</time>
<desc>lat.=22.019041, lon.=103.924202, Alt.=599.070801m. Speed=0.036000m/h.</desc>
<speed>0.010000</speed>
</trkpt>
<trkpt lat="22.019039" lon="103.924202">
<ele>599.086426</ele>
<time>2011-04-26T02:30:35Z</time>
<desc>lat.=22.019039, lon.=103.924202, Alt.=599.086426m. Speed=0.036000m/h.</desc>
<speed>0.010000</speed>
</trkpt>
<trkpt lat="22.019039" lon="103.924202">
<ele>599.070801</ele>
<time>2011-04-26T02:30:40Z</time>
<desc>lat.=22.019039, lon.=103.924202, Alt.=599.070801m. Speed=0.036000m/h.</desc>
<speed>0.010000</speed>
</trkpt>
<trkpt lat="22.019039" lon="103.924202">
<ele>599.086426</ele>
<time>2011-04-26T02:30:45Z</time>
<desc>lat.=22.019039, lon.=103.924202, Alt.=599.086426m. Speed=0.000000m/h.</desc>
<speed>0.000000</speed>
</trkpt>
<trkpt lat="22.019039" lon="103.924202">
<ele>599.086426</ele>
<time>2011-04-26T02:30:50Z</time>
<desc>lat.=22.019039, lon.=103.924202, Alt.=599.086426m. Speed=0.036000m/h.</desc>
<speed>0.010000</speed>
</trkpt>
<trkpt lat="22.019039" lon="103.924202">
<ele>599.086426</ele>
<time>2011-04-26T02:30:55Z</time>
<desc>lat.=22.019039, lon.=103.924202, Alt.=599.086426m. Speed=0.000000m/h.</desc>
<speed>0.000000</speed>
</trkpt>
<trkpt lat="22.019039" lon="103.924202">
<ele>599.086426</ele>
<time>2011-04-26T02:31:00Z</time>
<desc>lat.=22.019039, lon.=103.924202, Alt.=599.086426m. Speed=0.000000m/h.</desc>
<speed>0.000000</speed>
</trkpt>
<trkpt lat="22.019039" lon="103.924202">
<ele>599.086426</ele>
<time>2011-04-26T02:31:05Z</time>
<desc>lat.=22.019039, lon.=103.924202, Alt.=599.086426m. Speed=0.000000m/h.</desc>
<speed>0.000000</speed>
</trkpt>
<trkpt lat="22.019039" lon="103.924202">
<ele>599.086426</ele>
<time>2011-04-26T02:31:10Z</time>
<desc>lat.=22.019039, lon.=103.924202, Alt.=599.086426m. Speed=0.036000m/h.</desc>
<speed>0.010000</speed>
</trkpt>
<trkpt lat="22.019039" lon="103.924202">
<ele>599.086426</ele>
<time>2011-04-26T02:31:15Z</time>
<desc>lat.=22.019039, lon.=103.924202, Alt.=599.086426m. Speed=0.036000m/h.</desc>
<speed>0.010000</speed>
</trkpt>
<trkpt lat="22.019039" lon="103.924202">
<ele>599.070801</ele>
<time>2011-04-26T02:31:20Z</time>
<desc>lat.=22.019039, lon.=103.924202, Alt.=599.070801m. Speed=0.000000m/h.</desc>
<speed>0.000000</speed>
</trkpt>
<trkpt lat="22.019039" lon="103.924202">
<ele>599.070801</ele>
<time>2011-04-26T02:31:25Z</time>
<desc>lat.=22.019039, lon.=103.924202, Alt.=599.070801m. Speed=0.036000m/h.</desc>
<speed>0.010000</speed>
</trkpt>
<trkpt lat="22.019039" lon="103.924202">
<ele>599.070801</ele>
<time>2011-04-26T02:31:30Z</time>
<desc>lat.=22.019039, lon.=103.924202, Alt.=599.070801m. Speed=0.000000m/h.</desc>
<speed>0.000000</speed>
</trkpt>
<trkpt lat="22.019039" lon="103.924202">
<ele>599.086426</ele>
<time>2011-04-26T02:31:35Z</time>
<desc>lat.=22.019039, lon.=103.924202, Alt.=599.086426m. Speed=0.000000m/h.</desc>
<speed>0.000000</speed>
</trkpt>
<trkpt lat="22.019039" lon="103.924202">
<ele>599.086426</ele>
<time>2011-04-26T02:31:40Z</time>
<desc>lat.=22.019039, lon.=103.924202, Alt.=599.086426m. Speed=0.036000m/h.</desc>
<speed>0.010000</speed>
</trkpt>
<trkpt lat="22.019039" lon="103.924202">
<ele>599.086426</ele>
<time>2011-04-26T02:31:45Z</time>
<desc>lat.=22.019039, lon.=103.924202, Alt.=599.086426m. Speed=0.036000m/h.</desc>
<speed>0.010000</speed>
</trkpt>
<trkpt lat="22.019039" lon="103.924202">
<ele>599.086426</ele>
<time>2011-04-26T02:31:50Z</time>
<desc>lat.=22.019039, lon.=103.924202, Alt.=599.086426m. Speed=0.000000m/h.</desc>
<speed>0.000000</speed>
</trkpt>
<trkpt lat="22.019039" lon="103.924202">
<ele>599.086426</ele>
<time>2011-04-26T02:31:55Z</time>
<desc>lat.=22.019039, lon.=103.924202, Alt.=599.086426m. Speed=0.324000m/h.</desc>
<speed>0.090000</speed>
</trkpt>
<trkpt lat="22.019039" lon="103.924202">
<ele>599.086426</ele>
<time>2011-04-26T02:32:00Z</time>
<desc>lat.=22.019039, lon.=103.924202, Alt.=599.086426m. Speed=0.072000m/h.</desc>
<speed>0.020000</speed>
</trkpt>
<trkpt lat="22.019039" lon="103.924202">
<ele>599.086426</ele>
<time>2011-04-26T02:32:05Z</time>
<desc>lat.=22.019039, lon.=103.924202, Alt.=599.086426m. Speed=0.108000m/h.</desc>
<speed>0.030000</speed>
</trkpt>
<trkpt lat="22.019039" lon="103.924202">
<ele>599.086426</ele>
<time>2011-04-26T02:32:10Z</time>
<desc>lat.=22.019039, lon.=103.924202, Alt.=599.086426m. Speed=0.468000m/h.</desc>
<speed>0.130000</speed>
</trkpt>
<trkpt lat="22.019045" lon="103.924210">
<ele>599.102051</ele>
<time>2011-04-26T02:32:15Z</time>
<desc>lat.=22.019045, lon.=103.924210, Alt.=599.102051m. Speed=1.080000m/h.</desc>
<speed>0.300000</speed>
</trkpt>
<trkpt lat="22.019093" lon="103.924271">
<ele>599.336426</ele>
<time>2011-04-26T02:32:20Z</time>
<desc>lat.=22.019093, lon.=103.924271, Alt.=599.336426m. Speed=2.952000m/h.</desc>
<speed>0.820000</speed>
</trkpt>
<trkpt lat="22.019125" lon="103.924332">
<ele>599.789551</ele>
<time>2011-04-26T02:32:25Z</time>
<desc>lat.=22.019125, lon.=103.924332, Alt.=599.789551m. Speed=1.260000m/h.</desc>
<speed>0.350000</speed>
</trkpt>
<trkpt lat="22.019127" lon="103.924332">
<ele>599.711426</ele>
<time>2011-04-26T02:32:30Z</time>
<desc>lat.=22.019127, lon.=103.924332, Alt.=599.711426m. Speed=0.504000m/h.</desc>
<speed>0.140000</speed>
</trkpt>
<trkpt lat="22.019129" lon="103.924347">
<ele>599.742676</ele>
<time>2011-04-26T02:32:35Z</time>
<desc>lat.=22.019129, lon.=103.924347, Alt.=599.742676m. Speed=2.016000m/h.</desc>
<speed>0.560000</speed>
</trkpt>
<trkpt lat="22.019157" lon="103.924431">
<ele>599.898926</ele>
<time>2011-04-26T02:32:40Z</time>
<desc>lat.=22.019157, lon.=103.924431, Alt.=599.898926m. Speed=5.184000m/h.</desc>
<speed>1.440000</speed>
</trkpt>
<trkpt lat="22.019205" lon="103.924515">
<ele>599.977051</ele>
<time>2011-04-26T02:32:45Z</time>
<desc>lat.=22.019205, lon.=103.924515, Alt.=599.977051m. Speed=7.992000m/h.</desc>
<speed>2.220000</speed>
</trkpt>
<trkpt lat="22.019245" lon="103.924622">
<ele>600.602051</ele>
<time>2011-04-26T02:32:50Z</time>
<desc>lat.=22.019245, lon.=103.924622, Alt.=600.602051m. Speed=6.984000m/h.</desc>
<speed>1.940000</speed>
</trkpt>
<trkpt lat="22.019289" lon="103.924713">
<ele>600.977051</ele>
<time>2011-04-26T02:32:55Z</time>
<desc>lat.=22.019289, lon.=103.924713, Alt.=600.977051m. Speed=8.136000m/h.</desc>
<speed>2.260000</speed>
</trkpt>
<trkpt lat="22.019352" lon="103.924820">
<ele>601.367676</ele>
<time>2011-04-26T02:33:00Z</time>
<desc>lat.=22.019352, lon.=103.924820, Alt.=601.367676m. Speed=10.080000m/h.</desc>
<speed>2.800000</speed>
</trkpt>
<trkpt lat="22.019390" lon="103.924919">
<ele>601.633301</ele>
<time>2011-04-26T02:33:05Z</time>
<desc>lat.=22.019390, lon.=103.924919, Alt.=601.633301m. Speed=6.336000m/h.</desc>
<speed>1.760000</speed>
</trkpt>
<trkpt lat="22.019447" lon="103.925011">
<ele>601.914551</ele>
<time>2011-04-26T02:33:10Z</time>
<desc>lat.=22.019447, lon.=103.925011, Alt.=601.914551m. Speed=8.856000m/h.</desc>
<speed>2.460000</speed>
</trkpt>
<trkpt lat="22.019508" lon="103.925125">
<ele>602.008301</ele>
<time>2011-04-26T02:33:15Z</time>
<desc>lat.=22.019508, lon.=103.925125, Alt.=602.008301m. Speed=8.820000m/h.</desc>
<speed>2.450000</speed>
</trkpt>
<trkpt lat="22.019554" lon="103.925201">
<ele>601.945801</ele>
<time>2011-04-26T02:33:20Z</time>
<desc>lat.=22.019554, lon.=103.925201, Alt.=601.945801m. Speed=7.524000m/h.</desc>
<speed>2.090000</speed>
</trkpt>
<trkpt lat="22.019617" lon="103.925301">
<ele>601.648926</ele>
<time>2011-04-26T02:33:25Z</time>
<desc>lat.=22.019617, lon.=103.925301, Alt.=601.648926m. Speed=8.568000m/h.</desc>
<speed>2.380000</speed>
</trkpt>
<trkpt lat="22.019667" lon="103.925400">
<ele>601.367676</ele>
<time>2011-04-26T02:33:30Z</time>
<desc>lat.=22.019667, lon.=103.925400, Alt.=601.367676m. Speed=9.432000m/h.</desc>
<speed>2.620000</speed>
</trkpt>
<trkpt lat="22.019705" lon="103.925507">
<ele>601.367676</ele>
<time>2011-04-26T02:33:35Z</time>
<desc>lat.=22.019705, lon.=103.925507, Alt.=601.367676m. Speed=7.956000m/h.</desc>
<speed>2.210000</speed>
</trkpt>
<trkpt lat="22.019762" lon="103.925613">
<ele>601.336426</ele>
<time>2011-04-26T02:33:40Z</time>
<desc>lat.=22.019762, lon.=103.925613, Alt.=601.336426m. Speed=8.640000m/h.</desc>
<speed>2.400000</speed>
</trkpt>
<trkpt lat="22.019817" lon="103.925720">
<ele>601.180176</ele>
<time>2011-04-26T02:33:45Z</time>
<desc>lat.=22.019817, lon.=103.925720, Alt.=601.180176m. Speed=9.252000m/h.</desc>
<speed>2.570000</speed>
</trkpt>
<trkpt lat="22.019855" lon="103.925842">
<ele>601.227051</ele>
<time>2011-04-26T02:33:50Z</time>
<desc>lat.=22.019855, lon.=103.925842, Alt.=601.227051m. Speed=5.976000m/h.</desc>
<speed>1.660000</speed>
</trkpt>
<trkpt lat="22.019890" lon="103.925941">
<ele>601.117676</ele>
<time>2011-04-26T02:33:55Z</time>
<desc>lat.=22.019890, lon.=103.925941, Alt.=601.117676m. Speed=7.596000m/h.</desc>
<speed>2.110000</speed>
</trkpt>
<trkpt lat="22.019938" lon="103.926041">
<ele>601.227051</ele>
<time>2011-04-26T02:34:00Z</time>
<desc>lat.=22.019938, lon.=103.926041, Alt.=601.227051m. Speed=7.740000m/h.</desc>
<speed>2.150000</speed>
</trkpt>
<trkpt lat="22.019972" lon="103.926147">
<ele>600.648926</ele>
<time>2011-04-26T02:34:05Z</time>
<desc>lat.=22.019972, lon.=103.926147, Alt.=600.648926m. Speed=6.480000m/h.</desc>
<speed>1.800000</speed>
</trkpt>
<trkpt lat="22.020000" lon="103.926247">
<ele>600.195801</ele>
<time>2011-04-26T02:34:10Z</time>
<desc>lat.=22.020000, lon.=103.926247, Alt.=600.195801m. Speed=6.804000m/h.</desc>
<speed>1.890000</speed>
</trkpt>
<trkpt lat="22.020012" lon="103.926315">
<ele>600.227051</ele>
<time>2011-04-26T02:34:15Z</time>
<desc>lat.=22.020012, lon.=103.926315, Alt.=600.227051m. Speed=6.192000m/h.</desc>
<speed>1.720000</speed>
</trkpt>
<trkpt lat="22.020042" lon="103.926392">
<ele>600.086426</ele>
<time>2011-04-26T02:34:20Z</time>
<desc>lat.=22.020042, lon.=103.926392, Alt.=600.086426m. Speed=6.084000m/h.</desc>
<speed>1.690000</speed>
</trkpt>
<trkpt lat="22.020075" lon="103.926483">
<ele>599.633301</ele>
<time>2011-04-26T02:34:25Z</time>
<desc>lat.=22.020075, lon.=103.926483, Alt.=599.633301m. Speed=5.796000m/h.</desc>
<speed>1.610000</speed>
</trkpt>
<trkpt lat="22.020102" lon="103.926567">
<ele>599.086426</ele>
<time>2011-04-26T02:34:30Z</time>
<desc>lat.=22.020102, lon.=103.926567, Alt.=599.086426m. Speed=7.272000m/h.</desc>
<speed>2.020000</speed>
</trkpt>
<trkpt lat="22.020128" lon="103.926659">
<ele>598.914551</ele>
<time>2011-04-26T02:34:35Z</time>
<desc>lat.=22.020128, lon.=103.926659, Alt.=598.914551m. Speed=6.084000m/h.</desc>
<speed>1.690000</speed>
</trkpt>
<trkpt lat="22.020163" lon="103.926750">
<ele>599.055176</ele>
<time>2011-04-26T02:34:40Z</time>
<desc>lat.=22.020163, lon.=103.926750, Alt.=599.055176m. Speed=5.508000m/h.</desc>
<speed>1.530000</speed>
</trkpt>
<trkpt lat="22.020210" lon="103.926834">
<ele>599.070801</ele>
<time>2011-04-26T02:34:45Z</time>
<desc>lat.=22.020210, lon.=103.926834, Alt.=599.070801m. Speed=7.056000m/h.</desc>
<speed>1.960000</speed>
</trkpt>
<trkpt lat="22.020260" lon="103.926933">
<ele>598.789551</ele>
<time>2011-04-26T02:34:50Z</time>
<desc>lat.=22.020260, lon.=103.926933, Alt.=598.789551m. Speed=7.380000m/h.</desc>
<speed>2.050000</speed>
</trkpt>
<trkpt lat="22.020311" lon="103.927032">
<ele>599.102051</ele>
<time>2011-04-26T02:34:55Z</time>
<desc>lat.=22.020311, lon.=103.927032, Alt.=599.102051m. Speed=5.436000m/h.</desc>
<speed>1.510000</speed>
</trkpt>
<trkpt lat="22.020367" lon="103.927116">
<ele>599.758301</ele>
<time>2011-04-26T02:35:00Z</time>
<desc>lat.=22.020367, lon.=103.927116, Alt.=599.758301m. Speed=8.028000m/h.</desc>
<speed>2.230000</speed>
</trkpt>
<trkpt lat="22.020454" lon="103.927216">
<ele>600.289551</ele>
<time>2011-04-26T02:35:05Z</time>
<desc>lat.=22.020454, lon.=103.927216, Alt.=600.289551m. Speed=7.092000m/h.</desc>
<speed>1.970000</speed>
</trkpt>
<trkpt lat="22.020508" lon="103.927277">
<ele>600.758301</ele>
<time>2011-04-26T02:35:10Z</time>
<desc>lat.=22.020508, lon.=103.927277, Alt.=600.758301m. Speed=4.032000m/h.</desc>
<speed>1.120000</speed>
</trkpt>
<trkpt lat="22.020586" lon="103.927353">
<ele>601.086426</ele>
<time>2011-04-26T02:35:15Z</time>
<desc>lat.=22.020586, lon.=103.927353, Alt.=601.086426m. Speed=5.796000m/h.</desc>
<speed>1.610000</speed>
</trkpt>
<trkpt lat="22.020662" lon="103.927444">
<ele>602.102051</ele>
<time>2011-04-26T02:35:20Z</time>
<desc>lat.=22.020662, lon.=103.927444, Alt.=602.102051m. Speed=8.064000m/h.</desc>
<speed>2.240000</speed>
</trkpt>
<trkpt lat="22.020752" lon="103.927544">
<ele>602.383301</ele>
<time>2011-04-26T02:35:25Z</time>
<desc>lat.=22.020752, lon.=103.927544, Alt.=602.383301m. Speed=9.036000m/h.</desc>
<speed>2.510000</speed>
</trkpt>
<trkpt lat="22.020813" lon="103.927658">
<ele>603.055176</ele>
<time>2011-04-26T02:35:30Z</time>
<desc>lat.=22.020813, lon.=103.927658, Alt.=603.055176m. Speed=8.424000m/h.</desc>
<speed>2.340000</speed>
</trkpt>
<trkpt lat="22.020870" lon="103.927742">
<ele>603.273926</ele>
<time>2011-04-26T02:35:35Z</time>
<desc>lat.=22.020870, lon.=103.927742, Alt.=603.273926m. Speed=7.884000m/h.</desc>
<speed>2.190000</speed>
</trkpt>
<trkpt lat="22.020933" lon="103.927834">
<ele>603.523926</ele>
<time>2011-04-26T02:35:40Z</time>
<desc>lat.=22.020933, lon.=103.927834, Alt.=603.523926m. Speed=7.452000m/h.</desc>
<speed>2.070000</speed>
</trkpt>
<trkpt lat="22.020975" lon="103.927910">
<ele>604.258301</ele>
<time>2011-04-26T02:35:45Z</time>
<desc>lat.=22.020975, lon.=103.927910, Alt.=604.258301m. Speed=6.408000m/h.</desc>
<speed>1.780000</speed>
</trkpt>
<trkpt lat="22.021027" lon="103.928024">
<ele>604.367676</ele>
<time>2011-04-26T02:35:50Z</time>
<desc>lat.=22.021027, lon.=103.928024, Alt.=604.367676m. Speed=7.884000m/h.</desc>
<speed>2.190000</speed>
</trkpt>
<trkpt lat="22.021080" lon="103.928116">
<ele>604.633301</ele>
<time>2011-04-26T02:35:55Z</time>
<desc>lat.=22.021080, lon.=103.928116, Alt.=604.633301m. Speed=7.776000m/h.</desc>
<speed>2.160000</speed>
</trkpt>
<trkpt lat="22.021124" lon="103.928223">
<ele>605.023926</ele>
<time>2011-04-26T02:36:00Z</time>
<desc>lat.=22.021124, lon.=103.928223, Alt.=605.023926m. Speed=6.876000m/h.</desc>
<speed>1.910000</speed>
</trkpt>
<trkpt lat="22.021160" lon="103.928329">
<ele>605.930176</ele>
<time>2011-04-26T02:36:05Z</time>
<desc>lat.=22.021160, lon.=103.928329, Alt.=605.930176m. Speed=8.604000m/h.</desc>
<speed>2.390000</speed>
</trkpt>
<trkpt lat="22.021221" lon="103.928406">
<ele>606.914551</ele>
<time>2011-04-26T02:36:10Z</time>
<desc>lat.=22.021221, lon.=103.928406, Alt.=606.914551m. Speed=6.876000m/h.</desc>
<speed>1.910000</speed>
</trkpt>
<trkpt lat="22.021280" lon="103.928467">
<ele>607.773926</ele>
<time>2011-04-26T02:36:15Z</time>
<desc>lat.=22.021280, lon.=103.928467, Alt.=607.773926m. Speed=4.248000m/h.</desc>
<speed>1.180000</speed>
</trkpt>
<trkpt lat="22.021303" lon="103.928535">
<ele>608.977051</ele>
<time>2011-04-26T02:36:20Z</time>
<desc>lat.=22.021303, lon.=103.928535, Alt.=608.977051m. Speed=5.616000m/h.</desc>
<speed>1.560000</speed>
</trkpt>
<trkpt lat="22.021345" lon="103.928604">
<ele>609.742676</ele>
<time>2011-04-26T02:36:25Z</time>
<desc>lat.=22.021345, lon.=103.928604, Alt.=609.742676m. Speed=4.752000m/h.</desc>
<speed>1.320000</speed>
</trkpt>
<trkpt lat="22.021387" lon="103.928673">
<ele>610.383301</ele>
<time>2011-04-26T02:36:30Z</time>
<desc>lat.=22.021387, lon.=103.928673, Alt.=610.383301m. Speed=5.328000m/h.</desc>
<speed>1.480000</speed>
</trkpt>
<trkpt lat="22.021429" lon="103.928741">
<ele>610.555176</ele>
<time>2011-04-26T02:36:35Z</time>
<desc>lat.=22.021429, lon.=103.928741, Alt.=610.555176m. Speed=4.824000m/h.</desc>
<speed>1.340000</speed>
</trkpt>
<trkpt lat="22.021456" lon="103.928802">
<ele>611.445801</ele>
<time>2011-04-26T02:36:40Z</time>
<desc>lat.=22.021456, lon.=103.928802, Alt.=611.445801m. Speed=6.192000m/h.</desc>
<speed>1.720000</speed>
</trkpt>
<trkpt lat="22.021473" lon="103.928886">
<ele>611.602051</ele>
<time>2011-04-26T02:36:45Z</time>
<desc>lat.=22.021473, lon.=103.928886, Alt.=611.602051m. Speed=5.256000m/h.</desc>
<speed>1.460000</speed>
</trkpt>
<trkpt lat="22.021490" lon="103.928978">
<ele>611.883301</ele>
<time>2011-04-26T02:36:50Z</time>
<desc>lat.=22.021490, lon.=103.928978, Alt.=611.883301m. Speed=4.248000m/h.</desc>
<speed>1.180000</speed>
</trkpt>
<trkpt lat="22.021502" lon="103.929062">
<ele>613.227051</ele>
<time>2011-04-26T02:36:55Z</time>
<desc>lat.=22.021502, lon.=103.929062, Alt.=613.227051m. Speed=4.752000m/h.</desc>
<speed>1.320000</speed>
</trkpt>
<trkpt lat="22.021509" lon="103.929138">
<ele>614.258301</ele>
<time>2011-04-26T02:37:00Z</time>
<desc>lat.=22.021509, lon.=103.929138, Alt.=614.258301m. Speed=5.760000m/h.</desc>
<speed>1.600000</speed>
</trkpt>
<trkpt lat="22.021523" lon="103.929222">
<ele>615.195801</ele>
<time>2011-04-26T02:37:05Z</time>
<desc>lat.=22.021523, lon.=103.929222, Alt.=615.195801m. Speed=6.048000m/h.</desc>
<speed>1.680000</speed>
</trkpt>
<trkpt lat="22.021542" lon="103.929314">
<ele>615.445801</ele>
<time>2011-04-26T02:37:10Z</time>
<desc>lat.=22.021542, lon.=103.929314, Alt.=615.445801m. Speed=4.032000m/h.</desc>
<speed>1.120000</speed>
</trkpt>
<trkpt lat="22.021563" lon="103.929382">
<ele>616.258301</ele>
<time>2011-04-26T02:37:15Z</time>
<desc>lat.=22.021563, lon.=103.929382, Alt.=616.258301m. Speed=3.600000m/h.</desc>
<speed>1.000000</speed>
</trkpt>
<trkpt lat="22.021574" lon="103.929443">
<ele>616.977051</ele>
<time>2011-04-26T02:37:20Z</time>
<desc>lat.=22.021574, lon.=103.929443, Alt.=616.977051m. Speed=5.724000m/h.</desc>
<speed>1.590000</speed>
</trkpt>
<trkpt lat="22.021597" lon="103.929497">
<ele>618.180176</ele>
<time>2011-04-26T02:37:25Z</time>
<desc>lat.=22.021597, lon.=103.929497, Alt.=618.180176m. Speed=5.292000m/h.</desc>
<speed>1.470000</speed>
</trkpt>
<trkpt lat="22.021610" lon="103.929573">
<ele>618.570801</ele>
<time>2011-04-26T02:37:30Z</time>
<desc>lat.=22.021610, lon.=103.929573, Alt.=618.570801m. Speed=5.148000m/h.</desc>
<speed>1.430000</speed>
</trkpt>
<trkpt lat="22.021620" lon="103.929642">
<ele>619.445801</ele>
<time>2011-04-26T02:37:35Z</time>
<desc>lat.=22.021620, lon.=103.929642, Alt.=619.445801m. Speed=4.284000m/h.</desc>
<speed>1.190000</speed>
</trkpt>
<trkpt lat="22.021635" lon="103.929718">
<ele>620.086426</ele>
<time>2011-04-26T02:37:40Z</time>
<desc>lat.=22.021635, lon.=103.929718, Alt.=620.086426m. Speed=0.612000m/h.</desc>
<speed>0.170000</speed>
</trkpt>
<trkpt lat="22.021637" lon="103.929741">
<ele>619.867676</ele>
<time>2011-04-26T02:37:45Z</time>
<desc>lat.=22.021637, lon.=103.929741, Alt.=619.867676m. Speed=0.396000m/h.</desc>
<speed>0.110000</speed>
</trkpt>
<trkpt lat="22.021643" lon="103.929779">
<ele>619.055176</ele>
<time>2011-04-26T02:37:50Z</time>
<desc>lat.=22.021643, lon.=103.929779, Alt.=619.055176m. Speed=3.600000m/h.</desc>
<speed>1.000000</speed>
</trkpt>
<trkpt lat="22.021648" lon="103.929855">
<ele>619.008301</ele>
<time>2011-04-26T02:37:55Z</time>
<desc>lat.=22.021648, lon.=103.929855, Alt.=619.008301m. Speed=5.292000m/h.</desc>
<speed>1.470000</speed>
</trkpt>
<trkpt lat="22.021658" lon="103.929932">
<ele>621.023926</ele>
<time>2011-04-26T02:38:00Z</time>
<desc>lat.=22.021658, lon.=103.929932, Alt.=621.023926m. Speed=5.868000m/h.</desc>
<speed>1.630000</speed>
</trkpt>
<trkpt lat="22.021671" lon="103.930016">
<ele>622.008301</ele>
<time>2011-04-26T02:38:05Z</time>
<desc>lat.=22.021671, lon.=103.930016, Alt.=622.008301m. Speed=6.660000m/h.</desc>
<speed>1.850000</speed>
</trkpt>
<trkpt lat="22.021708" lon="103.930099">
<ele>620.992676</ele>
<time>2011-04-26T02:38:10Z</time>
<desc>lat.=22.021708, lon.=103.930099, Alt.=620.992676m. Speed=5.868000m/h.</desc>
<speed>1.630000</speed>
</trkpt>
<trkpt lat="22.021721" lon="103.930199">
<ele>621.383301</ele>
<time>2011-04-26T02:38:15Z</time>
<desc>lat.=22.021721, lon.=103.930199, Alt.=621.383301m. Speed=5.760000m/h.</desc>
<speed>1.600000</speed>
</trkpt>
<trkpt lat="22.021732" lon="103.930275">
<ele>621.773926</ele>
<time>2011-04-26T02:38:20Z</time>
<desc>lat.=22.021732, lon.=103.930275, Alt.=621.773926m. Speed=5.904000m/h.</desc>
<speed>1.640000</speed>
</trkpt>
<trkpt lat="22.021755" lon="103.930367">
<ele>621.945801</ele>
<time>2011-04-26T02:38:25Z</time>
<desc>lat.=22.021755, lon.=103.930367, Alt.=621.945801m. Speed=5.652000m/h.</desc>
<speed>1.570000</speed>
</trkpt>
<trkpt lat="22.021765" lon="103.930450">
<ele>622.602051</ele>
<time>2011-04-26T02:38:30Z</time>
<desc>lat.=22.021765, lon.=103.930450, Alt.=622.602051m. Speed=6.048000m/h.</desc>
<speed>1.680000</speed>
</trkpt>
<trkpt lat="22.021761" lon="103.930489">
<ele>623.602051</ele>
<time>2011-04-26T02:38:35Z</time>
<desc>lat.=22.021761, lon.=103.930489, Alt.=623.602051m. Speed=1.872000m/h.</desc>
<speed>0.520000</speed>
</trkpt>
<trkpt lat="22.021755" lon="103.930481">
<ele>624.055176</ele>
<time>2011-04-26T02:38:40Z</time>
<desc>lat.=22.021755, lon.=103.930481, Alt.=624.055176m. Speed=0.180000m/h.</desc>
<speed>0.050000</speed>
</trkpt>
<trkpt lat="22.021742" lon="103.930466">
<ele>625.711426</ele>
<time>2011-04-26T02:38:45Z</time>
<desc>lat.=22.021742, lon.=103.930466, Alt.=625.711426m. Speed=0.072000m/h.</desc>
<speed>0.020000</speed>
</trkpt>
<trkpt lat="22.021740" lon="103.930466">
<ele>625.586426</ele>
<time>2011-04-26T02:38:50Z</time>
<desc>lat.=22.021740, lon.=103.930466, Alt.=625.586426m. Speed=0.180000m/h.</desc>
<speed>0.050000</speed>
</trkpt>
<trkpt lat="22.021736" lon="103.930466">
<ele>625.695801</ele>
<time>2011-04-26T02:38:55Z</time>
<desc>lat.=22.021736, lon.=103.930466, Alt.=625.695801m. Speed=0.180000m/h.</desc>
<speed>0.050000</speed>
</trkpt>
<trkpt lat="22.021730" lon="103.930466">
<ele>625.945801</ele>
<time>2011-04-26T02:39:00Z</time>
<desc>lat.=22.021730, lon.=103.930466, Alt.=625.945801m. Speed=0.144000m/h.</desc>
<speed>0.040000</speed>
</trkpt>
<trkpt lat="22.021725" lon="103.930466">
<ele>626.039551</ele>
<time>2011-04-26T02:39:05Z</time>
<desc>lat.=22.021725, lon.=103.930466, Alt.=626.039551m. Speed=0.216000m/h.</desc>
<speed>0.060000</speed>
</trkpt>
<trkpt lat="22.021727" lon="103.930466">
<ele>626.023926</ele>
<time>2011-04-26T02:39:10Z</time>
<desc>lat.=22.021727, lon.=103.930466, Alt.=626.023926m. Speed=0.072000m/h.</desc>
<speed>0.020000</speed>
</trkpt>
<trkpt lat="22.021721" lon="103.930466">
<ele>626.352051</ele>
<time>2011-04-26T02:39:15Z</time>
<desc>lat.=22.021721, lon.=103.930466, Alt.=626.352051m. Speed=0.180000m/h.</desc>
<speed>0.050000</speed>
</trkpt>
<trkpt lat="22.021717" lon="103.930473">
<ele>626.398926</ele>
<time>2011-04-26T02:39:20Z</time>
<desc>lat.=22.021717, lon.=103.930473, Alt.=626.398926m. Speed=0.216000m/h.</desc>
<speed>0.060000</speed>
</trkpt>
<trkpt lat="22.021730" lon="103.930489">
<ele>626.477051</ele>
<time>2011-04-26T02:39:25Z</time>
<desc>lat.=22.021730, lon.=103.930489, Alt.=626.477051m. Speed=1.656000m/h.</desc>
<speed>0.460000</speed>
</trkpt>
<trkpt lat="22.021749" lon="103.930603">
<ele>626.383301</ele>
<time>2011-04-26T02:39:30Z</time>
<desc>lat.=22.021749, lon.=103.930603, Alt.=626.383301m. Speed=4.788000m/h.</desc>
<speed>1.330000</speed>
</trkpt>
<trkpt lat="22.021759" lon="103.930710">
<ele>626.648926</ele>
<time>2011-04-26T02:39:35Z</time>
<desc>lat.=22.021759, lon.=103.930710, Alt.=626.648926m. Speed=6.156000m/h.</desc>
<speed>1.710000</speed>
</trkpt>
<trkpt lat="22.021799" lon="103.930809">
<ele>627.555176</ele>
<time>2011-04-26T02:39:40Z</time>
<desc>lat.=22.021799, lon.=103.930809, Alt.=627.555176m. Speed=7.956000m/h.</desc>
<speed>2.210000</speed>
</trkpt>
<trkpt lat="22.021822" lon="103.930908">
<ele>627.977051</ele>
<time>2011-04-26T02:39:45Z</time>
<desc>lat.=22.021822, lon.=103.930908, Alt.=627.977051m. Speed=6.948000m/h.</desc>
<speed>1.930000</speed>
</trkpt>
<trkpt lat="22.021847" lon="103.931015">
<ele>628.430176</ele>
<time>2011-04-26T02:39:50Z</time>
<desc>lat.=22.021847, lon.=103.931015, Alt.=628.430176m. Speed=6.984000m/h.</desc>
<speed>1.940000</speed>
</trkpt>
<trkpt lat="22.021870" lon="103.931107">
<ele>628.867676</ele>
<time>2011-04-26T02:39:55Z</time>
<desc>lat.=22.021870, lon.=103.931107, Alt.=628.867676m. Speed=7.380000m/h.</desc>
<speed>2.050000</speed>
</trkpt>
<trkpt lat="22.021894" lon="103.931198">
<ele>629.352051</ele>
<time>2011-04-26T02:40:00Z</time>
<desc>lat.=22.021894, lon.=103.931198, Alt.=629.352051m. Speed=6.516000m/h.</desc>
<speed>1.810000</speed>
</trkpt>
<trkpt lat="22.021915" lon="103.931290">
<ele>629.945801</ele>
<time>2011-04-26T02:40:05Z</time>
<desc>lat.=22.021915, lon.=103.931290, Alt.=629.945801m. Speed=8.100000m/h.</desc>
<speed>2.250000</speed>
</trkpt>
<trkpt lat="22.021935" lon="103.931412">
<ele>630.430176</ele>
<time>2011-04-26T02:40:10Z</time>
<desc>lat.=22.021935, lon.=103.931412, Alt.=630.430176m. Speed=8.100000m/h.</desc>
<speed>2.250000</speed>
</trkpt>
<trkpt lat="22.021961" lon="103.931519">
<ele>630.055176</ele>
<time>2011-04-26T02:40:15Z</time>
<desc>lat.=22.021961, lon.=103.931519, Alt.=630.055176m. Speed=7.452000m/h.</desc>
<speed>2.070000</speed>
</trkpt>
<trkpt lat="22.021978" lon="103.931610">
<ele>630.492676</ele>
<time>2011-04-26T02:40:20Z</time>
<desc>lat.=22.021978, lon.=103.931610, Alt.=630.492676m. Speed=8.064000m/h.</desc>
<speed>2.240000</speed>
</trkpt>
<trkpt lat="22.021994" lon="103.931702">
<ele>631.102051</ele>
<time>2011-04-26T02:40:25Z</time>
<desc>lat.=22.021994, lon.=103.931702, Alt.=631.102051m. Speed=7.596000m/h.</desc>
<speed>2.110000</speed>
</trkpt>
<trkpt lat="22.022007" lon="103.931801">
<ele>631.383301</ele>
<time>2011-04-26T02:40:30Z</time>
<desc>lat.=22.022007, lon.=103.931801, Alt.=631.383301m. Speed=7.668000m/h.</desc>
<speed>2.130000</speed>
</trkpt>
<trkpt lat="22.022020" lon="103.931908">
<ele>631.383301</ele>
<time>2011-04-26T02:40:35Z</time>
<desc>lat.=22.022020, lon.=103.931908, Alt.=631.383301m. Speed=8.136000m/h.</desc>
<speed>2.260000</speed>
</trkpt>
<trkpt lat="22.022045" lon="103.932007">
<ele>630.680176</ele>
<time>2011-04-26T02:40:40Z</time>
<desc>lat.=22.022045, lon.=103.932007, Alt.=630.680176m. Speed=7.164000m/h.</desc>
<speed>1.990000</speed>
</trkpt>
<trkpt lat="22.022060" lon="103.932106">
<ele>631.039551</ele>
<time>2011-04-26T02:40:45Z</time>
<desc>lat.=22.022060, lon.=103.932106, Alt.=631.039551m. Speed=7.956000m/h.</desc>
<speed>2.210000</speed>
</trkpt>
<trkpt lat="22.022078" lon="103.932205">
<ele>631.117676</ele>
<time>2011-04-26T02:40:50Z</time>
<desc>lat.=22.022078, lon.=103.932205, Alt.=631.117676m. Speed=6.876000m/h.</desc>
<speed>1.910000</speed>
</trkpt>
<trkpt lat="22.022099" lon="103.932304">
<ele>631.086426</ele>
<time>2011-04-26T02:40:55Z</time>
<desc>lat.=22.022099, lon.=103.932304, Alt.=631.086426m. Speed=7.092000m/h.</desc>
<speed>1.970000</speed>
</trkpt>
<trkpt lat="22.022135" lon="103.932411">
<ele>630.711426</ele>
<time>2011-04-26T02:41:00Z</time>
<desc>lat.=22.022135, lon.=103.932411, Alt.=630.711426m. Speed=7.452000m/h.</desc>
<speed>2.070000</speed>
</trkpt>
<trkpt lat="22.022139" lon="103.932510">
<ele>630.867676</ele>
<time>2011-04-26T02:41:05Z</time>
<desc>lat.=22.022139, lon.=103.932510, Alt.=630.867676m. Speed=7.200000m/h.</desc>
<speed>2.000000</speed>
</trkpt>
<trkpt lat="22.022152" lon="103.932610">
<ele>630.742676</ele>
<time>2011-04-26T02:41:10Z</time>
<desc>lat.=22.022152, lon.=103.932610, Alt.=630.742676m. Speed=5.868000m/h.</desc>
<speed>1.630000</speed>
</trkpt>
<trkpt lat="22.022158" lon="103.932655">
<ele>631.148926</ele>
<time>2011-04-26T02:41:15Z</time>
<desc>lat.=22.022158, lon.=103.932655, Alt.=631.148926m. Speed=0.756000m/h.</desc>
<speed>0.210000</speed>
</trkpt>
<trkpt lat="22.022154" lon="103.932655">
<ele>631.086426</ele>
<time>2011-04-26T02:41:20Z</time>
<desc>lat.=22.022154, lon.=103.932655, Alt.=631.086426m. Speed=0.360000m/h.</desc>
<speed>0.100000</speed>
</trkpt>
<trkpt lat="22.022150" lon="103.932648">
<ele>631.023926</ele>
<time>2011-04-26T02:41:25Z</time>
<desc>lat.=22.022150, lon.=103.932648, Alt.=631.023926m. Speed=0.144000m/h.</desc>
<speed>0.040000</speed>
</trkpt>
<trkpt lat="22.022148" lon="103.932648">
<ele>631.055176</ele>
<time>2011-04-26T02:41:30Z</time>
<desc>lat.=22.022148, lon.=103.932648, Alt.=631.055176m. Speed=0.072000m/h.</desc>
<speed>0.020000</speed>
</trkpt>
<trkpt lat="22.022146" lon="103.932648">
<ele>630.852051</ele>
<time>2011-04-26T02:41:35Z</time>
<desc>lat.=22.022146, lon.=103.932648, Alt.=630.852051m. Speed=0.144000m/h.</desc>
<speed>0.040000</speed>
</trkpt>
<trkpt lat="22.022141" lon="103.932655">
<ele>630.758301</ele>
<time>2011-04-26T02:41:40Z</time>
<desc>lat.=22.022141, lon.=103.932655, Alt.=630.758301m. Speed=0.144000m/h.</desc>
<speed>0.040000</speed>
</trkpt>
<trkpt lat="22.022135" lon="103.932678">
<ele>630.914551</ele>
<time>2011-04-26T02:41:45Z</time>
<desc>lat.=22.022135, lon.=103.932678, Alt.=630.914551m. Speed=0.252000m/h.</desc>
<speed>0.070000</speed>
</trkpt>
<trkpt lat="22.022148" lon="103.932762">
<ele>631.258301</ele>
<time>2011-04-26T02:41:50Z</time>
<desc>lat.=22.022148, lon.=103.932762, Alt.=631.258301m. Speed=4.392000m/h.</desc>
<speed>1.220000</speed>
</trkpt>
<trkpt lat="22.022175" lon="103.932877">
<ele>631.773926</ele>
<time>2011-04-26T02:41:55Z</time>
<desc>lat.=22.022175, lon.=103.932877, Alt.=631.773926m. Speed=8.028000m/h.</desc>
<speed>2.230000</speed>
</trkpt>
<trkpt lat="22.022219" lon="103.932991">
<ele>632.539551</ele>
<time>2011-04-26T02:42:00Z</time>
<desc>lat.=22.022219, lon.=103.932991, Alt.=632.539551m. Speed=8.928000m/h.</desc>
<speed>2.480000</speed>
</trkpt>
<trkpt lat="22.022282" lon="103.933105">
<ele>633.492676</ele>
<time>2011-04-26T02:42:05Z</time>
<desc>lat.=22.022282, lon.=103.933105, Alt.=633.492676m. Speed=9.936000m/h.</desc>
<speed>2.760000</speed>
</trkpt>
<trkpt lat="22.022346" lon="103.933220">
<ele>634.680176</ele>
<time>2011-04-26T02:42:10Z</time>
<desc>lat.=22.022346, lon.=103.933220, Alt.=634.680176m. Speed=9.216000m/h.</desc>
<speed>2.560000</speed>
</trkpt>
<trkpt lat="22.022423" lon="103.933334">
<ele>636.273926</ele>
<time>2011-04-26T02:42:15Z</time>
<desc>lat.=22.022423, lon.=103.933334, Alt.=636.273926m. Speed=8.172000m/h.</desc>
<speed>2.270000</speed>
</trkpt>
<trkpt lat="22.022518" lon="103.933426">
<ele>637.977051</ele>
<time>2011-04-26T02:42:20Z</time>
<desc>lat.=22.022518, lon.=103.933426, Alt.=637.977051m. Speed=8.280000m/h.</desc>
<speed>2.300000</speed>
</trkpt>
<trkpt lat="22.022594" lon="103.933517">
<ele>639.055176</ele>
<time>2011-04-26T02:42:25Z</time>
<desc>lat.=22.022594, lon.=103.933517, Alt.=639.055176m. Speed=6.948000m/h.</desc>
<speed>1.930000</speed>
</trkpt>
<trkpt lat="22.022659" lon="103.933609">
<ele>639.867676</ele>
<time>2011-04-26T02:42:30Z</time>
<desc>lat.=22.022659, lon.=103.933609, Alt.=639.867676m. Speed=7.740000m/h.</desc>
<speed>2.150000</speed>
</trkpt>
<trkpt lat="22.022745" lon="103.933685">
<ele>641.102051</ele>
<time>2011-04-26T02:42:35Z</time>
<desc>lat.=22.022745, lon.=103.933685, Alt.=641.102051m. Speed=7.452000m/h.</desc>
<speed>2.070000</speed>
</trkpt>
<trkpt lat="22.022818" lon="103.933731">
<ele>642.273926</ele>
<time>2011-04-26T02:42:40Z</time>
<desc>lat.=22.022818, lon.=103.933731, Alt.=642.273926m. Speed=6.228000m/h.</desc>
<speed>1.730000</speed>
</trkpt>
<trkpt lat="22.022896" lon="103.933754">
<ele>643.273926</ele>
<time>2011-04-26T02:42:45Z</time>
<desc>lat.=22.022896, lon.=103.933754, Alt.=643.273926m. Speed=6.264000m/h.</desc>
<speed>1.740000</speed>
</trkpt>
<trkpt lat="22.022959" lon="103.933807">
<ele>644.039551</ele>
<time>2011-04-26T02:42:50Z</time>
<desc>lat.=22.022959, lon.=103.933807, Alt.=644.039551m. Speed=5.508000m/h.</desc>
<speed>1.530000</speed>
</trkpt>
<trkpt lat="22.023064" lon="103.933815">
<ele>643.133301</ele>
<time>2011-04-26T02:42:55Z</time>
<desc>lat.=22.023064, lon.=103.933815, Alt.=643.133301m. Speed=7.848000m/h.</desc>
<speed>2.180000</speed>
</trkpt>
<trkpt lat="22.023176" lon="103.933792">
<ele>641.867676</ele>
<time>2011-04-26T02:43:00Z</time>
<desc>lat.=22.023176, lon.=103.933792, Alt.=641.867676m. Speed=6.840000m/h.</desc>
<speed>1.900000</speed>
</trkpt>
<trkpt lat="22.023273" lon="103.933754">
<ele>640.867676</ele>
<time>2011-04-26T02:43:05Z</time>
<desc>lat.=22.023273, lon.=103.933754, Alt.=640.867676m. Speed=6.876000m/h.</desc>
<speed>1.910000</speed>
</trkpt>
<trkpt lat="22.023386" lon="103.933701">
<ele>637.945801</ele>
<time>2011-04-26T02:43:10Z</time>
<desc>lat.=22.023386, lon.=103.933701, Alt.=637.945801m. Speed=9.936000m/h.</desc>
<speed>2.760000</speed>
</trkpt>
<trkpt lat="22.023516" lon="103.933617">
<ele>634.852051</ele>
<time>2011-04-26T02:43:15Z</time>
<desc>lat.=22.023516, lon.=103.933617, Alt.=634.852051m. Speed=10.080000m/h.</desc>
<speed>2.800000</speed>
</trkpt>
<trkpt lat="22.023657" lon="103.933464">
<ele>641.211426</ele>
<time>2011-04-26T02:43:20Z</time>
<desc>lat.=22.023657, lon.=103.933464, Alt.=641.211426m. Speed=11.736000m/h.</desc>
<speed>3.260000</speed>
</trkpt>
<trkpt lat="22.023771" lon="103.933380">
<ele>644.398926</ele>
<time>2011-04-26T02:43:25Z</time>
<desc>lat.=22.023771, lon.=103.933380, Alt.=644.398926m. Speed=9.576000m/h.</desc>
<speed>2.660000</speed>
</trkpt>
<trkpt lat="22.023880" lon="103.933304">
<ele>645.586426</ele>
<time>2011-04-26T02:43:30Z</time>
<desc>lat.=22.023880, lon.=103.933304, Alt.=645.586426m. Speed=10.224000m/h.</desc>
<speed>2.840000</speed>
</trkpt>
<trkpt lat="22.023994" lon="103.933235">
<ele>645.867676</ele>
<time>2011-04-26T02:43:35Z</time>
<desc>lat.=22.023994, lon.=103.933235, Alt.=645.867676m. Speed=9.828000m/h.</desc>
<speed>2.730000</speed>
</trkpt>
<trkpt lat="22.024086" lon="103.933167">
<ele>645.773926</ele>
<time>2011-04-26T02:43:40Z</time>
<desc>lat.=22.024086, lon.=103.933167, Alt.=645.773926m. Speed=9.612000m/h.</desc>
<speed>2.670000</speed>
</trkpt>
<trkpt lat="22.024199" lon="103.933105">
<ele>645.617676</ele>
<time>2011-04-26T02:43:45Z</time>
<desc>lat.=22.024199, lon.=103.933105, Alt.=645.617676m. Speed=10.332000m/h.</desc>
<speed>2.870000</speed>
</trkpt>
<trkpt lat="22.024321" lon="103.933052">
<ele>646.117676</ele>
<time>2011-04-26T02:43:50Z</time>
<desc>lat.=22.024321, lon.=103.933052, Alt.=646.117676m. Speed=11.016000m/h.</desc>
<speed>3.060000</speed>
</trkpt>
<trkpt lat="22.024448" lon="103.933029">
<ele>646.555176</ele>
<time>2011-04-26T02:43:55Z</time>
<desc>lat.=22.024448, lon.=103.933029, Alt.=646.555176m. Speed=10.080000m/h.</desc>
<speed>2.800000</speed>
</trkpt>
<trkpt lat="22.024574" lon="103.933037">
<ele>647.461426</ele>
<time>2011-04-26T02:44:00Z</time>
<desc>lat.=22.024574, lon.=103.933037, Alt.=647.461426m. Speed=9.612000m/h.</desc>
<speed>2.670000</speed>
</trkpt>
<trkpt lat="22.024687" lon="103.933075">
<ele>647.930176</ele>
<time>2011-04-26T02:44:05Z</time>
<desc>lat.=22.024687, lon.=103.933075, Alt.=647.930176m. Speed=9.972000m/h.</desc>
<speed>2.770000</speed>
</trkpt>
<trkpt lat="22.024799" lon="103.933098">
<ele>648.570801</ele>
<time>2011-04-26T02:44:10Z</time>
<desc>lat.=22.024799, lon.=103.933098, Alt.=648.570801m. Speed=8.568000m/h.</desc>
<speed>2.380000</speed>
</trkpt>
<trkpt lat="22.024895" lon="103.933128">
<ele>648.977051</ele>
<time>2011-04-26T02:44:15Z</time>
<desc>lat.=22.024895, lon.=103.933128, Alt.=648.977051m. Speed=7.128000m/h.</desc>
<speed>1.980000</speed>
</trkpt>
<trkpt lat="22.024988" lon="103.933159">
<ele>649.477051</ele>
<time>2011-04-26T02:44:20Z</time>
<desc>lat.=22.024988, lon.=103.933159, Alt.=649.477051m. Speed=7.632000m/h.</desc>
<speed>2.120000</speed>
</trkpt>
<trkpt lat="22.025072" lon="103.933197">
<ele>649.867676</ele>
<time>2011-04-26T02:44:25Z</time>
<desc>lat.=22.025072, lon.=103.933197, Alt.=649.867676m. Speed=8.784000m/h.</desc>
<speed>2.440000</speed>
</trkpt>
<trkpt lat="22.025143" lon="103.933243">
<ele>650.258301</ele>
<time>2011-04-26T02:44:30Z</time>
<desc>lat.=22.025143, lon.=103.933243, Alt.=650.258301m. Speed=7.668000m/h.</desc>
<speed>2.130000</speed>
</trkpt>
<trkpt lat="22.025223" lon="103.933296">
<ele>650.758301</ele>
<time>2011-04-26T02:44:35Z</time>
<desc>lat.=22.025223, lon.=103.933296, Alt.=650.758301m. Speed=7.488000m/h.</desc>
<speed>2.080000</speed>
</trkpt>
<trkpt lat="22.025282" lon="103.933365">
<ele>651.164551</ele>
<time>2011-04-26T02:44:40Z</time>
<desc>lat.=22.025282, lon.=103.933365, Alt.=651.164551m. Speed=7.776000m/h.</desc>
<speed>2.160000</speed>
</trkpt>
<trkpt lat="22.025364" lon="103.933434">
<ele>651.758301</ele>
<time>2011-04-26T02:44:45Z</time>
<desc>lat.=22.025364, lon.=103.933434, Alt.=651.758301m. Speed=8.136000m/h.</desc>
<speed>2.260000</speed>
</trkpt>
<trkpt lat="22.025436" lon="103.933510">
<ele>652.133301</ele>
<time>2011-04-26T02:44:50Z</time>
<desc>lat.=22.025436, lon.=103.933510, Alt.=652.133301m. Speed=7.668000m/h.</desc>
<speed>2.130000</speed>
</trkpt>
<trkpt lat="22.025505" lon="103.933586">
<ele>652.867676</ele>
<time>2011-04-26T02:44:55Z</time>
<desc>lat.=22.025505, lon.=103.933586, Alt.=652.867676m. Speed=6.444000m/h.</desc>
<speed>1.790000</speed>
</trkpt>
<trkpt lat="22.025593" lon="103.933708">
<ele>654.414551</ele>
<time>2011-04-26T02:45:00Z</time>
<desc>lat.=22.025593, lon.=103.933708, Alt.=654.414551m. Speed=8.136000m/h.</desc>
<speed>2.260000</speed>
</trkpt>
<trkpt lat="22.025660" lon="103.933777">
<ele>655.180176</ele>
<time>2011-04-26T02:45:05Z</time>
<desc>lat.=22.025660, lon.=103.933777, Alt.=655.180176m. Speed=5.652000m/h.</desc>
<speed>1.570000</speed>
</trkpt>
<trkpt lat="22.025730" lon="103.933853">
<ele>656.273926</ele>
<time>2011-04-26T02:45:10Z</time>
<desc>lat.=22.025730, lon.=103.933853, Alt.=656.273926m. Speed=8.352000m/h.</desc>
<speed>2.320000</speed>
</trkpt>
<trkpt lat="22.025806" lon="103.933929">
<ele>657.414551</ele>
<time>2011-04-26T02:45:15Z</time>
<desc>lat.=22.025806, lon.=103.933929, Alt.=657.414551m. Speed=7.380000m/h.</desc>
<speed>2.050000</speed>
</trkpt>
<trkpt lat="22.025890" lon="103.934013">
<ele>657.898926</ele>
<time>2011-04-26T02:45:20Z</time>
<desc>lat.=22.025890, lon.=103.934013, Alt.=657.898926m. Speed=8.244000m/h.</desc>
<speed>2.290000</speed>
</trkpt>
<trkpt lat="22.025957" lon="103.934105">
<ele>660.086426</ele>
<time>2011-04-26T02:45:25Z</time>
<desc>lat.=22.025957, lon.=103.934105, Alt.=660.086426m. Speed=8.712000m/h.</desc>
<speed>2.420000</speed>
</trkpt>
<trkpt lat="22.026041" lon="103.934189">
<ele>661.023926</ele>
<time>2011-04-26T02:45:30Z</time>
<desc>lat.=22.026041, lon.=103.934189, Alt.=661.023926m. Speed=9.792000m/h.</desc>
<speed>2.720000</speed>
</trkpt>
<trkpt lat="22.026140" lon="103.934273">
<ele>661.539551</ele>
<time>2011-04-26T02:45:35Z</time>
<desc>lat.=22.026140, lon.=103.934273, Alt.=661.539551m. Speed=9.684000m/h.</desc>
<speed>2.690000</speed>
</trkpt>
<trkpt lat="22.026245" lon="103.934311">
<ele>662.414551</ele>
<time>2011-04-26T02:45:40Z</time>
<desc>lat.=22.026245, lon.=103.934311, Alt.=662.414551m. Speed=7.668000m/h.</desc>
<speed>2.130000</speed>
</trkpt>
<trkpt lat="22.026363" lon="103.934326">
<ele>661.461426</ele>
<time>2011-04-26T02:45:45Z</time>
<desc>lat.=22.026363, lon.=103.934326, Alt.=661.461426m. Speed=8.820000m/h.</desc>
<speed>2.450000</speed>
</trkpt>
<trkpt lat="22.026485" lon="103.934311">
<ele>661.180176</ele>
<time>2011-04-26T02:45:50Z</time>
<desc>lat.=22.026485, lon.=103.934311, Alt.=661.180176m. Speed=5.220000m/h.</desc>
<speed>1.450000</speed>
</trkpt>
<trkpt lat="22.026567" lon="103.934280">
<ele>661.852051</ele>
<time>2011-04-26T02:45:55Z</time>
<desc>lat.=22.026567, lon.=103.934280, Alt.=661.852051m. Speed=5.112000m/h.</desc>
<speed>1.420000</speed>
</trkpt>
<trkpt lat="22.026638" lon="103.934258">
<ele>660.945801</ele>
<time>2011-04-26T02:46:00Z</time>
<desc>lat.=22.026638, lon.=103.934258, Alt.=660.945801m. Speed=4.284000m/h.</desc>
<speed>1.190000</speed>
</trkpt>
<trkpt lat="22.026716" lon="103.934235">
<ele>659.977051</ele>
<time>2011-04-26T02:46:05Z</time>
<desc>lat.=22.026716, lon.=103.934235, Alt.=659.977051m. Speed=5.904000m/h.</desc>
<speed>1.640000</speed>
</trkpt>
<trkpt lat="22.026815" lon="103.934219">
<ele>659.836426</ele>
<time>2011-04-26T02:46:10Z</time>
<desc>lat.=22.026815, lon.=103.934219, Alt.=659.836426m. Speed=5.940000m/h.</desc>
<speed>1.650000</speed>
</trkpt>
<trkpt lat="22.026901" lon="103.934196">
<ele>659.680176</ele>
<time>2011-04-26T02:46:15Z</time>
<desc>lat.=22.026901, lon.=103.934196, Alt.=659.680176m. Speed=5.148000m/h.</desc>
<speed>1.430000</speed>
</trkpt>
<trkpt lat="22.026987" lon="103.934189">
<ele>658.070801</ele>
<time>2011-04-26T02:46:20Z</time>
<desc>lat.=22.026987, lon.=103.934189, Alt.=658.070801m. Speed=6.336000m/h.</desc>
<speed>1.760000</speed>
</trkpt>
<trkpt lat="22.027075" lon="103.934189">
<ele>657.023926</ele>
<time>2011-04-26T02:46:25Z</time>
<desc>lat.=22.027075, lon.=103.934189, Alt.=657.023926m. Speed=8.676000m/h.</desc>
<speed>2.410000</speed>
</trkpt>
<trkpt lat="22.027142" lon="103.934189">
<ele>658.586426</ele>
<time>2011-04-26T02:46:30Z</time>
<desc>lat.=22.027142, lon.=103.934189, Alt.=658.586426m. Speed=4.716000m/h.</desc>
<speed>1.310000</speed>
</trkpt>
<trkpt lat="22.027212" lon="103.934204">
<ele>659.055176</ele>
<time>2011-04-26T02:46:35Z</time>
<desc>lat.=22.027212, lon.=103.934204, Alt.=659.055176m. Speed=6.156000m/h.</desc>
<speed>1.710000</speed>
</trkpt>
<trkpt lat="22.027306" lon="103.934227">
<ele>661.336426</ele>
<time>2011-04-26T02:46:40Z</time>
<desc>lat.=22.027306, lon.=103.934227, Alt.=661.336426m. Speed=4.716000m/h.</desc>
<speed>1.310000</speed>
</trkpt>
<trkpt lat="22.027395" lon="103.934242">
<ele>665.602051</ele>
<time>2011-04-26T02:46:45Z</time>
<desc>lat.=22.027395, lon.=103.934242, Alt.=665.602051m. Speed=6.156000m/h.</desc>
<speed>1.710000</speed>
</trkpt>
<trkpt lat="22.027475" lon="103.934273">
<ele>666.383301</ele>
<time>2011-04-26T02:46:50Z</time>
<desc>lat.=22.027475, lon.=103.934273, Alt.=666.383301m. Speed=5.580000m/h.</desc>
<speed>1.550000</speed>
</trkpt>
<trkpt lat="22.027508" lon="103.934296">
<ele>665.227051</ele>
<time>2011-04-26T02:46:55Z</time>
<desc>lat.=22.027508, lon.=103.934296, Alt.=665.227051m. Speed=0.504000m/h.</desc>
<speed>0.140000</speed>
</trkpt>
<trkpt lat="22.027529" lon="103.934265">
<ele>669.477051</ele>
<time>2011-04-26T02:47:00Z</time>
<desc>lat.=22.027529, lon.=103.934265, Alt.=669.477051m. Speed=0.180000m/h.</desc>
<speed>0.050000</speed>
</trkpt>
<trkpt lat="22.027531" lon="103.934265">
<ele>669.648926</ele>
<time>2011-04-26T02:47:05Z</time>
<desc>lat.=22.027531, lon.=103.934265, Alt.=669.648926m. Speed=0.756000m/h.</desc>
<speed>0.210000</speed>
</trkpt>
<trkpt lat="22.027538" lon="103.934265">
<ele>669.773926</ele>
<time>2011-04-26T02:47:10Z</time>
<desc>lat.=22.027538, lon.=103.934265, Alt.=669.773926m. Speed=0.324000m/h.</desc>
<speed>0.090000</speed>
</trkpt>
<trkpt lat="22.027538" lon="103.934273">
<ele>669.867676</ele>
<time>2011-04-26T02:47:15Z</time>
<desc>lat.=22.027538, lon.=103.934273, Alt.=669.867676m. Speed=0.216000m/h.</desc>
<speed>0.060000</speed>
</trkpt>
<trkpt lat="22.027542" lon="103.934273">
<ele>669.898926</ele>
<time>2011-04-26T02:47:20Z</time>
<desc>lat.=22.027542, lon.=103.934273, Alt.=669.898926m. Speed=0.504000m/h.</desc>
<speed>0.140000</speed>
</trkpt>
<trkpt lat="22.027546" lon="103.934273">
<ele>669.883301</ele>
<time>2011-04-26T02:47:25Z</time>
<desc>lat.=22.027546, lon.=103.934273, Alt.=669.883301m. Speed=0.180000m/h.</desc>
<speed>0.050000</speed>
</trkpt>
<trkpt lat="22.027546" lon="103.934280">
<ele>669.898926</ele>
<time>2011-04-26T02:47:30Z</time>
<desc>lat.=22.027546, lon.=103.934280, Alt.=669.898926m. Speed=0.324000m/h.</desc>
<speed>0.090000</speed>
</trkpt>
<trkpt lat="22.027550" lon="103.934280">
<ele>669.883301</ele>
<time>2011-04-26T02:47:35Z</time>
<desc>lat.=22.027550, lon.=103.934280, Alt.=669.883301m. Speed=0.468000m/h.</desc>
<speed>0.130000</speed>
</trkpt>
<trkpt lat="22.027555" lon="103.934288">
<ele>669.914551</ele>
<time>2011-04-26T02:47:40Z</time>
<desc>lat.=22.027555, lon.=103.934288, Alt.=669.914551m. Speed=0.828000m/h.</desc>
<speed>0.230000</speed>
</trkpt>
<trkpt lat="22.027557" lon="103.934296">
<ele>669.914551</ele>
<time>2011-04-26T02:47:45Z</time>
<desc>lat.=22.027557, lon.=103.934296, Alt.=669.914551m. Speed=0.612000m/h.</desc>
<speed>0.170000</speed>
</trkpt>
<trkpt lat="22.027554" lon="103.934288">
<ele>669.914551</ele>
<time>2011-04-26T02:47:50Z</time>
<desc>lat.=22.027554, lon.=103.934288, Alt.=669.914551m. Speed=0.324000m/h.</desc>
<speed>0.090000</speed>
</trkpt>
<trkpt lat="22.027557" lon="103.934296">
<ele>669.789551</ele>
<time>2011-04-26T02:47:55Z</time>
<desc>lat.=22.027557, lon.=103.934296, Alt.=669.789551m. Speed=1.008000m/h.</desc>
<speed>0.280000</speed>
</trkpt>
<trkpt lat="22.027548" lon="103.934319">
<ele>668.602051</ele>
<time>2011-04-26T02:48:00Z</time>
<desc>lat.=22.027548, lon.=103.934319, Alt.=668.602051m. Speed=1.260000m/h.</desc>
<speed>0.350000</speed>
</trkpt>
<trkpt lat="22.027542" lon="103.934334">
<ele>668.195801</ele>
<time>2011-04-26T02:48:05Z</time>
<desc>lat.=22.027542, lon.=103.934334, Alt.=668.195801m. Speed=1.008000m/h.</desc>
<speed>0.280000</speed>
</trkpt>
<trkpt lat="22.027540" lon="103.934349">
<ele>668.148926</ele>
<time>2011-04-26T02:48:10Z</time>
<desc>lat.=22.027540, lon.=103.934349, Alt.=668.148926m. Speed=0.648000m/h.</desc>
<speed>0.180000</speed>
</trkpt>
<trkpt lat="22.027536" lon="103.934357">
<ele>668.133301</ele>
<time>2011-04-26T02:48:15Z</time>
<desc>lat.=22.027536, lon.=103.934357, Alt.=668.133301m. Speed=0.648000m/h.</desc>
<speed>0.180000</speed>
</trkpt>
<trkpt lat="22.027533" lon="103.934364">
<ele>668.086426</ele>
<time>2011-04-26T02:48:20Z</time>
<desc>lat.=22.027533, lon.=103.934364, Alt.=668.086426m. Speed=0.144000m/h.</desc>
<speed>0.040000</speed>
</trkpt>
<trkpt lat="22.027533" lon="103.934357">
<ele>667.992676</ele>
<time>2011-04-26T02:48:25Z</time>
<desc>lat.=22.027533, lon.=103.934357, Alt.=667.992676m. Speed=0.036000m/h.</desc>
<speed>0.010000</speed>
</trkpt>
<trkpt lat="22.027533" lon="103.934357">
<ele>667.852051</ele>
<time>2011-04-26T02:48:30Z</time>
<desc>lat.=22.027533, lon.=103.934357, Alt.=667.852051m. Speed=0.288000m/h.</desc>
<speed>0.080000</speed>
</trkpt>
<trkpt lat="22.027533" lon="103.934357">
<ele>667.805176</ele>
<time>2011-04-26T02:48:35Z</time>
<desc>lat.=22.027533, lon.=103.934357, Alt.=667.805176m. Speed=0.036000m/h.</desc>
<speed>0.010000</speed>
</trkpt>
<trkpt lat="22.027533" lon="103.934357">
<ele>667.773926</ele>
<time>2011-04-26T02:48:40Z</time>
<desc>lat.=22.027533, lon.=103.934357, Alt.=667.773926m. Speed=0.036000m/h.</desc>
<speed>0.010000</speed>
</trkpt>
<trkpt lat="22.027533" lon="103.934357">
<ele>667.742676</ele>
<time>2011-04-26T02:48:45Z</time>
<desc>lat.=22.027533, lon.=103.934357, Alt.=667.742676m. Speed=0.036000m/h.</desc>
<speed>0.010000</speed>
</trkpt>
<trkpt lat="22.027533" lon="103.934357">
<ele>667.727051</ele>
<time>2011-04-26T02:48:50Z</time>
<desc>lat.=22.027533, lon.=103.934357, Alt.=667.727051m. Speed=0.108000m/h.</desc>
<speed>0.030000</speed>
</trkpt>
<trkpt lat="22.027533" lon="103.934357">
<ele>667.695801</ele>
<time>2011-04-26T02:48:55Z</time>
<desc>lat.=22.027533, lon.=103.934357, Alt.=667.695801m. Speed=0.000000m/h.</desc>
<speed>0.000000</speed>
</trkpt>
<trkpt lat="22.027533" lon="103.934357">
<ele>667.680176</ele>
<time>2011-04-26T02:49:00Z</time>
<desc>lat.=22.027533, lon.=103.934357, Alt.=667.680176m. Speed=0.072000m/h.</desc>
<speed>0.020000</speed>
</trkpt>
<trkpt lat="22.027533" lon="103.934357">
<ele>667.617676</ele>
<time>2011-04-26T02:49:05Z</time>
<desc>lat.=22.027533, lon.=103.934357, Alt.=667.617676m. Speed=0.036000m/h.</desc>
<speed>0.010000</speed>
</trkpt>
<trkpt lat="22.027533" lon="103.934357">
<ele>667.570801</ele>
<time>2011-04-26T02:49:10Z</time>
<desc>lat.=22.027533, lon.=103.934357, Alt.=667.570801m. Speed=0.036000m/h.</desc>
<speed>0.010000</speed>
</trkpt>
<trkpt lat="22.027533" lon="103.934357">
<ele>667.539551</ele>
<time>2011-04-26T02:49:15Z</time>
<desc>lat.=22.027533, lon.=103.934357, Alt.=667.539551m. Speed=0.036000m/h.</desc>
<speed>0.010000</speed>
</trkpt>
<trkpt lat="22.027533" lon="103.934357">
<ele>667.492676</ele>
<time>2011-04-26T02:49:20Z</time>
<desc>lat.=22.027533, lon.=103.934357, Alt.=667.492676m. Speed=0.000000m/h.</desc>
<speed>0.000000</speed>
</trkpt>
<trkpt lat="22.027533" lon="103.934357">
<ele>667.414551</ele>
<time>2011-04-26T02:49:25Z</time>
<desc>lat.=22.027533, lon.=103.934357, Alt.=667.414551m. Speed=0.000000m/h.</desc>
<speed>0.000000</speed>
</trkpt>
<trkpt lat="22.027533" lon="103.934357">
<ele>667.258301</ele>
<time>2011-04-26T02:49:30Z</time>
<desc>lat.=22.027533, lon.=103.934357, Alt.=667.258301m. Speed=0.000000m/h.</desc>
<speed>0.000000</speed>
</trkpt>
<trkpt lat="22.027533" lon="103.934357">
<ele>667.148926</ele>
<time>2011-04-26T02:49:35Z</time>
<desc>lat.=22.027533, lon.=103.934357, Alt.=667.148926m. Speed=0.000000m/h.</desc>
<speed>0.000000</speed>
</trkpt>
<trkpt lat="22.027533" lon="103.934357">
<ele>667.117676</ele>
<time>2011-04-26T02:49:40Z</time>
<desc>lat.=22.027533, lon.=103.934357, Alt.=667.117676m. Speed=0.036000m/h.</desc>
<speed>0.010000</speed>
</trkpt>
<trkpt lat="22.027533" lon="103.934357">
<ele>667.070801</ele>
<time>2011-04-26T02:49:45Z</time>
<desc>lat.=22.027533, lon.=103.934357, Alt.=667.070801m. Speed=0.108000m/h.</desc>
<speed>0.030000</speed>
</trkpt>
<trkpt lat="22.027533" lon="103.934357">
<ele>667.039551</ele>
<time>2011-04-26T02:49:50Z</time>
<desc>lat.=22.027533, lon.=103.934357, Alt.=667.039551m. Speed=0.072000m/h.</desc>
<speed>0.020000</speed>
</trkpt>
<trkpt lat="22.027533" lon="103.934357">
<ele>667.023926</ele>
<time>2011-04-26T02:49:55Z</time>
<desc>lat.=22.027533, lon.=103.934357, Alt.=667.023926m. Speed=0.000000m/h.</desc>
<speed>0.000000</speed>
</trkpt>
<trkpt lat="22.027533" lon="103.934357">
<ele>667.039551</ele>
<time>2011-04-26T02:50:00Z</time>
<desc>lat.=22.027533, lon.=103.934357, Alt.=667.039551m. Speed=0.792000m/h.</desc>
<speed>0.220000</speed>
</trkpt>
<trkpt lat="22.027576" lon="103.934425">
<ele>666.789551</ele>
<time>2011-04-26T02:50:05Z</time>
<desc>lat.=22.027576, lon.=103.934425, Alt.=666.789551m. Speed=7.272000m/h.</desc>
<speed>2.020000</speed>
</trkpt>
<trkpt lat="22.027622" lon="103.934502">
<ele>667.711426</ele>
<time>2011-04-26T02:50:10Z</time>
<desc>lat.=22.027622, lon.=103.934502, Alt.=667.711426m. Speed=6.372000m/h.</desc>
<speed>1.770000</speed>
</trkpt>
<trkpt lat="22.027655" lon="103.934593">
<ele>668.836426</ele>
<time>2011-04-26T02:50:15Z</time>
<desc>lat.=22.027655, lon.=103.934593, Alt.=668.836426m. Speed=7.020000m/h.</desc>
<speed>1.950000</speed>
</trkpt>
<trkpt lat="22.027685" lon="103.934669">
<ele>670.258301</ele>
<time>2011-04-26T02:50:20Z</time>
<desc>lat.=22.027685, lon.=103.934669, Alt.=670.258301m. Speed=6.192000m/h.</desc>
<speed>1.720000</speed>
</trkpt>
<trkpt lat="22.027700" lon="103.934723">
<ele>671.305176</ele>
<time>2011-04-26T02:50:25Z</time>
<desc>lat.=22.027700, lon.=103.934723, Alt.=671.305176m. Speed=5.544000m/h.</desc>
<speed>1.540000</speed>
</trkpt>
<trkpt lat="22.027718" lon="103.934799">
<ele>673.586426</ele>
<time>2011-04-26T02:50:30Z</time>
<desc>lat.=22.027718, lon.=103.934799, Alt.=673.586426m. Speed=5.544000m/h.</desc>
<speed>1.540000</speed>
</trkpt>
<trkpt lat="22.027723" lon="103.934898">
<ele>674.508301</ele>
<time>2011-04-26T02:50:35Z</time>
<desc>lat.=22.027723, lon.=103.934898, Alt.=674.508301m. Speed=4.752000m/h.</desc>
<speed>1.320000</speed>
</trkpt>
<trkpt lat="22.027742" lon="103.934998">
<ele>674.898926</ele>
<time>2011-04-26T02:50:40Z</time>
<desc>lat.=22.027742, lon.=103.934998, Alt.=674.898926m. Speed=7.020000m/h.</desc>
<speed>1.950000</speed>
</trkpt>
<trkpt lat="22.027782" lon="103.935112">
<ele>677.758301</ele>
<time>2011-04-26T02:50:45Z</time>
<desc>lat.=22.027782, lon.=103.935112, Alt.=677.758301m. Speed=6.300000m/h.</desc>
<speed>1.750000</speed>
</trkpt>
<trkpt lat="22.027845" lon="103.935204">
<ele>679.070801</ele>
<time>2011-04-26T02:50:50Z</time>
<desc>lat.=22.027845, lon.=103.935204, Alt.=679.070801m. Speed=8.172000m/h.</desc>
<speed>2.270000</speed>
</trkpt>
<trkpt lat="22.027958" lon="103.935257">
<ele>677.461426</ele>
<time>2011-04-26T02:50:55Z</time>
<desc>lat.=22.027958, lon.=103.935257, Alt.=677.461426m. Speed=9.144000m/h.</desc>
<speed>2.540000</speed>
</trkpt>
<trkpt lat="22.028078" lon="103.935280">
<ele>676.898926</ele>
<time>2011-04-26T02:51:00Z</time>
<desc>lat.=22.028078, lon.=103.935280, Alt.=676.898926m. Speed=6.984000m/h.</desc>
<speed>1.940000</speed>
</trkpt>
<trkpt lat="22.028179" lon="103.935280">
<ele>677.570801</ele>
<time>2011-04-26T02:51:05Z</time>
<desc>lat.=22.028179, lon.=103.935280, Alt.=677.570801m. Speed=7.632000m/h.</desc>
<speed>2.120000</speed>
</trkpt>
<trkpt lat="22.028301" lon="103.935265">
<ele>676.867676</ele>
<time>2011-04-26T02:51:10Z</time>
<desc>lat.=22.028301, lon.=103.935265, Alt.=676.867676m. Speed=8.424000m/h.</desc>
<speed>2.340000</speed>
</trkpt>
<trkpt lat="22.028408" lon="103.935242">
<ele>676.180176</ele>
<time>2011-04-26T02:51:15Z</time>
<desc>lat.=22.028408, lon.=103.935242, Alt.=676.180176m. Speed=9.108000m/h.</desc>
<speed>2.530000</speed>
</trkpt>
<trkpt lat="22.028502" lon="103.935219">
<ele>676.695801</ele>
<time>2011-04-26T02:51:20Z</time>
<desc>lat.=22.028502, lon.=103.935219, Alt.=676.695801m. Speed=8.172000m/h.</desc>
<speed>2.270000</speed>
</trkpt>
<trkpt lat="22.028606" lon="103.935173">
<ele>679.898926</ele>
<time>2011-04-26T02:51:25Z</time>
<desc>lat.=22.028606, lon.=103.935173, Alt.=679.898926m. Speed=7.884000m/h.</desc>
<speed>2.190000</speed>
</trkpt>
<trkpt lat="22.028715" lon="103.935135">
<ele>682.039551</ele>
<time>2011-04-26T02:51:30Z</time>
<desc>lat.=22.028715, lon.=103.935135, Alt.=682.039551m. Speed=8.388000m/h.</desc>
<speed>2.330000</speed>
</trkpt>
<trkpt lat="22.028851" lon="103.935120">
<ele>681.195801</ele>
<time>2011-04-26T02:51:35Z</time>
<desc>lat.=22.028851, lon.=103.935120, Alt.=681.195801m. Speed=10.404000m/h.</desc>
<speed>2.890000</speed>
</trkpt>
<trkpt lat="22.028969" lon="103.935097">
<ele>681.633301</ele>
<time>2011-04-26T02:51:40Z</time>
<desc>lat.=22.028969, lon.=103.935097, Alt.=681.633301m. Speed=8.136000m/h.</desc>
<speed>2.260000</speed>
</trkpt>
<trkpt lat="22.029093" lon="103.935089">
<ele>680.008301</ele>
<time>2011-04-26T02:51:45Z</time>
<desc>lat.=22.029093, lon.=103.935089, Alt.=680.008301m. Speed=10.584000m/h.</desc>
<speed>2.940000</speed>
</trkpt>
<trkpt lat="22.029202" lon="103.935051">
<ele>679.133301</ele>
<time>2011-04-26T02:51:50Z</time>
<desc>lat.=22.029202, lon.=103.935051, Alt.=679.133301m. Speed=7.884000m/h.</desc>
<speed>2.190000</speed>
</trkpt>
<trkpt lat="22.029303" lon="103.935013">
<ele>678.336426</ele>
<time>2011-04-26T02:51:55Z</time>
<desc>lat.=22.029303, lon.=103.935013, Alt.=678.336426m. Speed=7.524000m/h.</desc>
<speed>2.090000</speed>
</trkpt>
<trkpt lat="22.029411" lon="103.934998">
<ele>676.664551</ele>
<time>2011-04-26T02:52:00Z</time>
<desc>lat.=22.029411, lon.=103.934998, Alt.=676.664551m. Speed=7.128000m/h.</desc>
<speed>1.980000</speed>
</trkpt>
<trkpt lat="22.029509" lon="103.934982">
<ele>677.008301</ele>
<time>2011-04-26T02:52:05Z</time>
<desc>lat.=22.029509, lon.=103.934982, Alt.=677.008301m. Speed=7.308000m/h.</desc>
<speed>2.030000</speed>
</trkpt>
<trkpt lat="22.029629" lon="103.934959">
<ele>675.398926</ele>
<time>2011-04-26T02:52:10Z</time>
<desc>lat.=22.029629, lon.=103.934959, Alt.=675.398926m. Speed=6.264000m/h.</desc>
<speed>1.740000</speed>
</trkpt>
<trkpt lat="22.029757" lon="103.934959">
<ele>676.164551</ele>
<time>2011-04-26T02:52:15Z</time>
<desc>lat.=22.029757, lon.=103.934959, Alt.=676.164551m. Speed=9.108000m/h.</desc>
<speed>2.530000</speed>
</trkpt>
<trkpt lat="22.029900" lon="103.935013">
<ele>679.273926</ele>
<time>2011-04-26T02:52:20Z</time>
<desc>lat.=22.029900, lon.=103.935013, Alt.=679.273926m. Speed=10.404000m/h.</desc>
<speed>2.890000</speed>
</trkpt>
<trkpt lat="22.030018" lon="103.935089">
<ele>680.023926</ele>
<time>2011-04-26T02:52:25Z</time>
<desc>lat.=22.030018, lon.=103.935089, Alt.=680.023926m. Speed=9.324000m/h.</desc>
<speed>2.590000</speed>
</trkpt>
<trkpt lat="22.030104" lon="103.935181">
<ele>680.164551</ele>
<time>2011-04-26T02:52:30Z</time>
<desc>lat.=22.030104, lon.=103.935181, Alt.=680.164551m. Speed=9.720000m/h.</desc>
<speed>2.700000</speed>
</trkpt>
<trkpt lat="22.030170" lon="103.935287">
<ele>679.898926</ele>
<time>2011-04-26T02:52:35Z</time>
<desc>lat.=22.030170, lon.=103.935287, Alt.=679.898926m. Speed=7.632000m/h.</desc>
<speed>2.120000</speed>
</trkpt>
<trkpt lat="22.030197" lon="103.935387">
<ele>680.430176</ele>
<time>2011-04-26T02:52:40Z</time>
<desc>lat.=22.030197, lon.=103.935387, Alt.=680.430176m. Speed=6.948000m/h.</desc>
<speed>1.930000</speed>
</trkpt>
<trkpt lat="22.030209" lon="103.935455">
<ele>681.352051</ele>
<time>2011-04-26T02:52:45Z</time>
<desc>lat.=22.030209, lon.=103.935455, Alt.=681.352051m. Speed=5.724000m/h.</desc>
<speed>1.590000</speed>
</trkpt>
<trkpt lat="22.030220" lon="103.935555">
<ele>681.898926</ele>
<time>2011-04-26T02:52:50Z</time>
<desc>lat.=22.030220, lon.=103.935555, Alt.=681.898926m. Speed=7.200000m/h.</desc>
<speed>2.000000</speed>
</trkpt>
<trkpt lat="22.030226" lon="103.935646">
<ele>682.039551</ele>
<time>2011-04-26T02:52:55Z</time>
<desc>lat.=22.030226, lon.=103.935646, Alt.=682.039551m. Speed=6.876000m/h.</desc>
<speed>1.910000</speed>
</trkpt>
<trkpt lat="22.030239" lon="103.935722">
<ele>681.664551</ele>
<time>2011-04-26T02:53:00Z</time>
<desc>lat.=22.030239, lon.=103.935722, Alt.=681.664551m. Speed=5.652000m/h.</desc>
<speed>1.570000</speed>
</trkpt>
<trkpt lat="22.030256" lon="103.935814">
<ele>682.023926</ele>
<time>2011-04-26T02:53:05Z</time>
<desc>lat.=22.030256, lon.=103.935814, Alt.=682.023926m. Speed=6.516000m/h.</desc>
<speed>1.810000</speed>
</trkpt>
<trkpt lat="22.030268" lon="103.935913">
<ele>681.711426</ele>
<time>2011-04-26T02:53:10Z</time>
<desc>lat.=22.030268, lon.=103.935913, Alt.=681.711426m. Speed=5.076000m/h.</desc>
<speed>1.410000</speed>
</trkpt>
<trkpt lat="22.030283" lon="103.935997">
<ele>681.430176</ele>
<time>2011-04-26T02:53:15Z</time>
<desc>lat.=22.030283, lon.=103.935997, Alt.=681.430176m. Speed=6.624000m/h.</desc>
<speed>1.840000</speed>
</trkpt>
<trkpt lat="22.030310" lon="103.936104">
<ele>682.398926</ele>
<time>2011-04-26T02:53:20Z</time>
<desc>lat.=22.030310, lon.=103.936104, Alt.=682.398926m. Speed=8.064000m/h.</desc>
<speed>2.240000</speed>
</trkpt>
<trkpt lat="22.030348" lon="103.936180">
<ele>682.461426</ele>
<time>2011-04-26T02:53:25Z</time>
<desc>lat.=22.030348, lon.=103.936180, Alt.=682.461426m. Speed=6.912000m/h.</desc>
<speed>1.920000</speed>
</trkpt>
<trkpt lat="22.030396" lon="103.936279">
<ele>683.758301</ele>
<time>2011-04-26T02:53:30Z</time>
<desc>lat.=22.030396, lon.=103.936279, Alt.=683.758301m. Speed=7.344000m/h.</desc>
<speed>2.040000</speed>
</trkpt>
<trkpt lat="22.030447" lon="103.936363">
<ele>684.289551</ele>
<time>2011-04-26T02:53:35Z</time>
<desc>lat.=22.030447, lon.=103.936363, Alt.=684.289551m. Speed=7.272000m/h.</desc>
<speed>2.020000</speed>
</trkpt>
<trkpt lat="22.030487" lon="103.936440">
<ele>685.102051</ele>
<time>2011-04-26T02:53:40Z</time>
<desc>lat.=22.030487, lon.=103.936440, Alt.=685.102051m. Speed=3.744000m/h.</desc>
<speed>1.040000</speed>
</trkpt>
<trkpt lat="22.030531" lon="103.936501">
<ele>685.680176</ele>
<time>2011-04-26T02:53:45Z</time>
<desc>lat.=22.030531, lon.=103.936501, Alt.=685.680176m. Speed=5.832000m/h.</desc>
<speed>1.620000</speed>
</trkpt>
<trkpt lat="22.030605" lon="103.936562">
<ele>685.055176</ele>
<time>2011-04-26T02:53:50Z</time>
<desc>lat.=22.030605, lon.=103.936562, Alt.=685.055176m. Speed=6.840000m/h.</desc>
<speed>1.900000</speed>
</trkpt>
<trkpt lat="22.030668" lon="103.936600">
<ele>686.039551</ele>
<time>2011-04-26T02:53:55Z</time>
<desc>lat.=22.030668, lon.=103.936600, Alt.=686.039551m. Speed=6.336000m/h.</desc>
<speed>1.760000</speed>
</trkpt>
<trkpt lat="22.030746" lon="103.936646">
<ele>686.523926</ele>
<time>2011-04-26T02:54:00Z</time>
<desc>lat.=22.030746, lon.=103.936646, Alt.=686.523926m. Speed=6.912000m/h.</desc>
<speed>1.920000</speed>
</trkpt>
<trkpt lat="22.030817" lon="103.936668">
<ele>686.305176</ele>
<time>2011-04-26T02:54:05Z</time>
<desc>lat.=22.030817, lon.=103.936668, Alt.=686.305176m. Speed=7.416000m/h.</desc>
<speed>2.060000</speed>
</trkpt>
<trkpt lat="22.030884" lon="103.936707">
<ele>687.305176</ele>
<time>2011-04-26T02:54:10Z</time>
<desc>lat.=22.030884, lon.=103.936707, Alt.=687.305176m. Speed=4.428000m/h.</desc>
<speed>1.230000</speed>
</trkpt>
<trkpt lat="22.030956" lon="103.936729">
<ele>688.727051</ele>
<time>2011-04-26T02:54:15Z</time>
<desc>lat.=22.030956, lon.=103.936729, Alt.=688.727051m. Speed=6.120000m/h.</desc>
<speed>1.700000</speed>
</trkpt>
<trkpt lat="22.031034" lon="103.936768">
<ele>689.539551</ele>
<time>2011-04-26T02:54:20Z</time>
<desc>lat.=22.031034, lon.=103.936768, Alt.=689.539551m. Speed=6.228000m/h.</desc>
<speed>1.730000</speed>
</trkpt>
<trkpt lat="22.031139" lon="103.936813">
<ele>689.883301</ele>
<time>2011-04-26T02:54:25Z</time>
<desc>lat.=22.031139, lon.=103.936813, Alt.=689.883301m. Speed=7.128000m/h.</desc>
<speed>1.980000</speed>
</trkpt>
<trkpt lat="22.031229" lon="103.936844">
<ele>691.773926</ele>
<time>2011-04-26T02:54:30Z</time>
<desc>lat.=22.031229, lon.=103.936844, Alt.=691.773926m. Speed=7.596000m/h.</desc>
<speed>2.110000</speed>
</trkpt>
<trkpt lat="22.031319" lon="103.936867">
<ele>693.898926</ele>
<time>2011-04-26T02:54:35Z</time>
<desc>lat.=22.031319, lon.=103.936867, Alt.=693.898926m. Speed=7.128000m/h.</desc>
<speed>1.980000</speed>
</trkpt>
<trkpt lat="22.031414" lon="103.936897">
<ele>693.883301</ele>
<time>2011-04-26T02:54:40Z</time>
<desc>lat.=22.031414, lon.=103.936897, Alt.=693.883301m. Speed=7.236000m/h.</desc>
<speed>2.010000</speed>
</trkpt>
<trkpt lat="22.031487" lon="103.936943">
<ele>694.680176</ele>
<time>2011-04-26T02:54:45Z</time>
<desc>lat.=22.031487, lon.=103.936943, Alt.=694.680176m. Speed=6.840000m/h.</desc>
<speed>1.900000</speed>
</trkpt>
<trkpt lat="22.031528" lon="103.937027">
<ele>695.773926</ele>
<time>2011-04-26T02:54:50Z</time>
<desc>lat.=22.031528, lon.=103.937027, Alt.=695.773926m. Speed=7.056000m/h.</desc>
<speed>1.960000</speed>
</trkpt>
<trkpt lat="22.031578" lon="103.937088">
<ele>696.836426</ele>
<time>2011-04-26T02:54:55Z</time>
<desc>lat.=22.031578, lon.=103.937088, Alt.=696.836426m. Speed=5.688000m/h.</desc>
<speed>1.580000</speed>
</trkpt>
<trkpt lat="22.031593" lon="103.937180">
<ele>697.711426</ele>
<time>2011-04-26T02:55:00Z</time>
<desc>lat.=22.031593, lon.=103.937180, Alt.=697.711426m. Speed=6.768000m/h.</desc>
<speed>1.880000</speed>
</trkpt>
<trkpt lat="22.031607" lon="103.937271">
<ele>699.102051</ele>
<time>2011-04-26T02:55:05Z</time>
<desc>lat.=22.031607, lon.=103.937271, Alt.=699.102051m. Speed=6.120000m/h.</desc>
<speed>1.700000</speed>
</trkpt>
<trkpt lat="22.031614" lon="103.937340">
<ele>699.664551</ele>
<time>2011-04-26T02:55:10Z</time>
<desc>lat.=22.031614, lon.=103.937340, Alt.=699.664551m. Speed=5.652000m/h.</desc>
<speed>1.570000</speed>
</trkpt>
<trkpt lat="22.031614" lon="103.937424">
<ele>700.992676</ele>
<time>2011-04-26T02:55:15Z</time>
<desc>lat.=22.031614, lon.=103.937424, Alt.=700.992676m. Speed=4.680000m/h.</desc>
<speed>1.300000</speed>
</trkpt>
<trkpt lat="22.031616" lon="103.937508">
<ele>702.633301</ele>
<time>2011-04-26T02:55:20Z</time>
<desc>lat.=22.031616, lon.=103.937508, Alt.=702.633301m. Speed=5.112000m/h.</desc>
<speed>1.420000</speed>
</trkpt>
<trkpt lat="22.031624" lon="103.937592">
<ele>704.508301</ele>
<time>2011-04-26T02:55:25Z</time>
<desc>lat.=22.031624, lon.=103.937592, Alt.=704.508301m. Speed=5.364000m/h.</desc>
<speed>1.490000</speed>
</trkpt>
<trkpt lat="22.031603" lon="103.937637">
<ele>707.336426</ele>
<time>2011-04-26T02:55:30Z</time>
<desc>lat.=22.031603, lon.=103.937637, Alt.=707.336426m. Speed=6.084000m/h.</desc>
<speed>1.690000</speed>
</trkpt>
<trkpt lat="22.031601" lon="103.937721">
<ele>709.758301</ele>
<time>2011-04-26T02:55:35Z</time>
<desc>lat.=22.031601, lon.=103.937721, Alt.=709.758301m. Speed=5.940000m/h.</desc>
<speed>1.650000</speed>
</trkpt>
<trkpt lat="22.031614" lon="103.937813">
<ele>711.289551</ele>
<time>2011-04-26T02:55:40Z</time>
<desc>lat.=22.031614, lon.=103.937813, Alt.=711.289551m. Speed=4.572000m/h.</desc>
<speed>1.270000</speed>
</trkpt>
<trkpt lat="22.031593" lon="103.937904">
<ele>713.273926</ele>
<time>2011-04-26T02:55:45Z</time>
<desc>lat.=22.031593, lon.=103.937904, Alt.=713.273926m. Speed=5.580000m/h.</desc>
<speed>1.550000</speed>
</trkpt>
<trkpt lat="22.031586" lon="103.938011">
<ele>714.742676</ele>
<time>2011-04-26T02:55:50Z</time>
<desc>lat.=22.031586, lon.=103.938011, Alt.=714.742676m. Speed=6.552000m/h.</desc>
<speed>1.820000</speed>
</trkpt>
<trkpt lat="22.031595" lon="103.938118">
<ele>715.555176</ele>
<time>2011-04-26T02:55:55Z</time>
<desc>lat.=22.031595, lon.=103.938118, Alt.=715.555176m. Speed=7.488000m/h.</desc>
<speed>2.080000</speed>
</trkpt>
<trkpt lat="22.031580" lon="103.938225">
<ele>717.555176</ele>
<time>2011-04-26T02:56:00Z</time>
<desc>lat.=22.031580, lon.=103.938225, Alt.=717.555176m. Speed=6.804000m/h.</desc>
<speed>1.890000</speed>
</trkpt>
<trkpt lat="22.031569" lon="103.938354">
<ele>717.664551</ele>
<time>2011-04-26T02:56:05Z</time>
<desc>lat.=22.031569, lon.=103.938354, Alt.=717.664551m. Speed=4.968000m/h.</desc>
<speed>1.380000</speed>
</trkpt>
<trkpt lat="22.031542" lon="103.938446">
<ele>719.070801</ele>
<time>2011-04-26T02:56:10Z</time>
<desc>lat.=22.031542, lon.=103.938446, Alt.=719.070801m. Speed=8.064000m/h.</desc>
<speed>2.240000</speed>
</trkpt>
<trkpt lat="22.031502" lon="103.938538">
<ele>720.445801</ele>
<time>2011-04-26T02:56:15Z</time>
<desc>lat.=22.031502, lon.=103.938538, Alt.=720.445801m. Speed=6.336000m/h.</desc>
<speed>1.760000</speed>
</trkpt>
<trkpt lat="22.031469" lon="103.938614">
<ele>721.586426</ele>
<time>2011-04-26T02:56:20Z</time>
<desc>lat.=22.031469, lon.=103.938614, Alt.=721.586426m. Speed=6.372000m/h.</desc>
<speed>1.770000</speed>
</trkpt>
<trkpt lat="22.031399" lon="103.938705">
<ele>723.133301</ele>
<time>2011-04-26T02:56:25Z</time>
<desc>lat.=22.031399, lon.=103.938705, Alt.=723.133301m. Speed=5.220000m/h.</desc>
<speed>1.450000</speed>
</trkpt>
<trkpt lat="22.031382" lon="103.938774">
<ele>724.242676</ele>
<time>2011-04-26T02:56:30Z</time>
<desc>lat.=22.031382, lon.=103.938774, Alt.=724.242676m. Speed=5.544000m/h.</desc>
<speed>1.540000</speed>
</trkpt>
<trkpt lat="22.031338" lon="103.938843">
<ele>725.711426</ele>
<time>2011-04-26T02:56:35Z</time>
<desc>lat.=22.031338, lon.=103.938843, Alt.=725.711426m. Speed=6.228000m/h.</desc>
<speed>1.730000</speed>
</trkpt>
<trkpt lat="22.031319" lon="103.938934">
<ele>726.633301</ele>
<time>2011-04-26T02:56:40Z</time>
<desc>lat.=22.031319, lon.=103.938934, Alt.=726.633301m. Speed=5.796000m/h.</desc>
<speed>1.610000</speed>
</trkpt>
<trkpt lat="22.031277" lon="103.939026">
<ele>728.414551</ele>
<time>2011-04-26T02:56:45Z</time>
<desc>lat.=22.031277, lon.=103.939026, Alt.=728.414551m. Speed=6.228000m/h.</desc>
<speed>1.730000</speed>
</trkpt>
<trkpt lat="22.031244" lon="103.939125">
<ele>729.477051</ele>
<time>2011-04-26T02:56:50Z</time>
<desc>lat.=22.031244, lon.=103.939125, Alt.=729.477051m. Speed=6.228000m/h.</desc>
<speed>1.730000</speed>
</trkpt>
<trkpt lat="22.031191" lon="103.939209">
<ele>730.086426</ele>
<time>2011-04-26T02:56:55Z</time>
<desc>lat.=22.031191, lon.=103.939209, Alt.=730.086426m. Speed=4.140000m/h.</desc>
<speed>1.150000</speed>
</trkpt>
<trkpt lat="22.031183" lon="103.939293">
<ele>730.555176</ele>
<time>2011-04-26T02:57:00Z</time>
<desc>lat.=22.031183, lon.=103.939293, Alt.=730.555176m. Speed=4.968000m/h.</desc>
<speed>1.380000</speed>
</trkpt>
<trkpt lat="22.031185" lon="103.939362">
<ele>731.102051</ele>
<time>2011-04-26T02:57:05Z</time>
<desc>lat.=22.031185, lon.=103.939362, Alt.=731.102051m. Speed=4.608000m/h.</desc>
<speed>1.280000</speed>
</trkpt>
<trkpt lat="22.031189" lon="103.939468">
<ele>731.555176</ele>
<time>2011-04-26T02:57:10Z</time>
<desc>lat.=22.031189, lon.=103.939468, Alt.=731.555176m. Speed=4.608000m/h.</desc>
<speed>1.280000</speed>
</trkpt>
<trkpt lat="22.031216" lon="103.939560">
<ele>733.055176</ele>
<time>2011-04-26T02:57:15Z</time>
<desc>lat.=22.031216, lon.=103.939560, Alt.=733.055176m. Speed=5.292000m/h.</desc>
<speed>1.470000</speed>
</trkpt>
<trkpt lat="22.031218" lon="103.939636">
<ele>734.117676</ele>
<time>2011-04-26T02:57:20Z</time>
<desc>lat.=22.031218, lon.=103.939636, Alt.=734.117676m. Speed=3.420000m/h.</desc>
<speed>0.950000</speed>
</trkpt>
<trkpt lat="22.031284" lon="103.939697">
<ele>734.570801</ele>
<time>2011-04-26T02:57:25Z</time>
<desc>lat.=22.031284, lon.=103.939697, Alt.=734.570801m. Speed=4.860000m/h.</desc>
<speed>1.350000</speed>
</trkpt>
<trkpt lat="22.031319" lon="103.939735">
<ele>735.586426</ele>
<time>2011-04-26T02:57:30Z</time>
<desc>lat.=22.031319, lon.=103.939735, Alt.=735.586426m. Speed=0.612000m/h.</desc>
<speed>0.170000</speed>
</trkpt>
<trkpt lat="22.031292" lon="103.939735">
<ele>734.711426</ele>
<time>2011-04-26T02:57:35Z</time>
<desc>lat.=22.031292, lon.=103.939735, Alt.=734.711426m. Speed=0.828000m/h.</desc>
<speed>0.230000</speed>
</trkpt>
<trkpt lat="22.031282" lon="103.939720">
<ele>735.258301</ele>
<time>2011-04-26T02:57:40Z</time>
<desc>lat.=22.031282, lon.=103.939720, Alt.=735.258301m. Speed=1.188000m/h.</desc>
<speed>0.330000</speed>
</trkpt>
<trkpt lat="22.031267" lon="103.939690">
<ele>734.086426</ele>
<time>2011-04-26T02:57:45Z</time>
<desc>lat.=22.031267, lon.=103.939690, Alt.=734.086426m. Speed=1.440000m/h.</desc>
<speed>0.400000</speed>
</trkpt>
<trkpt lat="22.031321" lon="103.939674">
<ele>734.430176</ele>
<time>2011-04-26T02:57:50Z</time>
<desc>lat.=22.031321, lon.=103.939674, Alt.=734.430176m. Speed=1.080000m/h.</desc>
<speed>0.300000</speed>
</trkpt>
<trkpt lat="22.031305" lon="103.939690">
<ele>733.836426</ele>
<time>2011-04-26T02:57:55Z</time>
<desc>lat.=22.031305, lon.=103.939690, Alt.=733.836426m. Speed=0.504000m/h.</desc>
<speed>0.140000</speed>
</trkpt>
<trkpt lat="22.031303" lon="103.939690">
<ele>734.273926</ele>
<time>2011-04-26T02:58:00Z</time>
<desc>lat.=22.031303, lon.=103.939690, Alt.=734.273926m. Speed=0.396000m/h.</desc>
<speed>0.110000</speed>
</trkpt>
<trkpt lat="22.031263" lon="103.939682">
<ele>734.086426</ele>
<time>2011-04-26T02:58:05Z</time>
<desc>lat.=22.031263, lon.=103.939682, Alt.=734.086426m. Speed=0.972000m/h.</desc>
<speed>0.270000</speed>
</trkpt>
<trkpt lat="22.031225" lon="103.939674">
<ele>732.695801</ele>
<time>2011-04-26T02:58:10Z</time>
<desc>lat.=22.031225, lon.=103.939674, Alt.=732.695801m. Speed=0.144000m/h.</desc>
<speed>0.040000</speed>
</trkpt>
<trkpt lat="22.031225" lon="103.939674">
<ele>732.867676</ele>
<time>2011-04-26T02:58:15Z</time>
<desc>lat.=22.031225, lon.=103.939674, Alt.=732.867676m. Speed=0.180000m/h.</desc>
<speed>0.050000</speed>
</trkpt>
<trkpt lat="22.031223" lon="103.939682">
<ele>733.039551</ele>
<time>2011-04-26T02:58:20Z</time>
<desc>lat.=22.031223, lon.=103.939682, Alt.=733.039551m. Speed=0.288000m/h.</desc>
<speed>0.080000</speed>
</trkpt>
<trkpt lat="22.031225" lon="103.939682">
<ele>733.227051</ele>
<time>2011-04-26T02:58:25Z</time>
<desc>lat.=22.031225, lon.=103.939682, Alt.=733.227051m. Speed=0.000000m/h.</desc>
<speed>0.000000</speed>
</trkpt>
<trkpt lat="22.031223" lon="103.939682">
<ele>733.414551</ele>
<time>2011-04-26T02:58:30Z</time>
<desc>lat.=22.031223, lon.=103.939682, Alt.=733.414551m. Speed=0.252000m/h.</desc>
<speed>0.070000</speed>
</trkpt>
<trkpt lat="22.031221" lon="103.939674">
<ele>733.586426</ele>
<time>2011-04-26T02:58:35Z</time>
<desc>lat.=22.031221, lon.=103.939674, Alt.=733.586426m. Speed=0.288000m/h.</desc>
<speed>0.080000</speed>
</trkpt>
<trkpt lat="22.031221" lon="103.939674">
<ele>733.758301</ele>
<time>2011-04-26T02:58:40Z</time>
<desc>lat.=22.031221, lon.=103.939674, Alt.=733.758301m. Speed=0.360000m/h.</desc>
<speed>0.100000</speed>
</trkpt>
<trkpt lat="22.031265" lon="103.939667">
<ele>733.336426</ele>
<time>2011-04-26T02:58:45Z</time>
<desc>lat.=22.031265, lon.=103.939667, Alt.=733.336426m. Speed=1.080000m/h.</desc>
<speed>0.300000</speed>
</trkpt>
<trkpt lat="22.031292" lon="103.939651">
<ele>732.633301</ele>
<time>2011-04-26T02:58:50Z</time>
<desc>lat.=22.031292, lon.=103.939651, Alt.=732.633301m. Speed=1.332000m/h.</desc>
<speed>0.370000</speed>
</trkpt>
<trkpt lat="22.031324" lon="103.939636">
<ele>731.711426</ele>
<time>2011-04-26T02:58:55Z</time>
<desc>lat.=22.031324, lon.=103.939636, Alt.=731.711426m. Speed=1.476000m/h.</desc>
<speed>0.410000</speed>
</trkpt>
<trkpt lat="22.031389" lon="103.939621">
<ele>730.773926</ele>
<time>2011-04-26T02:59:00Z</time>
<desc>lat.=22.031389, lon.=103.939621, Alt.=730.773926m. Speed=1.872000m/h.</desc>
<speed>0.520000</speed>
</trkpt>
<trkpt lat="22.031443" lon="103.939636">
<ele>730.023926</ele>
<time>2011-04-26T02:59:05Z</time>
<desc>lat.=22.031443, lon.=103.939636, Alt.=730.023926m. Speed=2.016000m/h.</desc>
<speed>0.560000</speed>
</trkpt>
<trkpt lat="22.031456" lon="103.939659">
<ele>729.742676</ele>
<time>2011-04-26T02:59:10Z</time>
<desc>lat.=22.031456, lon.=103.939659, Alt.=729.742676m. Speed=1.836000m/h.</desc>
<speed>0.510000</speed>
</trkpt>
<trkpt lat="22.031416" lon="103.939674">
<ele>729.414551</ele>
<time>2011-04-26T02:59:15Z</time>
<desc>lat.=22.031416, lon.=103.939674, Alt.=729.414551m. Speed=1.116000m/h.</desc>
<speed>0.310000</speed>
</trkpt>
<trkpt lat="22.031368" lon="103.939667">
<ele>729.383301</ele>
<time>2011-04-26T02:59:20Z</time>
<desc>lat.=22.031368, lon.=103.939667, Alt.=729.383301m. Speed=0.504000m/h.</desc>
<speed>0.140000</speed>
</trkpt>
<trkpt lat="22.031315" lon="103.939682">
<ele>729.336426</ele>
<time>2011-04-26T02:59:25Z</time>
<desc>lat.=22.031315, lon.=103.939682, Alt.=729.336426m. Speed=0.216000m/h.</desc>
<speed>0.060000</speed>
</trkpt>
<trkpt lat="22.031315" lon="103.939682">
<ele>729.320801</ele>
<time>2011-04-26T02:59:30Z</time>
<desc>lat.=22.031315, lon.=103.939682, Alt.=729.320801m. Speed=0.144000m/h.</desc>
<speed>0.040000</speed>
</trkpt>
<trkpt lat="22.031317" lon="103.939682">
<ele>729.289551</ele>
<time>2011-04-26T02:59:35Z</time>
<desc>lat.=22.031317, lon.=103.939682, Alt.=729.289551m. Speed=0.504000m/h.</desc>
<speed>0.140000</speed>
</trkpt>
<trkpt lat="22.031326" lon="103.939682">
<ele>729.258301</ele>
<time>2011-04-26T02:59:40Z</time>
<desc>lat.=22.031326, lon.=103.939682, Alt.=729.258301m. Speed=0.936000m/h.</desc>
<speed>0.260000</speed>
</trkpt>
<trkpt lat="22.031349" lon="103.939682">
<ele>729.117676</ele>
<time>2011-04-26T02:59:45Z</time>
<desc>lat.=22.031349, lon.=103.939682, Alt.=729.117676m. Speed=1.188000m/h.</desc>
<speed>0.330000</speed>
</trkpt>
<trkpt lat="22.031399" lon="103.939690">
<ele>728.883301</ele>
<time>2011-04-26T02:59:50Z</time>
<desc>lat.=22.031399, lon.=103.939690, Alt.=728.883301m. Speed=1.404000m/h.</desc>
<speed>0.390000</speed>
</trkpt>
<trkpt lat="22.031441" lon="103.939674">
<ele>728.602051</ele>
<time>2011-04-26T02:59:55Z</time>
<desc>lat.=22.031441, lon.=103.939674, Alt.=728.602051m. Speed=1.332000m/h.</desc>
<speed>0.370000</speed>
</trkpt>
<trkpt lat="22.031519" lon="103.939674">
<ele>727.977051</ele>
<time>2011-04-26T03:00:00Z</time>
<desc>lat.=22.031519, lon.=103.939674, Alt.=727.977051m. Speed=1.764000m/h.</desc>
<speed>0.490000</speed>
</trkpt>
<trkpt lat="22.031635" lon="103.939674">
<ele>727.180176</ele>
<time>2011-04-26T03:00:05Z</time>
<desc>lat.=22.031635, lon.=103.939674, Alt.=727.180176m. Speed=2.340000m/h.</desc>
<speed>0.650000</speed>
</trkpt>
<trkpt lat="22.031712" lon="103.939713">
<ele>726.164551</ele>
<time>2011-04-26T03:00:10Z</time>
<desc>lat.=22.031712, lon.=103.939713, Alt.=726.164551m. Speed=2.340000m/h.</desc>
<speed>0.650000</speed>
</trkpt>
<trkpt lat="22.031731" lon="103.939743">
<ele>724.977051</ele>
<time>2011-04-26T03:00:15Z</time>
<desc>lat.=22.031731, lon.=103.939743, Alt.=724.977051m. Speed=1.368000m/h.</desc>
<speed>0.380000</speed>
</trkpt>
<trkpt lat="22.031723" lon="103.939781">
<ele>724.258301</ele>
<time>2011-04-26T03:00:20Z</time>
<desc>lat.=22.031723, lon.=103.939781, Alt.=724.258301m. Speed=1.008000m/h.</desc>
<speed>0.280000</speed>
</trkpt>
<trkpt lat="22.031710" lon="103.939796">
<ele>724.008301</ele>
<time>2011-04-26T03:00:25Z</time>
<desc>lat.=22.031710, lon.=103.939796, Alt.=724.008301m. Speed=0.576000m/h.</desc>
<speed>0.160000</speed>
</trkpt>
<trkpt lat="22.031710" lon="103.939804">
<ele>723.930176</ele>
<time>2011-04-26T03:00:30Z</time>
<desc>lat.=22.031710, lon.=103.939804, Alt.=723.930176m. Speed=0.504000m/h.</desc>
<speed>0.140000</speed>
</trkpt>
<trkpt lat="22.031603" lon="103.939827">
<ele>723.477051</ele>
<time>2011-04-26T03:00:35Z</time>
<desc>lat.=22.031603, lon.=103.939827, Alt.=723.477051m. Speed=2.232000m/h.</desc>
<speed>0.620000</speed>
</trkpt>
<trkpt lat="22.031479" lon="103.939842">
<ele>722.711426</ele>
<time>2011-04-26T03:00:40Z</time>
<desc>lat.=22.031479, lon.=103.939842, Alt.=722.711426m. Speed=2.196000m/h.</desc>
<speed>0.610000</speed>
</trkpt>
<trkpt lat="22.031422" lon="103.939850">
<ele>722.414551</ele>
<time>2011-04-26T03:00:45Z</time>
<desc>lat.=22.031422, lon.=103.939850, Alt.=722.414551m. Speed=1.944000m/h.</desc>
<speed>0.540000</speed>
</trkpt>
<trkpt lat="22.031389" lon="103.939857">
<ele>721.695801</ele>
<time>2011-04-26T03:00:50Z</time>
<desc>lat.=22.031389, lon.=103.939857, Alt.=721.695801m. Speed=1.692000m/h.</desc>
<speed>0.470000</speed>
</trkpt>
<trkpt lat="22.031324" lon="103.939857">
<ele>720.695801</ele>
<time>2011-04-26T03:00:55Z</time>
<desc>lat.=22.031324, lon.=103.939857, Alt.=720.695801m. Speed=1.944000m/h.</desc>
<speed>0.540000</speed>
</trkpt>
<trkpt lat="22.031263" lon="103.939850">
<ele>719.820801</ele>
<time>2011-04-26T03:01:00Z</time>
<desc>lat.=22.031263, lon.=103.939850, Alt.=719.820801m. Speed=2.268000m/h.</desc>
<speed>0.630000</speed>
</trkpt>
<trkpt lat="22.031210" lon="103.939850">
<ele>718.992676</ele>
<time>2011-04-26T03:01:05Z</time>
<desc>lat.=22.031210, lon.=103.939850, Alt.=718.992676m. Speed=3.060000m/h.</desc>
<speed>0.850000</speed>
</trkpt>
<trkpt lat="22.031170" lon="103.939850">
<ele>718.258301</ele>
<time>2011-04-26T03:01:10Z</time>
<desc>lat.=22.031170, lon.=103.939850, Alt.=718.258301m. Speed=2.880000m/h.</desc>
<speed>0.800000</speed>
</trkpt>
<trkpt lat="22.031164" lon="103.939850">
<ele>717.758301</ele>
<time>2011-04-26T03:01:15Z</time>
<desc>lat.=22.031164, lon.=103.939850, Alt.=717.758301m. Speed=1.404000m/h.</desc>
<speed>0.390000</speed>
</trkpt>
<trkpt lat="22.031179" lon="103.939850">
<ele>717.867676</ele>
<time>2011-04-26T03:01:20Z</time>
<desc>lat.=22.031179, lon.=103.939850, Alt.=717.867676m. Speed=0.756000m/h.</desc>
<speed>0.210000</speed>
</trkpt>
<trkpt lat="22.031179" lon="103.939850">
<ele>717.633301</ele>
<time>2011-04-26T03:01:25Z</time>
<desc>lat.=22.031179, lon.=103.939850, Alt.=717.633301m. Speed=1.368000m/h.</desc>
<speed>0.380000</speed>
</trkpt>
<trkpt lat="22.031319" lon="103.939865">
<ele>716.836426</ele>
<time>2011-04-26T03:01:30Z</time>
<desc>lat.=22.031319, lon.=103.939865, Alt.=716.836426m. Speed=4.068000m/h.</desc>
<speed>1.130000</speed>
</trkpt>
<trkpt lat="22.031418" lon="103.939888">
<ele>718.070801</ele>
<time>2011-04-26T03:01:35Z</time>
<desc>lat.=22.031418, lon.=103.939888, Alt.=718.070801m. Speed=4.500000m/h.</desc>
<speed>1.250000</speed>
</trkpt>
<trkpt lat="22.031517" lon="103.939873">
<ele>718.508301</ele>
<time>2011-04-26T03:01:40Z</time>
<desc>lat.=22.031517, lon.=103.939873, Alt.=718.508301m. Speed=4.716000m/h.</desc>
<speed>1.310000</speed>
</trkpt>
<trkpt lat="22.031605" lon="103.939835">
<ele>719.773926</ele>
<time>2011-04-26T03:01:45Z</time>
<desc>lat.=22.031605, lon.=103.939835, Alt.=719.773926m. Speed=6.480000m/h.</desc>
<speed>1.800000</speed>
</trkpt>
<trkpt lat="22.031658" lon="103.939789">
<ele>721.164551</ele>
<time>2011-04-26T03:01:50Z</time>
<desc>lat.=22.031658, lon.=103.939789, Alt.=721.164551m. Speed=4.536000m/h.</desc>
<speed>1.260000</speed>
</trkpt>
<trkpt lat="22.031736" lon="103.939751">
<ele>722.523926</ele>
<time>2011-04-26T03:01:55Z</time>
<desc>lat.=22.031736, lon.=103.939751, Alt.=722.523926m. Speed=5.112000m/h.</desc>
<speed>1.420000</speed>
</trkpt>
<trkpt lat="22.031824" lon="103.939690">
<ele>724.117676</ele>
<time>2011-04-26T03:02:00Z</time>
<desc>lat.=22.031824, lon.=103.939690, Alt.=724.117676m. Speed=7.920000m/h.</desc>
<speed>2.200000</speed>
</trkpt>
<trkpt lat="22.031931" lon="103.939629">
<ele>724.664551</ele>
<time>2011-04-26T03:02:05Z</time>
<desc>lat.=22.031931, lon.=103.939629, Alt.=724.664551m. Speed=6.372000m/h.</desc>
<speed>1.770000</speed>
</trkpt>
<trkpt lat="22.032051" lon="103.939583">
<ele>726.070801</ele>
<time>2011-04-26T03:02:10Z</time>
<desc>lat.=22.032051, lon.=103.939583, Alt.=726.070801m. Speed=7.776000m/h.</desc>
<speed>2.160000</speed>
</trkpt>
<trkpt lat="22.032152" lon="103.939507">
<ele>727.742676</ele>
<time>2011-04-26T03:02:15Z</time>
<desc>lat.=22.032152, lon.=103.939507, Alt.=727.742676m. Speed=10.224000m/h.</desc>
<speed>2.840000</speed>
</trkpt>
<trkpt lat="22.032227" lon="103.939453">
<ele>728.930176</ele>
<time>2011-04-26T03:02:20Z</time>
<desc>lat.=22.032227, lon.=103.939453, Alt.=728.930176m. Speed=7.200000m/h.</desc>
<speed>2.000000</speed>
</trkpt>
<trkpt lat="22.032343" lon="103.939423">
<ele>731.055176</ele>
<time>2011-04-26T03:02:25Z</time>
<desc>lat.=22.032343, lon.=103.939423, Alt.=731.055176m. Speed=7.308000m/h.</desc>
<speed>2.030000</speed>
</trkpt>
<trkpt lat="22.032444" lon="103.939407">
<ele>732.820801</ele>
<time>2011-04-26T03:02:30Z</time>
<desc>lat.=22.032444, lon.=103.939407, Alt.=732.820801m. Speed=9.252000m/h.</desc>
<speed>2.570000</speed>
</trkpt>
<trkpt lat="22.032562" lon="103.939400">
<ele>734.633301</ele>
<time>2011-04-26T03:02:35Z</time>
<desc>lat.=22.032562, lon.=103.939400, Alt.=734.633301m. Speed=9.072000m/h.</desc>
<speed>2.520000</speed>
</trkpt>
<trkpt lat="22.032690" lon="103.939415">
<ele>736.289551</ele>
<time>2011-04-26T03:02:40Z</time>
<desc>lat.=22.032690, lon.=103.939415, Alt.=736.289551m. Speed=8.244000m/h.</desc>
<speed>2.290000</speed>
</trkpt>
<trkpt lat="22.032793" lon="103.939438">
<ele>734.727051</ele>
<time>2011-04-26T03:02:45Z</time>
<desc>lat.=22.032793, lon.=103.939438, Alt.=734.727051m. Speed=9.936000m/h.</desc>
<speed>2.760000</speed>
</trkpt>
<trkpt lat="22.032911" lon="103.939507">
<ele>734.289551</ele>
<time>2011-04-26T03:02:50Z</time>
<desc>lat.=22.032911, lon.=103.939507, Alt.=734.289551m. Speed=9.828000m/h.</desc>
<speed>2.730000</speed>
</trkpt>
<trkpt lat="22.033016" lon="103.939575">
<ele>734.930176</ele>
<time>2011-04-26T03:02:55Z</time>
<desc>lat.=22.033016, lon.=103.939575, Alt.=734.930176m. Speed=7.848000m/h.</desc>
<speed>2.180000</speed>
</trkpt>
<trkpt lat="22.033094" lon="103.939629">
<ele>734.320801</ele>
<time>2011-04-26T03:03:00Z</time>
<desc>lat.=22.033094, lon.=103.939629, Alt.=734.320801m. Speed=8.244000m/h.</desc>
<speed>2.290000</speed>
</trkpt>
<trkpt lat="22.033186" lon="103.939697">
<ele>734.320801</ele>
<time>2011-04-26T03:03:05Z</time>
<desc>lat.=22.033186, lon.=103.939697, Alt.=734.320801m. Speed=9.144000m/h.</desc>
<speed>2.540000</speed>
</trkpt>
<trkpt lat="22.033251" lon="103.939758">
<ele>735.195801</ele>
<time>2011-04-26T03:03:10Z</time>
<desc>lat.=22.033251, lon.=103.939758, Alt.=735.195801m. Speed=8.712000m/h.</desc>
<speed>2.420000</speed>
</trkpt>
<trkpt lat="22.033325" lon="103.939827">
<ele>734.992676</ele>
<time>2011-04-26T03:03:15Z</time>
<desc>lat.=22.033325, lon.=103.939827, Alt.=734.992676m. Speed=7.344000m/h.</desc>
<speed>2.040000</speed>
</trkpt>
<trkpt lat="22.033419" lon="103.939873">
<ele>734.430176</ele>
<time>2011-04-26T03:03:20Z</time>
<desc>lat.=22.033419, lon.=103.939873, Alt.=734.430176m. Speed=5.760000m/h.</desc>
<speed>1.600000</speed>
</trkpt>
<trkpt lat="22.033512" lon="103.939888">
<ele>734.523926</ele>
<time>2011-04-26T03:03:25Z</time>
<desc>lat.=22.033512, lon.=103.939888, Alt.=734.523926m. Speed=9.288000m/h.</desc>
<speed>2.580000</speed>
</trkpt>
<trkpt lat="22.033655" lon="103.939873">
<ele>734.477051</ele>
<time>2011-04-26T03:03:30Z</time>
<desc>lat.=22.033655, lon.=103.939873, Alt.=734.477051m. Speed=6.588000m/h.</desc>
<speed>1.830000</speed>
</trkpt>
<trkpt lat="22.033749" lon="103.939842">
<ele>735.133301</ele>
<time>2011-04-26T03:03:35Z</time>
<desc>lat.=22.033749, lon.=103.939842, Alt.=735.133301m. Speed=6.696000m/h.</desc>
<speed>1.860000</speed>
</trkpt>
<trkpt lat="22.033802" lon="103.939796">
<ele>735.195801</ele>
<time>2011-04-26T03:03:40Z</time>
<desc>lat.=22.033802, lon.=103.939796, Alt.=735.195801m. Speed=5.256000m/h.</desc>
<speed>1.460000</speed>
</trkpt>
<trkpt lat="22.033838" lon="103.939743">
<ele>734.867676</ele>
<time>2011-04-26T03:03:45Z</time>
<desc>lat.=22.033838, lon.=103.939743, Alt.=734.867676m. Speed=5.220000m/h.</desc>
<speed>1.450000</speed>
</trkpt>
<trkpt lat="22.033873" lon="103.939667">
<ele>734.727051</ele>
<time>2011-04-26T03:03:50Z</time>
<desc>lat.=22.033873, lon.=103.939667, Alt.=734.727051m. Speed=4.536000m/h.</desc>
<speed>1.260000</speed>
</trkpt>
<trkpt lat="22.033895" lon="103.939575">
<ele>734.430176</ele>
<time>2011-04-26T03:03:55Z</time>
<desc>lat.=22.033895, lon.=103.939575, Alt.=734.430176m. Speed=6.804000m/h.</desc>
<speed>1.890000</speed>
</trkpt>
<trkpt lat="22.033890" lon="103.939476">
<ele>734.289551</ele>
<time>2011-04-26T03:04:00Z</time>
<desc>lat.=22.033890, lon.=103.939476, Alt.=734.289551m. Speed=6.300000m/h.</desc>
<speed>1.750000</speed>
</trkpt>
<trkpt lat="22.033892" lon="103.939369">
<ele>734.664551</ele>
<time>2011-04-26T03:04:05Z</time>
<desc>lat.=22.033892, lon.=103.939369, Alt.=734.664551m. Speed=6.840000m/h.</desc>
<speed>1.900000</speed>
</trkpt>
<trkpt lat="22.033918" lon="103.939278">
<ele>735.336426</ele>
<time>2011-04-26T03:04:10Z</time>
<desc>lat.=22.033918, lon.=103.939278, Alt.=735.336426m. Speed=7.056000m/h.</desc>
<speed>1.960000</speed>
</trkpt>
<trkpt lat="22.033886" lon="103.939201">
<ele>734.367676</ele>
<time>2011-04-26T03:04:15Z</time>
<desc>lat.=22.033886, lon.=103.939201, Alt.=734.367676m. Speed=6.912000m/h.</desc>
<speed>1.920000</speed>
</trkpt>
<trkpt lat="22.033924" lon="103.939133">
<ele>734.570801</ele>
<time>2011-04-26T03:04:20Z</time>
<desc>lat.=22.033924, lon.=103.939133, Alt.=734.570801m. Speed=4.896000m/h.</desc>
<speed>1.360000</speed>
</trkpt>
<trkpt lat="22.033983" lon="103.939102">
<ele>734.711426</ele>
<time>2011-04-26T03:04:25Z</time>
<desc>lat.=22.033983, lon.=103.939102, Alt.=734.711426m. Speed=5.112000m/h.</desc>
<speed>1.420000</speed>
</trkpt>
<trkpt lat="22.034081" lon="103.939102">
<ele>733.102051</ele>
<time>2011-04-26T03:04:30Z</time>
<desc>lat.=22.034081, lon.=103.939102, Alt.=733.102051m. Speed=4.824000m/h.</desc>
<speed>1.340000</speed>
</trkpt>
<trkpt lat="22.034174" lon="103.939102">
<ele>733.070801</ele>
<time>2011-04-26T03:04:35Z</time>
<desc>lat.=22.034174, lon.=103.939102, Alt.=733.070801m. Speed=7.272000m/h.</desc>
<speed>2.020000</speed>
</trkpt>
<trkpt lat="22.034241" lon="103.939133">
<ele>733.398926</ele>
<time>2011-04-26T03:04:40Z</time>
<desc>lat.=22.034241, lon.=103.939133, Alt.=733.398926m. Speed=6.552000m/h.</desc>
<speed>1.820000</speed>
</trkpt>
<trkpt lat="22.034317" lon="103.939148">
<ele>733.508301</ele>
<time>2011-04-26T03:04:45Z</time>
<desc>lat.=22.034317, lon.=103.939148, Alt.=733.508301m. Speed=5.616000m/h.</desc>
<speed>1.560000</speed>
</trkpt>
<trkpt lat="22.034378" lon="103.939163">
<ele>733.617676</ele>
<time>2011-04-26T03:04:50Z</time>
<desc>lat.=22.034378, lon.=103.939163, Alt.=733.617676m. Speed=4.860000m/h.</desc>
<speed>1.350000</speed>
</trkpt>
<trkpt lat="22.034433" lon="103.939209">
<ele>732.492676</ele>
<time>2011-04-26T03:04:55Z</time>
<desc>lat.=22.034433, lon.=103.939209, Alt.=732.492676m. Speed=6.012000m/h.</desc>
<speed>1.670000</speed>
</trkpt>
<trkpt lat="22.034540" lon="103.939224">
<ele>733.367676</ele>
<time>2011-04-26T03:05:00Z</time>
<desc>lat.=22.034540, lon.=103.939224, Alt.=733.367676m. Speed=6.192000m/h.</desc>
<speed>1.720000</speed>
</trkpt>
<trkpt lat="22.034630" lon="103.939232">
<ele>734.352051</ele>
<time>2011-04-26T03:05:05Z</time>
<desc>lat.=22.034630, lon.=103.939232, Alt.=734.352051m. Speed=5.688000m/h.</desc>
<speed>1.580000</speed>
</trkpt>
<trkpt lat="22.034710" lon="103.939255">
<ele>735.930176</ele>
<time>2011-04-26T03:05:10Z</time>
<desc>lat.=22.034710, lon.=103.939255, Alt.=735.930176m. Speed=4.176000m/h.</desc>
<speed>1.160000</speed>
</trkpt>
<trkpt lat="22.034788" lon="103.939247">
<ele>736.164551</ele>
<time>2011-04-26T03:05:15Z</time>
<desc>lat.=22.034788, lon.=103.939247, Alt.=736.164551m. Speed=4.392000m/h.</desc>
<speed>1.220000</speed>
</trkpt>
<trkpt lat="22.034847" lon="103.939247">
<ele>736.086426</ele>
<time>2011-04-26T03:05:20Z</time>
<desc>lat.=22.034847, lon.=103.939247, Alt.=736.086426m. Speed=4.860000m/h.</desc>
<speed>1.350000</speed>
</trkpt>
<trkpt lat="22.034920" lon="103.939262">
<ele>735.852051</ele>
<time>2011-04-26T03:05:25Z</time>
<desc>lat.=22.034920, lon.=103.939262, Alt.=735.852051m. Speed=5.724000m/h.</desc>
<speed>1.590000</speed>
</trkpt>
<trkpt lat="22.035009" lon="103.939255">
<ele>737.430176</ele>
<time>2011-04-26T03:05:30Z</time>
<desc>lat.=22.035009, lon.=103.939255, Alt.=737.430176m. Speed=5.580000m/h.</desc>
<speed>1.550000</speed>
</trkpt>
<trkpt lat="22.035067" lon="103.939240">
<ele>740.320801</ele>
<time>2011-04-26T03:05:35Z</time>
<desc>lat.=22.035067, lon.=103.939240, Alt.=740.320801m. Speed=2.772000m/h.</desc>
<speed>0.770000</speed>
</trkpt>
<trkpt lat="22.035109" lon="103.939224">
<ele>741.383301</ele>
<time>2011-04-26T03:05:40Z</time>
<desc>lat.=22.035109, lon.=103.939224, Alt.=741.383301m. Speed=2.232000m/h.</desc>
<speed>0.620000</speed>
</trkpt>
<trkpt lat="22.035141" lon="103.939209">
<ele>742.727051</ele>
<time>2011-04-26T03:05:45Z</time>
<desc>lat.=22.035141, lon.=103.939209, Alt.=742.727051m. Speed=2.196000m/h.</desc>
<speed>0.610000</speed>
</trkpt>
<trkpt lat="22.035206" lon="103.939201">
<ele>744.852051</ele>
<time>2011-04-26T03:05:50Z</time>
<desc>lat.=22.035206, lon.=103.939201, Alt.=744.852051m. Speed=3.564000m/h.</desc>
<speed>0.990000</speed>
</trkpt>
<trkpt lat="22.035271" lon="103.939186">
<ele>746.773926</ele>
<time>2011-04-26T03:05:55Z</time>
<desc>lat.=22.035271, lon.=103.939186, Alt.=746.773926m. Speed=3.348000m/h.</desc>
<speed>0.930000</speed>
</trkpt>
<trkpt lat="22.035328" lon="103.939171">
<ele>748.930176</ele>
<time>2011-04-26T03:06:00Z</time>
<desc>lat.=22.035328, lon.=103.939171, Alt.=748.930176m. Speed=2.376000m/h.</desc>
<speed>0.660000</speed>
</trkpt>
<trkpt lat="22.035391" lon="103.939148">
<ele>753.211426</ele>
<time>2011-04-26T03:06:05Z</time>
<desc>lat.=22.035391, lon.=103.939148, Alt.=753.211426m. Speed=2.628000m/h.</desc>
<speed>0.730000</speed>
</trkpt>
<trkpt lat="22.035465" lon="103.939125">
<ele>756.008301</ele>
<time>2011-04-26T03:06:10Z</time>
<desc>lat.=22.035465, lon.=103.939125, Alt.=756.008301m. Speed=2.808000m/h.</desc>
<speed>0.780000</speed>
</trkpt>
<trkpt lat="22.035519" lon="103.939087">
<ele>757.836426</ele>
<time>2011-04-26T03:06:15Z</time>
<desc>lat.=22.035519, lon.=103.939087, Alt.=757.836426m. Speed=3.924000m/h.</desc>
<speed>1.090000</speed>
</trkpt>
<trkpt lat="22.035603" lon="103.939064">
<ele>757.992676</ele>
<time>2011-04-26T03:06:20Z</time>
<desc>lat.=22.035603, lon.=103.939064, Alt.=757.992676m. Speed=5.832000m/h.</desc>
<speed>1.620000</speed>
</trkpt>
<trkpt lat="22.035654" lon="103.939049">
<ele>758.352051</ele>
<time>2011-04-26T03:06:25Z</time>
<desc>lat.=22.035654, lon.=103.939049, Alt.=758.352051m. Speed=1.620000m/h.</desc>
<speed>0.450000</speed>
</trkpt>
<trkpt lat="22.035704" lon="103.939026">
<ele>759.492676</ele>
<time>2011-04-26T03:06:30Z</time>
<desc>lat.=22.035704, lon.=103.939026, Alt.=759.492676m. Speed=4.356000m/h.</desc>
<speed>1.210000</speed>
</trkpt>
<trkpt lat="22.035784" lon="103.939026">
<ele>758.398926</ele>
<time>2011-04-26T03:06:35Z</time>
<desc>lat.=22.035784, lon.=103.939026, Alt.=758.398926m. Speed=3.168000m/h.</desc>
<speed>0.880000</speed>
</trkpt>
<trkpt lat="22.035837" lon="103.939026">
<ele>759.258301</ele>
<time>2011-04-26T03:06:40Z</time>
<desc>lat.=22.035837, lon.=103.939026, Alt.=759.258301m. Speed=3.816000m/h.</desc>
<speed>1.060000</speed>
</trkpt>
<trkpt lat="22.035887" lon="103.939026">
<ele>756.930176</ele>
<time>2011-04-26T03:06:45Z</time>
<desc>lat.=22.035887, lon.=103.939026, Alt.=756.930176m. Speed=3.348000m/h.</desc>
<speed>0.930000</speed>
</trkpt>
<trkpt lat="22.035925" lon="103.939041">
<ele>756.102051</ele>
<time>2011-04-26T03:06:50Z</time>
<desc>lat.=22.035925, lon.=103.939041, Alt.=756.102051m. Speed=3.384000m/h.</desc>
<speed>0.940000</speed>
</trkpt>
<trkpt lat="22.035967" lon="103.939056">
<ele>755.148926</ele>
<time>2011-04-26T03:06:55Z</time>
<desc>lat.=22.035967, lon.=103.939056, Alt.=755.148926m. Speed=3.636000m/h.</desc>
<speed>1.010000</speed>
</trkpt>
<trkpt lat="22.036022" lon="103.939056">
<ele>752.992676</ele>
<time>2011-04-26T03:07:00Z</time>
<desc>lat.=22.036022, lon.=103.939056, Alt.=752.992676m. Speed=3.600000m/h.</desc>
<speed>1.000000</speed>
</trkpt>
<trkpt lat="22.036079" lon="103.939041">
<ele>753.398926</ele>
<time>2011-04-26T03:07:05Z</time>
<desc>lat.=22.036079, lon.=103.939041, Alt.=753.398926m. Speed=4.320000m/h.</desc>
<speed>1.200000</speed>
</trkpt>
<trkpt lat="22.036135" lon="103.939049">
<ele>752.758301</ele>
<time>2011-04-26T03:07:10Z</time>
<desc>lat.=22.036135, lon.=103.939049, Alt.=752.758301m. Speed=3.420000m/h.</desc>
<speed>0.950000</speed>
</trkpt>
<trkpt lat="22.036184" lon="103.939041">
<ele>754.008301</ele>
<time>2011-04-26T03:07:15Z</time>
<desc>lat.=22.036184, lon.=103.939041, Alt.=754.008301m. Speed=3.312000m/h.</desc>
<speed>0.920000</speed>
</trkpt>
<trkpt lat="22.036232" lon="103.939056">
<ele>755.133301</ele>
<time>2011-04-26T03:07:20Z</time>
<desc>lat.=22.036232, lon.=103.939056, Alt.=755.133301m. Speed=3.024000m/h.</desc>
<speed>0.840000</speed>
</trkpt>
<trkpt lat="22.036289" lon="103.939072">
<ele>754.570801</ele>
<time>2011-04-26T03:07:25Z</time>
<desc>lat.=22.036289, lon.=103.939072, Alt.=754.570801m. Speed=4.104000m/h.</desc>
<speed>1.140000</speed>
</trkpt>
<trkpt lat="22.036364" lon="103.939064">
<ele>754.836426</ele>
<time>2011-04-26T03:07:30Z</time>
<desc>lat.=22.036364, lon.=103.939064, Alt.=754.836426m. Speed=4.572000m/h.</desc>
<speed>1.270000</speed>
</trkpt>
<trkpt lat="22.036432" lon="103.939049">
<ele>755.836426</ele>
<time>2011-04-26T03:07:35Z</time>
<desc>lat.=22.036432, lon.=103.939049, Alt.=755.836426m. Speed=4.536000m/h.</desc>
<speed>1.260000</speed>
</trkpt>
<trkpt lat="22.036507" lon="103.939049">
<ele>756.586426</ele>
<time>2011-04-26T03:07:40Z</time>
<desc>lat.=22.036507, lon.=103.939049, Alt.=756.586426m. Speed=4.968000m/h.</desc>
<speed>1.380000</speed>
</trkpt>
<trkpt lat="22.036554" lon="103.939064">
<ele>758.367676</ele>
<time>2011-04-26T03:07:45Z</time>
<desc>lat.=22.036554, lon.=103.939064, Alt.=758.367676m. Speed=3.276000m/h.</desc>
<speed>0.910000</speed>
</trkpt>
<trkpt lat="22.036591" lon="103.939056">
<ele>760.242676</ele>
<time>2011-04-26T03:07:50Z</time>
<desc>lat.=22.036591, lon.=103.939056, Alt.=760.242676m. Speed=3.672000m/h.</desc>
<speed>1.020000</speed>
</trkpt>
<trkpt lat="22.036657" lon="103.939056">
<ele>759.383301</ele>
<time>2011-04-26T03:07:55Z</time>
<desc>lat.=22.036657, lon.=103.939056, Alt.=759.383301m. Speed=4.356000m/h.</desc>
<speed>1.210000</speed>
</trkpt>
<trkpt lat="22.036695" lon="103.939064">
<ele>760.086426</ele>
<time>2011-04-26T03:08:00Z</time>
<desc>lat.=22.036695, lon.=103.939064, Alt.=760.086426m. Speed=0.648000m/h.</desc>
<speed>0.180000</speed>
</trkpt>
<trkpt lat="22.036711" lon="103.939072">
<ele>760.023926</ele>
<time>2011-04-26T03:08:05Z</time>
<desc>lat.=22.036711, lon.=103.939072, Alt.=760.023926m. Speed=0.756000m/h.</desc>
<speed>0.210000</speed>
</trkpt>
<trkpt lat="22.036718" lon="103.939064">
<ele>760.633301</ele>
<time>2011-04-26T03:08:10Z</time>
<desc>lat.=22.036718, lon.=103.939064, Alt.=760.633301m. Speed=0.360000m/h.</desc>
<speed>0.100000</speed>
</trkpt>
<trkpt lat="22.036722" lon="103.939072">
<ele>761.258301</ele>
<time>2011-04-26T03:08:15Z</time>
<desc>lat.=22.036722, lon.=103.939072, Alt.=761.258301m. Speed=0.288000m/h.</desc>
<speed>0.080000</speed>
</trkpt>
<trkpt lat="22.036724" lon="103.939072">
<ele>761.867676</ele>
<time>2011-04-26T03:08:20Z</time>
<desc>lat.=22.036724, lon.=103.939072, Alt.=761.867676m. Speed=0.360000m/h.</desc>
<speed>0.100000</speed>
</trkpt>
<trkpt lat="22.036741" lon="103.939072">
<ele>762.523926</ele>
<time>2011-04-26T03:08:25Z</time>
<desc>lat.=22.036741, lon.=103.939072, Alt.=762.523926m. Speed=2.124000m/h.</desc>
<speed>0.590000</speed>
</trkpt>
<trkpt lat="22.036789" lon="103.939087">
<ele>762.773926</ele>
<time>2011-04-26T03:08:30Z</time>
<desc>lat.=22.036789, lon.=103.939087, Alt.=762.773926m. Speed=4.320000m/h.</desc>
<speed>1.200000</speed>
</trkpt>
<trkpt lat="22.036846" lon="103.939110">
<ele>763.570801</ele>
<time>2011-04-26T03:08:35Z</time>
<desc>lat.=22.036846, lon.=103.939110, Alt.=763.570801m. Speed=5.364000m/h.</desc>
<speed>1.490000</speed>
</trkpt>
<trkpt lat="22.036905" lon="103.939140">
<ele>763.539551</ele>
<time>2011-04-26T03:08:40Z</time>
<desc>lat.=22.036905, lon.=103.939140, Alt.=763.539551m. Speed=4.500000m/h.</desc>
<speed>1.250000</speed>
</trkpt>
<trkpt lat="22.036964" lon="103.939194">
<ele>763.789551</ele>
<time>2011-04-26T03:08:45Z</time>
<desc>lat.=22.036964, lon.=103.939194, Alt.=763.789551m. Speed=5.688000m/h.</desc>
<speed>1.580000</speed>
</trkpt>
<trkpt lat="22.037020" lon="103.939270">
<ele>763.289551</ele>
<time>2011-04-26T03:08:50Z</time>
<desc>lat.=22.037020, lon.=103.939270, Alt.=763.289551m. Speed=5.400000m/h.</desc>
<speed>1.500000</speed>
</trkpt>
<trkpt lat="22.037060" lon="103.939316">
<ele>763.383301</ele>
<time>2011-04-26T03:08:55Z</time>
<desc>lat.=22.037060, lon.=103.939316, Alt.=763.383301m. Speed=6.012000m/h.</desc>
<speed>1.670000</speed>
</trkpt>
<trkpt lat="22.037079" lon="103.939400">
<ele>763.852051</ele>
<time>2011-04-26T03:09:00Z</time>
<desc>lat.=22.037079, lon.=103.939400, Alt.=763.852051m. Speed=7.920000m/h.</desc>
<speed>2.200000</speed>
</trkpt>
<trkpt lat="22.037085" lon="103.939484">
<ele>765.727051</ele>
<time>2011-04-26T03:09:05Z</time>
<desc>lat.=22.037085, lon.=103.939484, Alt.=765.727051m. Speed=5.616000m/h.</desc>
<speed>1.560000</speed>
</trkpt>
<trkpt lat="22.037100" lon="103.939552">
<ele>766.773926</ele>
<time>2011-04-26T03:09:10Z</time>
<desc>lat.=22.037100, lon.=103.939552, Alt.=766.773926m. Speed=4.176000m/h.</desc>
<speed>1.160000</speed>
</trkpt>
<trkpt lat="22.037094" lon="103.939613">
<ele>768.836426</ele>
<time>2011-04-26T03:09:15Z</time>
<desc>lat.=22.037094, lon.=103.939613, Alt.=768.836426m. Speed=5.580000m/h.</desc>
<speed>1.550000</speed>
</trkpt>
<trkpt lat="22.037117" lon="103.939674">
<ele>771.164551</ele>
<time>2011-04-26T03:09:20Z</time>
<desc>lat.=22.037117, lon.=103.939674, Alt.=771.164551m. Speed=5.508000m/h.</desc>
<speed>1.530000</speed>
</trkpt>
<trkpt lat="22.037119" lon="103.939751">
<ele>773.242676</ele>
<time>2011-04-26T03:09:25Z</time>
<desc>lat.=22.037119, lon.=103.939751, Alt.=773.242676m. Speed=4.464000m/h.</desc>
<speed>1.240000</speed>
</trkpt>
<trkpt lat="22.037127" lon="103.939842">
<ele>776.336426</ele>
<time>2011-04-26T03:09:30Z</time>
<desc>lat.=22.037127, lon.=103.939842, Alt.=776.336426m. Speed=4.248000m/h.</desc>
<speed>1.180000</speed>
</trkpt>
<trkpt lat="22.037138" lon="103.939903">
<ele>778.242676</ele>
<time>2011-04-26T03:09:35Z</time>
<desc>lat.=22.037138, lon.=103.939903, Alt.=778.242676m. Speed=4.140000m/h.</desc>
<speed>1.150000</speed>
</trkpt>
<trkpt lat="22.037153" lon="103.939987">
<ele>779.961426</ele>
<time>2011-04-26T03:09:40Z</time>
<desc>lat.=22.037153, lon.=103.939987, Alt.=779.961426m. Speed=4.968000m/h.</desc>
<speed>1.380000</speed>
</trkpt>
<trkpt lat="22.037146" lon="103.940079">
<ele>781.852051</ele>
<time>2011-04-26T03:09:45Z</time>
<desc>lat.=22.037146, lon.=103.940079, Alt.=781.852051m. Speed=4.896000m/h.</desc>
<speed>1.360000</speed>
</trkpt>
<trkpt lat="22.037153" lon="103.940163">
<ele>784.102051</ele>
<time>2011-04-26T03:09:50Z</time>
<desc>lat.=22.037153, lon.=103.940163, Alt.=784.102051m. Speed=3.096000m/h.</desc>
<speed>0.860000</speed>
</trkpt>
<trkpt lat="22.037155" lon="103.940216">
<ele>785.773926</ele>
<time>2011-04-26T03:09:55Z</time>
<desc>lat.=22.037155, lon.=103.940216, Alt.=785.773926m. Speed=3.960000m/h.</desc>
<speed>1.100000</speed>
</trkpt>
<trkpt lat="22.037153" lon="103.940277">
<ele>786.555176</ele>
<time>2011-04-26T03:10:00Z</time>
<desc>lat.=22.037153, lon.=103.940277, Alt.=786.555176m. Speed=3.528000m/h.</desc>
<speed>0.980000</speed>
</trkpt>
<trkpt lat="22.037169" lon="103.940361">
<ele>787.930176</ele>
<time>2011-04-26T03:10:05Z</time>
<desc>lat.=22.037169, lon.=103.940361, Alt.=787.930176m. Speed=5.040000m/h.</desc>
<speed>1.400000</speed>
</trkpt>
<trkpt lat="22.037172" lon="103.940422">
<ele>789.664551</ele>
<time>2011-04-26T03:10:10Z</time>
<desc>lat.=22.037172, lon.=103.940422, Alt.=789.664551m. Speed=4.608000m/h.</desc>
<speed>1.280000</speed>
</trkpt>
<trkpt lat="22.037201" lon="103.940506">
<ele>792.242676</ele>
<time>2011-04-26T03:10:15Z</time>
<desc>lat.=22.037201, lon.=103.940506, Alt.=792.242676m. Speed=6.372000m/h.</desc>
<speed>1.770000</speed>
</trkpt>
<trkpt lat="22.037231" lon="103.940590">
<ele>793.508301</ele>
<time>2011-04-26T03:10:20Z</time>
<desc>lat.=22.037231, lon.=103.940590, Alt.=793.508301m. Speed=5.400000m/h.</desc>
<speed>1.500000</speed>
</trkpt>
<trkpt lat="22.037260" lon="103.940674">
<ele>793.758301</ele>
<time>2011-04-26T03:10:25Z</time>
<desc>lat.=22.037260, lon.=103.940674, Alt.=793.758301m. Speed=4.284000m/h.</desc>
<speed>1.190000</speed>
</trkpt>
<trkpt lat="22.037294" lon="103.940742">
<ele>794.430176</ele>
<time>2011-04-26T03:10:30Z</time>
<desc>lat.=22.037294, lon.=103.940742, Alt.=794.430176m. Speed=4.464000m/h.</desc>
<speed>1.240000</speed>
</trkpt>
<trkpt lat="22.037348" lon="103.940826">
<ele>793.055176</ele>
<time>2011-04-26T03:10:35Z</time>
<desc>lat.=22.037348, lon.=103.940826, Alt.=793.055176m. Speed=4.032000m/h.</desc>
<speed>1.120000</speed>
</trkpt>
<trkpt lat="22.037430" lon="103.940872">
<ele>791.898926</ele>
<time>2011-04-26T03:10:40Z</time>
<desc>lat.=22.037430, lon.=103.940872, Alt.=791.898926m. Speed=4.932000m/h.</desc>
<speed>1.370000</speed>
</trkpt>
<trkpt lat="22.037495" lon="103.940910">
<ele>790.648926</ele>
<time>2011-04-26T03:10:45Z</time>
<desc>lat.=22.037495, lon.=103.940910, Alt.=790.648926m. Speed=4.644000m/h.</desc>
<speed>1.290000</speed>
</trkpt>
<trkpt lat="22.037542" lon="103.940964">
<ele>789.852051</ele>
<time>2011-04-26T03:10:50Z</time>
<desc>lat.=22.037542, lon.=103.940964, Alt.=789.852051m. Speed=5.184000m/h.</desc>
<speed>1.440000</speed>
</trkpt>
<trkpt lat="22.037605" lon="103.940994">
<ele>789.633301</ele>
<time>2011-04-26T03:10:55Z</time>
<desc>lat.=22.037605, lon.=103.940994, Alt.=789.633301m. Speed=6.012000m/h.</desc>
<speed>1.670000</speed>
</trkpt>
<trkpt lat="22.037659" lon="103.941025">
<ele>787.602051</ele>
<time>2011-04-26T03:11:00Z</time>
<desc>lat.=22.037659, lon.=103.941025, Alt.=787.602051m. Speed=4.284000m/h.</desc>
<speed>1.190000</speed>
</trkpt>
<trkpt lat="22.037727" lon="103.941055">
<ele>787.195801</ele>
<time>2011-04-26T03:11:05Z</time>
<desc>lat.=22.037727, lon.=103.941055, Alt.=787.195801m. Speed=4.716000m/h.</desc>
<speed>1.310000</speed>
</trkpt>
<trkpt lat="22.037766" lon="103.941086">
<ele>787.148926</ele>
<time>2011-04-26T03:11:10Z</time>
<desc>lat.=22.037766, lon.=103.941086, Alt.=787.148926m. Speed=4.104000m/h.</desc>
<speed>1.140000</speed>
</trkpt>
<trkpt lat="22.037792" lon="103.941116">
<ele>786.805176</ele>
<time>2011-04-26T03:11:15Z</time>
<desc>lat.=22.037792, lon.=103.941116, Alt.=786.805176m. Speed=3.132000m/h.</desc>
<speed>0.870000</speed>
</trkpt>
<trkpt lat="22.037848" lon="103.941154">
<ele>786.102051</ele>
<time>2011-04-26T03:11:20Z</time>
<desc>lat.=22.037848, lon.=103.941154, Alt.=786.102051m. Speed=4.716000m/h.</desc>
<speed>1.310000</speed>
</trkpt>
<trkpt lat="22.037888" lon="103.941200">
<ele>785.805176</ele>
<time>2011-04-26T03:11:25Z</time>
<desc>lat.=22.037888, lon.=103.941200, Alt.=785.805176m. Speed=4.284000m/h.</desc>
<speed>1.190000</speed>
</trkpt>
<trkpt lat="22.037937" lon="103.941246">
<ele>785.773926</ele>
<time>2011-04-26T03:11:30Z</time>
<desc>lat.=22.037937, lon.=103.941246, Alt.=785.773926m. Speed=4.464000m/h.</desc>
<speed>1.240000</speed>
</trkpt>
<trkpt lat="22.037966" lon="103.941307">
<ele>785.992676</ele>
<time>2011-04-26T03:11:35Z</time>
<desc>lat.=22.037966, lon.=103.941307, Alt.=785.992676m. Speed=4.896000m/h.</desc>
<speed>1.360000</speed>
</trkpt>
<trkpt lat="22.037985" lon="103.941360">
<ele>785.914551</ele>
<time>2011-04-26T03:11:40Z</time>
<desc>lat.=22.037985, lon.=103.941360, Alt.=785.914551m. Speed=3.852000m/h.</desc>
<speed>1.070000</speed>
</trkpt>
<trkpt lat="22.037981" lon="103.941429">
<ele>786.070801</ele>
<time>2011-04-26T03:11:45Z</time>
<desc>lat.=22.037981, lon.=103.941429, Alt.=786.070801m. Speed=4.140000m/h.</desc>
<speed>1.150000</speed>
</trkpt>
<trkpt lat="22.037979" lon="103.941475">
<ele>786.289551</ele>
<time>2011-04-26T03:11:50Z</time>
<desc>lat.=22.037979, lon.=103.941475, Alt.=786.289551m. Speed=3.132000m/h.</desc>
<speed>0.870000</speed>
</trkpt>
<trkpt lat="22.037985" lon="103.941544">
<ele>785.586426</ele>
<time>2011-04-26T03:11:55Z</time>
<desc>lat.=22.037985, lon.=103.941544, Alt.=785.586426m. Speed=4.284000m/h.</desc>
<speed>1.190000</speed>
</trkpt>
<trkpt lat="22.037991" lon="103.941605">
<ele>785.836426</ele>
<time>2011-04-26T03:12:00Z</time>
<desc>lat.=22.037991, lon.=103.941605, Alt.=785.836426m. Speed=3.744000m/h.</desc>
<speed>1.040000</speed>
</trkpt>
<trkpt lat="22.037998" lon="103.941643">
<ele>785.773926</ele>
<time>2011-04-26T03:12:05Z</time>
<desc>lat.=22.037998, lon.=103.941643, Alt.=785.773926m. Speed=2.808000m/h.</desc>
<speed>0.780000</speed>
</trkpt>
<trkpt lat="22.037998" lon="103.941711">
<ele>785.805176</ele>
<time>2011-04-26T03:12:10Z</time>
<desc>lat.=22.037998, lon.=103.941711, Alt.=785.805176m. Speed=4.428000m/h.</desc>
<speed>1.230000</speed>
</trkpt>
<trkpt lat="22.037977" lon="103.941780">
<ele>786.133301</ele>
<time>2011-04-26T03:12:15Z</time>
<desc>lat.=22.037977, lon.=103.941780, Alt.=786.133301m. Speed=5.004000m/h.</desc>
<speed>1.390000</speed>
</trkpt>
<trkpt lat="22.037949" lon="103.941841">
<ele>786.539551</ele>
<time>2011-04-26T03:12:20Z</time>
<desc>lat.=22.037949, lon.=103.941841, Alt.=786.539551m. Speed=4.104000m/h.</desc>
<speed>1.140000</speed>
</trkpt>
<trkpt lat="22.037956" lon="103.941895">
<ele>787.555176</ele>
<time>2011-04-26T03:12:25Z</time>
<desc>lat.=22.037956, lon.=103.941895, Alt.=787.555176m. Speed=3.564000m/h.</desc>
<speed>0.990000</speed>
</trkpt>
<trkpt lat="22.038010" lon="103.941978">
<ele>789.414551</ele>
<time>2011-04-26T03:12:30Z</time>
<desc>lat.=22.038010, lon.=103.941978, Alt.=789.414551m. Speed=4.320000m/h.</desc>
<speed>1.200000</speed>
</trkpt>
<trkpt lat="22.038054" lon="103.942062">
<ele>789.523926</ele>
<time>2011-04-26T03:12:35Z</time>
<desc>lat.=22.038054, lon.=103.942062, Alt.=789.523926m. Speed=4.284000m/h.</desc>
<speed>1.190000</speed>
</trkpt>
<trkpt lat="22.038128" lon="103.942169">
<ele>788.586426</ele>
<time>2011-04-26T03:12:40Z</time>
<desc>lat.=22.038128, lon.=103.942169, Alt.=788.586426m. Speed=3.672000m/h.</desc>
<speed>1.020000</speed>
</trkpt>
<trkpt lat="22.038153" lon="103.942223">
<ele>789.336426</ele>
<time>2011-04-26T03:12:45Z</time>
<desc>lat.=22.038153, lon.=103.942223, Alt.=789.336426m. Speed=5.616000m/h.</desc>
<speed>1.560000</speed>
</trkpt>
<trkpt lat="22.038206" lon="103.942284">
<ele>789.961426</ele>
<time>2011-04-26T03:12:50Z</time>
<desc>lat.=22.038206, lon.=103.942284, Alt.=789.961426m. Speed=5.220000m/h.</desc>
<speed>1.450000</speed>
</trkpt>
<trkpt lat="22.038216" lon="103.942345">
<ele>790.070801</ele>
<time>2011-04-26T03:12:55Z</time>
<desc>lat.=22.038216, lon.=103.942345, Alt.=790.070801m. Speed=5.256000m/h.</desc>
<speed>1.460000</speed>
</trkpt>
<trkpt lat="22.038235" lon="103.942398">
<ele>790.273926</ele>
<time>2011-04-26T03:13:00Z</time>
<desc>lat.=22.038235, lon.=103.942398, Alt.=790.273926m. Speed=3.960000m/h.</desc>
<speed>1.100000</speed>
</trkpt>
<trkpt lat="22.038275" lon="103.942459">
<ele>790.508301</ele>
<time>2011-04-26T03:13:05Z</time>
<desc>lat.=22.038275, lon.=103.942459, Alt.=790.508301m. Speed=4.176000m/h.</desc>
<speed>1.160000</speed>
</trkpt>
<trkpt lat="22.038300" lon="103.942535">
<ele>790.008301</ele>
<time>2011-04-26T03:13:10Z</time>
<desc>lat.=22.038300, lon.=103.942535, Alt.=790.008301m. Speed=3.924000m/h.</desc>
<speed>1.090000</speed>
</trkpt>
<trkpt lat="22.038282" lon="103.942612">
<ele>789.586426</ele>
<time>2011-04-26T03:13:15Z</time>
<desc>lat.=22.038282, lon.=103.942612, Alt.=789.586426m. Speed=4.572000m/h.</desc>
<speed>1.270000</speed>
</trkpt>
<trkpt lat="22.038267" lon="103.942696">
<ele>789.102051</ele>
<time>2011-04-26T03:13:20Z</time>
<desc>lat.=22.038267, lon.=103.942696, Alt.=789.102051m. Speed=4.896000m/h.</desc>
<speed>1.360000</speed>
</trkpt>
<trkpt lat="22.038246" lon="103.942764">
<ele>789.086426</ele>
<time>2011-04-26T03:13:25Z</time>
<desc>lat.=22.038246, lon.=103.942764, Alt.=789.086426m. Speed=4.896000m/h.</desc>
<speed>1.360000</speed>
</trkpt>
<trkpt lat="22.038282" lon="103.942825">
<ele>789.648926</ele>
<time>2011-04-26T03:13:30Z</time>
<desc>lat.=22.038282, lon.=103.942825, Alt.=789.648926m. Speed=4.536000m/h.</desc>
<speed>1.260000</speed>
</trkpt>
<trkpt lat="22.038279" lon="103.942879">
<ele>791.258301</ele>
<time>2011-04-26T03:13:35Z</time>
<desc>lat.=22.038279, lon.=103.942879, Alt.=791.258301m. Speed=4.140000m/h.</desc>
<speed>1.150000</speed>
</trkpt>
<trkpt lat="22.038271" lon="103.942955">
<ele>791.977051</ele>
<time>2011-04-26T03:13:40Z</time>
<desc>lat.=22.038271, lon.=103.942955, Alt.=791.977051m. Speed=4.104000m/h.</desc>
<speed>1.140000</speed>
</trkpt>
<trkpt lat="22.038267" lon="103.943024">
<ele>792.586426</ele>
<time>2011-04-26T03:13:45Z</time>
<desc>lat.=22.038267, lon.=103.943024, Alt.=792.586426m. Speed=3.672000m/h.</desc>
<speed>1.020000</speed>
</trkpt>
<trkpt lat="22.038242" lon="103.943085">
<ele>793.320801</ele>
<time>2011-04-26T03:13:50Z</time>
<desc>lat.=22.038242, lon.=103.943085, Alt.=793.320801m. Speed=4.608000m/h.</desc>
<speed>1.280000</speed>
</trkpt>
<trkpt lat="22.038246" lon="103.943146">
<ele>793.758301</ele>
<time>2011-04-26T03:13:55Z</time>
<desc>lat.=22.038246, lon.=103.943146, Alt.=793.758301m. Speed=4.572000m/h.</desc>
<speed>1.270000</speed>
</trkpt>
<trkpt lat="22.038231" lon="103.943230">
<ele>794.383301</ele>
<time>2011-04-26T03:14:00Z</time>
<desc>lat.=22.038231, lon.=103.943230, Alt.=794.383301m. Speed=5.004000m/h.</desc>
<speed>1.390000</speed>
</trkpt>
<trkpt lat="22.038235" lon="103.943283">
<ele>794.945801</ele>
<time>2011-04-26T03:14:05Z</time>
<desc>lat.=22.038235, lon.=103.943283, Alt.=794.945801m. Speed=3.060000m/h.</desc>
<speed>0.850000</speed>
</trkpt>
<trkpt lat="22.038242" lon="103.943352">
<ele>794.758301</ele>
<time>2011-04-26T03:14:10Z</time>
<desc>lat.=22.038242, lon.=103.943352, Alt.=794.758301m. Speed=3.888000m/h.</desc>
<speed>1.080000</speed>
</trkpt>
<trkpt lat="22.038239" lon="103.943428">
<ele>795.961426</ele>
<time>2011-04-26T03:14:15Z</time>
<desc>lat.=22.038239, lon.=103.943428, Alt.=795.961426m. Speed=5.112000m/h.</desc>
<speed>1.420000</speed>
</trkpt>
<trkpt lat="22.038244" lon="103.943489">
<ele>796.461426</ele>
<time>2011-04-26T03:14:20Z</time>
<desc>lat.=22.038244, lon.=103.943489, Alt.=796.461426m. Speed=5.940000m/h.</desc>
<speed>1.650000</speed>
</trkpt>
<trkpt lat="22.038286" lon="103.943581">
<ele>797.867676</ele>
<time>2011-04-26T03:14:25Z</time>
<desc>lat.=22.038286, lon.=103.943581, Alt.=797.867676m. Speed=6.624000m/h.</desc>
<speed>1.840000</speed>
</trkpt>
<trkpt lat="22.038301" lon="103.943642">
<ele>799.133301</ele>
<time>2011-04-26T03:14:30Z</time>
<desc>lat.=22.038301, lon.=103.943642, Alt.=799.133301m. Speed=3.456000m/h.</desc>
<speed>0.960000</speed>
</trkpt>
<trkpt lat="22.038324" lon="103.943710">
<ele>800.352051</ele>
<time>2011-04-26T03:14:35Z</time>
<desc>lat.=22.038324, lon.=103.943710, Alt.=800.352051m. Speed=4.356000m/h.</desc>
<speed>1.210000</speed>
</trkpt>
<trkpt lat="22.038340" lon="103.943756">
<ele>800.883301</ele>
<time>2011-04-26T03:14:40Z</time>
<desc>lat.=22.038340, lon.=103.943756, Alt.=800.883301m. Speed=3.312000m/h.</desc>
<speed>0.920000</speed>
</trkpt>
<trkpt lat="22.038334" lon="103.943817">
<ele>801.133301</ele>
<time>2011-04-26T03:14:45Z</time>
<desc>lat.=22.038334, lon.=103.943817, Alt.=801.133301m. Speed=3.132000m/h.</desc>
<speed>0.870000</speed>
</trkpt>
<trkpt lat="22.038307" lon="103.943855">
<ele>801.617676</ele>
<time>2011-04-26T03:14:50Z</time>
<desc>lat.=22.038307, lon.=103.943855, Alt.=801.617676m. Speed=3.600000m/h.</desc>
<speed>1.000000</speed>
</trkpt>
<trkpt lat="22.038275" lon="103.943909">
<ele>802.805176</ele>
<time>2011-04-26T03:14:55Z</time>
<desc>lat.=22.038275, lon.=103.943909, Alt.=802.805176m. Speed=3.996000m/h.</desc>
<speed>1.110000</speed>
</trkpt>
<trkpt lat="22.038219" lon="103.943970">
<ele>803.836426</ele>
<time>2011-04-26T03:15:00Z</time>
<desc>lat.=22.038219, lon.=103.943970, Alt.=803.836426m. Speed=4.140000m/h.</desc>
<speed>1.150000</speed>
</trkpt>
<trkpt lat="22.038170" lon="103.944023">
<ele>804.664551</ele>
<time>2011-04-26T03:15:05Z</time>
<desc>lat.=22.038170, lon.=103.944023, Alt.=804.664551m. Speed=3.960000m/h.</desc>
<speed>1.100000</speed>
</trkpt>
<trkpt lat="22.038172" lon="103.944038">
<ele>805.352051</ele>
<time>2011-04-26T03:15:10Z</time>
<desc>lat.=22.038172, lon.=103.944038, Alt.=805.352051m. Speed=1.296000m/h.</desc>
<speed>0.360000</speed>
</trkpt>
<trkpt lat="22.038187" lon="103.944038">
<ele>805.805176</ele>
<time>2011-04-26T03:15:15Z</time>
<desc>lat.=22.038187, lon.=103.944038, Alt.=805.805176m. Speed=0.540000m/h.</desc>
<speed>0.150000</speed>
</trkpt>
<trkpt lat="22.038193" lon="103.944046">
<ele>806.383301</ele>
<time>2011-04-26T03:15:20Z</time>
<desc>lat.=22.038193, lon.=103.944046, Alt.=806.383301m. Speed=0.324000m/h.</desc>
<speed>0.090000</speed>
</trkpt>
<trkpt lat="22.038193" lon="103.944046">
<ele>806.992676</ele>
<time>2011-04-26T03:15:25Z</time>
<desc>lat.=22.038193, lon.=103.944046, Alt.=806.992676m. Speed=0.252000m/h.</desc>
<speed>0.070000</speed>
</trkpt>
<trkpt lat="22.038189" lon="103.944046">
<ele>807.586426</ele>
<time>2011-04-26T03:15:30Z</time>
<desc>lat.=22.038189, lon.=103.944046, Alt.=807.586426m. Speed=0.180000m/h.</desc>
<speed>0.050000</speed>
</trkpt>
<trkpt lat="22.038187" lon="103.944046">
<ele>808.180176</ele>
<time>2011-04-26T03:15:35Z</time>
<desc>lat.=22.038187, lon.=103.944046, Alt.=808.180176m. Speed=0.144000m/h.</desc>
<speed>0.040000</speed>
</trkpt>
<trkpt lat="22.038189" lon="103.944046">
<ele>808.758301</ele>
<time>2011-04-26T03:15:40Z</time>
<desc>lat.=22.038189, lon.=103.944046, Alt.=808.758301m. Speed=0.432000m/h.</desc>
<speed>0.120000</speed>
</trkpt>
<trkpt lat="22.038189" lon="103.944038">
<ele>809.352051</ele>
<time>2011-04-26T03:15:45Z</time>
<desc>lat.=22.038189, lon.=103.944038, Alt.=809.352051m. Speed=0.648000m/h.</desc>
<speed>0.180000</speed>
</trkpt>
<trkpt lat="22.038193" lon="103.944023">
<ele>809.930176</ele>
<time>2011-04-26T03:15:50Z</time>
<desc>lat.=22.038193, lon.=103.944023, Alt.=809.930176m. Speed=0.792000m/h.</desc>
<speed>0.220000</speed>
</trkpt>
<trkpt lat="22.038197" lon="103.944016">
<ele>810.508301</ele>
<time>2011-04-26T03:15:55Z</time>
<desc>lat.=22.038197, lon.=103.944016, Alt.=810.508301m. Speed=0.684000m/h.</desc>
<speed>0.190000</speed>
</trkpt>
<trkpt lat="22.038200" lon="103.944016">
<ele>811.086426</ele>
<time>2011-04-26T03:16:00Z</time>
<desc>lat.=22.038200, lon.=103.944016, Alt.=811.086426m. Speed=0.432000m/h.</desc>
<speed>0.120000</speed>
</trkpt>
<trkpt lat="22.038204" lon="103.944008">
<ele>811.680176</ele>
<time>2011-04-26T03:16:05Z</time>
<desc>lat.=22.038204, lon.=103.944008, Alt.=811.680176m. Speed=0.396000m/h.</desc>
<speed>0.110000</speed>
</trkpt>
<trkpt lat="22.038208" lon="103.944008">
<ele>812.258301</ele>
<time>2011-04-26T03:16:10Z</time>
<desc>lat.=22.038208, lon.=103.944008, Alt.=812.258301m. Speed=0.252000m/h.</desc>
<speed>0.070000</speed>
</trkpt>
<trkpt lat="22.038208" lon="103.944008">
<ele>812.836426</ele>
<time>2011-04-26T03:16:15Z</time>
<desc>lat.=22.038208, lon.=103.944008, Alt.=812.836426m. Speed=0.288000m/h.</desc>
<speed>0.080000</speed>
</trkpt>
<trkpt lat="22.038206" lon="103.944008">
<ele>813.414551</ele>
<time>2011-04-26T03:16:20Z</time>
<desc>lat.=22.038206, lon.=103.944008, Alt.=813.414551m. Speed=0.216000m/h.</desc>
<speed>0.060000</speed>
</trkpt>
<trkpt lat="22.038204" lon="103.944008">
<ele>813.992676</ele>
<time>2011-04-26T03:16:25Z</time>
<desc>lat.=22.038204, lon.=103.944008, Alt.=813.992676m. Speed=0.180000m/h.</desc>
<speed>0.050000</speed>
</trkpt>
<trkpt lat="22.038204" lon="103.944008">
<ele>814.555176</ele>
<time>2011-04-26T03:16:30Z</time>
<desc>lat.=22.038204, lon.=103.944008, Alt.=814.555176m. Speed=0.180000m/h.</desc>
<speed>0.050000</speed>
</trkpt>
<trkpt lat="22.038198" lon="103.944008">
<ele>815.117676</ele>
<time>2011-04-26T03:16:35Z</time>
<desc>lat.=22.038198, lon.=103.944008, Alt.=815.117676m. Speed=0.576000m/h.</desc>
<speed>0.160000</speed>
</trkpt>
<trkpt lat="22.038191" lon="103.944008">
<ele>815.664551</ele>
<time>2011-04-26T03:16:40Z</time>
<desc>lat.=22.038191, lon.=103.944008, Alt.=815.664551m. Speed=0.864000m/h.</desc>
<speed>0.240000</speed>
</trkpt>
<trkpt lat="22.038162" lon="103.944046">
<ele>816.086426</ele>
<time>2011-04-26T03:16:45Z</time>
<desc>lat.=22.038162, lon.=103.944046, Alt.=816.086426m. Speed=2.556000m/h.</desc>
<speed>0.710000</speed>
</trkpt>
<trkpt lat="22.038111" lon="103.944107">
<ele>816.148926</ele>
<time>2011-04-26T03:16:50Z</time>
<desc>lat.=22.038111, lon.=103.944107, Alt.=816.148926m. Speed=4.356000m/h.</desc>
<speed>1.210000</speed>
</trkpt>
<trkpt lat="22.038048" lon="103.944183">
<ele>816.133301</ele>
<time>2011-04-26T03:16:55Z</time>
<desc>lat.=22.038048, lon.=103.944183, Alt.=816.133301m. Speed=4.608000m/h.</desc>
<speed>1.280000</speed>
</trkpt>
<trkpt lat="22.037996" lon="103.944237">
<ele>815.539551</ele>
<time>2011-04-26T03:17:00Z</time>
<desc>lat.=22.037996, lon.=103.944237, Alt.=815.539551m. Speed=4.536000m/h.</desc>
<speed>1.260000</speed>
</trkpt>
<trkpt lat="22.037949" lon="103.944290">
<ele>814.836426</ele>
<time>2011-04-26T03:17:05Z</time>
<desc>lat.=22.037949, lon.=103.944290, Alt.=814.836426m. Speed=4.716000m/h.</desc>
<speed>1.310000</speed>
</trkpt>
<trkpt lat="22.037874" lon="103.944351">
<ele>813.367676</ele>
<time>2011-04-26T03:17:10Z</time>
<desc>lat.=22.037874, lon.=103.944351, Alt.=813.367676m. Speed=4.896000m/h.</desc>
<speed>1.360000</speed>
</trkpt>
<trkpt lat="22.037792" lon="103.944412">
<ele>811.711426</ele>
<time>2011-04-26T03:17:15Z</time>
<desc>lat.=22.037792, lon.=103.944412, Alt.=811.711426m. Speed=4.680000m/h.</desc>
<speed>1.300000</speed>
</trkpt>
<trkpt lat="22.037739" lon="103.944466">
<ele>811.633301</ele>
<time>2011-04-26T03:17:20Z</time>
<desc>lat.=22.037739, lon.=103.944466, Alt.=811.633301m. Speed=4.068000m/h.</desc>
<speed>1.130000</speed>
</trkpt>
<trkpt lat="22.037683" lon="103.944496">
<ele>810.727051</ele>
<time>2011-04-26T03:17:25Z</time>
<desc>lat.=22.037683, lon.=103.944496, Alt.=810.727051m. Speed=4.140000m/h.</desc>
<speed>1.150000</speed>
</trkpt>
<trkpt lat="22.037609" lon="103.944572">
<ele>811.195801</ele>
<time>2011-04-26T03:17:30Z</time>
<desc>lat.=22.037609, lon.=103.944572, Alt.=811.195801m. Speed=6.696000m/h.</desc>
<speed>1.860000</speed>
</trkpt>
<trkpt lat="22.037567" lon="103.944618">
<ele>810.914551</ele>
<time>2011-04-26T03:17:35Z</time>
<desc>lat.=22.037567, lon.=103.944618, Alt.=810.914551m. Speed=5.040000m/h.</desc>
<speed>1.400000</speed>
</trkpt>
<trkpt lat="22.037525" lon="103.944695">
<ele>810.883301</ele>
<time>2011-04-26T03:17:40Z</time>
<desc>lat.=22.037525, lon.=103.944695, Alt.=810.883301m. Speed=4.572000m/h.</desc>
<speed>1.270000</speed>
</trkpt>
<trkpt lat="22.037477" lon="103.944771">
<ele>811.102051</ele>
<time>2011-04-26T03:17:45Z</time>
<desc>lat.=22.037477, lon.=103.944771, Alt.=811.102051m. Speed=6.372000m/h.</desc>
<speed>1.770000</speed>
</trkpt>
<trkpt lat="22.037458" lon="103.944855">
<ele>811.008301</ele>
<time>2011-04-26T03:17:50Z</time>
<desc>lat.=22.037458, lon.=103.944855, Alt.=811.008301m. Speed=5.508000m/h.</desc>
<speed>1.530000</speed>
</trkpt>
<trkpt lat="22.037468" lon="103.944969">
<ele>811.867676</ele>
<time>2011-04-26T03:17:55Z</time>
<desc>lat.=22.037468, lon.=103.944969, Alt.=811.867676m. Speed=6.048000m/h.</desc>
<speed>1.680000</speed>
</trkpt>
<trkpt lat="22.037447" lon="103.945061">
<ele>812.273926</ele>
<time>2011-04-26T03:18:00Z</time>
<desc>lat.=22.037447, lon.=103.945061, Alt.=812.273926m. Speed=5.976000m/h.</desc>
<speed>1.660000</speed>
</trkpt>
<trkpt lat="22.037415" lon="103.945152">
<ele>811.773926</ele>
<time>2011-04-26T03:18:05Z</time>
<desc>lat.=22.037415, lon.=103.945152, Alt.=811.773926m. Speed=5.292000m/h.</desc>
<speed>1.470000</speed>
</trkpt>
<trkpt lat="22.037451" lon="103.945251">
<ele>812.492676</ele>
<time>2011-04-26T03:18:10Z</time>
<desc>lat.=22.037451, lon.=103.945251, Alt.=812.492676m. Speed=4.932000m/h.</desc>
<speed>1.370000</speed>
</trkpt>
<trkpt lat="22.037416" lon="103.945335">
<ele>813.008301</ele>
<time>2011-04-26T03:18:15Z</time>
<desc>lat.=22.037416, lon.=103.945335, Alt.=813.008301m. Speed=4.824000m/h.</desc>
<speed>1.340000</speed>
</trkpt>
<trkpt lat="22.037409" lon="103.945435">
<ele>813.461426</ele>
<time>2011-04-26T03:18:20Z</time>
<desc>lat.=22.037409, lon.=103.945435, Alt.=813.461426m. Speed=5.904000m/h.</desc>
<speed>1.640000</speed>
</trkpt>
<trkpt lat="22.037384" lon="103.945511">
<ele>814.117676</ele>
<time>2011-04-26T03:18:25Z</time>
<desc>lat.=22.037384, lon.=103.945511, Alt.=814.117676m. Speed=5.508000m/h.</desc>
<speed>1.530000</speed>
</trkpt>
<trkpt lat="22.037378" lon="103.945564">
<ele>814.461426</ele>
<time>2011-04-26T03:18:30Z</time>
<desc>lat.=22.037378, lon.=103.945564, Alt.=814.461426m. Speed=5.184000m/h.</desc>
<speed>1.440000</speed>
</trkpt>
<trkpt lat="22.037369" lon="103.945633">
<ele>815.258301</ele>
<time>2011-04-26T03:18:35Z</time>
<desc>lat.=22.037369, lon.=103.945633, Alt.=815.258301m. Speed=6.480000m/h.</desc>
<speed>1.800000</speed>
</trkpt>
<trkpt lat="22.037365" lon="103.945717">
<ele>815.617676</ele>
<time>2011-04-26T03:18:40Z</time>
<desc>lat.=22.037365, lon.=103.945717, Alt.=815.617676m. Speed=5.040000m/h.</desc>
<speed>1.400000</speed>
</trkpt>
<trkpt lat="22.037331" lon="103.945824">
<ele>816.805176</ele>
<time>2011-04-26T03:18:45Z</time>
<desc>lat.=22.037331, lon.=103.945824, Alt.=816.805176m. Speed=5.472000m/h.</desc>
<speed>1.520000</speed>
</trkpt>
<trkpt lat="22.037294" lon="103.945892">
<ele>816.711426</ele>
<time>2011-04-26T03:18:50Z</time>
<desc>lat.=22.037294, lon.=103.945892, Alt.=816.711426m. Speed=3.996000m/h.</desc>
<speed>1.110000</speed>
</trkpt>
<trkpt lat="22.037270" lon="103.945969">
<ele>816.102051</ele>
<time>2011-04-26T03:18:55Z</time>
<desc>lat.=22.037270, lon.=103.945969, Alt.=816.102051m. Speed=5.076000m/h.</desc>
<speed>1.410000</speed>
</trkpt>
<trkpt lat="22.037237" lon="103.946030">
<ele>816.258301</ele>
<time>2011-04-26T03:19:00Z</time>
<desc>lat.=22.037237, lon.=103.946030, Alt.=816.258301m. Speed=6.480000m/h.</desc>
<speed>1.800000</speed>
</trkpt>
<trkpt lat="22.037201" lon="103.946068">
<ele>816.742676</ele>
<time>2011-04-26T03:19:05Z</time>
<desc>lat.=22.037201, lon.=103.946068, Alt.=816.742676m. Speed=4.140000m/h.</desc>
<speed>1.150000</speed>
</trkpt>
<trkpt lat="22.037148" lon="103.946129">
<ele>816.945801</ele>
<time>2011-04-26T03:19:10Z</time>
<desc>lat.=22.037148, lon.=103.946129, Alt.=816.945801m. Speed=4.320000m/h.</desc>
<speed>1.200000</speed>
</trkpt>
<trkpt lat="22.037098" lon="103.946205">
<ele>817.555176</ele>
<time>2011-04-26T03:19:15Z</time>
<desc>lat.=22.037098, lon.=103.946205, Alt.=817.555176m. Speed=5.688000m/h.</desc>
<speed>1.580000</speed>
</trkpt>
<trkpt lat="22.037037" lon="103.946304">
<ele>818.336426</ele>
<time>2011-04-26T03:19:20Z</time>
<desc>lat.=22.037037, lon.=103.946304, Alt.=818.336426m. Speed=6.984000m/h.</desc>
<speed>1.940000</speed>
</trkpt>
<trkpt lat="22.036972" lon="103.946358">
<ele>819.414551</ele>
<time>2011-04-26T03:19:25Z</time>
<desc>lat.=22.036972, lon.=103.946358, Alt.=819.414551m. Speed=5.076000m/h.</desc>
<speed>1.410000</speed>
</trkpt>
<trkpt lat="22.036900" lon="103.946434">
<ele>819.383301</ele>
<time>2011-04-26T03:19:30Z</time>
<desc>lat.=22.036900, lon.=103.946434, Alt.=819.383301m. Speed=5.760000m/h.</desc>
<speed>1.600000</speed>
</trkpt>
<trkpt lat="22.036837" lon="103.946518">
<ele>820.055176</ele>
<time>2011-04-26T03:19:35Z</time>
<desc>lat.=22.036837, lon.=103.946518, Alt.=820.055176m. Speed=4.572000m/h.</desc>
<speed>1.270000</speed>
</trkpt>
<trkpt lat="22.036787" lon="103.946571">
<ele>821.742676</ele>
<time>2011-04-26T03:19:40Z</time>
<desc>lat.=22.036787, lon.=103.946571, Alt.=821.742676m. Speed=5.940000m/h.</desc>
<speed>1.650000</speed>
</trkpt>
<trkpt lat="22.036730" lon="103.946632">
<ele>822.039551</ele>
<time>2011-04-26T03:19:45Z</time>
<desc>lat.=22.036730, lon.=103.946632, Alt.=822.039551m. Speed=7.920000m/h.</desc>
<speed>2.200000</speed>
</trkpt>
<trkpt lat="22.036674" lon="103.946701">
<ele>822.695801</ele>
<time>2011-04-26T03:19:50Z</time>
<desc>lat.=22.036674, lon.=103.946701, Alt.=822.695801m. Speed=6.300000m/h.</desc>
<speed>1.750000</speed>
</trkpt>
<trkpt lat="22.036631" lon="103.946800">
<ele>823.477051</ele>
<time>2011-04-26T03:19:55Z</time>
<desc>lat.=22.036631, lon.=103.946800, Alt.=823.477051m. Speed=3.492000m/h.</desc>
<speed>0.970000</speed>
</trkpt>
<trkpt lat="22.036608" lon="103.946884">
<ele>822.352051</ele>
<time>2011-04-26T03:20:00Z</time>
<desc>lat.=22.036608, lon.=103.946884, Alt.=822.352051m. Speed=4.824000m/h.</desc>
<speed>1.340000</speed>
</trkpt>
<trkpt lat="22.036570" lon="103.946960">
<ele>823.273926</ele>
<time>2011-04-26T03:20:05Z</time>
<desc>lat.=22.036570, lon.=103.946960, Alt.=823.273926m. Speed=4.356000m/h.</desc>
<speed>1.210000</speed>
</trkpt>
<trkpt lat="22.036520" lon="103.947021">
<ele>823.398926</ele>
<time>2011-04-26T03:20:10Z</time>
<desc>lat.=22.036520, lon.=103.947021, Alt.=823.398926m. Speed=3.492000m/h.</desc>
<speed>0.970000</speed>
</trkpt>
<trkpt lat="22.036417" lon="103.947105">
<ele>824.023926</ele>
<time>2011-04-26T03:20:15Z</time>
<desc>lat.=22.036417, lon.=103.947105, Alt.=824.023926m. Speed=7.524000m/h.</desc>
<speed>2.090000</speed>
</trkpt>
<trkpt lat="22.036345" lon="103.947205">
<ele>823.305176</ele>
<time>2011-04-26T03:20:20Z</time>
<desc>lat.=22.036345, lon.=103.947205, Alt.=823.305176m. Speed=3.564000m/h.</desc>
<speed>0.990000</speed>
</trkpt>
<trkpt lat="22.036287" lon="103.947273">
<ele>823.117676</ele>
<time>2011-04-26T03:20:25Z</time>
<desc>lat.=22.036287, lon.=103.947273, Alt.=823.117676m. Speed=5.940000m/h.</desc>
<speed>1.650000</speed>
</trkpt>
<trkpt lat="22.036251" lon="103.947380">
<ele>823.336426</ele>
<time>2011-04-26T03:20:30Z</time>
<desc>lat.=22.036251, lon.=103.947380, Alt.=823.336426m. Speed=4.140000m/h.</desc>
<speed>1.150000</speed>
</trkpt>
<trkpt lat="22.036224" lon="103.947456">
<ele>822.648926</ele>
<time>2011-04-26T03:20:35Z</time>
<desc>lat.=22.036224, lon.=103.947456, Alt.=822.648926m. Speed=4.716000m/h.</desc>
<speed>1.310000</speed>
</trkpt>
<trkpt lat="22.036226" lon="103.947525">
<ele>822.117676</ele>
<time>2011-04-26T03:20:40Z</time>
<desc>lat.=22.036226, lon.=103.947525, Alt.=822.117676m. Speed=4.032000m/h.</desc>
<speed>1.120000</speed>
</trkpt>
<trkpt lat="22.036234" lon="103.947571">
<ele>822.227051</ele>
<time>2011-04-26T03:20:45Z</time>
<desc>lat.=22.036234, lon.=103.947571, Alt.=822.227051m. Speed=2.916000m/h.</desc>
<speed>0.810000</speed>
</trkpt>
<trkpt lat="22.036274" lon="103.947655">
<ele>823.086426</ele>
<time>2011-04-26T03:20:50Z</time>
<desc>lat.=22.036274, lon.=103.947655, Alt.=823.086426m. Speed=4.392000m/h.</desc>
<speed>1.220000</speed>
</trkpt>
<trkpt lat="22.036341" lon="103.947739">
<ele>823.727051</ele>
<time>2011-04-26T03:20:55Z</time>
<desc>lat.=22.036341, lon.=103.947739, Alt.=823.727051m. Speed=3.456000m/h.</desc>
<speed>0.960000</speed>
</trkpt>
<trkpt lat="22.036396" lon="103.947800">
<ele>825.523926</ele>
<time>2011-04-26T03:21:00Z</time>
<desc>lat.=22.036396, lon.=103.947800, Alt.=825.523926m. Speed=1.404000m/h.</desc>
<speed>0.390000</speed>
</trkpt>
<trkpt lat="22.036377" lon="103.947800">
<ele>825.633301</ele>
<time>2011-04-26T03:21:05Z</time>
<desc>lat.=22.036377, lon.=103.947800, Alt.=825.633301m. Speed=1.188000m/h.</desc>
<speed>0.330000</speed>
</trkpt>
<trkpt lat="22.036373" lon="103.947823">
<ele>825.242676</ele>
<time>2011-04-26T03:21:10Z</time>
<desc>lat.=22.036373, lon.=103.947823, Alt.=825.242676m. Speed=0.396000m/h.</desc>
<speed>0.110000</speed>
</trkpt>
<trkpt lat="22.036369" lon="103.947830">
<ele>825.023926</ele>
<time>2011-04-26T03:21:15Z</time>
<desc>lat.=22.036369, lon.=103.947830, Alt.=825.023926m. Speed=0.648000m/h.</desc>
<speed>0.180000</speed>
</trkpt>
<trkpt lat="22.036371" lon="103.947845">
<ele>824.758301</ele>
<time>2011-04-26T03:21:20Z</time>
<desc>lat.=22.036371, lon.=103.947845, Alt.=824.758301m. Speed=0.864000m/h.</desc>
<speed>0.240000</speed>
</trkpt>
<trkpt lat="22.036388" lon="103.947830">
<ele>824.695801</ele>
<time>2011-04-26T03:21:25Z</time>
<desc>lat.=22.036388, lon.=103.947830, Alt.=824.695801m. Speed=0.864000m/h.</desc>
<speed>0.240000</speed>
</trkpt>
<trkpt lat="22.036413" lon="103.947823">
<ele>824.602051</ele>
<time>2011-04-26T03:21:30Z</time>
<desc>lat.=22.036413, lon.=103.947823, Alt.=824.602051m. Speed=0.828000m/h.</desc>
<speed>0.230000</speed>
</trkpt>
<trkpt lat="22.036423" lon="103.947815">
<ele>824.367676</ele>
<time>2011-04-26T03:21:35Z</time>
<desc>lat.=22.036423, lon.=103.947815, Alt.=824.367676m. Speed=0.756000m/h.</desc>
<speed>0.210000</speed>
</trkpt>
<trkpt lat="22.036430" lon="103.947815">
<ele>824.148926</ele>
<time>2011-04-26T03:21:40Z</time>
<desc>lat.=22.036430, lon.=103.947815, Alt.=824.148926m. Speed=0.504000m/h.</desc>
<speed>0.140000</speed>
</trkpt>
<trkpt lat="22.036436" lon="103.947807">
<ele>823.945801</ele>
<time>2011-04-26T03:21:45Z</time>
<desc>lat.=22.036436, lon.=103.947807, Alt.=823.945801m. Speed=0.216000m/h.</desc>
<speed>0.060000</speed>
</trkpt>
<trkpt lat="22.036436" lon="103.947807">
<ele>823.773926</ele>
<time>2011-04-26T03:21:50Z</time>
<desc>lat.=22.036436, lon.=103.947807, Alt.=823.773926m. Speed=0.216000m/h.</desc>
<speed>0.060000</speed>
</trkpt>
<trkpt lat="22.036434" lon="103.947815">
<ele>823.602051</ele>
<time>2011-04-26T03:21:55Z</time>
<desc>lat.=22.036434, lon.=103.947815, Alt.=823.602051m. Speed=0.216000m/h.</desc>
<speed>0.060000</speed>
</trkpt>
<trkpt lat="22.036432" lon="103.947815">
<ele>823.477051</ele>
<time>2011-04-26T03:22:00Z</time>
<desc>lat.=22.036432, lon.=103.947815, Alt.=823.477051m. Speed=0.252000m/h.</desc>
<speed>0.070000</speed>
</trkpt>
<trkpt lat="22.036430" lon="103.947815">
<ele>823.477051</ele>
<time>2011-04-26T03:22:05Z</time>
<desc>lat.=22.036430, lon.=103.947815, Alt.=823.477051m. Speed=0.144000m/h.</desc>
<speed>0.040000</speed>
</trkpt>
<trkpt lat="22.036432" lon="103.947815">
<ele>823.570801</ele>
<time>2011-04-26T03:22:10Z</time>
<desc>lat.=22.036432, lon.=103.947815, Alt.=823.570801m. Speed=0.288000m/h.</desc>
<speed>0.080000</speed>
</trkpt>
<trkpt lat="22.036436" lon="103.947823">
<ele>823.727051</ele>
<time>2011-04-26T03:22:15Z</time>
<desc>lat.=22.036436, lon.=103.947823, Alt.=823.727051m. Speed=0.504000m/h.</desc>
<speed>0.140000</speed>
</trkpt>
<trkpt lat="22.036444" lon="103.947830">
<ele>823.930176</ele>
<time>2011-04-26T03:22:20Z</time>
<desc>lat.=22.036444, lon.=103.947830, Alt.=823.930176m. Speed=0.756000m/h.</desc>
<speed>0.210000</speed>
</trkpt>
<trkpt lat="22.036453" lon="103.947830">
<ele>824.227051</ele>
<time>2011-04-26T03:22:25Z</time>
<desc>lat.=22.036453, lon.=103.947830, Alt.=824.227051m. Speed=1.008000m/h.</desc>
<speed>0.280000</speed>
</trkpt>
<trkpt lat="22.036480" lon="103.947838">
<ele>826.164551</ele>
<time>2011-04-26T03:22:30Z</time>
<desc>lat.=22.036480, lon.=103.947838, Alt.=826.164551m. Speed=1.044000m/h.</desc>
<speed>0.290000</speed>
</trkpt>
<trkpt lat="22.036488" lon="103.947845">
<ele>827.664551</ele>
<time>2011-04-26T03:22:35Z</time>
<desc>lat.=22.036488, lon.=103.947845, Alt.=827.664551m. Speed=0.648000m/h.</desc>
<speed>0.180000</speed>
</trkpt>
<trkpt lat="22.036493" lon="103.947845">
<ele>828.086426</ele>
<time>2011-04-26T03:22:40Z</time>
<desc>lat.=22.036493, lon.=103.947845, Alt.=828.086426m. Speed=0.396000m/h.</desc>
<speed>0.110000</speed>
</trkpt>
<trkpt lat="22.036497" lon="103.947845">
<ele>828.492676</ele>
<time>2011-04-26T03:22:45Z</time>
<desc>lat.=22.036497, lon.=103.947845, Alt.=828.492676m. Speed=0.144000m/h.</desc>
<speed>0.040000</speed>
</trkpt>
<trkpt lat="22.036497" lon="103.947845">
<ele>828.930176</ele>
<time>2011-04-26T03:22:50Z</time>
<desc>lat.=22.036497, lon.=103.947845, Alt.=828.930176m. Speed=0.216000m/h.</desc>
<speed>0.060000</speed>
</trkpt>
<trkpt lat="22.036499" lon="103.947845">
<ele>829.383301</ele>
<time>2011-04-26T03:22:55Z</time>
<desc>lat.=22.036499, lon.=103.947845, Alt.=829.383301m. Speed=0.144000m/h.</desc>
<speed>0.040000</speed>
</trkpt>
<trkpt lat="22.036501" lon="103.947845">
<ele>829.852051</ele>
<time>2011-04-26T03:23:00Z</time>
<desc>lat.=22.036501, lon.=103.947845, Alt.=829.852051m. Speed=0.324000m/h.</desc>
<speed>0.090000</speed>
</trkpt>
<trkpt lat="22.036507" lon="103.947845">
<ele>830.383301</ele>
<time>2011-04-26T03:23:05Z</time>
<desc>lat.=22.036507, lon.=103.947845, Alt.=830.383301m. Speed=0.576000m/h.</desc>
<speed>0.160000</speed>
</trkpt>
<trkpt lat="22.036512" lon="103.947853">
<ele>830.930176</ele>
<time>2011-04-26T03:23:10Z</time>
<desc>lat.=22.036512, lon.=103.947853, Alt.=830.930176m. Speed=0.576000m/h.</desc>
<speed>0.160000</speed>
</trkpt>
<trkpt lat="22.036518" lon="103.947861">
<ele>831.508301</ele>
<time>2011-04-26T03:23:15Z</time>
<desc>lat.=22.036518, lon.=103.947861, Alt.=831.508301m. Speed=0.612000m/h.</desc>
<speed>0.170000</speed>
</trkpt>
<trkpt lat="22.036524" lon="103.947861">
<ele>832.102051</ele>
<time>2011-04-26T03:23:20Z</time>
<desc>lat.=22.036524, lon.=103.947861, Alt.=832.102051m. Speed=0.648000m/h.</desc>
<speed>0.180000</speed>
</trkpt>
<trkpt lat="22.036531" lon="103.947868">
<ele>832.680176</ele>
<time>2011-04-26T03:23:25Z</time>
<desc>lat.=22.036531, lon.=103.947868, Alt.=832.680176m. Speed=0.792000m/h.</desc>
<speed>0.220000</speed>
</trkpt>
<trkpt lat="22.036539" lon="103.947868">
<ele>833.242676</ele>
<time>2011-04-26T03:23:30Z</time>
<desc>lat.=22.036539, lon.=103.947868, Alt.=833.242676m. Speed=0.468000m/h.</desc>
<speed>0.130000</speed>
</trkpt>
<trkpt lat="22.036543" lon="103.947868">
<ele>833.836426</ele>
<time>2011-04-26T03:23:35Z</time>
<desc>lat.=22.036543, lon.=103.947868, Alt.=833.836426m. Speed=0.288000m/h.</desc>
<speed>0.080000</speed>
</trkpt>
<trkpt lat="22.036547" lon="103.947876">
<ele>834.445801</ele>
<time>2011-04-26T03:23:40Z</time>
<desc>lat.=22.036547, lon.=103.947876, Alt.=834.445801m. Speed=0.396000m/h.</desc>
<speed>0.110000</speed>
</trkpt>
<trkpt lat="22.036551" lon="103.947876">
<ele>835.086426</ele>
<time>2011-04-26T03:23:45Z</time>
<desc>lat.=22.036551, lon.=103.947876, Alt.=835.086426m. Speed=0.396000m/h.</desc>
<speed>0.110000</speed>
</trkpt>
<trkpt lat="22.036554" lon="103.947868">
<ele>835.727051</ele>
<time>2011-04-26T03:23:50Z</time>
<desc>lat.=22.036554, lon.=103.947868, Alt.=835.727051m. Speed=0.324000m/h.</desc>
<speed>0.090000</speed>
</trkpt>
<trkpt lat="22.036554" lon="103.947868">
<ele>836.352051</ele>
<time>2011-04-26T03:23:55Z</time>
<desc>lat.=22.036554, lon.=103.947868, Alt.=836.352051m. Speed=0.648000m/h.</desc>
<speed>0.180000</speed>
</trkpt>
<trkpt lat="22.036552" lon="103.947853">
<ele>836.992676</ele>
<time>2011-04-26T03:24:00Z</time>
<desc>lat.=22.036552, lon.=103.947853, Alt.=836.992676m. Speed=0.720000m/h.</desc>
<speed>0.200000</speed>
</trkpt>
<trkpt lat="22.036552" lon="103.947845">
<ele>837.633301</ele>
<time>2011-04-26T03:24:05Z</time>
<desc>lat.=22.036552, lon.=103.947845, Alt.=837.633301m. Speed=0.360000m/h.</desc>
<speed>0.100000</speed>
</trkpt>
<trkpt lat="22.036552" lon="103.947845">
<ele>838.289551</ele>
<time>2011-04-26T03:24:10Z</time>
<desc>lat.=22.036552, lon.=103.947845, Alt.=838.289551m. Speed=0.252000m/h.</desc>
<speed>0.070000</speed>
</trkpt>
<trkpt lat="22.036554" lon="103.947838">
<ele>838.961426</ele>
<time>2011-04-26T03:24:15Z</time>
<desc>lat.=22.036554, lon.=103.947838, Alt.=838.961426m. Speed=0.252000m/h.</desc>
<speed>0.070000</speed>
</trkpt>
<trkpt lat="22.036558" lon="103.947838">
<ele>839.602051</ele>
<time>2011-04-26T03:24:20Z</time>
<desc>lat.=22.036558, lon.=103.947838, Alt.=839.602051m. Speed=0.252000m/h.</desc>
<speed>0.070000</speed>
</trkpt>
<trkpt lat="22.036558" lon="103.947838">
<ele>840.258301</ele>
<time>2011-04-26T03:24:25Z</time>
<desc>lat.=22.036558, lon.=103.947838, Alt.=840.258301m. Speed=0.576000m/h.</desc>
<speed>0.160000</speed>
</trkpt>
<trkpt lat="22.036558" lon="103.947830">
<ele>840.961426</ele>
<time>2011-04-26T03:24:30Z</time>
<desc>lat.=22.036558, lon.=103.947830, Alt.=840.961426m. Speed=0.540000m/h.</desc>
<speed>0.150000</speed>
</trkpt>
<trkpt lat="22.036558" lon="103.947823">
<ele>841.664551</ele>
<time>2011-04-26T03:24:35Z</time>
<desc>lat.=22.036558, lon.=103.947823, Alt.=841.664551m. Speed=0.468000m/h.</desc>
<speed>0.130000</speed>
</trkpt>
<trkpt lat="22.036558" lon="103.947815">
<ele>842.352051</ele>
<time>2011-04-26T03:24:40Z</time>
<desc>lat.=22.036558, lon.=103.947815, Alt.=842.352051m. Speed=0.936000m/h.</desc>
<speed>0.260000</speed>
</trkpt>
<trkpt lat="22.036552" lon="103.947800">
<ele>843.242676</ele>
<time>2011-04-26T03:24:45Z</time>
<desc>lat.=22.036552, lon.=103.947800, Alt.=843.242676m. Speed=0.828000m/h.</desc>
<speed>0.230000</speed>
</trkpt>
<trkpt lat="22.036554" lon="103.947800">
<ele>843.742676</ele>
<time>2011-04-26T03:24:50Z</time>
<desc>lat.=22.036554, lon.=103.947800, Alt.=843.742676m. Speed=0.504000m/h.</desc>
<speed>0.140000</speed>
</trkpt>
<trkpt lat="22.036554" lon="103.947792">
<ele>844.320801</ele>
<time>2011-04-26T03:24:55Z</time>
<desc>lat.=22.036554, lon.=103.947792, Alt.=844.320801m. Speed=0.468000m/h.</desc>
<speed>0.130000</speed>
</trkpt>
<trkpt lat="22.036554" lon="103.947784">
<ele>844.898926</ele>
<time>2011-04-26T03:25:00Z</time>
<desc>lat.=22.036554, lon.=103.947784, Alt.=844.898926m. Speed=0.252000m/h.</desc>
<speed>0.070000</speed>
</trkpt>
<trkpt lat="22.036556" lon="103.947784">
<ele>845.477051</ele>
<time>2011-04-26T03:25:05Z</time>
<desc>lat.=22.036556, lon.=103.947784, Alt.=845.477051m. Speed=0.216000m/h.</desc>
<speed>0.060000</speed>
</trkpt>
<trkpt lat="22.036558" lon="103.947784">
<ele>846.055176</ele>
<time>2011-04-26T03:25:10Z</time>
<desc>lat.=22.036558, lon.=103.947784, Alt.=846.055176m. Speed=0.180000m/h.</desc>
<speed>0.050000</speed>
</trkpt>
<trkpt lat="22.036560" lon="103.947784">
<ele>846.617676</ele>
<time>2011-04-26T03:25:15Z</time>
<desc>lat.=22.036560, lon.=103.947784, Alt.=846.617676m. Speed=0.216000m/h.</desc>
<speed>0.060000</speed>
</trkpt>
<trkpt lat="22.036566" lon="103.947784">
<ele>847.195801</ele>
<time>2011-04-26T03:25:20Z</time>
<desc>lat.=22.036566, lon.=103.947784, Alt.=847.195801m. Speed=0.648000m/h.</desc>
<speed>0.180000</speed>
</trkpt>
<trkpt lat="22.036572" lon="103.947792">
<ele>847.789551</ele>
<time>2011-04-26T03:25:25Z</time>
<desc>lat.=22.036572, lon.=103.947792, Alt.=847.789551m. Speed=0.576000m/h.</desc>
<speed>0.160000</speed>
</trkpt>
<trkpt lat="22.036575" lon="103.947800">
<ele>848.352051</ele>
<time>2011-04-26T03:25:30Z</time>
<desc>lat.=22.036575, lon.=103.947800, Alt.=848.352051m. Speed=0.216000m/h.</desc>
<speed>0.060000</speed>
</trkpt>
<trkpt lat="22.036575" lon="103.947792">
<ele>848.930176</ele>
<time>2011-04-26T03:25:35Z</time>
<desc>lat.=22.036575, lon.=103.947792, Alt.=848.930176m. Speed=0.360000m/h.</desc>
<speed>0.100000</speed>
</trkpt>
<trkpt lat="22.036577" lon="103.947792">
<ele>849.492676</ele>
<time>2011-04-26T03:25:40Z</time>
<desc>lat.=22.036577, lon.=103.947792, Alt.=849.492676m. Speed=0.216000m/h.</desc>
<speed>0.060000</speed>
</trkpt>
<trkpt lat="22.036579" lon="103.947784">
<ele>850.070801</ele>
<time>2011-04-26T03:25:45Z</time>
<desc>lat.=22.036579, lon.=103.947784, Alt.=850.070801m. Speed=0.216000m/h.</desc>
<speed>0.060000</speed>
</trkpt>
<trkpt lat="22.036579" lon="103.947784">
<ele>850.648926</ele>
<time>2011-04-26T03:25:50Z</time>
<desc>lat.=22.036579, lon.=103.947784, Alt.=850.648926m. Speed=0.288000m/h.</desc>
<speed>0.080000</speed>
</trkpt>
<trkpt lat="22.036581" lon="103.947784">
<ele>851.211426</ele>
<time>2011-04-26T03:25:55Z</time>
<desc>lat.=22.036581, lon.=103.947784, Alt.=851.211426m. Speed=0.216000m/h.</desc>
<speed>0.060000</speed>
</trkpt>
<trkpt lat="22.036583" lon="103.947777">
<ele>851.789551</ele>
<time>2011-04-26T03:26:00Z</time>
<desc>lat.=22.036583, lon.=103.947777, Alt.=851.789551m. Speed=0.216000m/h.</desc>
<speed>0.060000</speed>
</trkpt>
<trkpt lat="22.036583" lon="103.947777">
<ele>852.367676</ele>
<time>2011-04-26T03:26:05Z</time>
<desc>lat.=22.036583, lon.=103.947777, Alt.=852.367676m. Speed=0.324000m/h.</desc>
<speed>0.090000</speed>
</trkpt>
<trkpt lat="22.036583" lon="103.947769">
<ele>852.945801</ele>
<time>2011-04-26T03:26:10Z</time>
<desc>lat.=22.036583, lon.=103.947769, Alt.=852.945801m. Speed=0.396000m/h.</desc>
<speed>0.110000</speed>
</trkpt>
<trkpt lat="22.036583" lon="103.947762">
<ele>853.523926</ele>
<time>2011-04-26T03:26:15Z</time>
<desc>lat.=22.036583, lon.=103.947762, Alt.=853.523926m. Speed=0.324000m/h.</desc>
<speed>0.090000</speed>
</trkpt>
<trkpt lat="22.036585" lon="103.947762">
<ele>854.086426</ele>
<time>2011-04-26T03:26:20Z</time>
<desc>lat.=22.036585, lon.=103.947762, Alt.=854.086426m. Speed=0.288000m/h.</desc>
<speed>0.080000</speed>
</trkpt>
<trkpt lat="22.036585" lon="103.947754">
<ele>854.633301</ele>
<time>2011-04-26T03:26:25Z</time>
<desc>lat.=22.036585, lon.=103.947754, Alt.=854.633301m. Speed=0.216000m/h.</desc>
<speed>0.060000</speed>
</trkpt>
<trkpt lat="22.036587" lon="103.947754">
<ele>855.211426</ele>
<time>2011-04-26T03:26:30Z</time>
<desc>lat.=22.036587, lon.=103.947754, Alt.=855.211426m. Speed=0.180000m/h.</desc>
<speed>0.050000</speed>
</trkpt>
<trkpt lat="22.036591" lon="103.947754">
<ele>855.789551</ele>
<time>2011-04-26T03:26:35Z</time>
<desc>lat.=22.036591, lon.=103.947754, Alt.=855.789551m. Speed=0.648000m/h.</desc>
<speed>0.180000</speed>
</trkpt>
<trkpt lat="22.036596" lon="103.947762">
<ele>856.383301</ele>
<time>2011-04-26T03:26:40Z</time>
<desc>lat.=22.036596, lon.=103.947762, Alt.=856.383301m. Speed=0.540000m/h.</desc>
<speed>0.150000</speed>
</trkpt>
<trkpt lat="22.036600" lon="103.947769">
<ele>856.961426</ele>
<time>2011-04-26T03:26:45Z</time>
<desc>lat.=22.036600, lon.=103.947769, Alt.=856.961426m. Speed=0.324000m/h.</desc>
<speed>0.090000</speed>
</trkpt>
<trkpt lat="22.036604" lon="103.947769">
<ele>857.539551</ele>
<time>2011-04-26T03:26:50Z</time>
<desc>lat.=22.036604, lon.=103.947769, Alt.=857.539551m. Speed=0.252000m/h.</desc>
<speed>0.070000</speed>
</trkpt>
<trkpt lat="22.036606" lon="103.947769">
<ele>858.086426</ele>
<time>2011-04-26T03:26:55Z</time>
<desc>lat.=22.036606, lon.=103.947769, Alt.=858.086426m. Speed=0.216000m/h.</desc>
<speed>0.060000</speed>
</trkpt>
<trkpt lat="22.036608" lon="103.947769">
<ele>858.633301</ele>
<time>2011-04-26T03:27:00Z</time>
<desc>lat.=22.036608, lon.=103.947769, Alt.=858.633301m. Speed=0.216000m/h.</desc>
<speed>0.060000</speed>
</trkpt>
<trkpt lat="22.036612" lon="103.947769">
<ele>859.164551</ele>
<time>2011-04-26T03:27:05Z</time>
<desc>lat.=22.036612, lon.=103.947769, Alt.=859.164551m. Speed=0.180000m/h.</desc>
<speed>0.050000</speed>
</trkpt>
<trkpt lat="22.036613" lon="103.947769">
<ele>859.680176</ele>
<time>2011-04-26T03:27:10Z</time>
<desc>lat.=22.036613, lon.=103.947769, Alt.=859.680176m. Speed=0.144000m/h.</desc>
<speed>0.040000</speed>
</trkpt>
<trkpt lat="22.036615" lon="103.947769">
<ele>860.195801</ele>
<time>2011-04-26T03:27:15Z</time>
<desc>lat.=22.036615, lon.=103.947769, Alt.=860.195801m. Speed=0.216000m/h.</desc>
<speed>0.060000</speed>
</trkpt>
<trkpt lat="22.036615" lon="103.947762">
<ele>860.664551</ele>
<time>2011-04-26T03:27:20Z</time>
<desc>lat.=22.036615, lon.=103.947762, Alt.=860.664551m. Speed=0.396000m/h.</desc>
<speed>0.110000</speed>
</trkpt>
<trkpt lat="22.036613" lon="103.947754">
<ele>861.102051</ele>
<time>2011-04-26T03:27:25Z</time>
<desc>lat.=22.036613, lon.=103.947754, Alt.=861.102051m. Speed=0.432000m/h.</desc>
<speed>0.120000</speed>
</trkpt>
<trkpt lat="22.036615" lon="103.947754">
<ele>861.492676</ele>
<time>2011-04-26T03:27:30Z</time>
<desc>lat.=22.036615, lon.=103.947754, Alt.=861.492676m. Speed=0.180000m/h.</desc>
<speed>0.050000</speed>
</trkpt>
<trkpt lat="22.036615" lon="103.947754">
<ele>861.930176</ele>
<time>2011-04-26T03:27:35Z</time>
<desc>lat.=22.036615, lon.=103.947754, Alt.=861.930176m. Speed=0.360000m/h.</desc>
<speed>0.100000</speed>
</trkpt>
<trkpt lat="22.036615" lon="103.947746">
<ele>862.367676</ele>
<time>2011-04-26T03:27:40Z</time>
<desc>lat.=22.036615, lon.=103.947746, Alt.=862.367676m. Speed=0.396000m/h.</desc>
<speed>0.110000</speed>
</trkpt>
<trkpt lat="22.036613" lon="103.947739">
<ele>862.805176</ele>
<time>2011-04-26T03:27:45Z</time>
<desc>lat.=22.036613, lon.=103.947739, Alt.=862.805176m. Speed=0.396000m/h.</desc>
<speed>0.110000</speed>
</trkpt>
<trkpt lat="22.036615" lon="103.947739">
<ele>863.227051</ele>
<time>2011-04-26T03:27:50Z</time>
<desc>lat.=22.036615, lon.=103.947739, Alt.=863.227051m. Speed=0.072000m/h.</desc>
<speed>0.020000</speed>
</trkpt>
<trkpt lat="22.036617" lon="103.947739">
<ele>863.617676</ele>
<time>2011-04-26T03:27:55Z</time>
<desc>lat.=22.036617, lon.=103.947739, Alt.=863.617676m. Speed=0.612000m/h.</desc>
<speed>0.170000</speed>
</trkpt>
<trkpt lat="22.036623" lon="103.947746">
<ele>863.992676</ele>
<time>2011-04-26T03:28:00Z</time>
<desc>lat.=22.036623, lon.=103.947746, Alt.=863.992676m. Speed=0.504000m/h.</desc>
<speed>0.140000</speed>
</trkpt>
<trkpt lat="22.036623" lon="103.947746">
<ele>864.336426</ele>
<time>2011-04-26T03:28:05Z</time>
<desc>lat.=22.036623, lon.=103.947746, Alt.=864.336426m. Speed=0.072000m/h.</desc>
<speed>0.020000</speed>
</trkpt>
<trkpt lat="22.036625" lon="103.947746">
<ele>864.680176</ele>
<time>2011-04-26T03:28:10Z</time>
<desc>lat.=22.036625, lon.=103.947746, Alt.=864.680176m. Speed=0.144000m/h.</desc>
<speed>0.040000</speed>
</trkpt>
<trkpt lat="22.036627" lon="103.947746">
<ele>865.039551</ele>
<time>2011-04-26T03:28:15Z</time>
<desc>lat.=22.036627, lon.=103.947746, Alt.=865.039551m. Speed=0.144000m/h.</desc>
<speed>0.040000</speed>
</trkpt>
<trkpt lat="22.036629" lon="103.947746">
<ele>865.398926</ele>
<time>2011-04-26T03:28:20Z</time>
<desc>lat.=22.036629, lon.=103.947746, Alt.=865.398926m. Speed=0.324000m/h.</desc>
<speed>0.090000</speed>
</trkpt>
<trkpt lat="22.036631" lon="103.947754">
<ele>865.742676</ele>
<time>2011-04-26T03:28:25Z</time>
<desc>lat.=22.036631, lon.=103.947754, Alt.=865.742676m. Speed=0.468000m/h.</desc>
<speed>0.130000</speed>
</trkpt>
<trkpt lat="22.036634" lon="103.947762">
<ele>866.070801</ele>
<time>2011-04-26T03:28:30Z</time>
<desc>lat.=22.036634, lon.=103.947762, Alt.=866.070801m. Speed=0.360000m/h.</desc>
<speed>0.100000</speed>
</trkpt>
<trkpt lat="22.036638" lon="103.947769">
<ele>866.398926</ele>
<time>2011-04-26T03:28:35Z</time>
<desc>lat.=22.036638, lon.=103.947769, Alt.=866.398926m. Speed=0.540000m/h.</desc>
<speed>0.150000</speed>
</trkpt>
<trkpt lat="22.036642" lon="103.947769">
<ele>866.711426</ele>
<time>2011-04-26T03:28:40Z</time>
<desc>lat.=22.036642, lon.=103.947769, Alt.=866.711426m. Speed=0.288000m/h.</desc>
<speed>0.080000</speed>
</trkpt>
<trkpt lat="22.036644" lon="103.947769">
<ele>867.023926</ele>
<time>2011-04-26T03:28:45Z</time>
<desc>lat.=22.036644, lon.=103.947769, Alt.=867.023926m. Speed=0.108000m/h.</desc>
<speed>0.030000</speed>
</trkpt>
<trkpt lat="22.036644" lon="103.947769">
<ele>867.320801</ele>
<time>2011-04-26T03:28:50Z</time>
<desc>lat.=22.036644, lon.=103.947769, Alt.=867.320801m. Speed=0.324000m/h.</desc>
<speed>0.090000</speed>
</trkpt>
<trkpt lat="22.036642" lon="103.947762">
<ele>867.602051</ele>
<time>2011-04-26T03:28:55Z</time>
<desc>lat.=22.036642, lon.=103.947762, Alt.=867.602051m. Speed=0.540000m/h.</desc>
<speed>0.150000</speed>
</trkpt>
<trkpt lat="22.036640" lon="103.947754">
<ele>867.867676</ele>
<time>2011-04-26T03:29:00Z</time>
<desc>lat.=22.036640, lon.=103.947754, Alt.=867.867676m. Speed=0.612000m/h.</desc>
<speed>0.170000</speed>
</trkpt>
<trkpt lat="22.036638" lon="103.947746">
<ele>868.117676</ele>
<time>2011-04-26T03:29:05Z</time>
<desc>lat.=22.036638, lon.=103.947746, Alt.=868.117676m. Speed=0.252000m/h.</desc>
<speed>0.070000</speed>
</trkpt>
<trkpt lat="22.036636" lon="103.947746">
<ele>868.336426</ele>
<time>2011-04-26T03:29:10Z</time>
<desc>lat.=22.036636, lon.=103.947746, Alt.=868.336426m. Speed=0.648000m/h.</desc>
<speed>0.180000</speed>
</trkpt>
<trkpt lat="22.036631" lon="103.947739">
<ele>868.539551</ele>
<time>2011-04-26T03:29:15Z</time>
<desc>lat.=22.036631, lon.=103.947739, Alt.=868.539551m. Speed=0.864000m/h.</desc>
<speed>0.240000</speed>
</trkpt>
<trkpt lat="22.036629" lon="103.947731">
<ele>868.727051</ele>
<time>2011-04-26T03:29:20Z</time>
<desc>lat.=22.036629, lon.=103.947731, Alt.=868.727051m. Speed=0.612000m/h.</desc>
<speed>0.170000</speed>
</trkpt>
<trkpt lat="22.036625" lon="103.947723">
<ele>868.914551</ele>
<time>2011-04-26T03:29:25Z</time>
<desc>lat.=22.036625, lon.=103.947723, Alt.=868.914551m. Speed=0.144000m/h.</desc>
<speed>0.040000</speed>
</trkpt>
<trkpt lat="22.036623" lon="103.947723">
<ele>869.070801</ele>
<time>2011-04-26T03:29:30Z</time>
<desc>lat.=22.036623, lon.=103.947723, Alt.=869.070801m. Speed=0.108000m/h.</desc>
<speed>0.030000</speed>
</trkpt>
<trkpt lat="22.036619" lon="103.947723">
<ele>869.227051</ele>
<time>2011-04-26T03:29:35Z</time>
<desc>lat.=22.036619, lon.=103.947723, Alt.=869.227051m. Speed=0.540000m/h.</desc>
<speed>0.150000</speed>
</trkpt>
<trkpt lat="22.036615" lon="103.947716">
<ele>869.398926</ele>
<time>2011-04-26T03:29:40Z</time>
<desc>lat.=22.036615, lon.=103.947716, Alt.=869.398926m. Speed=0.252000m/h.</desc>
<speed>0.070000</speed>
</trkpt>
<trkpt lat="22.036612" lon="103.947716">
<ele>869.555176</ele>
<time>2011-04-26T03:29:45Z</time>
<desc>lat.=22.036612, lon.=103.947716, Alt.=869.555176m. Speed=0.288000m/h.</desc>
<speed>0.080000</speed>
</trkpt>
<trkpt lat="22.036608" lon="103.947716">
<ele>869.711426</ele>
<time>2011-04-26T03:29:50Z</time>
<desc>lat.=22.036608, lon.=103.947716, Alt.=869.711426m. Speed=0.108000m/h.</desc>
<speed>0.030000</speed>
</trkpt>
<trkpt lat="22.036608" lon="103.947723">
<ele>869.867676</ele>
<time>2011-04-26T03:29:55Z</time>
<desc>lat.=22.036608, lon.=103.947723, Alt.=869.867676m. Speed=0.108000m/h.</desc>
<speed>0.030000</speed>
</trkpt>
<trkpt lat="22.036610" lon="103.947716">
<ele>869.977051</ele>
<time>2011-04-26T03:30:00Z</time>
<desc>lat.=22.036610, lon.=103.947716, Alt.=869.977051m. Speed=0.216000m/h.</desc>
<speed>0.060000</speed>
</trkpt>
<trkpt lat="22.036613" lon="103.947723">
<ele>870.070801</ele>
<time>2011-04-26T03:30:05Z</time>
<desc>lat.=22.036613, lon.=103.947723, Alt.=870.070801m. Speed=0.576000m/h.</desc>
<speed>0.160000</speed>
</trkpt>
<trkpt lat="22.036619" lon="103.947723">
<ele>870.180176</ele>
<time>2011-04-26T03:30:10Z</time>
<desc>lat.=22.036619, lon.=103.947723, Alt.=870.180176m. Speed=0.684000m/h.</desc>
<speed>0.190000</speed>
</trkpt>
<trkpt lat="22.036625" lon="103.947731">
<ele>870.289551</ele>
<time>2011-04-26T03:30:15Z</time>
<desc>lat.=22.036625, lon.=103.947731, Alt.=870.289551m. Speed=0.864000m/h.</desc>
<speed>0.240000</speed>
</trkpt>
<trkpt lat="22.036633" lon="103.947746">
<ele>870.367676</ele>
<time>2011-04-26T03:30:20Z</time>
<desc>lat.=22.036633, lon.=103.947746, Alt.=870.367676m. Speed=0.720000m/h.</desc>
<speed>0.200000</speed>
</trkpt>
<trkpt lat="22.036642" lon="103.947746">
<ele>870.430176</ele>
<time>2011-04-26T03:30:25Z</time>
<desc>lat.=22.036642, lon.=103.947746, Alt.=870.430176m. Speed=0.828000m/h.</desc>
<speed>0.230000</speed>
</trkpt>
<trkpt lat="22.036652" lon="103.947746">
<ele>870.492676</ele>
<time>2011-04-26T03:30:30Z</time>
<desc>lat.=22.036652, lon.=103.947746, Alt.=870.492676m. Speed=0.540000m/h.</desc>
<speed>0.150000</speed>
</trkpt>
<trkpt lat="22.036657" lon="103.947746">
<ele>870.539551</ele>
<time>2011-04-26T03:30:35Z</time>
<desc>lat.=22.036657, lon.=103.947746, Alt.=870.539551m. Speed=0.360000m/h.</desc>
<speed>0.100000</speed>
</trkpt>
<trkpt lat="22.036661" lon="103.947754">
<ele>870.555176</ele>
<time>2011-04-26T03:30:40Z</time>
<desc>lat.=22.036661, lon.=103.947754, Alt.=870.555176m. Speed=0.720000m/h.</desc>
<speed>0.200000</speed>
</trkpt>
<trkpt lat="22.036657" lon="103.947762">
<ele>870.492676</ele>
<time>2011-04-26T03:30:45Z</time>
<desc>lat.=22.036657, lon.=103.947762, Alt.=870.492676m. Speed=0.252000m/h.</desc>
<speed>0.070000</speed>
</trkpt>
<trkpt lat="22.036655" lon="103.947762">
<ele>870.414551</ele>
<time>2011-04-26T03:30:50Z</time>
<desc>lat.=22.036655, lon.=103.947762, Alt.=870.414551m. Speed=0.504000m/h.</desc>
<speed>0.140000</speed>
</trkpt>
<trkpt lat="22.036648" lon="103.947762">
<ele>870.289551</ele>
<time>2011-04-26T03:30:55Z</time>
<desc>lat.=22.036648, lon.=103.947762, Alt.=870.289551m. Speed=0.720000m/h.</desc>
<speed>0.200000</speed>
</trkpt>
<trkpt lat="22.036640" lon="103.947754">
<ele>870.164551</ele>
<time>2011-04-26T03:31:00Z</time>
<desc>lat.=22.036640, lon.=103.947754, Alt.=870.164551m. Speed=1.044000m/h.</desc>
<speed>0.290000</speed>
</trkpt>
<trkpt lat="22.036631" lon="103.947746">
<ele>869.992676</ele>
<time>2011-04-26T03:31:05Z</time>
<desc>lat.=22.036631, lon.=103.947746, Alt.=869.992676m. Speed=0.756000m/h.</desc>
<speed>0.210000</speed>
</trkpt>
<trkpt lat="22.036608" lon="103.947746">
<ele>869.180176</ele>
<time>2011-04-26T03:31:10Z</time>
<desc>lat.=22.036608, lon.=103.947746, Alt.=869.180176m. Speed=1.152000m/h.</desc>
<speed>0.320000</speed>
</trkpt>
<trkpt lat="22.036573" lon="103.947762">
<ele>866.383301</ele>
<time>2011-04-26T03:31:15Z</time>
<desc>lat.=22.036573, lon.=103.947762, Alt.=866.383301m. Speed=1.044000m/h.</desc>
<speed>0.290000</speed>
</trkpt>
<trkpt lat="22.036560" lon="103.947762">
<ele>864.414551</ele>
<time>2011-04-26T03:31:20Z</time>
<desc>lat.=22.036560, lon.=103.947762, Alt.=864.414551m. Speed=0.828000m/h.</desc>
<speed>0.230000</speed>
</trkpt>
<trkpt lat="22.036558" lon="103.947762">
<ele>863.945801</ele>
<time>2011-04-26T03:31:25Z</time>
<desc>lat.=22.036558, lon.=103.947762, Alt.=863.945801m. Speed=0.612000m/h.</desc>
<speed>0.170000</speed>
</trkpt>
<trkpt lat="22.036566" lon="103.947754">
<ele>863.477051</ele>
<time>2011-04-26T03:31:30Z</time>
<desc>lat.=22.036566, lon.=103.947754, Alt.=863.477051m. Speed=0.720000m/h.</desc>
<speed>0.200000</speed>
</trkpt>
<trkpt lat="22.036572" lon="103.947746">
<ele>863.008301</ele>
<time>2011-04-26T03:31:35Z</time>
<desc>lat.=22.036572, lon.=103.947746, Alt.=863.008301m. Speed=0.468000m/h.</desc>
<speed>0.130000</speed>
</trkpt>
<trkpt lat="22.036575" lon="103.947739">
<ele>862.492676</ele>
<time>2011-04-26T03:31:40Z</time>
<desc>lat.=22.036575, lon.=103.947739, Alt.=862.492676m. Speed=0.360000m/h.</desc>
<speed>0.100000</speed>
</trkpt>
<trkpt lat="22.036581" lon="103.947739">
<ele>862.008301</ele>
<time>2011-04-26T03:31:45Z</time>
<desc>lat.=22.036581, lon.=103.947739, Alt.=862.008301m. Speed=0.792000m/h.</desc>
<speed>0.220000</speed>
</trkpt>
<trkpt lat="22.036617" lon="103.947693">
<ele>862.648926</ele>
<time>2011-04-26T03:31:50Z</time>
<desc>lat.=22.036617, lon.=103.947693, Alt.=862.648926m. Speed=1.548000m/h.</desc>
<speed>0.430000</speed>
</trkpt>
<trkpt lat="22.036661" lon="103.947685">
<ele>863.039551</ele>
<time>2011-04-26T03:31:55Z</time>
<desc>lat.=22.036661, lon.=103.947685, Alt.=863.039551m. Speed=1.692000m/h.</desc>
<speed>0.470000</speed>
</trkpt>
<trkpt lat="22.036669" lon="103.947685">
<ele>862.820801</ele>
<time>2011-04-26T03:32:00Z</time>
<desc>lat.=22.036669, lon.=103.947685, Alt.=862.820801m. Speed=1.008000m/h.</desc>
<speed>0.280000</speed>
</trkpt>
<trkpt lat="22.036680" lon="103.947685">
<ele>863.242676</ele>
<time>2011-04-26T03:32:05Z</time>
<desc>lat.=22.036680, lon.=103.947685, Alt.=863.242676m. Speed=0.648000m/h.</desc>
<speed>0.180000</speed>
</trkpt>
<trkpt lat="22.036686" lon="103.947678">
<ele>862.852051</ele>
<time>2011-04-26T03:32:10Z</time>
<desc>lat.=22.036686, lon.=103.947678, Alt.=862.852051m. Speed=0.720000m/h.</desc>
<speed>0.200000</speed>
</trkpt>
<trkpt lat="22.036688" lon="103.947662">
<ele>862.445801</ele>
<time>2011-04-26T03:32:15Z</time>
<desc>lat.=22.036688, lon.=103.947662, Alt.=862.445801m. Speed=0.900000m/h.</desc>
<speed>0.250000</speed>
</trkpt>
<trkpt lat="22.036671" lon="103.947655">
<ele>861.852051</ele>
<time>2011-04-26T03:32:20Z</time>
<desc>lat.=22.036671, lon.=103.947655, Alt.=861.852051m. Speed=1.260000m/h.</desc>
<speed>0.350000</speed>
</trkpt>
<trkpt lat="22.036636" lon="103.947617">
<ele>860.883301</ele>
<time>2011-04-26T03:32:25Z</time>
<desc>lat.=22.036636, lon.=103.947617, Alt.=860.883301m. Speed=1.728000m/h.</desc>
<speed>0.480000</speed>
</trkpt>
<trkpt lat="22.036615" lon="103.947647">
<ele>859.961426</ele>
<time>2011-04-26T03:32:30Z</time>
<desc>lat.=22.036615, lon.=103.947647, Alt.=859.961426m. Speed=1.008000m/h.</desc>
<speed>0.280000</speed>
</trkpt>
<trkpt lat="22.036608" lon="103.947647">
<ele>859.961426</ele>
<time>2011-04-26T03:32:35Z</time>
<desc>lat.=22.036608, lon.=103.947647, Alt.=859.961426m. Speed=0.900000m/h.</desc>
<speed>0.250000</speed>
</trkpt>
<trkpt lat="22.036606" lon="103.947624">
<ele>860.711426</ele>
<time>2011-04-26T03:32:40Z</time>
<desc>lat.=22.036606, lon.=103.947624, Alt.=860.711426m. Speed=0.828000m/h.</desc>
<speed>0.230000</speed>
</trkpt>
<trkpt lat="22.036596" lon="103.947601">
<ele>860.789551</ele>
<time>2011-04-26T03:32:45Z</time>
<desc>lat.=22.036596, lon.=103.947601, Alt.=860.789551m. Speed=1.368000m/h.</desc>
<speed>0.380000</speed>
</trkpt>
<trkpt lat="22.036619" lon="103.947563">
<ele>860.945801</ele>
<time>2011-04-26T03:32:50Z</time>
<desc>lat.=22.036619, lon.=103.947563, Alt.=860.945801m. Speed=1.260000m/h.</desc>
<speed>0.350000</speed>
</trkpt>
<trkpt lat="22.036596" lon="103.947578">
<ele>859.008301</ele>
<time>2011-04-26T03:32:55Z</time>
<desc>lat.=22.036596, lon.=103.947578, Alt.=859.008301m. Speed=0.756000m/h.</desc>
<speed>0.210000</speed>
</trkpt>
<trkpt lat="22.036554" lon="103.947708">
<ele>850.414551</ele>
<time>2011-04-26T03:33:00Z</time>
<desc>lat.=22.036554, lon.=103.947708, Alt.=850.414551m. Speed=1.584000m/h.</desc>
<speed>0.440000</speed>
</trkpt>
<trkpt lat="22.036526" lon="103.947739">
<ele>845.852051</ele>
<time>2011-04-26T03:33:05Z</time>
<desc>lat.=22.036526, lon.=103.947739, Alt.=845.852051m. Speed=0.756000m/h.</desc>
<speed>0.210000</speed>
</trkpt>
<trkpt lat="22.036524" lon="103.947746">
<ele>845.148926</ele>
<time>2011-04-26T03:33:10Z</time>
<desc>lat.=22.036524, lon.=103.947746, Alt.=845.148926m. Speed=0.540000m/h.</desc>
<speed>0.150000</speed>
</trkpt>
<trkpt lat="22.036522" lon="103.947746">
<ele>844.461426</ele>
<time>2011-04-26T03:33:15Z</time>
<desc>lat.=22.036522, lon.=103.947746, Alt.=844.461426m. Speed=0.000000m/h.</desc>
<speed>0.000000</speed>
</trkpt>
<trkpt lat="22.036522" lon="103.947746">
<ele>843.648926</ele>
<time>2011-04-26T03:33:20Z</time>
<desc>lat.=22.036522, lon.=103.947746, Alt.=843.648926m. Speed=0.072000m/h.</desc>
<speed>0.020000</speed>
</trkpt>
<trkpt lat="22.036526" lon="103.947746">
<ele>842.758301</ele>
<time>2011-04-26T03:33:25Z</time>
<desc>lat.=22.036526, lon.=103.947746, Alt.=842.758301m. Speed=0.792000m/h.</desc>
<speed>0.220000</speed>
</trkpt>
<trkpt lat="22.036528" lon="103.947762">
<ele>842.773926</ele>
<time>2011-04-26T03:33:30Z</time>
<desc>lat.=22.036528, lon.=103.947762, Alt.=842.773926m. Speed=0.396000m/h.</desc>
<speed>0.110000</speed>
</trkpt>
<trkpt lat="22.036526" lon="103.947769">
<ele>842.289551</ele>
<time>2011-04-26T03:33:35Z</time>
<desc>lat.=22.036526, lon.=103.947769, Alt.=842.289551m. Speed=0.072000m/h.</desc>
<speed>0.020000</speed>
</trkpt>
<trkpt lat="22.036526" lon="103.947769">
<ele>841.695801</ele>
<time>2011-04-26T03:33:40Z</time>
<desc>lat.=22.036526, lon.=103.947769, Alt.=841.695801m. Speed=0.144000m/h.</desc>
<speed>0.040000</speed>
</trkpt>
<trkpt lat="22.036524" lon="103.947769">
<ele>841.133301</ele>
<time>2011-04-26T03:33:45Z</time>
<desc>lat.=22.036524, lon.=103.947769, Alt.=841.133301m. Speed=0.180000m/h.</desc>
<speed>0.050000</speed>
</trkpt>
<trkpt lat="22.036522" lon="103.947769">
<ele>840.617676</ele>
<time>2011-04-26T03:33:50Z</time>
<desc>lat.=22.036522, lon.=103.947769, Alt.=840.617676m. Speed=0.324000m/h.</desc>
<speed>0.090000</speed>
</trkpt>
<trkpt lat="22.036520" lon="103.947777">
<ele>840.102051</ele>
<time>2011-04-26T03:33:55Z</time>
<desc>lat.=22.036520, lon.=103.947777, Alt.=840.102051m. Speed=0.468000m/h.</desc>
<speed>0.130000</speed>
</trkpt>
<trkpt lat="22.036522" lon="103.947784">
<ele>839.602051</ele>
<time>2011-04-26T03:34:00Z</time>
<desc>lat.=22.036522, lon.=103.947784, Alt.=839.602051m. Speed=0.468000m/h.</desc>
<speed>0.130000</speed>
</trkpt>
<trkpt lat="22.036524" lon="103.947792">
<ele>839.102051</ele>
<time>2011-04-26T03:34:05Z</time>
<desc>lat.=22.036524, lon.=103.947792, Alt.=839.102051m. Speed=0.396000m/h.</desc>
<speed>0.110000</speed>
</trkpt>
<trkpt lat="22.036526" lon="103.947792">
<ele>838.617676</ele>
<time>2011-04-26T03:34:10Z</time>
<desc>lat.=22.036526, lon.=103.947792, Alt.=838.617676m. Speed=0.612000m/h.</desc>
<speed>0.170000</speed>
</trkpt>
<trkpt lat="22.036526" lon="103.947800">
<ele>838.102051</ele>
<time>2011-04-26T03:34:15Z</time>
<desc>lat.=22.036526, lon.=103.947800, Alt.=838.102051m. Speed=0.180000m/h.</desc>
<speed>0.050000</speed>
</trkpt>
<trkpt lat="22.036528" lon="103.947800">
<ele>837.602051</ele>
<time>2011-04-26T03:34:20Z</time>
<desc>lat.=22.036528, lon.=103.947800, Alt.=837.602051m. Speed=0.216000m/h.</desc>
<speed>0.060000</speed>
</trkpt>
<trkpt lat="22.036530" lon="103.947807">
<ele>837.164551</ele>
<time>2011-04-26T03:34:25Z</time>
<desc>lat.=22.036530, lon.=103.947807, Alt.=837.164551m. Speed=0.144000m/h.</desc>
<speed>0.040000</speed>
</trkpt>
<trkpt lat="22.036531" lon="103.947807">
<ele>836.727051</ele>
<time>2011-04-26T03:34:30Z</time>
<desc>lat.=22.036531, lon.=103.947807, Alt.=836.727051m. Speed=0.180000m/h.</desc>
<speed>0.050000</speed>
</trkpt>
<trkpt lat="22.036537" lon="103.947807">
<ele>836.305176</ele>
<time>2011-04-26T03:34:35Z</time>
<desc>lat.=22.036537, lon.=103.947807, Alt.=836.305176m. Speed=0.792000m/h.</desc>
<speed>0.220000</speed>
</trkpt>
<trkpt lat="22.036547" lon="103.947815">
<ele>835.898926</ele>
<time>2011-04-26T03:34:40Z</time>
<desc>lat.=22.036547, lon.=103.947815, Alt.=835.898926m. Speed=0.864000m/h.</desc>
<speed>0.240000</speed>
</trkpt>
<trkpt lat="22.036552" lon="103.947823">
<ele>835.492676</ele>
<time>2011-04-26T03:34:45Z</time>
<desc>lat.=22.036552, lon.=103.947823, Alt.=835.492676m. Speed=0.792000m/h.</desc>
<speed>0.220000</speed>
</trkpt>
<trkpt lat="22.036552" lon="103.947830">
<ele>835.102051</ele>
<time>2011-04-26T03:34:50Z</time>
<desc>lat.=22.036552, lon.=103.947830, Alt.=835.102051m. Speed=0.828000m/h.</desc>
<speed>0.230000</speed>
</trkpt>
<trkpt lat="22.036541" lon="103.947853">
<ele>834.664551</ele>
<time>2011-04-26T03:34:55Z</time>
<desc>lat.=22.036541, lon.=103.947853, Alt.=834.664551m. Speed=1.260000m/h.</desc>
<speed>0.350000</speed>
</trkpt>
<trkpt lat="22.036503" lon="103.947891">
<ele>834.758301</ele>
<time>2011-04-26T03:35:00Z</time>
<desc>lat.=22.036503, lon.=103.947891, Alt.=834.758301m. Speed=1.728000m/h.</desc>
<speed>0.480000</speed>
</trkpt>
<trkpt lat="22.036520" lon="103.947891">
<ele>835.102051</ele>
<time>2011-04-26T03:35:05Z</time>
<desc>lat.=22.036520, lon.=103.947891, Alt.=835.102051m. Speed=0.900000m/h.</desc>
<speed>0.250000</speed>
</trkpt>
<trkpt lat="22.036545" lon="103.947884">
<ele>835.195801</ele>
<time>2011-04-26T03:35:10Z</time>
<desc>lat.=22.036545, lon.=103.947884, Alt.=835.195801m. Speed=0.864000m/h.</desc>
<speed>0.240000</speed>
</trkpt>
<trkpt lat="22.036581" lon="103.947914">
<ele>834.977051</ele>
<time>2011-04-26T03:35:15Z</time>
<desc>lat.=22.036581, lon.=103.947914, Alt.=834.977051m. Speed=3.384000m/h.</desc>
<speed>0.940000</speed>
</trkpt>
<trkpt lat="22.036631" lon="103.947968">
<ele>834.727051</ele>
<time>2011-04-26T03:35:20Z</time>
<desc>lat.=22.036631, lon.=103.947968, Alt.=834.727051m. Speed=4.824000m/h.</desc>
<speed>1.340000</speed>
</trkpt>
<trkpt lat="22.036682" lon="103.948021">
<ele>834.586426</ele>
<time>2011-04-26T03:35:25Z</time>
<desc>lat.=22.036682, lon.=103.948021, Alt.=834.586426m. Speed=4.752000m/h.</desc>
<speed>1.320000</speed>
</trkpt>
<trkpt lat="22.036758" lon="103.948067">
<ele>834.445801</ele>
<time>2011-04-26T03:35:30Z</time>
<desc>lat.=22.036758, lon.=103.948067, Alt.=834.445801m. Speed=5.688000m/h.</desc>
<speed>1.580000</speed>
</trkpt>
<trkpt lat="22.036825" lon="103.948097">
<ele>834.633301</ele>
<time>2011-04-26T03:35:35Z</time>
<desc>lat.=22.036825, lon.=103.948097, Alt.=834.633301m. Speed=4.968000m/h.</desc>
<speed>1.380000</speed>
</trkpt>
<trkpt lat="22.036938" lon="103.948143">
<ele>837.070801</ele>
<time>2011-04-26T03:35:40Z</time>
<desc>lat.=22.036938, lon.=103.948143, Alt.=837.070801m. Speed=5.976000m/h.</desc>
<speed>1.660000</speed>
</trkpt>
<trkpt lat="22.037029" lon="103.948166">
<ele>838.039551</ele>
<time>2011-04-26T03:35:45Z</time>
<desc>lat.=22.037029, lon.=103.948166, Alt.=838.039551m. Speed=4.320000m/h.</desc>
<speed>1.200000</speed>
</trkpt>
<trkpt lat="22.037073" lon="103.948204">
<ele>838.211426</ele>
<time>2011-04-26T03:35:50Z</time>
<desc>lat.=22.037073, lon.=103.948204, Alt.=838.211426m. Speed=4.644000m/h.</desc>
<speed>1.290000</speed>
</trkpt>
<trkpt lat="22.037159" lon="103.948227">
<ele>837.914551</ele>
<time>2011-04-26T03:35:55Z</time>
<desc>lat.=22.037159, lon.=103.948227, Alt.=837.914551m. Speed=5.292000m/h.</desc>
<speed>1.470000</speed>
</trkpt>
<trkpt lat="22.037228" lon="103.948257">
<ele>837.445801</ele>
<time>2011-04-26T03:36:00Z</time>
<desc>lat.=22.037228, lon.=103.948257, Alt.=837.445801m. Speed=3.960000m/h.</desc>
<speed>1.100000</speed>
</trkpt>
<trkpt lat="22.037300" lon="103.948273">
<ele>837.695801</ele>
<time>2011-04-26T03:36:05Z</time>
<desc>lat.=22.037300, lon.=103.948273, Alt.=837.695801m. Speed=6.012000m/h.</desc>
<speed>1.670000</speed>
</trkpt>
<trkpt lat="22.037399" lon="103.948265">
<ele>839.023926</ele>
<time>2011-04-26T03:36:10Z</time>
<desc>lat.=22.037399, lon.=103.948265, Alt.=839.023926m. Speed=5.796000m/h.</desc>
<speed>1.610000</speed>
</trkpt>
<trkpt lat="22.037498" lon="103.948242">
<ele>840.727051</ele>
<time>2011-04-26T03:36:15Z</time>
<desc>lat.=22.037498, lon.=103.948242, Alt.=840.727051m. Speed=3.996000m/h.</desc>
<speed>1.110000</speed>
</trkpt>
<trkpt lat="22.037603" lon="103.948174">
<ele>843.633301</ele>
<time>2011-04-26T03:36:20Z</time>
<desc>lat.=22.037603, lon.=103.948174, Alt.=843.633301m. Speed=7.056000m/h.</desc>
<speed>1.960000</speed>
</trkpt>
<trkpt lat="22.037680" lon="103.948120">
<ele>848.352051</ele>
<time>2011-04-26T03:36:25Z</time>
<desc>lat.=22.037680, lon.=103.948120, Alt.=848.352051m. Speed=6.624000m/h.</desc>
<speed>1.840000</speed>
</trkpt>
<trkpt lat="22.037783" lon="103.948097">
<ele>850.820801</ele>
<time>2011-04-26T03:36:30Z</time>
<desc>lat.=22.037783, lon.=103.948097, Alt.=850.820801m. Speed=6.228000m/h.</desc>
<speed>1.730000</speed>
</trkpt>
<trkpt lat="22.037851" lon="103.948090">
<ele>851.539551</ele>
<time>2011-04-26T03:36:35Z</time>
<desc>lat.=22.037851, lon.=103.948090, Alt.=851.539551m. Speed=6.624000m/h.</desc>
<speed>1.840000</speed>
</trkpt>
<trkpt lat="22.037954" lon="103.948090">
<ele>851.477051</ele>
<time>2011-04-26T03:36:40Z</time>
<desc>lat.=22.037954, lon.=103.948090, Alt.=851.477051m. Speed=5.364000m/h.</desc>
<speed>1.490000</speed>
</trkpt>
<trkpt lat="22.038036" lon="103.948082">
<ele>852.008301</ele>
<time>2011-04-26T03:36:45Z</time>
<desc>lat.=22.038036, lon.=103.948082, Alt.=852.008301m. Speed=5.508000m/h.</desc>
<speed>1.530000</speed>
</trkpt>
<trkpt lat="22.038115" lon="103.948074">
<ele>852.211426</ele>
<time>2011-04-26T03:36:50Z</time>
<desc>lat.=22.038115, lon.=103.948074, Alt.=852.211426m. Speed=4.680000m/h.</desc>
<speed>1.300000</speed>
</trkpt>
<trkpt lat="22.038197" lon="103.948074">
<ele>851.273926</ele>
<time>2011-04-26T03:36:55Z</time>
<desc>lat.=22.038197, lon.=103.948074, Alt.=851.273926m. Speed=6.012000m/h.</desc>
<speed>1.670000</speed>
</trkpt>
<trkpt lat="22.038321" lon="103.948051">
<ele>851.477051</ele>
<time>2011-04-26T03:37:00Z</time>
<desc>lat.=22.038321, lon.=103.948051, Alt.=851.477051m. Speed=6.228000m/h.</desc>
<speed>1.730000</speed>
</trkpt>
<trkpt lat="22.038445" lon="103.947990">
<ele>852.055176</ele>
<time>2011-04-26T03:37:05Z</time>
<desc>lat.=22.038445, lon.=103.947990, Alt.=852.055176m. Speed=4.968000m/h.</desc>
<speed>1.380000</speed>
</trkpt>
<trkpt lat="22.038513" lon="103.947960">
<ele>851.742676</ele>
<time>2011-04-26T03:37:10Z</time>
<desc>lat.=22.038513, lon.=103.947960, Alt.=851.742676m. Speed=3.744000m/h.</desc>
<speed>1.040000</speed>
</trkpt>
<trkpt lat="22.038567" lon="103.947891">
<ele>855.945801</ele>
<time>2011-04-26T03:37:15Z</time>
<desc>lat.=22.038567, lon.=103.947891, Alt.=855.945801m. Speed=2.808000m/h.</desc>
<speed>0.780000</speed>
</trkpt>
<trkpt lat="22.038651" lon="103.947838">
<ele>858.852051</ele>
<time>2011-04-26T03:37:20Z</time>
<desc>lat.=22.038651, lon.=103.947838, Alt.=858.852051m. Speed=4.860000m/h.</desc>
<speed>1.350000</speed>
</trkpt>
<trkpt lat="22.038687" lon="103.947762">
<ele>859.945801</ele>
<time>2011-04-26T03:37:25Z</time>
<desc>lat.=22.038687, lon.=103.947762, Alt.=859.945801m. Speed=4.572000m/h.</desc>
<speed>1.270000</speed>
</trkpt>
<trkpt lat="22.038780" lon="103.947662">
<ele>862.055176</ele>
<time>2011-04-26T03:37:30Z</time>
<desc>lat.=22.038780, lon.=103.947662, Alt.=862.055176m. Speed=5.004000m/h.</desc>
<speed>1.390000</speed>
</trkpt>
<trkpt lat="22.038795" lon="103.947601">
<ele>864.805176</ele>
<time>2011-04-26T03:37:35Z</time>
<desc>lat.=22.038795, lon.=103.947601, Alt.=864.805176m. Speed=4.608000m/h.</desc>
<speed>1.280000</speed>
</trkpt>
<trkpt lat="22.038862" lon="103.947525">
<ele>867.445801</ele>
<time>2011-04-26T03:37:40Z</time>
<desc>lat.=22.038862, lon.=103.947525, Alt.=867.445801m. Speed=4.032000m/h.</desc>
<speed>1.120000</speed>
</trkpt>
<trkpt lat="22.038914" lon="103.947464">
<ele>868.242676</ele>
<time>2011-04-26T03:37:45Z</time>
<desc>lat.=22.038914, lon.=103.947464, Alt.=868.242676m. Speed=5.184000m/h.</desc>
<speed>1.440000</speed>
</trkpt>
<trkpt lat="22.038992" lon="103.947380">
<ele>867.477051</ele>
<time>2011-04-26T03:37:50Z</time>
<desc>lat.=22.038992, lon.=103.947380, Alt.=867.477051m. Speed=7.668000m/h.</desc>
<speed>2.130000</speed>
</trkpt>
<trkpt lat="22.039070" lon="103.947304">
<ele>867.398926</ele>
<time>2011-04-26T03:37:55Z</time>
<desc>lat.=22.039070, lon.=103.947304, Alt.=867.398926m. Speed=6.840000m/h.</desc>
<speed>1.900000</speed>
</trkpt>
<trkpt lat="22.039150" lon="103.947250">
<ele>868.008301</ele>
<time>2011-04-26T03:38:00Z</time>
<desc>lat.=22.039150, lon.=103.947250, Alt.=868.008301m. Speed=7.164000m/h.</desc>
<speed>1.990000</speed>
</trkpt>
<trkpt lat="22.039219" lon="103.947189">
<ele>868.430176</ele>
<time>2011-04-26T03:38:05Z</time>
<desc>lat.=22.039219, lon.=103.947189, Alt.=868.430176m. Speed=4.860000m/h.</desc>
<speed>1.350000</speed>
</trkpt>
<trkpt lat="22.039278" lon="103.947136">
<ele>868.852051</ele>
<time>2011-04-26T03:38:10Z</time>
<desc>lat.=22.039278, lon.=103.947136, Alt.=868.852051m. Speed=4.284000m/h.</desc>
<speed>1.190000</speed>
</trkpt>
<trkpt lat="22.039330" lon="103.947113">
<ele>869.852051</ele>
<time>2011-04-26T03:38:15Z</time>
<desc>lat.=22.039330, lon.=103.947113, Alt.=869.852051m. Speed=3.528000m/h.</desc>
<speed>0.980000</speed>
</trkpt>
<trkpt lat="22.039385" lon="103.947098">
<ele>869.930176</ele>
<time>2011-04-26T03:38:20Z</time>
<desc>lat.=22.039385, lon.=103.947098, Alt.=869.930176m. Speed=3.816000m/h.</desc>
<speed>1.060000</speed>
</trkpt>
<trkpt lat="22.039459" lon="103.947121">
<ele>869.039551</ele>
<time>2011-04-26T03:38:25Z</time>
<desc>lat.=22.039459, lon.=103.947121, Alt.=869.039551m. Speed=4.212000m/h.</desc>
<speed>1.170000</speed>
</trkpt>
<trkpt lat="22.039570" lon="103.947113">
<ele>870.461426</ele>
<time>2011-04-26T03:38:30Z</time>
<desc>lat.=22.039570, lon.=103.947113, Alt.=870.461426m. Speed=5.688000m/h.</desc>
<speed>1.580000</speed>
</trkpt>
<trkpt lat="22.039600" lon="103.947174">
<ele>870.758301</ele>
<time>2011-04-26T03:38:35Z</time>
<desc>lat.=22.039600, lon.=103.947174, Alt.=870.758301m. Speed=3.312000m/h.</desc>
<speed>0.920000</speed>
</trkpt>
<trkpt lat="22.039625" lon="103.947212">
<ele>870.664551</ele>
<time>2011-04-26T03:38:40Z</time>
<desc>lat.=22.039625, lon.=103.947212, Alt.=870.664551m. Speed=4.356000m/h.</desc>
<speed>1.210000</speed>
</trkpt>
<trkpt lat="22.039654" lon="103.947266">
<ele>870.992676</ele>
<time>2011-04-26T03:38:45Z</time>
<desc>lat.=22.039654, lon.=103.947266, Alt.=870.992676m. Speed=3.492000m/h.</desc>
<speed>0.970000</speed>
</trkpt>
<trkpt lat="22.039671" lon="103.947342">
<ele>871.805176</ele>
<time>2011-04-26T03:38:50Z</time>
<desc>lat.=22.039671, lon.=103.947342, Alt.=871.805176m. Speed=3.600000m/h.</desc>
<speed>1.000000</speed>
</trkpt>
<trkpt lat="22.039696" lon="103.947411">
<ele>872.742676</ele>
<time>2011-04-26T03:38:55Z</time>
<desc>lat.=22.039696, lon.=103.947411, Alt.=872.742676m. Speed=3.600000m/h.</desc>
<speed>1.000000</speed>
</trkpt>
<trkpt lat="22.039696" lon="103.947510">
<ele>872.742676</ele>
<time>2011-04-26T03:39:00Z</time>
<desc>lat.=22.039696, lon.=103.947510, Alt.=872.742676m. Speed=4.212000m/h.</desc>
<speed>1.170000</speed>
</trkpt>
<trkpt lat="22.039690" lon="103.947578">
<ele>874.320801</ele>
<time>2011-04-26T03:39:05Z</time>
<desc>lat.=22.039690, lon.=103.947578, Alt.=874.320801m. Speed=4.680000m/h.</desc>
<speed>1.300000</speed>
</trkpt>
<trkpt lat="22.039694" lon="103.947632">
<ele>873.836426</ele>
<time>2011-04-26T03:39:10Z</time>
<desc>lat.=22.039694, lon.=103.947632, Alt.=873.836426m. Speed=3.060000m/h.</desc>
<speed>0.850000</speed>
</trkpt>
<trkpt lat="22.039713" lon="103.947693">
<ele>874.445801</ele>
<time>2011-04-26T03:39:15Z</time>
<desc>lat.=22.039713, lon.=103.947693, Alt.=874.445801m. Speed=4.284000m/h.</desc>
<speed>1.190000</speed>
</trkpt>
<trkpt lat="22.039753" lon="103.947762">
<ele>874.633301</ele>
<time>2011-04-26T03:39:20Z</time>
<desc>lat.=22.039753, lon.=103.947762, Alt.=874.633301m. Speed=5.436000m/h.</desc>
<speed>1.510000</speed>
</trkpt>
<trkpt lat="22.039780" lon="103.947815">
<ele>875.445801</ele>
<time>2011-04-26T03:39:25Z</time>
<desc>lat.=22.039780, lon.=103.947815, Alt.=875.445801m. Speed=5.832000m/h.</desc>
<speed>1.620000</speed>
</trkpt>
<trkpt lat="22.039797" lon="103.947891">
<ele>875.867676</ele>
<time>2011-04-26T03:39:30Z</time>
<desc>lat.=22.039797, lon.=103.947891, Alt.=875.867676m. Speed=3.240000m/h.</desc>
<speed>0.900000</speed>
</trkpt>
<trkpt lat="22.039827" lon="103.947960">
<ele>875.586426</ele>
<time>2011-04-26T03:39:35Z</time>
<desc>lat.=22.039827, lon.=103.947960, Alt.=875.586426m. Speed=3.960000m/h.</desc>
<speed>1.100000</speed>
</trkpt>
<trkpt lat="22.039854" lon="103.948021">
<ele>875.430176</ele>
<time>2011-04-26T03:39:40Z</time>
<desc>lat.=22.039854, lon.=103.948021, Alt.=875.430176m. Speed=4.248000m/h.</desc>
<speed>1.180000</speed>
</trkpt>
<trkpt lat="22.039875" lon="103.948097">
<ele>876.055176</ele>
<time>2011-04-26T03:39:45Z</time>
<desc>lat.=22.039875, lon.=103.948097, Alt.=876.055176m. Speed=3.924000m/h.</desc>
<speed>1.090000</speed>
</trkpt>
<trkpt lat="22.039925" lon="103.948174">
<ele>876.789551</ele>
<time>2011-04-26T03:39:50Z</time>
<desc>lat.=22.039925, lon.=103.948174, Alt.=876.789551m. Speed=4.824000m/h.</desc>
<speed>1.340000</speed>
</trkpt>
<trkpt lat="22.039963" lon="103.948242">
<ele>877.195801</ele>
<time>2011-04-26T03:39:55Z</time>
<desc>lat.=22.039963, lon.=103.948242, Alt.=877.195801m. Speed=4.284000m/h.</desc>
<speed>1.190000</speed>
</trkpt>
<trkpt lat="22.040005" lon="103.948296">
<ele>878.039551</ele>
<time>2011-04-26T03:40:00Z</time>
<desc>lat.=22.040005, lon.=103.948296, Alt.=878.039551m. Speed=5.940000m/h.</desc>
<speed>1.650000</speed>
</trkpt>
<trkpt lat="22.040043" lon="103.948357">
<ele>878.508301</ele>
<time>2011-04-26T03:40:05Z</time>
<desc>lat.=22.040043, lon.=103.948357, Alt.=878.508301m. Speed=5.724000m/h.</desc>
<speed>1.590000</speed>
</trkpt>
<trkpt lat="22.040060" lon="103.948418">
<ele>878.992676</ele>
<time>2011-04-26T03:40:10Z</time>
<desc>lat.=22.040060, lon.=103.948418, Alt.=878.992676m. Speed=3.708000m/h.</desc>
<speed>1.030000</speed>
</trkpt>
<trkpt lat="22.040081" lon="103.948486">
<ele>879.977051</ele>
<time>2011-04-26T03:40:15Z</time>
<desc>lat.=22.040081, lon.=103.948486, Alt.=879.977051m. Speed=6.012000m/h.</desc>
<speed>1.670000</speed>
</trkpt>
<trkpt lat="22.040094" lon="103.948563">
<ele>880.820801</ele>
<time>2011-04-26T03:40:20Z</time>
<desc>lat.=22.040094, lon.=103.948563, Alt.=880.820801m. Speed=5.688000m/h.</desc>
<speed>1.580000</speed>
</trkpt>
<trkpt lat="22.040102" lon="103.948639">
<ele>882.727051</ele>
<time>2011-04-26T03:40:25Z</time>
<desc>lat.=22.040102, lon.=103.948639, Alt.=882.727051m. Speed=6.120000m/h.</desc>
<speed>1.700000</speed>
</trkpt>
<trkpt lat="22.040091" lon="103.948730">
<ele>884.977051</ele>
<time>2011-04-26T03:40:30Z</time>
<desc>lat.=22.040091, lon.=103.948730, Alt.=884.977051m. Speed=5.832000m/h.</desc>
<speed>1.620000</speed>
</trkpt>
<trkpt lat="22.040081" lon="103.948822">
<ele>886.695801</ele>
<time>2011-04-26T03:40:35Z</time>
<desc>lat.=22.040081, lon.=103.948822, Alt.=886.695801m. Speed=5.364000m/h.</desc>
<speed>1.490000</speed>
</trkpt>
<trkpt lat="22.040047" lon="103.948906">
<ele>887.992676</ele>
<time>2011-04-26T03:40:40Z</time>
<desc>lat.=22.040047, lon.=103.948906, Alt.=887.992676m. Speed=5.580000m/h.</desc>
<speed>1.550000</speed>
</trkpt>
<trkpt lat="22.040022" lon="103.948952">
<ele>889.898926</ele>
<time>2011-04-26T03:40:45Z</time>
<desc>lat.=22.040022, lon.=103.948952, Alt.=889.898926m. Speed=5.832000m/h.</desc>
<speed>1.620000</speed>
</trkpt>
<trkpt lat="22.039959" lon="103.949020">
<ele>890.992676</ele>
<time>2011-04-26T03:40:50Z</time>
<desc>lat.=22.039959, lon.=103.949020, Alt.=890.992676m. Speed=6.732000m/h.</desc>
<speed>1.870000</speed>
</trkpt>
<trkpt lat="22.039906" lon="103.949051">
<ele>892.914551</ele>
<time>2011-04-26T03:40:55Z</time>
<desc>lat.=22.039906, lon.=103.949051, Alt.=892.914551m. Speed=4.752000m/h.</desc>
<speed>1.320000</speed>
</trkpt>
<trkpt lat="22.039824" lon="103.949059">
<ele>894.648926</ele>
<time>2011-04-26T03:41:00Z</time>
<desc>lat.=22.039824, lon.=103.949059, Alt.=894.648926m. Speed=4.176000m/h.</desc>
<speed>1.160000</speed>
</trkpt>
<trkpt lat="22.039736" lon="103.949036">
<ele>896.305176</ele>
<time>2011-04-26T03:41:05Z</time>
<desc>lat.=22.039736, lon.=103.949036, Alt.=896.305176m. Speed=5.580000m/h.</desc>
<speed>1.550000</speed>
</trkpt>
<trkpt lat="22.039660" lon="103.949059">
<ele>896.930176</ele>
<time>2011-04-26T03:41:10Z</time>
<desc>lat.=22.039660, lon.=103.949059, Alt.=896.930176m. Speed=5.616000m/h.</desc>
<speed>1.560000</speed>
</trkpt>
<trkpt lat="22.039566" lon="103.949104">
<ele>897.305176</ele>
<time>2011-04-26T03:41:15Z</time>
<desc>lat.=22.039566, lon.=103.949104, Alt.=897.305176m. Speed=4.032000m/h.</desc>
<speed>1.120000</speed>
</trkpt>
<trkpt lat="22.039505" lon="103.949158">
<ele>897.758301</ele>
<time>2011-04-26T03:41:20Z</time>
<desc>lat.=22.039505, lon.=103.949158, Alt.=897.758301m. Speed=3.240000m/h.</desc>
<speed>0.900000</speed>
</trkpt>
<trkpt lat="22.039442" lon="103.949226">
<ele>897.789551</ele>
<time>2011-04-26T03:41:25Z</time>
<desc>lat.=22.039442, lon.=103.949226, Alt.=897.789551m. Speed=4.680000m/h.</desc>
<speed>1.300000</speed>
</trkpt>
<trkpt lat="22.039394" lon="103.949310">
<ele>898.195801</ele>
<time>2011-04-26T03:41:30Z</time>
<desc>lat.=22.039394, lon.=103.949310, Alt.=898.195801m. Speed=5.508000m/h.</desc>
<speed>1.530000</speed>
</trkpt>
<trkpt lat="22.039377" lon="103.949394">
<ele>898.070801</ele>
<time>2011-04-26T03:41:35Z</time>
<desc>lat.=22.039377, lon.=103.949394, Alt.=898.070801m. Speed=3.852000m/h.</desc>
<speed>1.070000</speed>
</trkpt>
<trkpt lat="22.039373" lon="103.949478">
<ele>898.289551</ele>
<time>2011-04-26T03:41:40Z</time>
<desc>lat.=22.039373, lon.=103.949478, Alt.=898.289551m. Speed=3.312000m/h.</desc>
<speed>0.920000</speed>
</trkpt>
<trkpt lat="22.039364" lon="103.949562">
<ele>898.820801</ele>
<time>2011-04-26T03:41:45Z</time>
<desc>lat.=22.039364, lon.=103.949562, Alt.=898.820801m. Speed=5.040000m/h.</desc>
<speed>1.400000</speed>
</trkpt>
<trkpt lat="22.039324" lon="103.949661">
<ele>898.398926</ele>
<time>2011-04-26T03:41:50Z</time>
<desc>lat.=22.039324, lon.=103.949661, Alt.=898.398926m. Speed=5.364000m/h.</desc>
<speed>1.490000</speed>
</trkpt>
<trkpt lat="22.039324" lon="103.949753">
<ele>898.680176</ele>
<time>2011-04-26T03:41:55Z</time>
<desc>lat.=22.039324, lon.=103.949753, Alt.=898.680176m. Speed=5.220000m/h.</desc>
<speed>1.450000</speed>
</trkpt>
<trkpt lat="22.039335" lon="103.949852">
<ele>898.570801</ele>
<time>2011-04-26T03:42:00Z</time>
<desc>lat.=22.039335, lon.=103.949852, Alt.=898.570801m. Speed=3.384000m/h.</desc>
<speed>0.940000</speed>
</trkpt>
<trkpt lat="22.039356" lon="103.949913">
<ele>898.461426</ele>
<time>2011-04-26T03:42:05Z</time>
<desc>lat.=22.039356, lon.=103.949913, Alt.=898.461426m. Speed=4.068000m/h.</desc>
<speed>1.130000</speed>
</trkpt>
<trkpt lat="22.039385" lon="103.949974">
<ele>898.852051</ele>
<time>2011-04-26T03:42:10Z</time>
<desc>lat.=22.039385, lon.=103.949974, Alt.=898.852051m. Speed=3.996000m/h.</desc>
<speed>1.110000</speed>
</trkpt>
<trkpt lat="22.039406" lon="103.950050">
<ele>897.664551</ele>
<time>2011-04-26T03:42:15Z</time>
<desc>lat.=22.039406, lon.=103.950050, Alt.=897.664551m. Speed=4.464000m/h.</desc>
<speed>1.240000</speed>
</trkpt>
<trkpt lat="22.039415" lon="103.950127">
<ele>896.508301</ele>
<time>2011-04-26T03:42:20Z</time>
<desc>lat.=22.039415, lon.=103.950127, Alt.=896.508301m. Speed=5.580000m/h.</desc>
<speed>1.550000</speed>
</trkpt>
<trkpt lat="22.039419" lon="103.950211">
<ele>894.898926</ele>
<time>2011-04-26T03:42:25Z</time>
<desc>lat.=22.039419, lon.=103.950211, Alt.=894.898926m. Speed=3.888000m/h.</desc>
<speed>1.080000</speed>
</trkpt>
<trkpt lat="22.039484" lon="103.950287">
<ele>894.398926</ele>
<time>2011-04-26T03:42:30Z</time>
<desc>lat.=22.039484, lon.=103.950287, Alt.=894.398926m. Speed=4.392000m/h.</desc>
<speed>1.220000</speed>
</trkpt>
<trkpt lat="22.039536" lon="103.950363">
<ele>892.992676</ele>
<time>2011-04-26T03:42:35Z</time>
<desc>lat.=22.039536, lon.=103.950363, Alt.=892.992676m. Speed=5.832000m/h.</desc>
<speed>1.620000</speed>
</trkpt>
<trkpt lat="22.039536" lon="103.950439">
<ele>892.414551</ele>
<time>2011-04-26T03:42:40Z</time>
<desc>lat.=22.039536, lon.=103.950439, Alt.=892.414551m. Speed=4.932000m/h.</desc>
<speed>1.370000</speed>
</trkpt>
<trkpt lat="22.039528" lon="103.950523">
<ele>893.023926</ele>
<time>2011-04-26T03:42:45Z</time>
<desc>lat.=22.039528, lon.=103.950523, Alt.=893.023926m. Speed=5.040000m/h.</desc>
<speed>1.400000</speed>
</trkpt>
<trkpt lat="22.039549" lon="103.950600">
<ele>893.648926</ele>
<time>2011-04-26T03:42:50Z</time>
<desc>lat.=22.039549, lon.=103.950600, Alt.=893.648926m. Speed=4.392000m/h.</desc>
<speed>1.220000</speed>
</trkpt>
<trkpt lat="22.039579" lon="103.950661">
<ele>894.664551</ele>
<time>2011-04-26T03:42:55Z</time>
<desc>lat.=22.039579, lon.=103.950661, Alt.=894.664551m. Speed=3.276000m/h.</desc>
<speed>0.910000</speed>
</trkpt>
<trkpt lat="22.039639" lon="103.950714">
<ele>897.164551</ele>
<time>2011-04-26T03:43:00Z</time>
<desc>lat.=22.039639, lon.=103.950714, Alt.=897.164551m. Speed=4.536000m/h.</desc>
<speed>1.260000</speed>
</trkpt>
<trkpt lat="22.039663" lon="103.950760">
<ele>899.117676</ele>
<time>2011-04-26T03:43:05Z</time>
<desc>lat.=22.039663, lon.=103.950760, Alt.=899.117676m. Speed=2.412000m/h.</desc>
<speed>0.670000</speed>
</trkpt>
<trkpt lat="22.039660" lon="103.950829">
<ele>902.367676</ele>
<time>2011-04-26T03:43:10Z</time>
<desc>lat.=22.039660, lon.=103.950829, Alt.=902.367676m. Speed=3.096000m/h.</desc>
<speed>0.860000</speed>
</trkpt>
<trkpt lat="22.039673" lon="103.950928">
<ele>904.180176</ele>
<time>2011-04-26T03:43:15Z</time>
<desc>lat.=22.039673, lon.=103.950928, Alt.=904.180176m. Speed=3.564000m/h.</desc>
<speed>0.990000</speed>
</trkpt>
<trkpt lat="22.039680" lon="103.951004">
<ele>905.680176</ele>
<time>2011-04-26T03:43:20Z</time>
<desc>lat.=22.039680, lon.=103.951004, Alt.=905.680176m. Speed=5.364000m/h.</desc>
<speed>1.490000</speed>
</trkpt>
<trkpt lat="22.039692" lon="103.951073">
<ele>906.477051</ele>
<time>2011-04-26T03:43:25Z</time>
<desc>lat.=22.039692, lon.=103.951073, Alt.=906.477051m. Speed=4.716000m/h.</desc>
<speed>1.310000</speed>
</trkpt>
<trkpt lat="22.039696" lon="103.951134">
<ele>905.852051</ele>
<time>2011-04-26T03:43:30Z</time>
<desc>lat.=22.039696, lon.=103.951134, Alt.=905.852051m. Speed=2.772000m/h.</desc>
<speed>0.770000</speed>
</trkpt>
<trkpt lat="22.039696" lon="103.951187">
<ele>906.227051</ele>
<time>2011-04-26T03:43:35Z</time>
<desc>lat.=22.039696, lon.=103.951187, Alt.=906.227051m. Speed=3.744000m/h.</desc>
<speed>1.040000</speed>
</trkpt>
<trkpt lat="22.039690" lon="103.951263">
<ele>905.508301</ele>
<time>2011-04-26T03:43:40Z</time>
<desc>lat.=22.039690, lon.=103.951263, Alt.=905.508301m. Speed=4.320000m/h.</desc>
<speed>1.200000</speed>
</trkpt>
<trkpt lat="22.039686" lon="103.951317">
<ele>905.820801</ele>
<time>2011-04-26T03:43:45Z</time>
<desc>lat.=22.039686, lon.=103.951317, Alt.=905.820801m. Speed=4.140000m/h.</desc>
<speed>1.150000</speed>
</trkpt>
<trkpt lat="22.039669" lon="103.951408">
<ele>906.930176</ele>
<time>2011-04-26T03:43:50Z</time>
<desc>lat.=22.039669, lon.=103.951408, Alt.=906.930176m. Speed=4.464000m/h.</desc>
<speed>1.240000</speed>
</trkpt>
<trkpt lat="22.039658" lon="103.951477">
<ele>907.336426</ele>
<time>2011-04-26T03:43:55Z</time>
<desc>lat.=22.039658, lon.=103.951477, Alt.=907.336426m. Speed=4.572000m/h.</desc>
<speed>1.270000</speed>
</trkpt>
<trkpt lat="22.039658" lon="103.951561">
<ele>908.898926</ele>
<time>2011-04-26T03:44:00Z</time>
<desc>lat.=22.039658, lon.=103.951561, Alt.=908.898926m. Speed=5.040000m/h.</desc>
<speed>1.400000</speed>
</trkpt>
<trkpt lat="22.039640" lon="103.951607">
<ele>909.508301</ele>
<time>2011-04-26T03:44:05Z</time>
<desc>lat.=22.039640, lon.=103.951607, Alt.=909.508301m. Speed=5.040000m/h.</desc>
<speed>1.400000</speed>
</trkpt>
<trkpt lat="22.039625" lon="103.951675">
<ele>910.273926</ele>
<time>2011-04-26T03:44:10Z</time>
<desc>lat.=22.039625, lon.=103.951675, Alt.=910.273926m. Speed=5.436000m/h.</desc>
<speed>1.510000</speed>
</trkpt>
<trkpt lat="22.039618" lon="103.951736">
<ele>912.883301</ele>
<time>2011-04-26T03:44:15Z</time>
<desc>lat.=22.039618, lon.=103.951736, Alt.=912.883301m. Speed=4.284000m/h.</desc>
<speed>1.190000</speed>
</trkpt>
<trkpt lat="22.039612" lon="103.951813">
<ele>914.820801</ele>
<time>2011-04-26T03:44:20Z</time>
<desc>lat.=22.039612, lon.=103.951813, Alt.=914.820801m. Speed=5.544000m/h.</desc>
<speed>1.540000</speed>
</trkpt>
<trkpt lat="22.039616" lon="103.951889">
<ele>917.023926</ele>
<time>2011-04-26T03:44:25Z</time>
<desc>lat.=22.039616, lon.=103.951889, Alt.=917.023926m. Speed=3.564000m/h.</desc>
<speed>0.990000</speed>
</trkpt>
<trkpt lat="22.039642" lon="103.951973">
<ele>918.273926</ele>
<time>2011-04-26T03:44:30Z</time>
<desc>lat.=22.039642, lon.=103.951973, Alt.=918.273926m. Speed=5.292000m/h.</desc>
<speed>1.470000</speed>
</trkpt>
<trkpt lat="22.039705" lon="103.952103">
<ele>919.398926</ele>
<time>2011-04-26T03:44:35Z</time>
<desc>lat.=22.039705, lon.=103.952103, Alt.=919.398926m. Speed=5.544000m/h.</desc>
<speed>1.540000</speed>
</trkpt>
<trkpt lat="22.039751" lon="103.952194">
<ele>919.617676</ele>
<time>2011-04-26T03:44:40Z</time>
<desc>lat.=22.039751, lon.=103.952194, Alt.=919.617676m. Speed=6.948000m/h.</desc>
<speed>1.930000</speed>
</trkpt>
<trkpt lat="22.039827" lon="103.952271">
<ele>922.008301</ele>
<time>2011-04-26T03:44:45Z</time>
<desc>lat.=22.039827, lon.=103.952271, Alt.=922.008301m. Speed=6.480000m/h.</desc>
<speed>1.800000</speed>
</trkpt>
<trkpt lat="22.039885" lon="103.952309">
<ele>922.383301</ele>
<time>2011-04-26T03:44:50Z</time>
<desc>lat.=22.039885, lon.=103.952309, Alt.=922.383301m. Speed=4.212000m/h.</desc>
<speed>1.170000</speed>
</trkpt>
<trkpt lat="22.039923" lon="103.952347">
<ele>922.539551</ele>
<time>2011-04-26T03:44:55Z</time>
<desc>lat.=22.039923, lon.=103.952347, Alt.=922.539551m. Speed=4.284000m/h.</desc>
<speed>1.190000</speed>
</trkpt>
<trkpt lat="22.039974" lon="103.952408">
<ele>922.773926</ele>
<time>2011-04-26T03:45:00Z</time>
<desc>lat.=22.039974, lon.=103.952408, Alt.=922.773926m. Speed=5.508000m/h.</desc>
<speed>1.530000</speed>
</trkpt>
<trkpt lat="22.040026" lon="103.952461">
<ele>923.117676</ele>
<time>2011-04-26T03:45:05Z</time>
<desc>lat.=22.040026, lon.=103.952461, Alt.=923.117676m. Speed=6.228000m/h.</desc>
<speed>1.730000</speed>
</trkpt>
<trkpt lat="22.040108" lon="103.952530">
<ele>923.555176</ele>
<time>2011-04-26T03:45:10Z</time>
<desc>lat.=22.040108, lon.=103.952530, Alt.=923.555176m. Speed=6.408000m/h.</desc>
<speed>1.780000</speed>
</trkpt>
<trkpt lat="22.040215" lon="103.952583">
<ele>924.430176</ele>
<time>2011-04-26T03:45:15Z</time>
<desc>lat.=22.040215, lon.=103.952583, Alt.=924.430176m. Speed=6.228000m/h.</desc>
<speed>1.730000</speed>
</trkpt>
<trkpt lat="22.040316" lon="103.952614">
<ele>925.273926</ele>
<time>2011-04-26T03:45:20Z</time>
<desc>lat.=22.040316, lon.=103.952614, Alt.=925.273926m. Speed=5.940000m/h.</desc>
<speed>1.650000</speed>
</trkpt>
<trkpt lat="22.040409" lon="103.952644">
<ele>925.648926</ele>
<time>2011-04-26T03:45:25Z</time>
<desc>lat.=22.040409, lon.=103.952644, Alt.=925.648926m. Speed=6.336000m/h.</desc>
<speed>1.760000</speed>
</trkpt>
<trkpt lat="22.040474" lon="103.952682">
<ele>926.227051</ele>
<time>2011-04-26T03:45:30Z</time>
<desc>lat.=22.040474, lon.=103.952682, Alt.=926.227051m. Speed=6.048000m/h.</desc>
<speed>1.680000</speed>
</trkpt>
<trkpt lat="22.040506" lon="103.952736">
<ele>926.414551</ele>
<time>2011-04-26T03:45:35Z</time>
<desc>lat.=22.040506, lon.=103.952736, Alt.=926.414551m. Speed=5.436000m/h.</desc>
<speed>1.510000</speed>
</trkpt>
<trkpt lat="22.040524" lon="103.952782">
<ele>926.680176</ele>
<time>2011-04-26T03:45:40Z</time>
<desc>lat.=22.040524, lon.=103.952782, Alt.=926.680176m. Speed=3.816000m/h.</desc>
<speed>1.060000</speed>
</trkpt>
<trkpt lat="22.040539" lon="103.952850">
<ele>927.164551</ele>
<time>2011-04-26T03:45:45Z</time>
<desc>lat.=22.040539, lon.=103.952850, Alt.=927.164551m. Speed=6.228000m/h.</desc>
<speed>1.730000</speed>
</trkpt>
<trkpt lat="22.040531" lon="103.952942">
<ele>928.180176</ele>
<time>2011-04-26T03:45:50Z</time>
<desc>lat.=22.040531, lon.=103.952942, Alt.=928.180176m. Speed=4.104000m/h.</desc>
<speed>1.140000</speed>
</trkpt>
<trkpt lat="22.040533" lon="103.953003">
<ele>928.242676</ele>
<time>2011-04-26T03:45:55Z</time>
<desc>lat.=22.040533, lon.=103.953003, Alt.=928.242676m. Speed=3.456000m/h.</desc>
<speed>0.960000</speed>
</trkpt>
<trkpt lat="22.040531" lon="103.953102">
<ele>928.305176</ele>
<time>2011-04-26T03:46:00Z</time>
<desc>lat.=22.040531, lon.=103.953102, Alt.=928.305176m. Speed=7.308000m/h.</desc>
<speed>2.030000</speed>
</trkpt>
<trkpt lat="22.040535" lon="103.953194">
<ele>928.992676</ele>
<time>2011-04-26T03:46:05Z</time>
<desc>lat.=22.040535, lon.=103.953194, Alt.=928.992676m. Speed=3.816000m/h.</desc>
<speed>1.060000</speed>
</trkpt>
<trkpt lat="22.040577" lon="103.953278">
<ele>928.930176</ele>
<time>2011-04-26T03:46:10Z</time>
<desc>lat.=22.040577, lon.=103.953278, Alt.=928.930176m. Speed=5.040000m/h.</desc>
<speed>1.400000</speed>
</trkpt>
<trkpt lat="22.040630" lon="103.953369">
<ele>928.898926</ele>
<time>2011-04-26T03:46:15Z</time>
<desc>lat.=22.040630, lon.=103.953369, Alt.=928.898926m. Speed=5.472000m/h.</desc>
<speed>1.520000</speed>
</trkpt>
<trkpt lat="22.040667" lon="103.953453">
<ele>930.102051</ele>
<time>2011-04-26T03:46:20Z</time>
<desc>lat.=22.040667, lon.=103.953453, Alt.=930.102051m. Speed=5.472000m/h.</desc>
<speed>1.520000</speed>
</trkpt>
<trkpt lat="22.040730" lon="103.953506">
<ele>930.430176</ele>
<time>2011-04-26T03:46:25Z</time>
<desc>lat.=22.040730, lon.=103.953506, Alt.=930.430176m. Speed=5.796000m/h.</desc>
<speed>1.610000</speed>
</trkpt>
<trkpt lat="22.040770" lon="103.953560">
<ele>930.883301</ele>
<time>2011-04-26T03:46:30Z</time>
<desc>lat.=22.040770, lon.=103.953560, Alt.=930.883301m. Speed=4.932000m/h.</desc>
<speed>1.370000</speed>
</trkpt>
<trkpt lat="22.040831" lon="103.953613">
<ele>931.023926</ele>
<time>2011-04-26T03:46:35Z</time>
<desc>lat.=22.040831, lon.=103.953613, Alt.=931.023926m. Speed=4.860000m/h.</desc>
<speed>1.350000</speed>
</trkpt>
<trkpt lat="22.040876" lon="103.953667">
<ele>930.352051</ele>
<time>2011-04-26T03:46:40Z</time>
<desc>lat.=22.040876, lon.=103.953667, Alt.=930.352051m. Speed=4.356000m/h.</desc>
<speed>1.210000</speed>
</trkpt>
<trkpt lat="22.040930" lon="103.953735">
<ele>930.508301</ele>
<time>2011-04-26T03:46:45Z</time>
<desc>lat.=22.040930, lon.=103.953735, Alt.=930.508301m. Speed=3.996000m/h.</desc>
<speed>1.110000</speed>
</trkpt>
<trkpt lat="22.040991" lon="103.953812">
<ele>931.148926</ele>
<time>2011-04-26T03:46:50Z</time>
<desc>lat.=22.040991, lon.=103.953812, Alt.=931.148926m. Speed=5.508000m/h.</desc>
<speed>1.530000</speed>
</trkpt>
<trkpt lat="22.041037" lon="103.953873">
<ele>931.414551</ele>
<time>2011-04-26T03:46:55Z</time>
<desc>lat.=22.041037, lon.=103.953873, Alt.=931.414551m. Speed=3.744000m/h.</desc>
<speed>1.040000</speed>
</trkpt>
<trkpt lat="22.041075" lon="103.953949">
<ele>932.227051</ele>
<time>2011-04-26T03:47:00Z</time>
<desc>lat.=22.041075, lon.=103.953949, Alt.=932.227051m. Speed=3.384000m/h.</desc>
<speed>0.940000</speed>
</trkpt>
<trkpt lat="22.041126" lon="103.953972">
<ele>932.445801</ele>
<time>2011-04-26T03:47:05Z</time>
<desc>lat.=22.041126, lon.=103.953972, Alt.=932.445801m. Speed=3.456000m/h.</desc>
<speed>0.960000</speed>
</trkpt>
<trkpt lat="22.041170" lon="103.954002">
<ele>933.555176</ele>
<time>2011-04-26T03:47:10Z</time>
<desc>lat.=22.041170, lon.=103.954002, Alt.=933.555176m. Speed=2.088000m/h.</desc>
<speed>0.580000</speed>
</trkpt>
<trkpt lat="22.041265" lon="103.954048">
<ele>934.461426</ele>
<time>2011-04-26T03:47:15Z</time>
<desc>lat.=22.041265, lon.=103.954048, Alt.=934.461426m. Speed=3.852000m/h.</desc>
<speed>1.070000</speed>
</trkpt>
<trkpt lat="22.041357" lon="103.954056">
<ele>935.445801</ele>
<time>2011-04-26T03:47:20Z</time>
<desc>lat.=22.041357, lon.=103.954056, Alt.=935.445801m. Speed=3.348000m/h.</desc>
<speed>0.930000</speed>
</trkpt>
<trkpt lat="22.041445" lon="103.954086">
<ele>935.961426</ele>
<time>2011-04-26T03:47:25Z</time>
<desc>lat.=22.041445, lon.=103.954086, Alt.=935.961426m. Speed=4.140000m/h.</desc>
<speed>1.150000</speed>
</trkpt>
<trkpt lat="22.041491" lon="103.954109">
<ele>936.320801</ele>
<time>2011-04-26T03:47:30Z</time>
<desc>lat.=22.041491, lon.=103.954109, Alt.=936.320801m. Speed=3.420000m/h.</desc>
<speed>0.950000</speed>
</trkpt>
<trkpt lat="22.041544" lon="103.954117">
<ele>936.773926</ele>
<time>2011-04-26T03:47:35Z</time>
<desc>lat.=22.041544, lon.=103.954117, Alt.=936.773926m. Speed=3.744000m/h.</desc>
<speed>1.040000</speed>
</trkpt>
<trkpt lat="22.041618" lon="103.954109">
<ele>937.148926</ele>
<time>2011-04-26T03:47:40Z</time>
<desc>lat.=22.041618, lon.=103.954109, Alt.=937.148926m. Speed=2.664000m/h.</desc>
<speed>0.740000</speed>
</trkpt>
<trkpt lat="22.041668" lon="103.954117">
<ele>937.305176</ele>
<time>2011-04-26T03:47:45Z</time>
<desc>lat.=22.041668, lon.=103.954117, Alt.=937.305176m. Speed=1.224000m/h.</desc>
<speed>0.340000</speed>
</trkpt>
<trkpt lat="22.041744" lon="103.954124">
<ele>937.195801</ele>
<time>2011-04-26T03:47:50Z</time>
<desc>lat.=22.041744, lon.=103.954124, Alt.=937.195801m. Speed=2.556000m/h.</desc>
<speed>0.710000</speed>
</trkpt>
<trkpt lat="22.041819" lon="103.954185">
<ele>937.289551</ele>
<time>2011-04-26T03:47:55Z</time>
<desc>lat.=22.041819, lon.=103.954185, Alt.=937.289551m. Speed=3.204000m/h.</desc>
<speed>0.890000</speed>
</trkpt>
<trkpt lat="22.041935" lon="103.954254">
<ele>937.414551</ele>
<time>2011-04-26T03:48:00Z</time>
<desc>lat.=22.041935, lon.=103.954254, Alt.=937.414551m. Speed=2.844000m/h.</desc>
<speed>0.790000</speed>
</trkpt>
<trkpt lat="22.041990" lon="103.954292">
<ele>937.570801</ele>
<time>2011-04-26T03:48:05Z</time>
<desc>lat.=22.041990, lon.=103.954292, Alt.=937.570801m. Speed=2.736000m/h.</desc>
<speed>0.760000</speed>
</trkpt>
<trkpt lat="22.042042" lon="103.954330">
<ele>937.695801</ele>
<time>2011-04-26T03:48:10Z</time>
<desc>lat.=22.042042, lon.=103.954330, Alt.=937.695801m. Speed=3.312000m/h.</desc>
<speed>0.920000</speed>
</trkpt>
<trkpt lat="22.042112" lon="103.954361">
<ele>937.930176</ele>
<time>2011-04-26T03:48:15Z</time>
<desc>lat.=22.042112, lon.=103.954361, Alt.=937.930176m. Speed=4.464000m/h.</desc>
<speed>1.240000</speed>
</trkpt>
<trkpt lat="22.042177" lon="103.954369">
<ele>938.180176</ele>
<time>2011-04-26T03:48:20Z</time>
<desc>lat.=22.042177, lon.=103.954369, Alt.=938.180176m. Speed=2.196000m/h.</desc>
<speed>0.610000</speed>
</trkpt>
<trkpt lat="22.042253" lon="103.954369">
<ele>938.227051</ele>
<time>2011-04-26T03:48:25Z</time>
<desc>lat.=22.042253, lon.=103.954369, Alt.=938.227051m. Speed=3.456000m/h.</desc>
<speed>0.960000</speed>
</trkpt>
<trkpt lat="22.042316" lon="103.954353">
<ele>938.352051</ele>
<time>2011-04-26T03:48:30Z</time>
<desc>lat.=22.042316, lon.=103.954353, Alt.=938.352051m. Speed=3.276000m/h.</desc>
<speed>0.910000</speed>
</trkpt>
<trkpt lat="22.042372" lon="103.954353">
<ele>938.305176</ele>
<time>2011-04-26T03:48:35Z</time>
<desc>lat.=22.042372, lon.=103.954353, Alt.=938.305176m. Speed=3.636000m/h.</desc>
<speed>1.010000</speed>
</trkpt>
<trkpt lat="22.042416" lon="103.954315">
<ele>938.320801</ele>
<time>2011-04-26T03:48:40Z</time>
<desc>lat.=22.042416, lon.=103.954315, Alt.=938.320801m. Speed=3.168000m/h.</desc>
<speed>0.880000</speed>
</trkpt>
<trkpt lat="22.042448" lon="103.954315">
<ele>938.805176</ele>
<time>2011-04-26T03:48:45Z</time>
<desc>lat.=22.042448, lon.=103.954315, Alt.=938.805176m. Speed=4.176000m/h.</desc>
<speed>1.160000</speed>
</trkpt>
<trkpt lat="22.042503" lon="103.954323">
<ele>939.211426</ele>
<time>2011-04-26T03:48:50Z</time>
<desc>lat.=22.042503, lon.=103.954323, Alt.=939.211426m. Speed=3.636000m/h.</desc>
<speed>1.010000</speed>
</trkpt>
<trkpt lat="22.042599" lon="103.954315">
<ele>940.227051</ele>
<time>2011-04-26T03:48:55Z</time>
<desc>lat.=22.042599, lon.=103.954315, Alt.=940.227051m. Speed=4.968000m/h.</desc>
<speed>1.380000</speed>
</trkpt>
<trkpt lat="22.042614" lon="103.954361">
<ele>942.836426</ele>
<time>2011-04-26T03:49:00Z</time>
<desc>lat.=22.042614, lon.=103.954361, Alt.=942.836426m. Speed=4.644000m/h.</desc>
<speed>1.290000</speed>
</trkpt>
<trkpt lat="22.042660" lon="103.954399">
<ele>943.367676</ele>
<time>2011-04-26T03:49:05Z</time>
<desc>lat.=22.042660, lon.=103.954399, Alt.=943.367676m. Speed=3.168000m/h.</desc>
<speed>0.880000</speed>
</trkpt>
<trkpt lat="22.042665" lon="103.954453">
<ele>944.102051</ele>
<time>2011-04-26T03:49:10Z</time>
<desc>lat.=22.042665, lon.=103.954453, Alt.=944.102051m. Speed=2.412000m/h.</desc>
<speed>0.670000</speed>
</trkpt>
<trkpt lat="22.042669" lon="103.954491">
<ele>944.242676</ele>
<time>2011-04-26T03:49:15Z</time>
<desc>lat.=22.042669, lon.=103.954491, Alt.=944.242676m. Speed=2.196000m/h.</desc>
<speed>0.610000</speed>
</trkpt>
<trkpt lat="22.042671" lon="103.954529">
<ele>944.461426</ele>
<time>2011-04-26T03:49:20Z</time>
<desc>lat.=22.042671, lon.=103.954529, Alt.=944.461426m. Speed=3.168000m/h.</desc>
<speed>0.880000</speed>
</trkpt>
<trkpt lat="22.042692" lon="103.954605">
<ele>945.070801</ele>
<time>2011-04-26T03:49:25Z</time>
<desc>lat.=22.042692, lon.=103.954605, Alt.=945.070801m. Speed=4.572000m/h.</desc>
<speed>1.270000</speed>
</trkpt>
<trkpt lat="22.042679" lon="103.954704">
<ele>944.727051</ele>
<time>2011-04-26T03:49:30Z</time>
<desc>lat.=22.042679, lon.=103.954704, Alt.=944.727051m. Speed=5.400000m/h.</desc>
<speed>1.500000</speed>
</trkpt>
<trkpt lat="22.042671" lon="103.954781">
<ele>946.758301</ele>
<time>2011-04-26T03:49:35Z</time>
<desc>lat.=22.042671, lon.=103.954781, Alt.=946.758301m. Speed=5.616000m/h.</desc>
<speed>1.560000</speed>
</trkpt>
<trkpt lat="22.042667" lon="103.954849">
<ele>948.211426</ele>
<time>2011-04-26T03:49:40Z</time>
<desc>lat.=22.042667, lon.=103.954849, Alt.=948.211426m. Speed=2.556000m/h.</desc>
<speed>0.710000</speed>
</trkpt>
<trkpt lat="22.042694" lon="103.954880">
<ele>949.945801</ele>
<time>2011-04-26T03:49:45Z</time>
<desc>lat.=22.042694, lon.=103.954880, Alt.=949.945801m. Speed=2.736000m/h.</desc>
<speed>0.760000</speed>
</trkpt>
<trkpt lat="22.042715" lon="103.954933">
<ele>951.820801</ele>
<time>2011-04-26T03:49:50Z</time>
<desc>lat.=22.042715, lon.=103.954933, Alt.=951.820801m. Speed=3.996000m/h.</desc>
<speed>1.110000</speed>
</trkpt>
<trkpt lat="22.042711" lon="103.954994">
<ele>953.445801</ele>
<time>2011-04-26T03:49:55Z</time>
<desc>lat.=22.042711, lon.=103.954994, Alt.=953.445801m. Speed=2.520000m/h.</desc>
<speed>0.700000</speed>
</trkpt>
<trkpt lat="22.042704" lon="103.954994">
<ele>954.805176</ele>
<time>2011-04-26T03:50:00Z</time>
<desc>lat.=22.042704, lon.=103.954994, Alt.=954.805176m. Speed=0.432000m/h.</desc>
<speed>0.120000</speed>
</trkpt>
<trkpt lat="22.042711" lon="103.954987">
<ele>955.633301</ele>
<time>2011-04-26T03:50:05Z</time>
<desc>lat.=22.042711, lon.=103.954987, Alt.=955.633301m. Speed=0.504000m/h.</desc>
<speed>0.140000</speed>
</trkpt>
<trkpt lat="22.042706" lon="103.954994">
<ele>956.539551</ele>
<time>2011-04-26T03:50:10Z</time>
<desc>lat.=22.042706, lon.=103.954994, Alt.=956.539551m. Speed=0.468000m/h.</desc>
<speed>0.130000</speed>
</trkpt>
<trkpt lat="22.042702" lon="103.955002">
<ele>957.430176</ele>
<time>2011-04-26T03:50:15Z</time>
<desc>lat.=22.042702, lon.=103.955002, Alt.=957.430176m. Speed=0.756000m/h.</desc>
<speed>0.210000</speed>
</trkpt>
<trkpt lat="22.042694" lon="103.955009">
<ele>958.258301</ele>
<time>2011-04-26T03:50:20Z</time>
<desc>lat.=22.042694, lon.=103.955009, Alt.=958.258301m. Speed=0.864000m/h.</desc>
<speed>0.240000</speed>
</trkpt>
<trkpt lat="22.042685" lon="103.955009">
<ele>959.039551</ele>
<time>2011-04-26T03:50:25Z</time>
<desc>lat.=22.042685, lon.=103.955009, Alt.=959.039551m. Speed=0.792000m/h.</desc>
<speed>0.220000</speed>
</trkpt>
<trkpt lat="22.042679" lon="103.955017">
<ele>959.852051</ele>
<time>2011-04-26T03:50:30Z</time>
<desc>lat.=22.042679, lon.=103.955017, Alt.=959.852051m. Speed=0.756000m/h.</desc>
<speed>0.210000</speed>
</trkpt>
<trkpt lat="22.042669" lon="103.955025">
<ele>960.648926</ele>
<time>2011-04-26T03:50:35Z</time>
<desc>lat.=22.042669, lon.=103.955025, Alt.=960.648926m. Speed=0.828000m/h.</desc>
<speed>0.230000</speed>
</trkpt>
<trkpt lat="22.042662" lon="103.955032">
<ele>961.461426</ele>
<time>2011-04-26T03:50:40Z</time>
<desc>lat.=22.042662, lon.=103.955032, Alt.=961.461426m. Speed=0.396000m/h.</desc>
<speed>0.110000</speed>
</trkpt>
<trkpt lat="22.042662" lon="103.955040">
<ele>962.258301</ele>
<time>2011-04-26T03:50:45Z</time>
<desc>lat.=22.042662, lon.=103.955040, Alt.=962.258301m. Speed=2.016000m/h.</desc>
<speed>0.560000</speed>
</trkpt>
<trkpt lat="22.042694" lon="103.955055">
<ele>962.727051</ele>
<time>2011-04-26T03:50:50Z</time>
<desc>lat.=22.042694, lon.=103.955055, Alt.=962.727051m. Speed=1.980000m/h.</desc>
<speed>0.550000</speed>
</trkpt>
<trkpt lat="22.042749" lon="103.955055">
<ele>962.898926</ele>
<time>2011-04-26T03:50:55Z</time>
<desc>lat.=22.042749, lon.=103.955055, Alt.=962.898926m. Speed=2.016000m/h.</desc>
<speed>0.560000</speed>
</trkpt>
<trkpt lat="22.042789" lon="103.955040">
<ele>963.789551</ele>
<time>2011-04-26T03:51:00Z</time>
<desc>lat.=22.042789, lon.=103.955040, Alt.=963.789551m. Speed=1.980000m/h.</desc>
<speed>0.550000</speed>
</trkpt>
<trkpt lat="22.042772" lon="103.955055">
<ele>965.023926</ele>
<time>2011-04-26T03:51:05Z</time>
<desc>lat.=22.042772, lon.=103.955055, Alt.=965.023926m. Speed=0.828000m/h.</desc>
<speed>0.230000</speed>
</trkpt>
<trkpt lat="22.042763" lon="103.955078">
<ele>965.945801</ele>
<time>2011-04-26T03:51:10Z</time>
<desc>lat.=22.042763, lon.=103.955078, Alt.=965.945801m. Speed=1.044000m/h.</desc>
<speed>0.290000</speed>
</trkpt>
<trkpt lat="22.042757" lon="103.955116">
<ele>967.133301</ele>
<time>2011-04-26T03:51:15Z</time>
<desc>lat.=22.042757, lon.=103.955116, Alt.=967.133301m. Speed=1.800000m/h.</desc>
<speed>0.500000</speed>
</trkpt>
<trkpt lat="22.042772" lon="103.955177">
<ele>967.836426</ele>
<time>2011-04-26T03:51:20Z</time>
<desc>lat.=22.042772, lon.=103.955177, Alt.=967.836426m. Speed=2.592000m/h.</desc>
<speed>0.720000</speed>
</trkpt>
<trkpt lat="22.042803" lon="103.955254">
<ele>968.523926</ele>
<time>2011-04-26T03:51:25Z</time>
<desc>lat.=22.042803, lon.=103.955254, Alt.=968.523926m. Speed=5.040000m/h.</desc>
<speed>1.400000</speed>
</trkpt>
<trkpt lat="22.042850" lon="103.955330">
<ele>969.320801</ele>
<time>2011-04-26T03:51:30Z</time>
<desc>lat.=22.042850, lon.=103.955330, Alt.=969.320801m. Speed=3.636000m/h.</desc>
<speed>1.010000</speed>
</trkpt>
<trkpt lat="22.042931" lon="103.955353">
<ele>969.883301</ele>
<time>2011-04-26T03:51:35Z</time>
<desc>lat.=22.042931, lon.=103.955353, Alt.=969.883301m. Speed=6.264000m/h.</desc>
<speed>1.740000</speed>
</trkpt>
<trkpt lat="22.043015" lon="103.955376">
<ele>971.148926</ele>
<time>2011-04-26T03:51:40Z</time>
<desc>lat.=22.043015, lon.=103.955376, Alt.=971.148926m. Speed=5.364000m/h.</desc>
<speed>1.490000</speed>
</trkpt>
<trkpt lat="22.043089" lon="103.955414">
<ele>972.555176</ele>
<time>2011-04-26T03:51:45Z</time>
<desc>lat.=22.043089, lon.=103.955414, Alt.=972.555176m. Speed=4.824000m/h.</desc>
<speed>1.340000</speed>
</trkpt>
<trkpt lat="22.043180" lon="103.955444">
<ele>973.211426</ele>
<time>2011-04-26T03:51:50Z</time>
<desc>lat.=22.043180, lon.=103.955444, Alt.=973.211426m. Speed=6.408000m/h.</desc>
<speed>1.780000</speed>
</trkpt>
<trkpt lat="22.043232" lon="103.955475">
<ele>973.977051</ele>
<time>2011-04-26T03:51:55Z</time>
<desc>lat.=22.043232, lon.=103.955475, Alt.=973.977051m. Speed=4.320000m/h.</desc>
<speed>1.200000</speed>
</trkpt>
<trkpt lat="22.043289" lon="103.955482">
<ele>974.930176</ele>
<time>2011-04-26T03:52:00Z</time>
<desc>lat.=22.043289, lon.=103.955482, Alt.=974.930176m. Speed=4.644000m/h.</desc>
<speed>1.290000</speed>
</trkpt>
<trkpt lat="22.043335" lon="103.955498">
<ele>976.195801</ele>
<time>2011-04-26T03:52:05Z</time>
<desc>lat.=22.043335, lon.=103.955498, Alt.=976.195801m. Speed=4.464000m/h.</desc>
<speed>1.240000</speed>
</trkpt>
<trkpt lat="22.043436" lon="103.955505">
<ele>977.477051</ele>
<time>2011-04-26T03:52:10Z</time>
<desc>lat.=22.043436, lon.=103.955505, Alt.=977.477051m. Speed=3.564000m/h.</desc>
<speed>0.990000</speed>
</trkpt>
<trkpt lat="22.043486" lon="103.955528">
<ele>978.852051</ele>
<time>2011-04-26T03:52:15Z</time>
<desc>lat.=22.043486, lon.=103.955528, Alt.=978.852051m. Speed=4.464000m/h.</desc>
<speed>1.240000</speed>
</trkpt>
<trkpt lat="22.043571" lon="103.955574">
<ele>980.227051</ele>
<time>2011-04-26T03:52:20Z</time>
<desc>lat.=22.043571, lon.=103.955574, Alt.=980.227051m. Speed=3.672000m/h.</desc>
<speed>1.020000</speed>
</trkpt>
<trkpt lat="22.043627" lon="103.955589">
<ele>981.008301</ele>
<time>2011-04-26T03:52:25Z</time>
<desc>lat.=22.043627, lon.=103.955589, Alt.=981.008301m. Speed=3.420000m/h.</desc>
<speed>0.950000</speed>
</trkpt>
<trkpt lat="22.043678" lon="103.955627">
<ele>982.914551</ele>
<time>2011-04-26T03:52:30Z</time>
<desc>lat.=22.043678, lon.=103.955627, Alt.=982.914551m. Speed=4.068000m/h.</desc>
<speed>1.130000</speed>
</trkpt>
<trkpt lat="22.043713" lon="103.955643">
<ele>984.539551</ele>
<time>2011-04-26T03:52:35Z</time>
<desc>lat.=22.043713, lon.=103.955643, Alt.=984.539551m. Speed=2.628000m/h.</desc>
<speed>0.730000</speed>
</trkpt>
<trkpt lat="22.043745" lon="103.955635">
<ele>985.977051</ele>
<time>2011-04-26T03:52:40Z</time>
<desc>lat.=22.043745, lon.=103.955635, Alt.=985.977051m. Speed=2.484000m/h.</desc>
<speed>0.690000</speed>
</trkpt>
<trkpt lat="22.043808" lon="103.955658">
<ele>987.164551</ele>
<time>2011-04-26T03:52:45Z</time>
<desc>lat.=22.043808, lon.=103.955658, Alt.=987.164551m. Speed=3.780000m/h.</desc>
<speed>1.050000</speed>
</trkpt>
<trkpt lat="22.043896" lon="103.955742">
<ele>987.773926</ele>
<time>2011-04-26T03:52:50Z</time>
<desc>lat.=22.043896, lon.=103.955742, Alt.=987.773926m. Speed=6.408000m/h.</desc>
<speed>1.780000</speed>
</trkpt>
<trkpt lat="22.043955" lon="103.955765">
<ele>988.320801</ele>
<time>2011-04-26T03:52:55Z</time>
<desc>lat.=22.043955, lon.=103.955765, Alt.=988.320801m. Speed=4.608000m/h.</desc>
<speed>1.280000</speed>
</trkpt>
<trkpt lat="22.044024" lon="103.955772">
<ele>988.695801</ele>
<time>2011-04-26T03:53:00Z</time>
<desc>lat.=22.044024, lon.=103.955772, Alt.=988.695801m. Speed=2.340000m/h.</desc>
<speed>0.650000</speed>
</trkpt>
<trkpt lat="22.044073" lon="103.955772">
<ele>989.539551</ele>
<time>2011-04-26T03:53:05Z</time>
<desc>lat.=22.044073, lon.=103.955772, Alt.=989.539551m. Speed=3.096000m/h.</desc>
<speed>0.860000</speed>
</trkpt>
<trkpt lat="22.044195" lon="103.955688">
<ele>990.961426</ele>
<time>2011-04-26T03:53:10Z</time>
<desc>lat.=22.044195, lon.=103.955688, Alt.=990.961426m. Speed=5.616000m/h.</desc>
<speed>1.560000</speed>
</trkpt>
<trkpt lat="22.044283" lon="103.955620">
<ele>992.758301</ele>
<time>2011-04-26T03:53:15Z</time>
<desc>lat.=22.044283, lon.=103.955620, Alt.=992.758301m. Speed=6.444000m/h.</desc>
<speed>1.790000</speed>
</trkpt>
<trkpt lat="22.044352" lon="103.955559">
<ele>994.008301</ele>
<time>2011-04-26T03:53:20Z</time>
<desc>lat.=22.044352, lon.=103.955559, Alt.=994.008301m. Speed=5.724000m/h.</desc>
<speed>1.590000</speed>
</trkpt>
<trkpt lat="22.044399" lon="103.955513">
<ele>993.898926</ele>
<time>2011-04-26T03:53:25Z</time>
<desc>lat.=22.044399, lon.=103.955513, Alt.=993.898926m. Speed=3.852000m/h.</desc>
<speed>1.070000</speed>
</trkpt>
<trkpt lat="22.044453" lon="103.955475">
<ele>993.336426</ele>
<time>2011-04-26T03:53:30Z</time>
<desc>lat.=22.044453, lon.=103.955475, Alt.=993.336426m. Speed=5.364000m/h.</desc>
<speed>1.490000</speed>
</trkpt>
<trkpt lat="22.044506" lon="103.955429">
<ele>993.148926</ele>
<time>2011-04-26T03:53:35Z</time>
<desc>lat.=22.044506, lon.=103.955429, Alt.=993.148926m. Speed=4.968000m/h.</desc>
<speed>1.380000</speed>
</trkpt>
<trkpt lat="22.044548" lon="103.955391">
<ele>993.070801</ele>
<time>2011-04-26T03:53:40Z</time>
<desc>lat.=22.044548, lon.=103.955391, Alt.=993.070801m. Speed=5.436000m/h.</desc>
<speed>1.510000</speed>
</trkpt>
<trkpt lat="22.044621" lon="103.955322">
<ele>992.977051</ele>
<time>2011-04-26T03:53:45Z</time>
<desc>lat.=22.044621, lon.=103.955322, Alt.=992.977051m. Speed=6.156000m/h.</desc>
<speed>1.710000</speed>
</trkpt>
<trkpt lat="22.044651" lon="103.955261">
<ele>992.555176</ele>
<time>2011-04-26T03:53:50Z</time>
<desc>lat.=22.044651, lon.=103.955261, Alt.=992.555176m. Speed=4.536000m/h.</desc>
<speed>1.260000</speed>
</trkpt>
<trkpt lat="22.044722" lon="103.955238">
<ele>992.508301</ele>
<time>2011-04-26T03:53:55Z</time>
<desc>lat.=22.044722, lon.=103.955238, Alt.=992.508301m. Speed=3.600000m/h.</desc>
<speed>1.000000</speed>
</trkpt>
<trkpt lat="22.044764" lon="103.955223">
<ele>992.773926</ele>
<time>2011-04-26T03:54:00Z</time>
<desc>lat.=22.044764, lon.=103.955223, Alt.=992.773926m. Speed=4.860000m/h.</desc>
<speed>1.350000</speed>
</trkpt>
<trkpt lat="22.044811" lon="103.955208">
<ele>993.180176</ele>
<time>2011-04-26T03:54:05Z</time>
<desc>lat.=22.044811, lon.=103.955208, Alt.=993.180176m. Speed=4.968000m/h.</desc>
<speed>1.380000</speed>
</trkpt>
<trkpt lat="22.044870" lon="103.955200">
<ele>993.164551</ele>
<time>2011-04-26T03:54:10Z</time>
<desc>lat.=22.044870, lon.=103.955200, Alt.=993.164551m. Speed=4.032000m/h.</desc>
<speed>1.120000</speed>
</trkpt>
<trkpt lat="22.044933" lon="103.955177">
<ele>993.180176</ele>
<time>2011-04-26T03:54:15Z</time>
<desc>lat.=22.044933, lon.=103.955177, Alt.=993.180176m. Speed=4.752000m/h.</desc>
<speed>1.320000</speed>
</trkpt>
<trkpt lat="22.044987" lon="103.955124">
<ele>993.273926</ele>
<time>2011-04-26T03:54:20Z</time>
<desc>lat.=22.044987, lon.=103.955124, Alt.=993.273926m. Speed=4.212000m/h.</desc>
<speed>1.170000</speed>
</trkpt>
<trkpt lat="22.045084" lon="103.955048">
<ele>993.070801</ele>
<time>2011-04-26T03:54:25Z</time>
<desc>lat.=22.045084, lon.=103.955048, Alt.=993.070801m. Speed=5.760000m/h.</desc>
<speed>1.600000</speed>
</trkpt>
<trkpt lat="22.045128" lon="103.954987">
<ele>992.820801</ele>
<time>2011-04-26T03:54:30Z</time>
<desc>lat.=22.045128, lon.=103.954987, Alt.=992.820801m. Speed=6.336000m/h.</desc>
<speed>1.760000</speed>
</trkpt>
<trkpt lat="22.045166" lon="103.954887">
<ele>993.211426</ele>
<time>2011-04-26T03:54:35Z</time>
<desc>lat.=22.045166, lon.=103.954887, Alt.=993.211426m. Speed=6.588000m/h.</desc>
<speed>1.830000</speed>
</trkpt>
<trkpt lat="22.045160" lon="103.954819">
<ele>993.211426</ele>
<time>2011-04-26T03:54:40Z</time>
<desc>lat.=22.045160, lon.=103.954819, Alt.=993.211426m. Speed=2.556000m/h.</desc>
<speed>0.710000</speed>
</trkpt>
<trkpt lat="22.045132" lon="103.954819">
<ele>993.102051</ele>
<time>2011-04-26T03:54:45Z</time>
<desc>lat.=22.045132, lon.=103.954819, Alt.=993.102051m. Speed=0.864000m/h.</desc>
<speed>0.240000</speed>
</trkpt>
<trkpt lat="22.045132" lon="103.954826">
<ele>993.211426</ele>
<time>2011-04-26T03:54:50Z</time>
<desc>lat.=22.045132, lon.=103.954826, Alt.=993.211426m. Speed=0.036000m/h.</desc>
<speed>0.010000</speed>
</trkpt>
<trkpt lat="22.045130" lon="103.954826">
<ele>993.305176</ele>
<time>2011-04-26T03:54:55Z</time>
<desc>lat.=22.045130, lon.=103.954826, Alt.=993.305176m. Speed=0.324000m/h.</desc>
<speed>0.090000</speed>
</trkpt>
<trkpt lat="22.045132" lon="103.954826">
<ele>993.273926</ele>
<time>2011-04-26T03:55:00Z</time>
<desc>lat.=22.045132, lon.=103.954826, Alt.=993.273926m. Speed=0.900000m/h.</desc>
<speed>0.250000</speed>
</trkpt>
<trkpt lat="22.045130" lon="103.954819">
<ele>993.023926</ele>
<time>2011-04-26T03:55:05Z</time>
<desc>lat.=22.045130, lon.=103.954819, Alt.=993.023926m. Speed=0.252000m/h.</desc>
<speed>0.070000</speed>
</trkpt>
<trkpt lat="22.045126" lon="103.954819">
<ele>993.008301</ele>
<time>2011-04-26T03:55:10Z</time>
<desc>lat.=22.045126, lon.=103.954819, Alt.=993.008301m. Speed=0.144000m/h.</desc>
<speed>0.040000</speed>
</trkpt>
<trkpt lat="22.045120" lon="103.954811">
<ele>992.773926</ele>
<time>2011-04-26T03:55:15Z</time>
<desc>lat.=22.045120, lon.=103.954811, Alt.=992.773926m. Speed=1.296000m/h.</desc>
<speed>0.360000</speed>
</trkpt>
<trkpt lat="22.045101" lon="103.954735">
<ele>991.898926</ele>
<time>2011-04-26T03:55:20Z</time>
<desc>lat.=22.045101, lon.=103.954735, Alt.=991.898926m. Speed=3.420000m/h.</desc>
<speed>0.950000</speed>
</trkpt>
<trkpt lat="22.045095" lon="103.954689">
<ele>990.555176</ele>
<time>2011-04-26T03:55:25Z</time>
<desc>lat.=22.045095, lon.=103.954689, Alt.=990.555176m. Speed=3.528000m/h.</desc>
<speed>0.980000</speed>
</trkpt>
<trkpt lat="22.045074" lon="103.954643">
<ele>990.352051</ele>
<time>2011-04-26T03:55:30Z</time>
<desc>lat.=22.045074, lon.=103.954643, Alt.=990.352051m. Speed=3.312000m/h.</desc>
<speed>0.920000</speed>
</trkpt>
<trkpt lat="22.045055" lon="103.954605">
<ele>990.336426</ele>
<time>2011-04-26T03:55:35Z</time>
<desc>lat.=22.045055, lon.=103.954605, Alt.=990.336426m. Speed=2.736000m/h.</desc>
<speed>0.760000</speed>
</trkpt>
<trkpt lat="22.045004" lon="103.954575">
<ele>990.398926</ele>
<time>2011-04-26T03:55:40Z</time>
<desc>lat.=22.045004, lon.=103.954575, Alt.=990.398926m. Speed=2.808000m/h.</desc>
<speed>0.780000</speed>
</trkpt>
<trkpt lat="22.044977" lon="103.954544">
<ele>990.398926</ele>
<time>2011-04-26T03:55:45Z</time>
<desc>lat.=22.044977, lon.=103.954544, Alt.=990.398926m. Speed=2.160000m/h.</desc>
<speed>0.600000</speed>
</trkpt>
<trkpt lat="22.044971" lon="103.954445">
<ele>990.414551</ele>
<time>2011-04-26T03:55:50Z</time>
<desc>lat.=22.044971, lon.=103.954445, Alt.=990.414551m. Speed=3.780000m/h.</desc>
<speed>1.050000</speed>
</trkpt>
<trkpt lat="22.044956" lon="103.954353">
<ele>990.273926</ele>
<time>2011-04-26T03:55:55Z</time>
<desc>lat.=22.044956, lon.=103.954353, Alt.=990.273926m. Speed=4.284000m/h.</desc>
<speed>1.190000</speed>
</trkpt>
<trkpt lat="22.044937" lon="103.954292">
<ele>990.133301</ele>
<time>2011-04-26T03:56:00Z</time>
<desc>lat.=22.044937, lon.=103.954292, Alt.=990.133301m. Speed=4.284000m/h.</desc>
<speed>1.190000</speed>
</trkpt>
<trkpt lat="22.044935" lon="103.954216">
<ele>989.930176</ele>
<time>2011-04-26T03:56:05Z</time>
<desc>lat.=22.044935, lon.=103.954216, Alt.=989.930176m. Speed=5.256000m/h.</desc>
<speed>1.460000</speed>
</trkpt>
<trkpt lat="22.044937" lon="103.954163">
<ele>989.680176</ele>
<time>2011-04-26T03:56:10Z</time>
<desc>lat.=22.044937, lon.=103.954163, Alt.=989.680176m. Speed=3.060000m/h.</desc>
<speed>0.850000</speed>
</trkpt>
<trkpt lat="22.044920" lon="103.954117">
<ele>989.961426</ele>
<time>2011-04-26T03:56:15Z</time>
<desc>lat.=22.044920, lon.=103.954117, Alt.=989.961426m. Speed=5.148000m/h.</desc>
<speed>1.430000</speed>
</trkpt>
<trkpt lat="22.044922" lon="103.954048">
<ele>989.961426</ele>
<time>2011-04-26T03:56:20Z</time>
<desc>lat.=22.044922, lon.=103.954048, Alt.=989.961426m. Speed=3.564000m/h.</desc>
<speed>0.990000</speed>
</trkpt>
<trkpt lat="22.044907" lon="103.954018">
<ele>989.914551</ele>
<time>2011-04-26T03:56:25Z</time>
<desc>lat.=22.044907, lon.=103.954018, Alt.=989.914551m. Speed=0.504000m/h.</desc>
<speed>0.140000</speed>
</trkpt>
<trkpt lat="22.044905" lon="103.953995">
<ele>989.617676</ele>
<time>2011-04-26T03:56:30Z</time>
<desc>lat.=22.044905, lon.=103.953995, Alt.=989.617676m. Speed=1.584000m/h.</desc>
<speed>0.440000</speed>
</trkpt>
<trkpt lat="22.044905" lon="103.954002">
<ele>989.320801</ele>
<time>2011-04-26T03:56:35Z</time>
<desc>lat.=22.044905, lon.=103.954002, Alt.=989.320801m. Speed=1.872000m/h.</desc>
<speed>0.520000</speed>
</trkpt>
<trkpt lat="22.044910" lon="103.953964">
<ele>988.758301</ele>
<time>2011-04-26T03:56:40Z</time>
<desc>lat.=22.044910, lon.=103.953964, Alt.=988.758301m. Speed=4.716000m/h.</desc>
<speed>1.310000</speed>
</trkpt>
<trkpt lat="22.044935" lon="103.953911">
<ele>988.227051</ele>
<time>2011-04-26T03:56:45Z</time>
<desc>lat.=22.044935, lon.=103.953911, Alt.=988.227051m. Speed=3.924000m/h.</desc>
<speed>1.090000</speed>
</trkpt>
<trkpt lat="22.044910" lon="103.953850">
<ele>987.305176</ele>
<time>2011-04-26T03:56:50Z</time>
<desc>lat.=22.044910, lon.=103.953850, Alt.=987.305176m. Speed=4.320000m/h.</desc>
<speed>1.200000</speed>
</trkpt>
<trkpt lat="22.044926" lon="103.953796">
<ele>986.836426</ele>
<time>2011-04-26T03:56:55Z</time>
<desc>lat.=22.044926, lon.=103.953796, Alt.=986.836426m. Speed=4.140000m/h.</desc>
<speed>1.150000</speed>
</trkpt>
<trkpt lat="22.044928" lon="103.953728">
<ele>986.805176</ele>
<time>2011-04-26T03:57:00Z</time>
<desc>lat.=22.044928, lon.=103.953728, Alt.=986.805176m. Speed=3.348000m/h.</desc>
<speed>0.930000</speed>
</trkpt>
<trkpt lat="22.044943" lon="103.953651">
<ele>986.758301</ele>
<time>2011-04-26T03:57:05Z</time>
<desc>lat.=22.044943, lon.=103.953651, Alt.=986.758301m. Speed=4.500000m/h.</desc>
<speed>1.250000</speed>
</trkpt>
<trkpt lat="22.044966" lon="103.953568">
<ele>987.164551</ele>
<time>2011-04-26T03:57:10Z</time>
<desc>lat.=22.044966, lon.=103.953568, Alt.=987.164551m. Speed=4.392000m/h.</desc>
<speed>1.220000</speed>
</trkpt>
<trkpt lat="22.044985" lon="103.953506">
<ele>987.289551</ele>
<time>2011-04-26T03:57:15Z</time>
<desc>lat.=22.044985, lon.=103.953506, Alt.=987.289551m. Speed=3.996000m/h.</desc>
<speed>1.110000</speed>
</trkpt>
<trkpt lat="22.044985" lon="103.953453">
<ele>988.086426</ele>
<time>2011-04-26T03:57:20Z</time>
<desc>lat.=22.044985, lon.=103.953453, Alt.=988.086426m. Speed=3.780000m/h.</desc>
<speed>1.050000</speed>
</trkpt>
<trkpt lat="22.045006" lon="103.953331">
<ele>989.430176</ele>
<time>2011-04-26T03:57:25Z</time>
<desc>lat.=22.045006, lon.=103.953331, Alt.=989.430176m. Speed=6.480000m/h.</desc>
<speed>1.800000</speed>
</trkpt>
<trkpt lat="22.045010" lon="103.953262">
<ele>989.352051</ele>
<time>2011-04-26T03:57:30Z</time>
<desc>lat.=22.045010, lon.=103.953262, Alt.=989.352051m. Speed=5.436000m/h.</desc>
<speed>1.510000</speed>
</trkpt>
<trkpt lat="22.045034" lon="103.953194">
<ele>989.805176</ele>
<time>2011-04-26T03:57:35Z</time>
<desc>lat.=22.045034, lon.=103.953194, Alt.=989.805176m. Speed=5.364000m/h.</desc>
<speed>1.490000</speed>
</trkpt>
<trkpt lat="22.045065" lon="103.953140">
<ele>990.273926</ele>
<time>2011-04-26T03:57:40Z</time>
<desc>lat.=22.045065, lon.=103.953140, Alt.=990.273926m. Speed=4.608000m/h.</desc>
<speed>1.280000</speed>
</trkpt>
<trkpt lat="22.045076" lon="103.953110">
<ele>990.633301</ele>
<time>2011-04-26T03:57:45Z</time>
<desc>lat.=22.045076, lon.=103.953110, Alt.=990.633301m. Speed=2.916000m/h.</desc>
<speed>0.810000</speed>
</trkpt>
<trkpt lat="22.045118" lon="103.953064">
<ele>990.852051</ele>
<time>2011-04-26T03:57:50Z</time>
<desc>lat.=22.045118, lon.=103.953064, Alt.=990.852051m. Speed=5.004000m/h.</desc>
<speed>1.390000</speed>
</trkpt>
<trkpt lat="22.045143" lon="103.953018">
<ele>991.164551</ele>
<time>2011-04-26T03:57:55Z</time>
<desc>lat.=22.045143, lon.=103.953018, Alt.=991.164551m. Speed=4.464000m/h.</desc>
<speed>1.240000</speed>
</trkpt>
<trkpt lat="22.045170" lon="103.952972">
<ele>991.711426</ele>
<time>2011-04-26T03:58:00Z</time>
<desc>lat.=22.045170, lon.=103.952972, Alt.=991.711426m. Speed=4.716000m/h.</desc>
<speed>1.310000</speed>
</trkpt>
<trkpt lat="22.045177" lon="103.952934">
<ele>991.477051</ele>
<time>2011-04-26T03:58:05Z</time>
<desc>lat.=22.045177, lon.=103.952934, Alt.=991.477051m. Speed=0.468000m/h.</desc>
<speed>0.130000</speed>
</trkpt>
<trkpt lat="22.045179" lon="103.952942">
<ele>991.523926</ele>
<time>2011-04-26T03:58:10Z</time>
<desc>lat.=22.045179, lon.=103.952942, Alt.=991.523926m. Speed=0.216000m/h.</desc>
<speed>0.060000</speed>
</trkpt>
<trkpt lat="22.045179" lon="103.952942">
<ele>991.539551</ele>
<time>2011-04-26T03:58:15Z</time>
<desc>lat.=22.045179, lon.=103.952942, Alt.=991.539551m. Speed=0.072000m/h.</desc>
<speed>0.020000</speed>
</trkpt>
<trkpt lat="22.045181" lon="103.952942">
<ele>991.555176</ele>
<time>2011-04-26T03:58:20Z</time>
<desc>lat.=22.045181, lon.=103.952942, Alt.=991.555176m. Speed=0.144000m/h.</desc>
<speed>0.040000</speed>
</trkpt>
<trkpt lat="22.045185" lon="103.952942">
<ele>991.570801</ele>
<time>2011-04-26T03:58:25Z</time>
<desc>lat.=22.045185, lon.=103.952942, Alt.=991.570801m. Speed=0.324000m/h.</desc>
<speed>0.090000</speed>
</trkpt>
<trkpt lat="22.045189" lon="103.952934">
<ele>991.586426</ele>
<time>2011-04-26T03:58:30Z</time>
<desc>lat.=22.045189, lon.=103.952934, Alt.=991.586426m. Speed=0.756000m/h.</desc>
<speed>0.210000</speed>
</trkpt>
<trkpt lat="22.045210" lon="103.952904">
<ele>991.414551</ele>
<time>2011-04-26T03:58:35Z</time>
<desc>lat.=22.045210, lon.=103.952904, Alt.=991.414551m. Speed=1.944000m/h.</desc>
<speed>0.540000</speed>
</trkpt>
<trkpt lat="22.045229" lon="103.952858">
<ele>991.070801</ele>
<time>2011-04-26T03:58:40Z</time>
<desc>lat.=22.045229, lon.=103.952858, Alt.=991.070801m. Speed=2.916000m/h.</desc>
<speed>0.810000</speed>
</trkpt>
<trkpt lat="22.045250" lon="103.952789">
<ele>990.727051</ele>
<time>2011-04-26T03:58:45Z</time>
<desc>lat.=22.045250, lon.=103.952789, Alt.=990.727051m. Speed=4.176000m/h.</desc>
<speed>1.160000</speed>
</trkpt>
<trkpt lat="22.045279" lon="103.952728">
<ele>990.336426</ele>
<time>2011-04-26T03:58:50Z</time>
<desc>lat.=22.045279, lon.=103.952728, Alt.=990.336426m. Speed=4.104000m/h.</desc>
<speed>1.140000</speed>
</trkpt>
<trkpt lat="22.045321" lon="103.952675">
<ele>989.961426</ele>
<time>2011-04-26T03:58:55Z</time>
<desc>lat.=22.045321, lon.=103.952675, Alt.=989.961426m. Speed=4.428000m/h.</desc>
<speed>1.230000</speed>
</trkpt>
<trkpt lat="22.045448" lon="103.952606">
<ele>989.367676</ele>
<time>2011-04-26T03:59:00Z</time>
<desc>lat.=22.045448, lon.=103.952606, Alt.=989.367676m. Speed=4.644000m/h.</desc>
<speed>1.290000</speed>
</trkpt>
<trkpt lat="22.045481" lon="103.952515">
<ele>988.945801</ele>
<time>2011-04-26T03:59:05Z</time>
<desc>lat.=22.045481, lon.=103.952515, Alt.=988.945801m. Speed=5.220000m/h.</desc>
<speed>1.450000</speed>
</trkpt>
<trkpt lat="22.045519" lon="103.952431">
<ele>988.633301</ele>
<time>2011-04-26T03:59:10Z</time>
<desc>lat.=22.045519, lon.=103.952431, Alt.=988.633301m. Speed=4.896000m/h.</desc>
<speed>1.360000</speed>
</trkpt>
<trkpt lat="22.045525" lon="103.952362">
<ele>988.258301</ele>
<time>2011-04-26T03:59:15Z</time>
<desc>lat.=22.045525, lon.=103.952362, Alt.=988.258301m. Speed=3.600000m/h.</desc>
<speed>1.000000</speed>
</trkpt>
<trkpt lat="22.045551" lon="103.952301">
<ele>987.820801</ele>
<time>2011-04-26T03:59:20Z</time>
<desc>lat.=22.045551, lon.=103.952301, Alt.=987.820801m. Speed=4.968000m/h.</desc>
<speed>1.380000</speed>
</trkpt>
<trkpt lat="22.045582" lon="103.952263">
<ele>987.195801</ele>
<time>2011-04-26T03:59:25Z</time>
<desc>lat.=22.045582, lon.=103.952263, Alt.=987.195801m. Speed=3.852000m/h.</desc>
<speed>1.070000</speed>
</trkpt>
<trkpt lat="22.045635" lon="103.952232">
<ele>986.664551</ele>
<time>2011-04-26T03:59:30Z</time>
<desc>lat.=22.045635, lon.=103.952232, Alt.=986.664551m. Speed=3.276000m/h.</desc>
<speed>0.910000</speed>
</trkpt>
<trkpt lat="22.045706" lon="103.952225">
<ele>986.883301</ele>
<time>2011-04-26T03:59:35Z</time>
<desc>lat.=22.045706, lon.=103.952225, Alt.=986.883301m. Speed=3.600000m/h.</desc>
<speed>1.000000</speed>
</trkpt>
<trkpt lat="22.045732" lon="103.952232">
<ele>986.352051</ele>
<time>2011-04-26T03:59:40Z</time>
<desc>lat.=22.045732, lon.=103.952232, Alt.=986.352051m. Speed=0.828000m/h.</desc>
<speed>0.230000</speed>
</trkpt>
<trkpt lat="22.045723" lon="103.952209">
<ele>987.336426</ele>
<time>2011-04-26T03:59:45Z</time>
<desc>lat.=22.045723, lon.=103.952209, Alt.=987.336426m. Speed=0.000000m/h.</desc>
<speed>0.000000</speed>
</trkpt>
<trkpt lat="22.045723" lon="103.952209">
<ele>987.461426</ele>
<time>2011-04-26T03:59:50Z</time>
<desc>lat.=22.045723, lon.=103.952209, Alt.=987.461426m. Speed=0.072000m/h.</desc>
<speed>0.020000</speed>
</trkpt>
<trkpt lat="22.045723" lon="103.952209">
<ele>987.586426</ele>
<time>2011-04-26T03:59:55Z</time>
<desc>lat.=22.045723, lon.=103.952209, Alt.=987.586426m. Speed=0.072000m/h.</desc>
<speed>0.020000</speed>
</trkpt>
<trkpt lat="22.045727" lon="103.952209">
<ele>987.695801</ele>
<time>2011-04-26T04:00:00Z</time>
<desc>lat.=22.045727, lon.=103.952209, Alt.=987.695801m. Speed=0.612000m/h.</desc>
<speed>0.170000</speed>
</trkpt>
<trkpt lat="22.045746" lon="103.952194">
<ele>987.664551</ele>
<time>2011-04-26T04:00:05Z</time>
<desc>lat.=22.045746, lon.=103.952194, Alt.=987.664551m. Speed=1.584000m/h.</desc>
<speed>0.440000</speed>
</trkpt>
<trkpt lat="22.045799" lon="103.952179">
<ele>987.570801</ele>
<time>2011-04-26T04:00:10Z</time>
<desc>lat.=22.045799, lon.=103.952179, Alt.=987.570801m. Speed=2.952000m/h.</desc>
<speed>0.820000</speed>
</trkpt>
<trkpt lat="22.045864" lon="103.952141">
<ele>987.555176</ele>
<time>2011-04-26T04:00:15Z</time>
<desc>lat.=22.045864, lon.=103.952141, Alt.=987.555176m. Speed=4.752000m/h.</desc>
<speed>1.320000</speed>
</trkpt>
<trkpt lat="22.045933" lon="103.952110">
<ele>987.898926</ele>
<time>2011-04-26T04:00:20Z</time>
<desc>lat.=22.045933, lon.=103.952110, Alt.=987.898926m. Speed=5.220000m/h.</desc>
<speed>1.450000</speed>
</trkpt>
<trkpt lat="22.045998" lon="103.952072">
<ele>988.258301</ele>
<time>2011-04-26T04:00:25Z</time>
<desc>lat.=22.045998, lon.=103.952072, Alt.=988.258301m. Speed=5.256000m/h.</desc>
<speed>1.460000</speed>
</trkpt>
<trkpt lat="22.046053" lon="103.952049">
<ele>989.289551</ele>
<time>2011-04-26T04:00:30Z</time>
<desc>lat.=22.046053, lon.=103.952049, Alt.=989.289551m. Speed=4.968000m/h.</desc>
<speed>1.380000</speed>
</trkpt>
<trkpt lat="22.046108" lon="103.952049">
<ele>990.930176</ele>
<time>2011-04-26T04:00:35Z</time>
<desc>lat.=22.046108, lon.=103.952049, Alt.=990.930176m. Speed=6.264000m/h.</desc>
<speed>1.740000</speed>
</trkpt>
<trkpt lat="22.046143" lon="103.952080">
<ele>991.602051</ele>
<time>2011-04-26T04:00:40Z</time>
<desc>lat.=22.046143, lon.=103.952080, Alt.=991.602051m. Speed=5.940000m/h.</desc>
<speed>1.650000</speed>
</trkpt>
<trkpt lat="22.046207" lon="103.952095">
<ele>992.336426</ele>
<time>2011-04-26T04:00:45Z</time>
<desc>lat.=22.046207, lon.=103.952095, Alt.=992.336426m. Speed=6.156000m/h.</desc>
<speed>1.710000</speed>
</trkpt>
<trkpt lat="22.046265" lon="103.952141">
<ele>992.633301</ele>
<time>2011-04-26T04:00:50Z</time>
<desc>lat.=22.046265, lon.=103.952141, Alt.=992.633301m. Speed=4.644000m/h.</desc>
<speed>1.290000</speed>
</trkpt>
<trkpt lat="22.046320" lon="103.952187">
<ele>992.617676</ele>
<time>2011-04-26T04:00:55Z</time>
<desc>lat.=22.046320, lon.=103.952187, Alt.=992.617676m. Speed=5.328000m/h.</desc>
<speed>1.480000</speed>
</trkpt>
<trkpt lat="22.046370" lon="103.952240">
<ele>992.852051</ele>
<time>2011-04-26T04:01:00Z</time>
<desc>lat.=22.046370, lon.=103.952240, Alt.=992.852051m. Speed=5.832000m/h.</desc>
<speed>1.620000</speed>
</trkpt>
<trkpt lat="22.046432" lon="103.952301">
<ele>993.383301</ele>
<time>2011-04-26T04:01:05Z</time>
<desc>lat.=22.046432, lon.=103.952301, Alt.=993.383301m. Speed=4.716000m/h.</desc>
<speed>1.310000</speed>
</trkpt>
<trkpt lat="22.046499" lon="103.952354">
<ele>993.523926</ele>
<time>2011-04-26T04:01:10Z</time>
<desc>lat.=22.046499, lon.=103.952354, Alt.=993.523926m. Speed=5.508000m/h.</desc>
<speed>1.530000</speed>
</trkpt>
<trkpt lat="22.046530" lon="103.952393">
<ele>994.023926</ele>
<time>2011-04-26T04:01:15Z</time>
<desc>lat.=22.046530, lon.=103.952393, Alt.=994.023926m. Speed=4.608000m/h.</desc>
<speed>1.280000</speed>
</trkpt>
<trkpt lat="22.046547" lon="103.952438">
<ele>993.305176</ele>
<time>2011-04-26T04:01:20Z</time>
<desc>lat.=22.046547, lon.=103.952438, Alt.=993.305176m. Speed=3.276000m/h.</desc>
<speed>0.910000</speed>
</trkpt>
<trkpt lat="22.046534" lon="103.952530">
<ele>992.586426</ele>
<time>2011-04-26T04:01:25Z</time>
<desc>lat.=22.046534, lon.=103.952530, Alt.=992.586426m. Speed=6.012000m/h.</desc>
<speed>1.670000</speed>
</trkpt>
<trkpt lat="22.046515" lon="103.952637">
<ele>991.930176</ele>
<time>2011-04-26T04:01:30Z</time>
<desc>lat.=22.046515, lon.=103.952637, Alt.=991.930176m. Speed=6.552000m/h.</desc>
<speed>1.820000</speed>
</trkpt>
<trkpt lat="22.046507" lon="103.952713">
<ele>992.602051</ele>
<time>2011-04-26T04:01:35Z</time>
<desc>lat.=22.046507, lon.=103.952713, Alt.=992.602051m. Speed=6.012000m/h.</desc>
<speed>1.670000</speed>
</trkpt>
<trkpt lat="22.046503" lon="103.952782">
<ele>993.477051</ele>
<time>2011-04-26T04:01:40Z</time>
<desc>lat.=22.046503, lon.=103.952782, Alt.=993.477051m. Speed=5.724000m/h.</desc>
<speed>1.590000</speed>
</trkpt>
<trkpt lat="22.046520" lon="103.952904">
<ele>994.273926</ele>
<time>2011-04-26T04:01:45Z</time>
<desc>lat.=22.046520, lon.=103.952904, Alt.=994.273926m. Speed=2.592000m/h.</desc>
<speed>0.720000</speed>
</trkpt>
<trkpt lat="22.046551" lon="103.952957">
<ele>995.570801</ele>
<time>2011-04-26T04:01:50Z</time>
<desc>lat.=22.046551, lon.=103.952957, Alt.=995.570801m. Speed=0.720000m/h.</desc>
<speed>0.200000</speed>
</trkpt>
<trkpt lat="22.046555" lon="103.952965">
<ele>995.727051</ele>
<time>2011-04-26T04:01:55Z</time>
<desc>lat.=22.046555, lon.=103.952965, Alt.=995.727051m. Speed=0.432000m/h.</desc>
<speed>0.120000</speed>
</trkpt>
<trkpt lat="22.046556" lon="103.952965">
<ele>995.914551</ele>
<time>2011-04-26T04:02:00Z</time>
<desc>lat.=22.046556, lon.=103.952965, Alt.=995.914551m. Speed=0.288000m/h.</desc>
<speed>0.080000</speed>
</trkpt>
<trkpt lat="22.046553" lon="103.952965">
<ele>996.102051</ele>
<time>2011-04-26T04:02:05Z</time>
<desc>lat.=22.046553, lon.=103.952965, Alt.=996.102051m. Speed=0.576000m/h.</desc>
<speed>0.160000</speed>
</trkpt>
<trkpt lat="22.046551" lon="103.952965">
<ele>996.258301</ele>
<time>2011-04-26T04:02:10Z</time>
<desc>lat.=22.046551, lon.=103.952965, Alt.=996.258301m. Speed=0.180000m/h.</desc>
<speed>0.050000</speed>
</trkpt>
<trkpt lat="22.046553" lon="103.952965">
<ele>996.602051</ele>
<time>2011-04-26T04:02:15Z</time>
<desc>lat.=22.046553, lon.=103.952965, Alt.=996.602051m. Speed=0.036000m/h.</desc>
<speed>0.010000</speed>
</trkpt>
<trkpt lat="22.046555" lon="103.952965">
<ele>997.023926</ele>
<time>2011-04-26T04:02:20Z</time>
<desc>lat.=22.046555, lon.=103.952965, Alt.=997.023926m. Speed=0.072000m/h.</desc>
<speed>0.020000</speed>
</trkpt>
<trkpt lat="22.046555" lon="103.952965">
<ele>997.305176</ele>
<time>2011-04-26T04:02:25Z</time>
<desc>lat.=22.046555, lon.=103.952965, Alt.=997.305176m. Speed=0.036000m/h.</desc>
<speed>0.010000</speed>
</trkpt>
<trkpt lat="22.046556" lon="103.952965">
<ele>997.508301</ele>
<time>2011-04-26T04:02:30Z</time>
<desc>lat.=22.046556, lon.=103.952965, Alt.=997.508301m. Speed=0.072000m/h.</desc>
<speed>0.020000</speed>
</trkpt>
<trkpt lat="22.046556" lon="103.952965">
<ele>997.695801</ele>
<time>2011-04-26T04:02:35Z</time>
<desc>lat.=22.046556, lon.=103.952965, Alt.=997.695801m. Speed=0.036000m/h.</desc>
<speed>0.010000</speed>
</trkpt>
<trkpt lat="22.046556" lon="103.952965">
<ele>997.852051</ele>
<time>2011-04-26T04:02:40Z</time>
<desc>lat.=22.046556, lon.=103.952965, Alt.=997.852051m. Speed=0.036000m/h.</desc>
<speed>0.010000</speed>
</trkpt>
<trkpt lat="22.046558" lon="103.952965">
<ele>997.992676</ele>
<time>2011-04-26T04:02:45Z</time>
<desc>lat.=22.046558, lon.=103.952965, Alt.=997.992676m. Speed=0.036000m/h.</desc>
<speed>0.010000</speed>
</trkpt>
<trkpt lat="22.046558" lon="103.952965">
<ele>998.133301</ele>
<time>2011-04-26T04:02:50Z</time>
<desc>lat.=22.046558, lon.=103.952965, Alt.=998.133301m. Speed=0.036000m/h.</desc>
<speed>0.010000</speed>
</trkpt>
<trkpt lat="22.046558" lon="103.952965">
<ele>998.273926</ele>
<time>2011-04-26T04:02:55Z</time>
<desc>lat.=22.046558, lon.=103.952965, Alt.=998.273926m. Speed=0.000000m/h.</desc>
<speed>0.000000</speed>
</trkpt>
<trkpt lat="22.046560" lon="103.952965">
<ele>998.398926</ele>
<time>2011-04-26T04:03:00Z</time>
<desc>lat.=22.046560, lon.=103.952965, Alt.=998.398926m. Speed=0.072000m/h.</desc>
<speed>0.020000</speed>
</trkpt>
<trkpt lat="22.046560" lon="103.952965">
<ele>998.555176</ele>
<time>2011-04-26T04:03:05Z</time>
<desc>lat.=22.046560, lon.=103.952965, Alt.=998.555176m. Speed=0.000000m/h.</desc>
<speed>0.000000</speed>
</trkpt>
<trkpt lat="22.046560" lon="103.952965">
<ele>998.711426</ele>
<time>2011-04-26T04:03:10Z</time>
<desc>lat.=22.046560, lon.=103.952965, Alt.=998.711426m. Speed=0.000000m/h.</desc>
<speed>0.000000</speed>
</trkpt>
<trkpt lat="22.046560" lon="103.952965">
<ele>998.852051</ele>
<time>2011-04-26T04:03:15Z</time>
<desc>lat.=22.046560, lon.=103.952965, Alt.=998.852051m. Speed=0.000000m/h.</desc>
<speed>0.000000</speed>
</trkpt>
<trkpt lat="22.046562" lon="103.952965">
<ele>998.898926</ele>
<time>2011-04-26T04:03:20Z</time>
<desc>lat.=22.046562, lon.=103.952965, Alt.=998.898926m. Speed=0.000000m/h.</desc>
<speed>0.000000</speed>
</trkpt>
<trkpt lat="22.046562" lon="103.952965">
<ele>998.961426</ele>
<time>2011-04-26T04:03:25Z</time>
<desc>lat.=22.046562, lon.=103.952965, Alt.=998.961426m. Speed=0.000000m/h.</desc>
<speed>0.000000</speed>
</trkpt>
<trkpt lat="22.046562" lon="103.952965">
<ele>999.055176</ele>
<time>2011-04-26T04:03:30Z</time>
<desc>lat.=22.046562, lon.=103.952965, Alt.=999.055176m. Speed=0.000000m/h.</desc>
<speed>0.000000</speed>
</trkpt>
<trkpt lat="22.046562" lon="103.952965">
<ele>999.164551</ele>
<time>2011-04-26T04:03:35Z</time>
<desc>lat.=22.046562, lon.=103.952965, Alt.=999.164551m. Speed=0.000000m/h.</desc>
<speed>0.000000</speed>
</trkpt>
<trkpt lat="22.046562" lon="103.952965">
<ele>999.305176</ele>
<time>2011-04-26T04:03:40Z</time>
<desc>lat.=22.046562, lon.=103.952965, Alt.=999.305176m. Speed=0.000000m/h.</desc>
<speed>0.000000</speed>
</trkpt>
<trkpt lat="22.046564" lon="103.952965">
<ele>999.430176</ele>
<time>2011-04-26T04:03:45Z</time>
<desc>lat.=22.046564, lon.=103.952965, Alt.=999.430176m. Speed=0.000000m/h.</desc>
<speed>0.000000</speed>
</trkpt>
<trkpt lat="22.046564" lon="103.952965">
<ele>999.586426</ele>
<time>2011-04-26T04:03:50Z</time>
<desc>lat.=22.046564, lon.=103.952965, Alt.=999.586426m. Speed=0.036000m/h.</desc>
<speed>0.010000</speed>
</trkpt>
<trkpt lat="22.046564" lon="103.952965">
<ele>999.742676</ele>
<time>2011-04-26T04:03:55Z</time>
<desc>lat.=22.046564, lon.=103.952965, Alt.=999.742676m. Speed=0.036000m/h.</desc>
<speed>0.010000</speed>
</trkpt>
<trkpt lat="22.046564" lon="103.952965">
<ele>999.914551</ele>
<time>2011-04-26T04:04:00Z</time>
<desc>lat.=22.046564, lon.=103.952965, Alt.=999.914551m. Speed=0.072000m/h.</desc>
<speed>0.020000</speed>
</trkpt>
<trkpt lat="22.046564" lon="103.952965">
<ele>1000.102051</ele>
<time>2011-04-26T04:04:05Z</time>
<desc>lat.=22.046564, lon.=103.952965, Alt.=1000.102051m. Speed=0.108000m/h.</desc>
<speed>0.030000</speed>
</trkpt>
<trkpt lat="22.046566" lon="103.952957">
<ele>1000.320801</ele>
<time>2011-04-26T04:04:10Z</time>
<desc>lat.=22.046566, lon.=103.952957, Alt.=1000.320801m. Speed=0.036000m/h.</desc>
<speed>0.010000</speed>
</trkpt>
<trkpt lat="22.046566" lon="103.952957">
<ele>1000.523926</ele>
<time>2011-04-26T04:04:15Z</time>
<desc>lat.=22.046566, lon.=103.952957, Alt.=1000.523926m. Speed=0.036000m/h.</desc>
<speed>0.010000</speed>
</trkpt>
<trkpt lat="22.046566" lon="103.952957">
<ele>1000.727051</ele>
<time>2011-04-26T04:04:20Z</time>
<desc>lat.=22.046566, lon.=103.952957, Alt.=1000.727051m. Speed=0.036000m/h.</desc>
<speed>0.010000</speed>
</trkpt>
<trkpt lat="22.046566" lon="103.952957">
<ele>1000.945801</ele>
<time>2011-04-26T04:04:25Z</time>
<desc>lat.=22.046566, lon.=103.952957, Alt.=1000.945801m. Speed=0.036000m/h.</desc>
<speed>0.010000</speed>
</trkpt>
<trkpt lat="22.046566" lon="103.952957">
<ele>1001.164551</ele>
<time>2011-04-26T04:04:30Z</time>
<desc>lat.=22.046566, lon.=103.952957, Alt.=1001.164551m. Speed=0.036000m/h.</desc>
<speed>0.010000</speed>
</trkpt>
<trkpt lat="22.046568" lon="103.952957">
<ele>1001.352051</ele>
<time>2011-04-26T04:04:35Z</time>
<desc>lat.=22.046568, lon.=103.952957, Alt.=1001.352051m. Speed=0.036000m/h.</desc>
<speed>0.010000</speed>
</trkpt>
<trkpt lat="22.046568" lon="103.952957">
<ele>1001.555176</ele>
<time>2011-04-26T04:04:40Z</time>
<desc>lat.=22.046568, lon.=103.952957, Alt.=1001.555176m. Speed=0.036000m/h.</desc>
<speed>0.010000</speed>
</trkpt>
<trkpt lat="22.046568" lon="103.952957">
<ele>1001.758301</ele>
<time>2011-04-26T04:04:45Z</time>
<desc>lat.=22.046568, lon.=103.952957, Alt.=1001.758301m. Speed=0.036000m/h.</desc>
<speed>0.010000</speed>
</trkpt>
<trkpt lat="22.046568" lon="103.952957">
<ele>1001.977051</ele>
<time>2011-04-26T04:04:50Z</time>
<desc>lat.=22.046568, lon.=103.952957, Alt.=1001.977051m. Speed=0.036000m/h.</desc>
<speed>0.010000</speed>
</trkpt>
<trkpt lat="22.046568" lon="103.952957">
<ele>1002.211426</ele>
<time>2011-04-26T04:04:55Z</time>
<desc>lat.=22.046568, lon.=103.952957, Alt.=1002.211426m. Speed=0.072000m/h.</desc>
<speed>0.020000</speed>
</trkpt>
<trkpt lat="22.046570" lon="103.952957">
<ele>1002.414551</ele>
<time>2011-04-26T04:05:00Z</time>
<desc>lat.=22.046570, lon.=103.952957, Alt.=1002.414551m. Speed=0.036000m/h.</desc>
<speed>0.010000</speed>
</trkpt>
<trkpt lat="22.046570" lon="103.952957">
<ele>1002.602051</ele>
<time>2011-04-26T04:05:05Z</time>
<desc>lat.=22.046570, lon.=103.952957, Alt.=1002.602051m. Speed=0.036000m/h.</desc>
<speed>0.010000</speed>
</trkpt>
<trkpt lat="22.046570" lon="103.952957">
<ele>1002.789551</ele>
<time>2011-04-26T04:05:10Z</time>
<desc>lat.=22.046570, lon.=103.952957, Alt.=1002.789551m. Speed=0.036000m/h.</desc>
<speed>0.010000</speed>
</trkpt>
<trkpt lat="22.046570" lon="103.952957">
<ele>1002.977051</ele>
<time>2011-04-26T04:05:15Z</time>
<desc>lat.=22.046570, lon.=103.952957, Alt.=1002.977051m. Speed=0.036000m/h.</desc>
<speed>0.010000</speed>
</trkpt>
<trkpt lat="22.046570" lon="103.952957">
<ele>1003.164551</ele>
<time>2011-04-26T04:05:20Z</time>
<desc>lat.=22.046570, lon.=103.952957, Alt.=1003.164551m. Speed=0.000000m/h.</desc>
<speed>0.000000</speed>
</trkpt>
<trkpt lat="22.046572" lon="103.952957">
<ele>1003.336426</ele>
<time>2011-04-26T04:05:25Z</time>
<desc>lat.=22.046572, lon.=103.952957, Alt.=1003.336426m. Speed=0.036000m/h.</desc>
<speed>0.010000</speed>
</trkpt>
<trkpt lat="22.046572" lon="103.952957">
<ele>1003.523926</ele>
<time>2011-04-26T04:05:30Z</time>
<desc>lat.=22.046572, lon.=103.952957, Alt.=1003.523926m. Speed=0.072000m/h.</desc>
<speed>0.020000</speed>
</trkpt>
<trkpt lat="22.046572" lon="103.952950">
<ele>1003.711426</ele>
<time>2011-04-26T04:05:35Z</time>
<desc>lat.=22.046572, lon.=103.952950, Alt.=1003.711426m. Speed=0.036000m/h.</desc>
<speed>0.010000</speed>
</trkpt>
<trkpt lat="22.046572" lon="103.952950">
<ele>1003.930176</ele>
<time>2011-04-26T04:05:40Z</time>
<desc>lat.=22.046572, lon.=103.952950, Alt.=1003.930176m. Speed=0.036000m/h.</desc>
<speed>0.010000</speed>
</trkpt>
<trkpt lat="22.046572" lon="103.952950">
<ele>1004.133301</ele>
<time>2011-04-26T04:05:45Z</time>
<desc>lat.=22.046572, lon.=103.952950, Alt.=1004.133301m. Speed=0.072000m/h.</desc>
<speed>0.020000</speed>
</trkpt>
<trkpt lat="22.046572" lon="103.952950">
<ele>1004.180176</ele>
<time>2011-04-26T04:05:50Z</time>
<desc>lat.=22.046572, lon.=103.952950, Alt.=1004.180176m. Speed=0.000000m/h.</desc>
<speed>0.000000</speed>
</trkpt>
<trkpt lat="22.046574" lon="103.952950">
<ele>1004.258301</ele>
<time>2011-04-26T04:05:55Z</time>
<desc>lat.=22.046574, lon.=103.952950, Alt.=1004.258301m. Speed=0.036000m/h.</desc>
<speed>0.010000</speed>
</trkpt>
<trkpt lat="22.046574" lon="103.952950">
<ele>1004.383301</ele>
<time>2011-04-26T04:06:00Z</time>
<desc>lat.=22.046574, lon.=103.952950, Alt.=1004.383301m. Speed=0.036000m/h.</desc>
<speed>0.010000</speed>
</trkpt>
<trkpt lat="22.046574" lon="103.952950">
<ele>1004.539551</ele>
<time>2011-04-26T04:06:05Z</time>
<desc>lat.=22.046574, lon.=103.952950, Alt.=1004.539551m. Speed=0.036000m/h.</desc>
<speed>0.010000</speed>
</trkpt>
<trkpt lat="22.046574" lon="103.952950">
<ele>1004.727051</ele>
<time>2011-04-26T04:06:10Z</time>
<desc>lat.=22.046574, lon.=103.952950, Alt.=1004.727051m. Speed=0.036000m/h.</desc>
<speed>0.010000</speed>
</trkpt>
<trkpt lat="22.046574" lon="103.952950">
<ele>1004.898926</ele>
<time>2011-04-26T04:06:15Z</time>
<desc>lat.=22.046574, lon.=103.952950, Alt.=1004.898926m. Speed=0.036000m/h.</desc>
<speed>0.010000</speed>
</trkpt>
<trkpt lat="22.046574" lon="103.952950">
<ele>1005.055176</ele>
<time>2011-04-26T04:06:20Z</time>
<desc>lat.=22.046574, lon.=103.952950, Alt.=1005.055176m. Speed=0.000000m/h.</desc>
<speed>0.000000</speed>
</trkpt>
<trkpt lat="22.046576" lon="103.952950">
<ele>1005.211426</ele>
<time>2011-04-26T04:06:25Z</time>
<desc>lat.=22.046576, lon.=103.952950, Alt.=1005.211426m. Speed=0.036000m/h.</desc>
<speed>0.010000</speed>
</trkpt>
<trkpt lat="22.046576" lon="103.952950">
<ele>1005.367676</ele>
<time>2011-04-26T04:06:30Z</time>
<desc>lat.=22.046576, lon.=103.952950, Alt.=1005.367676m. Speed=0.000000m/h.</desc>
<speed>0.000000</speed>
</trkpt>
<trkpt lat="22.046576" lon="103.952950">
<ele>1005.523926</ele>
<time>2011-04-26T04:06:35Z</time>
<desc>lat.=22.046576, lon.=103.952950, Alt.=1005.523926m. Speed=0.036000m/h.</desc>
<speed>0.010000</speed>
</trkpt>
<trkpt lat="22.046576" lon="103.952950">
<ele>1005.664551</ele>
<time>2011-04-26T04:06:40Z</time>
<desc>lat.=22.046576, lon.=103.952950, Alt.=1005.664551m. Speed=0.036000m/h.</desc>
<speed>0.010000</speed>
</trkpt>
<trkpt lat="22.046576" lon="103.952950">
<ele>1005.836426</ele>
<time>2011-04-26T04:06:45Z</time>
<desc>lat.=22.046576, lon.=103.952950, Alt.=1005.836426m. Speed=0.000000m/h.</desc>
<speed>0.000000</speed>
</trkpt>
<trkpt lat="22.046576" lon="103.952950">
<ele>1006.023926</ele>
<time>2011-04-26T04:06:50Z</time>
<desc>lat.=22.046576, lon.=103.952950, Alt.=1006.023926m. Speed=0.036000m/h.</desc>
<speed>0.010000</speed>
</trkpt>
<trkpt lat="22.046577" lon="103.952950">
<ele>1006.242676</ele>
<time>2011-04-26T04:06:55Z</time>
<desc>lat.=22.046577, lon.=103.952950, Alt.=1006.242676m. Speed=0.000000m/h.</desc>
<speed>0.000000</speed>
</trkpt>
<trkpt lat="22.046577" lon="103.952950">
<ele>1006.492676</ele>
<time>2011-04-26T04:07:00Z</time>
<desc>lat.=22.046577, lon.=103.952950, Alt.=1006.492676m. Speed=0.036000m/h.</desc>
<speed>0.010000</speed>
</trkpt>
<trkpt lat="22.046577" lon="103.952950">
<ele>1006.820801</ele>
<time>2011-04-26T04:07:05Z</time>
<desc>lat.=22.046577, lon.=103.952950, Alt.=1006.820801m. Speed=0.036000m/h.</desc>
<speed>0.010000</speed>
</trkpt>
<trkpt lat="22.046577" lon="103.952942">
<ele>1007.180176</ele>
<time>2011-04-26T04:07:10Z</time>
<desc>lat.=22.046577, lon.=103.952942, Alt.=1007.180176m. Speed=0.072000m/h.</desc>
<speed>0.020000</speed>
</trkpt>
<trkpt lat="22.046577" lon="103.952942">
<ele>1007.570801</ele>
<time>2011-04-26T04:07:15Z</time>
<desc>lat.=22.046577, lon.=103.952942, Alt.=1007.570801m. Speed=0.036000m/h.</desc>
<speed>0.010000</speed>
</trkpt>
<trkpt lat="22.046579" lon="103.952942">
<ele>1007.992676</ele>
<time>2011-04-26T04:07:20Z</time>
<desc>lat.=22.046579, lon.=103.952942, Alt.=1007.992676m. Speed=0.036000m/h.</desc>
<speed>0.010000</speed>
</trkpt>
<trkpt lat="22.046579" lon="103.952942">
<ele>1008.414551</ele>
<time>2011-04-26T04:07:25Z</time>
<desc>lat.=22.046579, lon.=103.952942, Alt.=1008.414551m. Speed=0.036000m/h.</desc>
<speed>0.010000</speed>
</trkpt>
<trkpt lat="22.046579" lon="103.952942">
<ele>1008.805176</ele>
<time>2011-04-26T04:07:30Z</time>
<desc>lat.=22.046579, lon.=103.952942, Alt.=1008.805176m. Speed=0.072000m/h.</desc>
<speed>0.020000</speed>
</trkpt>
<trkpt lat="22.046579" lon="103.952942">
<ele>1009.211426</ele>
<time>2011-04-26T04:07:35Z</time>
<desc>lat.=22.046579, lon.=103.952942, Alt.=1009.211426m. Speed=0.072000m/h.</desc>
<speed>0.020000</speed>
</trkpt>
<trkpt lat="22.046579" lon="103.952942">
<ele>1009.617676</ele>
<time>2011-04-26T04:07:40Z</time>
<desc>lat.=22.046579, lon.=103.952942, Alt.=1009.617676m. Speed=0.036000m/h.</desc>
<speed>0.010000</speed>
</trkpt>
<trkpt lat="22.046581" lon="103.952942">
<ele>1009.992676</ele>
<time>2011-04-26T04:07:45Z</time>
<desc>lat.=22.046581, lon.=103.952942, Alt.=1009.992676m. Speed=0.036000m/h.</desc>
<speed>0.010000</speed>
</trkpt>
<trkpt lat="22.046581" lon="103.952934">
<ele>1010.320801</ele>
<time>2011-04-26T04:07:50Z</time>
<desc>lat.=22.046581, lon.=103.952934, Alt.=1010.320801m. Speed=0.036000m/h.</desc>
<speed>0.010000</speed>
</trkpt>
<trkpt lat="22.046581" lon="103.952934">
<ele>1010.617676</ele>
<time>2011-04-26T04:07:55Z</time>
<desc>lat.=22.046581, lon.=103.952934, Alt.=1010.617676m. Speed=0.072000m/h.</desc>
<speed>0.020000</speed>
</trkpt>
<trkpt lat="22.046581" lon="103.952934">
<ele>1010.867676</ele>
<time>2011-04-26T04:08:00Z</time>
<desc>lat.=22.046581, lon.=103.952934, Alt.=1010.867676m. Speed=0.036000m/h.</desc>
<speed>0.010000</speed>
</trkpt>
<trkpt lat="22.046581" lon="103.952934">
<ele>1011.117676</ele>
<time>2011-04-26T04:08:05Z</time>
<desc>lat.=22.046581, lon.=103.952934, Alt.=1011.117676m. Speed=0.036000m/h.</desc>
<speed>0.010000</speed>
</trkpt>
<trkpt lat="22.046581" lon="103.952934">
<ele>1011.336426</ele>
<time>2011-04-26T04:08:10Z</time>
<desc>lat.=22.046581, lon.=103.952934, Alt.=1011.336426m. Speed=0.036000m/h.</desc>
<speed>0.010000</speed>
</trkpt>
<trkpt lat="22.046581" lon="103.952934">
<ele>1011.570801</ele>
<time>2011-04-26T04:08:15Z</time>
<desc>lat.=22.046581, lon.=103.952934, Alt.=1011.570801m. Speed=0.000000m/h.</desc>
<speed>0.000000</speed>
</trkpt>
<trkpt lat="22.046581" lon="103.952934">
<ele>1011.805176</ele>
<time>2011-04-26T04:08:20Z</time>
<desc>lat.=22.046581, lon.=103.952934, Alt.=1011.805176m. Speed=0.000000m/h.</desc>
<speed>0.000000</speed>
</trkpt>
<trkpt lat="22.046583" lon="103.952934">
<ele>1011.992676</ele>
<time>2011-04-26T04:08:25Z</time>
<desc>lat.=22.046583, lon.=103.952934, Alt.=1011.992676m. Speed=0.036000m/h.</desc>
<speed>0.010000</speed>
</trkpt>
<trkpt lat="22.046583" lon="103.952934">
<ele>1012.195801</ele>
<time>2011-04-26T04:08:30Z</time>
<desc>lat.=22.046583, lon.=103.952934, Alt.=1012.195801m. Speed=0.036000m/h.</desc>
<speed>0.010000</speed>
</trkpt>
<trkpt lat="22.046583" lon="103.952934">
<ele>1012.367676</ele>
<time>2011-04-26T04:08:35Z</time>
<desc>lat.=22.046583, lon.=103.952934, Alt.=1012.367676m. Speed=0.036000m/h.</desc>
<speed>0.010000</speed>
</trkpt>
<trkpt lat="22.046583" lon="103.952934">
<ele>1012.555176</ele>
<time>2011-04-26T04:08:40Z</time>
<desc>lat.=22.046583, lon.=103.952934, Alt.=1012.555176m. Speed=0.036000m/h.</desc>
<speed>0.010000</speed>
</trkpt>
<trkpt lat="22.046583" lon="103.952934">
<ele>1012.742676</ele>
<time>2011-04-26T04:08:45Z</time>
<desc>lat.=22.046583, lon.=103.952934, Alt.=1012.742676m. Speed=0.036000m/h.</desc>
<speed>0.010000</speed>
</trkpt>
<trkpt lat="22.046583" lon="103.952934">
<ele>1012.914551</ele>
<time>2011-04-26T04:08:50Z</time>
<desc>lat.=22.046583, lon.=103.952934, Alt.=1012.914551m. Speed=0.000000m/h.</desc>
<speed>0.000000</speed>
</trkpt>
<trkpt lat="22.046583" lon="103.952934">
<ele>1013.055176</ele>
<time>2011-04-26T04:08:55Z</time>
<desc>lat.=22.046583, lon.=103.952934, Alt.=1013.055176m. Speed=0.000000m/h.</desc>
<speed>0.000000</speed>
</trkpt>
<trkpt lat="22.046583" lon="103.952934">
<ele>1013.117676</ele>
<time>2011-04-26T04:09:00Z</time>
<desc>lat.=22.046583, lon.=103.952934, Alt.=1013.117676m. Speed=0.000000m/h.</desc>
<speed>0.000000</speed>
</trkpt>
<trkpt lat="22.046583" lon="103.952934">
<ele>1013.164551</ele>
<time>2011-04-26T04:09:05Z</time>
<desc>lat.=22.046583, lon.=103.952934, Alt.=1013.164551m. Speed=0.000000m/h.</desc>
<speed>0.000000</speed>
</trkpt>
<trkpt lat="22.046585" lon="103.952934">
<ele>1013.211426</ele>
<time>2011-04-26T04:09:10Z</time>
<desc>lat.=22.046585, lon.=103.952934, Alt.=1013.211426m. Speed=0.000000m/h.</desc>
<speed>0.000000</speed>
</trkpt>
<trkpt lat="22.046585" lon="103.952934">
<ele>1013.227051</ele>
<time>2011-04-26T04:09:15Z</time>
<desc>lat.=22.046585, lon.=103.952934, Alt.=1013.227051m. Speed=0.000000m/h.</desc>
<speed>0.000000</speed>
</trkpt>
<trkpt lat="22.046585" lon="103.952934">
<ele>1013.273926</ele>
<time>2011-04-26T04:09:20Z</time>
<desc>lat.=22.046585, lon.=103.952934, Alt.=1013.273926m. Speed=0.000000m/h.</desc>
<speed>0.000000</speed>
</trkpt>
<trkpt lat="22.046585" lon="103.952934">
<ele>1013.305176</ele>
<time>2011-04-26T04:09:25Z</time>
<desc>lat.=22.046585, lon.=103.952934, Alt.=1013.305176m. Speed=0.036000m/h.</desc>
<speed>0.010000</speed>
</trkpt>
<trkpt lat="22.046585" lon="103.952934">
<ele>1013.336426</ele>
<time>2011-04-26T04:09:30Z</time>
<desc>lat.=22.046585, lon.=103.952934, Alt.=1013.336426m. Speed=0.000000m/h.</desc>
<speed>0.000000</speed>
</trkpt>
<trkpt lat="22.046585" lon="103.952934">
<ele>1013.398926</ele>
<time>2011-04-26T04:09:35Z</time>
<desc>lat.=22.046585, lon.=103.952934, Alt.=1013.398926m. Speed=0.000000m/h.</desc>
<speed>0.000000</speed>
</trkpt>
<trkpt lat="22.046585" lon="103.952934">
<ele>1013.477051</ele>
<time>2011-04-26T04:09:40Z</time>
<desc>lat.=22.046585, lon.=103.952934, Alt.=1013.477051m. Speed=0.000000m/h.</desc>
<speed>0.000000</speed>
</trkpt>
<trkpt lat="22.046585" lon="103.952934">
<ele>1013.555176</ele>
<time>2011-04-26T04:09:45Z</time>
<desc>lat.=22.046585, lon.=103.952934, Alt.=1013.555176m. Speed=0.000000m/h.</desc>
<speed>0.000000</speed>
</trkpt>
<trkpt lat="22.046585" lon="103.952934">
<ele>1013.617676</ele>
<time>2011-04-26T04:09:50Z</time>
<desc>lat.=22.046585, lon.=103.952934, Alt.=1013.617676m. Speed=0.000000m/h.</desc>
<speed>0.000000</speed>
</trkpt>
<trkpt lat="22.046585" lon="103.952934">
<ele>1013.695801</ele>
<time>2011-04-26T04:09:55Z</time>
<desc>lat.=22.046585, lon.=103.952934, Alt.=1013.695801m. Speed=0.000000m/h.</desc>
<speed>0.000000</speed>
</trkpt>
<trkpt lat="22.046585" lon="103.952934">
<ele>1013.758301</ele>
<time>2011-04-26T04:10:00Z</time>
<desc>lat.=22.046585, lon.=103.952934, Alt.=1013.758301m. Speed=0.000000m/h.</desc>
<speed>0.000000</speed>
</trkpt>
<trkpt lat="22.046585" lon="103.952934">
<ele>1013.805176</ele>
<time>2011-04-26T04:10:05Z</time>
<desc>lat.=22.046585, lon.=103.952934, Alt.=1013.805176m. Speed=0.036000m/h.</desc>
<speed>0.010000</speed>
</trkpt>
<trkpt lat="22.046585" lon="103.952934">
<ele>1013.820801</ele>
<time>2011-04-26T04:10:10Z</time>
<desc>lat.=22.046585, lon.=103.952934, Alt.=1013.820801m. Speed=0.000000m/h.</desc>
<speed>0.000000</speed>
</trkpt>
<trkpt lat="22.046585" lon="103.952934">
<ele>1013.867676</ele>
<time>2011-04-26T04:10:15Z</time>
<desc>lat.=22.046585, lon.=103.952934, Alt.=1013.867676m. Speed=0.036000m/h.</desc>
<speed>0.010000</speed>
</trkpt>
<trkpt lat="22.046587" lon="103.952934">
<ele>1013.945801</ele>
<time>2011-04-26T04:10:20Z</time>
<desc>lat.=22.046587, lon.=103.952934, Alt.=1013.945801m. Speed=0.000000m/h.</desc>
<speed>0.000000</speed>
</trkpt>
<trkpt lat="22.046587" lon="103.952934">
<ele>1014.055176</ele>
<time>2011-04-26T04:10:25Z</time>
<desc>lat.=22.046587, lon.=103.952934, Alt.=1014.055176m. Speed=0.000000m/h.</desc>
<speed>0.000000</speed>
</trkpt>
<trkpt lat="22.046587" lon="103.952934">
<ele>1014.195801</ele>
<time>2011-04-26T04:10:30Z</time>
<desc>lat.=22.046587, lon.=103.952934, Alt.=1014.195801m. Speed=0.036000m/h.</desc>
<speed>0.010000</speed>
</trkpt>
<trkpt lat="22.046587" lon="103.952934">
<ele>1014.227051</ele>
<time>2011-04-26T04:10:35Z</time>
<desc>lat.=22.046587, lon.=103.952934, Alt.=1014.227051m. Speed=0.036000m/h.</desc>
<speed>0.010000</speed>
</trkpt>
<trkpt lat="22.046587" lon="103.952934">
<ele>1014.242676</ele>
<time>2011-04-26T04:10:40Z</time>
<desc>lat.=22.046587, lon.=103.952934, Alt.=1014.242676m. Speed=0.036000m/h.</desc>
<speed>0.010000</speed>
</trkpt>
<trkpt lat="22.046587" lon="103.952934">
<ele>1014.273926</ele>
<time>2011-04-26T04:10:45Z</time>
<desc>lat.=22.046587, lon.=103.952934, Alt.=1014.273926m. Speed=0.000000m/h.</desc>
<speed>0.000000</speed>
</trkpt>
<trkpt lat="22.046587" lon="103.952934">
<ele>1014.320801</ele>
<time>2011-04-26T04:10:50Z</time>
<desc>lat.=22.046587, lon.=103.952934, Alt.=1014.320801m. Speed=0.000000m/h.</desc>
<speed>0.000000</speed>
</trkpt>
<trkpt lat="22.046587" lon="103.952934">
<ele>1014.367676</ele>
<time>2011-04-26T04:10:55Z</time>
<desc>lat.=22.046587, lon.=103.952934, Alt.=1014.367676m. Speed=0.000000m/h.</desc>
<speed>0.000000</speed>
</trkpt>
<trkpt lat="22.046587" lon="103.952934">
<ele>1014.430176</ele>
<time>2011-04-26T04:11:00Z</time>
<desc>lat.=22.046587, lon.=103.952934, Alt.=1014.430176m. Speed=0.000000m/h.</desc>
<speed>0.000000</speed>
</trkpt>
<trkpt lat="22.046587" lon="103.952934">
<ele>1014.461426</ele>
<time>2011-04-26T04:11:05Z</time>
<desc>lat.=22.046587, lon.=103.952934, Alt.=1014.461426m. Speed=0.000000m/h.</desc>
<speed>0.000000</speed>
</trkpt>
<trkpt lat="22.046587" lon="103.952934">
<ele>1014.477051</ele>
<time>2011-04-26T04:11:10Z</time>
<desc>lat.=22.046587, lon.=103.952934, Alt.=1014.477051m. Speed=0.000000m/h.</desc>
<speed>0.000000</speed>
</trkpt>
<trkpt lat="22.046589" lon="103.952934">
<ele>1014.477051</ele>
<time>2011-04-26T04:11:15Z</time>
<desc>lat.=22.046589, lon.=103.952934, Alt.=1014.477051m. Speed=0.000000m/h.</desc>
<speed>0.000000</speed>
</trkpt>
<trkpt lat="22.046589" lon="103.952934">
<ele>1014.508301</ele>
<time>2011-04-26T04:11:20Z</time>
<desc>lat.=22.046589, lon.=103.952934, Alt.=1014.508301m. Speed=0.000000m/h.</desc>
<speed>0.000000</speed>
</trkpt>
<trkpt lat="22.046589" lon="103.952934">
<ele>1014.539551</ele>
<time>2011-04-26T04:11:25Z</time>
<desc>lat.=22.046589, lon.=103.952934, Alt.=1014.539551m. Speed=0.000000m/h.</desc>
<speed>0.000000</speed>
</trkpt>
<trkpt lat="22.046589" lon="103.952934">
<ele>1014.586426</ele>
<time>2011-04-26T04:11:30Z</time>
<desc>lat.=22.046589, lon.=103.952934, Alt.=1014.586426m. Speed=0.000000m/h.</desc>
<speed>0.000000</speed>
</trkpt>
<trkpt lat="22.046589" lon="103.952934">
<ele>1014.633301</ele>
<time>2011-04-26T04:11:35Z</time>
<desc>lat.=22.046589, lon.=103.952934, Alt.=1014.633301m. Speed=0.000000m/h.</desc>
<speed>0.000000</speed>
</trkpt>
<trkpt lat="22.046589" lon="103.952934">
<ele>1014.664551</ele>
<time>2011-04-26T04:11:40Z</time>
<desc>lat.=22.046589, lon.=103.952934, Alt.=1014.664551m. Speed=0.000000m/h.</desc>
<speed>0.000000</speed>
</trkpt>
<trkpt lat="22.046589" lon="103.952934">
<ele>1014.727051</ele>
<time>2011-04-26T04:11:45Z</time>
<desc>lat.=22.046589, lon.=103.952934, Alt.=1014.727051m. Speed=0.036000m/h.</desc>
<speed>0.010000</speed>
</trkpt>
<trkpt lat="22.046589" lon="103.952934">
<ele>1014.758301</ele>
<time>2011-04-26T04:11:50Z</time>
<desc>lat.=22.046589, lon.=103.952934, Alt.=1014.758301m. Speed=0.000000m/h.</desc>
<speed>0.000000</speed>
</trkpt>
<trkpt lat="22.046589" lon="103.952934">
<ele>1014.789551</ele>
<time>2011-04-26T04:11:55Z</time>
<desc>lat.=22.046589, lon.=103.952934, Alt.=1014.789551m. Speed=0.000000m/h.</desc>
<speed>0.000000</speed>
</trkpt>
<trkpt lat="22.046589" lon="103.952934">
<ele>1014.805176</ele>
<time>2011-04-26T04:12:00Z</time>
<desc>lat.=22.046589, lon.=103.952934, Alt.=1014.805176m. Speed=0.000000m/h.</desc>
<speed>0.000000</speed>
</trkpt>
<trkpt lat="22.046589" lon="103.952934">
<ele>1014.836426</ele>
<time>2011-04-26T04:12:05Z</time>
<desc>lat.=22.046589, lon.=103.952934, Alt.=1014.836426m. Speed=0.000000m/h.</desc>
<speed>0.000000</speed>
</trkpt>
<trkpt lat="22.046589" lon="103.952934">
<ele>1014.883301</ele>
<time>2011-04-26T04:12:10Z</time>
<desc>lat.=22.046589, lon.=103.952934, Alt.=1014.883301m. Speed=0.000000m/h.</desc>
<speed>0.000000</speed>
</trkpt>
<trkpt lat="22.046589" lon="103.952934">
<ele>1014.914551</ele>
<time>2011-04-26T04:12:15Z</time>
<desc>lat.=22.046589, lon.=103.952934, Alt.=1014.914551m. Speed=0.000000m/h.</desc>
<speed>0.000000</speed>
</trkpt>
<trkpt lat="22.046589" lon="103.952934">
<ele>1014.945801</ele>
<time>2011-04-26T04:12:20Z</time>
<desc>lat.=22.046589, lon.=103.952934, Alt.=1014.945801m. Speed=0.000000m/h.</desc>
<speed>0.000000</speed>
</trkpt>
<trkpt lat="22.046589" lon="103.952934">
<ele>1014.977051</ele>
<time>2011-04-26T04:12:25Z</time>
<desc>lat.=22.046589, lon.=103.952934, Alt.=1014.977051m. Speed=0.000000m/h.</desc>
<speed>0.000000</speed>
</trkpt>
<trkpt lat="22.046589" lon="103.952934">
<ele>1015.008301</ele>
<time>2011-04-26T04:12:30Z</time>
<desc>lat.=22.046589, lon.=103.952934, Alt.=1015.008301m. Speed=0.000000m/h.</desc>
<speed>0.000000</speed>
</trkpt>
<trkpt lat="22.046589" lon="103.952934">
<ele>1015.039551</ele>
<time>2011-04-26T04:12:35Z</time>
<desc>lat.=22.046589, lon.=103.952934, Alt.=1015.039551m. Speed=0.000000m/h.</desc>
<speed>0.000000</speed>
</trkpt>
<trkpt lat="22.046589" lon="103.952934">
<ele>1015.070801</ele>
<time>2011-04-26T04:12:40Z</time>
<desc>lat.=22.046589, lon.=103.952934, Alt.=1015.070801m. Speed=0.000000m/h.</desc>
<speed>0.000000</speed>
</trkpt>
<trkpt lat="22.046589" lon="103.952934">
<ele>1015.102051</ele>
<time>2011-04-26T04:12:45Z</time>
<desc>lat.=22.046589, lon.=103.952934, Alt.=1015.102051m. Speed=0.000000m/h.</desc>
<speed>0.000000</speed>
</trkpt>
<trkpt lat="22.046589" lon="103.952934">
<ele>1015.148926</ele>
<time>2011-04-26T04:12:50Z</time>
<desc>lat.=22.046589, lon.=103.952934, Alt.=1015.148926m. Speed=0.000000m/h.</desc>
<speed>0.000000</speed>
</trkpt>
<trkpt lat="22.046589" lon="103.952934">
<ele>1015.195801</ele>
<time>2011-04-26T04:12:55Z</time>
<desc>lat.=22.046589, lon.=103.952934, Alt.=1015.195801m. Speed=0.036000m/h.</desc>
<speed>0.010000</speed>
</trkpt>
<trkpt lat="22.046589" lon="103.952934">
<ele>1015.227051</ele>
<time>2011-04-26T04:13:00Z</time>
<desc>lat.=22.046589, lon.=103.952934, Alt.=1015.227051m. Speed=0.000000m/h.</desc>
<speed>0.000000</speed>
</trkpt>
<trkpt lat="22.046589" lon="103.952934">
<ele>1015.258301</ele>
<time>2011-04-26T04:13:05Z</time>
<desc>lat.=22.046589, lon.=103.952934, Alt.=1015.258301m. Speed=0.000000m/h.</desc>
<speed>0.000000</speed>
</trkpt>
<trkpt lat="22.046589" lon="103.952934">
<ele>1015.289551</ele>
<time>2011-04-26T04:13:10Z</time>
<desc>lat.=22.046589, lon.=103.952934, Alt.=1015.289551m. Speed=0.000000m/h.</desc>
<speed>0.000000</speed>
</trkpt>
<trkpt lat="22.046589" lon="103.952934">
<ele>1015.320801</ele>
<time>2011-04-26T04:13:15Z</time>
<desc>lat.=22.046589, lon.=103.952934, Alt.=1015.320801m. Speed=0.000000m/h.</desc>
<speed>0.000000</speed>
</trkpt>
<trkpt lat="22.046589" lon="103.952934">
<ele>1015.367676</ele>
<time>2011-04-26T04:13:20Z</time>
<desc>lat.=22.046589, lon.=103.952934, Alt.=1015.367676m. Speed=0.000000m/h.</desc>
<speed>0.000000</speed>
</trkpt>
<trkpt lat="22.046589" lon="103.952934">
<ele>1015.398926</ele>
<time>2011-04-26T04:13:25Z</time>
<desc>lat.=22.046589, lon.=103.952934, Alt.=1015.398926m. Speed=0.000000m/h.</desc>
<speed>0.000000</speed>
</trkpt>
<trkpt lat="22.046591" lon="103.952934">
<ele>1015.414551</ele>
<time>2011-04-26T04:13:30Z</time>
<desc>lat.=22.046591, lon.=103.952934, Alt.=1015.414551m. Speed=0.000000m/h.</desc>
<speed>0.000000</speed>
</trkpt>
<trkpt lat="22.046591" lon="103.952934">
<ele>1015.445801</ele>
<time>2011-04-26T04:13:35Z</time>
<desc>lat.=22.046591, lon.=103.952934, Alt.=1015.445801m. Speed=0.036000m/h.</desc>
<speed>0.010000</speed>
</trkpt>
<trkpt lat="22.046591" lon="103.952934">
<ele>1015.477051</ele>
<time>2011-04-26T04:13:40Z</time>
<desc>lat.=22.046591, lon.=103.952934, Alt.=1015.477051m. Speed=0.000000m/h.</desc>
<speed>0.000000</speed>
</trkpt>
<trkpt lat="22.046591" lon="103.952934">
<ele>1015.508301</ele>
<time>2011-04-26T04:13:45Z</time>
<desc>lat.=22.046591, lon.=103.952934, Alt.=1015.508301m. Speed=0.000000m/h.</desc>
<speed>0.000000</speed>
</trkpt>
<trkpt lat="22.046591" lon="103.952934">
<ele>1015.555176</ele>
<time>2011-04-26T04:13:50Z</time>
<desc>lat.=22.046591, lon.=103.952934, Alt.=1015.555176m. Speed=0.036000m/h.</desc>
<speed>0.010000</speed>
</trkpt>
<trkpt lat="22.046591" lon="103.952934">
<ele>1015.586426</ele>
<time>2011-04-26T04:13:55Z</time>
<desc>lat.=22.046591, lon.=103.952934, Alt.=1015.586426m. Speed=0.000000m/h.</desc>
<speed>0.000000</speed>
</trkpt>
<trkpt lat="22.046591" lon="103.952934">
<ele>1015.617676</ele>
<time>2011-04-26T04:14:00Z</time>
<desc>lat.=22.046591, lon.=103.952934, Alt.=1015.617676m. Speed=0.000000m/h.</desc>
<speed>0.000000</speed>
</trkpt>
<trkpt lat="22.046591" lon="103.952934">
<ele>1015.648926</ele>
<time>2011-04-26T04:14:05Z</time>
<desc>lat.=22.046591, lon.=103.952934, Alt.=1015.648926m. Speed=0.036000m/h.</desc>
<speed>0.010000</speed>
</trkpt>
<trkpt lat="22.046591" lon="103.952934">
<ele>1015.680176</ele>
<time>2011-04-26T04:14:10Z</time>
<desc>lat.=22.046591, lon.=103.952934, Alt.=1015.680176m. Speed=0.000000m/h.</desc>
<speed>0.000000</speed>
</trkpt>
<trkpt lat="22.046593" lon="103.952942">
<ele>1016.195801</ele>
<time>2011-04-26T04:14:15Z</time>
<desc>lat.=22.046593, lon.=103.952942, Alt.=1016.195801m. Speed=0.000000m/h.</desc>
<speed>0.000000</speed>
</trkpt>
<trkpt lat="22.046598" lon="103.952950">
<ele>1016.758301</ele>
<time>2011-04-26T04:14:20Z</time>
<desc>lat.=22.046598, lon.=103.952950, Alt.=1016.758301m. Speed=0.036000m/h.</desc>
<speed>0.010000</speed>
</trkpt>
<trkpt lat="22.046606" lon="103.952957">
<ele>1017.523926</ele>
<time>2011-04-26T04:14:25Z</time>
<desc>lat.=22.046606, lon.=103.952957, Alt.=1017.523926m. Speed=0.000000m/h.</desc>
<speed>0.000000</speed>
</trkpt>
<trkpt lat="22.046610" lon="103.952965">
<ele>1017.977051</ele>
<time>2011-04-26T04:14:30Z</time>
<desc>lat.=22.046610, lon.=103.952965, Alt.=1017.977051m. Speed=0.036000m/h.</desc>
<speed>0.010000</speed>
</trkpt>
<trkpt lat="22.046610" lon="103.952965">
<ele>1018.289551</ele>
<time>2011-04-26T04:14:35Z</time>
<desc>lat.=22.046610, lon.=103.952965, Alt.=1018.289551m. Speed=0.000000m/h.</desc>
<speed>0.000000</speed>
</trkpt>
<trkpt lat="22.046606" lon="103.952972">
<ele>1018.930176</ele>
<time>2011-04-26T04:14:40Z</time>
<desc>lat.=22.046606, lon.=103.952972, Alt.=1018.930176m. Speed=0.000000m/h.</desc>
<speed>0.000000</speed>
</trkpt>
<trkpt lat="22.046610" lon="103.952972">
<ele>1020.258301</ele>
<time>2011-04-26T04:14:45Z</time>
<desc>lat.=22.046610, lon.=103.952972, Alt.=1020.258301m. Speed=0.000000m/h.</desc>
<speed>0.000000</speed>
</trkpt>
<trkpt lat="22.046610" lon="103.952980">
<ele>1021.273926</ele>
<time>2011-04-26T04:14:50Z</time>
<desc>lat.=22.046610, lon.=103.952980, Alt.=1021.273926m. Speed=0.036000m/h.</desc>
<speed>0.010000</speed>
</trkpt>
<trkpt lat="22.046614" lon="103.952980">
<ele>1022.539551</ele>
<time>2011-04-26T04:14:55Z</time>
<desc>lat.=22.046614, lon.=103.952980, Alt.=1022.539551m. Speed=0.000000m/h.</desc>
<speed>0.000000</speed>
</trkpt>
<trkpt lat="22.046614" lon="103.952980">
<ele>1022.570801</ele>
<time>2011-04-26T04:15:00Z</time>
<desc>lat.=22.046614, lon.=103.952980, Alt.=1022.570801m. Speed=0.036000m/h.</desc>
<speed>0.010000</speed>
</trkpt>
<trkpt lat="22.046614" lon="103.952980">
<ele>1022.602051</ele>
<time>2011-04-26T04:15:05Z</time>
<desc>lat.=22.046614, lon.=103.952980, Alt.=1022.602051m. Speed=0.036000m/h.</desc>
<speed>0.010000</speed>
</trkpt>
<trkpt lat="22.046614" lon="103.952980">
<ele>1022.617676</ele>
<time>2011-04-26T04:15:10Z</time>
<desc>lat.=22.046614, lon.=103.952980, Alt.=1022.617676m. Speed=0.072000m/h.</desc>
<speed>0.020000</speed>
</trkpt>
<trkpt lat="22.046610" lon="103.952980">
<ele>1022.883301</ele>
<time>2011-04-26T04:15:15Z</time>
<desc>lat.=22.046610, lon.=103.952980, Alt.=1022.883301m. Speed=0.288000m/h.</desc>
<speed>0.080000</speed>
</trkpt>
<trkpt lat="22.046602" lon="103.952972">
<ele>1024.079102</ele>
<time>2011-04-26T04:15:20Z</time>
<desc>lat.=22.046602, lon.=103.952972, Alt.=1024.079102m. Speed=0.252000m/h.</desc>
<speed>0.070000</speed>
</trkpt>
<trkpt lat="22.046587" lon="103.952988">
<ele>1024.485352</ele>
<time>2011-04-26T04:15:25Z</time>
<desc>lat.=22.046587, lon.=103.952988, Alt.=1024.485352m. Speed=2.340000m/h.</desc>
<speed>0.650000</speed>
</trkpt>
<trkpt lat="22.046545" lon="103.953026">
<ele>1024.641602</ele>
<time>2011-04-26T04:15:30Z</time>
<desc>lat.=22.046545, lon.=103.953026, Alt.=1024.641602m. Speed=6.084000m/h.</desc>
<speed>1.690000</speed>
</trkpt>
<trkpt lat="22.046520" lon="103.953072">
<ele>1024.610352</ele>
<time>2011-04-26T04:15:35Z</time>
<desc>lat.=22.046520, lon.=103.953072, Alt.=1024.610352m. Speed=3.060000m/h.</desc>
<speed>0.850000</speed>
</trkpt>
<trkpt lat="22.046474" lon="103.953163">
<ele>1024.735352</ele>
<time>2011-04-26T04:15:40Z</time>
<desc>lat.=22.046474, lon.=103.953163, Alt.=1024.735352m. Speed=7.308000m/h.</desc>
<speed>2.030000</speed>
</trkpt>
<trkpt lat="22.046371" lon="103.953293">
<ele>1024.954102</ele>
<time>2011-04-26T04:15:45Z</time>
<desc>lat.=22.046371, lon.=103.953293, Alt.=1024.954102m. Speed=10.908000m/h.</desc>
<speed>3.030000</speed>
</trkpt>
<trkpt lat="22.046297" lon="103.953438">
<ele>1025.329102</ele>
<time>2011-04-26T04:15:50Z</time>
<desc>lat.=22.046297, lon.=103.953438, Alt.=1025.329102m. Speed=7.740000m/h.</desc>
<speed>2.150000</speed>
</trkpt>
<trkpt lat="22.046257" lon="103.953545">
<ele>1025.829102</ele>
<time>2011-04-26T04:15:55Z</time>
<desc>lat.=22.046257, lon.=103.953545, Alt.=1025.829102m. Speed=9.036000m/h.</desc>
<speed>2.510000</speed>
</trkpt>
<trkpt lat="22.046196" lon="103.953651">
<ele>1026.110352</ele>
<time>2011-04-26T04:16:00Z</time>
<desc>lat.=22.046196, lon.=103.953651, Alt.=1026.110352m. Speed=8.280000m/h.</desc>
<speed>2.300000</speed>
</trkpt>
<trkpt lat="22.046162" lon="103.953735">
<ele>1026.641602</ele>
<time>2011-04-26T04:16:05Z</time>
<desc>lat.=22.046162, lon.=103.953735, Alt.=1026.641602m. Speed=6.192000m/h.</desc>
<speed>1.720000</speed>
</trkpt>
<trkpt lat="22.046146" lon="103.953766">
<ele>1027.422852</ele>
<time>2011-04-26T04:16:10Z</time>
<desc>lat.=22.046146, lon.=103.953766, Alt.=1027.422852m. Speed=0.900000m/h.</desc>
<speed>0.250000</speed>
</trkpt>
<trkpt lat="22.046152" lon="103.953773">
<ele>1027.766602</ele>
<time>2011-04-26T04:16:15Z</time>
<desc>lat.=22.046152, lon.=103.953773, Alt.=1027.766602m. Speed=0.612000m/h.</desc>
<speed>0.170000</speed>
</trkpt>
<trkpt lat="22.046150" lon="103.953773">
<ele>1027.922852</ele>
<time>2011-04-26T04:16:20Z</time>
<desc>lat.=22.046150, lon.=103.953773, Alt.=1027.922852m. Speed=0.504000m/h.</desc>
<speed>0.140000</speed>
</trkpt>
<trkpt lat="22.046150" lon="103.953781">
<ele>1027.954102</ele>
<time>2011-04-26T04:16:25Z</time>
<desc>lat.=22.046150, lon.=103.953781, Alt.=1027.954102m. Speed=0.252000m/h.</desc>
<speed>0.070000</speed>
</trkpt>
<trkpt lat="22.046146" lon="103.953781">
<ele>1027.954102</ele>
<time>2011-04-26T04:16:30Z</time>
<desc>lat.=22.046146, lon.=103.953781, Alt.=1027.954102m. Speed=0.360000m/h.</desc>
<speed>0.100000</speed>
</trkpt>
<trkpt lat="22.046144" lon="103.953789">
<ele>1027.985352</ele>
<time>2011-04-26T04:16:35Z</time>
<desc>lat.=22.046144, lon.=103.953789, Alt.=1027.985352m. Speed=0.252000m/h.</desc>
<speed>0.070000</speed>
</trkpt>
<trkpt lat="22.046143" lon="103.953789">
<ele>1027.985352</ele>
<time>2011-04-26T04:16:40Z</time>
<desc>lat.=22.046143, lon.=103.953789, Alt.=1027.985352m. Speed=0.504000m/h.</desc>
<speed>0.140000</speed>
</trkpt>
<trkpt lat="22.046146" lon="103.953781">
<ele>1028.016602</ele>
<time>2011-04-26T04:16:45Z</time>
<desc>lat.=22.046146, lon.=103.953781, Alt.=1028.016602m. Speed=0.252000m/h.</desc>
<speed>0.070000</speed>
</trkpt>
<trkpt lat="22.046146" lon="103.953781">
<ele>1028.047852</ele>
<time>2011-04-26T04:16:50Z</time>
<desc>lat.=22.046146, lon.=103.953781, Alt.=1028.047852m. Speed=0.288000m/h.</desc>
<speed>0.080000</speed>
</trkpt>
<trkpt lat="22.046148" lon="103.953781">
<ele>1028.047852</ele>
<time>2011-04-26T04:16:55Z</time>
<desc>lat.=22.046148, lon.=103.953781, Alt.=1028.047852m. Speed=0.720000m/h.</desc>
<speed>0.200000</speed>
</trkpt>
<trkpt lat="22.046143" lon="103.953781">
<ele>1028.079102</ele>
<time>2011-04-26T04:17:00Z</time>
<desc>lat.=22.046143, lon.=103.953781, Alt.=1028.079102m. Speed=0.360000m/h.</desc>
<speed>0.100000</speed>
</trkpt>
<trkpt lat="22.046137" lon="103.953781">
<ele>1028.110352</ele>
<time>2011-04-26T04:17:05Z</time>
<desc>lat.=22.046137, lon.=103.953781, Alt.=1028.110352m. Speed=0.468000m/h.</desc>
<speed>0.130000</speed>
</trkpt>
<trkpt lat="22.046133" lon="103.953781">
<ele>1028.141602</ele>
<time>2011-04-26T04:17:10Z</time>
<desc>lat.=22.046133, lon.=103.953781, Alt.=1028.141602m. Speed=0.468000m/h.</desc>
<speed>0.130000</speed>
</trkpt>
<trkpt lat="22.046131" lon="103.953789">
<ele>1028.141602</ele>
<time>2011-04-26T04:17:15Z</time>
<desc>lat.=22.046131, lon.=103.953789, Alt.=1028.141602m. Speed=0.468000m/h.</desc>
<speed>0.130000</speed>
</trkpt>
<trkpt lat="22.046131" lon="103.953796">
<ele>1028.141602</ele>
<time>2011-04-26T04:17:20Z</time>
<desc>lat.=22.046131, lon.=103.953796, Alt.=1028.141602m. Speed=0.612000m/h.</desc>
<speed>0.170000</speed>
</trkpt>
<trkpt lat="22.046135" lon="103.953804">
<ele>1028.141602</ele>
<time>2011-04-26T04:17:25Z</time>
<desc>lat.=22.046135, lon.=103.953804, Alt.=1028.141602m. Speed=0.180000m/h.</desc>
<speed>0.050000</speed>
</trkpt>
<trkpt lat="22.046135" lon="103.953804">
<ele>1028.172852</ele>
<time>2011-04-26T04:17:30Z</time>
<desc>lat.=22.046135, lon.=103.953804, Alt.=1028.172852m. Speed=0.180000m/h.</desc>
<speed>0.050000</speed>
</trkpt>
<trkpt lat="22.046137" lon="103.953804">
<ele>1028.172852</ele>
<time>2011-04-26T04:17:35Z</time>
<desc>lat.=22.046137, lon.=103.953804, Alt.=1028.172852m. Speed=0.324000m/h.</desc>
<speed>0.090000</speed>
</trkpt>
<trkpt lat="22.046143" lon="103.953804">
<ele>1028.204102</ele>
<time>2011-04-26T04:17:40Z</time>
<desc>lat.=22.046143, lon.=103.953804, Alt.=1028.204102m. Speed=0.252000m/h.</desc>
<speed>0.070000</speed>
</trkpt>
<trkpt lat="22.046141" lon="103.953804">
<ele>1028.235352</ele>
<time>2011-04-26T04:17:45Z</time>
<desc>lat.=22.046141, lon.=103.953804, Alt.=1028.235352m. Speed=0.900000m/h.</desc>
<speed>0.250000</speed>
</trkpt>
<trkpt lat="22.046141" lon="103.953812">
<ele>1028.266602</ele>
<time>2011-04-26T04:17:50Z</time>
<desc>lat.=22.046141, lon.=103.953812, Alt.=1028.266602m. Speed=0.144000m/h.</desc>
<speed>0.040000</speed>
</trkpt>
<trkpt lat="22.046137" lon="103.953812">
<ele>1028.297852</ele>
<time>2011-04-26T04:17:55Z</time>
<desc>lat.=22.046137, lon.=103.953812, Alt.=1028.297852m. Speed=0.324000m/h.</desc>
<speed>0.090000</speed>
</trkpt>
<trkpt lat="22.046135" lon="103.953804">
<ele>1028.329102</ele>
<time>2011-04-26T04:18:00Z</time>
<desc>lat.=22.046135, lon.=103.953804, Alt.=1028.329102m. Speed=0.612000m/h.</desc>
<speed>0.170000</speed>
</trkpt>
<trkpt lat="22.046131" lon="103.953796">
<ele>1028.329102</ele>
<time>2011-04-26T04:18:05Z</time>
<desc>lat.=22.046131, lon.=103.953796, Alt.=1028.329102m. Speed=0.396000m/h.</desc>
<speed>0.110000</speed>
</trkpt>
<trkpt lat="22.046133" lon="103.953789">
<ele>1028.360352</ele>
<time>2011-04-26T04:18:10Z</time>
<desc>lat.=22.046133, lon.=103.953789, Alt.=1028.360352m. Speed=0.468000m/h.</desc>
<speed>0.130000</speed>
</trkpt>
<trkpt lat="22.046135" lon="103.953789">
<ele>1028.360352</ele>
<time>2011-04-26T04:18:15Z</time>
<desc>lat.=22.046135, lon.=103.953789, Alt.=1028.360352m. Speed=0.360000m/h.</desc>
<speed>0.100000</speed>
</trkpt>
<trkpt lat="22.046139" lon="103.953789">
<ele>1028.360352</ele>
<time>2011-04-26T04:18:20Z</time>
<desc>lat.=22.046139, lon.=103.953789, Alt.=1028.360352m. Speed=0.324000m/h.</desc>
<speed>0.090000</speed>
</trkpt>
<trkpt lat="22.046141" lon="103.953789">
<ele>1028.360352</ele>
<time>2011-04-26T04:18:25Z</time>
<desc>lat.=22.046141, lon.=103.953789, Alt.=1028.360352m. Speed=0.720000m/h.</desc>
<speed>0.200000</speed>
</trkpt>
<trkpt lat="22.046144" lon="103.953796">
<ele>1028.391602</ele>
<time>2011-04-26T04:18:30Z</time>
<desc>lat.=22.046144, lon.=103.953796, Alt.=1028.391602m. Speed=0.324000m/h.</desc>
<speed>0.090000</speed>
</trkpt>
<trkpt lat="22.046146" lon="103.953804">
<ele>1028.422852</ele>
<time>2011-04-26T04:18:35Z</time>
<desc>lat.=22.046146, lon.=103.953804, Alt.=1028.422852m. Speed=0.144000m/h.</desc>
<speed>0.040000</speed>
</trkpt>
<trkpt lat="22.046144" lon="103.953804">
<ele>1028.454102</ele>
<time>2011-04-26T04:18:40Z</time>
<desc>lat.=22.046144, lon.=103.953804, Alt.=1028.454102m. Speed=0.288000m/h.</desc>
<speed>0.080000</speed>
</trkpt>
<trkpt lat="22.046139" lon="103.953796">
<ele>1028.485352</ele>
<time>2011-04-26T04:18:45Z</time>
<desc>lat.=22.046139, lon.=103.953796, Alt.=1028.485352m. Speed=0.792000m/h.</desc>
<speed>0.220000</speed>
</trkpt>
<trkpt lat="22.046139" lon="103.953789">
<ele>1028.485352</ele>
<time>2011-04-26T04:18:50Z</time>
<desc>lat.=22.046139, lon.=103.953789, Alt.=1028.485352m. Speed=0.396000m/h.</desc>
<speed>0.110000</speed>
</trkpt>
<trkpt lat="22.046139" lon="103.953789">
<ele>1028.485352</ele>
<time>2011-04-26T04:18:55Z</time>
<desc>lat.=22.046139, lon.=103.953789, Alt.=1028.485352m. Speed=0.360000m/h.</desc>
<speed>0.100000</speed>
</trkpt>
<trkpt lat="22.046137" lon="103.953781">
<ele>1028.516602</ele>
<time>2011-04-26T04:19:00Z</time>
<desc>lat.=22.046137, lon.=103.953781, Alt.=1028.516602m. Speed=0.756000m/h.</desc>
<speed>0.210000</speed>
</trkpt>
<trkpt lat="22.046139" lon="103.953773">
<ele>1028.579102</ele>
<time>2011-04-26T04:19:05Z</time>
<desc>lat.=22.046139, lon.=103.953773, Alt.=1028.579102m. Speed=0.540000m/h.</desc>
<speed>0.150000</speed>
</trkpt>
<trkpt lat="22.046141" lon="103.953766">
<ele>1028.641602</ele>
<time>2011-04-26T04:19:10Z</time>
<desc>lat.=22.046141, lon.=103.953766, Alt.=1028.641602m. Speed=0.432000m/h.</desc>
<speed>0.120000</speed>
</trkpt>
<trkpt lat="22.046141" lon="103.953766">
<ele>1028.704102</ele>
<time>2011-04-26T04:19:15Z</time>
<desc>lat.=22.046141, lon.=103.953766, Alt.=1028.704102m. Speed=0.324000m/h.</desc>
<speed>0.090000</speed>
</trkpt>
<trkpt lat="22.046139" lon="103.953766">
<ele>1028.766602</ele>
<time>2011-04-26T04:19:20Z</time>
<desc>lat.=22.046139, lon.=103.953766, Alt.=1028.766602m. Speed=0.036000m/h.</desc>
<speed>0.010000</speed>
</trkpt>
<trkpt lat="22.046139" lon="103.953773">
<ele>1028.766602</ele>
<time>2011-04-26T04:19:25Z</time>
<desc>lat.=22.046139, lon.=103.953773, Alt.=1028.766602m. Speed=0.360000m/h.</desc>
<speed>0.100000</speed>
</trkpt>
<trkpt lat="22.046137" lon="103.953773">
<ele>1028.766602</ele>
<time>2011-04-26T04:19:30Z</time>
<desc>lat.=22.046137, lon.=103.953773, Alt.=1028.766602m. Speed=0.252000m/h.</desc>
<speed>0.070000</speed>
</trkpt>
<trkpt lat="22.046135" lon="103.953781">
<ele>1028.766602</ele>
<time>2011-04-26T04:19:35Z</time>
<desc>lat.=22.046135, lon.=103.953781, Alt.=1028.766602m. Speed=0.288000m/h.</desc>
<speed>0.080000</speed>
</trkpt>
<trkpt lat="22.046131" lon="103.953781">
<ele>1028.766602</ele>
<time>2011-04-26T04:19:40Z</time>
<desc>lat.=22.046131, lon.=103.953781, Alt.=1028.766602m. Speed=0.396000m/h.</desc>
<speed>0.110000</speed>
</trkpt>
<trkpt lat="22.046127" lon="103.953789">
<ele>1028.797852</ele>
<time>2011-04-26T04:19:45Z</time>
<desc>lat.=22.046127, lon.=103.953789, Alt.=1028.797852m. Speed=0.504000m/h.</desc>
<speed>0.140000</speed>
</trkpt>
<trkpt lat="22.046124" lon="103.953789">
<ele>1028.797852</ele>
<time>2011-04-26T04:19:50Z</time>
<desc>lat.=22.046124, lon.=103.953789, Alt.=1028.797852m. Speed=0.324000m/h.</desc>
<speed>0.090000</speed>
</trkpt>
<trkpt lat="22.046122" lon="103.953796">
<ele>1028.797852</ele>
<time>2011-04-26T04:19:55Z</time>
<desc>lat.=22.046122, lon.=103.953796, Alt.=1028.797852m. Speed=0.216000m/h.</desc>
<speed>0.060000</speed>
</trkpt>
<trkpt lat="22.046122" lon="103.953796">
<ele>1028.797852</ele>
<time>2011-04-26T04:20:00Z</time>
<desc>lat.=22.046122, lon.=103.953796, Alt.=1028.797852m. Speed=0.180000m/h.</desc>
<speed>0.050000</speed>
</trkpt>
<trkpt lat="22.046124" lon="103.953796">
<ele>1028.797852</ele>
<time>2011-04-26T04:20:05Z</time>
<desc>lat.=22.046124, lon.=103.953796, Alt.=1028.797852m. Speed=0.180000m/h.</desc>
<speed>0.050000</speed>
</trkpt>
<trkpt lat="22.046124" lon="103.953804">
<ele>1028.829102</ele>
<time>2011-04-26T04:20:10Z</time>
<desc>lat.=22.046124, lon.=103.953804, Alt.=1028.829102m. Speed=0.216000m/h.</desc>
<speed>0.060000</speed>
</trkpt>
<trkpt lat="22.046124" lon="103.953804">
<ele>1028.860352</ele>
<time>2011-04-26T04:20:15Z</time>
<desc>lat.=22.046124, lon.=103.953804, Alt.=1028.860352m. Speed=0.216000m/h.</desc>
<speed>0.060000</speed>
</trkpt>
<trkpt lat="22.046122" lon="103.953804">
<ele>1028.891602</ele>
<time>2011-04-26T04:20:20Z</time>
<desc>lat.=22.046122, lon.=103.953804, Alt.=1028.891602m. Speed=0.216000m/h.</desc>
<speed>0.060000</speed>
</trkpt>
<trkpt lat="22.046120" lon="103.953804">
<ele>1028.954102</ele>
<time>2011-04-26T04:20:25Z</time>
<desc>lat.=22.046120, lon.=103.953804, Alt.=1028.954102m. Speed=0.216000m/h.</desc>
<speed>0.060000</speed>
</trkpt>
<trkpt lat="22.046118" lon="103.953804">
<ele>1028.985352</ele>
<time>2011-04-26T04:20:30Z</time>
<desc>lat.=22.046118, lon.=103.953804, Alt.=1028.985352m. Speed=0.144000m/h.</desc>
<speed>0.040000</speed>
</trkpt>
<trkpt lat="22.046116" lon="103.953804">
<ele>1029.016602</ele>
<time>2011-04-26T04:20:35Z</time>
<desc>lat.=22.046116, lon.=103.953804, Alt.=1029.016602m. Speed=0.144000m/h.</desc>
<speed>0.040000</speed>
</trkpt>
<trkpt lat="22.046116" lon="103.953804">
<ele>1029.079102</ele>
<time>2011-04-26T04:20:40Z</time>
<desc>lat.=22.046116, lon.=103.953804, Alt.=1029.079102m. Speed=0.144000m/h.</desc>
<speed>0.040000</speed>
</trkpt>
<trkpt lat="22.046116" lon="103.953812">
<ele>1029.110352</ele>
<time>2011-04-26T04:20:45Z</time>
<desc>lat.=22.046116, lon.=103.953812, Alt.=1029.110352m. Speed=0.252000m/h.</desc>
<speed>0.070000</speed>
</trkpt>
<trkpt lat="22.046122" lon="103.953812">
<ele>1029.141602</ele>
<time>2011-04-26T04:20:50Z</time>
<desc>lat.=22.046122, lon.=103.953812, Alt.=1029.141602m. Speed=0.504000m/h.</desc>
<speed>0.140000</speed>
</trkpt>
<trkpt lat="22.046125" lon="103.953812">
<ele>1029.235352</ele>
<time>2011-04-26T04:20:55Z</time>
<desc>lat.=22.046125, lon.=103.953812, Alt.=1029.235352m. Speed=0.144000m/h.</desc>
<speed>0.040000</speed>
</trkpt>
<trkpt lat="22.046127" lon="103.953812">
<ele>1029.329102</ele>
<time>2011-04-26T04:21:00Z</time>
<desc>lat.=22.046127, lon.=103.953812, Alt.=1029.329102m. Speed=0.144000m/h.</desc>
<speed>0.040000</speed>
</trkpt>
<trkpt lat="22.046129" lon="103.953812">
<ele>1029.485352</ele>
<time>2011-04-26T04:21:05Z</time>
<desc>lat.=22.046129, lon.=103.953812, Alt.=1029.485352m. Speed=0.000000m/h.</desc>
<speed>0.000000</speed>
</trkpt>
<trkpt lat="22.046129" lon="103.953812">
<ele>1029.547852</ele>
<time>2011-04-26T04:21:10Z</time>
<desc>lat.=22.046129, lon.=103.953812, Alt.=1029.547852m. Speed=0.000000m/h.</desc>
<speed>0.000000</speed>
</trkpt>
<trkpt lat="22.046129" lon="103.953812">
<ele>1029.610352</ele>
<time>2011-04-26T04:21:15Z</time>
<desc>lat.=22.046129, lon.=103.953812, Alt.=1029.610352m. Speed=0.036000m/h.</desc>
<speed>0.010000</speed>
</trkpt>
<trkpt lat="22.046129" lon="103.953812">
<ele>1029.641602</ele>
<time>2011-04-26T04:21:20Z</time>
<desc>lat.=22.046129, lon.=103.953812, Alt.=1029.641602m. Speed=0.252000m/h.</desc>
<speed>0.070000</speed>
</trkpt>
<trkpt lat="22.046129" lon="103.953812">
<ele>1029.672852</ele>
<time>2011-04-26T04:21:25Z</time>
<desc>lat.=22.046129, lon.=103.953812, Alt.=1029.672852m. Speed=0.000000m/h.</desc>
<speed>0.000000</speed>
</trkpt>
<trkpt lat="22.046129" lon="103.953812">
<ele>1029.672852</ele>
<time>2011-04-26T04:21:30Z</time>
<desc>lat.=22.046129, lon.=103.953812, Alt.=1029.672852m. Speed=0.144000m/h.</desc>
<speed>0.040000</speed>
</trkpt>
<trkpt lat="22.046127" lon="103.953812">
<ele>1029.735352</ele>
<time>2011-04-26T04:21:35Z</time>
<desc>lat.=22.046127, lon.=103.953812, Alt.=1029.735352m. Speed=0.072000m/h.</desc>
<speed>0.020000</speed>
</trkpt>
<trkpt lat="22.046129" lon="103.953812">
<ele>1029.860352</ele>
<time>2011-04-26T04:21:40Z</time>
<desc>lat.=22.046129, lon.=103.953812, Alt.=1029.860352m. Speed=0.216000m/h.</desc>
<speed>0.060000</speed>
</trkpt>
<trkpt lat="22.046129" lon="103.953812">
<ele>1029.922852</ele>
<time>2011-04-26T04:21:45Z</time>
<desc>lat.=22.046129, lon.=103.953812, Alt.=1029.922852m. Speed=0.072000m/h.</desc>
<speed>0.020000</speed>
</trkpt>
<trkpt lat="22.046129" lon="103.953812">
<ele>1029.954102</ele>
<time>2011-04-26T04:21:50Z</time>
<desc>lat.=22.046129, lon.=103.953812, Alt.=1029.954102m. Speed=0.072000m/h.</desc>
<speed>0.020000</speed>
</trkpt>
<trkpt lat="22.046131" lon="103.953812">
<ele>1030.391602</ele>
<time>2011-04-26T04:21:55Z</time>
<desc>lat.=22.046131, lon.=103.953812, Alt.=1030.391602m. Speed=0.000000m/h.</desc>
<speed>0.000000</speed>
</trkpt>
<trkpt lat="22.046133" lon="103.953804">
<ele>1031.797852</ele>
<time>2011-04-26T04:22:00Z</time>
<desc>lat.=22.046133, lon.=103.953804, Alt.=1031.797852m. Speed=0.036000m/h.</desc>
<speed>0.010000</speed>
</trkpt>
<trkpt lat="22.046137" lon="103.953796">
<ele>1031.797852</ele>
<time>2011-04-26T04:22:05Z</time>
<desc>lat.=22.046137, lon.=103.953796, Alt.=1031.797852m. Speed=0.036000m/h.</desc>
<speed>0.010000</speed>
</trkpt>
<trkpt lat="22.046139" lon="103.953796">
<ele>1031.735352</ele>
<time>2011-04-26T04:22:10Z</time>
<desc>lat.=22.046139, lon.=103.953796, Alt.=1031.735352m. Speed=0.036000m/h.</desc>
<speed>0.010000</speed>
</trkpt>
<trkpt lat="22.046141" lon="103.953796">
<ele>1031.610352</ele>
<time>2011-04-26T04:22:15Z</time>
<desc>lat.=22.046141, lon.=103.953796, Alt.=1031.610352m. Speed=0.000000m/h.</desc>
<speed>0.000000</speed>
</trkpt>
<trkpt lat="22.046141" lon="103.953804">
<ele>1031.766602</ele>
<time>2011-04-26T04:22:20Z</time>
<desc>lat.=22.046141, lon.=103.953804, Alt.=1031.766602m. Speed=0.144000m/h.</desc>
<speed>0.040000</speed>
</trkpt>
<trkpt lat="22.046131" lon="103.953827">
<ele>1031.485352</ele>
<time>2011-04-26T04:22:25Z</time>
<desc>lat.=22.046131, lon.=103.953827, Alt.=1031.485352m. Speed=1.512000m/h.</desc>
<speed>0.420000</speed>
</trkpt>
<trkpt lat="22.046110" lon="103.953850">
<ele>1030.985352</ele>
<time>2011-04-26T04:22:30Z</time>
<desc>lat.=22.046110, lon.=103.953850, Alt.=1030.985352m. Speed=0.504000m/h.</desc>
<speed>0.140000</speed>
</trkpt>
<trkpt lat="22.046116" lon="103.953850">
<ele>1031.360352</ele>
<time>2011-04-26T04:22:35Z</time>
<desc>lat.=22.046116, lon.=103.953850, Alt.=1031.360352m. Speed=0.288000m/h.</desc>
<speed>0.080000</speed>
</trkpt>
<trkpt lat="22.046120" lon="103.953850">
<ele>1031.454102</ele>
<time>2011-04-26T04:22:40Z</time>
<desc>lat.=22.046120, lon.=103.953850, Alt.=1031.454102m. Speed=0.252000m/h.</desc>
<speed>0.070000</speed>
</trkpt>
<trkpt lat="22.046120" lon="103.953850">
<ele>1031.454102</ele>
<time>2011-04-26T04:22:45Z</time>
<desc>lat.=22.046120, lon.=103.953850, Alt.=1031.454102m. Speed=0.072000m/h.</desc>
<speed>0.020000</speed>
</trkpt>
<trkpt lat="22.046120" lon="103.953850">
<ele>1031.485352</ele>
<time>2011-04-26T04:22:50Z</time>
<desc>lat.=22.046120, lon.=103.953850, Alt.=1031.485352m. Speed=0.108000m/h.</desc>
<speed>0.030000</speed>
</trkpt>
<trkpt lat="22.046122" lon="103.953850">
<ele>1031.485352</ele>
<time>2011-04-26T04:22:55Z</time>
<desc>lat.=22.046122, lon.=103.953850, Alt.=1031.485352m. Speed=0.072000m/h.</desc>
<speed>0.020000</speed>
</trkpt>
<trkpt lat="22.046118" lon="103.953850">
<ele>1031.485352</ele>
<time>2011-04-26T04:23:00Z</time>
<desc>lat.=22.046118, lon.=103.953850, Alt.=1031.485352m. Speed=0.180000m/h.</desc>
<speed>0.050000</speed>
</trkpt>
<trkpt lat="22.046108" lon="103.953865">
<ele>1031.485352</ele>
<time>2011-04-26T04:23:05Z</time>
<desc>lat.=22.046108, lon.=103.953865, Alt.=1031.485352m. Speed=2.916000m/h.</desc>
<speed>0.810000</speed>
</trkpt>
<trkpt lat="22.046068" lon="103.953949">
<ele>1031.954102</ele>
<time>2011-04-26T04:23:10Z</time>
<desc>lat.=22.046068, lon.=103.953949, Alt.=1031.954102m. Speed=5.508000m/h.</desc>
<speed>1.530000</speed>
</trkpt>
<trkpt lat="22.046024" lon="103.954109">
<ele>1032.266602</ele>
<time>2011-04-26T04:23:15Z</time>
<desc>lat.=22.046024, lon.=103.954109, Alt.=1032.266602m. Speed=11.196000m/h.</desc>
<speed>3.110000</speed>
</trkpt>
<trkpt lat="22.045965" lon="103.954239">
<ele>1032.360352</ele>
<time>2011-04-26T04:23:20Z</time>
<desc>lat.=22.045965, lon.=103.954239, Alt.=1032.360352m. Speed=10.440000m/h.</desc>
<speed>2.900000</speed>
</trkpt>
<trkpt lat="22.045969" lon="103.954437">
<ele>1032.204102</ele>
<time>2011-04-26T04:23:25Z</time>
<desc>lat.=22.045969, lon.=103.954437, Alt.=1032.204102m. Speed=14.400000m/h.</desc>
<speed>4.000000</speed>
</trkpt>
<trkpt lat="22.046009" lon="103.954651">
<ele>1031.860352</ele>
<time>2011-04-26T04:23:30Z</time>
<desc>lat.=22.046009, lon.=103.954651, Alt.=1031.860352m. Speed=15.192000m/h.</desc>
<speed>4.220000</speed>
</trkpt>
<trkpt lat="22.046051" lon="103.954826">
<ele>1032.016602</ele>
<time>2011-04-26T04:23:35Z</time>
<desc>lat.=22.046051, lon.=103.954826, Alt.=1032.016602m. Speed=12.276000m/h.</desc>
<speed>3.410000</speed>
</trkpt>
<trkpt lat="22.046080" lon="103.954979">
<ele>1031.829102</ele>
<time>2011-04-26T04:23:40Z</time>
<desc>lat.=22.046080, lon.=103.954979, Alt.=1031.829102m. Speed=12.240000m/h.</desc>
<speed>3.400000</speed>
</trkpt>
<trkpt lat="22.046087" lon="103.955124">
<ele>1031.891602</ele>
<time>2011-04-26T04:23:45Z</time>
<desc>lat.=22.046087, lon.=103.955124, Alt.=1031.891602m. Speed=10.152000m/h.</desc>
<speed>2.820000</speed>
</trkpt>
<trkpt lat="22.046053" lon="103.955231">
<ele>1032.079102</ele>
<time>2011-04-26T04:23:50Z</time>
<desc>lat.=22.046053, lon.=103.955231, Alt.=1032.079102m. Speed=7.740000m/h.</desc>
<speed>2.150000</speed>
</trkpt>
<trkpt lat="22.045979" lon="103.955307">
<ele>1033.047852</ele>
<time>2011-04-26T04:23:55Z</time>
<desc>lat.=22.045979, lon.=103.955307, Alt.=1033.047852m. Speed=6.048000m/h.</desc>
<speed>1.680000</speed>
</trkpt>
<trkpt lat="22.045914" lon="103.955360">
<ele>1033.985352</ele>
<time>2011-04-26T04:24:00Z</time>
<desc>lat.=22.045914, lon.=103.955360, Alt.=1033.985352m. Speed=8.676000m/h.</desc>
<speed>2.410000</speed>
</trkpt>
<trkpt lat="22.045813" lon="103.955376">
<ele>1034.079102</ele>
<time>2011-04-26T04:24:05Z</time>
<desc>lat.=22.045813, lon.=103.955376, Alt.=1034.079102m. Speed=9.756000m/h.</desc>
<speed>2.710000</speed>
</trkpt>
<trkpt lat="22.045622" lon="103.955383">
<ele>1034.079102</ele>
<time>2011-04-26T04:24:10Z</time>
<desc>lat.=22.045622, lon.=103.955383, Alt.=1034.079102m. Speed=14.328000m/h.</desc>
<speed>3.980000</speed>
</trkpt>
<trkpt lat="22.045488" lon="103.955299">
<ele>1034.266602</ele>
<time>2011-04-26T04:24:15Z</time>
<desc>lat.=22.045488, lon.=103.955299, Alt.=1034.266602m. Speed=9.468000m/h.</desc>
<speed>2.630000</speed>
</trkpt>
<trkpt lat="22.045332" lon="103.955322">
<ele>1034.079102</ele>
<time>2011-04-26T04:24:20Z</time>
<desc>lat.=22.045332, lon.=103.955322, Alt.=1034.079102m. Speed=8.172000m/h.</desc>
<speed>2.270000</speed>
</trkpt>
<trkpt lat="22.045277" lon="103.955322">
<ele>1034.329102</ele>
<time>2011-04-26T04:24:25Z</time>
<desc>lat.=22.045277, lon.=103.955322, Alt.=1034.329102m. Speed=1.080000m/h.</desc>
<speed>0.300000</speed>
</trkpt>
<trkpt lat="22.045275" lon="103.955307">
<ele>1034.485352</ele>
<time>2011-04-26T04:24:30Z</time>
<desc>lat.=22.045275, lon.=103.955307, Alt.=1034.485352m. Speed=1.548000m/h.</desc>
<speed>0.430000</speed>
</trkpt>
<trkpt lat="22.045275" lon="103.955299">
<ele>1034.672852</ele>
<time>2011-04-26T04:24:35Z</time>
<desc>lat.=22.045275, lon.=103.955299, Alt.=1034.672852m. Speed=0.504000m/h.</desc>
<speed>0.140000</speed>
</trkpt>
<trkpt lat="22.045275" lon="103.955307">
<ele>1034.641602</ele>
<time>2011-04-26T04:24:40Z</time>
<desc>lat.=22.045275, lon.=103.955307, Alt.=1034.641602m. Speed=0.288000m/h.</desc>
<speed>0.080000</speed>
</trkpt>
<trkpt lat="22.045271" lon="103.955299">
<ele>1034.547852</ele>
<time>2011-04-26T04:24:45Z</time>
<desc>lat.=22.045271, lon.=103.955299, Alt.=1034.547852m. Speed=0.468000m/h.</desc>
<speed>0.130000</speed>
</trkpt>
<trkpt lat="22.045271" lon="103.955299">
<ele>1034.547852</ele>
<time>2011-04-26T04:24:50Z</time>
<desc>lat.=22.045271, lon.=103.955299, Alt.=1034.547852m. Speed=0.000000m/h.</desc>
<speed>0.000000</speed>
</trkpt>
<trkpt lat="22.045271" lon="103.955299">
<ele>1034.547852</ele>
<time>2011-04-26T04:24:55Z</time>
<desc>lat.=22.045271, lon.=103.955299, Alt.=1034.547852m. Speed=0.072000m/h.</desc>
<speed>0.020000</speed>
</trkpt>
<trkpt lat="22.045271" lon="103.955299">
<ele>1034.579102</ele>
<time>2011-04-26T04:25:00Z</time>
<desc>lat.=22.045271, lon.=103.955299, Alt.=1034.579102m. Speed=0.144000m/h.</desc>
<speed>0.040000</speed>
</trkpt>
<trkpt lat="22.045269" lon="103.955307">
<ele>1034.579102</ele>
<time>2011-04-26T04:25:05Z</time>
<desc>lat.=22.045269, lon.=103.955307, Alt.=1034.579102m. Speed=0.288000m/h.</desc>
<speed>0.080000</speed>
</trkpt>
<trkpt lat="22.045269" lon="103.955307">
<ele>1034.579102</ele>
<time>2011-04-26T04:25:10Z</time>
<desc>lat.=22.045269, lon.=103.955307, Alt.=1034.579102m. Speed=0.216000m/h.</desc>
<speed>0.060000</speed>
</trkpt>
<trkpt lat="22.045269" lon="103.955315">
<ele>1034.547852</ele>
<time>2011-04-26T04:25:15Z</time>
<desc>lat.=22.045269, lon.=103.955315, Alt.=1034.547852m. Speed=0.720000m/h.</desc>
<speed>0.200000</speed>
</trkpt>
<trkpt lat="22.045269" lon="103.955322">
<ele>1034.547852</ele>
<time>2011-04-26T04:25:20Z</time>
<desc>lat.=22.045269, lon.=103.955322, Alt.=1034.547852m. Speed=0.792000m/h.</desc>
<speed>0.220000</speed>
</trkpt>
<trkpt lat="22.045271" lon="103.955330">
<ele>1034.547852</ele>
<time>2011-04-26T04:25:25Z</time>
<desc>lat.=22.045271, lon.=103.955330, Alt.=1034.547852m. Speed=0.216000m/h.</desc>
<speed>0.060000</speed>
</trkpt>
<trkpt lat="22.045271" lon="103.955330">
<ele>1034.547852</ele>
<time>2011-04-26T04:25:30Z</time>
<desc>lat.=22.045271, lon.=103.955330, Alt.=1034.547852m. Speed=0.072000m/h.</desc>
<speed>0.020000</speed>
</trkpt>
<trkpt lat="22.045271" lon="103.955330">
<ele>1034.547852</ele>
<time>2011-04-26T04:25:35Z</time>
<desc>lat.=22.045271, lon.=103.955330, Alt.=1034.547852m. Speed=0.216000m/h.</desc>
<speed>0.060000</speed>
</trkpt>
<trkpt lat="22.045269" lon="103.955322">
<ele>1034.516602</ele>
<time>2011-04-26T04:25:40Z</time>
<desc>lat.=22.045269, lon.=103.955322, Alt.=1034.516602m. Speed=0.936000m/h.</desc>
<speed>0.260000</speed>
</trkpt>
<trkpt lat="22.045267" lon="103.955307">
<ele>1034.516602</ele>
<time>2011-04-26T04:25:45Z</time>
<desc>lat.=22.045267, lon.=103.955307, Alt.=1034.516602m. Speed=0.900000m/h.</desc>
<speed>0.250000</speed>
</trkpt>
<trkpt lat="22.045267" lon="103.955292">
<ele>1034.516602</ele>
<time>2011-04-26T04:25:50Z</time>
<desc>lat.=22.045267, lon.=103.955292, Alt.=1034.516602m. Speed=1.404000m/h.</desc>
<speed>0.390000</speed>
</trkpt>
<trkpt lat="22.045263" lon="103.955276">
<ele>1034.516602</ele>
<time>2011-04-26T04:25:55Z</time>
<desc>lat.=22.045263, lon.=103.955276, Alt.=1034.516602m. Speed=1.116000m/h.</desc>
<speed>0.310000</speed>
</trkpt>
<trkpt lat="22.045261" lon="103.955261">
<ele>1034.516602</ele>
<time>2011-04-26T04:26:00Z</time>
<desc>lat.=22.045261, lon.=103.955261, Alt.=1034.516602m. Speed=0.576000m/h.</desc>
<speed>0.160000</speed>
</trkpt>
<trkpt lat="22.045261" lon="103.955254">
<ele>1034.516602</ele>
<time>2011-04-26T04:26:05Z</time>
<desc>lat.=22.045261, lon.=103.955254, Alt.=1034.516602m. Speed=0.468000m/h.</desc>
<speed>0.130000</speed>
</trkpt>
<trkpt lat="22.045261" lon="103.955254">
<ele>1034.516602</ele>
<time>2011-04-26T04:26:10Z</time>
<desc>lat.=22.045261, lon.=103.955254, Alt.=1034.516602m. Speed=0.432000m/h.</desc>
<speed>0.120000</speed>
</trkpt>
<trkpt lat="22.045259" lon="103.955254">
<ele>1034.516602</ele>
<time>2011-04-26T04:26:15Z</time>
<desc>lat.=22.045259, lon.=103.955254, Alt.=1034.516602m. Speed=0.504000m/h.</desc>
<speed>0.140000</speed>
</trkpt>
<trkpt lat="22.045259" lon="103.955254">
<ele>1034.516602</ele>
<time>2011-04-26T04:26:20Z</time>
<desc>lat.=22.045259, lon.=103.955254, Alt.=1034.516602m. Speed=0.432000m/h.</desc>
<speed>0.120000</speed>
</trkpt>
<trkpt lat="22.045261" lon="103.955269">
<ele>1034.485352</ele>
<time>2011-04-26T04:26:25Z</time>
<desc>lat.=22.045261, lon.=103.955269, Alt.=1034.485352m. Speed=0.900000m/h.</desc>
<speed>0.250000</speed>
</trkpt>
<trkpt lat="22.045261" lon="103.955284">
<ele>1034.485352</ele>
<time>2011-04-26T04:26:30Z</time>
<desc>lat.=22.045261, lon.=103.955284, Alt.=1034.485352m. Speed=1.008000m/h.</desc>
<speed>0.280000</speed>
</trkpt>
<trkpt lat="22.045263" lon="103.955299">
<ele>1034.454102</ele>
<time>2011-04-26T04:26:35Z</time>
<desc>lat.=22.045263, lon.=103.955299, Alt.=1034.454102m. Speed=0.252000m/h.</desc>
<speed>0.070000</speed>
</trkpt>
<trkpt lat="22.045263" lon="103.955307">
<ele>1034.391602</ele>
<time>2011-04-26T04:26:40Z</time>
<desc>lat.=22.045263, lon.=103.955307, Alt.=1034.391602m. Speed=0.036000m/h.</desc>
<speed>0.010000</speed>
</trkpt>
<trkpt lat="22.045263" lon="103.955307">
<ele>1034.391602</ele>
<time>2011-04-26T04:26:45Z</time>
<desc>lat.=22.045263, lon.=103.955307, Alt.=1034.391602m. Speed=0.072000m/h.</desc>
<speed>0.020000</speed>
</trkpt>
<trkpt lat="22.045263" lon="103.955307">
<ele>1034.391602</ele>
<time>2011-04-26T04:26:50Z</time>
<desc>lat.=22.045263, lon.=103.955307, Alt.=1034.391602m. Speed=0.000000m/h.</desc>
<speed>0.000000</speed>
</trkpt>
<trkpt lat="22.045263" lon="103.955307">
<ele>1034.391602</ele>
<time>2011-04-26T04:26:55Z</time>
<desc>lat.=22.045263, lon.=103.955307, Alt.=1034.391602m. Speed=0.036000m/h.</desc>
<speed>0.010000</speed>
</trkpt>
<trkpt lat="22.045263" lon="103.955307">
<ele>1034.391602</ele>
<time>2011-04-26T04:27:00Z</time>
<desc>lat.=22.045263, lon.=103.955307, Alt.=1034.391602m. Speed=0.000000m/h.</desc>
<speed>0.000000</speed>
</trkpt>
<trkpt lat="22.045263" lon="103.955307">
<ele>1034.422852</ele>
<time>2011-04-26T04:27:05Z</time>
<desc>lat.=22.045263, lon.=103.955307, Alt.=1034.422852m. Speed=0.036000m/h.</desc>
<speed>0.010000</speed>
</trkpt>
<trkpt lat="22.045263" lon="103.955307">
<ele>1034.454102</ele>
<time>2011-04-26T04:27:10Z</time>
<desc>lat.=22.045263, lon.=103.955307, Alt.=1034.454102m. Speed=0.036000m/h.</desc>
<speed>0.010000</speed>
</trkpt>
<trkpt lat="22.045263" lon="103.955315">
<ele>1034.454102</ele>
<time>2011-04-26T04:27:15Z</time>
<desc>lat.=22.045263, lon.=103.955315, Alt.=1034.454102m. Speed=0.072000m/h.</desc>
<speed>0.020000</speed>
</trkpt>
<trkpt lat="22.045263" lon="103.955307">
<ele>1034.454102</ele>
<time>2011-04-26T04:27:20Z</time>
<desc>lat.=22.045263, lon.=103.955307, Alt.=1034.454102m. Speed=0.108000m/h.</desc>
<speed>0.030000</speed>
</trkpt>
<trkpt lat="22.045265" lon="103.955307">
<ele>1034.422852</ele>
<time>2011-04-26T04:27:25Z</time>
<desc>lat.=22.045265, lon.=103.955307, Alt.=1034.422852m. Speed=0.000000m/h.</desc>
<speed>0.000000</speed>
</trkpt>
<trkpt lat="22.045265" lon="103.955315">
<ele>1034.360352</ele>
<time>2011-04-26T04:27:30Z</time>
<desc>lat.=22.045265, lon.=103.955315, Alt.=1034.360352m. Speed=0.036000m/h.</desc>
<speed>0.010000</speed>
</trkpt>
<trkpt lat="22.045265" lon="103.955315">
<ele>1034.297852</ele>
<time>2011-04-26T04:27:35Z</time>
<desc>lat.=22.045265, lon.=103.955315, Alt.=1034.297852m. Speed=0.036000m/h.</desc>
<speed>0.010000</speed>
</trkpt>
<trkpt lat="22.045265" lon="103.955315">
<ele>1034.235352</ele>
<time>2011-04-26T04:27:40Z</time>
<desc>lat.=22.045265, lon.=103.955315, Alt.=1034.235352m. Speed=0.000000m/h.</desc>
<speed>0.000000</speed>
</trkpt>
<trkpt lat="22.045265" lon="103.955315">
<ele>1034.235352</ele>
<time>2011-04-26T04:27:45Z</time>
<desc>lat.=22.045265, lon.=103.955315, Alt.=1034.235352m. Speed=0.144000m/h.</desc>
<speed>0.040000</speed>
</trkpt>
<trkpt lat="22.045267" lon="103.955315">
<ele>1034.297852</ele>
<time>2011-04-26T04:27:50Z</time>
<desc>lat.=22.045267, lon.=103.955315, Alt.=1034.297852m. Speed=0.360000m/h.</desc>
<speed>0.100000</speed>
</trkpt>
<trkpt lat="22.045269" lon="103.955315">
<ele>1034.329102</ele>
<time>2011-04-26T04:27:55Z</time>
<desc>lat.=22.045269, lon.=103.955315, Alt.=1034.329102m. Speed=0.000000m/h.</desc>
<speed>0.000000</speed>
</trkpt>
<trkpt lat="22.045267" lon="103.955307">
<ele>1034.329102</ele>
<time>2011-04-26T04:28:00Z</time>
<desc>lat.=22.045267, lon.=103.955307, Alt.=1034.329102m. Speed=0.072000m/h.</desc>
<speed>0.020000</speed>
</trkpt>
<trkpt lat="22.045265" lon="103.955307">
<ele>1034.360352</ele>
<time>2011-04-26T04:28:05Z</time>
<desc>lat.=22.045265, lon.=103.955307, Alt.=1034.360352m. Speed=0.072000m/h.</desc>
<speed>0.020000</speed>
</trkpt>
<trkpt lat="22.045265" lon="103.955315">
<ele>1034.391602</ele>
<time>2011-04-26T04:28:10Z</time>
<desc>lat.=22.045265, lon.=103.955315, Alt.=1034.391602m. Speed=0.180000m/h.</desc>
<speed>0.050000</speed>
</trkpt>
<trkpt lat="22.045258" lon="103.955315">
<ele>1034.422852</ele>
<time>2011-04-26T04:28:15Z</time>
<desc>lat.=22.045258, lon.=103.955315, Alt.=1034.422852m. Speed=2.340000m/h.</desc>
<speed>0.650000</speed>
</trkpt>
<trkpt lat="22.045103" lon="103.955345">
<ele>1034.235352</ele>
<time>2011-04-26T04:28:20Z</time>
<desc>lat.=22.045103, lon.=103.955345, Alt.=1034.235352m. Speed=12.528000m/h.</desc>
<speed>3.480000</speed>
</trkpt>
<trkpt lat="22.044970" lon="103.955406">
<ele>1034.297852</ele>
<time>2011-04-26T04:28:25Z</time>
<desc>lat.=22.044970, lon.=103.955406, Alt.=1034.297852m. Speed=0.828000m/h.</desc>
<speed>0.230000</speed>
</trkpt>
<trkpt lat="22.044968" lon="103.955414">
<ele>1034.360352</ele>
<time>2011-04-26T04:28:30Z</time>
<desc>lat.=22.044968, lon.=103.955414, Alt.=1034.360352m. Speed=0.288000m/h.</desc>
<speed>0.080000</speed>
</trkpt>
<trkpt lat="22.044958" lon="103.955429">
<ele>1034.704102</ele>
<time>2011-04-26T04:28:35Z</time>
<desc>lat.=22.044958, lon.=103.955429, Alt.=1034.704102m. Speed=5.832000m/h.</desc>
<speed>1.620000</speed>
</trkpt>
<trkpt lat="22.044863" lon="103.955574">
<ele>1034.579102</ele>
<time>2011-04-26T04:28:40Z</time>
<desc>lat.=22.044863, lon.=103.955574, Alt.=1034.579102m. Speed=16.740000m/h.</desc>
<speed>4.650000</speed>
</trkpt>
<trkpt lat="22.044775" lon="103.955917">
<ele>1033.079102</ele>
<time>2011-04-26T04:28:45Z</time>
<desc>lat.=22.044775, lon.=103.955917, Alt.=1033.079102m. Speed=23.544001m/h.</desc>
<speed>6.540000</speed>
</trkpt>
<trkpt lat="22.044773" lon="103.956253">
<ele>1032.079102</ele>
<time>2011-04-26T04:28:50Z</time>
<desc>lat.=22.044773, lon.=103.956253, Alt.=1032.079102m. Speed=23.507999m/h.</desc>
<speed>6.530000</speed>
</trkpt>
<trkpt lat="22.044729" lon="103.956619">
<ele>1030.047852</ele>
<time>2011-04-26T04:28:55Z</time>
<desc>lat.=22.044729, lon.=103.956619, Alt.=1030.047852m. Speed=21.816000m/h.</desc>
<speed>6.060000</speed>
</trkpt>
<trkpt lat="22.044657" lon="103.956902">
<ele>1029.079102</ele>
<time>2011-04-26T04:29:00Z</time>
<desc>lat.=22.044657, lon.=103.956902, Alt.=1029.079102m. Speed=21.059999m/h.</desc>
<speed>5.850000</speed>
</trkpt>
<trkpt lat="22.044790" lon="103.957207">
<ele>1026.204102</ele>
<time>2011-04-26T04:29:05Z</time>
<desc>lat.=22.044790, lon.=103.957207, Alt.=1026.204102m. Speed=26.639999m/h.</desc>
<speed>7.400000</speed>
</trkpt>
<trkpt lat="22.045107" lon="103.957489">
<ele>1022.398926</ele>
<time>2011-04-26T04:29:10Z</time>
<desc>lat.=22.045107, lon.=103.957489, Alt.=1022.398926m. Speed=30.528000m/h.</desc>
<speed>8.480000</speed>
</trkpt>
<trkpt lat="22.045395" lon="103.957779">
<ele>1020.211426</ele>
<time>2011-04-26T04:29:15Z</time>
<desc>lat.=22.045395, lon.=103.957779, Alt.=1020.211426m. Speed=30.348000m/h.</desc>
<speed>8.430000</speed>
</trkpt>
<trkpt lat="22.045704" lon="103.958008">
<ele>1019.648926</ele>
<time>2011-04-26T04:29:20Z</time>
<desc>lat.=22.045704, lon.=103.958008, Alt.=1019.648926m. Speed=28.728001m/h.</desc>
<speed>7.980000</speed>
</trkpt>
<trkpt lat="22.045984" lon="103.958221">
<ele>1018.023926</ele>
<time>2011-04-26T04:29:25Z</time>
<desc>lat.=22.045984, lon.=103.958221, Alt.=1018.023926m. Speed=27.504000m/h.</desc>
<speed>7.640000</speed>
</trkpt>
<trkpt lat="22.046144" lon="103.958527">
<ele>1016.273926</ele>
<time>2011-04-26T04:29:30Z</time>
<desc>lat.=22.046144, lon.=103.958527, Alt.=1016.273926m. Speed=27.035999m/h.</desc>
<speed>7.510000</speed>
</trkpt>
<trkpt lat="22.046143" lon="103.958862">
<ele>1016.461426</ele>
<time>2011-04-26T04:29:35Z</time>
<desc>lat.=22.046143, lon.=103.958862, Alt.=1016.461426m. Speed=22.752001m/h.</desc>
<speed>6.320000</speed>
</trkpt>
<trkpt lat="22.046148" lon="103.959129">
<ele>1017.977051</ele>
<time>2011-04-26T04:29:40Z</time>
<desc>lat.=22.046148, lon.=103.959129, Alt.=1017.977051m. Speed=17.712000m/h.</desc>
<speed>4.920000</speed>
</trkpt>
<trkpt lat="22.046257" lon="103.959351">
<ele>1018.305176</ele>
<time>2011-04-26T04:29:45Z</time>
<desc>lat.=22.046257, lon.=103.959351, Alt.=1018.305176m. Speed=20.160000m/h.</desc>
<speed>5.600000</speed>
</trkpt>
<trkpt lat="22.046495" lon="103.959496">
<ele>1017.383301</ele>
<time>2011-04-26T04:29:50Z</time>
<desc>lat.=22.046495, lon.=103.959496, Alt.=1017.383301m. Speed=23.400000m/h.</desc>
<speed>6.500000</speed>
</trkpt>
<trkpt lat="22.046764" lon="103.959679">
<ele>1015.883301</ele>
<time>2011-04-26T04:29:55Z</time>
<desc>lat.=22.046764, lon.=103.959679, Alt.=1015.883301m. Speed=26.568001m/h.</desc>
<speed>7.380000</speed>
</trkpt>
<trkpt lat="22.047054" lon="103.959908">
<ele>1014.961426</ele>
<time>2011-04-26T04:30:00Z</time>
<desc>lat.=22.047054, lon.=103.959908, Alt.=1014.961426m. Speed=30.059999m/h.</desc>
<speed>8.350000</speed>
</trkpt>
<trkpt lat="22.047361" lon="103.960190">
<ele>1014.648926</ele>
<time>2011-04-26T04:30:05Z</time>
<desc>lat.=22.047361, lon.=103.960190, Alt.=1014.648926m. Speed=33.660000m/h.</desc>
<speed>9.350000</speed>
</trkpt>
<trkpt lat="22.047707" lon="103.960419">
<ele>1013.773926</ele>
<time>2011-04-26T04:30:10Z</time>
<desc>lat.=22.047707, lon.=103.960419, Alt.=1013.773926m. Speed=33.264000m/h.</desc>
<speed>9.240000</speed>
</trkpt>
<trkpt lat="22.048136" lon="103.960365">
<ele>1012.930176</ele>
<time>2011-04-26T04:30:15Z</time>
<desc>lat.=22.048136, lon.=103.960365, Alt.=1012.930176m. Speed=36.683998m/h.</desc>
<speed>10.189999</speed>
</trkpt>
<trkpt lat="22.048611" lon="103.960251">
<ele>1011.023926</ele>
<time>2011-04-26T04:30:20Z</time>
<desc>lat.=22.048611, lon.=103.960251, Alt.=1011.023926m. Speed=36.504002m/h.</desc>
<speed>10.140000</speed>
</trkpt>
<trkpt lat="22.049059" lon="103.960075">
<ele>1007.945801</ele>
<time>2011-04-26T04:30:25Z</time>
<desc>lat.=22.049059, lon.=103.960075, Alt.=1007.945801m. Speed=32.183998m/h.</desc>
<speed>8.939999</speed>
</trkpt>
<trkpt lat="22.049414" lon="103.960098">
<ele>1006.008301</ele>
<time>2011-04-26T04:30:30Z</time>
<desc>lat.=22.049414, lon.=103.960098, Alt.=1006.008301m. Speed=23.760000m/h.</desc>
<speed>6.600000</speed>
</trkpt>
<trkpt lat="22.049782" lon="103.960243">
<ele>1004.539551</ele>
<time>2011-04-26T04:30:35Z</time>
<desc>lat.=22.049782, lon.=103.960243, Alt.=1004.539551m. Speed=37.007999m/h.</desc>
<speed>10.280000</speed>
</trkpt>
<trkpt lat="22.050203" lon="103.960388">
<ele>1003.227051</ele>
<time>2011-04-26T04:30:40Z</time>
<desc>lat.=22.050203, lon.=103.960388, Alt.=1003.227051m. Speed=33.731998m/h.</desc>
<speed>9.370000</speed>
</trkpt>
<trkpt lat="22.050673" lon="103.960396">
<ele>1001.508301</ele>
<time>2011-04-26T04:30:45Z</time>
<desc>lat.=22.050673, lon.=103.960396, Alt.=1001.508301m. Speed=32.220001m/h.</desc>
<speed>8.950000</speed>
</trkpt>
<trkpt lat="22.051001" lon="103.960167">
<ele>1000.586426</ele>
<time>2011-04-26T04:30:50Z</time>
<desc>lat.=22.051001, lon.=103.960167, Alt.=1000.586426m. Speed=28.548000m/h.</desc>
<speed>7.930000</speed>
</trkpt>
<trkpt lat="22.051359" lon="103.960052">
<ele>999.914551</ele>
<time>2011-04-26T04:30:55Z</time>
<desc>lat.=22.051359, lon.=103.960052, Alt.=999.914551m. Speed=26.892000m/h.</desc>
<speed>7.470000</speed>
</trkpt>
<trkpt lat="22.051666" lon="103.960060">
<ele>999.758301</ele>
<time>2011-04-26T04:31:00Z</time>
<desc>lat.=22.051666, lon.=103.960060, Alt.=999.758301m. Speed=21.888000m/h.</desc>
<speed>6.080000</speed>
</trkpt>
<trkpt lat="22.051914" lon="103.959953">
<ele>999.695801</ele>
<time>2011-04-26T04:31:05Z</time>
<desc>lat.=22.051914, lon.=103.959953, Alt.=999.695801m. Speed=22.247999m/h.</desc>
<speed>6.180000</speed>
</trkpt>
<trkpt lat="22.052214" lon="103.959824">
<ele>999.992676</ele>
<time>2011-04-26T04:31:10Z</time>
<desc>lat.=22.052214, lon.=103.959824, Alt.=999.992676m. Speed=29.268000m/h.</desc>
<speed>8.130000</speed>
</trkpt>
<trkpt lat="22.052546" lon="103.959717">
<ele>998.695801</ele>
<time>2011-04-26T04:31:15Z</time>
<desc>lat.=22.052546, lon.=103.959717, Alt.=998.695801m. Speed=23.615999m/h.</desc>
<speed>6.560000</speed>
</trkpt>
<trkpt lat="22.052679" lon="103.959427">
<ele>995.148926</ele>
<time>2011-04-26T04:31:20Z</time>
<desc>lat.=22.052679, lon.=103.959427, Alt.=995.148926m. Speed=27.000000m/h.</desc>
<speed>7.500000</speed>
</trkpt>
<trkpt lat="22.052959" lon="103.959145">
<ele>992.008301</ele>
<time>2011-04-26T04:31:25Z</time>
<desc>lat.=22.052959, lon.=103.959145, Alt.=992.008301m. Speed=28.656000m/h.</desc>
<speed>7.960000</speed>
</trkpt>
<trkpt lat="22.053268" lon="103.959091">
<ele>989.336426</ele>
<time>2011-04-26T04:31:30Z</time>
<desc>lat.=22.053268, lon.=103.959091, Alt.=989.336426m. Speed=25.704000m/h.</desc>
<speed>7.140000</speed>
</trkpt>
<trkpt lat="22.053553" lon="103.959084">
<ele>988.258301</ele>
<time>2011-04-26T04:31:35Z</time>
<desc>lat.=22.053553, lon.=103.959084, Alt.=988.258301m. Speed=22.464001m/h.</desc>
<speed>6.240000</speed>
</trkpt>
<trkpt lat="22.053854" lon="103.959084">
<ele>987.773926</ele>
<time>2011-04-26T04:31:40Z</time>
<desc>lat.=22.053854, lon.=103.959084, Alt.=987.773926m. Speed=24.191999m/h.</desc>
<speed>6.720000</speed>
</trkpt>
<trkpt lat="22.054144" lon="103.959091">
<ele>987.680176</ele>
<time>2011-04-26T04:31:45Z</time>
<desc>lat.=22.054144, lon.=103.959091, Alt.=987.680176m. Speed=20.340000m/h.</desc>
<speed>5.650000</speed>
</trkpt>
<trkpt lat="22.054335" lon="103.959137">
<ele>988.461426</ele>
<time>2011-04-26T04:31:50Z</time>
<desc>lat.=22.054335, lon.=103.959137, Alt.=988.461426m. Speed=19.332001m/h.</desc>
<speed>5.370000</speed>
</trkpt>
<trkpt lat="22.054428" lon="103.959297">
<ele>989.023926</ele>
<time>2011-04-26T04:31:55Z</time>
<desc>lat.=22.054428, lon.=103.959297, Alt.=989.023926m. Speed=13.896000m/h.</desc>
<speed>3.860000</speed>
</trkpt>
<trkpt lat="22.054537" lon="103.959496">
<ele>989.367676</ele>
<time>2011-04-26T04:32:00Z</time>
<desc>lat.=22.054537, lon.=103.959496, Alt.=989.367676m. Speed=22.464001m/h.</desc>
<speed>6.240000</speed>
</trkpt>
<trkpt lat="22.054680" lon="103.959778">
<ele>990.055176</ele>
<time>2011-04-26T04:32:05Z</time>
<desc>lat.=22.054680, lon.=103.959778, Alt.=990.055176m. Speed=22.968000m/h.</desc>
<speed>6.380000</speed>
</trkpt>
<trkpt lat="22.054779" lon="103.960060">
<ele>990.320801</ele>
<time>2011-04-26T04:32:10Z</time>
<desc>lat.=22.054779, lon.=103.960060, Alt.=990.320801m. Speed=22.392000m/h.</desc>
<speed>6.220000</speed>
</trkpt>
<trkpt lat="22.054731" lon="103.960358">
<ele>990.227051</ele>
<time>2011-04-26T04:32:15Z</time>
<desc>lat.=22.054731, lon.=103.960358, Alt.=990.227051m. Speed=22.680000m/h.</desc>
<speed>6.300000</speed>
</trkpt>
<trkpt lat="22.054556" lon="103.960556">
<ele>989.461426</ele>
<time>2011-04-26T04:32:20Z</time>
<desc>lat.=22.054556, lon.=103.960556, Alt.=989.461426m. Speed=21.636000m/h.</desc>
<speed>6.010000</speed>
</trkpt>
<trkpt lat="22.054365" lon="103.960747">
<ele>987.711426</ele>
<time>2011-04-26T04:32:25Z</time>
<desc>lat.=22.054365, lon.=103.960747, Alt.=987.711426m. Speed=21.167999m/h.</desc>
<speed>5.880000</speed>
</trkpt>
<trkpt lat="22.054193" lon="103.960953">
<ele>987.180176</ele>
<time>2011-04-26T04:32:30Z</time>
<desc>lat.=22.054193, lon.=103.960953, Alt.=987.180176m. Speed=19.332001m/h.</desc>
<speed>5.370000</speed>
</trkpt>
<trkpt lat="22.053993" lon="103.961113">
<ele>987.305176</ele>
<time>2011-04-26T04:32:35Z</time>
<desc>lat.=22.053993, lon.=103.961113, Alt.=987.305176m. Speed=19.836000m/h.</desc>
<speed>5.510000</speed>
</trkpt>
<trkpt lat="22.053732" lon="103.961197">
<ele>986.320801</ele>
<time>2011-04-26T04:32:40Z</time>
<desc>lat.=22.053732, lon.=103.961197, Alt.=986.320801m. Speed=21.636000m/h.</desc>
<speed>6.010000</speed>
</trkpt>
<trkpt lat="22.053446" lon="103.961349">
<ele>986.727051</ele>
<time>2011-04-26T04:32:45Z</time>
<desc>lat.=22.053446, lon.=103.961349, Alt.=986.727051m. Speed=24.695999m/h.</desc>
<speed>6.860000</speed>
</trkpt>
<trkpt lat="22.053215" lon="103.961525">
<ele>985.617676</ele>
<time>2011-04-26T04:32:50Z</time>
<desc>lat.=22.053215, lon.=103.961525, Alt.=985.617676m. Speed=19.799999m/h.</desc>
<speed>5.500000</speed>
</trkpt>
<trkpt lat="22.053137" lon="103.961861">
<ele>982.523926</ele>
<time>2011-04-26T04:32:55Z</time>
<desc>lat.=22.053137, lon.=103.961861, Alt.=982.523926m. Speed=28.007999m/h.</desc>
<speed>7.780000</speed>
</trkpt>
<trkpt lat="22.053024" lon="103.962227">
<ele>979.789551</ele>
<time>2011-04-26T04:33:00Z</time>
<desc>lat.=22.053024, lon.=103.962227, Alt.=979.789551m. Speed=30.240000m/h.</desc>
<speed>8.400000</speed>
</trkpt>
<trkpt lat="22.052782" lon="103.962471">
<ele>977.758301</ele>
<time>2011-04-26T04:33:05Z</time>
<desc>lat.=22.052782, lon.=103.962471, Alt.=977.758301m. Speed=22.931999m/h.</desc>
<speed>6.370000</speed>
</trkpt>
<trkpt lat="22.052523" lon="103.962578">
<ele>976.461426</ele>
<time>2011-04-26T04:33:10Z</time>
<desc>lat.=22.052523, lon.=103.962578, Alt.=976.461426m. Speed=20.052000m/h.</desc>
<speed>5.570000</speed>
</trkpt>
<trkpt lat="22.052246" lon="103.962601">
<ele>975.242676</ele>
<time>2011-04-26T04:33:15Z</time>
<desc>lat.=22.052246, lon.=103.962601, Alt.=975.242676m. Speed=16.164000m/h.</desc>
<speed>4.490000</speed>
</trkpt>
<trkpt lat="22.052048" lon="103.962738">
<ele>974.055176</ele>
<time>2011-04-26T04:33:20Z</time>
<desc>lat.=22.052048, lon.=103.962738, Alt.=974.055176m. Speed=14.472000m/h.</desc>
<speed>4.020000</speed>
</trkpt>
<trkpt lat="22.051960" lon="103.962875">
<ele>970.992676</ele>
<time>2011-04-26T04:33:25Z</time>
<desc>lat.=22.051960, lon.=103.962875, Alt.=970.992676m. Speed=6.408000m/h.</desc>
<speed>1.780000</speed>
</trkpt>
<trkpt lat="22.051914" lon="103.962997">
<ele>969.133301</ele>
<time>2011-04-26T04:33:30Z</time>
<desc>lat.=22.051914, lon.=103.962997, Alt.=969.133301m. Speed=13.356000m/h.</desc>
<speed>3.710000</speed>
</trkpt>
<trkpt lat="22.051870" lon="103.963295">
<ele>965.789551</ele>
<time>2011-04-26T04:33:35Z</time>
<desc>lat.=22.051870, lon.=103.963295, Alt.=965.789551m. Speed=25.236000m/h.</desc>
<speed>7.010000</speed>
</trkpt>
<trkpt lat="22.051971" lon="103.963661">
<ele>960.211426</ele>
<time>2011-04-26T04:33:40Z</time>
<desc>lat.=22.051971, lon.=103.963661, Alt.=960.211426m. Speed=30.528000m/h.</desc>
<speed>8.480000</speed>
</trkpt>
<trkpt lat="22.052034" lon="103.964012">
<ele>955.898926</ele>
<time>2011-04-26T04:33:45Z</time>
<desc>lat.=22.052034, lon.=103.964012, Alt.=955.898926m. Speed=22.068001m/h.</desc>
<speed>6.130000</speed>
</trkpt>
<trkpt lat="22.051882" lon="103.964264">
<ele>952.445801</ele>
<time>2011-04-26T04:33:50Z</time>
<desc>lat.=22.051882, lon.=103.964264, Alt.=952.445801m. Speed=21.924000m/h.</desc>
<speed>6.090000</speed>
</trkpt>
<trkpt lat="22.051657" lon="103.964394">
<ele>949.727051</ele>
<time>2011-04-26T04:33:55Z</time>
<desc>lat.=22.051657, lon.=103.964394, Alt.=949.727051m. Speed=20.016001m/h.</desc>
<speed>5.560000</speed>
</trkpt>
<trkpt lat="22.051401" lon="103.964401">
<ele>947.367676</ele>
<time>2011-04-26T04:34:00Z</time>
<desc>lat.=22.051401, lon.=103.964401, Alt.=947.367676m. Speed=20.412001m/h.</desc>
<speed>5.670000</speed>
</trkpt>
<trkpt lat="22.051205" lon="103.964218">
<ele>945.211426</ele>
<time>2011-04-26T04:34:05Z</time>
<desc>lat.=22.051205, lon.=103.964218, Alt.=945.211426m. Speed=20.412001m/h.</desc>
<speed>5.670000</speed>
</trkpt>
<trkpt lat="22.050955" lon="103.964149">
<ele>943.039551</ele>
<time>2011-04-26T04:34:10Z</time>
<desc>lat.=22.050955, lon.=103.964149, Alt.=943.039551m. Speed=20.087999m/h.</desc>
<speed>5.580000</speed>
</trkpt>
<trkpt lat="22.050684" lon="103.964142">
<ele>941.289551</ele>
<time>2011-04-26T04:34:15Z</time>
<desc>lat.=22.050684, lon.=103.964142, Alt.=941.289551m. Speed=22.356001m/h.</desc>
<speed>6.210000</speed>
</trkpt>
<trkpt lat="22.050346" lon="103.964310">
<ele>940.195801</ele>
<time>2011-04-26T04:34:20Z</time>
<desc>lat.=22.050346, lon.=103.964310, Alt.=940.195801m. Speed=32.903999m/h.</desc>
<speed>9.140000</speed>
</trkpt>
<trkpt lat="22.049992" lon="103.964500">
<ele>938.273926</ele>
<time>2011-04-26T04:34:25Z</time>
<desc>lat.=22.049992, lon.=103.964500, Alt.=938.273926m. Speed=25.379999m/h.</desc>
<speed>7.050000</speed>
</trkpt>
<trkpt lat="22.049749" lon="103.964706">
<ele>936.898926</ele>
<time>2011-04-26T04:34:30Z</time>
<desc>lat.=22.049749, lon.=103.964706, Alt.=936.898926m. Speed=22.535999m/h.</desc>
<speed>6.260000</speed>
</trkpt>
<trkpt lat="22.049658" lon="103.965034">
<ele>935.914551</ele>
<time>2011-04-26T04:34:35Z</time>
<desc>lat.=22.049658, lon.=103.965034, Alt.=935.914551m. Speed=23.903999m/h.</desc>
<speed>6.640000</speed>
</trkpt>
<trkpt lat="22.049587" lon="103.965332">
<ele>935.617676</ele>
<time>2011-04-26T04:34:40Z</time>
<desc>lat.=22.049587, lon.=103.965332, Alt.=935.617676m. Speed=22.608000m/h.</desc>
<speed>6.280000</speed>
</trkpt>
<trkpt lat="22.049387" lon="103.965515">
<ele>933.836426</ele>
<time>2011-04-26T04:34:45Z</time>
<desc>lat.=22.049387, lon.=103.965515, Alt.=933.836426m. Speed=23.148001m/h.</desc>
<speed>6.430000</speed>
</trkpt>
<trkpt lat="22.049093" lon="103.965553">
<ele>932.555176</ele>
<time>2011-04-26T04:34:50Z</time>
<desc>lat.=22.049093, lon.=103.965553, Alt.=932.555176m. Speed=21.743999m/h.</desc>
<speed>6.040000</speed>
</trkpt>
<trkpt lat="22.048828" lon="103.965530">
<ele>931.117676</ele>
<time>2011-04-26T04:34:55Z</time>
<desc>lat.=22.048828, lon.=103.965530, Alt.=931.117676m. Speed=19.620001m/h.</desc>
<speed>5.450000</speed>
</trkpt>
<trkpt lat="22.048574" lon="103.965530">
<ele>929.742676</ele>
<time>2011-04-26T04:35:00Z</time>
<desc>lat.=22.048574, lon.=103.965530, Alt.=929.742676m. Speed=19.044001m/h.</desc>
<speed>5.290000</speed>
</trkpt>
<trkpt lat="22.048309" lon="103.965599">
<ele>928.305176</ele>
<time>2011-04-26T04:35:05Z</time>
<desc>lat.=22.048309, lon.=103.965599, Alt.=928.305176m. Speed=21.132000m/h.</desc>
<speed>5.870000</speed>
</trkpt>
<trkpt lat="22.048061" lon="103.965721">
<ele>927.367676</ele>
<time>2011-04-26T04:35:10Z</time>
<desc>lat.=22.048061, lon.=103.965721, Alt.=927.367676m. Speed=19.764000m/h.</desc>
<speed>5.490000</speed>
</trkpt>
<trkpt lat="22.047895" lon="103.965889">
<ele>925.883301</ele>
<time>2011-04-26T04:35:15Z</time>
<desc>lat.=22.047895, lon.=103.965889, Alt.=925.883301m. Speed=17.604000m/h.</desc>
<speed>4.890000</speed>
</trkpt>
<trkpt lat="22.047699" lon="103.965981">
<ele>924.664551</ele>
<time>2011-04-26T04:35:20Z</time>
<desc>lat.=22.047699, lon.=103.965981, Alt.=924.664551m. Speed=17.856001m/h.</desc>
<speed>4.960000</speed>
</trkpt>
<trkpt lat="22.047495" lon="103.965881">
<ele>923.414551</ele>
<time>2011-04-26T04:35:25Z</time>
<desc>lat.=22.047495, lon.=103.965881, Alt.=923.414551m. Speed=17.459999m/h.</desc>
<speed>4.850000</speed>
</trkpt>
<trkpt lat="22.047268" lon="103.965797">
<ele>921.945801</ele>
<time>2011-04-26T04:35:30Z</time>
<desc>lat.=22.047268, lon.=103.965797, Alt.=921.945801m. Speed=16.091999m/h.</desc>
<speed>4.470000</speed>
</trkpt>
<trkpt lat="22.047064" lon="103.965904">
<ele>921.695801</ele>
<time>2011-04-26T04:35:35Z</time>
<desc>lat.=22.047064, lon.=103.965904, Alt.=921.695801m. Speed=19.403999m/h.</desc>
<speed>5.390000</speed>
</trkpt>
<trkpt lat="22.046936" lon="103.966095">
<ele>921.008301</ele>
<time>2011-04-26T04:35:40Z</time>
<desc>lat.=22.046936, lon.=103.966095, Alt.=921.008301m. Speed=19.728001m/h.</desc>
<speed>5.480000</speed>
</trkpt>
<trkpt lat="22.046797" lon="103.966225">
<ele>919.930176</ele>
<time>2011-04-26T04:35:45Z</time>
<desc>lat.=22.046797, lon.=103.966225, Alt.=919.930176m. Speed=10.548000m/h.</desc>
<speed>2.930000</speed>
</trkpt>
<trkpt lat="22.046669" lon="103.966270">
<ele>919.102051</ele>
<time>2011-04-26T04:35:50Z</time>
<desc>lat.=22.046669, lon.=103.966270, Alt.=919.102051m. Speed=13.392000m/h.</desc>
<speed>3.720000</speed>
</trkpt>
<trkpt lat="22.046440" lon="103.966377">
<ele>918.977051</ele>
<time>2011-04-26T04:35:55Z</time>
<desc>lat.=22.046440, lon.=103.966377, Alt.=918.977051m. Speed=21.492001m/h.</desc>
<speed>5.970000</speed>
</trkpt>
<trkpt lat="22.046289" lon="103.966644">
<ele>919.445801</ele>
<time>2011-04-26T04:36:00Z</time>
<desc>lat.=22.046289, lon.=103.966644, Alt.=919.445801m. Speed=20.879999m/h.</desc>
<speed>5.800000</speed>
</trkpt>
<trkpt lat="22.046150" lon="103.966881">
<ele>919.773926</ele>
<time>2011-04-26T04:36:05Z</time>
<desc>lat.=22.046150, lon.=103.966881, Alt.=919.773926m. Speed=19.044001m/h.</desc>
<speed>5.290000</speed>
</trkpt>
<trkpt lat="22.045971" lon="103.967033">
<ele>919.102051</ele>
<time>2011-04-26T04:36:10Z</time>
<desc>lat.=22.045971, lon.=103.967033, Alt.=919.102051m. Speed=18.684000m/h.</desc>
<speed>5.190000</speed>
</trkpt>
<trkpt lat="22.045837" lon="103.967247">
<ele>918.883301</ele>
<time>2011-04-26T04:36:15Z</time>
<desc>lat.=22.045837, lon.=103.967247, Alt.=918.883301m. Speed=19.620001m/h.</desc>
<speed>5.450000</speed>
</trkpt>
<trkpt lat="22.045742" lon="103.967514">
<ele>918.117676</ele>
<time>2011-04-26T04:36:20Z</time>
<desc>lat.=22.045742, lon.=103.967514, Alt.=918.117676m. Speed=20.087999m/h.</desc>
<speed>5.580000</speed>
</trkpt>
<trkpt lat="22.045620" lon="103.967789">
<ele>916.508301</ele>
<time>2011-04-26T04:36:25Z</time>
<desc>lat.=22.045620, lon.=103.967789, Alt.=916.508301m. Speed=21.455999m/h.</desc>
<speed>5.960000</speed>
</trkpt>
<trkpt lat="22.045565" lon="103.968086">
<ele>913.914551</ele>
<time>2011-04-26T04:36:30Z</time>
<desc>lat.=22.045565, lon.=103.968086, Alt.=913.914551m. Speed=21.204000m/h.</desc>
<speed>5.890000</speed>
</trkpt>
<trkpt lat="22.045643" lon="103.968315">
<ele>912.492676</ele>
<time>2011-04-26T04:36:35Z</time>
<desc>lat.=22.045643, lon.=103.968315, Alt.=912.492676m. Speed=9.576000m/h.</desc>
<speed>2.660000</speed>
</trkpt>
<trkpt lat="22.045671" lon="103.968361">
<ele>910.477051</ele>
<time>2011-04-26T04:36:40Z</time>
<desc>lat.=22.045671, lon.=103.968361, Alt.=910.477051m. Speed=0.144000m/h.</desc>
<speed>0.040000</speed>
</trkpt>
<trkpt lat="22.045670" lon="103.968361">
<ele>910.398926</ele>
<time>2011-04-26T04:36:45Z</time>
<desc>lat.=22.045670, lon.=103.968361, Alt.=910.398926m. Speed=0.180000m/h.</desc>
<speed>0.050000</speed>
</trkpt>
<trkpt lat="22.045670" lon="103.968361">
<ele>910.398926</ele>
<time>2011-04-26T04:36:50Z</time>
<desc>lat.=22.045670, lon.=103.968361, Alt.=910.398926m. Speed=0.180000m/h.</desc>
<speed>0.050000</speed>
</trkpt>
<trkpt lat="22.045670" lon="103.968369">
<ele>910.383301</ele>
<time>2011-04-26T04:36:55Z</time>
<desc>lat.=22.045670, lon.=103.968369, Alt.=910.383301m. Speed=0.288000m/h.</desc>
<speed>0.080000</speed>
</trkpt>
<trkpt lat="22.045671" lon="103.968369">
<ele>910.383301</ele>
<time>2011-04-26T04:37:00Z</time>
<desc>lat.=22.045671, lon.=103.968369, Alt.=910.383301m. Speed=0.036000m/h.</desc>
<speed>0.010000</speed>
</trkpt>
<trkpt lat="22.045671" lon="103.968369">
<ele>910.398926</ele>
<time>2011-04-26T04:37:05Z</time>
<desc>lat.=22.045671, lon.=103.968369, Alt.=910.398926m. Speed=0.072000m/h.</desc>
<speed>0.020000</speed>
</trkpt>
<trkpt lat="22.045692" lon="103.968369">
<ele>910.289551</ele>
<time>2011-04-26T04:37:10Z</time>
<desc>lat.=22.045692, lon.=103.968369, Alt.=910.289551m. Speed=7.776000m/h.</desc>
<speed>2.160000</speed>
</trkpt>
<trkpt lat="22.045837" lon="103.968445">
<ele>909.883301</ele>
<time>2011-04-26T04:37:15Z</time>
<desc>lat.=22.045837, lon.=103.968445, Alt.=909.883301m. Speed=17.496000m/h.</desc>
<speed>4.860000</speed>
</trkpt>
<trkpt lat="22.046032" lon="103.968628">
<ele>909.086426</ele>
<time>2011-04-26T04:37:20Z</time>
<desc>lat.=22.046032, lon.=103.968628, Alt.=909.086426m. Speed=21.996000m/h.</desc>
<speed>6.110000</speed>
</trkpt>
<trkpt lat="22.046059" lon="103.968941">
<ele>909.070801</ele>
<time>2011-04-26T04:37:25Z</time>
<desc>lat.=22.046059, lon.=103.968941, Alt.=909.070801m. Speed=24.552000m/h.</desc>
<speed>6.820000</speed>
</trkpt>
<trkpt lat="22.046001" lon="103.969292">
<ele>908.648926</ele>
<time>2011-04-26T04:37:30Z</time>
<desc>lat.=22.046001, lon.=103.969292, Alt.=908.648926m. Speed=29.412001m/h.</desc>
<speed>8.170000</speed>
</trkpt>
<trkpt lat="22.045803" lon="103.969612">
<ele>908.633301</ele>
<time>2011-04-26T04:37:35Z</time>
<desc>lat.=22.045803, lon.=103.969612, Alt.=908.633301m. Speed=23.652000m/h.</desc>
<speed>6.570000</speed>
</trkpt>
<trkpt lat="22.045782" lon="103.969971">
<ele>907.570801</ele>
<time>2011-04-26T04:37:40Z</time>
<desc>lat.=22.045782, lon.=103.969971, Alt.=907.570801m. Speed=29.124001m/h.</desc>
<speed>8.090000</speed>
</trkpt>
<trkpt lat="22.046127" lon="103.970222">
<ele>905.398926</ele>
<time>2011-04-26T04:37:45Z</time>
<desc>lat.=22.046127, lon.=103.970222, Alt.=905.398926m. Speed=32.868000m/h.</desc>
<speed>9.130000</speed>
</trkpt>
<trkpt lat="22.046482" lon="103.970413">
<ele>903.445801</ele>
<time>2011-04-26T04:37:50Z</time>
<desc>lat.=22.046482, lon.=103.970413, Alt.=903.445801m. Speed=27.684000m/h.</desc>
<speed>7.690000</speed>
</trkpt>
<trkpt lat="22.046543" lon="103.970703">
<ele>900.805176</ele>
<time>2011-04-26T04:37:55Z</time>
<desc>lat.=22.046543, lon.=103.970703, Alt.=900.805176m. Speed=21.492001m/h.</desc>
<speed>5.970000</speed>
</trkpt>
<trkpt lat="22.046410" lon="103.971008">
<ele>899.133301</ele>
<time>2011-04-26T04:38:00Z</time>
<desc>lat.=22.046410, lon.=103.971008, Alt.=899.133301m. Speed=23.219999m/h.</desc>
<speed>6.450000</speed>
</trkpt>
<trkpt lat="22.046206" lon="103.971291">
<ele>898.148926</ele>
<time>2011-04-26T04:38:05Z</time>
<desc>lat.=22.046206, lon.=103.971291, Alt.=898.148926m. Speed=26.712000m/h.</desc>
<speed>7.420000</speed>
</trkpt>
<trkpt lat="22.045900" lon="103.971527">
<ele>897.242676</ele>
<time>2011-04-26T04:38:10Z</time>
<desc>lat.=22.045900, lon.=103.971527, Alt.=897.242676m. Speed=32.327999m/h.</desc>
<speed>8.980000</speed>
</trkpt>
<trkpt lat="22.045507" lon="103.971786">
<ele>896.227051</ele>
<time>2011-04-26T04:38:15Z</time>
<desc>lat.=22.045507, lon.=103.971786, Alt.=896.227051m. Speed=34.271999m/h.</desc>
<speed>9.520000</speed>
</trkpt>
<trkpt lat="22.045248" lon="103.971985">
<ele>894.727051</ele>
<time>2011-04-26T04:38:20Z</time>
<desc>lat.=22.045248, lon.=103.971985, Alt.=894.727051m. Speed=20.844000m/h.</desc>
<speed>5.790000</speed>
</trkpt>
<trkpt lat="22.044992" lon="103.971992">
<ele>893.320801</ele>
<time>2011-04-26T04:38:25Z</time>
<desc>lat.=22.044992, lon.=103.971992, Alt.=893.320801m. Speed=19.836000m/h.</desc>
<speed>5.510000</speed>
</trkpt>
<trkpt lat="22.044868" lon="103.971764">
<ele>890.820801</ele>
<time>2011-04-26T04:38:30Z</time>
<desc>lat.=22.044868, lon.=103.971764, Alt.=890.820801m. Speed=26.639999m/h.</desc>
<speed>7.400000</speed>
</trkpt>
<trkpt lat="22.044964" lon="103.971397">
<ele>889.148926</ele>
<time>2011-04-26T04:38:35Z</time>
<desc>lat.=22.044964, lon.=103.971397, Alt.=889.148926m. Speed=27.612000m/h.</desc>
<speed>7.670000</speed>
</trkpt>
<trkpt lat="22.045235" lon="103.971146">
<ele>885.398926</ele>
<time>2011-04-26T04:38:40Z</time>
<desc>lat.=22.045235, lon.=103.971146, Alt.=885.398926m. Speed=29.952000m/h.</desc>
<speed>8.320000</speed>
</trkpt>
<trkpt lat="22.045576" lon="103.970932">
<ele>884.258301</ele>
<time>2011-04-26T04:38:45Z</time>
<desc>lat.=22.045576, lon.=103.970932, Alt.=884.258301m. Speed=32.400002m/h.</desc>
<speed>9.000000</speed>
</trkpt>
<trkpt lat="22.045763" lon="103.970634">
<ele>878.133301</ele>
<time>2011-04-26T04:38:50Z</time>
<desc>lat.=22.045763, lon.=103.970634, Alt.=878.133301m. Speed=29.700001m/h.</desc>
<speed>8.250000</speed>
</trkpt>
<trkpt lat="22.045557" lon="103.970360">
<ele>873.492676</ele>
<time>2011-04-26T04:38:55Z</time>
<desc>lat.=22.045557, lon.=103.970360, Alt.=873.492676m. Speed=13.644000m/h.</desc>
<speed>3.790000</speed>
</trkpt>
<trkpt lat="22.045456" lon="103.970284">
<ele>871.164551</ele>
<time>2011-04-26T04:39:00Z</time>
<desc>lat.=22.045456, lon.=103.970284, Alt.=871.164551m. Speed=9.108000m/h.</desc>
<speed>2.530000</speed>
</trkpt>
<trkpt lat="22.045382" lon="103.970238">
<ele>868.961426</ele>
<time>2011-04-26T04:39:05Z</time>
<desc>lat.=22.045382, lon.=103.970238, Alt.=868.961426m. Speed=6.840000m/h.</desc>
<speed>1.900000</speed>
</trkpt>
<trkpt lat="22.045298" lon="103.970161">
<ele>866.023926</ele>
<time>2011-04-26T04:39:10Z</time>
<desc>lat.=22.045298, lon.=103.970161, Alt.=866.023926m. Speed=7.884000m/h.</desc>
<speed>2.190000</speed>
</trkpt>
<trkpt lat="22.045189" lon="103.970032">
<ele>863.492676</ele>
<time>2011-04-26T04:39:15Z</time>
<desc>lat.=22.045189, lon.=103.970032, Alt.=863.492676m. Speed=13.536000m/h.</desc>
<speed>3.760000</speed>
</trkpt>
<trkpt lat="22.045103" lon="103.969864">
<ele>860.070801</ele>
<time>2011-04-26T04:39:20Z</time>
<desc>lat.=22.045103, lon.=103.969864, Alt.=860.070801m. Speed=16.308001m/h.</desc>
<speed>4.530000</speed>
</trkpt>
<trkpt lat="22.045094" lon="103.969696">
<ele>857.492676</ele>
<time>2011-04-26T04:39:25Z</time>
<desc>lat.=22.045094, lon.=103.969696, Alt.=857.492676m. Speed=8.244000m/h.</desc>
<speed>2.290000</speed>
</trkpt>
<trkpt lat="22.045111" lon="103.969612">
<ele>855.898926</ele>
<time>2011-04-26T04:39:30Z</time>
<desc>lat.=22.045111, lon.=103.969612, Alt.=855.898926m. Speed=6.012000m/h.</desc>
<speed>1.670000</speed>
</trkpt>
<trkpt lat="22.045145" lon="103.969429">
<ele>855.117676</ele>
<time>2011-04-26T04:39:35Z</time>
<desc>lat.=22.045145, lon.=103.969429, Alt.=855.117676m. Speed=14.004000m/h.</desc>
<speed>3.890000</speed>
</trkpt>
<trkpt lat="22.045202" lon="103.969200">
<ele>854.023926</ele>
<time>2011-04-26T04:39:40Z</time>
<desc>lat.=22.045202, lon.=103.969200, Alt.=854.023926m. Speed=17.316000m/h.</desc>
<speed>4.810000</speed>
</trkpt>
<trkpt lat="22.045118" lon="103.968948">
<ele>853.273926</ele>
<time>2011-04-26T04:39:45Z</time>
<desc>lat.=22.045118, lon.=103.968948, Alt.=853.273926m. Speed=19.980000m/h.</desc>
<speed>5.550000</speed>
</trkpt>
<trkpt lat="22.044935" lon="103.968704">
<ele>852.023926</ele>
<time>2011-04-26T04:39:50Z</time>
<desc>lat.=22.044935, lon.=103.968704, Alt.=852.023926m. Speed=21.528000m/h.</desc>
<speed>5.980000</speed>
</trkpt>
<trkpt lat="22.044809" lon="103.968391">
<ele>850.289551</ele>
<time>2011-04-26T04:39:55Z</time>
<desc>lat.=22.044809, lon.=103.968391, Alt.=850.289551m. Speed=19.872000m/h.</desc>
<speed>5.520000</speed>
</trkpt>
<trkpt lat="22.044834" lon="103.968048">
<ele>849.008301</ele>
<time>2011-04-26T04:40:00Z</time>
<desc>lat.=22.044834, lon.=103.968048, Alt.=849.008301m. Speed=20.879999m/h.</desc>
<speed>5.800000</speed>
</trkpt>
<trkpt lat="22.044945" lon="103.967796">
<ele>848.461426</ele>
<time>2011-04-26T04:40:05Z</time>
<desc>lat.=22.044945, lon.=103.967796, Alt.=848.461426m. Speed=18.360001m/h.</desc>
<speed>5.100000</speed>
</trkpt>
<trkpt lat="22.045078" lon="103.967560">
<ele>847.086426</ele>
<time>2011-04-26T04:40:10Z</time>
<desc>lat.=22.045078, lon.=103.967560, Alt.=847.086426m. Speed=21.420000m/h.</desc>
<speed>5.950000</speed>
</trkpt>
<trkpt lat="22.045141" lon="103.967316">
<ele>845.867676</ele>
<time>2011-04-26T04:40:15Z</time>
<desc>lat.=22.045141, lon.=103.967316, Alt.=845.867676m. Speed=9.936000m/h.</desc>
<speed>2.760000</speed>
</trkpt>
<trkpt lat="22.045145" lon="103.967079">
<ele>844.930176</ele>
<time>2011-04-26T04:40:20Z</time>
<desc>lat.=22.045145, lon.=103.967079, Alt.=844.930176m. Speed=15.192000m/h.</desc>
<speed>4.220000</speed>
</trkpt>
<trkpt lat="22.045158" lon="103.966805">
<ele>842.680176</ele>
<time>2011-04-26T04:40:25Z</time>
<desc>lat.=22.045158, lon.=103.966805, Alt.=842.680176m. Speed=23.327999m/h.</desc>
<speed>6.480000</speed>
</trkpt>
<trkpt lat="22.045282" lon="103.966461">
<ele>839.680176</ele>
<time>2011-04-26T04:40:30Z</time>
<desc>lat.=22.045282, lon.=103.966461, Alt.=839.680176m. Speed=26.892000m/h.</desc>
<speed>7.470000</speed>
</trkpt>
<trkpt lat="22.045610" lon="103.966141">
<ele>836.258301</ele>
<time>2011-04-26T04:40:35Z</time>
<desc>lat.=22.045610, lon.=103.966141, Alt.=836.258301m. Speed=36.467999m/h.</desc>
<speed>10.130000</speed>
</trkpt>
<trkpt lat="22.045933" lon="103.965767">
<ele>833.086426</ele>
<time>2011-04-26T04:40:40Z</time>
<desc>lat.=22.045933, lon.=103.965767, Alt.=833.086426m. Speed=37.259998m/h.</desc>
<speed>10.350000</speed>
</trkpt>
<trkpt lat="22.046051" lon="103.965393">
<ele>828.898926</ele>
<time>2011-04-26T04:40:45Z</time>
<desc>lat.=22.046051, lon.=103.965393, Alt.=828.898926m. Speed=21.851999m/h.</desc>
<speed>6.070000</speed>
</trkpt>
<trkpt lat="22.046133" lon="103.965088">
<ele>825.273926</ele>
<time>2011-04-26T04:40:50Z</time>
<desc>lat.=22.046133, lon.=103.965088, Alt.=825.273926m. Speed=20.124001m/h.</desc>
<speed>5.590000</speed>
</trkpt>
<trkpt lat="22.046370" lon="103.964844">
<ele>822.523926</ele>
<time>2011-04-26T04:40:55Z</time>
<desc>lat.=22.046370, lon.=103.964844, Alt.=822.523926m. Speed=25.632000m/h.</desc>
<speed>7.120000</speed>
</trkpt>
<trkpt lat="22.046635" lon="103.964600">
<ele>820.180176</ele>
<time>2011-04-26T04:41:00Z</time>
<desc>lat.=22.046635, lon.=103.964600, Alt.=820.180176m. Speed=23.688000m/h.</desc>
<speed>6.580000</speed>
</trkpt>
<trkpt lat="22.046743" lon="103.964317">
<ele>818.211426</ele>
<time>2011-04-26T04:41:05Z</time>
<desc>lat.=22.046743, lon.=103.964317, Alt.=818.211426m. Speed=21.563999m/h.</desc>
<speed>5.990000</speed>
</trkpt>
<trkpt lat="22.046663" lon="103.964066">
<ele>816.523926</ele>
<time>2011-04-26T04:41:10Z</time>
<desc>lat.=22.046663, lon.=103.964066, Alt.=816.523926m. Speed=17.639999m/h.</desc>
<speed>4.900000</speed>
</trkpt>
<trkpt lat="22.046503" lon="103.963905">
<ele>814.695801</ele>
<time>2011-04-26T04:41:15Z</time>
<desc>lat.=22.046503, lon.=103.963905, Alt.=814.695801m. Speed=14.688000m/h.</desc>
<speed>4.080000</speed>
</trkpt>
<trkpt lat="22.046379" lon="103.963791">
<ele>811.930176</ele>
<time>2011-04-26T04:41:20Z</time>
<desc>lat.=22.046379, lon.=103.963791, Alt.=811.930176m. Speed=8.964000m/h.</desc>
<speed>2.490000</speed>
</trkpt>
<trkpt lat="22.046253" lon="103.963715">
<ele>808.742676</ele>
<time>2011-04-26T04:41:25Z</time>
<desc>lat.=22.046253, lon.=103.963715, Alt.=808.742676m. Speed=11.088000m/h.</desc>
<speed>3.080000</speed>
</trkpt>
<trkpt lat="22.046112" lon="103.963715">
<ele>806.398926</ele>
<time>2011-04-26T04:41:30Z</time>
<desc>lat.=22.046112, lon.=103.963715, Alt.=806.398926m. Speed=9.828000m/h.</desc>
<speed>2.730000</speed>
</trkpt>
<trkpt lat="22.045984" lon="103.963806">
<ele>804.242676</ele>
<time>2011-04-26T04:41:35Z</time>
<desc>lat.=22.045984, lon.=103.963806, Alt.=804.242676m. Speed=8.604000m/h.</desc>
<speed>2.390000</speed>
</trkpt>
<trkpt lat="22.045853" lon="103.963875">
<ele>803.555176</ele>
<time>2011-04-26T04:41:40Z</time>
<desc>lat.=22.045853, lon.=103.963875, Alt.=803.555176m. Speed=6.336000m/h.</desc>
<speed>1.760000</speed>
</trkpt>
<trkpt lat="22.045832" lon="103.963890">
<ele>803.352051</ele>
<time>2011-04-26T04:41:45Z</time>
<desc>lat.=22.045832, lon.=103.963890, Alt.=803.352051m. Speed=0.432000m/h.</desc>
<speed>0.120000</speed>
</trkpt>
<trkpt lat="22.045832" lon="103.963882">
<ele>802.586426</ele>
<time>2011-04-26T04:41:50Z</time>
<desc>lat.=22.045832, lon.=103.963882, Alt.=802.586426m. Speed=0.108000m/h.</desc>
<speed>0.030000</speed>
</trkpt>
<trkpt lat="22.045834" lon="103.963882">
<ele>802.305176</ele>
<time>2011-04-26T04:41:55Z</time>
<desc>lat.=22.045834, lon.=103.963882, Alt.=802.305176m. Speed=0.324000m/h.</desc>
<speed>0.090000</speed>
</trkpt>
<trkpt lat="22.045832" lon="103.963882">
<ele>802.211426</ele>
<time>2011-04-26T04:42:00Z</time>
<desc>lat.=22.045832, lon.=103.963882, Alt.=802.211426m. Speed=0.720000m/h.</desc>
<speed>0.200000</speed>
</trkpt>
<trkpt lat="22.045832" lon="103.963890">
<ele>802.211426</ele>
<time>2011-04-26T04:42:05Z</time>
<desc>lat.=22.045832, lon.=103.963890, Alt.=802.211426m. Speed=0.108000m/h.</desc>
<speed>0.030000</speed>
</trkpt>
<trkpt lat="22.045834" lon="103.963890">
<ele>802.242676</ele>
<time>2011-04-26T04:42:10Z</time>
<desc>lat.=22.045834, lon.=103.963890, Alt.=802.242676m. Speed=0.324000m/h.</desc>
<speed>0.090000</speed>
</trkpt>
<trkpt lat="22.045834" lon="103.963890">
<ele>802.273926</ele>
<time>2011-04-26T04:42:15Z</time>
<desc>lat.=22.045834, lon.=103.963890, Alt.=802.273926m. Speed=0.108000m/h.</desc>
<speed>0.030000</speed>
</trkpt>
<trkpt lat="22.045834" lon="103.963890">
<ele>802.305176</ele>
<time>2011-04-26T04:42:20Z</time>
<desc>lat.=22.045834, lon.=103.963890, Alt.=802.305176m. Speed=0.108000m/h.</desc>
<speed>0.030000</speed>
</trkpt>
<trkpt lat="22.045834" lon="103.963890">
<ele>802.320801</ele>
<time>2011-04-26T04:42:25Z</time>
<desc>lat.=22.045834, lon.=103.963890, Alt.=802.320801m. Speed=0.000000m/h.</desc>
<speed>0.000000</speed>
</trkpt>
<trkpt lat="22.045834" lon="103.963890">
<ele>802.367676</ele>
<time>2011-04-26T04:42:30Z</time>
<desc>lat.=22.045834, lon.=103.963890, Alt.=802.367676m. Speed=0.468000m/h.</desc>
<speed>0.130000</speed>
</trkpt>
<trkpt lat="22.045835" lon="103.963890">
<ele>802.414551</ele>
<time>2011-04-26T04:42:35Z</time>
<desc>lat.=22.045835, lon.=103.963890, Alt.=802.414551m. Speed=0.252000m/h.</desc>
<speed>0.070000</speed>
</trkpt>
<trkpt lat="22.045839" lon="103.963890">
<ele>802.414551</ele>
<time>2011-04-26T04:42:40Z</time>
<desc>lat.=22.045839, lon.=103.963890, Alt.=802.414551m. Speed=0.432000m/h.</desc>
<speed>0.120000</speed>
</trkpt>
<trkpt lat="22.045843" lon="103.963890">
<ele>802.398926</ele>
<time>2011-04-26T04:42:45Z</time>
<desc>lat.=22.045843, lon.=103.963890, Alt.=802.398926m. Speed=0.144000m/h.</desc>
<speed>0.040000</speed>
</trkpt>
<trkpt lat="22.045841" lon="103.963890">
<ele>802.414551</ele>
<time>2011-04-26T04:42:50Z</time>
<desc>lat.=22.045841, lon.=103.963890, Alt.=802.414551m. Speed=0.324000m/h.</desc>
<speed>0.090000</speed>
</trkpt>
<trkpt lat="22.045839" lon="103.963890">
<ele>802.445801</ele>
<time>2011-04-26T04:42:55Z</time>
<desc>lat.=22.045839, lon.=103.963890, Alt.=802.445801m. Speed=0.252000m/h.</desc>
<speed>0.070000</speed>
</trkpt>
<trkpt lat="22.045837" lon="103.963898">
<ele>802.461426</ele>
<time>2011-04-26T04:43:00Z</time>
<desc>lat.=22.045837, lon.=103.963898, Alt.=802.461426m. Speed=0.396000m/h.</desc>
<speed>0.110000</speed>
</trkpt>
<trkpt lat="22.045837" lon="103.963898">
<ele>802.461426</ele>
<time>2011-04-26T04:43:05Z</time>
<desc>lat.=22.045837, lon.=103.963898, Alt.=802.461426m. Speed=0.360000m/h.</desc>
<speed>0.100000</speed>
</trkpt>
<trkpt lat="22.045837" lon="103.963898">
<ele>802.492676</ele>
<time>2011-04-26T04:43:10Z</time>
<desc>lat.=22.045837, lon.=103.963898, Alt.=802.492676m. Speed=0.144000m/h.</desc>
<speed>0.040000</speed>
</trkpt>
<trkpt lat="22.045839" lon="103.963905">
<ele>802.508301</ele>
<time>2011-04-26T04:43:15Z</time>
<desc>lat.=22.045839, lon.=103.963905, Alt.=802.508301m. Speed=0.216000m/h.</desc>
<speed>0.060000</speed>
</trkpt>
<trkpt lat="22.045837" lon="103.963898">
<ele>802.539551</ele>
<time>2011-04-26T04:43:20Z</time>
<desc>lat.=22.045837, lon.=103.963898, Alt.=802.539551m. Speed=0.108000m/h.</desc>
<speed>0.030000</speed>
</trkpt>
<trkpt lat="22.045839" lon="103.963905">
<ele>802.602051</ele>
<time>2011-04-26T04:43:25Z</time>
<desc>lat.=22.045839, lon.=103.963905, Alt.=802.602051m. Speed=0.252000m/h.</desc>
<speed>0.070000</speed>
</trkpt>
<trkpt lat="22.045837" lon="103.963905">
<ele>802.633301</ele>
<time>2011-04-26T04:43:30Z</time>
<desc>lat.=22.045837, lon.=103.963905, Alt.=802.633301m. Speed=0.000000m/h.</desc>
<speed>0.000000</speed>
</trkpt>
<trkpt lat="22.045837" lon="103.963905">
<ele>802.680176</ele>
<time>2011-04-26T04:43:35Z</time>
<desc>lat.=22.045837, lon.=103.963905, Alt.=802.680176m. Speed=0.396000m/h.</desc>
<speed>0.110000</speed>
</trkpt>
<trkpt lat="22.045839" lon="103.963905">
<ele>802.727051</ele>
<time>2011-04-26T04:43:40Z</time>
<desc>lat.=22.045839, lon.=103.963905, Alt.=802.727051m. Speed=0.324000m/h.</desc>
<speed>0.090000</speed>
</trkpt>
<trkpt lat="22.045837" lon="103.963913">
<ele>802.773926</ele>
<time>2011-04-26T04:43:45Z</time>
<desc>lat.=22.045837, lon.=103.963913, Alt.=802.773926m. Speed=0.324000m/h.</desc>
<speed>0.090000</speed>
</trkpt>
<trkpt lat="22.045835" lon="103.963905">
<ele>802.820801</ele>
<time>2011-04-26T04:43:50Z</time>
<desc>lat.=22.045835, lon.=103.963905, Alt.=802.820801m. Speed=1.368000m/h.</desc>
<speed>0.380000</speed>
</trkpt>
<trkpt lat="22.045816" lon="103.963913">
<ele>802.852051</ele>
<time>2011-04-26T04:43:55Z</time>
<desc>lat.=22.045816, lon.=103.963913, Alt.=802.852051m. Speed=0.720000m/h.</desc>
<speed>0.200000</speed>
</trkpt>
<trkpt lat="22.045809" lon="103.963913">
<ele>802.898926</ele>
<time>2011-04-26T04:44:00Z</time>
<desc>lat.=22.045809, lon.=103.963913, Alt.=802.898926m. Speed=0.972000m/h.</desc>
<speed>0.270000</speed>
</trkpt>
<trkpt lat="22.045799" lon="103.963905">
<ele>802.945801</ele>
<time>2011-04-26T04:44:05Z</time>
<desc>lat.=22.045799, lon.=103.963905, Alt.=802.945801m. Speed=0.648000m/h.</desc>
<speed>0.180000</speed>
</trkpt>
<trkpt lat="22.045792" lon="103.963898">
<ele>803.008301</ele>
<time>2011-04-26T04:44:10Z</time>
<desc>lat.=22.045792, lon.=103.963898, Alt.=803.008301m. Speed=0.648000m/h.</desc>
<speed>0.180000</speed>
</trkpt>
<trkpt lat="22.045788" lon="103.963898">
<ele>803.008301</ele>
<time>2011-04-26T04:44:15Z</time>
<desc>lat.=22.045788, lon.=103.963898, Alt.=803.008301m. Speed=0.108000m/h.</desc>
<speed>0.030000</speed>
</trkpt>
<trkpt lat="22.045786" lon="103.963890">
<ele>803.008301</ele>
<time>2011-04-26T04:44:20Z</time>
<desc>lat.=22.045786, lon.=103.963890, Alt.=803.008301m. Speed=0.504000m/h.</desc>
<speed>0.140000</speed>
</trkpt>
<trkpt lat="22.045782" lon="103.963890">
<ele>802.992676</ele>
<time>2011-04-26T04:44:25Z</time>
<desc>lat.=22.045782, lon.=103.963890, Alt.=802.992676m. Speed=0.468000m/h.</desc>
<speed>0.130000</speed>
</trkpt>
<trkpt lat="22.045778" lon="103.963890">
<ele>803.008301</ele>
<time>2011-04-26T04:44:30Z</time>
<desc>lat.=22.045778, lon.=103.963890, Alt.=803.008301m. Speed=0.108000m/h.</desc>
<speed>0.030000</speed>
</trkpt>
<trkpt lat="22.045784" lon="103.963890">
<ele>803.055176</ele>
<time>2011-04-26T04:44:35Z</time>
<desc>lat.=22.045784, lon.=103.963890, Alt.=803.055176m. Speed=1.080000m/h.</desc>
<speed>0.300000</speed>
</trkpt>
<trkpt lat="22.045784" lon="103.963898">
<ele>803.164551</ele>
<time>2011-04-26T04:44:40Z</time>
<desc>lat.=22.045784, lon.=103.963898, Alt.=803.164551m. Speed=0.000000m/h.</desc>
<speed>0.000000</speed>
</trkpt>
<trkpt lat="22.045784" lon="103.963898">
<ele>803.320801</ele>
<time>2011-04-26T04:44:45Z</time>
<desc>lat.=22.045784, lon.=103.963898, Alt.=803.320801m. Speed=0.000000m/h.</desc>
<speed>0.000000</speed>
</trkpt>
<trkpt lat="22.045786" lon="103.963898">
<ele>803.508301</ele>
<time>2011-04-26T04:44:50Z</time>
<desc>lat.=22.045786, lon.=103.963898, Alt.=803.508301m. Speed=0.036000m/h.</desc>
<speed>0.010000</speed>
</trkpt>
<trkpt lat="22.045784" lon="103.963898">
<ele>803.508301</ele>
<time>2011-04-26T04:44:55Z</time>
<desc>lat.=22.045784, lon.=103.963898, Alt.=803.508301m. Speed=0.324000m/h.</desc>
<speed>0.090000</speed>
</trkpt>
<trkpt lat="22.045778" lon="103.963905">
<ele>803.555176</ele>
<time>2011-04-26T04:45:00Z</time>
<desc>lat.=22.045778, lon.=103.963905, Alt.=803.555176m. Speed=0.936000m/h.</desc>
<speed>0.260000</speed>
</trkpt>
<trkpt lat="22.045767" lon="103.963913">
<ele>803.602051</ele>
<time>2011-04-26T04:45:05Z</time>
<desc>lat.=22.045767, lon.=103.963913, Alt.=803.602051m. Speed=1.980000m/h.</desc>
<speed>0.550000</speed>
</trkpt>
<trkpt lat="22.045681" lon="103.963974">
<ele>803.586426</ele>
<time>2011-04-26T04:45:10Z</time>
<desc>lat.=22.045681, lon.=103.963974, Alt.=803.586426m. Speed=7.020000m/h.</desc>
<speed>1.950000</speed>
</trkpt>
<trkpt lat="22.045568" lon="103.964073">
<ele>802.867676</ele>
<time>2011-04-26T04:45:15Z</time>
<desc>lat.=22.045568, lon.=103.964073, Alt.=802.867676m. Speed=5.580000m/h.</desc>
<speed>1.550000</speed>
</trkpt>
<trkpt lat="22.045456" lon="103.964119">
<ele>801.711426</ele>
<time>2011-04-26T04:45:20Z</time>
<desc>lat.=22.045456, lon.=103.964119, Alt.=801.711426m. Speed=7.848000m/h.</desc>
<speed>2.180000</speed>
</trkpt>
<trkpt lat="22.045351" lon="103.964149">
<ele>802.430176</ele>
<time>2011-04-26T04:45:25Z</time>
<desc>lat.=22.045351, lon.=103.964149, Alt.=802.430176m. Speed=9.396000m/h.</desc>
<speed>2.610000</speed>
</trkpt>
<trkpt lat="22.045237" lon="103.964226">
<ele>803.320801</ele>
<time>2011-04-26T04:45:30Z</time>
<desc>lat.=22.045237, lon.=103.964226, Alt.=803.320801m. Speed=9.720000m/h.</desc>
<speed>2.700000</speed>
</trkpt>
<trkpt lat="22.045094" lon="103.964256">
<ele>802.836426</ele>
<time>2011-04-26T04:45:35Z</time>
<desc>lat.=22.045094, lon.=103.964256, Alt.=802.836426m. Speed=11.916000m/h.</desc>
<speed>3.310000</speed>
</trkpt>
<trkpt lat="22.044947" lon="103.964302">
<ele>803.758301</ele>
<time>2011-04-26T04:45:40Z</time>
<desc>lat.=22.044947, lon.=103.964302, Alt.=803.758301m. Speed=7.920000m/h.</desc>
<speed>2.200000</speed>
</trkpt>
<trkpt lat="22.044817" lon="103.964348">
<ele>804.352051</ele>
<time>2011-04-26T04:45:45Z</time>
<desc>lat.=22.044817, lon.=103.964348, Alt.=804.352051m. Speed=8.928000m/h.</desc>
<speed>2.480000</speed>
</trkpt>
<trkpt lat="22.044683" lon="103.964378">
<ele>804.180176</ele>
<time>2011-04-26T04:45:50Z</time>
<desc>lat.=22.044683, lon.=103.964378, Alt.=804.180176m. Speed=9.648000m/h.</desc>
<speed>2.680000</speed>
</trkpt>
<trkpt lat="22.044529" lon="103.964439">
<ele>804.305176</ele>
<time>2011-04-26T04:45:55Z</time>
<desc>lat.=22.044529, lon.=103.964439, Alt.=804.305176m. Speed=9.756000m/h.</desc>
<speed>2.710000</speed>
</trkpt>
<trkpt lat="22.044447" lon="103.964478">
<ele>805.133301</ele>
<time>2011-04-26T04:46:00Z</time>
<desc>lat.=22.044447, lon.=103.964478, Alt.=805.133301m. Speed=4.824000m/h.</desc>
<speed>1.340000</speed>
</trkpt>
<trkpt lat="22.044334" lon="103.964500">
<ele>805.523926</ele>
<time>2011-04-26T04:46:05Z</time>
<desc>lat.=22.044334, lon.=103.964500, Alt.=805.523926m. Speed=6.984000m/h.</desc>
<speed>1.940000</speed>
</trkpt>
<trkpt lat="22.044191" lon="103.964485">
<ele>805.898926</ele>
<time>2011-04-26T04:46:10Z</time>
<desc>lat.=22.044191, lon.=103.964485, Alt.=805.898926m. Speed=11.196000m/h.</desc>
<speed>3.110000</speed>
</trkpt>
<trkpt lat="22.044056" lon="103.964394">
<ele>807.414551</ele>
<time>2011-04-26T04:46:15Z</time>
<desc>lat.=22.044056, lon.=103.964394, Alt.=807.414551m. Speed=15.552000m/h.</desc>
<speed>4.320000</speed>
</trkpt>
<trkpt lat="22.043972" lon="103.964119">
<ele>807.008301</ele>
<time>2011-04-26T04:46:20Z</time>
<desc>lat.=22.043972, lon.=103.964119, Alt.=807.008301m. Speed=23.760000m/h.</desc>
<speed>6.600000</speed>
</trkpt>
<trkpt lat="22.043823" lon="103.963821">
<ele>806.023926</ele>
<time>2011-04-26T04:46:25Z</time>
<desc>lat.=22.043823, lon.=103.963821, Alt.=806.023926m. Speed=25.488001m/h.</desc>
<speed>7.080000</speed>
</trkpt>
<trkpt lat="22.043552" lon="103.963699">
<ele>805.445801</ele>
<time>2011-04-26T04:46:30Z</time>
<desc>lat.=22.043552, lon.=103.963699, Alt.=805.445801m. Speed=24.191999m/h.</desc>
<speed>6.720000</speed>
</trkpt>
<trkpt lat="22.043257" lon="103.963791">
<ele>802.930176</ele>
<time>2011-04-26T04:46:35Z</time>
<desc>lat.=22.043257, lon.=103.963791, Alt.=802.930176m. Speed=24.299999m/h.</desc>
<speed>6.750000</speed>
</trkpt>
<trkpt lat="22.043026" lon="103.964043">
<ele>801.164551</ele>
<time>2011-04-26T04:46:40Z</time>
<desc>lat.=22.043026, lon.=103.964043, Alt.=801.164551m. Speed=27.756001m/h.</desc>
<speed>7.710000</speed>
</trkpt>
<trkpt lat="22.042837" lon="103.964417">
<ele>799.617676</ele>
<time>2011-04-26T04:46:45Z</time>
<desc>lat.=22.042837, lon.=103.964417, Alt.=799.617676m. Speed=27.756001m/h.</desc>
<speed>7.710000</speed>
</trkpt>
<trkpt lat="22.042572" lon="103.964745">
<ele>796.039551</ele>
<time>2011-04-26T04:46:50Z</time>
<desc>lat.=22.042572, lon.=103.964745, Alt.=796.039551m. Speed=24.299999m/h.</desc>
<speed>6.750000</speed>
</trkpt>
<trkpt lat="22.042301" lon="103.964928">
<ele>794.555176</ele>
<time>2011-04-26T04:46:55Z</time>
<desc>lat.=22.042301, lon.=103.964928, Alt.=794.555176m. Speed=17.532000m/h.</desc>
<speed>4.870000</speed>
</trkpt>
<trkpt lat="22.042091" lon="103.964867">
<ele>791.352051</ele>
<time>2011-04-26T04:47:00Z</time>
<desc>lat.=22.042091, lon.=103.964867, Alt.=791.352051m. Speed=17.964001m/h.</desc>
<speed>4.990000</speed>
</trkpt>
<trkpt lat="22.041838" lon="103.964729">
<ele>787.117676</ele>
<time>2011-04-26T04:47:05Z</time>
<desc>lat.=22.041838, lon.=103.964729, Alt.=787.117676m. Speed=22.535999m/h.</desc>
<speed>6.260000</speed>
</trkpt>
<trkpt lat="22.041557" lon="103.964546">
<ele>783.883301</ele>
<time>2011-04-26T04:47:10Z</time>
<desc>lat.=22.041557, lon.=103.964546, Alt.=783.883301m. Speed=26.316000m/h.</desc>
<speed>7.310000</speed>
</trkpt>
<trkpt lat="22.041258" lon="103.964340">
<ele>779.664551</ele>
<time>2011-04-26T04:47:15Z</time>
<desc>lat.=22.041258, lon.=103.964340, Alt.=779.664551m. Speed=28.080000m/h.</desc>
<speed>7.800000</speed>
</trkpt>
<trkpt lat="22.041014" lon="103.964134">
<ele>777.570801</ele>
<time>2011-04-26T04:47:20Z</time>
<desc>lat.=22.041014, lon.=103.964134, Alt.=777.570801m. Speed=21.708000m/h.</desc>
<speed>6.030000</speed>
</trkpt>
<trkpt lat="22.040821" lon="103.963928">
<ele>775.711426</ele>
<time>2011-04-26T04:47:25Z</time>
<desc>lat.=22.040821, lon.=103.963928, Alt.=775.711426m. Speed=20.952000m/h.</desc>
<speed>5.820000</speed>
</trkpt>
<trkpt lat="22.040550" lon="103.963814">
<ele>776.961426</ele>
<time>2011-04-26T04:47:30Z</time>
<desc>lat.=22.040550, lon.=103.963814, Alt.=776.961426m. Speed=12.528000m/h.</desc>
<speed>3.480000</speed>
</trkpt>
<trkpt lat="22.040257" lon="103.963943">
<ele>777.445801</ele>
<time>2011-04-26T04:47:35Z</time>
<desc>lat.=22.040257, lon.=103.963943, Alt.=777.445801m. Speed=26.676001m/h.</desc>
<speed>7.410000</speed>
</trkpt>
<trkpt lat="22.040131" lon="103.964142">
<ele>778.820801</ele>
<time>2011-04-26T04:47:40Z</time>
<desc>lat.=22.040131, lon.=103.964142, Alt.=778.820801m. Speed=12.132000m/h.</desc>
<speed>3.370000</speed>
</trkpt>
<trkpt lat="22.040087" lon="103.964302">
<ele>780.211426</ele>
<time>2011-04-26T04:47:45Z</time>
<desc>lat.=22.040087, lon.=103.964302, Alt.=780.211426m. Speed=5.436000m/h.</desc>
<speed>1.510000</speed>
</trkpt>
<trkpt lat="22.040071" lon="103.964485">
<ele>779.492676</ele>
<time>2011-04-26T04:47:50Z</time>
<desc>lat.=22.040071, lon.=103.964485, Alt.=779.492676m. Speed=9.612000m/h.</desc>
<speed>2.670000</speed>
</trkpt>
<trkpt lat="22.040056" lon="103.964607">
<ele>779.570801</ele>
<time>2011-04-26T04:47:55Z</time>
<desc>lat.=22.040056, lon.=103.964607, Alt.=779.570801m. Speed=10.332000m/h.</desc>
<speed>2.870000</speed>
</trkpt>
<trkpt lat="22.040037" lon="103.964844">
<ele>780.367676</ele>
<time>2011-04-26T04:48:00Z</time>
<desc>lat.=22.040037, lon.=103.964844, Alt.=780.367676m. Speed=17.100000m/h.</desc>
<speed>4.750000</speed>
</trkpt>
<trkpt lat="22.039955" lon="103.965141">
<ele>780.211426</ele>
<time>2011-04-26T04:48:05Z</time>
<desc>lat.=22.039955, lon.=103.965141, Alt.=780.211426m. Speed=19.296000m/h.</desc>
<speed>5.360000</speed>
</trkpt>
<trkpt lat="22.040089" lon="103.965446">
<ele>784.898926</ele>
<time>2011-04-26T04:48:10Z</time>
<desc>lat.=22.040089, lon.=103.965446, Alt.=784.898926m. Speed=15.804000m/h.</desc>
<speed>4.390000</speed>
</trkpt>
<trkpt lat="22.040161" lon="103.965736">
<ele>787.148926</ele>
<time>2011-04-26T04:48:15Z</time>
<desc>lat.=22.040161, lon.=103.965736, Alt.=787.148926m. Speed=19.908001m/h.</desc>
<speed>5.530000</speed>
</trkpt>
<trkpt lat="22.040195" lon="103.966057">
<ele>789.227051</ele>
<time>2011-04-26T04:48:20Z</time>
<desc>lat.=22.040195, lon.=103.966057, Alt.=789.227051m. Speed=24.768000m/h.</desc>
<speed>6.880000</speed>
</trkpt>
<trkpt lat="22.040226" lon="103.966393">
<ele>790.367676</ele>
<time>2011-04-26T04:48:25Z</time>
<desc>lat.=22.040226, lon.=103.966393, Alt.=790.367676m. Speed=23.652000m/h.</desc>
<speed>6.570000</speed>
</trkpt>
<trkpt lat="22.040270" lon="103.966690">
<ele>790.227051</ele>
<time>2011-04-26T04:48:30Z</time>
<desc>lat.=22.040270, lon.=103.966690, Alt.=790.227051m. Speed=18.827999m/h.</desc>
<speed>5.230000</speed>
</trkpt>
<trkpt lat="22.040249" lon="103.967010">
<ele>789.320801</ele>
<time>2011-04-26T04:48:35Z</time>
<desc>lat.=22.040249, lon.=103.967010, Alt.=789.320801m. Speed=22.572001m/h.</desc>
<speed>6.270000</speed>
</trkpt>
<trkpt lat="22.040203" lon="103.967354">
<ele>788.789551</ele>
<time>2011-04-26T04:48:40Z</time>
<desc>lat.=22.040203, lon.=103.967354, Alt.=788.789551m. Speed=24.516001m/h.</desc>
<speed>6.810000</speed>
</trkpt>
<trkpt lat="22.040266" lon="103.967628">
<ele>787.289551</ele>
<time>2011-04-26T04:48:45Z</time>
<desc>lat.=22.040266, lon.=103.967628, Alt.=787.289551m. Speed=16.379999m/h.</desc>
<speed>4.550000</speed>
</trkpt>
<trkpt lat="22.040348" lon="103.967758">
<ele>785.227051</ele>
<time>2011-04-26T04:48:50Z</time>
<desc>lat.=22.040348, lon.=103.967758, Alt.=785.227051m. Speed=7.128000m/h.</desc>
<speed>1.980000</speed>
</trkpt>
<trkpt lat="22.040373" lon="103.967796">
<ele>781.602051</ele>
<time>2011-04-26T04:48:55Z</time>
<desc>lat.=22.040373, lon.=103.967796, Alt.=781.602051m. Speed=0.432000m/h.</desc>
<speed>0.120000</speed>
</trkpt>
<trkpt lat="22.040398" lon="103.967796">
<ele>780.586426</ele>
<time>2011-04-26T04:49:00Z</time>
<desc>lat.=22.040398, lon.=103.967796, Alt.=780.586426m. Speed=0.648000m/h.</desc>
<speed>0.180000</speed>
</trkpt>
<trkpt lat="22.040400" lon="103.967804">
<ele>780.617676</ele>
<time>2011-04-26T04:49:05Z</time>
<desc>lat.=22.040400, lon.=103.967804, Alt.=780.617676m. Speed=0.216000m/h.</desc>
<speed>0.060000</speed>
</trkpt>
<trkpt lat="22.040398" lon="103.967804">
<ele>780.570801</ele>
<time>2011-04-26T04:49:10Z</time>
<desc>lat.=22.040398, lon.=103.967804, Alt.=780.570801m. Speed=0.288000m/h.</desc>
<speed>0.080000</speed>
</trkpt>
<trkpt lat="22.040394" lon="103.967804">
<ele>780.539551</ele>
<time>2011-04-26T04:49:15Z</time>
<desc>lat.=22.040394, lon.=103.967804, Alt.=780.539551m. Speed=0.252000m/h.</desc>
<speed>0.070000</speed>
</trkpt>
<trkpt lat="22.040394" lon="103.967804">
<ele>780.461426</ele>
<time>2011-04-26T04:49:20Z</time>
<desc>lat.=22.040394, lon.=103.967804, Alt.=780.461426m. Speed=0.108000m/h.</desc>
<speed>0.030000</speed>
</trkpt>
<trkpt lat="22.040394" lon="103.967804">
<ele>780.414551</ele>
<time>2011-04-26T04:49:25Z</time>
<desc>lat.=22.040394, lon.=103.967804, Alt.=780.414551m. Speed=0.180000m/h.</desc>
<speed>0.050000</speed>
</trkpt>
<trkpt lat="22.040396" lon="103.967804">
<ele>780.320801</ele>
<time>2011-04-26T04:49:30Z</time>
<desc>lat.=22.040396, lon.=103.967804, Alt.=780.320801m. Speed=0.216000m/h.</desc>
<speed>0.060000</speed>
</trkpt>
<trkpt lat="22.040401" lon="103.967804">
<ele>780.180176</ele>
<time>2011-04-26T04:49:35Z</time>
<desc>lat.=22.040401, lon.=103.967804, Alt.=780.180176m. Speed=0.000000m/h.</desc>
<speed>0.000000</speed>
</trkpt>
<trkpt lat="22.040403" lon="103.967804">
<ele>780.039551</ele>
<time>2011-04-26T04:49:40Z</time>
<desc>lat.=22.040403, lon.=103.967804, Alt.=780.039551m. Speed=0.072000m/h.</desc>
<speed>0.020000</speed>
</trkpt>
<trkpt lat="22.040403" lon="103.967804">
<ele>779.898926</ele>
<time>2011-04-26T04:49:45Z</time>
<desc>lat.=22.040403, lon.=103.967804, Alt.=779.898926m. Speed=0.252000m/h.</desc>
<speed>0.070000</speed>
</trkpt>
<trkpt lat="22.040405" lon="103.967812">
<ele>779.773926</ele>
<time>2011-04-26T04:49:50Z</time>
<desc>lat.=22.040405, lon.=103.967812, Alt.=779.773926m. Speed=2.016000m/h.</desc>
<speed>0.560000</speed>
</trkpt>
<trkpt lat="22.040424" lon="103.967857">
<ele>778.977051</ele>
<time>2011-04-26T04:49:55Z</time>
<desc>lat.=22.040424, lon.=103.967857, Alt.=778.977051m. Speed=6.444000m/h.</desc>
<speed>1.790000</speed>
</trkpt>
<trkpt lat="22.040445" lon="103.967903">
<ele>777.711426</ele>
<time>2011-04-26T04:50:00Z</time>
<desc>lat.=22.040445, lon.=103.967903, Alt.=777.711426m. Speed=0.612000m/h.</desc>
<speed>0.170000</speed>
</trkpt>
<trkpt lat="22.040443" lon="103.967903">
<ele>777.445801</ele>
<time>2011-04-26T04:50:05Z</time>
<desc>lat.=22.040443, lon.=103.967903, Alt.=777.445801m. Speed=0.180000m/h.</desc>
<speed>0.050000</speed>
</trkpt>
<trkpt lat="22.040442" lon="103.967903">
<ele>777.211426</ele>
<time>2011-04-26T04:50:10Z</time>
<desc>lat.=22.040442, lon.=103.967903, Alt.=777.211426m. Speed=0.108000m/h.</desc>
<speed>0.030000</speed>
</trkpt>
<trkpt lat="22.040442" lon="103.967911">
<ele>777.164551</ele>
<time>2011-04-26T04:50:15Z</time>
<desc>lat.=22.040442, lon.=103.967911, Alt.=777.164551m. Speed=1.512000m/h.</desc>
<speed>0.420000</speed>
</trkpt>
<trkpt lat="22.040438" lon="103.967911">
<ele>777.789551</ele>
<time>2011-04-26T04:50:20Z</time>
<desc>lat.=22.040438, lon.=103.967911, Alt.=777.789551m. Speed=1.152000m/h.</desc>
<speed>0.320000</speed>
</trkpt>
<trkpt lat="22.040442" lon="103.967911">
<ele>778.352051</ele>
<time>2011-04-26T04:50:25Z</time>
<desc>lat.=22.040442, lon.=103.967911, Alt.=778.352051m. Speed=0.432000m/h.</desc>
<speed>0.120000</speed>
</trkpt>
<trkpt lat="22.040459" lon="103.967957">
<ele>778.773926</ele>
<time>2011-04-26T04:50:30Z</time>
<desc>lat.=22.040459, lon.=103.967957, Alt.=778.773926m. Speed=7.380000m/h.</desc>
<speed>2.050000</speed>
</trkpt>
<trkpt lat="22.040520" lon="103.968140">
<ele>778.945801</ele>
<time>2011-04-26T04:50:35Z</time>
<desc>lat.=22.040520, lon.=103.968140, Alt.=778.945801m. Speed=13.824000m/h.</desc>
<speed>3.840000</speed>
</trkpt>
<trkpt lat="22.040583" lon="103.968330">
<ele>778.539551</ele>
<time>2011-04-26T04:50:40Z</time>
<desc>lat.=22.040583, lon.=103.968330, Alt.=778.539551m. Speed=12.024000m/h.</desc>
<speed>3.340000</speed>
</trkpt>
<trkpt lat="22.040575" lon="103.968552">
<ele>777.961426</ele>
<time>2011-04-26T04:50:45Z</time>
<desc>lat.=22.040575, lon.=103.968552, Alt.=777.961426m. Speed=18.288000m/h.</desc>
<speed>5.080000</speed>
</trkpt>
<trkpt lat="22.040535" lon="103.968796">
<ele>777.773926</ele>
<time>2011-04-26T04:50:50Z</time>
<desc>lat.=22.040535, lon.=103.968796, Alt.=777.773926m. Speed=13.788000m/h.</desc>
<speed>3.830000</speed>
</trkpt>
<trkpt lat="22.040628" lon="103.969070">
<ele>777.570801</ele>
<time>2011-04-26T04:50:55Z</time>
<desc>lat.=22.040628, lon.=103.969070, Alt.=777.570801m. Speed=16.164000m/h.</desc>
<speed>4.490000</speed>
</trkpt>
<trkpt lat="22.040777" lon="103.969330">
<ele>777.320801</ele>
<time>2011-04-26T04:51:00Z</time>
<desc>lat.=22.040777, lon.=103.969330, Alt.=777.320801m. Speed=16.236000m/h.</desc>
<speed>4.510000</speed>
</trkpt>
<trkpt lat="22.040886" lon="103.969482">
<ele>776.492676</ele>
<time>2011-04-26T04:51:05Z</time>
<desc>lat.=22.040886, lon.=103.969482, Alt.=776.492676m. Speed=4.644000m/h.</desc>
<speed>1.290000</speed>
</trkpt>
<trkpt lat="22.040895" lon="103.969513">
<ele>775.992676</ele>
<time>2011-04-26T04:51:10Z</time>
<desc>lat.=22.040895, lon.=103.969513, Alt.=775.992676m. Speed=0.360000m/h.</desc>
<speed>0.100000</speed>
</trkpt>
<trkpt lat="22.040897" lon="103.969513">
<ele>776.039551</ele>
<time>2011-04-26T04:51:15Z</time>
<desc>lat.=22.040897, lon.=103.969513, Alt.=776.039551m. Speed=0.216000m/h.</desc>
<speed>0.060000</speed>
</trkpt>
<trkpt lat="22.040903" lon="103.969505">
<ele>776.008301</ele>
<time>2011-04-26T04:51:20Z</time>
<desc>lat.=22.040903, lon.=103.969505, Alt.=776.008301m. Speed=0.360000m/h.</desc>
<speed>0.100000</speed>
</trkpt>
<trkpt lat="22.040905" lon="103.969505">
<ele>775.961426</ele>
<time>2011-04-26T04:51:25Z</time>
<desc>lat.=22.040905, lon.=103.969505, Alt.=775.961426m. Speed=0.108000m/h.</desc>
<speed>0.030000</speed>
</trkpt>
<trkpt lat="22.040905" lon="103.969513">
<ele>775.883301</ele>
<time>2011-04-26T04:51:30Z</time>
<desc>lat.=22.040905, lon.=103.969513, Alt.=775.883301m. Speed=1.800000m/h.</desc>
<speed>0.500000</speed>
</trkpt>
<trkpt lat="22.040897" lon="103.969536">
<ele>775.852051</ele>
<time>2011-04-26T04:51:35Z</time>
<desc>lat.=22.040897, lon.=103.969536, Alt.=775.852051m. Speed=1.764000m/h.</desc>
<speed>0.490000</speed>
</trkpt>
<trkpt lat="22.040909" lon="103.969566">
<ele>774.367676</ele>
<time>2011-04-26T04:51:40Z</time>
<desc>lat.=22.040909, lon.=103.969566, Alt.=774.367676m. Speed=0.576000m/h.</desc>
<speed>0.160000</speed>
</trkpt>
<trkpt lat="22.040928" lon="103.969574">
<ele>772.023926</ele>
<time>2011-04-26T04:51:45Z</time>
<desc>lat.=22.040928, lon.=103.969574, Alt.=772.023926m. Speed=0.324000m/h.</desc>
<speed>0.090000</speed>
</trkpt>
<trkpt lat="22.040934" lon="103.969574">
<ele>771.836426</ele>
<time>2011-04-26T04:51:50Z</time>
<desc>lat.=22.040934, lon.=103.969574, Alt.=771.836426m. Speed=0.180000m/h.</desc>
<speed>0.050000</speed>
</trkpt>
<trkpt lat="22.040937" lon="103.969582">
<ele>771.695801</ele>
<time>2011-04-26T04:51:55Z</time>
<desc>lat.=22.040937, lon.=103.969582, Alt.=771.695801m. Speed=1.008000m/h.</desc>
<speed>0.280000</speed>
</trkpt>
<trkpt lat="22.040945" lon="103.969589">
<ele>771.633301</ele>
<time>2011-04-26T04:52:00Z</time>
<desc>lat.=22.040945, lon.=103.969589, Alt.=771.633301m. Speed=0.720000m/h.</desc>
<speed>0.200000</speed>
</trkpt>
<trkpt lat="22.040951" lon="103.969597">
<ele>771.555176</ele>
<time>2011-04-26T04:52:05Z</time>
<desc>lat.=22.040951, lon.=103.969597, Alt.=771.555176m. Speed=0.576000m/h.</desc>
<speed>0.160000</speed>
</trkpt>
<trkpt lat="22.040958" lon="103.969597">
<ele>771.539551</ele>
<time>2011-04-26T04:52:10Z</time>
<desc>lat.=22.040958, lon.=103.969597, Alt.=771.539551m. Speed=0.648000m/h.</desc>
<speed>0.180000</speed>
</trkpt>
<trkpt lat="22.040960" lon="103.969604">
<ele>771.477051</ele>
<time>2011-04-26T04:52:15Z</time>
<desc>lat.=22.040960, lon.=103.969604, Alt.=771.477051m. Speed=0.468000m/h.</desc>
<speed>0.130000</speed>
</trkpt>
<trkpt lat="22.040960" lon="103.969612">
<ele>771.414551</ele>
<time>2011-04-26T04:52:20Z</time>
<desc>lat.=22.040960, lon.=103.969612, Alt.=771.414551m. Speed=0.180000m/h.</desc>
<speed>0.050000</speed>
</trkpt>
<trkpt lat="22.040964" lon="103.969612">
<ele>771.336426</ele>
<time>2011-04-26T04:52:25Z</time>
<desc>lat.=22.040964, lon.=103.969612, Alt.=771.336426m. Speed=0.288000m/h.</desc>
<speed>0.080000</speed>
</trkpt>
<trkpt lat="22.040968" lon="103.969612">
<ele>771.258301</ele>
<time>2011-04-26T04:52:30Z</time>
<desc>lat.=22.040968, lon.=103.969612, Alt.=771.258301m. Speed=0.324000m/h.</desc>
<speed>0.090000</speed>
</trkpt>
<trkpt lat="22.040972" lon="103.969612">
<ele>771.164551</ele>
<time>2011-04-26T04:52:35Z</time>
<desc>lat.=22.040972, lon.=103.969612, Alt.=771.164551m. Speed=0.468000m/h.</desc>
<speed>0.130000</speed>
</trkpt>
<trkpt lat="22.040977" lon="103.969612">
<ele>771.039551</ele>
<time>2011-04-26T04:52:40Z</time>
<desc>lat.=22.040977, lon.=103.969612, Alt.=771.039551m. Speed=0.756000m/h.</desc>
<speed>0.210000</speed>
</trkpt>
<trkpt lat="22.040991" lon="103.969627">
<ele>770.742676</ele>
<time>2011-04-26T04:52:45Z</time>
<desc>lat.=22.040991, lon.=103.969627, Alt.=770.742676m. Speed=1.728000m/h.</desc>
<speed>0.480000</speed>
</trkpt>
<trkpt lat="22.040991" lon="103.969643">
<ele>769.633301</ele>
<time>2011-04-26T04:52:50Z</time>
<desc>lat.=22.040991, lon.=103.969643, Alt.=769.633301m. Speed=1.116000m/h.</desc>
<speed>0.310000</speed>
</trkpt>
<trkpt lat="22.040997" lon="103.969650">
<ele>768.680176</ele>
<time>2011-04-26T04:52:55Z</time>
<desc>lat.=22.040997, lon.=103.969650, Alt.=768.680176m. Speed=0.900000m/h.</desc>
<speed>0.250000</speed>
</trkpt>
<trkpt lat="22.041002" lon="103.969666">
<ele>768.023926</ele>
<time>2011-04-26T04:53:00Z</time>
<desc>lat.=22.041002, lon.=103.969666, Alt.=768.023926m. Speed=0.936000m/h.</desc>
<speed>0.260000</speed>
</trkpt>
<trkpt lat="22.041004" lon="103.969696">
<ele>767.242676</ele>
<time>2011-04-26T04:53:05Z</time>
<desc>lat.=22.041004, lon.=103.969696, Alt.=767.242676m. Speed=1.188000m/h.</desc>
<speed>0.330000</speed>
</trkpt>
<trkpt lat="22.040995" lon="103.969719">
<ele>766.398926</ele>
<time>2011-04-26T04:53:10Z</time>
<desc>lat.=22.040995, lon.=103.969719, Alt.=766.398926m. Speed=0.936000m/h.</desc>
<speed>0.260000</speed>
</trkpt>
<trkpt lat="22.040989" lon="103.969742">
<ele>765.305176</ele>
<time>2011-04-26T04:53:15Z</time>
<desc>lat.=22.040989, lon.=103.969742, Alt.=765.305176m. Speed=1.008000m/h.</desc>
<speed>0.280000</speed>
</trkpt>
<trkpt lat="22.040976" lon="103.969742">
<ele>764.367676</ele>
<time>2011-04-26T04:53:20Z</time>
<desc>lat.=22.040976, lon.=103.969742, Alt.=764.367676m. Speed=0.540000m/h.</desc>
<speed>0.150000</speed>
</trkpt>
<trkpt lat="22.040953" lon="103.969727">
<ele>762.852051</ele>
<time>2011-04-26T04:53:25Z</time>
<desc>lat.=22.040953, lon.=103.969727, Alt.=762.852051m. Speed=0.396000m/h.</desc>
<speed>0.110000</speed>
</trkpt>
<trkpt lat="22.040936" lon="103.969711">
<ele>761.258301</ele>
<time>2011-04-26T04:53:30Z</time>
<desc>lat.=22.040936, lon.=103.969711, Alt.=761.258301m. Speed=0.216000m/h.</desc>
<speed>0.060000</speed>
</trkpt>
<trkpt lat="22.040928" lon="103.969711">
<ele>758.805176</ele>
<time>2011-04-26T04:53:35Z</time>
<desc>lat.=22.040928, lon.=103.969711, Alt.=758.805176m. Speed=0.108000m/h.</desc>
<speed>0.030000</speed>
</trkpt>
<trkpt lat="22.040924" lon="103.969704">
<ele>757.742676</ele>
<time>2011-04-26T04:53:40Z</time>
<desc>lat.=22.040924, lon.=103.969704, Alt.=757.742676m. Speed=0.144000m/h.</desc>
<speed>0.040000</speed>
</trkpt>
<trkpt lat="22.040926" lon="103.969704">
<ele>757.320801</ele>
<time>2011-04-26T04:53:45Z</time>
<desc>lat.=22.040926, lon.=103.969704, Alt.=757.320801m. Speed=0.252000m/h.</desc>
<speed>0.070000</speed>
</trkpt>
<trkpt lat="22.040932" lon="103.969711">
<ele>756.883301</ele>
<time>2011-04-26T04:53:50Z</time>
<desc>lat.=22.040932, lon.=103.969711, Alt.=756.883301m. Speed=0.324000m/h.</desc>
<speed>0.090000</speed>
</trkpt>
<trkpt lat="22.040934" lon="103.969711">
<ele>756.414551</ele>
<time>2011-04-26T04:53:55Z</time>
<desc>lat.=22.040934, lon.=103.969711, Alt.=756.414551m. Speed=0.360000m/h.</desc>
<speed>0.100000</speed>
</trkpt>
<trkpt lat="22.040937" lon="103.969719">
<ele>755.930176</ele>
<time>2011-04-26T04:54:00Z</time>
<desc>lat.=22.040937, lon.=103.969719, Alt.=755.930176m. Speed=0.432000m/h.</desc>
<speed>0.120000</speed>
</trkpt>
<trkpt lat="22.040941" lon="103.969719">
<ele>755.414551</ele>
<time>2011-04-26T04:54:05Z</time>
<desc>lat.=22.040941, lon.=103.969719, Alt.=755.414551m. Speed=0.432000m/h.</desc>
<speed>0.120000</speed>
</trkpt>
<trkpt lat="22.040947" lon="103.969727">
<ele>754.867676</ele>
<time>2011-04-26T04:54:10Z</time>
<desc>lat.=22.040947, lon.=103.969727, Alt.=754.867676m. Speed=0.396000m/h.</desc>
<speed>0.110000</speed>
</trkpt>
<trkpt lat="22.040951" lon="103.969727">
<ele>754.305176</ele>
<time>2011-04-26T04:54:15Z</time>
<desc>lat.=22.040951, lon.=103.969727, Alt.=754.305176m. Speed=0.252000m/h.</desc>
<speed>0.070000</speed>
</trkpt>
<trkpt lat="22.040953" lon="103.969727">
<ele>753.836426</ele>
<time>2011-04-26T04:54:20Z</time>
<desc>lat.=22.040953, lon.=103.969727, Alt.=753.836426m. Speed=0.180000m/h.</desc>
<speed>0.050000</speed>
</trkpt>
<trkpt lat="22.040953" lon="103.969719">
<ele>753.383301</ele>
<time>2011-04-26T04:54:25Z</time>
<desc>lat.=22.040953, lon.=103.969719, Alt.=753.383301m. Speed=0.144000m/h.</desc>
<speed>0.040000</speed>
</trkpt>
<trkpt lat="22.040953" lon="103.969719">
<ele>752.930176</ele>
<time>2011-04-26T04:54:30Z</time>
<desc>lat.=22.040953, lon.=103.969719, Alt.=752.930176m. Speed=0.108000m/h.</desc>
<speed>0.030000</speed>
</trkpt>
<trkpt lat="22.040955" lon="103.969719">
<ele>752.461426</ele>
<time>2011-04-26T04:54:35Z</time>
<desc>lat.=22.040955, lon.=103.969719, Alt.=752.461426m. Speed=0.288000m/h.</desc>
<speed>0.080000</speed>
</trkpt>
<trkpt lat="22.040956" lon="103.969719">
<ele>751.961426</ele>
<time>2011-04-26T04:54:40Z</time>
<desc>lat.=22.040956, lon.=103.969719, Alt.=751.961426m. Speed=0.324000m/h.</desc>
<speed>0.090000</speed>
</trkpt>
<trkpt lat="22.040960" lon="103.969711">
<ele>751.477051</ele>
<time>2011-04-26T04:54:45Z</time>
<desc>lat.=22.040960, lon.=103.969711, Alt.=751.477051m. Speed=0.360000m/h.</desc>
<speed>0.100000</speed>
</trkpt>
<trkpt lat="22.040968" lon="103.969711">
<ele>750.992676</ele>
<time>2011-04-26T04:54:50Z</time>
<desc>lat.=22.040968, lon.=103.969711, Alt.=750.992676m. Speed=0.504000m/h.</desc>
<speed>0.140000</speed>
</trkpt>
<trkpt lat="22.040974" lon="103.969711">
<ele>750.539551</ele>
<time>2011-04-26T04:54:55Z</time>
<desc>lat.=22.040974, lon.=103.969711, Alt.=750.539551m. Speed=0.396000m/h.</desc>
<speed>0.110000</speed>
</trkpt>
<trkpt lat="22.040977" lon="103.969711">
<ele>750.102051</ele>
<time>2011-04-26T04:55:00Z</time>
<desc>lat.=22.040977, lon.=103.969711, Alt.=750.102051m. Speed=0.288000m/h.</desc>
<speed>0.080000</speed>
</trkpt>
<trkpt lat="22.040981" lon="103.969711">
<ele>749.695801</ele>
<time>2011-04-26T04:55:05Z</time>
<desc>lat.=22.040981, lon.=103.969711, Alt.=749.695801m. Speed=0.252000m/h.</desc>
<speed>0.070000</speed>
</trkpt>
<trkpt lat="22.040985" lon="103.969719">
<ele>749.305176</ele>
<time>2011-04-26T04:55:10Z</time>
<desc>lat.=22.040985, lon.=103.969719, Alt.=749.305176m. Speed=0.396000m/h.</desc>
<speed>0.110000</speed>
</trkpt>
<trkpt lat="22.040989" lon="103.969719">
<ele>748.930176</ele>
<time>2011-04-26T04:55:15Z</time>
<desc>lat.=22.040989, lon.=103.969719, Alt.=748.930176m. Speed=0.504000m/h.</desc>
<speed>0.140000</speed>
</trkpt>
<trkpt lat="22.040995" lon="103.969727">
<ele>748.570801</ele>
<time>2011-04-26T04:55:20Z</time>
<desc>lat.=22.040995, lon.=103.969727, Alt.=748.570801m. Speed=0.504000m/h.</desc>
<speed>0.140000</speed>
</trkpt>
<trkpt lat="22.040997" lon="103.969734">
<ele>748.211426</ele>
<time>2011-04-26T04:55:25Z</time>
<desc>lat.=22.040997, lon.=103.969734, Alt.=748.211426m. Speed=0.324000m/h.</desc>
<speed>0.090000</speed>
</trkpt>
<trkpt lat="22.041000" lon="103.969734">
<ele>747.867676</ele>
<time>2011-04-26T04:55:30Z</time>
<desc>lat.=22.041000, lon.=103.969734, Alt.=747.867676m. Speed=0.324000m/h.</desc>
<speed>0.090000</speed>
</trkpt>
<trkpt lat="22.041002" lon="103.969734">
<ele>747.523926</ele>
<time>2011-04-26T04:55:35Z</time>
<desc>lat.=22.041002, lon.=103.969734, Alt.=747.523926m. Speed=0.216000m/h.</desc>
<speed>0.060000</speed>
</trkpt>
<trkpt lat="22.041002" lon="103.969742">
<ele>747.180176</ele>
<time>2011-04-26T04:55:40Z</time>
<desc>lat.=22.041002, lon.=103.969742, Alt.=747.180176m. Speed=0.108000m/h.</desc>
<speed>0.030000</speed>
</trkpt>
<trkpt lat="22.041000" lon="103.969749">
<ele>746.867676</ele>
<time>2011-04-26T04:55:45Z</time>
<desc>lat.=22.041000, lon.=103.969749, Alt.=746.867676m. Speed=2.232000m/h.</desc>
<speed>0.620000</speed>
</trkpt>
<trkpt lat="22.040995" lon="103.969887">
<ele>746.945801</ele>
<time>2011-04-26T04:55:50Z</time>
<desc>lat.=22.040995, lon.=103.969887, Alt.=746.945801m. Speed=13.356000m/h.</desc>
<speed>3.710000</speed>
</trkpt>
<trkpt lat="22.040915" lon="103.970078">
<ele>745.445801</ele>
<time>2011-04-26T04:55:55Z</time>
<desc>lat.=22.040915, lon.=103.970078, Alt.=745.445801m. Speed=18.216000m/h.</desc>
<speed>5.060000</speed>
</trkpt>
<trkpt lat="22.040739" lon="103.970360">
<ele>745.242676</ele>
<time>2011-04-26T04:56:00Z</time>
<desc>lat.=22.040739, lon.=103.970360, Alt.=745.242676m. Speed=18.576000m/h.</desc>
<speed>5.160000</speed>
</trkpt>
<trkpt lat="22.040712" lon="103.970634">
<ele>744.289551</ele>
<time>2011-04-26T04:56:05Z</time>
<desc>lat.=22.040712, lon.=103.970634, Alt.=744.289551m. Speed=16.667999m/h.</desc>
<speed>4.630000</speed>
</trkpt>
<trkpt lat="22.040739" lon="103.970909">
<ele>742.555176</ele>
<time>2011-04-26T04:56:10Z</time>
<desc>lat.=22.040739, lon.=103.970909, Alt.=742.555176m. Speed=17.712000m/h.</desc>
<speed>4.920000</speed>
</trkpt>
<trkpt lat="22.040712" lon="103.971199">
<ele>740.883301</ele>
<time>2011-04-26T04:56:15Z</time>
<desc>lat.=22.040712, lon.=103.971199, Alt.=740.883301m. Speed=20.879999m/h.</desc>
<speed>5.800000</speed>
</trkpt>
<trkpt lat="22.040581" lon="103.971542">
<ele>738.648926</ele>
<time>2011-04-26T04:56:20Z</time>
<desc>lat.=22.040581, lon.=103.971542, Alt.=738.648926m. Speed=26.424000m/h.</desc>
<speed>7.340000</speed>
</trkpt>
<trkpt lat="22.040426" lon="103.971870">
<ele>736.992676</ele>
<time>2011-04-26T04:56:25Z</time>
<desc>lat.=22.040426, lon.=103.971870, Alt.=736.992676m. Speed=23.436001m/h.</desc>
<speed>6.510000</speed>
</trkpt>
<trkpt lat="22.040293" lon="103.972168">
<ele>735.336426</ele>
<time>2011-04-26T04:56:30Z</time>
<desc>lat.=22.040293, lon.=103.972168, Alt.=735.336426m. Speed=22.931999m/h.</desc>
<speed>6.370000</speed>
</trkpt>
<trkpt lat="22.040161" lon="103.972435">
<ele>733.445801</ele>
<time>2011-04-26T04:56:35Z</time>
<desc>lat.=22.040161, lon.=103.972435, Alt.=733.445801m. Speed=21.240000m/h.</desc>
<speed>5.900000</speed>
</trkpt>
<trkpt lat="22.040005" lon="103.972633">
<ele>731.227051</ele>
<time>2011-04-26T04:56:40Z</time>
<desc>lat.=22.040005, lon.=103.972633, Alt.=731.227051m. Speed=17.747999m/h.</desc>
<speed>4.930000</speed>
</trkpt>
<trkpt lat="22.039757" lon="103.972687">
<ele>730.648926</ele>
<time>2011-04-26T04:56:45Z</time>
<desc>lat.=22.039757, lon.=103.972687, Alt.=730.648926m. Speed=21.167999m/h.</desc>
<speed>5.880000</speed>
</trkpt>
<trkpt lat="22.039524" lon="103.972443">
<ele>727.898926</ele>
<time>2011-04-26T04:56:50Z</time>
<desc>lat.=22.039524, lon.=103.972443, Alt.=727.898926m. Speed=27.000000m/h.</desc>
<speed>7.500000</speed>
</trkpt>
<trkpt lat="22.039261" lon="103.972130">
<ele>724.883301</ele>
<time>2011-04-26T04:56:55Z</time>
<desc>lat.=22.039261, lon.=103.972130, Alt.=724.883301m. Speed=34.452000m/h.</desc>
<speed>9.570000</speed>
</trkpt>
<trkpt lat="22.039009" lon="103.971848">
<ele>721.336426</ele>
<time>2011-04-26T04:57:00Z</time>
<desc>lat.=22.039009, lon.=103.971848, Alt.=721.336426m. Speed=25.271999m/h.</desc>
<speed>7.020000</speed>
</trkpt>
<trkpt lat="22.038723" lon="103.971695">
<ele>718.602051</ele>
<time>2011-04-26T04:57:05Z</time>
<desc>lat.=22.038723, lon.=103.971695, Alt.=718.602051m. Speed=24.336000m/h.</desc>
<speed>6.760000</speed>
</trkpt>
<trkpt lat="22.038429" lon="103.971779">
<ele>715.430176</ele>
<time>2011-04-26T04:57:10Z</time>
<desc>lat.=22.038429, lon.=103.971779, Alt.=715.430176m. Speed=20.160000m/h.</desc>
<speed>5.600000</speed>
</trkpt>
<trkpt lat="22.038174" lon="103.971870">
<ele>712.680176</ele>
<time>2011-04-26T04:57:15Z</time>
<desc>lat.=22.038174, lon.=103.971870, Alt.=712.680176m. Speed=21.600000m/h.</desc>
<speed>6.000000</speed>
</trkpt>
<trkpt lat="22.037893" lon="103.971848">
<ele>709.695801</ele>
<time>2011-04-26T04:57:20Z</time>
<desc>lat.=22.037893, lon.=103.971848, Alt.=709.695801m. Speed=19.584000m/h.</desc>
<speed>5.440000</speed>
</trkpt>
<trkpt lat="22.037640" lon="103.971703">
<ele>705.945801</ele>
<time>2011-04-26T04:57:25Z</time>
<desc>lat.=22.037640, lon.=103.971703, Alt.=705.945801m. Speed=25.164000m/h.</desc>
<speed>6.990000</speed>
</trkpt>
<trkpt lat="22.037355" lon="103.971466">
<ele>701.977051</ele>
<time>2011-04-26T04:57:30Z</time>
<desc>lat.=22.037355, lon.=103.971466, Alt.=701.977051m. Speed=25.884001m/h.</desc>
<speed>7.190000</speed>
</trkpt>
<trkpt lat="22.037121" lon="103.971107">
<ele>698.164551</ele>
<time>2011-04-26T04:57:35Z</time>
<desc>lat.=22.037121, lon.=103.971107, Alt.=698.164551m. Speed=30.708000m/h.</desc>
<speed>8.530000</speed>
</trkpt>
<trkpt lat="22.036928" lon="103.970802">
<ele>694.758301</ele>
<time>2011-04-26T04:57:40Z</time>
<desc>lat.=22.036928, lon.=103.970802, Alt.=694.758301m. Speed=16.488001m/h.</desc>
<speed>4.580000</speed>
</trkpt>
<trkpt lat="22.036787" lon="103.970612">
<ele>692.758301</ele>
<time>2011-04-26T04:57:45Z</time>
<desc>lat.=22.036787, lon.=103.970612, Alt.=692.758301m. Speed=13.284000m/h.</desc>
<speed>3.690000</speed>
</trkpt>
<trkpt lat="22.036629" lon="103.970512">
<ele>689.180176</ele>
<time>2011-04-26T04:57:50Z</time>
<desc>lat.=22.036629, lon.=103.970512, Alt.=689.180176m. Speed=17.028000m/h.</desc>
<speed>4.730000</speed>
</trkpt>
<trkpt lat="22.036402" lon="103.970444">
<ele>686.352051</ele>
<time>2011-04-26T04:57:55Z</time>
<desc>lat.=22.036402, lon.=103.970444, Alt.=686.352051m. Speed=11.772000m/h.</desc>
<speed>3.270000</speed>
</trkpt>
<trkpt lat="22.036272" lon="103.970482">
<ele>682.117676</ele>
<time>2011-04-26T04:58:00Z</time>
<desc>lat.=22.036272, lon.=103.970482, Alt.=682.117676m. Speed=9.540000m/h.</desc>
<speed>2.650000</speed>
</trkpt>
<trkpt lat="22.036182" lon="103.970535">
<ele>679.133301</ele>
<time>2011-04-26T04:58:05Z</time>
<desc>lat.=22.036182, lon.=103.970535, Alt.=679.133301m. Speed=7.308000m/h.</desc>
<speed>2.030000</speed>
</trkpt>
<trkpt lat="22.036104" lon="103.970619">
<ele>676.414551</ele>
<time>2011-04-26T04:58:10Z</time>
<desc>lat.=22.036104, lon.=103.970619, Alt.=676.414551m. Speed=6.372000m/h.</desc>
<speed>1.770000</speed>
</trkpt>
<trkpt lat="22.036016" lon="103.970711">
<ele>674.680176</ele>
<time>2011-04-26T04:58:15Z</time>
<desc>lat.=22.036016, lon.=103.970711, Alt.=674.680176m. Speed=5.400000m/h.</desc>
<speed>1.500000</speed>
</trkpt>
<trkpt lat="22.035940" lon="103.970795">
<ele>672.789551</ele>
<time>2011-04-26T04:58:20Z</time>
<desc>lat.=22.035940, lon.=103.970795, Alt.=672.789551m. Speed=5.508000m/h.</desc>
<speed>1.530000</speed>
</trkpt>
<trkpt lat="22.035856" lon="103.970879">
<ele>671.633301</ele>
<time>2011-04-26T04:58:25Z</time>
<desc>lat.=22.035856, lon.=103.970879, Alt.=671.633301m. Speed=7.596000m/h.</desc>
<speed>2.110000</speed>
</trkpt>
<trkpt lat="22.035784" lon="103.970985">
<ele>669.961426</ele>
<time>2011-04-26T04:58:30Z</time>
<desc>lat.=22.035784, lon.=103.970985, Alt.=669.961426m. Speed=8.280000m/h.</desc>
<speed>2.300000</speed>
</trkpt>
<trkpt lat="22.035679" lon="103.971123">
<ele>668.398926</ele>
<time>2011-04-26T04:58:35Z</time>
<desc>lat.=22.035679, lon.=103.971123, Alt.=668.398926m. Speed=11.160000m/h.</desc>
<speed>3.100000</speed>
</trkpt>
<trkpt lat="22.035616" lon="103.971382">
<ele>666.477051</ele>
<time>2011-04-26T04:58:40Z</time>
<desc>lat.=22.035616, lon.=103.971382, Alt.=666.477051m. Speed=14.724000m/h.</desc>
<speed>4.090000</speed>
</trkpt>
<trkpt lat="22.035639" lon="103.971596">
<ele>664.398926</ele>
<time>2011-04-26T04:58:45Z</time>
<desc>lat.=22.035639, lon.=103.971596, Alt.=664.398926m. Speed=13.392000m/h.</desc>
<speed>3.720000</speed>
</trkpt>
<trkpt lat="22.035763" lon="103.971771">
<ele>662.367676</ele>
<time>2011-04-26T04:58:50Z</time>
<desc>lat.=22.035763, lon.=103.971771, Alt.=662.367676m. Speed=13.320000m/h.</desc>
<speed>3.700000</speed>
</trkpt>
<trkpt lat="22.035900" lon="103.971901">
<ele>661.008301</ele>
<time>2011-04-26T04:58:55Z</time>
<desc>lat.=22.035900, lon.=103.971901, Alt.=661.008301m. Speed=9.468000m/h.</desc>
<speed>2.630000</speed>
</trkpt>
<trkpt lat="22.035980" lon="103.971962">
<ele>658.680176</ele>
<time>2011-04-26T04:59:00Z</time>
<desc>lat.=22.035980, lon.=103.971962, Alt.=658.680176m. Speed=6.732000m/h.</desc>
<speed>1.870000</speed>
</trkpt>
<trkpt lat="22.036062" lon="103.972008">
<ele>656.695801</ele>
<time>2011-04-26T04:59:05Z</time>
<desc>lat.=22.036062, lon.=103.972008, Alt.=656.695801m. Speed=8.100000m/h.</desc>
<speed>2.250000</speed>
</trkpt>
<trkpt lat="22.036171" lon="103.972061">
<ele>655.242676</ele>
<time>2011-04-26T04:59:10Z</time>
<desc>lat.=22.036171, lon.=103.972061, Alt.=655.242676m. Speed=9.432000m/h.</desc>
<speed>2.620000</speed>
</trkpt>
<trkpt lat="22.036303" lon="103.972137">
<ele>654.383301</ele>
<time>2011-04-26T04:59:15Z</time>
<desc>lat.=22.036303, lon.=103.972137, Alt.=654.383301m. Speed=11.988000m/h.</desc>
<speed>3.330000</speed>
</trkpt>
<trkpt lat="22.036444" lon="103.972229">
<ele>653.383301</ele>
<time>2011-04-26T04:59:20Z</time>
<desc>lat.=22.036444, lon.=103.972229, Alt.=653.383301m. Speed=11.520000m/h.</desc>
<speed>3.200000</speed>
</trkpt>
<trkpt lat="22.036554" lon="103.972351">
<ele>653.070801</ele>
<time>2011-04-26T04:59:25Z</time>
<desc>lat.=22.036554, lon.=103.972351, Alt.=653.070801m. Speed=11.844000m/h.</desc>
<speed>3.290000</speed>
</trkpt>
<trkpt lat="22.036694" lon="103.972527">
<ele>652.086426</ele>
<time>2011-04-26T04:59:30Z</time>
<desc>lat.=22.036694, lon.=103.972527, Alt.=652.086426m. Speed=15.912000m/h.</desc>
<speed>4.420000</speed>
</trkpt>
<trkpt lat="22.036898" lon="103.972687">
<ele>650.867676</ele>
<time>2011-04-26T04:59:35Z</time>
<desc>lat.=22.036898, lon.=103.972687, Alt.=650.867676m. Speed=17.676001m/h.</desc>
<speed>4.910000</speed>
</trkpt>
<trkpt lat="22.037058" lon="103.972870">
<ele>649.711426</ele>
<time>2011-04-26T04:59:40Z</time>
<desc>lat.=22.037058, lon.=103.972870, Alt.=649.711426m. Speed=16.775999m/h.</desc>
<speed>4.660000</speed>
</trkpt>
<trkpt lat="22.037209" lon="103.973053">
<ele>648.383301</ele>
<time>2011-04-26T04:59:45Z</time>
<desc>lat.=22.037209, lon.=103.973053, Alt.=648.383301m. Speed=14.256000m/h.</desc>
<speed>3.960000</speed>
</trkpt>
<trkpt lat="22.037331" lon="103.973190">
<ele>647.758301</ele>
<time>2011-04-26T04:59:50Z</time>
<desc>lat.=22.037331, lon.=103.973190, Alt.=647.758301m. Speed=5.148000m/h.</desc>
<speed>1.430000</speed>
</trkpt>
<trkpt lat="22.037378" lon="103.973198">
<ele>646.414551</ele>
<time>2011-04-26T04:59:55Z</time>
<desc>lat.=22.037378, lon.=103.973198, Alt.=646.414551m. Speed=2.484000m/h.</desc>
<speed>0.690000</speed>
</trkpt>
<trkpt lat="22.037472" lon="103.973259">
<ele>645.867676</ele>
<time>2011-04-26T05:00:00Z</time>
<desc>lat.=22.037472, lon.=103.973259, Alt.=645.867676m. Speed=13.428000m/h.</desc>
<speed>3.730000</speed>
</trkpt>
<trkpt lat="22.037642" lon="103.973457">
<ele>644.711426</ele>
<time>2011-04-26T05:00:05Z</time>
<desc>lat.=22.037642, lon.=103.973457, Alt.=644.711426m. Speed=25.128000m/h.</desc>
<speed>6.980000</speed>
</trkpt>
<trkpt lat="22.037909" lon="103.973755">
<ele>643.367676</ele>
<time>2011-04-26T05:00:10Z</time>
<desc>lat.=22.037909, lon.=103.973755, Alt.=643.367676m. Speed=29.628000m/h.</desc>
<speed>8.230000</speed>
</trkpt>
<trkpt lat="22.038210" lon="103.974052">
<ele>643.383301</ele>
<time>2011-04-26T05:00:15Z</time>
<desc>lat.=22.038210, lon.=103.974052, Alt.=643.383301m. Speed=31.032000m/h.</desc>
<speed>8.620000</speed>
</trkpt>
<trkpt lat="22.038483" lon="103.974358">
<ele>643.008301</ele>
<time>2011-04-26T05:00:20Z</time>
<desc>lat.=22.038483, lon.=103.974358, Alt.=643.008301m. Speed=27.035999m/h.</desc>
<speed>7.510000</speed>
</trkpt>
<trkpt lat="22.038528" lon="103.974663">
<ele>642.258301</ele>
<time>2011-04-26T05:00:25Z</time>
<desc>lat.=22.038528, lon.=103.974663, Alt.=642.258301m. Speed=23.580000m/h.</desc>
<speed>6.550000</speed>
</trkpt>
<trkpt lat="22.038445" lon="103.974991">
<ele>641.430176</ele>
<time>2011-04-26T05:00:30Z</time>
<desc>lat.=22.038445, lon.=103.974991, Alt.=641.430176m. Speed=24.264000m/h.</desc>
<speed>6.740000</speed>
</trkpt>
<trkpt lat="22.038366" lon="103.975327">
<ele>640.742676</ele>
<time>2011-04-26T05:00:35Z</time>
<desc>lat.=22.038366, lon.=103.975327, Alt.=640.742676m. Speed=24.372000m/h.</desc>
<speed>6.770000</speed>
</trkpt>
<trkpt lat="22.038439" lon="103.975647">
<ele>640.148926</ele>
<time>2011-04-26T05:00:40Z</time>
<desc>lat.=22.038439, lon.=103.975647, Alt.=640.148926m. Speed=24.299999m/h.</desc>
<speed>6.750000</speed>
</trkpt>
<trkpt lat="22.038578" lon="103.975960">
<ele>639.414551</ele>
<time>2011-04-26T05:00:45Z</time>
<desc>lat.=22.038578, lon.=103.975960, Alt.=639.414551m. Speed=24.299999m/h.</desc>
<speed>6.750000</speed>
</trkpt>
<trkpt lat="22.038755" lon="103.976311">
<ele>638.711426</ele>
<time>2011-04-26T05:00:50Z</time>
<desc>lat.=22.038755, lon.=103.976311, Alt.=638.711426m. Speed=30.816000m/h.</desc>
<speed>8.560000</speed>
</trkpt>
<trkpt lat="22.038980" lon="103.976677">
<ele>638.148926</ele>
<time>2011-04-26T05:00:55Z</time>
<desc>lat.=22.038980, lon.=103.976677, Alt.=638.148926m. Speed=31.068001m/h.</desc>
<speed>8.630000</speed>
</trkpt>
<trkpt lat="22.039165" lon="103.977058">
<ele>637.711426</ele>
<time>2011-04-26T05:01:00Z</time>
<desc>lat.=22.039165, lon.=103.977058, Alt.=637.711426m. Speed=28.403999m/h.</desc>
<speed>7.890000</speed>
</trkpt>
<trkpt lat="22.039091" lon="103.977432">
<ele>637.695801</ele>
<time>2011-04-26T05:01:05Z</time>
<desc>lat.=22.039091, lon.=103.977432, Alt.=637.695801m. Speed=29.375999m/h.</desc>
<speed>8.160000</speed>
</trkpt>
<trkpt lat="22.038891" lon="103.977844">
<ele>637.367676</ele>
<time>2011-04-26T05:01:10Z</time>
<desc>lat.=22.038891, lon.=103.977844, Alt.=637.367676m. Speed=34.416000m/h.</desc>
<speed>9.560000</speed>
</trkpt>
<trkpt lat="22.038986" lon="103.978310">
<ele>637.461426</ele>
<time>2011-04-26T05:01:15Z</time>
<desc>lat.=22.038986, lon.=103.978310, Alt.=637.461426m. Speed=36.720001m/h.</desc>
<speed>10.200000</speed>
</trkpt>
<trkpt lat="22.039316" lon="103.978630">
<ele>637.398926</ele>
<time>2011-04-26T05:01:20Z</time>
<desc>lat.=22.039316, lon.=103.978630, Alt.=637.398926m. Speed=22.500000m/h.</desc>
<speed>6.250000</speed>
</trkpt>
<trkpt lat="22.039476" lon="103.978798">
<ele>638.117676</ele>
<time>2011-04-26T05:01:25Z</time>
<desc>lat.=22.039476, lon.=103.978798, Alt.=638.117676m. Speed=12.672000m/h.</desc>
<speed>3.520000</speed>
</trkpt>
<trkpt lat="22.039564" lon="103.978874">
<ele>638.789551</ele>
<time>2011-04-26T05:01:30Z</time>
<desc>lat.=22.039564, lon.=103.978874, Alt.=638.789551m. Speed=10.044000m/h.</desc>
<speed>2.790000</speed>
</trkpt>
<trkpt lat="22.039661" lon="103.978996">
<ele>639.336426</ele>
<time>2011-04-26T05:01:35Z</time>
<desc>lat.=22.039661, lon.=103.978996, Alt.=639.336426m. Speed=10.656000m/h.</desc>
<speed>2.960000</speed>
</trkpt>
<trkpt lat="22.039742" lon="103.979111">
<ele>639.352051</ele>
<time>2011-04-26T05:01:40Z</time>
<desc>lat.=22.039742, lon.=103.979111, Alt.=639.352051m. Speed=7.632000m/h.</desc>
<speed>2.120000</speed>
</trkpt>
<trkpt lat="22.039764" lon="103.979233">
<ele>639.805176</ele>
<time>2011-04-26T05:01:45Z</time>
<desc>lat.=22.039764, lon.=103.979233, Alt.=639.805176m. Speed=11.304000m/h.</desc>
<speed>3.140000</speed>
</trkpt>
<trkpt lat="22.039761" lon="103.979385">
<ele>639.945801</ele>
<time>2011-04-26T05:01:50Z</time>
<desc>lat.=22.039761, lon.=103.979385, Alt.=639.945801m. Speed=10.440000m/h.</desc>
<speed>2.900000</speed>
</trkpt>
<trkpt lat="22.039698" lon="103.979591">
<ele>639.898926</ele>
<time>2011-04-26T05:01:55Z</time>
<desc>lat.=22.039698, lon.=103.979591, Alt.=639.898926m. Speed=17.927999m/h.</desc>
<speed>4.980000</speed>
</trkpt>
<trkpt lat="22.039635" lon="103.979927">
<ele>639.680176</ele>
<time>2011-04-26T05:02:00Z</time>
<desc>lat.=22.039635, lon.=103.979927, Alt.=639.680176m. Speed=21.924000m/h.</desc>
<speed>6.090000</speed>
</trkpt>
<trkpt lat="22.039328" lon="103.980179">
<ele>639.977051</ele>
<time>2011-04-26T05:02:05Z</time>
<desc>lat.=22.039328, lon.=103.980179, Alt.=639.977051m. Speed=31.643999m/h.</desc>
<speed>8.790000</speed>
</trkpt>
<trkpt lat="22.039114" lon="103.980499">
<ele>639.055176</ele>
<time>2011-04-26T05:02:10Z</time>
<desc>lat.=22.039114, lon.=103.980499, Alt.=639.055176m. Speed=27.288000m/h.</desc>
<speed>7.580000</speed>
</trkpt>
<trkpt lat="22.039135" lon="103.980804">
<ele>638.773926</ele>
<time>2011-04-26T05:02:15Z</time>
<desc>lat.=22.039135, lon.=103.980804, Alt.=638.773926m. Speed=16.884001m/h.</desc>
<speed>4.690000</speed>
</trkpt>
<trkpt lat="22.039150" lon="103.980949">
<ele>638.914551</ele>
<time>2011-04-26T05:02:20Z</time>
<desc>lat.=22.039150, lon.=103.980949, Alt.=638.914551m. Speed=7.992000m/h.</desc>
<speed>2.220000</speed>
</trkpt>
<trkpt lat="22.039183" lon="103.981033">
<ele>639.711426</ele>
<time>2011-04-26T05:02:25Z</time>
<desc>lat.=22.039183, lon.=103.981033, Alt.=639.711426m. Speed=4.716000m/h.</desc>
<speed>1.310000</speed>
</trkpt>
<trkpt lat="22.039286" lon="103.981133">
<ele>640.773926</ele>
<time>2011-04-26T05:02:30Z</time>
<desc>lat.=22.039286, lon.=103.981133, Alt.=640.773926m. Speed=9.180000m/h.</desc>
<speed>2.550000</speed>
</trkpt>
<trkpt lat="22.039398" lon="103.981232">
<ele>641.461426</ele>
<time>2011-04-26T05:02:35Z</time>
<desc>lat.=22.039398, lon.=103.981232, Alt.=641.461426m. Speed=5.940000m/h.</desc>
<speed>1.650000</speed>
</trkpt>
<trkpt lat="22.039503" lon="103.981361">
<ele>641.242676</ele>
<time>2011-04-26T05:02:40Z</time>
<desc>lat.=22.039503, lon.=103.981361, Alt.=641.242676m. Speed=7.812000m/h.</desc>
<speed>2.170000</speed>
</trkpt>
<trkpt lat="22.039574" lon="103.981461">
<ele>641.211426</ele>
<time>2011-04-26T05:02:45Z</time>
<desc>lat.=22.039574, lon.=103.981461, Alt.=641.211426m. Speed=6.372000m/h.</desc>
<speed>1.770000</speed>
</trkpt>
<trkpt lat="22.039663" lon="103.981537">
<ele>641.242676</ele>
<time>2011-04-26T05:02:50Z</time>
<desc>lat.=22.039663, lon.=103.981537, Alt.=641.242676m. Speed=8.064000m/h.</desc>
<speed>2.240000</speed>
</trkpt>
<trkpt lat="22.039759" lon="103.981628">
<ele>641.508301</ele>
<time>2011-04-26T05:02:55Z</time>
<desc>lat.=22.039759, lon.=103.981628, Alt.=641.508301m. Speed=9.324000m/h.</desc>
<speed>2.590000</speed>
</trkpt>
<trkpt lat="22.039814" lon="103.981659">
<ele>641.789551</ele>
<time>2011-04-26T05:03:00Z</time>
<desc>lat.=22.039814, lon.=103.981659, Alt.=641.789551m. Speed=7.776000m/h.</desc>
<speed>2.160000</speed>
</trkpt>
<trkpt lat="22.039841" lon="103.981758">
<ele>642.445801</ele>
<time>2011-04-26T05:03:05Z</time>
<desc>lat.=22.039841, lon.=103.981758, Alt.=642.445801m. Speed=7.488000m/h.</desc>
<speed>2.080000</speed>
</trkpt>
<trkpt lat="22.039791" lon="103.981834">
<ele>642.570801</ele>
<time>2011-04-26T05:03:10Z</time>
<desc>lat.=22.039791, lon.=103.981834, Alt.=642.570801m. Speed=8.244000m/h.</desc>
<speed>2.290000</speed>
</trkpt>
<trkpt lat="22.039709" lon="103.981926">
<ele>643.148926</ele>
<time>2011-04-26T05:03:15Z</time>
<desc>lat.=22.039709, lon.=103.981926, Alt.=643.148926m. Speed=7.236000m/h.</desc>
<speed>2.010000</speed>
</trkpt>
<trkpt lat="22.039625" lon="103.982002">
<ele>642.898926</ele>
<time>2011-04-26T05:03:20Z</time>
<desc>lat.=22.039625, lon.=103.982002, Alt.=642.898926m. Speed=8.172000m/h.</desc>
<speed>2.270000</speed>
</trkpt>
<trkpt lat="22.039539" lon="103.982101">
<ele>643.727051</ele>
<time>2011-04-26T05:03:25Z</time>
<desc>lat.=22.039539, lon.=103.982101, Alt.=643.727051m. Speed=9.900000m/h.</desc>
<speed>2.750000</speed>
</trkpt>
<trkpt lat="22.039457" lon="103.982193">
<ele>644.070801</ele>
<time>2011-04-26T05:03:30Z</time>
<desc>lat.=22.039457, lon.=103.982193, Alt.=644.070801m. Speed=8.028000m/h.</desc>
<speed>2.230000</speed>
</trkpt>
<trkpt lat="22.039358" lon="103.982292">
<ele>644.742676</ele>
<time>2011-04-26T05:03:35Z</time>
<desc>lat.=22.039358, lon.=103.982292, Alt.=644.742676m. Speed=5.508000m/h.</desc>
<speed>1.530000</speed>
</trkpt>
<trkpt lat="22.039265" lon="103.982422">
<ele>645.430176</ele>
<time>2011-04-26T05:03:40Z</time>
<desc>lat.=22.039265, lon.=103.982422, Alt.=645.430176m. Speed=9.036000m/h.</desc>
<speed>2.510000</speed>
</trkpt>
<trkpt lat="22.039206" lon="103.982544">
<ele>645.992676</ele>
<time>2011-04-26T05:03:45Z</time>
<desc>lat.=22.039206, lon.=103.982544, Alt.=645.992676m. Speed=8.316000m/h.</desc>
<speed>2.310000</speed>
</trkpt>
<trkpt lat="22.039162" lon="103.982742">
<ele>646.992676</ele>
<time>2011-04-26T05:03:50Z</time>
<desc>lat.=22.039162, lon.=103.982742, Alt.=646.992676m. Speed=10.800000m/h.</desc>
<speed>3.000000</speed>
</trkpt>
<trkpt lat="22.039165" lon="103.982903">
<ele>648.648926</ele>
<time>2011-04-26T05:03:55Z</time>
<desc>lat.=22.039165, lon.=103.982903, Alt.=648.648926m. Speed=9.504000m/h.</desc>
<speed>2.640000</speed>
</trkpt>
<trkpt lat="22.039165" lon="103.983055">
<ele>649.805176</ele>
<time>2011-04-26T05:04:00Z</time>
<desc>lat.=22.039165, lon.=103.983055, Alt.=649.805176m. Speed=10.440000m/h.</desc>
<speed>2.900000</speed>
</trkpt>
<trkpt lat="22.039190" lon="103.983231">
<ele>650.414551</ele>
<time>2011-04-26T05:04:05Z</time>
<desc>lat.=22.039190, lon.=103.983231, Alt.=650.414551m. Speed=11.844000m/h.</desc>
<speed>3.290000</speed>
</trkpt>
<trkpt lat="22.039227" lon="103.983383">
<ele>650.883301</ele>
<time>2011-04-26T05:04:10Z</time>
<desc>lat.=22.039227, lon.=103.983383, Alt.=650.883301m. Speed=11.952000m/h.</desc>
<speed>3.320000</speed>
</trkpt>
<trkpt lat="22.039307" lon="103.983559">
<ele>650.680176</ele>
<time>2011-04-26T05:04:15Z</time>
<desc>lat.=22.039307, lon.=103.983559, Alt.=650.680176m. Speed=14.184000m/h.</desc>
<speed>3.940000</speed>
</trkpt>
<trkpt lat="22.039392" lon="103.983734">
<ele>650.727051</ele>
<time>2011-04-26T05:04:20Z</time>
<desc>lat.=22.039392, lon.=103.983734, Alt.=650.727051m. Speed=12.924000m/h.</desc>
<speed>3.590000</speed>
</trkpt>
<trkpt lat="22.039392" lon="103.983925">
<ele>651.461426</ele>
<time>2011-04-26T05:04:25Z</time>
<desc>lat.=22.039392, lon.=103.983925, Alt.=651.461426m. Speed=14.112000m/h.</desc>
<speed>3.920000</speed>
</trkpt>
<trkpt lat="22.039362" lon="103.984100">
<ele>653.008301</ele>
<time>2011-04-26T05:04:30Z</time>
<desc>lat.=22.039362, lon.=103.984100, Alt.=653.008301m. Speed=14.796000m/h.</desc>
<speed>4.110000</speed>
</trkpt>
<trkpt lat="22.039354" lon="103.984360">
<ele>653.789551</ele>
<time>2011-04-26T05:04:35Z</time>
<desc>lat.=22.039354, lon.=103.984360, Alt.=653.789551m. Speed=17.208000m/h.</desc>
<speed>4.780000</speed>
</trkpt>
<trkpt lat="22.039381" lon="103.984619">
<ele>655.398926</ele>
<time>2011-04-26T05:04:40Z</time>
<desc>lat.=22.039381, lon.=103.984619, Alt.=655.398926m. Speed=18.035999m/h.</desc>
<speed>5.010000</speed>
</trkpt>
<trkpt lat="22.039486" lon="103.984840">
<ele>656.539551</ele>
<time>2011-04-26T05:04:45Z</time>
<desc>lat.=22.039486, lon.=103.984840, Alt.=656.539551m. Speed=13.752000m/h.</desc>
<speed>3.820000</speed>
</trkpt>
<trkpt lat="22.039389" lon="103.985023">
<ele>656.852051</ele>
<time>2011-04-26T05:04:50Z</time>
<desc>lat.=22.039389, lon.=103.985023, Alt.=656.852051m. Speed=18.108000m/h.</desc>
<speed>5.030000</speed>
</trkpt>
<trkpt lat="22.039352" lon="103.985237">
<ele>656.117676</ele>
<time>2011-04-26T05:04:55Z</time>
<desc>lat.=22.039352, lon.=103.985237, Alt.=656.117676m. Speed=12.816000m/h.</desc>
<speed>3.560000</speed>
</trkpt>
<trkpt lat="22.039505" lon="103.985474">
<ele>655.664551</ele>
<time>2011-04-26T05:05:00Z</time>
<desc>lat.=22.039505, lon.=103.985474, Alt.=655.664551m. Speed=19.728001m/h.</desc>
<speed>5.480000</speed>
</trkpt>
<trkpt lat="22.039658" lon="103.985672">
<ele>653.211426</ele>
<time>2011-04-26T05:05:05Z</time>
<desc>lat.=22.039658, lon.=103.985672, Alt.=653.211426m. Speed=15.804000m/h.</desc>
<speed>4.390000</speed>
</trkpt>
<trkpt lat="22.039722" lon="103.985825">
<ele>650.180176</ele>
<time>2011-04-26T05:05:10Z</time>
<desc>lat.=22.039722, lon.=103.985825, Alt.=650.180176m. Speed=14.724000m/h.</desc>
<speed>4.090000</speed>
</trkpt>
<trkpt lat="22.039740" lon="103.986015">
<ele>647.227051</ele>
<time>2011-04-26T05:05:15Z</time>
<desc>lat.=22.039740, lon.=103.986015, Alt.=647.227051m. Speed=18.540001m/h.</desc>
<speed>5.150000</speed>
</trkpt>
<trkpt lat="22.039719" lon="103.986320">
<ele>647.367676</ele>
<time>2011-04-26T05:05:20Z</time>
<desc>lat.=22.039719, lon.=103.986320, Alt.=647.367676m. Speed=21.563999m/h.</desc>
<speed>5.990000</speed>
</trkpt>
<trkpt lat="22.039865" lon="103.986580">
<ele>647.023926</ele>
<time>2011-04-26T05:05:25Z</time>
<desc>lat.=22.039865, lon.=103.986580, Alt.=647.023926m. Speed=20.232000m/h.</desc>
<speed>5.620000</speed>
</trkpt>
<trkpt lat="22.040115" lon="103.986755">
<ele>644.461426</ele>
<time>2011-04-26T05:05:30Z</time>
<desc>lat.=22.040115, lon.=103.986755, Alt.=644.461426m. Speed=23.184000m/h.</desc>
<speed>6.440000</speed>
</trkpt>
<trkpt lat="22.040272" lon="103.986992">
<ele>643.117676</ele>
<time>2011-04-26T05:05:35Z</time>
<desc>lat.=22.040272, lon.=103.986992, Alt.=643.117676m. Speed=19.260000m/h.</desc>
<speed>5.350000</speed>
</trkpt>
<trkpt lat="22.040314" lon="103.987228">
<ele>639.977051</ele>
<time>2011-04-26T05:05:40Z</time>
<desc>lat.=22.040314, lon.=103.987228, Alt.=639.977051m. Speed=12.492000m/h.</desc>
<speed>3.470000</speed>
</trkpt>
<trkpt lat="22.040329" lon="103.987343">
<ele>635.695801</ele>
<time>2011-04-26T05:05:45Z</time>
<desc>lat.=22.040329, lon.=103.987343, Alt.=635.695801m. Speed=1.368000m/h.</desc>
<speed>0.380000</speed>
</trkpt>
<trkpt lat="22.040346" lon="103.987343">
<ele>635.227051</ele>
<time>2011-04-26T05:05:50Z</time>
<desc>lat.=22.040346, lon.=103.987343, Alt.=635.227051m. Speed=0.180000m/h.</desc>
<speed>0.050000</speed>
</trkpt>
<trkpt lat="22.040346" lon="103.987343">
<ele>634.992676</ele>
<time>2011-04-26T05:05:55Z</time>
<desc>lat.=22.040346, lon.=103.987343, Alt.=634.992676m. Speed=0.288000m/h.</desc>
<speed>0.080000</speed>
</trkpt>
<trkpt lat="22.040344" lon="103.987343">
<ele>634.867676</ele>
<time>2011-04-26T05:06:00Z</time>
<desc>lat.=22.040344, lon.=103.987343, Alt.=634.867676m. Speed=0.468000m/h.</desc>
<speed>0.130000</speed>
</trkpt>
<trkpt lat="22.040348" lon="103.987350">
<ele>634.805176</ele>
<time>2011-04-26T05:06:05Z</time>
<desc>lat.=22.040348, lon.=103.987350, Alt.=634.805176m. Speed=0.828000m/h.</desc>
<speed>0.230000</speed>
</trkpt>
<trkpt lat="22.040352" lon="103.987350">
<ele>634.758301</ele>
<time>2011-04-26T05:06:10Z</time>
<desc>lat.=22.040352, lon.=103.987350, Alt.=634.758301m. Speed=0.324000m/h.</desc>
<speed>0.090000</speed>
</trkpt>
<trkpt lat="22.040354" lon="103.987350">
<ele>634.773926</ele>
<time>2011-04-26T05:06:15Z</time>
<desc>lat.=22.040354, lon.=103.987350, Alt.=634.773926m. Speed=0.540000m/h.</desc>
<speed>0.150000</speed>
</trkpt>
<trkpt lat="22.040361" lon="103.987358">
<ele>634.820801</ele>
<time>2011-04-26T05:06:20Z</time>
<desc>lat.=22.040361, lon.=103.987358, Alt.=634.820801m. Speed=0.540000m/h.</desc>
<speed>0.150000</speed>
</trkpt>
<trkpt lat="22.040365" lon="103.987358">
<ele>634.883301</ele>
<time>2011-04-26T05:06:25Z</time>
<desc>lat.=22.040365, lon.=103.987358, Alt.=634.883301m. Speed=0.216000m/h.</desc>
<speed>0.060000</speed>
</trkpt>
<trkpt lat="22.040367" lon="103.987366">
<ele>634.898926</ele>
<time>2011-04-26T05:06:30Z</time>
<desc>lat.=22.040367, lon.=103.987366, Alt.=634.898926m. Speed=1.008000m/h.</desc>
<speed>0.280000</speed>
</trkpt>
<trkpt lat="22.040365" lon="103.987381">
<ele>634.930176</ele>
<time>2011-04-26T05:06:35Z</time>
<desc>lat.=22.040365, lon.=103.987381, Alt.=634.930176m. Speed=3.636000m/h.</desc>
<speed>1.010000</speed>
</trkpt>
<trkpt lat="22.040348" lon="103.987518">
<ele>634.773926</ele>
<time>2011-04-26T05:06:40Z</time>
<desc>lat.=22.040348, lon.=103.987518, Alt.=634.773926m. Speed=12.600000m/h.</desc>
<speed>3.500000</speed>
</trkpt>
<trkpt lat="22.040323" lon="103.987755">
<ele>634.539551</ele>
<time>2011-04-26T05:06:45Z</time>
<desc>lat.=22.040323, lon.=103.987755, Alt.=634.539551m. Speed=16.452000m/h.</desc>
<speed>4.570000</speed>
</trkpt>
<trkpt lat="22.040352" lon="103.987991">
<ele>633.352051</ele>
<time>2011-04-26T05:06:50Z</time>
<desc>lat.=22.040352, lon.=103.987991, Alt.=633.352051m. Speed=13.716000m/h.</desc>
<speed>3.810000</speed>
</trkpt>
<trkpt lat="22.040428" lon="103.988190">
<ele>632.117676</ele>
<time>2011-04-26T05:06:55Z</time>
<desc>lat.=22.040428, lon.=103.988190, Alt.=632.117676m. Speed=16.740000m/h.</desc>
<speed>4.650000</speed>
</trkpt>
<trkpt lat="22.040539" lon="103.988472">
<ele>629.586426</ele>
<time>2011-04-26T05:07:00Z</time>
<desc>lat.=22.040539, lon.=103.988472, Alt.=629.586426m. Speed=21.780001m/h.</desc>
<speed>6.050000</speed>
</trkpt>
<trkpt lat="22.040546" lon="103.988785">
<ele>625.945801</ele>
<time>2011-04-26T05:07:05Z</time>
<desc>lat.=22.040546, lon.=103.988785, Alt.=625.945801m. Speed=22.500000m/h.</desc>
<speed>6.250000</speed>
</trkpt>
<trkpt lat="22.040533" lon="103.989014">
<ele>619.961426</ele>
<time>2011-04-26T05:07:10Z</time>
<desc>lat.=22.040533, lon.=103.989014, Alt.=619.961426m. Speed=12.420000m/h.</desc>
<speed>3.450000</speed>
</trkpt>
<trkpt lat="22.040430" lon="103.989082">
<ele>614.461426</ele>
<time>2011-04-26T05:07:15Z</time>
<desc>lat.=22.040430, lon.=103.989082, Alt.=614.461426m. Speed=2.160000m/h.</desc>
<speed>0.600000</speed>
</trkpt>
<trkpt lat="22.040432" lon="103.989090">
<ele>608.977051</ele>
<time>2011-04-26T05:07:20Z</time>
<desc>lat.=22.040432, lon.=103.989090, Alt.=608.977051m. Speed=1.044000m/h.</desc>
<speed>0.290000</speed>
</trkpt>
<trkpt lat="22.040438" lon="103.989044">
<ele>605.477051</ele>
<time>2011-04-26T05:07:25Z</time>
<desc>lat.=22.040438, lon.=103.989044, Alt.=605.477051m. Speed=0.792000m/h.</desc>
<speed>0.220000</speed>
</trkpt>
<trkpt lat="22.040432" lon="103.989029">
<ele>602.961426</ele>
<time>2011-04-26T05:07:30Z</time>
<desc>lat.=22.040432, lon.=103.989029, Alt.=602.961426m. Speed=0.684000m/h.</desc>
<speed>0.190000</speed>
</trkpt>
<trkpt lat="22.040432" lon="103.989021">
<ele>601.086426</ele>
<time>2011-04-26T05:07:35Z</time>
<desc>lat.=22.040432, lon.=103.989021, Alt.=601.086426m. Speed=0.360000m/h.</desc>
<speed>0.100000</speed>
</trkpt>
<trkpt lat="22.040434" lon="103.989014">
<ele>600.961426</ele>
<time>2011-04-26T05:07:40Z</time>
<desc>lat.=22.040434, lon.=103.989014, Alt.=600.961426m. Speed=0.252000m/h.</desc>
<speed>0.070000</speed>
</trkpt>
<trkpt lat="22.040432" lon="103.989021">
<ele>600.883301</ele>
<time>2011-04-26T05:07:45Z</time>
<desc>lat.=22.040432, lon.=103.989021, Alt.=600.883301m. Speed=0.540000m/h.</desc>
<speed>0.150000</speed>
</trkpt>
<trkpt lat="22.040430" lon="103.989029">
<ele>600.852051</ele>
<time>2011-04-26T05:07:50Z</time>
<desc>lat.=22.040430, lon.=103.989029, Alt.=600.852051m. Speed=0.720000m/h.</desc>
<speed>0.200000</speed>
</trkpt>
<trkpt lat="22.040424" lon="103.989037">
<ele>600.805176</ele>
<time>2011-04-26T05:07:55Z</time>
<desc>lat.=22.040424, lon.=103.989037, Alt.=600.805176m. Speed=0.828000m/h.</desc>
<speed>0.230000</speed>
</trkpt>
<trkpt lat="22.040413" lon="103.989037">
<ele>600.836426</ele>
<time>2011-04-26T05:08:00Z</time>
<desc>lat.=22.040413, lon.=103.989037, Alt.=600.836426m. Speed=0.576000m/h.</desc>
<speed>0.160000</speed>
</trkpt>
<trkpt lat="22.040411" lon="103.989044">
<ele>600.836426</ele>
<time>2011-04-26T05:08:05Z</time>
<desc>lat.=22.040411, lon.=103.989044, Alt.=600.836426m. Speed=0.360000m/h.</desc>
<speed>0.100000</speed>
</trkpt>
<trkpt lat="22.040409" lon="103.989052">
<ele>600.836426</ele>
<time>2011-04-26T05:08:10Z</time>
<desc>lat.=22.040409, lon.=103.989052, Alt.=600.836426m. Speed=0.540000m/h.</desc>
<speed>0.150000</speed>
</trkpt>
<trkpt lat="22.040407" lon="103.989059">
<ele>600.836426</ele>
<time>2011-04-26T05:08:15Z</time>
<desc>lat.=22.040407, lon.=103.989059, Alt.=600.836426m. Speed=1.332000m/h.</desc>
<speed>0.370000</speed>
</trkpt>
<trkpt lat="22.040400" lon="103.989067">
<ele>600.789551</ele>
<time>2011-04-26T05:08:20Z</time>
<desc>lat.=22.040400, lon.=103.989067, Alt.=600.789551m. Speed=1.080000m/h.</desc>
<speed>0.300000</speed>
</trkpt>
<trkpt lat="22.040304" lon="103.989098">
<ele>600.461426</ele>
<time>2011-04-26T05:08:25Z</time>
<desc>lat.=22.040304, lon.=103.989098, Alt.=600.461426m. Speed=14.796000m/h.</desc>
<speed>4.110000</speed>
</trkpt>
<trkpt lat="22.040104" lon="103.989128">
<ele>597.852051</ele>
<time>2011-04-26T05:08:30Z</time>
<desc>lat.=22.040104, lon.=103.989128, Alt.=597.852051m. Speed=13.068000m/h.</desc>
<speed>3.630000</speed>
</trkpt>
<trkpt lat="22.039934" lon="103.989128">
<ele>594.461426</ele>
<time>2011-04-26T05:08:35Z</time>
<desc>lat.=22.039934, lon.=103.989128, Alt.=594.461426m. Speed=11.124000m/h.</desc>
<speed>3.090000</speed>
</trkpt>
<trkpt lat="22.039799" lon="103.989128">
<ele>592.320801</ele>
<time>2011-04-26T05:08:40Z</time>
<desc>lat.=22.039799, lon.=103.989128, Alt.=592.320801m. Speed=7.776000m/h.</desc>
<speed>2.160000</speed>
</trkpt>
<trkpt lat="22.039728" lon="103.989159">
<ele>588.023926</ele>
<time>2011-04-26T05:08:45Z</time>
<desc>lat.=22.039728, lon.=103.989159, Alt.=588.023926m. Speed=3.744000m/h.</desc>
<speed>1.040000</speed>
</trkpt>
<trkpt lat="22.039732" lon="103.989136">
<ele>585.070801</ele>
<time>2011-04-26T05:08:50Z</time>
<desc>lat.=22.039732, lon.=103.989136, Alt.=585.070801m. Speed=0.540000m/h.</desc>
<speed>0.150000</speed>
</trkpt>
<trkpt lat="22.039728" lon="103.989136">
<ele>584.195801</ele>
<time>2011-04-26T05:08:55Z</time>
<desc>lat.=22.039728, lon.=103.989136, Alt.=584.195801m. Speed=0.108000m/h.</desc>
<speed>0.030000</speed>
</trkpt>
<trkpt lat="22.039726" lon="103.989136">
<ele>583.883301</ele>
<time>2011-04-26T05:09:00Z</time>
<desc>lat.=22.039726, lon.=103.989136, Alt.=583.883301m. Speed=0.396000m/h.</desc>
<speed>0.110000</speed>
</trkpt>
<trkpt lat="22.039722" lon="103.989128">
<ele>583.758301</ele>
<time>2011-04-26T05:09:05Z</time>
<desc>lat.=22.039722, lon.=103.989128, Alt.=583.758301m. Speed=0.360000m/h.</desc>
<speed>0.100000</speed>
</trkpt>
<trkpt lat="22.039717" lon="103.989128">
<ele>583.711426</ele>
<time>2011-04-26T05:09:10Z</time>
<desc>lat.=22.039717, lon.=103.989128, Alt.=583.711426m. Speed=0.612000m/h.</desc>
<speed>0.170000</speed>
</trkpt>
<trkpt lat="22.039711" lon="103.989128">
<ele>583.680176</ele>
<time>2011-04-26T05:09:15Z</time>
<desc>lat.=22.039711, lon.=103.989128, Alt.=583.680176m. Speed=0.468000m/h.</desc>
<speed>0.130000</speed>
</trkpt>
<trkpt lat="22.039703" lon="103.989120">
<ele>583.680176</ele>
<time>2011-04-26T05:09:20Z</time>
<desc>lat.=22.039703, lon.=103.989120, Alt.=583.680176m. Speed=1.188000m/h.</desc>
<speed>0.330000</speed>
</trkpt>
<trkpt lat="22.039690" lon="103.989128">
<ele>583.727051</ele>
<time>2011-04-26T05:09:25Z</time>
<desc>lat.=22.039690, lon.=103.989128, Alt.=583.727051m. Speed=0.684000m/h.</desc>
<speed>0.190000</speed>
</trkpt>
<trkpt lat="22.039684" lon="103.989128">
<ele>583.758301</ele>
<time>2011-04-26T05:09:30Z</time>
<desc>lat.=22.039684, lon.=103.989128, Alt.=583.758301m. Speed=0.324000m/h.</desc>
<speed>0.090000</speed>
</trkpt>
<trkpt lat="22.039690" lon="103.989128">
<ele>583.727051</ele>
<time>2011-04-26T05:09:35Z</time>
<desc>lat.=22.039690, lon.=103.989128, Alt.=583.727051m. Speed=0.396000m/h.</desc>
<speed>0.110000</speed>
</trkpt>
<trkpt lat="22.039698" lon="103.989128">
<ele>583.664551</ele>
<time>2011-04-26T05:09:40Z</time>
<desc>lat.=22.039698, lon.=103.989128, Alt.=583.664551m. Speed=0.756000m/h.</desc>
<speed>0.210000</speed>
</trkpt>
<trkpt lat="22.039703" lon="103.989120">
<ele>583.633301</ele>
<time>2011-04-26T05:09:45Z</time>
<desc>lat.=22.039703, lon.=103.989120, Alt.=583.633301m. Speed=0.144000m/h.</desc>
<speed>0.040000</speed>
</trkpt>
<trkpt lat="22.039701" lon="103.989120">
<ele>583.633301</ele>
<time>2011-04-26T05:09:50Z</time>
<desc>lat.=22.039701, lon.=103.989120, Alt.=583.633301m. Speed=0.144000m/h.</desc>
<speed>0.040000</speed>
</trkpt>
<trkpt lat="22.039700" lon="103.989120">
<ele>583.633301</ele>
<time>2011-04-26T05:09:55Z</time>
<desc>lat.=22.039700, lon.=103.989120, Alt.=583.633301m. Speed=0.432000m/h.</desc>
<speed>0.120000</speed>
</trkpt>
<trkpt lat="22.039701" lon="103.989113">
<ele>583.648926</ele>
<time>2011-04-26T05:10:00Z</time>
<desc>lat.=22.039701, lon.=103.989113, Alt.=583.648926m. Speed=0.504000m/h.</desc>
<speed>0.140000</speed>
</trkpt>
<trkpt lat="22.039703" lon="103.989113">
<ele>583.695801</ele>
<time>2011-04-26T05:10:05Z</time>
<desc>lat.=22.039703, lon.=103.989113, Alt.=583.695801m. Speed=0.252000m/h.</desc>
<speed>0.070000</speed>
</trkpt>
<trkpt lat="22.039703" lon="103.989113">
<ele>583.727051</ele>
<time>2011-04-26T05:10:10Z</time>
<desc>lat.=22.039703, lon.=103.989113, Alt.=583.727051m. Speed=0.468000m/h.</desc>
<speed>0.130000</speed>
</trkpt>
<trkpt lat="22.039707" lon="103.989105">
<ele>583.742676</ele>
<time>2011-04-26T05:10:15Z</time>
<desc>lat.=22.039707, lon.=103.989105, Alt.=583.742676m. Speed=0.396000m/h.</desc>
<speed>0.110000</speed>
</trkpt>
<trkpt lat="22.039711" lon="103.989090">
<ele>583.773926</ele>
<time>2011-04-26T05:10:20Z</time>
<desc>lat.=22.039711, lon.=103.989090, Alt.=583.773926m. Speed=1.116000m/h.</desc>
<speed>0.310000</speed>
</trkpt>
<trkpt lat="22.039717" lon="103.989082">
<ele>583.805176</ele>
<time>2011-04-26T05:10:25Z</time>
<desc>lat.=22.039717, lon.=103.989082, Alt.=583.805176m. Speed=0.864000m/h.</desc>
<speed>0.240000</speed>
</trkpt>
<trkpt lat="22.039717" lon="103.989067">
<ele>583.883301</ele>
<time>2011-04-26T05:10:30Z</time>
<desc>lat.=22.039717, lon.=103.989067, Alt.=583.883301m. Speed=0.648000m/h.</desc>
<speed>0.180000</speed>
</trkpt>
<trkpt lat="22.039717" lon="103.989059">
<ele>583.945801</ele>
<time>2011-04-26T05:10:35Z</time>
<desc>lat.=22.039717, lon.=103.989059, Alt.=583.945801m. Speed=1.044000m/h.</desc>
<speed>0.290000</speed>
</trkpt>
<trkpt lat="22.039719" lon="103.989044">
<ele>583.992676</ele>
<time>2011-04-26T05:10:40Z</time>
<desc>lat.=22.039719, lon.=103.989044, Alt.=583.992676m. Speed=0.900000m/h.</desc>
<speed>0.250000</speed>
</trkpt>
<trkpt lat="22.039721" lon="103.989037">
<ele>584.039551</ele>
<time>2011-04-26T05:10:45Z</time>
<desc>lat.=22.039721, lon.=103.989037, Alt.=584.039551m. Speed=0.000000m/h.</desc>
<speed>0.000000</speed>
</trkpt>
<trkpt lat="22.039719" lon="103.989044">
<ele>584.086426</ele>
<time>2011-04-26T05:10:50Z</time>
<desc>lat.=22.039719, lon.=103.989044, Alt.=584.086426m. Speed=0.540000m/h.</desc>
<speed>0.150000</speed>
</trkpt>
<trkpt lat="22.039722" lon="103.989052">
<ele>584.117676</ele>
<time>2011-04-26T05:10:55Z</time>
<desc>lat.=22.039722, lon.=103.989052, Alt.=584.117676m. Speed=0.504000m/h.</desc>
<speed>0.140000</speed>
</trkpt>
<trkpt lat="22.039724" lon="103.989052">
<ele>584.102051</ele>
<time>2011-04-26T05:11:00Z</time>
<desc>lat.=22.039724, lon.=103.989052, Alt.=584.102051m. Speed=0.108000m/h.</desc>
<speed>0.030000</speed>
</trkpt>
<trkpt lat="22.039728" lon="103.989052">
<ele>584.102051</ele>
<time>2011-04-26T05:11:05Z</time>
<desc>lat.=22.039728, lon.=103.989052, Alt.=584.102051m. Speed=0.504000m/h.</desc>
<speed>0.140000</speed>
</trkpt>
<trkpt lat="22.039730" lon="103.989059">
<ele>584.055176</ele>
<time>2011-04-26T05:11:10Z</time>
<desc>lat.=22.039730, lon.=103.989059, Alt.=584.055176m. Speed=0.108000m/h.</desc>
<speed>0.030000</speed>
</trkpt>
<trkpt lat="22.039728" lon="103.989059">
<ele>583.992676</ele>
<time>2011-04-26T05:11:15Z</time>
<desc>lat.=22.039728, lon.=103.989059, Alt.=583.992676m. Speed=0.144000m/h.</desc>
<speed>0.040000</speed>
</trkpt>
<trkpt lat="22.039728" lon="103.989067">
<ele>583.914551</ele>
<time>2011-04-26T05:11:20Z</time>
<desc>lat.=22.039728, lon.=103.989067, Alt.=583.914551m. Speed=0.612000m/h.</desc>
<speed>0.170000</speed>
</trkpt>
<trkpt lat="22.039734" lon="103.989067">
<ele>583.836426</ele>
<time>2011-04-26T05:11:25Z</time>
<desc>lat.=22.039734, lon.=103.989067, Alt.=583.836426m. Speed=0.396000m/h.</desc>
<speed>0.110000</speed>
</trkpt>
<trkpt lat="22.039736" lon="103.989075">
<ele>583.773926</ele>
<time>2011-04-26T05:11:30Z</time>
<desc>lat.=22.039736, lon.=103.989075, Alt.=583.773926m. Speed=0.288000m/h.</desc>
<speed>0.080000</speed>
</trkpt>
<trkpt lat="22.039736" lon="103.989075">
<ele>583.727051</ele>
<time>2011-04-26T05:11:35Z</time>
<desc>lat.=22.039736, lon.=103.989075, Alt.=583.727051m. Speed=0.360000m/h.</desc>
<speed>0.100000</speed>
</trkpt>
<trkpt lat="22.039734" lon="103.989067">
<ele>583.727051</ele>
<time>2011-04-26T05:11:40Z</time>
<desc>lat.=22.039734, lon.=103.989067, Alt.=583.727051m. Speed=0.216000m/h.</desc>
<speed>0.060000</speed>
</trkpt>
<trkpt lat="22.039736" lon="103.989067">
<ele>583.773926</ele>
<time>2011-04-26T05:11:45Z</time>
<desc>lat.=22.039736, lon.=103.989067, Alt.=583.773926m. Speed=1.116000m/h.</desc>
<speed>0.310000</speed>
</trkpt>
<trkpt lat="22.039745" lon="103.989059">
<ele>583.914551</ele>
<time>2011-04-26T05:11:50Z</time>
<desc>lat.=22.039745, lon.=103.989059, Alt.=583.914551m. Speed=0.792000m/h.</desc>
<speed>0.220000</speed>
</trkpt>
<trkpt lat="22.039732" lon="103.989044">
<ele>584.023926</ele>
<time>2011-04-26T05:11:55Z</time>
<desc>lat.=22.039732, lon.=103.989044, Alt.=584.023926m. Speed=3.708000m/h.</desc>
<speed>1.030000</speed>
</trkpt>
<trkpt lat="22.039598" lon="103.989037">
<ele>584.930176</ele>
<time>2011-04-26T05:12:00Z</time>
<desc>lat.=22.039598, lon.=103.989037, Alt.=584.930176m. Speed=14.976000m/h.</desc>
<speed>4.160000</speed>
</trkpt>
<trkpt lat="22.039371" lon="103.989014">
<ele>585.148926</ele>
<time>2011-04-26T05:12:05Z</time>
<desc>lat.=22.039371, lon.=103.989014, Alt.=585.148926m. Speed=17.892000m/h.</desc>
<speed>4.970000</speed>
</trkpt>
<trkpt lat="22.039110" lon="103.989082">
<ele>584.336426</ele>
<time>2011-04-26T05:12:10Z</time>
<desc>lat.=22.039110, lon.=103.989082, Alt.=584.336426m. Speed=20.988001m/h.</desc>
<speed>5.830000</speed>
</trkpt>
<trkpt lat="22.038847" lon="103.989212">
<ele>583.789551</ele>
<time>2011-04-26T05:12:15Z</time>
<desc>lat.=22.038847, lon.=103.989212, Alt.=583.789551m. Speed=20.916000m/h.</desc>
<speed>5.810000</speed>
</trkpt>
<trkpt lat="22.038597" lon="103.989334">
<ele>583.523926</ele>
<time>2011-04-26T05:12:20Z</time>
<desc>lat.=22.038597, lon.=103.989334, Alt.=583.523926m. Speed=17.172001m/h.</desc>
<speed>4.770000</speed>
</trkpt>
<trkpt lat="22.038317" lon="103.989365">
<ele>583.133301</ele>
<time>2011-04-26T05:12:25Z</time>
<desc>lat.=22.038317, lon.=103.989365, Alt.=583.133301m. Speed=9.828000m/h.</desc>
<speed>2.730000</speed>
</trkpt>
<trkpt lat="22.038143" lon="103.989204">
<ele>582.211426</ele>
<time>2011-04-26T05:12:30Z</time>
<desc>lat.=22.038143, lon.=103.989204, Alt.=582.211426m. Speed=13.572000m/h.</desc>
<speed>3.770000</speed>
</trkpt>
<trkpt lat="22.037928" lon="103.989098">
<ele>581.664551</ele>
<time>2011-04-26T05:12:35Z</time>
<desc>lat.=22.037928, lon.=103.989098, Alt.=581.664551m. Speed=14.256000m/h.</desc>
<speed>3.960000</speed>
</trkpt>
<trkpt lat="22.037720" lon="103.989059">
<ele>580.883301</ele>
<time>2011-04-26T05:12:40Z</time>
<desc>lat.=22.037720, lon.=103.989059, Alt.=580.883301m. Speed=16.308001m/h.</desc>
<speed>4.530000</speed>
</trkpt>
<trkpt lat="22.037506" lon="103.988998">
<ele>580.102051</ele>
<time>2011-04-26T05:12:45Z</time>
<desc>lat.=22.037506, lon.=103.988998, Alt.=580.102051m. Speed=10.764000m/h.</desc>
<speed>2.990000</speed>
</trkpt>
<trkpt lat="22.037310" lon="103.988899">
<ele>578.977051</ele>
<time>2011-04-26T05:12:50Z</time>
<desc>lat.=22.037310, lon.=103.988899, Alt.=578.977051m. Speed=16.020000m/h.</desc>
<speed>4.450000</speed>
</trkpt>
<trkpt lat="22.037106" lon="103.988831">
<ele>575.758301</ele>
<time>2011-04-26T05:12:55Z</time>
<desc>lat.=22.037106, lon.=103.988831, Alt.=575.758301m. Speed=13.176000m/h.</desc>
<speed>3.660000</speed>
</trkpt>
<trkpt lat="22.037128" lon="103.989021">
<ele>573.883301</ele>
<time>2011-04-26T05:13:00Z</time>
<desc>lat.=22.037128, lon.=103.989021, Alt.=573.883301m. Speed=13.140000m/h.</desc>
<speed>3.650000</speed>
</trkpt>
<trkpt lat="22.037218" lon="103.989197">
<ele>571.508301</ele>
<time>2011-04-26T05:13:05Z</time>
<desc>lat.=22.037218, lon.=103.989197, Alt.=571.508301m. Speed=18.864000m/h.</desc>
<speed>5.240000</speed>
</trkpt>
<trkpt lat="22.037394" lon="103.989372">
<ele>569.836426</ele>
<time>2011-04-26T05:13:10Z</time>
<desc>lat.=22.037394, lon.=103.989372, Alt.=569.836426m. Speed=16.775999m/h.</desc>
<speed>4.660000</speed>
</trkpt>
<trkpt lat="22.037527" lon="103.989487">
<ele>568.711426</ele>
<time>2011-04-26T05:13:15Z</time>
<desc>lat.=22.037527, lon.=103.989487, Alt.=568.711426m. Speed=9.900000m/h.</desc>
<speed>2.750000</speed>
</trkpt>
<trkpt lat="22.037592" lon="103.989616">
<ele>568.195801</ele>
<time>2011-04-26T05:13:20Z</time>
<desc>lat.=22.037592, lon.=103.989616, Alt.=568.195801m. Speed=6.912000m/h.</desc>
<speed>1.920000</speed>
</trkpt>
<trkpt lat="22.037615" lon="103.989746">
<ele>568.492676</ele>
<time>2011-04-26T05:13:25Z</time>
<desc>lat.=22.037615, lon.=103.989746, Alt.=568.492676m. Speed=6.444000m/h.</desc>
<speed>1.790000</speed>
</trkpt>
<trkpt lat="22.037663" lon="103.989807">
<ele>569.070801</ele>
<time>2011-04-26T05:13:30Z</time>
<desc>lat.=22.037663, lon.=103.989807, Alt.=569.070801m. Speed=2.448000m/h.</desc>
<speed>0.680000</speed>
</trkpt>
<trkpt lat="22.037643" lon="103.989838">
<ele>569.617676</ele>
<time>2011-04-26T05:13:35Z</time>
<desc>lat.=22.037643, lon.=103.989838, Alt.=569.617676m. Speed=1.404000m/h.</desc>
<speed>0.390000</speed>
</trkpt>
<trkpt lat="22.037739" lon="103.989883">
<ele>569.992676</ele>
<time>2011-04-26T05:13:40Z</time>
<desc>lat.=22.037739, lon.=103.989883, Alt.=569.992676m. Speed=4.212000m/h.</desc>
<speed>1.170000</speed>
</trkpt>
<trkpt lat="22.037834" lon="103.990059">
<ele>571.039551</ele>
<time>2011-04-26T05:13:45Z</time>
<desc>lat.=22.037834, lon.=103.990059, Alt.=571.039551m. Speed=5.904000m/h.</desc>
<speed>1.640000</speed>
</trkpt>
<trkpt lat="22.037916" lon="103.990379">
<ele>571.320801</ele>
<time>2011-04-26T05:13:50Z</time>
<desc>lat.=22.037916, lon.=103.990379, Alt.=571.320801m. Speed=11.160000m/h.</desc>
<speed>3.100000</speed>
</trkpt>
<trkpt lat="22.038034" lon="103.990562">
<ele>571.992676</ele>
<time>2011-04-26T05:13:55Z</time>
<desc>lat.=22.038034, lon.=103.990562, Alt.=571.992676m. Speed=7.380000m/h.</desc>
<speed>2.050000</speed>
</trkpt>
<trkpt lat="22.038052" lon="103.990723">
<ele>571.195801</ele>
<time>2011-04-26T05:14:00Z</time>
<desc>lat.=22.038052, lon.=103.990723, Alt.=571.195801m. Speed=0.684000m/h.</desc>
<speed>0.190000</speed>
</trkpt>
<trkpt lat="22.038067" lon="103.990730">
<ele>571.336426</ele>
<time>2011-04-26T05:14:05Z</time>
<desc>lat.=22.038067, lon.=103.990730, Alt.=571.336426m. Speed=0.756000m/h.</desc>
<speed>0.210000</speed>
</trkpt>
<trkpt lat="22.038069" lon="103.990738">
<ele>571.570801</ele>
<time>2011-04-26T05:14:10Z</time>
<desc>lat.=22.038069, lon.=103.990738, Alt.=571.570801m. Speed=0.144000m/h.</desc>
<speed>0.040000</speed>
</trkpt>
<trkpt lat="22.038071" lon="103.990746">
<ele>571.477051</ele>
<time>2011-04-26T05:14:15Z</time>
<desc>lat.=22.038071, lon.=103.990746, Alt.=571.477051m. Speed=0.468000m/h.</desc>
<speed>0.130000</speed>
</trkpt>
<trkpt lat="22.038073" lon="103.990746">
<ele>571.555176</ele>
<time>2011-04-26T05:14:20Z</time>
<desc>lat.=22.038073, lon.=103.990746, Alt.=571.555176m. Speed=0.000000m/h.</desc>
<speed>0.000000</speed>
</trkpt>
<trkpt lat="22.038073" lon="103.990746">
<ele>571.586426</ele>
<time>2011-04-26T05:14:25Z</time>
<desc>lat.=22.038073, lon.=103.990746, Alt.=571.586426m. Speed=0.072000m/h.</desc>
<speed>0.020000</speed>
</trkpt>
<trkpt lat="22.038074" lon="103.990746">
<ele>571.602051</ele>
<time>2011-04-26T05:14:30Z</time>
<desc>lat.=22.038074, lon.=103.990746, Alt.=571.602051m. Speed=0.108000m/h.</desc>
<speed>0.030000</speed>
</trkpt>
<trkpt lat="22.038074" lon="103.990746">
<ele>571.742676</ele>
<time>2011-04-26T05:14:35Z</time>
<desc>lat.=22.038074, lon.=103.990746, Alt.=571.742676m. Speed=0.288000m/h.</desc>
<speed>0.080000</speed>
</trkpt>
<trkpt lat="22.038073" lon="103.990746">
<ele>571.820801</ele>
<time>2011-04-26T05:14:40Z</time>
<desc>lat.=22.038073, lon.=103.990746, Alt.=571.820801m. Speed=0.180000m/h.</desc>
<speed>0.050000</speed>
</trkpt>
<trkpt lat="22.038071" lon="103.990746">
<ele>571.961426</ele>
<time>2011-04-26T05:14:45Z</time>
<desc>lat.=22.038071, lon.=103.990746, Alt.=571.961426m. Speed=0.180000m/h.</desc>
<speed>0.050000</speed>
</trkpt>
<trkpt lat="22.038069" lon="103.990746">
<ele>572.117676</ele>
<time>2011-04-26T05:14:50Z</time>
<desc>lat.=22.038069, lon.=103.990746, Alt.=572.117676m. Speed=0.144000m/h.</desc>
<speed>0.040000</speed>
</trkpt>
<trkpt lat="22.038071" lon="103.990746">
<ele>572.273926</ele>
<time>2011-04-26T05:14:55Z</time>
<desc>lat.=22.038071, lon.=103.990746, Alt.=572.273926m. Speed=0.144000m/h.</desc>
<speed>0.040000</speed>
</trkpt>
<trkpt lat="22.038069" lon="103.990738">
<ele>572.383301</ele>
<time>2011-04-26T05:15:00Z</time>
<desc>lat.=22.038069, lon.=103.990738, Alt.=572.383301m. Speed=0.180000m/h.</desc>
<speed>0.050000</speed>
</trkpt>
<trkpt lat="22.038069" lon="103.990738">
<ele>572.539551</ele>
<time>2011-04-26T05:15:05Z</time>
<desc>lat.=22.038069, lon.=103.990738, Alt.=572.539551m. Speed=0.108000m/h.</desc>
<speed>0.030000</speed>
</trkpt>
<trkpt lat="22.038071" lon="103.990738">
<ele>572.711426</ele>
<time>2011-04-26T05:15:10Z</time>
<desc>lat.=22.038071, lon.=103.990738, Alt.=572.711426m. Speed=0.036000m/h.</desc>
<speed>0.010000</speed>
</trkpt>
<trkpt lat="22.038076" lon="103.990753">
<ele>572.883301</ele>
<time>2011-04-26T05:15:15Z</time>
<desc>lat.=22.038076, lon.=103.990753, Alt.=572.883301m. Speed=0.108000m/h.</desc>
<speed>0.030000</speed>
</trkpt>
<trkpt lat="22.038073" lon="103.990753">
<ele>573.133301</ele>
<time>2011-04-26T05:15:20Z</time>
<desc>lat.=22.038073, lon.=103.990753, Alt.=573.133301m. Speed=0.108000m/h.</desc>
<speed>0.030000</speed>
</trkpt>
<trkpt lat="22.038067" lon="103.990761">
<ele>573.430176</ele>
<time>2011-04-26T05:15:25Z</time>
<desc>lat.=22.038067, lon.=103.990761, Alt.=573.430176m. Speed=0.180000m/h.</desc>
<speed>0.050000</speed>
</trkpt>
<trkpt lat="22.038082" lon="103.990799">
<ele>573.711426</ele>
<time>2011-04-26T05:15:30Z</time>
<desc>lat.=22.038082, lon.=103.990799, Alt.=573.711426m. Speed=0.468000m/h.</desc>
<speed>0.130000</speed>
</trkpt>
<trkpt lat="22.038088" lon="103.990814">
<ele>574.086426</ele>
<time>2011-04-26T05:15:35Z</time>
<desc>lat.=22.038088, lon.=103.990814, Alt.=574.086426m. Speed=0.576000m/h.</desc>
<speed>0.160000</speed>
</trkpt>
<trkpt lat="22.038084" lon="103.990814">
<ele>574.336426</ele>
<time>2011-04-26T05:15:40Z</time>
<desc>lat.=22.038084, lon.=103.990814, Alt.=574.336426m. Speed=0.396000m/h.</desc>
<speed>0.110000</speed>
</trkpt>
<trkpt lat="22.038090" lon="103.990807">
<ele>574.445801</ele>
<time>2011-04-26T05:15:45Z</time>
<desc>lat.=22.038090, lon.=103.990807, Alt.=574.445801m. Speed=0.324000m/h.</desc>
<speed>0.090000</speed>
</trkpt>
<trkpt lat="22.038073" lon="103.990814">
<ele>574.602051</ele>
<time>2011-04-26T05:15:50Z</time>
<desc>lat.=22.038073, lon.=103.990814, Alt.=574.602051m. Speed=0.396000m/h.</desc>
<speed>0.110000</speed>
</trkpt>
<trkpt lat="22.038069" lon="103.990822">
<ele>574.742676</ele>
<time>2011-04-26T05:15:55Z</time>
<desc>lat.=22.038069, lon.=103.990822, Alt.=574.742676m. Speed=0.252000m/h.</desc>
<speed>0.070000</speed>
</trkpt>
<trkpt lat="22.038065" lon="103.990822">
<ele>574.883301</ele>
<time>2011-04-26T05:16:00Z</time>
<desc>lat.=22.038065, lon.=103.990822, Alt.=574.883301m. Speed=0.468000m/h.</desc>
<speed>0.130000</speed>
</trkpt>
<trkpt lat="22.038057" lon="103.990822">
<ele>575.023926</ele>
<time>2011-04-26T05:16:05Z</time>
<desc>lat.=22.038057, lon.=103.990822, Alt.=575.023926m. Speed=0.756000m/h.</desc>
<speed>0.210000</speed>
</trkpt>
<trkpt lat="22.038048" lon="103.990822">
<ele>575.164551</ele>
<time>2011-04-26T05:16:10Z</time>
<desc>lat.=22.038048, lon.=103.990822, Alt.=575.164551m. Speed=0.900000m/h.</desc>
<speed>0.250000</speed>
</trkpt>
<trkpt lat="22.038034" lon="103.990814">
<ele>575.305176</ele>
<time>2011-04-26T05:16:15Z</time>
<desc>lat.=22.038034, lon.=103.990814, Alt.=575.305176m. Speed=1.008000m/h.</desc>
<speed>0.280000</speed>
</trkpt>
<trkpt lat="22.038023" lon="103.990814">
<ele>575.461426</ele>
<time>2011-04-26T05:16:20Z</time>
<desc>lat.=22.038023, lon.=103.990814, Alt.=575.461426m. Speed=0.936000m/h.</desc>
<speed>0.260000</speed>
</trkpt>
<trkpt lat="22.038010" lon="103.990807">
<ele>575.617676</ele>
<time>2011-04-26T05:16:25Z</time>
<desc>lat.=22.038010, lon.=103.990807, Alt.=575.617676m. Speed=1.044000m/h.</desc>
<speed>0.290000</speed>
</trkpt>
<trkpt lat="22.038000" lon="103.990807">
<ele>575.758301</ele>
<time>2011-04-26T05:16:30Z</time>
<desc>lat.=22.038000, lon.=103.990807, Alt.=575.758301m. Speed=0.432000m/h.</desc>
<speed>0.120000</speed>
</trkpt>
<trkpt lat="22.038004" lon="103.990807">
<ele>575.898926</ele>
<time>2011-04-26T05:16:35Z</time>
<desc>lat.=22.038004, lon.=103.990807, Alt.=575.898926m. Speed=0.900000m/h.</desc>
<speed>0.250000</speed>
</trkpt>
<trkpt lat="22.038013" lon="103.990807">
<ele>576.055176</ele>
<time>2011-04-26T05:16:40Z</time>
<desc>lat.=22.038013, lon.=103.990807, Alt.=576.055176m. Speed=0.540000m/h.</desc>
<speed>0.150000</speed>
</trkpt>
<trkpt lat="22.038017" lon="103.990799">
<ele>576.211426</ele>
<time>2011-04-26T05:16:45Z</time>
<desc>lat.=22.038017, lon.=103.990799, Alt.=576.211426m. Speed=0.468000m/h.</desc>
<speed>0.130000</speed>
</trkpt>
<trkpt lat="22.038021" lon="103.990791">
<ele>576.383301</ele>
<time>2011-04-26T05:16:50Z</time>
<desc>lat.=22.038021, lon.=103.990791, Alt.=576.383301m. Speed=0.684000m/h.</desc>
<speed>0.190000</speed>
</trkpt>
<trkpt lat="22.038025" lon="103.990784">
<ele>576.539551</ele>
<time>2011-04-26T05:16:55Z</time>
<desc>lat.=22.038025, lon.=103.990784, Alt.=576.539551m. Speed=0.936000m/h.</desc>
<speed>0.260000</speed>
</trkpt>
<trkpt lat="22.038034" lon="103.990776">
<ele>576.680176</ele>
<time>2011-04-26T05:17:00Z</time>
<desc>lat.=22.038034, lon.=103.990776, Alt.=576.680176m. Speed=1.044000m/h.</desc>
<speed>0.290000</speed>
</trkpt>
<trkpt lat="22.038050" lon="103.990776">
<ele>576.695801</ele>
<time>2011-04-26T05:17:05Z</time>
<desc>lat.=22.038050, lon.=103.990776, Alt.=576.695801m. Speed=0.936000m/h.</desc>
<speed>0.260000</speed>
</trkpt>
<trkpt lat="22.038057" lon="103.990761">
<ele>576.852051</ele>
<time>2011-04-26T05:17:10Z</time>
<desc>lat.=22.038057, lon.=103.990761, Alt.=576.852051m. Speed=1.080000m/h.</desc>
<speed>0.300000</speed>
</trkpt>
<trkpt lat="22.038069" lon="103.990753">
<ele>576.977051</ele>
<time>2011-04-26T05:17:15Z</time>
<desc>lat.=22.038069, lon.=103.990753, Alt.=576.977051m. Speed=1.044000m/h.</desc>
<speed>0.290000</speed>
</trkpt>
<trkpt lat="22.038097" lon="103.990753">
<ele>577.086426</ele>
<time>2011-04-26T05:17:20Z</time>
<desc>lat.=22.038097, lon.=103.990753, Alt.=577.086426m. Speed=1.188000m/h.</desc>
<speed>0.330000</speed>
</trkpt>
<trkpt lat="22.038126" lon="103.990723">
<ele>577.320801</ele>
<time>2011-04-26T05:17:25Z</time>
<desc>lat.=22.038126, lon.=103.990723, Alt.=577.320801m. Speed=1.404000m/h.</desc>
<speed>0.390000</speed>
</trkpt>
<trkpt lat="22.038155" lon="103.990730">
<ele>577.461426</ele>
<time>2011-04-26T05:17:30Z</time>
<desc>lat.=22.038155, lon.=103.990730, Alt.=577.461426m. Speed=1.440000m/h.</desc>
<speed>0.400000</speed>
</trkpt>
<trkpt lat="22.038145" lon="103.990753">
<ele>577.602051</ele>
<time>2011-04-26T05:17:35Z</time>
<desc>lat.=22.038145, lon.=103.990753, Alt.=577.602051m. Speed=0.828000m/h.</desc>
<speed>0.230000</speed>
</trkpt>
<trkpt lat="22.038137" lon="103.990768">
<ele>577.852051</ele>
<time>2011-04-26T05:17:40Z</time>
<desc>lat.=22.038137, lon.=103.990768, Alt.=577.852051m. Speed=0.900000m/h.</desc>
<speed>0.250000</speed>
</trkpt>
<trkpt lat="22.038145" lon="103.990776">
<ele>578.008301</ele>
<time>2011-04-26T05:17:45Z</time>
<desc>lat.=22.038145, lon.=103.990776, Alt.=578.008301m. Speed=0.792000m/h.</desc>
<speed>0.220000</speed>
</trkpt>
<trkpt lat="22.038149" lon="103.990784">
<ele>578.180176</ele>
<time>2011-04-26T05:17:50Z</time>
<desc>lat.=22.038149, lon.=103.990784, Alt.=578.180176m. Speed=0.792000m/h.</desc>
<speed>0.220000</speed>
</trkpt>
<trkpt lat="22.038151" lon="103.990799">
<ele>578.336426</ele>
<time>2011-04-26T05:17:55Z</time>
<desc>lat.=22.038151, lon.=103.990799, Alt.=578.336426m. Speed=0.864000m/h.</desc>
<speed>0.240000</speed>
</trkpt>
<trkpt lat="22.038149" lon="103.990807">
<ele>578.492676</ele>
<time>2011-04-26T05:18:00Z</time>
<desc>lat.=22.038149, lon.=103.990807, Alt.=578.492676m. Speed=0.864000m/h.</desc>
<speed>0.240000</speed>
</trkpt>
<trkpt lat="22.038149" lon="103.990822">
<ele>578.664551</ele>
<time>2011-04-26T05:18:05Z</time>
<desc>lat.=22.038149, lon.=103.990822, Alt.=578.664551m. Speed=0.972000m/h.</desc>
<speed>0.270000</speed>
</trkpt>
<trkpt lat="22.038151" lon="103.990829">
<ele>578.836426</ele>
<time>2011-04-26T05:18:10Z</time>
<desc>lat.=22.038151, lon.=103.990829, Alt.=578.836426m. Speed=0.576000m/h.</desc>
<speed>0.160000</speed>
</trkpt>
<trkpt lat="22.038153" lon="103.990837">
<ele>579.008301</ele>
<time>2011-04-26T05:18:15Z</time>
<desc>lat.=22.038153, lon.=103.990837, Alt.=579.008301m. Speed=0.324000m/h.</desc>
<speed>0.090000</speed>
</trkpt>
<trkpt lat="22.038143" lon="103.990829">
<ele>579.148926</ele>
<time>2011-04-26T05:18:20Z</time>
<desc>lat.=22.038143, lon.=103.990829, Alt.=579.148926m. Speed=1.080000m/h.</desc>
<speed>0.300000</speed>
</trkpt>
<trkpt lat="22.038080" lon="103.990799">
<ele>579.461426</ele>
<time>2011-04-26T05:18:25Z</time>
<desc>lat.=22.038080, lon.=103.990799, Alt.=579.461426m. Speed=1.728000m/h.</desc>
<speed>0.480000</speed>
</trkpt>
<trkpt lat="22.038065" lon="103.990791">
<ele>579.992676</ele>
<time>2011-04-26T05:18:30Z</time>
<desc>lat.=22.038065, lon.=103.990791, Alt.=579.992676m. Speed=1.332000m/h.</desc>
<speed>0.370000</speed>
</trkpt>
<trkpt lat="22.038054" lon="103.990807">
<ele>580.320801</ele>
<time>2011-04-26T05:18:35Z</time>
<desc>lat.=22.038054, lon.=103.990807, Alt.=580.320801m. Speed=1.476000m/h.</desc>
<speed>0.410000</speed>
</trkpt>
<trkpt lat="22.037994" lon="103.990898">
<ele>580.555176</ele>
<time>2011-04-26T05:18:40Z</time>
<desc>lat.=22.037994, lon.=103.990898, Alt.=580.555176m. Speed=9.396000m/h.</desc>
<speed>2.610000</speed>
</trkpt>
<trkpt lat="22.037880" lon="103.990997">
<ele>580.789551</ele>
<time>2011-04-26T05:18:45Z</time>
<desc>lat.=22.037880, lon.=103.990997, Alt.=580.789551m. Speed=12.060000m/h.</desc>
<speed>3.350000</speed>
</trkpt>
<trkpt lat="22.037733" lon="103.991165">
<ele>581.414551</ele>
<time>2011-04-26T05:18:50Z</time>
<desc>lat.=22.037733, lon.=103.991165, Alt.=581.414551m. Speed=19.728001m/h.</desc>
<speed>5.480000</speed>
</trkpt>
<trkpt lat="22.037539" lon="103.991394">
<ele>581.789551</ele>
<time>2011-04-26T05:18:55Z</time>
<desc>lat.=22.037539, lon.=103.991394, Alt.=581.789551m. Speed=19.044001m/h.</desc>
<speed>5.290000</speed>
</trkpt>
<trkpt lat="22.037394" lon="103.991623">
<ele>581.555176</ele>
<time>2011-04-26T05:19:00Z</time>
<desc>lat.=22.037394, lon.=103.991623, Alt.=581.555176m. Speed=17.028000m/h.</desc>
<speed>4.730000</speed>
</trkpt>
<trkpt lat="22.037313" lon="103.991867">
<ele>581.414551</ele>
<time>2011-04-26T05:19:05Z</time>
<desc>lat.=22.037313, lon.=103.991867, Alt.=581.414551m. Speed=14.076000m/h.</desc>
<speed>3.910000</speed>
</trkpt>
<trkpt lat="22.037169" lon="103.992172">
<ele>580.273926</ele>
<time>2011-04-26T05:19:10Z</time>
<desc>lat.=22.037169, lon.=103.992172, Alt.=580.273926m. Speed=15.732000m/h.</desc>
<speed>4.370000</speed>
</trkpt>
<trkpt lat="22.036844" lon="103.992340">
<ele>580.227051</ele>
<time>2011-04-26T05:19:15Z</time>
<desc>lat.=22.036844, lon.=103.992340, Alt.=580.227051m. Speed=25.200001m/h.</desc>
<speed>7.000000</speed>
</trkpt>
<trkpt lat="22.036596" lon="103.992538">
<ele>578.258301</ele>
<time>2011-04-26T05:19:20Z</time>
<desc>lat.=22.036596, lon.=103.992538, Alt.=578.258301m. Speed=23.868000m/h.</desc>
<speed>6.630000</speed>
</trkpt>
<trkpt lat="22.036644" lon="103.992882">
<ele>578.789551</ele>
<time>2011-04-26T05:19:25Z</time>
<desc>lat.=22.036644, lon.=103.992882, Alt.=578.789551m. Speed=22.320000m/h.</desc>
<speed>6.200000</speed>
</trkpt>
<trkpt lat="22.036846" lon="103.993027">
<ele>579.242676</ele>
<time>2011-04-26T05:19:30Z</time>
<desc>lat.=22.036846, lon.=103.993027, Alt.=579.242676m. Speed=15.120000m/h.</desc>
<speed>4.200000</speed>
</trkpt>
<trkpt lat="22.036934" lon="103.993149">
<ele>580.258301</ele>
<time>2011-04-26T05:19:35Z</time>
<desc>lat.=22.036934, lon.=103.993149, Alt.=580.258301m. Speed=9.468000m/h.</desc>
<speed>2.630000</speed>
</trkpt>
<trkpt lat="22.037064" lon="103.993217">
<ele>581.086426</ele>
<time>2011-04-26T05:19:40Z</time>
<desc>lat.=22.037064, lon.=103.993217, Alt.=581.086426m. Speed=7.416000m/h.</desc>
<speed>2.060000</speed>
</trkpt>
<trkpt lat="22.037174" lon="103.993286">
<ele>582.664551</ele>
<time>2011-04-26T05:19:45Z</time>
<desc>lat.=22.037174, lon.=103.993286, Alt.=582.664551m. Speed=7.452000m/h.</desc>
<speed>2.070000</speed>
</trkpt>
<trkpt lat="22.037281" lon="103.993340">
<ele>584.164551</ele>
<time>2011-04-26T05:19:50Z</time>
<desc>lat.=22.037281, lon.=103.993340, Alt.=584.164551m. Speed=6.516000m/h.</desc>
<speed>1.810000</speed>
</trkpt>
<trkpt lat="22.037386" lon="103.993378">
<ele>585.555176</ele>
<time>2011-04-26T05:19:55Z</time>
<desc>lat.=22.037386, lon.=103.993378, Alt.=585.555176m. Speed=6.912000m/h.</desc>
<speed>1.920000</speed>
</trkpt>
<trkpt lat="22.037497" lon="103.993408">
<ele>587.180176</ele>
<time>2011-04-26T05:20:00Z</time>
<desc>lat.=22.037497, lon.=103.993408, Alt.=587.180176m. Speed=6.084000m/h.</desc>
<speed>1.690000</speed>
</trkpt>
<trkpt lat="22.037643" lon="103.993477">
<ele>588.977051</ele>
<time>2011-04-26T05:20:05Z</time>
<desc>lat.=22.037643, lon.=103.993477, Alt.=588.977051m. Speed=8.496000m/h.</desc>
<speed>2.360000</speed>
</trkpt>
<trkpt lat="22.037773" lon="103.993523">
<ele>590.539551</ele>
<time>2011-04-26T05:20:10Z</time>
<desc>lat.=22.037773, lon.=103.993523, Alt.=590.539551m. Speed=9.144000m/h.</desc>
<speed>2.540000</speed>
</trkpt>
<trkpt lat="22.037952" lon="103.993599">
<ele>592.055176</ele>
<time>2011-04-26T05:20:15Z</time>
<desc>lat.=22.037952, lon.=103.993599, Alt.=592.055176m. Speed=9.612000m/h.</desc>
<speed>2.670000</speed>
</trkpt>
<trkpt lat="22.038061" lon="103.993607">
<ele>593.711426</ele>
<time>2011-04-26T05:20:20Z</time>
<desc>lat.=22.038061, lon.=103.993607, Alt.=593.711426m. Speed=6.084000m/h.</desc>
<speed>1.690000</speed>
</trkpt>
<trkpt lat="22.038277" lon="103.993690">
<ele>592.836426</ele>
<time>2011-04-26T05:20:25Z</time>
<desc>lat.=22.038277, lon.=103.993690, Alt.=592.836426m. Speed=9.288000m/h.</desc>
<speed>2.580000</speed>
</trkpt>
<trkpt lat="22.038412" lon="103.993820">
<ele>593.086426</ele>
<time>2011-04-26T05:20:30Z</time>
<desc>lat.=22.038412, lon.=103.993820, Alt.=593.086426m. Speed=14.652000m/h.</desc>
<speed>4.070000</speed>
</trkpt>
<trkpt lat="22.038559" lon="103.994110">
<ele>589.742676</ele>
<time>2011-04-26T05:20:35Z</time>
<desc>lat.=22.038559, lon.=103.994110, Alt.=589.742676m. Speed=20.879999m/h.</desc>
<speed>5.800000</speed>
</trkpt>
<trkpt lat="22.038771" lon="103.994370">
<ele>586.570801</ele>
<time>2011-04-26T05:20:40Z</time>
<desc>lat.=22.038771, lon.=103.994370, Alt.=586.570801m. Speed=24.695999m/h.</desc>
<speed>6.860000</speed>
</trkpt>
<trkpt lat="22.039066" lon="103.994591">
<ele>583.914551</ele>
<time>2011-04-26T05:20:45Z</time>
<desc>lat.=22.039066, lon.=103.994591, Alt.=583.914551m. Speed=26.676001m/h.</desc>
<speed>7.410000</speed>
</trkpt>
<trkpt lat="22.039316" lon="103.994789">
<ele>582.539551</ele>
<time>2011-04-26T05:20:50Z</time>
<desc>lat.=22.039316, lon.=103.994789, Alt.=582.539551m. Speed=21.780001m/h.</desc>
<speed>6.050000</speed>
</trkpt>
<trkpt lat="22.039490" lon="103.994949">
<ele>581.617676</ele>
<time>2011-04-26T05:20:55Z</time>
<desc>lat.=22.039490, lon.=103.994949, Alt.=581.617676m. Speed=14.040000m/h.</desc>
<speed>3.900000</speed>
</trkpt>
<trkpt lat="22.039627" lon="103.995041">
<ele>580.930176</ele>
<time>2011-04-26T05:21:00Z</time>
<desc>lat.=22.039627, lon.=103.995041, Alt.=580.930176m. Speed=9.288000m/h.</desc>
<speed>2.580000</speed>
</trkpt>
<trkpt lat="22.039749" lon="103.995155">
<ele>580.023926</ele>
<time>2011-04-26T05:21:05Z</time>
<desc>lat.=22.039749, lon.=103.995155, Alt.=580.023926m. Speed=12.024000m/h.</desc>
<speed>3.340000</speed>
</trkpt>
<trkpt lat="22.039846" lon="103.995300">
<ele>578.383301</ele>
<time>2011-04-26T05:21:10Z</time>
<desc>lat.=22.039846, lon.=103.995300, Alt.=578.383301m. Speed=14.760000m/h.</desc>
<speed>4.100000</speed>
</trkpt>
<trkpt lat="22.039888" lon="103.995514">
<ele>576.008301</ele>
<time>2011-04-26T05:21:15Z</time>
<desc>lat.=22.039888, lon.=103.995514, Alt.=576.008301m. Speed=16.775999m/h.</desc>
<speed>4.660000</speed>
</trkpt>
<trkpt lat="22.039879" lon="103.995743">
<ele>574.758301</ele>
<time>2011-04-26T05:21:20Z</time>
<desc>lat.=22.039879, lon.=103.995743, Alt.=574.758301m. Speed=16.271999m/h.</desc>
<speed>4.520000</speed>
</trkpt>
<trkpt lat="22.039761" lon="103.996010">
<ele>573.164551</ele>
<time>2011-04-26T05:21:25Z</time>
<desc>lat.=22.039761, lon.=103.996010, Alt.=573.164551m. Speed=21.851999m/h.</desc>
<speed>6.070000</speed>
</trkpt>
<trkpt lat="22.039604" lon="103.996391">
<ele>571.617676</ele>
<time>2011-04-26T05:21:30Z</time>
<desc>lat.=22.039604, lon.=103.996391, Alt.=571.617676m. Speed=29.988001m/h.</desc>
<speed>8.330000</speed>
</trkpt>
<trkpt lat="22.039585" lon="103.996826">
<ele>570.383301</ele>
<time>2011-04-26T05:21:35Z</time>
<desc>lat.=22.039585, lon.=103.996826, Alt.=570.383301m. Speed=30.059999m/h.</desc>
<speed>8.350000</speed>
</trkpt>
<trkpt lat="22.039513" lon="103.997223">
<ele>569.492676</ele>
<time>2011-04-26T05:21:40Z</time>
<desc>lat.=22.039513, lon.=103.997223, Alt.=569.492676m. Speed=30.492001m/h.</desc>
<speed>8.470000</speed>
</trkpt>
<trkpt lat="22.039345" lon="103.997620">
<ele>568.305176</ele>
<time>2011-04-26T05:21:45Z</time>
<desc>lat.=22.039345, lon.=103.997620, Alt.=568.305176m. Speed=29.988001m/h.</desc>
<speed>8.330000</speed>
</trkpt>
<trkpt lat="22.039139" lon="103.997978">
<ele>567.539551</ele>
<time>2011-04-26T05:21:50Z</time>
<desc>lat.=22.039139, lon.=103.997978, Alt.=567.539551m. Speed=25.812000m/h.</desc>
<speed>7.170000</speed>
</trkpt>
<trkpt lat="22.039007" lon="103.998192">
<ele>566.414551</ele>
<time>2011-04-26T05:21:55Z</time>
<desc>lat.=22.039007, lon.=103.998192, Alt.=566.414551m. Speed=11.736000m/h.</desc>
<speed>3.260000</speed>
</trkpt>
<trkpt lat="22.038877" lon="103.998344">
<ele>566.523926</ele>
<time>2011-04-26T05:22:00Z</time>
<desc>lat.=22.038877, lon.=103.998344, Alt.=566.523926m. Speed=17.424000m/h.</desc>
<speed>4.840000</speed>
</trkpt>
<trkpt lat="22.038721" lon="103.998543">
<ele>566.883301</ele>
<time>2011-04-26T05:22:05Z</time>
<desc>lat.=22.038721, lon.=103.998543, Alt.=566.883301m. Speed=15.516000m/h.</desc>
<speed>4.310000</speed>
</trkpt>
<trkpt lat="22.038521" lon="103.998772">
<ele>566.945801</ele>
<time>2011-04-26T05:22:10Z</time>
<desc>lat.=22.038521, lon.=103.998772, Alt.=566.945801m. Speed=18.827999m/h.</desc>
<speed>5.230000</speed>
</trkpt>
<trkpt lat="22.038296" lon="103.999008">
<ele>567.070801</ele>
<time>2011-04-26T05:22:15Z</time>
<desc>lat.=22.038296, lon.=103.999008, Alt.=567.070801m. Speed=22.931999m/h.</desc>
<speed>6.370000</speed>
</trkpt>
<trkpt lat="22.037975" lon="103.999321">
<ele>567.148926</ele>
<time>2011-04-26T05:22:20Z</time>
<desc>lat.=22.037975, lon.=103.999321, Alt.=567.148926m. Speed=31.104000m/h.</desc>
<speed>8.640000</speed>
</trkpt>
<trkpt lat="22.037661" lon="103.999664">
<ele>567.180176</ele>
<time>2011-04-26T05:22:25Z</time>
<desc>lat.=22.037661, lon.=103.999664, Alt.=567.180176m. Speed=32.220001m/h.</desc>
<speed>8.950000</speed>
</trkpt>
<trkpt lat="22.037399" lon="104.000153">
<ele>566.664551</ele>
<time>2011-04-26T05:22:30Z</time>
<desc>lat.=22.037399, lon.=104.000153, Alt.=566.664551m. Speed=38.664001m/h.</desc>
<speed>10.740000</speed>
</trkpt>
<trkpt lat="22.037315" lon="104.000656">
<ele>566.992676</ele>
<time>2011-04-26T05:22:35Z</time>
<desc>lat.=22.037315, lon.=104.000656, Alt.=566.992676m. Speed=31.968000m/h.</desc>
<speed>8.880000</speed>
</trkpt>
<trkpt lat="22.037312" lon="104.001106">
<ele>566.398926</ele>
<time>2011-04-26T05:22:40Z</time>
<desc>lat.=22.037312, lon.=104.001106, Alt.=566.398926m. Speed=24.695999m/h.</desc>
<speed>6.860000</speed>
</trkpt>
<trkpt lat="22.037386" lon="104.001434">
<ele>564.867676</ele>
<time>2011-04-26T05:22:45Z</time>
<desc>lat.=22.037386, lon.=104.001434, Alt.=564.867676m. Speed=23.184000m/h.</desc>
<speed>6.440000</speed>
</trkpt>
<trkpt lat="22.037436" lon="104.001686">
<ele>564.633301</ele>
<time>2011-04-26T05:22:50Z</time>
<desc>lat.=22.037436, lon.=104.001686, Alt.=564.633301m. Speed=17.639999m/h.</desc>
<speed>4.900000</speed>
</trkpt>
<trkpt lat="22.037420" lon="104.001854">
<ele>564.789551</ele>
<time>2011-04-26T05:22:55Z</time>
<desc>lat.=22.037420, lon.=104.001854, Alt.=564.789551m. Speed=9.180000m/h.</desc>
<speed>2.550000</speed>
</trkpt>
<trkpt lat="22.037363" lon="104.001930">
<ele>565.211426</ele>
<time>2011-04-26T05:23:00Z</time>
<desc>lat.=22.037363, lon.=104.001930, Alt.=565.211426m. Speed=6.012000m/h.</desc>
<speed>1.670000</speed>
</trkpt>
<trkpt lat="22.037281" lon="104.001976">
<ele>566.086426</ele>
<time>2011-04-26T05:23:05Z</time>
<desc>lat.=22.037281, lon.=104.001976, Alt.=566.086426m. Speed=7.344000m/h.</desc>
<speed>2.040000</speed>
</trkpt>
<trkpt lat="22.037180" lon="104.002022">
<ele>567.055176</ele>
<time>2011-04-26T05:23:10Z</time>
<desc>lat.=22.037180, lon.=104.002022, Alt.=567.055176m. Speed=6.300000m/h.</desc>
<speed>1.750000</speed>
</trkpt>
<trkpt lat="22.037035" lon="104.002014">
<ele>567.805176</ele>
<time>2011-04-26T05:23:15Z</time>
<desc>lat.=22.037035, lon.=104.002014, Alt.=567.805176m. Speed=4.716000m/h.</desc>
<speed>1.310000</speed>
</trkpt>
<trkpt lat="22.036949" lon="104.002029">
<ele>568.805176</ele>
<time>2011-04-26T05:23:20Z</time>
<desc>lat.=22.036949, lon.=104.002029, Alt.=568.805176m. Speed=2.376000m/h.</desc>
<speed>0.660000</speed>
</trkpt>
<trkpt lat="22.036880" lon="104.002068">
<ele>570.117676</ele>
<time>2011-04-26T05:23:25Z</time>
<desc>lat.=22.036880, lon.=104.002068, Alt.=570.117676m. Speed=1.080000m/h.</desc>
<speed>0.300000</speed>
</trkpt>
<trkpt lat="22.036867" lon="104.002068">
<ele>571.742676</ele>
<time>2011-04-26T05:23:30Z</time>
<desc>lat.=22.036867, lon.=104.002068, Alt.=571.742676m. Speed=1.728000m/h.</desc>
<speed>0.480000</speed>
</trkpt>
<trkpt lat="22.036842" lon="104.002068">
<ele>572.852051</ele>
<time>2011-04-26T05:23:35Z</time>
<desc>lat.=22.036842, lon.=104.002068, Alt.=572.852051m. Speed=2.916000m/h.</desc>
<speed>0.810000</speed>
</trkpt>
<trkpt lat="22.036802" lon="104.002083">
<ele>574.086426</ele>
<time>2011-04-26T05:23:40Z</time>
<desc>lat.=22.036802, lon.=104.002083, Alt.=574.086426m. Speed=2.304000m/h.</desc>
<speed>0.640000</speed>
</trkpt>
<trkpt lat="22.036802" lon="104.002144">
<ele>575.477051</ele>
<time>2011-04-26T05:23:45Z</time>
<desc>lat.=22.036802, lon.=104.002144, Alt.=575.477051m. Speed=5.724000m/h.</desc>
<speed>1.590000</speed>
</trkpt>
<trkpt lat="22.036835" lon="104.002182">
<ele>576.445801</ele>
<time>2011-04-26T05:23:50Z</time>
<desc>lat.=22.036835, lon.=104.002182, Alt.=576.445801m. Speed=0.432000m/h.</desc>
<speed>0.120000</speed>
</trkpt>
<trkpt lat="22.036823" lon="104.002213">
<ele>576.586426</ele>
<time>2011-04-26T05:23:55Z</time>
<desc>lat.=22.036823, lon.=104.002213, Alt.=576.586426m. Speed=0.900000m/h.</desc>
<speed>0.250000</speed>
</trkpt>
<trkpt lat="22.036856" lon="104.002220">
<ele>575.617676</ele>
<time>2011-04-26T05:24:00Z</time>
<desc>lat.=22.036856, lon.=104.002220, Alt.=575.617676m. Speed=0.108000m/h.</desc>
<speed>0.030000</speed>
</trkpt>
<trkpt lat="22.036852" lon="104.002228">
<ele>575.477051</ele>
<time>2011-04-26T05:24:05Z</time>
<desc>lat.=22.036852, lon.=104.002228, Alt.=575.477051m. Speed=0.720000m/h.</desc>
<speed>0.200000</speed>
</trkpt>
<trkpt lat="22.036873" lon="104.002182">
<ele>575.180176</ele>
<time>2011-04-26T05:24:10Z</time>
<desc>lat.=22.036873, lon.=104.002182, Alt.=575.180176m. Speed=3.492000m/h.</desc>
<speed>0.970000</speed>
</trkpt>
<trkpt lat="22.036898" lon="104.002113">
<ele>574.727051</ele>
<time>2011-04-26T05:24:15Z</time>
<desc>lat.=22.036898, lon.=104.002113, Alt.=574.727051m. Speed=6.444000m/h.</desc>
<speed>1.790000</speed>
</trkpt>
<trkpt lat="22.036970" lon="104.002007">
<ele>573.414551</ele>
<time>2011-04-26T05:24:20Z</time>
<desc>lat.=22.036970, lon.=104.002007, Alt.=573.414551m. Speed=6.192000m/h.</desc>
<speed>1.720000</speed>
</trkpt>
<trkpt lat="22.036930" lon="104.002014">
<ele>571.773926</ele>
<time>2011-04-26T05:24:25Z</time>
<desc>lat.=22.036930, lon.=104.002014, Alt.=571.773926m. Speed=6.480000m/h.</desc>
<speed>1.800000</speed>
</trkpt>
<trkpt lat="22.036854" lon="104.002022">
<ele>571.648926</ele>
<time>2011-04-26T05:24:30Z</time>
<desc>lat.=22.036854, lon.=104.002022, Alt.=571.648926m. Speed=3.276000m/h.</desc>
<speed>0.910000</speed>
</trkpt>
<trkpt lat="22.036722" lon="104.002029">
<ele>570.023926</ele>
<time>2011-04-26T05:24:35Z</time>
<desc>lat.=22.036722, lon.=104.002029, Alt.=570.023926m. Speed=6.660000m/h.</desc>
<speed>1.850000</speed>
</trkpt>
<trkpt lat="22.036648" lon="104.001991">
<ele>569.383301</ele>
<time>2011-04-26T05:24:40Z</time>
<desc>lat.=22.036648, lon.=104.001991, Alt.=569.383301m. Speed=0.432000m/h.</desc>
<speed>0.120000</speed>
</trkpt>
<trkpt lat="22.036648" lon="104.001991">
<ele>569.055176</ele>
<time>2011-04-26T05:24:45Z</time>
<desc>lat.=22.036648, lon.=104.001991, Alt.=569.055176m. Speed=1.368000m/h.</desc>
<speed>0.380000</speed>
</trkpt>
<trkpt lat="22.036629" lon="104.002014">
<ele>568.477051</ele>
<time>2011-04-26T05:24:50Z</time>
<desc>lat.=22.036629, lon.=104.002014, Alt.=568.477051m. Speed=3.096000m/h.</desc>
<speed>0.860000</speed>
</trkpt>
<trkpt lat="22.036587" lon="104.001999">
<ele>568.633301</ele>
<time>2011-04-26T05:24:55Z</time>
<desc>lat.=22.036587, lon.=104.001999, Alt.=568.633301m. Speed=2.520000m/h.</desc>
<speed>0.700000</speed>
</trkpt>
<trkpt lat="22.036579" lon="104.001991">
<ele>566.242676</ele>
<time>2011-04-26T05:25:00Z</time>
<desc>lat.=22.036579, lon.=104.001991, Alt.=566.242676m. Speed=1.116000m/h.</desc>
<speed>0.310000</speed>
</trkpt>
<trkpt lat="22.036591" lon="104.002014">
<ele>562.930176</ele>
<time>2011-04-26T05:25:05Z</time>
<desc>lat.=22.036591, lon.=104.002014, Alt.=562.930176m. Speed=0.360000m/h.</desc>
<speed>0.100000</speed>
</trkpt>
<trkpt lat="22.036592" lon="104.002029">
<ele>562.570801</ele>
<time>2011-04-26T05:25:10Z</time>
<desc>lat.=22.036592, lon.=104.002029, Alt.=562.570801m. Speed=0.720000m/h.</desc>
<speed>0.200000</speed>
</trkpt>
<trkpt lat="22.036615" lon="104.002052">
<ele>561.242676</ele>
<time>2011-04-26T05:25:15Z</time>
<desc>lat.=22.036615, lon.=104.002052, Alt.=561.242676m. Speed=1.188000m/h.</desc>
<speed>0.330000</speed>
</trkpt>
<trkpt lat="22.036644" lon="104.002106">
<ele>559.836426</ele>
<time>2011-04-26T05:25:20Z</time>
<desc>lat.=22.036644, lon.=104.002106, Alt.=559.836426m. Speed=2.052000m/h.</desc>
<speed>0.570000</speed>
</trkpt>
<trkpt lat="22.036625" lon="104.002106">
<ele>559.398926</ele>
<time>2011-04-26T05:25:25Z</time>
<desc>lat.=22.036625, lon.=104.002106, Alt.=559.398926m. Speed=1.620000m/h.</desc>
<speed>0.450000</speed>
</trkpt>
<trkpt lat="22.036581" lon="104.002083">
<ele>559.070801</ele>
<time>2011-04-26T05:25:30Z</time>
<desc>lat.=22.036581, lon.=104.002083, Alt.=559.070801m. Speed=0.432000m/h.</desc>
<speed>0.120000</speed>
</trkpt>
<trkpt lat="22.036583" lon="104.002083">
<ele>559.070801</ele>
<time>2011-04-26T05:25:35Z</time>
<desc>lat.=22.036583, lon.=104.002083, Alt.=559.070801m. Speed=0.108000m/h.</desc>
<speed>0.030000</speed>
</trkpt>
<trkpt lat="22.036587" lon="104.002083">
<ele>559.055176</ele>
<time>2011-04-26T05:25:40Z</time>
<desc>lat.=22.036587, lon.=104.002083, Alt.=559.055176m. Speed=0.540000m/h.</desc>
<speed>0.150000</speed>
</trkpt>
<trkpt lat="22.036585" lon="104.002090">
<ele>559.039551</ele>
<time>2011-04-26T05:25:45Z</time>
<desc>lat.=22.036585, lon.=104.002090, Alt.=559.039551m. Speed=0.144000m/h.</desc>
<speed>0.040000</speed>
</trkpt>
<trkpt lat="22.036585" lon="104.002090">
<ele>559.055176</ele>
<time>2011-04-26T05:25:50Z</time>
<desc>lat.=22.036585, lon.=104.002090, Alt.=559.055176m. Speed=0.324000m/h.</desc>
<speed>0.090000</speed>
</trkpt>
<trkpt lat="22.036598" lon="104.002098">
<ele>559.070801</ele>
<time>2011-04-26T05:25:55Z</time>
<desc>lat.=22.036598, lon.=104.002098, Alt.=559.070801m. Speed=1.584000m/h.</desc>
<speed>0.440000</speed>
</trkpt>
<trkpt lat="22.036615" lon="104.002106">
<ele>559.133301</ele>
<time>2011-04-26T05:26:00Z</time>
<desc>lat.=22.036615, lon.=104.002106, Alt.=559.133301m. Speed=1.260000m/h.</desc>
<speed>0.350000</speed>
</trkpt>
<trkpt lat="22.036631" lon="104.002106">
<ele>558.977051</ele>
<time>2011-04-26T05:26:05Z</time>
<desc>lat.=22.036631, lon.=104.002106, Alt.=558.977051m. Speed=1.404000m/h.</desc>
<speed>0.390000</speed>
</trkpt>
<trkpt lat="22.036684" lon="104.002151">
<ele>558.352051</ele>
<time>2011-04-26T05:26:10Z</time>
<desc>lat.=22.036684, lon.=104.002151, Alt.=558.352051m. Speed=2.052000m/h.</desc>
<speed>0.570000</speed>
</trkpt>
<trkpt lat="22.036646" lon="104.002090">
<ele>558.461426</ele>
<time>2011-04-26T05:26:15Z</time>
<desc>lat.=22.036646, lon.=104.002090, Alt.=558.461426m. Speed=0.432000m/h.</desc>
<speed>0.120000</speed>
</trkpt>
<trkpt lat="22.036602" lon="104.002052">
<ele>558.539551</ele>
<time>2011-04-26T05:26:20Z</time>
<desc>lat.=22.036602, lon.=104.002052, Alt.=558.539551m. Speed=1.008000m/h.</desc>
<speed>0.280000</speed>
</trkpt>
<trkpt lat="22.036592" lon="104.002029">
<ele>558.617676</ele>
<time>2011-04-26T05:26:25Z</time>
<desc>lat.=22.036592, lon.=104.002029, Alt.=558.617676m. Speed=0.612000m/h.</desc>
<speed>0.170000</speed>
</trkpt>
<trkpt lat="22.036600" lon="104.002037">
<ele>558.602051</ele>
<time>2011-04-26T05:26:30Z</time>
<desc>lat.=22.036600, lon.=104.002037, Alt.=558.602051m. Speed=1.296000m/h.</desc>
<speed>0.360000</speed>
</trkpt>
<trkpt lat="22.036598" lon="104.002045">
<ele>558.602051</ele>
<time>2011-04-26T05:26:35Z</time>
<desc>lat.=22.036598, lon.=104.002045, Alt.=558.602051m. Speed=0.828000m/h.</desc>
<speed>0.230000</speed>
</trkpt>
<trkpt lat="22.036617" lon="104.002083">
<ele>558.664551</ele>
<time>2011-04-26T05:26:40Z</time>
<desc>lat.=22.036617, lon.=104.002083, Alt.=558.664551m. Speed=1.692000m/h.</desc>
<speed>0.470000</speed>
</trkpt>
<trkpt lat="22.036707" lon="104.002182">
<ele>559.133301</ele>
<time>2011-04-26T05:26:45Z</time>
<desc>lat.=22.036707, lon.=104.002182, Alt.=559.133301m. Speed=2.592000m/h.</desc>
<speed>0.720000</speed>
</trkpt>
<trkpt lat="22.036808" lon="104.002274">
<ele>558.805176</ele>
<time>2011-04-26T05:26:50Z</time>
<desc>lat.=22.036808, lon.=104.002274, Alt.=558.805176m. Speed=3.384000m/h.</desc>
<speed>0.940000</speed>
</trkpt>
<trkpt lat="22.036879" lon="104.002327">
<ele>557.945801</ele>
<time>2011-04-26T05:26:55Z</time>
<desc>lat.=22.036879, lon.=104.002327, Alt.=557.945801m. Speed=3.708000m/h.</desc>
<speed>1.030000</speed>
</trkpt>
<trkpt lat="22.036911" lon="104.002373">
<ele>557.320801</ele>
<time>2011-04-26T05:27:00Z</time>
<desc>lat.=22.036911, lon.=104.002373, Alt.=557.320801m. Speed=4.068000m/h.</desc>
<speed>1.130000</speed>
</trkpt>
<trkpt lat="22.036928" lon="104.002411">
<ele>556.789551</ele>
<time>2011-04-26T05:27:05Z</time>
<desc>lat.=22.036928, lon.=104.002411, Alt.=556.789551m. Speed=3.276000m/h.</desc>
<speed>0.910000</speed>
</trkpt>
<trkpt lat="22.036922" lon="104.002373">
<ele>556.352051</ele>
<time>2011-04-26T05:27:10Z</time>
<desc>lat.=22.036922, lon.=104.002373, Alt.=556.352051m. Speed=1.764000m/h.</desc>
<speed>0.490000</speed>
</trkpt>
<trkpt lat="22.036909" lon="104.002365">
<ele>556.414551</ele>
<time>2011-04-26T05:27:15Z</time>
<desc>lat.=22.036909, lon.=104.002365, Alt.=556.414551m. Speed=1.224000m/h.</desc>
<speed>0.340000</speed>
</trkpt>
<trkpt lat="22.036926" lon="104.002350">
<ele>555.023926</ele>
<time>2011-04-26T05:27:20Z</time>
<desc>lat.=22.036926, lon.=104.002350, Alt.=555.023926m. Speed=0.504000m/h.</desc>
<speed>0.140000</speed>
</trkpt>
<trkpt lat="22.036924" lon="104.002357">
<ele>554.852051</ele>
<time>2011-04-26T05:27:25Z</time>
<desc>lat.=22.036924, lon.=104.002357, Alt.=554.852051m. Speed=0.936000m/h.</desc>
<speed>0.260000</speed>
</trkpt>
<trkpt lat="22.036930" lon="104.002365">
<ele>554.820801</ele>
<time>2011-04-26T05:27:30Z</time>
<desc>lat.=22.036930, lon.=104.002365, Alt.=554.820801m. Speed=0.972000m/h.</desc>
<speed>0.270000</speed>
</trkpt>
<trkpt lat="22.036940" lon="104.002403">
<ele>554.039551</ele>
<time>2011-04-26T05:27:35Z</time>
<desc>lat.=22.036940, lon.=104.002403, Alt.=554.039551m. Speed=2.160000m/h.</desc>
<speed>0.600000</speed>
</trkpt>
<trkpt lat="22.036936" lon="104.002388">
<ele>552.539551</ele>
<time>2011-04-26T05:27:40Z</time>
<desc>lat.=22.036936, lon.=104.002388, Alt.=552.539551m. Speed=1.224000m/h.</desc>
<speed>0.340000</speed>
</trkpt>
<trkpt lat="22.036898" lon="104.002365">
<ele>552.195801</ele>
<time>2011-04-26T05:27:45Z</time>
<desc>lat.=22.036898, lon.=104.002365, Alt.=552.195801m. Speed=0.360000m/h.</desc>
<speed>0.100000</speed>
</trkpt>
<trkpt lat="22.036894" lon="104.002365">
<ele>552.148926</ele>
<time>2011-04-26T05:27:50Z</time>
<desc>lat.=22.036894, lon.=104.002365, Alt.=552.148926m. Speed=0.540000m/h.</desc>
<speed>0.150000</speed>
</trkpt>
<trkpt lat="22.036886" lon="104.002357">
<ele>552.117676</ele>
<time>2011-04-26T05:27:55Z</time>
<desc>lat.=22.036886, lon.=104.002357, Alt.=552.117676m. Speed=0.504000m/h.</desc>
<speed>0.140000</speed>
</trkpt>
<trkpt lat="22.036884" lon="104.002365">
<ele>552.117676</ele>
<time>2011-04-26T05:28:00Z</time>
<desc>lat.=22.036884, lon.=104.002365, Alt.=552.117676m. Speed=0.540000m/h.</desc>
<speed>0.150000</speed>
</trkpt>
<trkpt lat="22.036877" lon="104.002365">
<ele>552.133301</ele>
<time>2011-04-26T05:28:05Z</time>
<desc>lat.=22.036877, lon.=104.002365, Alt.=552.133301m. Speed=0.720000m/h.</desc>
<speed>0.200000</speed>
</trkpt>
<trkpt lat="22.036835" lon="104.002327">
<ele>551.570801</ele>
<time>2011-04-26T05:28:10Z</time>
<desc>lat.=22.036835, lon.=104.002327, Alt.=551.570801m. Speed=1.728000m/h.</desc>
<speed>0.480000</speed>
</trkpt>
<trkpt lat="22.036732" lon="104.002197">
<ele>551.008301</ele>
<time>2011-04-26T05:28:15Z</time>
<desc>lat.=22.036732, lon.=104.002197, Alt.=551.008301m. Speed=4.032000m/h.</desc>
<speed>1.120000</speed>
</trkpt>
<trkpt lat="22.036648" lon="104.002121">
<ele>550.742676</ele>
<time>2011-04-26T05:28:20Z</time>
<desc>lat.=22.036648, lon.=104.002121, Alt.=550.742676m. Speed=3.888000m/h.</desc>
<speed>1.080000</speed>
</trkpt>
<trkpt lat="22.036604" lon="104.002068">
<ele>550.492676</ele>
<time>2011-04-26T05:28:25Z</time>
<desc>lat.=22.036604, lon.=104.002068, Alt.=550.492676m. Speed=2.808000m/h.</desc>
<speed>0.780000</speed>
</trkpt>
<trkpt lat="22.036516" lon="104.001976">
<ele>551.117676</ele>
<time>2011-04-26T05:28:30Z</time>
<desc>lat.=22.036516, lon.=104.001976, Alt.=551.117676m. Speed=4.932000m/h.</desc>
<speed>1.370000</speed>
</trkpt>
<trkpt lat="22.036469" lon="104.001915">
<ele>551.617676</ele>
<time>2011-04-26T05:28:35Z</time>
<desc>lat.=22.036469, lon.=104.001915, Alt.=551.617676m. Speed=4.572000m/h.</desc>
<speed>1.270000</speed>
</trkpt>
<trkpt lat="22.036446" lon="104.001900">
<ele>550.977051</ele>
<time>2011-04-26T05:28:40Z</time>
<desc>lat.=22.036446, lon.=104.001900, Alt.=550.977051m. Speed=3.852000m/h.</desc>
<speed>1.070000</speed>
</trkpt>
<trkpt lat="22.036472" lon="104.001892">
<ele>551.148926</ele>
<time>2011-04-26T05:28:45Z</time>
<desc>lat.=22.036472, lon.=104.001892, Alt.=551.148926m. Speed=2.160000m/h.</desc>
<speed>0.600000</speed>
</trkpt>
<trkpt lat="22.036497" lon="104.001915">
<ele>550.883301</ele>
<time>2011-04-26T05:28:50Z</time>
<desc>lat.=22.036497, lon.=104.001915, Alt.=550.883301m. Speed=1.296000m/h.</desc>
<speed>0.360000</speed>
</trkpt>
<trkpt lat="22.036507" lon="104.001930">
<ele>550.664551</ele>
<time>2011-04-26T05:28:55Z</time>
<desc>lat.=22.036507, lon.=104.001930, Alt.=550.664551m. Speed=1.116000m/h.</desc>
<speed>0.310000</speed>
</trkpt>
<trkpt lat="22.036516" lon="104.001945">
<ele>551.102051</ele>
<time>2011-04-26T05:29:00Z</time>
<desc>lat.=22.036516, lon.=104.001945, Alt.=551.102051m. Speed=0.396000m/h.</desc>
<speed>0.110000</speed>
</trkpt>
<trkpt lat="22.036516" lon="104.001945">
<ele>551.102051</ele>
<time>2011-04-26T05:29:05Z</time>
<desc>lat.=22.036516, lon.=104.001945, Alt.=551.102051m. Speed=0.648000m/h.</desc>
<speed>0.180000</speed>
</trkpt>
<trkpt lat="22.036530" lon="104.001976">
<ele>550.930176</ele>
<time>2011-04-26T05:29:10Z</time>
<desc>lat.=22.036530, lon.=104.001976, Alt.=550.930176m. Speed=1.296000m/h.</desc>
<speed>0.360000</speed>
</trkpt>
<trkpt lat="22.036547" lon="104.002014">
<ele>550.492676</ele>
<time>2011-04-26T05:29:15Z</time>
<desc>lat.=22.036547, lon.=104.002014, Alt.=550.492676m. Speed=1.656000m/h.</desc>
<speed>0.460000</speed>
</trkpt>
<trkpt lat="22.036554" lon="104.002029">
<ele>550.305176</ele>
<time>2011-04-26T05:29:20Z</time>
<desc>lat.=22.036554, lon.=104.002029, Alt.=550.305176m. Speed=1.440000m/h.</desc>
<speed>0.400000</speed>
</trkpt>
<trkpt lat="22.036572" lon="104.002045">
<ele>549.773926</ele>
<time>2011-04-26T05:29:25Z</time>
<desc>lat.=22.036572, lon.=104.002045, Alt.=549.773926m. Speed=1.368000m/h.</desc>
<speed>0.380000</speed>
</trkpt>
<trkpt lat="22.036568" lon="104.002060">
<ele>549.148926</ele>
<time>2011-04-26T05:29:30Z</time>
<desc>lat.=22.036568, lon.=104.002060, Alt.=549.148926m. Speed=1.008000m/h.</desc>
<speed>0.280000</speed>
</trkpt>
<trkpt lat="22.036572" lon="104.002060">
<ele>549.570801</ele>
<time>2011-04-26T05:29:35Z</time>
<desc>lat.=22.036572, lon.=104.002060, Alt.=549.570801m. Speed=1.872000m/h.</desc>
<speed>0.520000</speed>
</trkpt>
<trkpt lat="22.036587" lon="104.002075">
<ele>549.898926</ele>
<time>2011-04-26T05:29:40Z</time>
<desc>lat.=22.036587, lon.=104.002075, Alt.=549.898926m. Speed=2.088000m/h.</desc>
<speed>0.580000</speed>
</trkpt>
<trkpt lat="22.036549" lon="104.002090">
<ele>549.945801</ele>
<time>2011-04-26T05:29:45Z</time>
<desc>lat.=22.036549, lon.=104.002090, Alt.=549.945801m. Speed=0.792000m/h.</desc>
<speed>0.220000</speed>
</trkpt>
<trkpt lat="22.036539" lon="104.002083">
<ele>549.961426</ele>
<time>2011-04-26T05:29:50Z</time>
<desc>lat.=22.036539, lon.=104.002083, Alt.=549.961426m. Speed=0.540000m/h.</desc>
<speed>0.150000</speed>
</trkpt>
<trkpt lat="22.036503" lon="104.002052">
<ele>550.195801</ele>
<time>2011-04-26T05:29:55Z</time>
<desc>lat.=22.036503, lon.=104.002052, Alt.=550.195801m. Speed=1.728000m/h.</desc>
<speed>0.480000</speed>
</trkpt>
<trkpt lat="22.036396" lon="104.001991">
<ele>550.477051</ele>
<time>2011-04-26T05:30:00Z</time>
<desc>lat.=22.036396, lon.=104.001991, Alt.=550.477051m. Speed=3.420000m/h.</desc>
<speed>0.950000</speed>
</trkpt>
<trkpt lat="22.036388" lon="104.001976">
<ele>550.570801</ele>
<time>2011-04-26T05:30:05Z</time>
<desc>lat.=22.036388, lon.=104.001976, Alt.=550.570801m. Speed=2.016000m/h.</desc>
<speed>0.560000</speed>
</trkpt>
<trkpt lat="22.036446" lon="104.002007">
<ele>550.492676</ele>
<time>2011-04-26T05:30:10Z</time>
<desc>lat.=22.036446, lon.=104.002007, Alt.=550.492676m. Speed=0.792000m/h.</desc>
<speed>0.220000</speed>
</trkpt>
<trkpt lat="22.036476" lon="104.002029">
<ele>550.055176</ele>
<time>2011-04-26T05:30:15Z</time>
<desc>lat.=22.036476, lon.=104.002029, Alt.=550.055176m. Speed=0.396000m/h.</desc>
<speed>0.110000</speed>
</trkpt>
<trkpt lat="22.036518" lon="104.002052">
<ele>550.117676</ele>
<time>2011-04-26T05:30:20Z</time>
<desc>lat.=22.036518, lon.=104.002052, Alt.=550.117676m. Speed=1.764000m/h.</desc>
<speed>0.490000</speed>
</trkpt>
<trkpt lat="22.036505" lon="104.002029">
<ele>549.930176</ele>
<time>2011-04-26T05:30:25Z</time>
<desc>lat.=22.036505, lon.=104.002029, Alt.=549.930176m. Speed=0.720000m/h.</desc>
<speed>0.200000</speed>
</trkpt>
<trkpt lat="22.036482" lon="104.002007">
<ele>550.586426</ele>
<time>2011-04-26T05:30:30Z</time>
<desc>lat.=22.036482, lon.=104.002007, Alt.=550.586426m. Speed=0.252000m/h.</desc>
<speed>0.070000</speed>
</trkpt>
<trkpt lat="22.036484" lon="104.002007">
<ele>550.648926</ele>
<time>2011-04-26T05:30:35Z</time>
<desc>lat.=22.036484, lon.=104.002007, Alt.=550.648926m. Speed=0.324000m/h.</desc>
<speed>0.090000</speed>
</trkpt>
<trkpt lat="22.036491" lon="104.002014">
<ele>550.742676</ele>
<time>2011-04-26T05:30:40Z</time>
<desc>lat.=22.036491, lon.=104.002014, Alt.=550.742676m. Speed=0.540000m/h.</desc>
<speed>0.150000</speed>
</trkpt>
<trkpt lat="22.036495" lon="104.002014">
<ele>550.742676</ele>
<time>2011-04-26T05:30:45Z</time>
<desc>lat.=22.036495, lon.=104.002014, Alt.=550.742676m. Speed=0.180000m/h.</desc>
<speed>0.050000</speed>
</trkpt>
<trkpt lat="22.036491" lon="104.002014">
<ele>550.727051</ele>
<time>2011-04-26T05:30:50Z</time>
<desc>lat.=22.036491, lon.=104.002014, Alt.=550.727051m. Speed=1.260000m/h.</desc>
<speed>0.350000</speed>
</trkpt>
<trkpt lat="22.036476" lon="104.002007">
<ele>551.117676</ele>
<time>2011-04-26T05:30:55Z</time>
<desc>lat.=22.036476, lon.=104.002007, Alt.=551.117676m. Speed=0.540000m/h.</desc>
<speed>0.150000</speed>
</trkpt>
<trkpt lat="22.036482" lon="104.002014">
<ele>551.086426</ele>
<time>2011-04-26T05:31:00Z</time>
<desc>lat.=22.036482, lon.=104.002014, Alt.=551.086426m. Speed=0.396000m/h.</desc>
<speed>0.110000</speed>
</trkpt>
<trkpt lat="22.036493" lon="104.002029">
<ele>551.148926</ele>
<time>2011-04-26T05:31:05Z</time>
<desc>lat.=22.036493, lon.=104.002029, Alt.=551.148926m. Speed=0.792000m/h.</desc>
<speed>0.220000</speed>
</trkpt>
<trkpt lat="22.036520" lon="104.002052">
<ele>551.398926</ele>
<time>2011-04-26T05:31:10Z</time>
<desc>lat.=22.036520, lon.=104.002052, Alt.=551.398926m. Speed=0.864000m/h.</desc>
<speed>0.240000</speed>
</trkpt>
<trkpt lat="22.036547" lon="104.002075">
<ele>551.617676</ele>
<time>2011-04-26T05:31:15Z</time>
<desc>lat.=22.036547, lon.=104.002075, Alt.=551.617676m. Speed=1.296000m/h.</desc>
<speed>0.360000</speed>
</trkpt>
<trkpt lat="22.036585" lon="104.002121">
<ele>551.758301</ele>
<time>2011-04-26T05:31:20Z</time>
<desc>lat.=22.036585, lon.=104.002121, Alt.=551.758301m. Speed=1.440000m/h.</desc>
<speed>0.400000</speed>
</trkpt>
<trkpt lat="22.036709" lon="104.002197">
<ele>550.539551</ele>
<time>2011-04-26T05:31:25Z</time>
<desc>lat.=22.036709, lon.=104.002197, Alt.=550.539551m. Speed=1.692000m/h.</desc>
<speed>0.470000</speed>
</trkpt>
<trkpt lat="22.036745" lon="104.002235">
<ele>550.086426</ele>
<time>2011-04-26T05:31:30Z</time>
<desc>lat.=22.036745, lon.=104.002235, Alt.=550.086426m. Speed=1.332000m/h.</desc>
<speed>0.370000</speed>
</trkpt>
<trkpt lat="22.036751" lon="104.002251">
<ele>549.742676</ele>
<time>2011-04-26T05:31:35Z</time>
<desc>lat.=22.036751, lon.=104.002251, Alt.=549.742676m. Speed=1.800000m/h.</desc>
<speed>0.500000</speed>
</trkpt>
<trkpt lat="22.036722" lon="104.002220">
<ele>549.555176</ele>
<time>2011-04-26T05:31:40Z</time>
<desc>lat.=22.036722, lon.=104.002220, Alt.=549.555176m. Speed=0.108000m/h.</desc>
<speed>0.030000</speed>
</trkpt>
<trkpt lat="22.036684" lon="104.002182">
<ele>549.398926</ele>
<time>2011-04-26T05:31:45Z</time>
<desc>lat.=22.036684, lon.=104.002182, Alt.=549.398926m. Speed=1.944000m/h.</desc>
<speed>0.540000</speed>
</trkpt>
<trkpt lat="22.036631" lon="104.002151">
<ele>548.477051</ele>
<time>2011-04-26T05:31:50Z</time>
<desc>lat.=22.036631, lon.=104.002151, Alt.=548.477051m. Speed=1.728000m/h.</desc>
<speed>0.480000</speed>
</trkpt>
<trkpt lat="22.036648" lon="104.002174">
<ele>548.133301</ele>
<time>2011-04-26T05:31:55Z</time>
<desc>lat.=22.036648, lon.=104.002174, Alt.=548.133301m. Speed=0.432000m/h.</desc>
<speed>0.120000</speed>
</trkpt>
<trkpt lat="22.036661" lon="104.002190">
<ele>548.102051</ele>
<time>2011-04-26T05:32:00Z</time>
<desc>lat.=22.036661, lon.=104.002190, Alt.=548.102051m. Speed=0.684000m/h.</desc>
<speed>0.190000</speed>
</trkpt>
<trkpt lat="22.036686" lon="104.002220">
<ele>548.008301</ele>
<time>2011-04-26T05:32:05Z</time>
<desc>lat.=22.036686, lon.=104.002220, Alt.=548.008301m. Speed=1.224000m/h.</desc>
<speed>0.340000</speed>
</trkpt>
<trkpt lat="22.036762" lon="104.002296">
<ele>548.805176</ele>
<time>2011-04-26T05:32:10Z</time>
<desc>lat.=22.036762, lon.=104.002296, Alt.=548.805176m. Speed=2.412000m/h.</desc>
<speed>0.670000</speed>
</trkpt>
<trkpt lat="22.036823" lon="104.002350">
<ele>548.836426</ele>
<time>2011-04-26T05:32:15Z</time>
<desc>lat.=22.036823, lon.=104.002350, Alt.=548.836426m. Speed=3.240000m/h.</desc>
<speed>0.900000</speed>
</trkpt>
<trkpt lat="22.036850" lon="104.002388">
<ele>548.961426</ele>
<time>2011-04-26T05:32:20Z</time>
<desc>lat.=22.036850, lon.=104.002388, Alt.=548.961426m. Speed=3.672000m/h.</desc>
<speed>1.020000</speed>
</trkpt>
<trkpt lat="22.036869" lon="104.002426">
<ele>549.227051</ele>
<time>2011-04-26T05:32:25Z</time>
<desc>lat.=22.036869, lon.=104.002426, Alt.=549.227051m. Speed=3.024000m/h.</desc>
<speed>0.840000</speed>
</trkpt>
<trkpt lat="22.036913" lon="104.002487">
<ele>549.383301</ele>
<time>2011-04-26T05:32:30Z</time>
<desc>lat.=22.036913, lon.=104.002487, Alt.=549.383301m. Speed=2.412000m/h.</desc>
<speed>0.670000</speed>
</trkpt>
<trkpt lat="22.036974" lon="104.002563">
<ele>548.867676</ele>
<time>2011-04-26T05:32:35Z</time>
<desc>lat.=22.036974, lon.=104.002563, Alt.=548.867676m. Speed=3.096000m/h.</desc>
<speed>0.860000</speed>
</trkpt>
<trkpt lat="22.036993" lon="104.002563">
<ele>548.711426</ele>
<time>2011-04-26T05:32:40Z</time>
<desc>lat.=22.036993, lon.=104.002563, Alt.=548.711426m. Speed=2.340000m/h.</desc>
<speed>0.650000</speed>
</trkpt>
<trkpt lat="22.036985" lon="104.002502">
<ele>549.211426</ele>
<time>2011-04-26T05:32:45Z</time>
<desc>lat.=22.036985, lon.=104.002502, Alt.=549.211426m. Speed=1.440000m/h.</desc>
<speed>0.400000</speed>
</trkpt>
<trkpt lat="22.036966" lon="104.002480">
<ele>549.211426</ele>
<time>2011-04-26T05:32:50Z</time>
<desc>lat.=22.036966, lon.=104.002480, Alt.=549.211426m. Speed=0.684000m/h.</desc>
<speed>0.190000</speed>
</trkpt>
<trkpt lat="22.036837" lon="104.002373">
<ele>549.320801</ele>
<time>2011-04-26T05:32:55Z</time>
<desc>lat.=22.036837, lon.=104.002373, Alt.=549.320801m. Speed=1.368000m/h.</desc>
<speed>0.380000</speed>
</trkpt>
<trkpt lat="22.036802" lon="104.002319">
<ele>549.383301</ele>
<time>2011-04-26T05:33:00Z</time>
<desc>lat.=22.036802, lon.=104.002319, Alt.=549.383301m. Speed=1.152000m/h.</desc>
<speed>0.320000</speed>
</trkpt>
<trkpt lat="22.036703" lon="104.002213">
<ele>548.820801</ele>
<time>2011-04-26T05:33:05Z</time>
<desc>lat.=22.036703, lon.=104.002213, Alt.=548.820801m. Speed=3.240000m/h.</desc>
<speed>0.900000</speed>
</trkpt>
<trkpt lat="22.036644" lon="104.002129">
<ele>548.820801</ele>
<time>2011-04-26T05:33:10Z</time>
<desc>lat.=22.036644, lon.=104.002129, Alt.=548.820801m. Speed=2.880000m/h.</desc>
<speed>0.800000</speed>
</trkpt>
<trkpt lat="22.036617" lon="104.002090">
<ele>548.617676</ele>
<time>2011-04-26T05:33:15Z</time>
<desc>lat.=22.036617, lon.=104.002090, Alt.=548.617676m. Speed=2.808000m/h.</desc>
<speed>0.780000</speed>
</trkpt>
<trkpt lat="22.036604" lon="104.002075">
<ele>548.492676</ele>
<time>2011-04-26T05:33:20Z</time>
<desc>lat.=22.036604, lon.=104.002075, Alt.=548.492676m. Speed=1.368000m/h.</desc>
<speed>0.380000</speed>
</trkpt>
<trkpt lat="22.036598" lon="104.002068">
<ele>548.320801</ele>
<time>2011-04-26T05:33:25Z</time>
<desc>lat.=22.036598, lon.=104.002068, Alt.=548.320801m. Speed=1.044000m/h.</desc>
<speed>0.290000</speed>
</trkpt>
<trkpt lat="22.036583" lon="104.002060">
<ele>548.180176</ele>
<time>2011-04-26T05:33:30Z</time>
<desc>lat.=22.036583, lon.=104.002060, Alt.=548.180176m. Speed=1.224000m/h.</desc>
<speed>0.340000</speed>
</trkpt>
<trkpt lat="22.036552" lon="104.002029">
<ele>548.227051</ele>
<time>2011-04-26T05:33:35Z</time>
<desc>lat.=22.036552, lon.=104.002029, Alt.=548.227051m. Speed=1.872000m/h.</desc>
<speed>0.520000</speed>
</trkpt>
<trkpt lat="22.036526" lon="104.002014">
<ele>548.320801</ele>
<time>2011-04-26T05:33:40Z</time>
<desc>lat.=22.036526, lon.=104.002014, Alt.=548.320801m. Speed=2.160000m/h.</desc>
<speed>0.600000</speed>
</trkpt>
<trkpt lat="22.036510" lon="104.002083">
<ele>548.414551</ele>
<time>2011-04-26T05:33:45Z</time>
<desc>lat.=22.036510, lon.=104.002083, Alt.=548.414551m. Speed=1.692000m/h.</desc>
<speed>0.470000</speed>
</trkpt>
<trkpt lat="22.036549" lon="104.002144">
<ele>548.477051</ele>
<time>2011-04-26T05:33:50Z</time>
<desc>lat.=22.036549, lon.=104.002144, Alt.=548.477051m. Speed=1.548000m/h.</desc>
<speed>0.430000</speed>
</trkpt>
<trkpt lat="22.036591" lon="104.002136">
<ele>548.398926</ele>
<time>2011-04-26T05:33:55Z</time>
<desc>lat.=22.036591, lon.=104.002136, Alt.=548.398926m. Speed=1.152000m/h.</desc>
<speed>0.320000</speed>
</trkpt>
<trkpt lat="22.036634" lon="104.002136">
<ele>548.258301</ele>
<time>2011-04-26T05:34:00Z</time>
<desc>lat.=22.036634, lon.=104.002136, Alt.=548.258301m. Speed=1.584000m/h.</desc>
<speed>0.440000</speed>
</trkpt>
<trkpt lat="22.036699" lon="104.002182">
<ele>548.133301</ele>
<time>2011-04-26T05:34:05Z</time>
<desc>lat.=22.036699, lon.=104.002182, Alt.=548.133301m. Speed=2.376000m/h.</desc>
<speed>0.660000</speed>
</trkpt>
<trkpt lat="22.036770" lon="104.002251">
<ele>548.086426</ele>
<time>2011-04-26T05:34:10Z</time>
<desc>lat.=22.036770, lon.=104.002251, Alt.=548.086426m. Speed=3.312000m/h.</desc>
<speed>0.920000</speed>
</trkpt>
<trkpt lat="22.036814" lon="104.002281">
<ele>548.148926</ele>
<time>2011-04-26T05:34:15Z</time>
<desc>lat.=22.036814, lon.=104.002281, Alt.=548.148926m. Speed=3.744000m/h.</desc>
<speed>1.040000</speed>
</trkpt>
<trkpt lat="22.036833" lon="104.002289">
<ele>548.211426</ele>
<time>2011-04-26T05:34:20Z</time>
<desc>lat.=22.036833, lon.=104.002289, Alt.=548.211426m. Speed=3.600000m/h.</desc>
<speed>1.000000</speed>
</trkpt>
<trkpt lat="22.036724" lon="104.002167">
<ele>548.211426</ele>
<time>2011-04-26T05:34:25Z</time>
<desc>lat.=22.036724, lon.=104.002167, Alt.=548.211426m. Speed=0.576000m/h.</desc>
<speed>0.160000</speed>
</trkpt>
<trkpt lat="22.036690" lon="104.002113">
<ele>548.242676</ele>
<time>2011-04-26T05:34:30Z</time>
<desc>lat.=22.036690, lon.=104.002113, Alt.=548.242676m. Speed=0.648000m/h.</desc>
<speed>0.180000</speed>
</trkpt>
<trkpt lat="22.036646" lon="104.002068">
<ele>548.258301</ele>
<time>2011-04-26T05:34:35Z</time>
<desc>lat.=22.036646, lon.=104.002068, Alt.=548.258301m. Speed=1.620000m/h.</desc>
<speed>0.450000</speed>
</trkpt>
<trkpt lat="22.036631" lon="104.002022">
<ele>548.180176</ele>
<time>2011-04-26T05:34:40Z</time>
<desc>lat.=22.036631, lon.=104.002022, Alt.=548.180176m. Speed=1.620000m/h.</desc>
<speed>0.450000</speed>
</trkpt>
<trkpt lat="22.036749" lon="104.002144">
<ele>548.117676</ele>
<time>2011-04-26T05:34:45Z</time>
<desc>lat.=22.036749, lon.=104.002144, Alt.=548.117676m. Speed=0.396000m/h.</desc>
<speed>0.110000</speed>
</trkpt>
<trkpt lat="22.036743" lon="104.002197">
<ele>548.570801</ele>
<time>2011-04-26T05:34:50Z</time>
<desc>lat.=22.036743, lon.=104.002197, Alt.=548.570801m. Speed=1.152000m/h.</desc>
<speed>0.320000</speed>
</trkpt>
<trkpt lat="22.036734" lon="104.002167">
<ele>548.539551</ele>
<time>2011-04-26T05:34:55Z</time>
<desc>lat.=22.036734, lon.=104.002167, Alt.=548.539551m. Speed=0.540000m/h.</desc>
<speed>0.150000</speed>
</trkpt>
<trkpt lat="22.036736" lon="104.002174">
<ele>548.555176</ele>
<time>2011-04-26T05:35:00Z</time>
<desc>lat.=22.036736, lon.=104.002174, Alt.=548.555176m. Speed=0.216000m/h.</desc>
<speed>0.060000</speed>
</trkpt>
<trkpt lat="22.036684" lon="104.002113">
<ele>548.586426</ele>
<time>2011-04-26T05:35:05Z</time>
<desc>lat.=22.036684, lon.=104.002113, Alt.=548.586426m. Speed=1.620000m/h.</desc>
<speed>0.450000</speed>
</trkpt>
<trkpt lat="22.036699" lon="104.002136">
<ele>548.414551</ele>
<time>2011-04-26T05:35:10Z</time>
<desc>lat.=22.036699, lon.=104.002136, Alt.=548.414551m. Speed=0.612000m/h.</desc>
<speed>0.170000</speed>
</trkpt>
<trkpt lat="22.036697" lon="104.002129">
<ele>548.273926</ele>
<time>2011-04-26T05:35:15Z</time>
<desc>lat.=22.036697, lon.=104.002129, Alt.=548.273926m. Speed=0.972000m/h.</desc>
<speed>0.270000</speed>
</trkpt>
<trkpt lat="22.036621" lon="104.002052">
<ele>548.133301</ele>
<time>2011-04-26T05:35:20Z</time>
<desc>lat.=22.036621, lon.=104.002052, Alt.=548.133301m. Speed=2.124000m/h.</desc>
<speed>0.590000</speed>
</trkpt>
<trkpt lat="22.036583" lon="104.002014">
<ele>547.898926</ele>
<time>2011-04-26T05:35:25Z</time>
<desc>lat.=22.036583, lon.=104.002014, Alt.=547.898926m. Speed=2.268000m/h.</desc>
<speed>0.630000</speed>
</trkpt>
<trkpt lat="22.036570" lon="104.001991">
<ele>547.727051</ele>
<time>2011-04-26T05:35:30Z</time>
<desc>lat.=22.036570, lon.=104.001991, Alt.=547.727051m. Speed=1.728000m/h.</desc>
<speed>0.480000</speed>
</trkpt>
<trkpt lat="22.036551" lon="104.001976">
<ele>547.711426</ele>
<time>2011-04-26T05:35:35Z</time>
<desc>lat.=22.036551, lon.=104.001976, Alt.=547.711426m. Speed=1.188000m/h.</desc>
<speed>0.330000</speed>
</trkpt>
<trkpt lat="22.036604" lon="104.002029">
<ele>547.836426</ele>
<time>2011-04-26T05:35:40Z</time>
<desc>lat.=22.036604, lon.=104.002029, Alt.=547.836426m. Speed=0.396000m/h.</desc>
<speed>0.110000</speed>
</trkpt>
<trkpt lat="22.036648" lon="104.002106">
<ele>547.633301</ele>
<time>2011-04-26T05:35:45Z</time>
<desc>lat.=22.036648, lon.=104.002106, Alt.=547.633301m. Speed=1.692000m/h.</desc>
<speed>0.470000</speed>
</trkpt>
<trkpt lat="22.036692" lon="104.002136">
<ele>547.555176</ele>
<time>2011-04-26T05:35:50Z</time>
<desc>lat.=22.036692, lon.=104.002136, Alt.=547.555176m. Speed=2.484000m/h.</desc>
<speed>0.690000</speed>
</trkpt>
<trkpt lat="22.036692" lon="104.002136">
<ele>547.695801</ele>
<time>2011-04-26T05:35:55Z</time>
<desc>lat.=22.036692, lon.=104.002136, Alt.=547.695801m. Speed=1.368000m/h.</desc>
<speed>0.380000</speed>
</trkpt>
<trkpt lat="22.036661" lon="104.002113">
<ele>547.992676</ele>
<time>2011-04-26T05:36:00Z</time>
<desc>lat.=22.036661, lon.=104.002113, Alt.=547.992676m. Speed=0.900000m/h.</desc>
<speed>0.250000</speed>
</trkpt>
<trkpt lat="22.036663" lon="104.002121">
<ele>548.039551</ele>
<time>2011-04-26T05:36:05Z</time>
<desc>lat.=22.036663, lon.=104.002121, Alt.=548.039551m. Speed=1.008000m/h.</desc>
<speed>0.280000</speed>
</trkpt>
<trkpt lat="22.036663" lon="104.002129">
<ele>547.961426</ele>
<time>2011-04-26T05:36:10Z</time>
<desc>lat.=22.036663, lon.=104.002129, Alt.=547.961426m. Speed=1.188000m/h.</desc>
<speed>0.330000</speed>
</trkpt>
<trkpt lat="22.036707" lon="104.002190">
<ele>547.602051</ele>
<time>2011-04-26T05:36:15Z</time>
<desc>lat.=22.036707, lon.=104.002190, Alt.=547.602051m. Speed=1.404000m/h.</desc>
<speed>0.390000</speed>
</trkpt>
<trkpt lat="22.036755" lon="104.002251">
<ele>548.023926</ele>
<time>2011-04-26T05:36:20Z</time>
<desc>lat.=22.036755, lon.=104.002251, Alt.=548.023926m. Speed=1.944000m/h.</desc>
<speed>0.540000</speed>
</trkpt>
<trkpt lat="22.036718" lon="104.002197">
<ele>548.445801</ele>
<time>2011-04-26T05:36:25Z</time>
<desc>lat.=22.036718, lon.=104.002197, Alt.=548.445801m. Speed=0.900000m/h.</desc>
<speed>0.250000</speed>
</trkpt>
<trkpt lat="22.036800" lon="104.002281">
<ele>547.930176</ele>
<time>2011-04-26T05:36:30Z</time>
<desc>lat.=22.036800, lon.=104.002281, Alt.=547.930176m. Speed=2.268000m/h.</desc>
<speed>0.630000</speed>
</trkpt>
<trkpt lat="22.036865" lon="104.002357">
<ele>547.086426</ele>
<time>2011-04-26T05:36:35Z</time>
<desc>lat.=22.036865, lon.=104.002357, Alt.=547.086426m. Speed=2.448000m/h.</desc>
<speed>0.680000</speed>
</trkpt>
<trkpt lat="22.036867" lon="104.002350">
<ele>547.117676</ele>
<time>2011-04-26T05:36:40Z</time>
<desc>lat.=22.036867, lon.=104.002350, Alt.=547.117676m. Speed=2.124000m/h.</desc>
<speed>0.590000</speed>
</trkpt>
<trkpt lat="22.036909" lon="104.002403">
<ele>547.430176</ele>
<time>2011-04-26T05:36:45Z</time>
<desc>lat.=22.036909, lon.=104.002403, Alt.=547.430176m. Speed=2.268000m/h.</desc>
<speed>0.630000</speed>
</trkpt>
<trkpt lat="22.036961" lon="104.002472">
<ele>547.648926</ele>
<time>2011-04-26T05:36:50Z</time>
<desc>lat.=22.036961, lon.=104.002472, Alt.=547.648926m. Speed=1.980000m/h.</desc>
<speed>0.550000</speed>
</trkpt>
<trkpt lat="22.037014" lon="104.002548">
<ele>547.164551</ele>
<time>2011-04-26T05:36:55Z</time>
<desc>lat.=22.037014, lon.=104.002548, Alt.=547.164551m. Speed=2.880000m/h.</desc>
<speed>0.800000</speed>
</trkpt>
<trkpt lat="22.036959" lon="104.002495">
<ele>546.820801</ele>
<time>2011-04-26T05:37:00Z</time>
<desc>lat.=22.036959, lon.=104.002495, Alt.=546.820801m. Speed=1.080000m/h.</desc>
<speed>0.300000</speed>
</trkpt>
<trkpt lat="22.036911" lon="104.002464">
<ele>546.492676</ele>
<time>2011-04-26T05:37:05Z</time>
<desc>lat.=22.036911, lon.=104.002464, Alt.=546.492676m. Speed=0.864000m/h.</desc>
<speed>0.240000</speed>
</trkpt>
<trkpt lat="22.036926" lon="104.002495">
<ele>546.617676</ele>
<time>2011-04-26T05:37:10Z</time>
<desc>lat.=22.036926, lon.=104.002495, Alt.=546.617676m. Speed=1.224000m/h.</desc>
<speed>0.340000</speed>
</trkpt>
<trkpt lat="22.036879" lon="104.002411">
<ele>546.320801</ele>
<time>2011-04-26T05:37:15Z</time>
<desc>lat.=22.036879, lon.=104.002411, Alt.=546.320801m. Speed=0.972000m/h.</desc>
<speed>0.270000</speed>
</trkpt>
<trkpt lat="22.036861" lon="104.002365">
<ele>546.227051</ele>
<time>2011-04-26T05:37:20Z</time>
<desc>lat.=22.036861, lon.=104.002365, Alt.=546.227051m. Speed=1.728000m/h.</desc>
<speed>0.480000</speed>
</trkpt>
<trkpt lat="22.036850" lon="104.002312">
<ele>545.883301</ele>
<time>2011-04-26T05:37:25Z</time>
<desc>lat.=22.036850, lon.=104.002312, Alt.=545.883301m. Speed=1.512000m/h.</desc>
<speed>0.420000</speed>
</trkpt>
<trkpt lat="22.036821" lon="104.002281">
<ele>546.258301</ele>
<time>2011-04-26T05:37:30Z</time>
<desc>lat.=22.036821, lon.=104.002281, Alt.=546.258301m. Speed=0.900000m/h.</desc>
<speed>0.250000</speed>
</trkpt>
<trkpt lat="22.036825" lon="104.002266">
<ele>546.867676</ele>
<time>2011-04-26T05:37:35Z</time>
<desc>lat.=22.036825, lon.=104.002266, Alt.=546.867676m. Speed=0.936000m/h.</desc>
<speed>0.260000</speed>
</trkpt>
<trkpt lat="22.036821" lon="104.002274">
<ele>546.836426</ele>
<time>2011-04-26T05:37:40Z</time>
<desc>lat.=22.036821, lon.=104.002274, Alt.=546.836426m. Speed=1.404000m/h.</desc>
<speed>0.390000</speed>
</trkpt>
<trkpt lat="22.036850" lon="104.002365">
<ele>547.492676</ele>
<time>2011-04-26T05:37:45Z</time>
<desc>lat.=22.036850, lon.=104.002365, Alt.=547.492676m. Speed=3.600000m/h.</desc>
<speed>1.000000</speed>
</trkpt>
<trkpt lat="22.036858" lon="104.002350">
<ele>547.727051</ele>
<time>2011-04-26T05:37:50Z</time>
<desc>lat.=22.036858, lon.=104.002350, Alt.=547.727051m. Speed=2.232000m/h.</desc>
<speed>0.620000</speed>
</trkpt>
<trkpt lat="22.036827" lon="104.002266">
<ele>548.586426</ele>
<time>2011-04-26T05:37:55Z</time>
<desc>lat.=22.036827, lon.=104.002266, Alt.=548.586426m. Speed=0.396000m/h.</desc>
<speed>0.110000</speed>
</trkpt>
<trkpt lat="22.036814" lon="104.002235">
<ele>548.898926</ele>
<time>2011-04-26T05:38:00Z</time>
<desc>lat.=22.036814, lon.=104.002235, Alt.=548.898926m. Speed=0.504000m/h.</desc>
<speed>0.140000</speed>
</trkpt>
<trkpt lat="22.036812" lon="104.002235">
<ele>548.945801</ele>
<time>2011-04-26T05:38:05Z</time>
<desc>lat.=22.036812, lon.=104.002235, Alt.=548.945801m. Speed=0.468000m/h.</desc>
<speed>0.130000</speed>
</trkpt>
<trkpt lat="22.036806" lon="104.002235">
<ele>548.945801</ele>
<time>2011-04-26T05:38:10Z</time>
<desc>lat.=22.036806, lon.=104.002235, Alt.=548.945801m. Speed=0.900000m/h.</desc>
<speed>0.250000</speed>
</trkpt>
<trkpt lat="22.036842" lon="104.002304">
<ele>549.039551</ele>
<time>2011-04-26T05:38:15Z</time>
<desc>lat.=22.036842, lon.=104.002304, Alt.=549.039551m. Speed=1.980000m/h.</desc>
<speed>0.550000</speed>
</trkpt>
<trkpt lat="22.036957" lon="104.002457">
<ele>548.633301</ele>
<time>2011-04-26T05:38:20Z</time>
<desc>lat.=22.036957, lon.=104.002457, Alt.=548.633301m. Speed=4.248000m/h.</desc>
<speed>1.180000</speed>
</trkpt>
<trkpt lat="22.037041" lon="104.002556">
<ele>548.555176</ele>
<time>2011-04-26T05:38:25Z</time>
<desc>lat.=22.037041, lon.=104.002556, Alt.=548.555176m. Speed=5.040000m/h.</desc>
<speed>1.400000</speed>
</trkpt>
<trkpt lat="22.037043" lon="104.002556">
<ele>548.961426</ele>
<time>2011-04-26T05:38:30Z</time>
<desc>lat.=22.037043, lon.=104.002556, Alt.=548.961426m. Speed=3.672000m/h.</desc>
<speed>1.020000</speed>
</trkpt>
<trkpt lat="22.037022" lon="104.002541">
<ele>549.805176</ele>
<time>2011-04-26T05:38:35Z</time>
<desc>lat.=22.037022, lon.=104.002541, Alt.=549.805176m. Speed=3.852000m/h.</desc>
<speed>1.070000</speed>
</trkpt>
<trkpt lat="22.037006" lon="104.002510">
<ele>550.914551</ele>
<time>2011-04-26T05:38:40Z</time>
<desc>lat.=22.037006, lon.=104.002510, Alt.=550.914551m. Speed=2.844000m/h.</desc>
<speed>0.790000</speed>
</trkpt>
<trkpt lat="22.036993" lon="104.002472">
<ele>551.539551</ele>
<time>2011-04-26T05:38:45Z</time>
<desc>lat.=22.036993, lon.=104.002472, Alt.=551.539551m. Speed=1.584000m/h.</desc>
<speed>0.440000</speed>
</trkpt>
<trkpt lat="22.036890" lon="104.002434">
<ele>551.789551</ele>
<time>2011-04-26T05:38:50Z</time>
<desc>lat.=22.036890, lon.=104.002434, Alt.=551.789551m. Speed=1.548000m/h.</desc>
<speed>0.430000</speed>
</trkpt>
<trkpt lat="22.036808" lon="104.002365">
<ele>552.430176</ele>
<time>2011-04-26T05:38:55Z</time>
<desc>lat.=22.036808, lon.=104.002365, Alt.=552.430176m. Speed=0.036000m/h.</desc>
<speed>0.010000</speed>
</trkpt>
<trkpt lat="22.036741" lon="104.002274">
<ele>552.789551</ele>
<time>2011-04-26T05:39:00Z</time>
<desc>lat.=22.036741, lon.=104.002274, Alt.=552.789551m. Speed=2.916000m/h.</desc>
<speed>0.810000</speed>
</trkpt>
<trkpt lat="22.036724" lon="104.002228">
<ele>551.195801</ele>
<time>2011-04-26T05:39:05Z</time>
<desc>lat.=22.036724, lon.=104.002228, Alt.=551.195801m. Speed=1.404000m/h.</desc>
<speed>0.390000</speed>
</trkpt>
<trkpt lat="22.036705" lon="104.002182">
<ele>550.820801</ele>
<time>2011-04-26T05:39:10Z</time>
<desc>lat.=22.036705, lon.=104.002182, Alt.=550.820801m. Speed=0.792000m/h.</desc>
<speed>0.220000</speed>
</trkpt>
<trkpt lat="22.036667" lon="104.002136">
<ele>551.555176</ele>
<time>2011-04-26T05:39:15Z</time>
<desc>lat.=22.036667, lon.=104.002136, Alt.=551.555176m. Speed=1.512000m/h.</desc>
<speed>0.420000</speed>
</trkpt>
<trkpt lat="22.036646" lon="104.002113">
<ele>549.945801</ele>
<time>2011-04-26T05:39:20Z</time>
<desc>lat.=22.036646, lon.=104.002113, Alt.=549.945801m. Speed=0.936000m/h.</desc>
<speed>0.260000</speed>
</trkpt>
<trkpt lat="22.036655" lon="104.002113">
<ele>549.367676</ele>
<time>2011-04-26T05:39:25Z</time>
<desc>lat.=22.036655, lon.=104.002113, Alt.=549.367676m. Speed=1.008000m/h.</desc>
<speed>0.280000</speed>
</trkpt>
<trkpt lat="22.036625" lon="104.002098">
<ele>550.398926</ele>
<time>2011-04-26T05:39:30Z</time>
<desc>lat.=22.036625, lon.=104.002098, Alt.=550.398926m. Speed=0.396000m/h.</desc>
<speed>0.110000</speed>
</trkpt>
<trkpt lat="22.036619" lon="104.002098">
<ele>550.523926</ele>
<time>2011-04-26T05:39:35Z</time>
<desc>lat.=22.036619, lon.=104.002098, Alt.=550.523926m. Speed=1.008000m/h.</desc>
<speed>0.280000</speed>
</trkpt>
<trkpt lat="22.036610" lon="104.002090">
<ele>548.305176</ele>
<time>2011-04-26T05:39:40Z</time>
<desc>lat.=22.036610, lon.=104.002090, Alt.=548.305176m. Speed=0.936000m/h.</desc>
<speed>0.260000</speed>
</trkpt>
<trkpt lat="22.036572" lon="104.002068">
<ele>547.680176</ele>
<time>2011-04-26T05:39:45Z</time>
<desc>lat.=22.036572, lon.=104.002068, Alt.=547.680176m. Speed=0.576000m/h.</desc>
<speed>0.160000</speed>
</trkpt>
<trkpt lat="22.036535" lon="104.002007">
<ele>547.477051</ele>
<time>2011-04-26T05:39:50Z</time>
<desc>lat.=22.036535, lon.=104.002007, Alt.=547.477051m. Speed=0.432000m/h.</desc>
<speed>0.120000</speed>
</trkpt>
<trkpt lat="22.036533" lon="104.002022">
<ele>545.383301</ele>
<time>2011-04-26T05:39:55Z</time>
<desc>lat.=22.036533, lon.=104.002022, Alt.=545.383301m. Speed=0.684000m/h.</desc>
<speed>0.190000</speed>
</trkpt>
<trkpt lat="22.036533" lon="104.002029">
<ele>543.977051</ele>
<time>2011-04-26T05:40:00Z</time>
<desc>lat.=22.036533, lon.=104.002029, Alt.=543.977051m. Speed=1.152000m/h.</desc>
<speed>0.320000</speed>
</trkpt>
<trkpt lat="22.036581" lon="104.002068">
<ele>543.148926</ele>
<time>2011-04-26T05:40:05Z</time>
<desc>lat.=22.036581, lon.=104.002068, Alt.=543.148926m. Speed=0.792000m/h.</desc>
<speed>0.220000</speed>
</trkpt>
<trkpt lat="22.036579" lon="104.002083">
<ele>543.352051</ele>
<time>2011-04-26T05:40:10Z</time>
<desc>lat.=22.036579, lon.=104.002083, Alt.=543.352051m. Speed=0.540000m/h.</desc>
<speed>0.150000</speed>
</trkpt>
<trkpt lat="22.036528" lon="104.002045">
<ele>544.742676</ele>
<time>2011-04-26T05:40:15Z</time>
<desc>lat.=22.036528, lon.=104.002045, Alt.=544.742676m. Speed=0.504000m/h.</desc>
<speed>0.140000</speed>
</trkpt>
<trkpt lat="22.036543" lon="104.002075">
<ele>544.383301</ele>
<time>2011-04-26T05:40:20Z</time>
<desc>lat.=22.036543, lon.=104.002075, Alt.=544.383301m. Speed=1.008000m/h.</desc>
<speed>0.280000</speed>
</trkpt>
<trkpt lat="22.036551" lon="104.002090">
<ele>544.289551</ele>
<time>2011-04-26T05:40:25Z</time>
<desc>lat.=22.036551, lon.=104.002090, Alt.=544.289551m. Speed=1.224000m/h.</desc>
<speed>0.340000</speed>
</trkpt>
<trkpt lat="22.036577" lon="104.002113">
<ele>544.273926</ele>
<time>2011-04-26T05:40:30Z</time>
<desc>lat.=22.036577, lon.=104.002113, Alt.=544.273926m. Speed=0.864000m/h.</desc>
<speed>0.240000</speed>
</trkpt>
<trkpt lat="22.036575" lon="104.002113">
<ele>544.242676</ele>
<time>2011-04-26T05:40:35Z</time>
<desc>lat.=22.036575, lon.=104.002113, Alt.=544.242676m. Speed=1.152000m/h.</desc>
<speed>0.320000</speed>
</trkpt>
<trkpt lat="22.036566" lon="104.002151">
<ele>543.258301</ele>
<time>2011-04-26T05:40:40Z</time>
<desc>lat.=22.036566, lon.=104.002151, Alt.=543.258301m. Speed=2.952000m/h.</desc>
<speed>0.820000</speed>
</trkpt>
<trkpt lat="22.036638" lon="104.002167">
<ele>541.617676</ele>
<time>2011-04-26T05:40:45Z</time>
<desc>lat.=22.036638, lon.=104.002167, Alt.=541.617676m. Speed=0.828000m/h.</desc>
<speed>0.230000</speed>
</trkpt>
<trkpt lat="22.036634" lon="104.002174">
<ele>541.180176</ele>
<time>2011-04-26T05:40:50Z</time>
<desc>lat.=22.036634, lon.=104.002174, Alt.=541.180176m. Speed=0.864000m/h.</desc>
<speed>0.240000</speed>
</trkpt>
<trkpt lat="22.036585" lon="104.002136">
<ele>542.117676</ele>
<time>2011-04-26T05:40:55Z</time>
<desc>lat.=22.036585, lon.=104.002136, Alt.=542.117676m. Speed=2.196000m/h.</desc>
<speed>0.610000</speed>
</trkpt>
<trkpt lat="22.036573" lon="104.002106">
<ele>541.555176</ele>
<time>2011-04-26T05:41:00Z</time>
<desc>lat.=22.036573, lon.=104.002106, Alt.=541.555176m. Speed=0.468000m/h.</desc>
<speed>0.130000</speed>
</trkpt>
<trkpt lat="22.036572" lon="104.002106">
<ele>541.367676</ele>
<time>2011-04-26T05:41:05Z</time>
<desc>lat.=22.036572, lon.=104.002106, Alt.=541.367676m. Speed=0.684000m/h.</desc>
<speed>0.190000</speed>
</trkpt>
<trkpt lat="22.036579" lon="104.002098">
<ele>541.852051</ele>
<time>2011-04-26T05:41:10Z</time>
<desc>lat.=22.036579, lon.=104.002098, Alt.=541.852051m. Speed=0.792000m/h.</desc>
<speed>0.220000</speed>
</trkpt>
<trkpt lat="22.036566" lon="104.002068">
<ele>542.633301</ele>
<time>2011-04-26T05:41:15Z</time>
<desc>lat.=22.036566, lon.=104.002068, Alt.=542.633301m. Speed=1.368000m/h.</desc>
<speed>0.380000</speed>
</trkpt>
<trkpt lat="22.036545" lon="104.002037">
<ele>543.758301</ele>
<time>2011-04-26T05:41:20Z</time>
<desc>lat.=22.036545, lon.=104.002037, Alt.=543.758301m. Speed=0.504000m/h.</desc>
<speed>0.140000</speed>
</trkpt>
<trkpt lat="22.036545" lon="104.002052">
<ele>543.992676</ele>
<time>2011-04-26T05:41:25Z</time>
<desc>lat.=22.036545, lon.=104.002052, Alt.=543.992676m. Speed=0.612000m/h.</desc>
<speed>0.170000</speed>
</trkpt>
<trkpt lat="22.036579" lon="104.002090">
<ele>543.898926</ele>
<time>2011-04-26T05:41:30Z</time>
<desc>lat.=22.036579, lon.=104.002090, Alt.=543.898926m. Speed=1.692000m/h.</desc>
<speed>0.470000</speed>
</trkpt>
<trkpt lat="22.036585" lon="104.002106">
<ele>543.727051</ele>
<time>2011-04-26T05:41:35Z</time>
<desc>lat.=22.036585, lon.=104.002106, Alt.=543.727051m. Speed=2.808000m/h.</desc>
<speed>0.780000</speed>
</trkpt>
<trkpt lat="22.036596" lon="104.002106">
<ele>543.445801</ele>
<time>2011-04-26T05:41:40Z</time>
<desc>lat.=22.036596, lon.=104.002106, Alt.=543.445801m. Speed=0.648000m/h.</desc>
<speed>0.180000</speed>
</trkpt>
<trkpt lat="22.036585" lon="104.002098">
<ele>543.539551</ele>
<time>2011-04-26T05:41:45Z</time>
<desc>lat.=22.036585, lon.=104.002098, Alt.=543.539551m. Speed=1.080000m/h.</desc>
<speed>0.300000</speed>
</trkpt>
<trkpt lat="22.036585" lon="104.002106">
<ele>543.930176</ele>
<time>2011-04-26T05:41:50Z</time>
<desc>lat.=22.036585, lon.=104.002106, Alt.=543.930176m. Speed=0.684000m/h.</desc>
<speed>0.190000</speed>
</trkpt>
<trkpt lat="22.036600" lon="104.002113">
<ele>544.633301</ele>
<time>2011-04-26T05:41:55Z</time>
<desc>lat.=22.036600, lon.=104.002113, Alt.=544.633301m. Speed=0.324000m/h.</desc>
<speed>0.090000</speed>
</trkpt>
<trkpt lat="22.036610" lon="104.002121">
<ele>545.242676</ele>
<time>2011-04-26T05:42:00Z</time>
<desc>lat.=22.036610, lon.=104.002121, Alt.=545.242676m. Speed=0.216000m/h.</desc>
<speed>0.060000</speed>
</trkpt>
<trkpt lat="22.036608" lon="104.002098">
<ele>545.008301</ele>
<time>2011-04-26T05:42:05Z</time>
<desc>lat.=22.036608, lon.=104.002098, Alt.=545.008301m. Speed=1.188000m/h.</desc>
<speed>0.330000</speed>
</trkpt>
<trkpt lat="22.036606" lon="104.002068">
<ele>546.586426</ele>
<time>2011-04-26T05:42:10Z</time>
<desc>lat.=22.036606, lon.=104.002068, Alt.=546.586426m. Speed=0.216000m/h.</desc>
<speed>0.060000</speed>
</trkpt>
<trkpt lat="22.036606" lon="104.002075">
<ele>547.711426</ele>
<time>2011-04-26T05:42:15Z</time>
<desc>lat.=22.036606, lon.=104.002075, Alt.=547.711426m. Speed=0.864000m/h.</desc>
<speed>0.240000</speed>
</trkpt>
<trkpt lat="22.036573" lon="104.002090">
<ele>547.383301</ele>
<time>2011-04-26T05:42:20Z</time>
<desc>lat.=22.036573, lon.=104.002090, Alt.=547.383301m. Speed=0.540000m/h.</desc>
<speed>0.150000</speed>
</trkpt>
<trkpt lat="22.036543" lon="104.002106">
<ele>545.773926</ele>
<time>2011-04-26T05:42:25Z</time>
<desc>lat.=22.036543, lon.=104.002106, Alt.=545.773926m. Speed=0.648000m/h.</desc>
<speed>0.180000</speed>
</trkpt>
<trkpt lat="22.036512" lon="104.002113">
<ele>544.305176</ele>
<time>2011-04-26T05:42:30Z</time>
<desc>lat.=22.036512, lon.=104.002113, Alt.=544.305176m. Speed=1.872000m/h.</desc>
<speed>0.520000</speed>
</trkpt>
<trkpt lat="22.036476" lon="104.002098">
<ele>543.211426</ele>
<time>2011-04-26T05:42:35Z</time>
<desc>lat.=22.036476, lon.=104.002098, Alt.=543.211426m. Speed=3.348000m/h.</desc>
<speed>0.930000</speed>
</trkpt>
<trkpt lat="22.036438" lon="104.002075">
<ele>542.555176</ele>
<time>2011-04-26T05:42:40Z</time>
<desc>lat.=22.036438, lon.=104.002075, Alt.=542.555176m. Speed=1.872000m/h.</desc>
<speed>0.520000</speed>
</trkpt>
<trkpt lat="22.036446" lon="104.002068">
<ele>542.211426</ele>
<time>2011-04-26T05:42:45Z</time>
<desc>lat.=22.036446, lon.=104.002068, Alt.=542.211426m. Speed=0.324000m/h.</desc>
<speed>0.090000</speed>
</trkpt>
<trkpt lat="22.036446" lon="104.002052">
<ele>542.180176</ele>
<time>2011-04-26T05:42:50Z</time>
<desc>lat.=22.036446, lon.=104.002052, Alt.=542.180176m. Speed=1.008000m/h.</desc>
<speed>0.280000</speed>
</trkpt>
<trkpt lat="22.036451" lon="104.002045">
<ele>542.367676</ele>
<time>2011-04-26T05:42:55Z</time>
<desc>lat.=22.036451, lon.=104.002045, Alt.=542.367676m. Speed=0.612000m/h.</desc>
<speed>0.170000</speed>
</trkpt>
<trkpt lat="22.036486" lon="104.002052">
<ele>541.633301</ele>
<time>2011-04-26T05:43:00Z</time>
<desc>lat.=22.036486, lon.=104.002052, Alt.=541.633301m. Speed=2.448000m/h.</desc>
<speed>0.680000</speed>
</trkpt>
<trkpt lat="22.036524" lon="104.002068">
<ele>541.617676</ele>
<time>2011-04-26T05:43:05Z</time>
<desc>lat.=22.036524, lon.=104.002068, Alt.=541.617676m. Speed=2.340000m/h.</desc>
<speed>0.650000</speed>
</trkpt>
<trkpt lat="22.036524" lon="104.002029">
<ele>541.367676</ele>
<time>2011-04-26T05:43:10Z</time>
<desc>lat.=22.036524, lon.=104.002029, Alt.=541.367676m. Speed=1.224000m/h.</desc>
<speed>0.340000</speed>
</trkpt>
<trkpt lat="22.036472" lon="104.002029">
<ele>540.523926</ele>
<time>2011-04-26T05:43:15Z</time>
<desc>lat.=22.036472, lon.=104.002029, Alt.=540.523926m. Speed=2.556000m/h.</desc>
<speed>0.710000</speed>
</trkpt>
<trkpt lat="22.036459" lon="104.002029">
<ele>539.773926</ele>
<time>2011-04-26T05:43:20Z</time>
<desc>lat.=22.036459, lon.=104.002029, Alt.=539.773926m. Speed=0.252000m/h.</desc>
<speed>0.070000</speed>
</trkpt>
<trkpt lat="22.036472" lon="104.002068">
<ele>537.148926</ele>
<time>2011-04-26T05:43:25Z</time>
<desc>lat.=22.036472, lon.=104.002068, Alt.=537.148926m. Speed=0.072000m/h.</desc>
<speed>0.020000</speed>
</trkpt>
<trkpt lat="22.036503" lon="104.002098">
<ele>536.711426</ele>
<time>2011-04-26T05:43:30Z</time>
<desc>lat.=22.036503, lon.=104.002098, Alt.=536.711426m. Speed=0.720000m/h.</desc>
<speed>0.200000</speed>
</trkpt>
<trkpt lat="22.036543" lon="104.002113">
<ele>536.523926</ele>
<time>2011-04-26T05:43:35Z</time>
<desc>lat.=22.036543, lon.=104.002113, Alt.=536.523926m. Speed=3.132000m/h.</desc>
<speed>0.870000</speed>
</trkpt>
<trkpt lat="22.036579" lon="104.002144">
<ele>535.898926</ele>
<time>2011-04-26T05:43:40Z</time>
<desc>lat.=22.036579, lon.=104.002144, Alt.=535.898926m. Speed=1.980000m/h.</desc>
<speed>0.550000</speed>
</trkpt>
<trkpt lat="22.036560" lon="104.002106">
<ele>536.305176</ele>
<time>2011-04-26T05:43:45Z</time>
<desc>lat.=22.036560, lon.=104.002106, Alt.=536.305176m. Speed=0.216000m/h.</desc>
<speed>0.060000</speed>
</trkpt>
<trkpt lat="22.036575" lon="104.002121">
<ele>535.586426</ele>
<time>2011-04-26T05:43:50Z</time>
<desc>lat.=22.036575, lon.=104.002121, Alt.=535.586426m. Speed=1.584000m/h.</desc>
<speed>0.440000</speed>
</trkpt>
<trkpt lat="22.036554" lon="104.002121">
<ele>535.023926</ele>
<time>2011-04-26T05:43:55Z</time>
<desc>lat.=22.036554, lon.=104.002121, Alt.=535.023926m. Speed=1.260000m/h.</desc>
<speed>0.350000</speed>
</trkpt>
<trkpt lat="22.036528" lon="104.002106">
<ele>534.836426</ele>
<time>2011-04-26T05:44:00Z</time>
<desc>lat.=22.036528, lon.=104.002106, Alt.=534.836426m. Speed=0.144000m/h.</desc>
<speed>0.040000</speed>
</trkpt>
<trkpt lat="22.036537" lon="104.002113">
<ele>534.883301</ele>
<time>2011-04-26T05:44:05Z</time>
<desc>lat.=22.036537, lon.=104.002113, Alt.=534.883301m. Speed=1.080000m/h.</desc>
<speed>0.300000</speed>
</trkpt>
<trkpt lat="22.036629" lon="104.002151">
<ele>534.758301</ele>
<time>2011-04-26T05:44:10Z</time>
<desc>lat.=22.036629, lon.=104.002151, Alt.=534.758301m. Speed=3.060000m/h.</desc>
<speed>0.850000</speed>
</trkpt>
<trkpt lat="22.036650" lon="104.002220">
<ele>536.461426</ele>
<time>2011-04-26T05:44:15Z</time>
<desc>lat.=22.036650, lon.=104.002220, Alt.=536.461426m. Speed=2.664000m/h.</desc>
<speed>0.740000</speed>
</trkpt>
<trkpt lat="22.036697" lon="104.002266">
<ele>537.820801</ele>
<time>2011-04-26T05:44:20Z</time>
<desc>lat.=22.036697, lon.=104.002266, Alt.=537.820801m. Speed=1.980000m/h.</desc>
<speed>0.550000</speed>
</trkpt>
<trkpt lat="22.036760" lon="104.002289">
<ele>540.227051</ele>
<time>2011-04-26T05:44:25Z</time>
<desc>lat.=22.036760, lon.=104.002289, Alt.=540.227051m. Speed=2.304000m/h.</desc>
<speed>0.640000</speed>
</trkpt>
<trkpt lat="22.036764" lon="104.002296">
<ele>543.102051</ele>
<time>2011-04-26T05:44:30Z</time>
<desc>lat.=22.036764, lon.=104.002296, Alt.=543.102051m. Speed=2.160000m/h.</desc>
<speed>0.600000</speed>
</trkpt>
<trkpt lat="22.036758" lon="104.002312">
<ele>543.023926</ele>
<time>2011-04-26T05:44:35Z</time>
<desc>lat.=22.036758, lon.=104.002312, Alt.=543.023926m. Speed=0.900000m/h.</desc>
<speed>0.250000</speed>
</trkpt>
<trkpt lat="22.036743" lon="104.002258">
<ele>544.023926</ele>
<time>2011-04-26T05:44:40Z</time>
<desc>lat.=22.036743, lon.=104.002258, Alt.=544.023926m. Speed=2.016000m/h.</desc>
<speed>0.560000</speed>
</trkpt>
<trkpt lat="22.036777" lon="104.002258">
<ele>544.289551</ele>
<time>2011-04-26T05:44:45Z</time>
<desc>lat.=22.036777, lon.=104.002258, Alt.=544.289551m. Speed=0.900000m/h.</desc>
<speed>0.250000</speed>
</trkpt>
<trkpt lat="22.036785" lon="104.002289">
<ele>542.805176</ele>
<time>2011-04-26T05:44:50Z</time>
<desc>lat.=22.036785, lon.=104.002289, Alt.=542.805176m. Speed=1.800000m/h.</desc>
<speed>0.500000</speed>
</trkpt>
<trkpt lat="22.036718" lon="104.002266">
<ele>541.602051</ele>
<time>2011-04-26T05:44:55Z</time>
<desc>lat.=22.036718, lon.=104.002266, Alt.=541.602051m. Speed=2.700000m/h.</desc>
<speed>0.750000</speed>
</trkpt>
<trkpt lat="22.036676" lon="104.002235">
<ele>539.539551</ele>
<time>2011-04-26T05:45:00Z</time>
<desc>lat.=22.036676, lon.=104.002235, Alt.=539.539551m. Speed=1.440000m/h.</desc>
<speed>0.400000</speed>
</trkpt>
<trkpt lat="22.036676" lon="104.002220">
<ele>537.898926</ele>
<time>2011-04-26T05:45:05Z</time>
<desc>lat.=22.036676, lon.=104.002220, Alt.=537.898926m. Speed=1.800000m/h.</desc>
<speed>0.500000</speed>
</trkpt>
<trkpt lat="22.036625" lon="104.002136">
<ele>538.367676</ele>
<time>2011-04-26T05:45:10Z</time>
<desc>lat.=22.036625, lon.=104.002136, Alt.=538.367676m. Speed=2.844000m/h.</desc>
<speed>0.790000</speed>
</trkpt>
<trkpt lat="22.036587" lon="104.002068">
<ele>538.945801</ele>
<time>2011-04-26T05:45:15Z</time>
<desc>lat.=22.036587, lon.=104.002068, Alt.=538.945801m. Speed=2.304000m/h.</desc>
<speed>0.640000</speed>
</trkpt>
<trkpt lat="22.036570" lon="104.002060">
<ele>540.305176</ele>
<time>2011-04-26T05:45:20Z</time>
<desc>lat.=22.036570, lon.=104.002060, Alt.=540.305176m. Speed=1.584000m/h.</desc>
<speed>0.440000</speed>
</trkpt>
<trkpt lat="22.036606" lon="104.002098">
<ele>539.164551</ele>
<time>2011-04-26T05:45:25Z</time>
<desc>lat.=22.036606, lon.=104.002098, Alt.=539.164551m. Speed=1.116000m/h.</desc>
<speed>0.310000</speed>
</trkpt>
<trkpt lat="22.036621" lon="104.002136">
<ele>537.211426</ele>
<time>2011-04-26T05:45:30Z</time>
<desc>lat.=22.036621, lon.=104.002136, Alt.=537.211426m. Speed=2.052000m/h.</desc>
<speed>0.570000</speed>
</trkpt>
<trkpt lat="22.036600" lon="104.002106">
<ele>536.867676</ele>
<time>2011-04-26T05:45:35Z</time>
<desc>lat.=22.036600, lon.=104.002106, Alt.=536.867676m. Speed=1.296000m/h.</desc>
<speed>0.360000</speed>
</trkpt>
<trkpt lat="22.036604" lon="104.002121">
<ele>536.961426</ele>
<time>2011-04-26T05:45:40Z</time>
<desc>lat.=22.036604, lon.=104.002121, Alt.=536.961426m. Speed=1.476000m/h.</desc>
<speed>0.410000</speed>
</trkpt>
<trkpt lat="22.036592" lon="104.002136">
<ele>535.336426</ele>
<time>2011-04-26T05:45:45Z</time>
<desc>lat.=22.036592, lon.=104.002136, Alt.=535.336426m. Speed=0.972000m/h.</desc>
<speed>0.270000</speed>
</trkpt>
<trkpt lat="22.036591" lon="104.002151">
<ele>535.383301</ele>
<time>2011-04-26T05:45:50Z</time>
<desc>lat.=22.036591, lon.=104.002151, Alt.=535.383301m. Speed=0.576000m/h.</desc>
<speed>0.160000</speed>
</trkpt>
<trkpt lat="22.036594" lon="104.002151">
<ele>535.445801</ele>
<time>2011-04-26T05:45:55Z</time>
<desc>lat.=22.036594, lon.=104.002151, Alt.=535.445801m. Speed=0.396000m/h.</desc>
<speed>0.110000</speed>
</trkpt>
<trkpt lat="22.036602" lon="104.002144">
<ele>535.492676</ele>
<time>2011-04-26T05:46:00Z</time>
<desc>lat.=22.036602, lon.=104.002144, Alt.=535.492676m. Speed=0.720000m/h.</desc>
<speed>0.200000</speed>
</trkpt>
<trkpt lat="22.036598" lon="104.002144">
<ele>535.492676</ele>
<time>2011-04-26T05:46:05Z</time>
<desc>lat.=22.036598, lon.=104.002144, Alt.=535.492676m. Speed=0.396000m/h.</desc>
<speed>0.110000</speed>
</trkpt>
<trkpt lat="22.036600" lon="104.002136">
<ele>535.477051</ele>
<time>2011-04-26T05:46:10Z</time>
<desc>lat.=22.036600, lon.=104.002136, Alt.=535.477051m. Speed=0.540000m/h.</desc>
<speed>0.150000</speed>
</trkpt>
<trkpt lat="22.036604" lon="104.002136">
<ele>535.523926</ele>
<time>2011-04-26T05:46:15Z</time>
<desc>lat.=22.036604, lon.=104.002136, Alt.=535.523926m. Speed=0.324000m/h.</desc>
<speed>0.090000</speed>
</trkpt>
<trkpt lat="22.036608" lon="104.002136">
<ele>535.523926</ele>
<time>2011-04-26T05:46:20Z</time>
<desc>lat.=22.036608, lon.=104.002136, Alt.=535.523926m. Speed=0.540000m/h.</desc>
<speed>0.150000</speed>
</trkpt>
<trkpt lat="22.036615" lon="104.002129">
<ele>535.586426</ele>
<time>2011-04-26T05:46:25Z</time>
<desc>lat.=22.036615, lon.=104.002129, Alt.=535.586426m. Speed=0.756000m/h.</desc>
<speed>0.210000</speed>
</trkpt>
<trkpt lat="22.036615" lon="104.002129">
<ele>535.617676</ele>
<time>2011-04-26T05:46:30Z</time>
<desc>lat.=22.036615, lon.=104.002129, Alt.=535.617676m. Speed=0.108000m/h.</desc>
<speed>0.030000</speed>
</trkpt>
<trkpt lat="22.036608" lon="104.002129">
<ele>535.617676</ele>
<time>2011-04-26T05:46:35Z</time>
<desc>lat.=22.036608, lon.=104.002129, Alt.=535.617676m. Speed=1.152000m/h.</desc>
<speed>0.320000</speed>
</trkpt>
<trkpt lat="22.036589" lon="104.002129">
<ele>534.617676</ele>
<time>2011-04-26T05:46:40Z</time>
<desc>lat.=22.036589, lon.=104.002129, Alt.=534.617676m. Speed=0.756000m/h.</desc>
<speed>0.210000</speed>
</trkpt>
<trkpt lat="22.036583" lon="104.002144">
<ele>534.680176</ele>
<time>2011-04-26T05:46:45Z</time>
<desc>lat.=22.036583, lon.=104.002144, Alt.=534.680176m. Speed=0.900000m/h.</desc>
<speed>0.250000</speed>
</trkpt>
<trkpt lat="22.036591" lon="104.002151">
<ele>534.742676</ele>
<time>2011-04-26T05:46:50Z</time>
<desc>lat.=22.036591, lon.=104.002151, Alt.=534.742676m. Speed=0.828000m/h.</desc>
<speed>0.230000</speed>
</trkpt>
<trkpt lat="22.036598" lon="104.002151">
<ele>534.820801</ele>
<time>2011-04-26T05:46:55Z</time>
<desc>lat.=22.036598, lon.=104.002151, Alt.=534.820801m. Speed=0.360000m/h.</desc>
<speed>0.100000</speed>
</trkpt>
<trkpt lat="22.036606" lon="104.002151">
<ele>534.914551</ele>
<time>2011-04-26T05:47:00Z</time>
<desc>lat.=22.036606, lon.=104.002151, Alt.=534.914551m. Speed=0.504000m/h.</desc>
<speed>0.140000</speed>
</trkpt>
<trkpt lat="22.036613" lon="104.002151">
<ele>534.930176</ele>
<time>2011-04-26T05:47:05Z</time>
<desc>lat.=22.036613, lon.=104.002151, Alt.=534.930176m. Speed=0.540000m/h.</desc>
<speed>0.150000</speed>
</trkpt>
<trkpt lat="22.036615" lon="104.002159">
<ele>534.883301</ele>
<time>2011-04-26T05:47:10Z</time>
<desc>lat.=22.036615, lon.=104.002159, Alt.=534.883301m. Speed=0.684000m/h.</desc>
<speed>0.190000</speed>
</trkpt>
<trkpt lat="22.036619" lon="104.002167">
<ele>534.820801</ele>
<time>2011-04-26T05:47:15Z</time>
<desc>lat.=22.036619, lon.=104.002167, Alt.=534.820801m. Speed=0.720000m/h.</desc>
<speed>0.200000</speed>
</trkpt>
<trkpt lat="22.036617" lon="104.002174">
<ele>534.820801</ele>
<time>2011-04-26T05:47:20Z</time>
<desc>lat.=22.036617, lon.=104.002174, Alt.=534.820801m. Speed=0.324000m/h.</desc>
<speed>0.090000</speed>
</trkpt>
<trkpt lat="22.036617" lon="104.002174">
<ele>534.836426</ele>
<time>2011-04-26T05:47:25Z</time>
<desc>lat.=22.036617, lon.=104.002174, Alt.=534.836426m. Speed=0.612000m/h.</desc>
<speed>0.170000</speed>
</trkpt>
<trkpt lat="22.036610" lon="104.002167">
<ele>534.852051</ele>
<time>2011-04-26T05:47:30Z</time>
<desc>lat.=22.036610, lon.=104.002167, Alt.=534.852051m. Speed=0.828000m/h.</desc>
<speed>0.230000</speed>
</trkpt>
<trkpt lat="22.036602" lon="104.002167">
<ele>534.883301</ele>
<time>2011-04-26T05:47:35Z</time>
<desc>lat.=22.036602, lon.=104.002167, Alt.=534.883301m. Speed=0.360000m/h.</desc>
<speed>0.100000</speed>
</trkpt>
<trkpt lat="22.036587" lon="104.002151">
<ele>534.586426</ele>
<time>2011-04-26T05:47:40Z</time>
<desc>lat.=22.036587, lon.=104.002151, Alt.=534.586426m. Speed=1.368000m/h.</desc>
<speed>0.380000</speed>
</trkpt>
<trkpt lat="22.036591" lon="104.002129">
<ele>534.039551</ele>
<time>2011-04-26T05:47:45Z</time>
<desc>lat.=22.036591, lon.=104.002129, Alt.=534.039551m. Speed=0.468000m/h.</desc>
<speed>0.130000</speed>
</trkpt>
<trkpt lat="22.036587" lon="104.002113">
<ele>533.977051</ele>
<time>2011-04-26T05:47:50Z</time>
<desc>lat.=22.036587, lon.=104.002113, Alt.=533.977051m. Speed=0.468000m/h.</desc>
<speed>0.130000</speed>
</trkpt>
<trkpt lat="22.036583" lon="104.002113">
<ele>534.023926</ele>
<time>2011-04-26T05:47:55Z</time>
<desc>lat.=22.036583, lon.=104.002113, Alt.=534.023926m. Speed=0.720000m/h.</desc>
<speed>0.200000</speed>
</trkpt>
<trkpt lat="22.036537" lon="104.002098">
<ele>534.711426</ele>
<time>2011-04-26T05:48:00Z</time>
<desc>lat.=22.036537, lon.=104.002098, Alt.=534.711426m. Speed=0.828000m/h.</desc>
<speed>0.230000</speed>
</trkpt>
<trkpt lat="22.036488" lon="104.002060">
<ele>535.305176</ele>
<time>2011-04-26T05:48:05Z</time>
<desc>lat.=22.036488, lon.=104.002060, Alt.=535.305176m. Speed=1.728000m/h.</desc>
<speed>0.480000</speed>
</trkpt>
<trkpt lat="22.036491" lon="104.002068">
<ele>534.758301</ele>
<time>2011-04-26T05:48:10Z</time>
<desc>lat.=22.036491, lon.=104.002068, Alt.=534.758301m. Speed=0.432000m/h.</desc>
<speed>0.120000</speed>
</trkpt>
<trkpt lat="22.036507" lon="104.002083">
<ele>534.461426</ele>
<time>2011-04-26T05:48:15Z</time>
<desc>lat.=22.036507, lon.=104.002083, Alt.=534.461426m. Speed=0.684000m/h.</desc>
<speed>0.190000</speed>
</trkpt>
<trkpt lat="22.036528" lon="104.002106">
<ele>534.117676</ele>
<time>2011-04-26T05:48:20Z</time>
<desc>lat.=22.036528, lon.=104.002106, Alt.=534.117676m. Speed=1.044000m/h.</desc>
<speed>0.290000</speed>
</trkpt>
<trkpt lat="22.036526" lon="104.002121">
<ele>533.977051</ele>
<time>2011-04-26T05:48:25Z</time>
<desc>lat.=22.036526, lon.=104.002121, Alt.=533.977051m. Speed=0.648000m/h.</desc>
<speed>0.180000</speed>
</trkpt>
<trkpt lat="22.036545" lon="104.002106">
<ele>534.398926</ele>
<time>2011-04-26T05:48:30Z</time>
<desc>lat.=22.036545, lon.=104.002106, Alt.=534.398926m. Speed=0.864000m/h.</desc>
<speed>0.240000</speed>
</trkpt>
<trkpt lat="22.036568" lon="104.002098">
<ele>534.617676</ele>
<time>2011-04-26T05:48:35Z</time>
<desc>lat.=22.036568, lon.=104.002098, Alt.=534.617676m. Speed=0.180000m/h.</desc>
<speed>0.050000</speed>
</trkpt>
<trkpt lat="22.036562" lon="104.002098">
<ele>534.648926</ele>
<time>2011-04-26T05:48:40Z</time>
<desc>lat.=22.036562, lon.=104.002098, Alt.=534.648926m. Speed=0.900000m/h.</desc>
<speed>0.250000</speed>
</trkpt>
<trkpt lat="22.036554" lon="104.002090">
<ele>534.680176</ele>
<time>2011-04-26T05:48:45Z</time>
<desc>lat.=22.036554, lon.=104.002090, Alt.=534.680176m. Speed=0.432000m/h.</desc>
<speed>0.120000</speed>
</trkpt>
<trkpt lat="22.036551" lon="104.002090">
<ele>534.695801</ele>
<time>2011-04-26T05:48:50Z</time>
<desc>lat.=22.036551, lon.=104.002090, Alt.=534.695801m. Speed=0.684000m/h.</desc>
<speed>0.190000</speed>
</trkpt>
<trkpt lat="22.036543" lon="104.002083">
<ele>534.727051</ele>
<time>2011-04-26T05:48:55Z</time>
<desc>lat.=22.036543, lon.=104.002083, Alt.=534.727051m. Speed=0.180000m/h.</desc>
<speed>0.050000</speed>
</trkpt>
<trkpt lat="22.036543" lon="104.002083">
<ele>534.742676</ele>
<time>2011-04-26T05:49:00Z</time>
<desc>lat.=22.036543, lon.=104.002083, Alt.=534.742676m. Speed=0.360000m/h.</desc>
<speed>0.100000</speed>
</trkpt>
<trkpt lat="22.036545" lon="104.002075">
<ele>534.742676</ele>
<time>2011-04-26T05:49:05Z</time>
<desc>lat.=22.036545, lon.=104.002075, Alt.=534.742676m. Speed=0.072000m/h.</desc>
<speed>0.020000</speed>
</trkpt>
<trkpt lat="22.036547" lon="104.002083">
<ele>534.758301</ele>
<time>2011-04-26T05:49:10Z</time>
<desc>lat.=22.036547, lon.=104.002083, Alt.=534.758301m. Speed=0.648000m/h.</desc>
<speed>0.180000</speed>
</trkpt>
<trkpt lat="22.036560" lon="104.002083">
<ele>534.617676</ele>
<time>2011-04-26T05:49:15Z</time>
<desc>lat.=22.036560, lon.=104.002083, Alt.=534.617676m. Speed=1.224000m/h.</desc>
<speed>0.340000</speed>
</trkpt>
<trkpt lat="22.036568" lon="104.002090">
<ele>534.008301</ele>
<time>2011-04-26T05:49:20Z</time>
<desc>lat.=22.036568, lon.=104.002090, Alt.=534.008301m. Speed=1.044000m/h.</desc>
<speed>0.290000</speed>
</trkpt>
<trkpt lat="22.036562" lon="104.002083">
<ele>534.023926</ele>
<time>2011-04-26T05:49:25Z</time>
<desc>lat.=22.036562, lon.=104.002083, Alt.=534.023926m. Speed=0.648000m/h.</desc>
<speed>0.180000</speed>
</trkpt>
<trkpt lat="22.036566" lon="104.002090">
<ele>534.055176</ele>
<time>2011-04-26T05:49:30Z</time>
<desc>lat.=22.036566, lon.=104.002090, Alt.=534.055176m. Speed=0.360000m/h.</desc>
<speed>0.100000</speed>
</trkpt>
<trkpt lat="22.036568" lon="104.002090">
<ele>534.039551</ele>
<time>2011-04-26T05:49:35Z</time>
<desc>lat.=22.036568, lon.=104.002090, Alt.=534.039551m. Speed=0.072000m/h.</desc>
<speed>0.020000</speed>
</trkpt>
<trkpt lat="22.036564" lon="104.002090">
<ele>534.023926</ele>
<time>2011-04-26T05:49:40Z</time>
<desc>lat.=22.036564, lon.=104.002090, Alt.=534.023926m. Speed=0.900000m/h.</desc>
<speed>0.250000</speed>
</trkpt>
<trkpt lat="22.036552" lon="104.002083">
<ele>534.008301</ele>
<time>2011-04-26T05:49:45Z</time>
<desc>lat.=22.036552, lon.=104.002083, Alt.=534.008301m. Speed=0.864000m/h.</desc>
<speed>0.240000</speed>
</trkpt>
<trkpt lat="22.036489" lon="104.002060">
<ele>534.211426</ele>
<time>2011-04-26T05:49:50Z</time>
<desc>lat.=22.036489, lon.=104.002060, Alt.=534.211426m. Speed=1.260000m/h.</desc>
<speed>0.350000</speed>
</trkpt>
<trkpt lat="22.036453" lon="104.002052">
<ele>534.430176</ele>
<time>2011-04-26T05:49:55Z</time>
<desc>lat.=22.036453, lon.=104.002052, Alt.=534.430176m. Speed=1.080000m/h.</desc>
<speed>0.300000</speed>
</trkpt>
<trkpt lat="22.036440" lon="104.002029">
<ele>535.336426</ele>
<time>2011-04-26T05:50:00Z</time>
<desc>lat.=22.036440, lon.=104.002029, Alt.=535.336426m. Speed=0.864000m/h.</desc>
<speed>0.240000</speed>
</trkpt>
<trkpt lat="22.036459" lon="104.002022">
<ele>535.711426</ele>
<time>2011-04-26T05:50:05Z</time>
<desc>lat.=22.036459, lon.=104.002022, Alt.=535.711426m. Speed=0.216000m/h.</desc>
<speed>0.060000</speed>
</trkpt>
<trkpt lat="22.036465" lon="104.002022">
<ele>535.836426</ele>
<time>2011-04-26T05:50:10Z</time>
<desc>lat.=22.036465, lon.=104.002022, Alt.=535.836426m. Speed=0.612000m/h.</desc>
<speed>0.170000</speed>
</trkpt>
<trkpt lat="22.036470" lon="104.002022">
<ele>535.930176</ele>
<time>2011-04-26T05:50:15Z</time>
<desc>lat.=22.036470, lon.=104.002022, Alt.=535.930176m. Speed=0.756000m/h.</desc>
<speed>0.210000</speed>
</trkpt>
<trkpt lat="22.036474" lon="104.002029">
<ele>535.977051</ele>
<time>2011-04-26T05:50:20Z</time>
<desc>lat.=22.036474, lon.=104.002029, Alt.=535.977051m. Speed=0.324000m/h.</desc>
<speed>0.090000</speed>
</trkpt>
<trkpt lat="22.036470" lon="104.002037">
<ele>536.008301</ele>
<time>2011-04-26T05:50:25Z</time>
<desc>lat.=22.036470, lon.=104.002037, Alt.=536.008301m. Speed=0.576000m/h.</desc>
<speed>0.160000</speed>
</trkpt>
<trkpt lat="22.036474" lon="104.002045">
<ele>536.039551</ele>
<time>2011-04-26T05:50:30Z</time>
<desc>lat.=22.036474, lon.=104.002045, Alt.=536.039551m. Speed=0.720000m/h.</desc>
<speed>0.200000</speed>
</trkpt>
<trkpt lat="22.036489" lon="104.002060">
<ele>536.070801</ele>
<time>2011-04-26T05:50:35Z</time>
<desc>lat.=22.036489, lon.=104.002060, Alt.=536.070801m. Speed=1.548000m/h.</desc>
<speed>0.430000</speed>
</trkpt>
<trkpt lat="22.036522" lon="104.002060">
<ele>536.242676</ele>
<time>2011-04-26T05:50:40Z</time>
<desc>lat.=22.036522, lon.=104.002060, Alt.=536.242676m. Speed=1.224000m/h.</desc>
<speed>0.340000</speed>
</trkpt>
<trkpt lat="22.036543" lon="104.002060">
<ele>536.602051</ele>
<time>2011-04-26T05:50:45Z</time>
<desc>lat.=22.036543, lon.=104.002060, Alt.=536.602051m. Speed=1.080000m/h.</desc>
<speed>0.300000</speed>
</trkpt>
<trkpt lat="22.036549" lon="104.002068">
<ele>536.680176</ele>
<time>2011-04-26T05:50:50Z</time>
<desc>lat.=22.036549, lon.=104.002068, Alt.=536.680176m. Speed=0.144000m/h.</desc>
<speed>0.040000</speed>
</trkpt>
<trkpt lat="22.036541" lon="104.002052">
<ele>536.586426</ele>
<time>2011-04-26T05:50:55Z</time>
<desc>lat.=22.036541, lon.=104.002052, Alt.=536.586426m. Speed=0.648000m/h.</desc>
<speed>0.180000</speed>
</trkpt>
<trkpt lat="22.036539" lon="104.002045">
<ele>536.602051</ele>
<time>2011-04-26T05:51:00Z</time>
<desc>lat.=22.036539, lon.=104.002045, Alt.=536.602051m. Speed=0.576000m/h.</desc>
<speed>0.160000</speed>
</trkpt>
<trkpt lat="22.036539" lon="104.002045">
<ele>536.570801</ele>
<time>2011-04-26T05:51:05Z</time>
<desc>lat.=22.036539, lon.=104.002045, Alt.=536.570801m. Speed=0.144000m/h.</desc>
<speed>0.040000</speed>
</trkpt>
<trkpt lat="22.036535" lon="104.002045">
<ele>536.492676</ele>
<time>2011-04-26T05:51:10Z</time>
<desc>lat.=22.036535, lon.=104.002045, Alt.=536.492676m. Speed=0.360000m/h.</desc>
<speed>0.100000</speed>
</trkpt>
<trkpt lat="22.036530" lon="104.002045">
<ele>536.445801</ele>
<time>2011-04-26T05:51:15Z</time>
<desc>lat.=22.036530, lon.=104.002045, Alt.=536.445801m. Speed=1.548000m/h.</desc>
<speed>0.430000</speed>
</trkpt>
<trkpt lat="22.036560" lon="104.002060">
<ele>535.711426</ele>
<time>2011-04-26T05:51:20Z</time>
<desc>lat.=22.036560, lon.=104.002060, Alt.=535.711426m. Speed=0.576000m/h.</desc>
<speed>0.160000</speed>
</trkpt>
<trkpt lat="22.036560" lon="104.002068">
<ele>535.727051</ele>
<time>2011-04-26T05:51:25Z</time>
<desc>lat.=22.036560, lon.=104.002068, Alt.=535.727051m. Speed=0.396000m/h.</desc>
<speed>0.110000</speed>
</trkpt>
<trkpt lat="22.036554" lon="104.002068">
<ele>535.711426</ele>
<time>2011-04-26T05:51:30Z</time>
<desc>lat.=22.036554, lon.=104.002068, Alt.=535.711426m. Speed=0.684000m/h.</desc>
<speed>0.190000</speed>
</trkpt>
<trkpt lat="22.036547" lon="104.002068">
<ele>535.727051</ele>
<time>2011-04-26T05:51:35Z</time>
<desc>lat.=22.036547, lon.=104.002068, Alt.=535.727051m. Speed=0.828000m/h.</desc>
<speed>0.230000</speed>
</trkpt>
<trkpt lat="22.036539" lon="104.002075">
<ele>535.727051</ele>
<time>2011-04-26T05:51:40Z</time>
<desc>lat.=22.036539, lon.=104.002075, Alt.=535.727051m. Speed=0.612000m/h.</desc>
<speed>0.170000</speed>
</trkpt>
<trkpt lat="22.036535" lon="104.002075">
<ele>535.758301</ele>
<time>2011-04-26T05:51:45Z</time>
<desc>lat.=22.036535, lon.=104.002075, Alt.=535.758301m. Speed=0.864000m/h.</desc>
<speed>0.240000</speed>
</trkpt>
<trkpt lat="22.036530" lon="104.002083">
<ele>535.773926</ele>
<time>2011-04-26T05:51:50Z</time>
<desc>lat.=22.036530, lon.=104.002083, Alt.=535.773926m. Speed=0.432000m/h.</desc>
<speed>0.120000</speed>
</trkpt>
<trkpt lat="22.036530" lon="104.002083">
<ele>535.836426</ele>
<time>2011-04-26T05:51:55Z</time>
<desc>lat.=22.036530, lon.=104.002083, Alt.=535.836426m. Speed=0.072000m/h.</desc>
<speed>0.020000</speed>
</trkpt>
<trkpt lat="22.036533" lon="104.002090">
<ele>535.883301</ele>
<time>2011-04-26T05:52:00Z</time>
<desc>lat.=22.036533, lon.=104.002090, Alt.=535.883301m. Speed=0.720000m/h.</desc>
<speed>0.200000</speed>
</trkpt>
<trkpt lat="22.036539" lon="104.002098">
<ele>535.898926</ele>
<time>2011-04-26T05:52:05Z</time>
<desc>lat.=22.036539, lon.=104.002098, Alt.=535.898926m. Speed=0.720000m/h.</desc>
<speed>0.200000</speed>
</trkpt>
<trkpt lat="22.036545" lon="104.002098">
<ele>535.883301</ele>
<time>2011-04-26T05:52:10Z</time>
<desc>lat.=22.036545, lon.=104.002098, Alt.=535.883301m. Speed=0.756000m/h.</desc>
<speed>0.210000</speed>
</trkpt>
<trkpt lat="22.036551" lon="104.002098">
<ele>535.945801</ele>
<time>2011-04-26T05:52:15Z</time>
<desc>lat.=22.036551, lon.=104.002098, Alt.=535.945801m. Speed=0.216000m/h.</desc>
<speed>0.060000</speed>
</trkpt>
<trkpt lat="22.036551" lon="104.002098">
<ele>535.977051</ele>
<time>2011-04-26T05:52:20Z</time>
<desc>lat.=22.036551, lon.=104.002098, Alt.=535.977051m. Speed=0.252000m/h.</desc>
<speed>0.070000</speed>
</trkpt>
<trkpt lat="22.036551" lon="104.002098">
<ele>536.008301</ele>
<time>2011-04-26T05:52:25Z</time>
<desc>lat.=22.036551, lon.=104.002098, Alt.=536.008301m. Speed=0.252000m/h.</desc>
<speed>0.070000</speed>
</trkpt>
<trkpt lat="22.036547" lon="104.002090">
<ele>536.039551</ele>
<time>2011-04-26T05:52:30Z</time>
<desc>lat.=22.036547, lon.=104.002090, Alt.=536.039551m. Speed=0.324000m/h.</desc>
<speed>0.090000</speed>
</trkpt>
<trkpt lat="22.036543" lon="104.002090">
<ele>536.102051</ele>
<time>2011-04-26T05:52:35Z</time>
<desc>lat.=22.036543, lon.=104.002090, Alt.=536.102051m. Speed=0.468000m/h.</desc>
<speed>0.130000</speed>
</trkpt>
<trkpt lat="22.036489" lon="104.002075">
<ele>536.289551</ele>
<time>2011-04-26T05:52:40Z</time>
<desc>lat.=22.036489, lon.=104.002075, Alt.=536.289551m. Speed=1.872000m/h.</desc>
<speed>0.520000</speed>
</trkpt>
<trkpt lat="22.036457" lon="104.002052">
<ele>536.211426</ele>
<time>2011-04-26T05:52:45Z</time>
<desc>lat.=22.036457, lon.=104.002052, Alt.=536.211426m. Speed=1.260000m/h.</desc>
<speed>0.350000</speed>
</trkpt>
<trkpt lat="22.036413" lon="104.002045">
<ele>536.055176</ele>
<time>2011-04-26T05:52:50Z</time>
<desc>lat.=22.036413, lon.=104.002045, Alt.=536.055176m. Speed=1.152000m/h.</desc>
<speed>0.320000</speed>
</trkpt>
<trkpt lat="22.036409" lon="104.002052">
<ele>536.133301</ele>
<time>2011-04-26T05:52:55Z</time>
<desc>lat.=22.036409, lon.=104.002052, Alt.=536.133301m. Speed=0.648000m/h.</desc>
<speed>0.180000</speed>
</trkpt>
<trkpt lat="22.036419" lon="104.002052">
<ele>536.102051</ele>
<time>2011-04-26T05:53:00Z</time>
<desc>lat.=22.036419, lon.=104.002052, Alt.=536.102051m. Speed=0.072000m/h.</desc>
<speed>0.020000</speed>
</trkpt>
<trkpt lat="22.036415" lon="104.002060">
<ele>536.148926</ele>
<time>2011-04-26T05:53:05Z</time>
<desc>lat.=22.036415, lon.=104.002060, Alt.=536.148926m. Speed=0.756000m/h.</desc>
<speed>0.210000</speed>
</trkpt>
<trkpt lat="22.036413" lon="104.002068">
<ele>536.148926</ele>
<time>2011-04-26T05:53:10Z</time>
<desc>lat.=22.036413, lon.=104.002068, Alt.=536.148926m. Speed=0.612000m/h.</desc>
<speed>0.170000</speed>
</trkpt>
<trkpt lat="22.036409" lon="104.002083">
<ele>535.602051</ele>
<time>2011-04-26T05:53:15Z</time>
<desc>lat.=22.036409, lon.=104.002083, Alt.=535.602051m. Speed=1.224000m/h.</desc>
<speed>0.340000</speed>
</trkpt>
<trkpt lat="22.036415" lon="104.002121">
<ele>534.977051</ele>
<time>2011-04-26T05:53:20Z</time>
<desc>lat.=22.036415, lon.=104.002121, Alt.=534.977051m. Speed=1.548000m/h.</desc>
<speed>0.430000</speed>
</trkpt>
<trkpt lat="22.036434" lon="104.002113">
<ele>534.992676</ele>
<time>2011-04-26T05:53:25Z</time>
<desc>lat.=22.036434, lon.=104.002113, Alt.=534.992676m. Speed=0.540000m/h.</desc>
<speed>0.150000</speed>
</trkpt>
<trkpt lat="22.036449" lon="104.002113">
<ele>534.977051</ele>
<time>2011-04-26T05:53:30Z</time>
<desc>lat.=22.036449, lon.=104.002113, Alt.=534.977051m. Speed=0.936000m/h.</desc>
<speed>0.260000</speed>
</trkpt>
<trkpt lat="22.036482" lon="104.002090">
<ele>534.727051</ele>
<time>2011-04-26T05:53:35Z</time>
<desc>lat.=22.036482, lon.=104.002090, Alt.=534.727051m. Speed=0.864000m/h.</desc>
<speed>0.240000</speed>
</trkpt>
<trkpt lat="22.036489" lon="104.002090">
<ele>534.742676</ele>
<time>2011-04-26T05:53:40Z</time>
<desc>lat.=22.036489, lon.=104.002090, Alt.=534.742676m. Speed=0.396000m/h.</desc>
<speed>0.110000</speed>
</trkpt>
<trkpt lat="22.036491" lon="104.002098">
<ele>534.742676</ele>
<time>2011-04-26T05:53:45Z</time>
<desc>lat.=22.036491, lon.=104.002098, Alt.=534.742676m. Speed=0.144000m/h.</desc>
<speed>0.040000</speed>
</trkpt>
<trkpt lat="22.036489" lon="104.002106">
<ele>534.758301</ele>
<time>2011-04-26T05:53:50Z</time>
<desc>lat.=22.036489, lon.=104.002106, Alt.=534.758301m. Speed=0.900000m/h.</desc>
<speed>0.250000</speed>
</trkpt>
<trkpt lat="22.036484" lon="104.002106">
<ele>534.789551</ele>
<time>2011-04-26T05:53:55Z</time>
<desc>lat.=22.036484, lon.=104.002106, Alt.=534.789551m. Speed=0.360000m/h.</desc>
<speed>0.100000</speed>
</trkpt>
<trkpt lat="22.036486" lon="104.002098">
<ele>534.836426</ele>
<time>2011-04-26T05:54:00Z</time>
<desc>lat.=22.036486, lon.=104.002098, Alt.=534.836426m. Speed=0.396000m/h.</desc>
<speed>0.110000</speed>
</trkpt>
<trkpt lat="22.036491" lon="104.002098">
<ele>534.852051</ele>
<time>2011-04-26T05:54:05Z</time>
<desc>lat.=22.036491, lon.=104.002098, Alt.=534.852051m. Speed=0.720000m/h.</desc>
<speed>0.200000</speed>
</trkpt>
<trkpt lat="22.036493" lon="104.002098">
<ele>534.867676</ele>
<time>2011-04-26T05:54:10Z</time>
<desc>lat.=22.036493, lon.=104.002098, Alt.=534.867676m. Speed=0.288000m/h.</desc>
<speed>0.080000</speed>
</trkpt>
<trkpt lat="22.036489" lon="104.002106">
<ele>534.914551</ele>
<time>2011-04-26T05:54:15Z</time>
<desc>lat.=22.036489, lon.=104.002106, Alt.=534.914551m. Speed=0.468000m/h.</desc>
<speed>0.130000</speed>
</trkpt>
<trkpt lat="22.036478" lon="104.002098">
<ele>534.961426</ele>
<time>2011-04-26T05:54:20Z</time>
<desc>lat.=22.036478, lon.=104.002098, Alt.=534.961426m. Speed=0.576000m/h.</desc>
<speed>0.160000</speed>
</trkpt>
<trkpt lat="22.036474" lon="104.002090">
<ele>535.023926</ele>
<time>2011-04-26T05:54:25Z</time>
<desc>lat.=22.036474, lon.=104.002090, Alt.=535.023926m. Speed=0.756000m/h.</desc>
<speed>0.210000</speed>
</trkpt>
<trkpt lat="22.036451" lon="104.002075">
<ele>535.070801</ele>
<time>2011-04-26T05:54:30Z</time>
<desc>lat.=22.036451, lon.=104.002075, Alt.=535.070801m. Speed=1.188000m/h.</desc>
<speed>0.330000</speed>
</trkpt>
<trkpt lat="22.036434" lon="104.002075">
<ele>536.195801</ele>
<time>2011-04-26T05:54:35Z</time>
<desc>lat.=22.036434, lon.=104.002075, Alt.=536.195801m. Speed=0.720000m/h.</desc>
<speed>0.200000</speed>
</trkpt>
<trkpt lat="22.036427" lon="104.002083">
<ele>536.242676</ele>
<time>2011-04-26T05:54:40Z</time>
<desc>lat.=22.036427, lon.=104.002083, Alt.=536.242676m. Speed=0.540000m/h.</desc>
<speed>0.150000</speed>
</trkpt>
<trkpt lat="22.036430" lon="104.002090">
<ele>536.258301</ele>
<time>2011-04-26T05:54:45Z</time>
<desc>lat.=22.036430, lon.=104.002090, Alt.=536.258301m. Speed=0.612000m/h.</desc>
<speed>0.170000</speed>
</trkpt>
<trkpt lat="22.036449" lon="104.002083">
<ele>536.461426</ele>
<time>2011-04-26T05:54:50Z</time>
<desc>lat.=22.036449, lon.=104.002083, Alt.=536.461426m. Speed=0.576000m/h.</desc>
<speed>0.160000</speed>
</trkpt>
<trkpt lat="22.036461" lon="104.002075">
<ele>536.680176</ele>
<time>2011-04-26T05:54:55Z</time>
<desc>lat.=22.036461, lon.=104.002075, Alt.=536.680176m. Speed=0.576000m/h.</desc>
<speed>0.160000</speed>
</trkpt>
<trkpt lat="22.036455" lon="104.002060">
<ele>536.727051</ele>
<time>2011-04-26T05:55:00Z</time>
<desc>lat.=22.036455, lon.=104.002060, Alt.=536.727051m. Speed=0.396000m/h.</desc>
<speed>0.110000</speed>
</trkpt>
<trkpt lat="22.036451" lon="104.002060">
<ele>536.727051</ele>
<time>2011-04-26T05:55:05Z</time>
<desc>lat.=22.036451, lon.=104.002060, Alt.=536.727051m. Speed=0.504000m/h.</desc>
<speed>0.140000</speed>
</trkpt>
<trkpt lat="22.036444" lon="104.002060">
<ele>536.742676</ele>
<time>2011-04-26T05:55:10Z</time>
<desc>lat.=22.036444, lon.=104.002060, Alt.=536.742676m. Speed=0.792000m/h.</desc>
<speed>0.220000</speed>
</trkpt>
<trkpt lat="22.036434" lon="104.002052">
<ele>536.773926</ele>
<time>2011-04-26T05:55:15Z</time>
<desc>lat.=22.036434, lon.=104.002052, Alt.=536.773926m. Speed=0.396000m/h.</desc>
<speed>0.110000</speed>
</trkpt>
<trkpt lat="22.036432" lon="104.002045">
<ele>536.805176</ele>
<time>2011-04-26T05:55:20Z</time>
<desc>lat.=22.036432, lon.=104.002045, Alt.=536.805176m. Speed=0.684000m/h.</desc>
<speed>0.190000</speed>
</trkpt>
<trkpt lat="22.036430" lon="104.002037">
<ele>536.805176</ele>
<time>2011-04-26T05:55:25Z</time>
<desc>lat.=22.036430, lon.=104.002037, Alt.=536.805176m. Speed=0.072000m/h.</desc>
<speed>0.020000</speed>
</trkpt>
<trkpt lat="22.036428" lon="104.002037">
<ele>536.789551</ele>
<time>2011-04-26T05:55:30Z</time>
<desc>lat.=22.036428, lon.=104.002037, Alt.=536.789551m. Speed=0.288000m/h.</desc>
<speed>0.080000</speed>
</trkpt>
<trkpt lat="22.036430" lon="104.002045">
<ele>536.789551</ele>
<time>2011-04-26T05:55:35Z</time>
<desc>lat.=22.036430, lon.=104.002045, Alt.=536.789551m. Speed=0.972000m/h.</desc>
<speed>0.270000</speed>
</trkpt>
<trkpt lat="22.036440" lon="104.002052">
<ele>536.805176</ele>
<time>2011-04-26T05:55:40Z</time>
<desc>lat.=22.036440, lon.=104.002052, Alt.=536.805176m. Speed=0.792000m/h.</desc>
<speed>0.220000</speed>
</trkpt>
<trkpt lat="22.036442" lon="104.002060">
<ele>536.820801</ele>
<time>2011-04-26T05:55:45Z</time>
<desc>lat.=22.036442, lon.=104.002060, Alt.=536.820801m. Speed=0.036000m/h.</desc>
<speed>0.010000</speed>
</trkpt>
<trkpt lat="22.036446" lon="104.002060">
<ele>536.820801</ele>
<time>2011-04-26T05:55:50Z</time>
<desc>lat.=22.036446, lon.=104.002060, Alt.=536.820801m. Speed=0.576000m/h.</desc>
<speed>0.160000</speed>
</trkpt>
<trkpt lat="22.036451" lon="104.002060">
<ele>536.867676</ele>
<time>2011-04-26T05:55:55Z</time>
<desc>lat.=22.036451, lon.=104.002060, Alt.=536.867676m. Speed=0.540000m/h.</desc>
<speed>0.150000</speed>
</trkpt>
<trkpt lat="22.036448" lon="104.002083">
<ele>536.711426</ele>
<time>2011-04-26T05:56:00Z</time>
<desc>lat.=22.036448, lon.=104.002083, Alt.=536.711426m. Speed=0.900000m/h.</desc>
<speed>0.250000</speed>
</trkpt>
<trkpt lat="22.036448" lon="104.002106">
<ele>536.461426</ele>
<time>2011-04-26T05:56:05Z</time>
<desc>lat.=22.036448, lon.=104.002106, Alt.=536.461426m. Speed=0.648000m/h.</desc>
<speed>0.180000</speed>
</trkpt>
<trkpt lat="22.036442" lon="104.002113">
<ele>536.461426</ele>
<time>2011-04-26T05:56:10Z</time>
<desc>lat.=22.036442, lon.=104.002113, Alt.=536.461426m. Speed=0.720000m/h.</desc>
<speed>0.200000</speed>
</trkpt>
<trkpt lat="22.036434" lon="104.002106">
<ele>536.477051</ele>
<time>2011-04-26T05:56:15Z</time>
<desc>lat.=22.036434, lon.=104.002106, Alt.=536.477051m. Speed=0.828000m/h.</desc>
<speed>0.230000</speed>
</trkpt>
<trkpt lat="22.036434" lon="104.002098">
<ele>536.492676</ele>
<time>2011-04-26T05:56:20Z</time>
<desc>lat.=22.036434, lon.=104.002098, Alt.=536.492676m. Speed=0.468000m/h.</desc>
<speed>0.130000</speed>
</trkpt>
<trkpt lat="22.036438" lon="104.002090">
<ele>536.492676</ele>
<time>2011-04-26T05:56:25Z</time>
<desc>lat.=22.036438, lon.=104.002090, Alt.=536.492676m. Speed=0.468000m/h.</desc>
<speed>0.130000</speed>
</trkpt>
<trkpt lat="22.036438" lon="104.002090">
<ele>536.492676</ele>
<time>2011-04-26T05:56:30Z</time>
<desc>lat.=22.036438, lon.=104.002090, Alt.=536.492676m. Speed=0.252000m/h.</desc>
<speed>0.070000</speed>
</trkpt>
<trkpt lat="22.036438" lon="104.002083">
<ele>536.508301</ele>
<time>2011-04-26T05:56:35Z</time>
<desc>lat.=22.036438, lon.=104.002083, Alt.=536.508301m. Speed=0.432000m/h.</desc>
<speed>0.120000</speed>
</trkpt>
<trkpt lat="22.036432" lon="104.002075">
<ele>536.508301</ele>
<time>2011-04-26T05:56:40Z</time>
<desc>lat.=22.036432, lon.=104.002075, Alt.=536.508301m. Speed=0.684000m/h.</desc>
<speed>0.190000</speed>
</trkpt>
<trkpt lat="22.036432" lon="104.002075">
<ele>536.523926</ele>
<time>2011-04-26T05:56:45Z</time>
<desc>lat.=22.036432, lon.=104.002075, Alt.=536.523926m. Speed=0.828000m/h.</desc>
<speed>0.230000</speed>
</trkpt>
<trkpt lat="22.036444" lon="104.002075">
<ele>536.586426</ele>
<time>2011-04-26T05:56:50Z</time>
<desc>lat.=22.036444, lon.=104.002075, Alt.=536.586426m. Speed=0.900000m/h.</desc>
<speed>0.250000</speed>
</trkpt>
<trkpt lat="22.036467" lon="104.002068">
<ele>536.508301</ele>
<time>2011-04-26T05:56:55Z</time>
<desc>lat.=22.036467, lon.=104.002068, Alt.=536.508301m. Speed=1.224000m/h.</desc>
<speed>0.340000</speed>
</trkpt>
<trkpt lat="22.036489" lon="104.002045">
<ele>535.992676</ele>
<time>2011-04-26T05:57:00Z</time>
<desc>lat.=22.036489, lon.=104.002045, Alt.=535.992676m. Speed=0.612000m/h.</desc>
<speed>0.170000</speed>
</trkpt>
<trkpt lat="22.036489" lon="104.002037">
<ele>536.008301</ele>
<time>2011-04-26T05:57:05Z</time>
<desc>lat.=22.036489, lon.=104.002037, Alt.=536.008301m. Speed=0.396000m/h.</desc>
<speed>0.110000</speed>
</trkpt>
<trkpt lat="22.036486" lon="104.002037">
<ele>536.008301</ele>
<time>2011-04-26T05:57:10Z</time>
<desc>lat.=22.036486, lon.=104.002037, Alt.=536.008301m. Speed=0.144000m/h.</desc>
<speed>0.040000</speed>
</trkpt>
<trkpt lat="22.036488" lon="104.002037">
<ele>536.023926</ele>
<time>2011-04-26T05:57:15Z</time>
<desc>lat.=22.036488, lon.=104.002037, Alt.=536.023926m. Speed=0.180000m/h.</desc>
<speed>0.050000</speed>
</trkpt>
<trkpt lat="22.036486" lon="104.002037">
<ele>536.023926</ele>
<time>2011-04-26T05:57:20Z</time>
<desc>lat.=22.036486, lon.=104.002037, Alt.=536.023926m. Speed=0.288000m/h.</desc>
<speed>0.080000</speed>
</trkpt>
<trkpt lat="22.036484" lon="104.002037">
<ele>536.008301</ele>
<time>2011-04-26T05:57:25Z</time>
<desc>lat.=22.036484, lon.=104.002037, Alt.=536.008301m. Speed=0.288000m/h.</desc>
<speed>0.080000</speed>
</trkpt>
<trkpt lat="22.036482" lon="104.002037">
<ele>535.961426</ele>
<time>2011-04-26T05:57:30Z</time>
<desc>lat.=22.036482, lon.=104.002037, Alt.=535.961426m. Speed=0.612000m/h.</desc>
<speed>0.170000</speed>
</trkpt>
<trkpt lat="22.036484" lon="104.002045">
<ele>535.977051</ele>
<time>2011-04-26T05:57:35Z</time>
<desc>lat.=22.036484, lon.=104.002045, Alt.=535.977051m. Speed=0.720000m/h.</desc>
<speed>0.200000</speed>
</trkpt>
<trkpt lat="22.036486" lon="104.002052">
<ele>535.992676</ele>
<time>2011-04-26T05:57:40Z</time>
<desc>lat.=22.036486, lon.=104.002052, Alt.=535.992676m. Speed=0.468000m/h.</desc>
<speed>0.130000</speed>
</trkpt>
<trkpt lat="22.036486" lon="104.002060">
<ele>536.023926</ele>
<time>2011-04-26T05:57:45Z</time>
<desc>lat.=22.036486, lon.=104.002060, Alt.=536.023926m. Speed=0.252000m/h.</desc>
<speed>0.070000</speed>
</trkpt>
<trkpt lat="22.036488" lon="104.002068">
<ele>536.055176</ele>
<time>2011-04-26T05:57:50Z</time>
<desc>lat.=22.036488, lon.=104.002068, Alt.=536.055176m. Speed=0.144000m/h.</desc>
<speed>0.040000</speed>
</trkpt>
<trkpt lat="22.036488" lon="104.002068">
<ele>536.055176</ele>
<time>2011-04-26T05:57:55Z</time>
<desc>lat.=22.036488, lon.=104.002068, Alt.=536.055176m. Speed=0.252000m/h.</desc>
<speed>0.070000</speed>
</trkpt>
<trkpt lat="22.036482" lon="104.002068">
<ele>536.055176</ele>
<time>2011-04-26T05:58:00Z</time>
<desc>lat.=22.036482, lon.=104.002068, Alt.=536.055176m. Speed=0.612000m/h.</desc>
<speed>0.170000</speed>
</trkpt>
<trkpt lat="22.036480" lon="104.002060">
<ele>536.086426</ele>
<time>2011-04-26T05:58:05Z</time>
<desc>lat.=22.036480, lon.=104.002060, Alt.=536.086426m. Speed=0.792000m/h.</desc>
<speed>0.220000</speed>
</trkpt>
<trkpt lat="22.036472" lon="104.002060">
<ele>536.086426</ele>
<time>2011-04-26T05:58:10Z</time>
<desc>lat.=22.036472, lon.=104.002060, Alt.=536.086426m. Speed=0.108000m/h.</desc>
<speed>0.030000</speed>
</trkpt>
<trkpt lat="22.036476" lon="104.002060">
<ele>536.086426</ele>
<time>2011-04-26T05:58:15Z</time>
<desc>lat.=22.036476, lon.=104.002060, Alt.=536.086426m. Speed=0.756000m/h.</desc>
<speed>0.210000</speed>
</trkpt>
<trkpt lat="22.036488" lon="104.002068">
<ele>536.086426</ele>
<time>2011-04-26T05:58:20Z</time>
<desc>lat.=22.036488, lon.=104.002068, Alt.=536.086426m. Speed=0.936000m/h.</desc>
<speed>0.260000</speed>
</trkpt>
<trkpt lat="22.036493" lon="104.002075">
<ele>536.086426</ele>
<time>2011-04-26T05:58:25Z</time>
<desc>lat.=22.036493, lon.=104.002075, Alt.=536.086426m. Speed=0.432000m/h.</desc>
<speed>0.120000</speed>
</trkpt>
<trkpt lat="22.036497" lon="104.002083">
<ele>536.102051</ele>
<time>2011-04-26T05:58:30Z</time>
<desc>lat.=22.036497, lon.=104.002083, Alt.=536.102051m. Speed=0.864000m/h.</desc>
<speed>0.240000</speed>
</trkpt>
<trkpt lat="22.036507" lon="104.002090">
<ele>536.133301</ele>
<time>2011-04-26T05:58:35Z</time>
<desc>lat.=22.036507, lon.=104.002090, Alt.=536.133301m. Speed=0.684000m/h.</desc>
<speed>0.190000</speed>
</trkpt>
<trkpt lat="22.036510" lon="104.002098">
<ele>536.180176</ele>
<time>2011-04-26T05:58:40Z</time>
<desc>lat.=22.036510, lon.=104.002098, Alt.=536.180176m. Speed=0.540000m/h.</desc>
<speed>0.150000</speed>
</trkpt>
<trkpt lat="22.036514" lon="104.002090">
<ele>536.211426</ele>
<time>2011-04-26T05:58:45Z</time>
<desc>lat.=22.036514, lon.=104.002090, Alt.=536.211426m. Speed=0.360000m/h.</desc>
<speed>0.100000</speed>
</trkpt>
<trkpt lat="22.036516" lon="104.002090">
<ele>536.227051</ele>
<time>2011-04-26T05:58:50Z</time>
<desc>lat.=22.036516, lon.=104.002090, Alt.=536.227051m. Speed=0.180000m/h.</desc>
<speed>0.050000</speed>
</trkpt>
<trkpt lat="22.036516" lon="104.002090">
<ele>536.242676</ele>
<time>2011-04-26T05:58:55Z</time>
<desc>lat.=22.036516, lon.=104.002090, Alt.=536.242676m. Speed=0.504000m/h.</desc>
<speed>0.140000</speed>
</trkpt>
<trkpt lat="22.036518" lon="104.002083">
<ele>536.289551</ele>
<time>2011-04-26T05:59:00Z</time>
<desc>lat.=22.036518, lon.=104.002083, Alt.=536.289551m. Speed=0.288000m/h.</desc>
<speed>0.080000</speed>
</trkpt>
<trkpt lat="22.036522" lon="104.002090">
<ele>536.305176</ele>
<time>2011-04-26T05:59:05Z</time>
<desc>lat.=22.036522, lon.=104.002090, Alt.=536.305176m. Speed=0.288000m/h.</desc>
<speed>0.080000</speed>
</trkpt>
<trkpt lat="22.036524" lon="104.002083">
<ele>536.320801</ele>
<time>2011-04-26T05:59:10Z</time>
<desc>lat.=22.036524, lon.=104.002083, Alt.=536.320801m. Speed=0.180000m/h.</desc>
<speed>0.050000</speed>
</trkpt>
<trkpt lat="22.036526" lon="104.002083">
<ele>536.352051</ele>
<time>2011-04-26T05:59:15Z</time>
<desc>lat.=22.036526, lon.=104.002083, Alt.=536.352051m. Speed=0.288000m/h.</desc>
<speed>0.080000</speed>
</trkpt>
<trkpt lat="22.036533" lon="104.002083">
<ele>536.367676</ele>
<time>2011-04-26T05:59:20Z</time>
<desc>lat.=22.036533, lon.=104.002083, Alt.=536.367676m. Speed=0.540000m/h.</desc>
<speed>0.150000</speed>
</trkpt>
<trkpt lat="22.036533" lon="104.002075">
<ele>536.570801</ele>
<time>2011-04-26T05:59:25Z</time>
<desc>lat.=22.036533, lon.=104.002075, Alt.=536.570801m. Speed=0.108000m/h.</desc>
<speed>0.030000</speed>
</trkpt>
<trkpt lat="22.036530" lon="104.002075">
<ele>536.617676</ele>
<time>2011-04-26T05:59:30Z</time>
<desc>lat.=22.036530, lon.=104.002075, Alt.=536.617676m. Speed=0.432000m/h.</desc>
<speed>0.120000</speed>
</trkpt>
<trkpt lat="22.036524" lon="104.002075">
<ele>536.633301</ele>
<time>2011-04-26T05:59:35Z</time>
<desc>lat.=22.036524, lon.=104.002075, Alt.=536.633301m. Speed=0.144000m/h.</desc>
<speed>0.040000</speed>
</trkpt>
<trkpt lat="22.036522" lon="104.002075">
<ele>536.633301</ele>
<time>2011-04-26T05:59:40Z</time>
<desc>lat.=22.036522, lon.=104.002075, Alt.=536.633301m. Speed=0.360000m/h.</desc>
<speed>0.100000</speed>
</trkpt>
<trkpt lat="22.036520" lon="104.002083">
<ele>536.664551</ele>
<time>2011-04-26T05:59:45Z</time>
<desc>lat.=22.036520, lon.=104.002083, Alt.=536.664551m. Speed=0.468000m/h.</desc>
<speed>0.130000</speed>
</trkpt>
<trkpt lat="22.036520" lon="104.002083">
<ele>536.711426</ele>
<time>2011-04-26T05:59:50Z</time>
<desc>lat.=22.036520, lon.=104.002083, Alt.=536.711426m. Speed=0.144000m/h.</desc>
<speed>0.040000</speed>
</trkpt>
<trkpt lat="22.036522" lon="104.002083">
<ele>536.758301</ele>
<time>2011-04-26T05:59:55Z</time>
<desc>lat.=22.036522, lon.=104.002083, Alt.=536.758301m. Speed=0.432000m/h.</desc>
<speed>0.120000</speed>
</trkpt>
<trkpt lat="22.036514" lon="104.002083">
<ele>536.789551</ele>
<time>2011-04-26T06:00:00Z</time>
<desc>lat.=22.036514, lon.=104.002083, Alt.=536.789551m. Speed=0.756000m/h.</desc>
<speed>0.210000</speed>
</trkpt>
<trkpt lat="22.036518" lon="104.002083">
<ele>536.570801</ele>
<time>2011-04-26T06:00:05Z</time>
<desc>lat.=22.036518, lon.=104.002083, Alt.=536.570801m. Speed=0.324000m/h.</desc>
<speed>0.090000</speed>
</trkpt>
<trkpt lat="22.036528" lon="104.002090">
<ele>536.336426</ele>
<time>2011-04-26T06:00:10Z</time>
<desc>lat.=22.036528, lon.=104.002090, Alt.=536.336426m. Speed=0.324000m/h.</desc>
<speed>0.090000</speed>
</trkpt>
<trkpt lat="22.036530" lon="104.002098">
<ele>536.352051</ele>
<time>2011-04-26T06:00:15Z</time>
<desc>lat.=22.036530, lon.=104.002098, Alt.=536.352051m. Speed=0.468000m/h.</desc>
<speed>0.130000</speed>
</trkpt>
<trkpt lat="22.036524" lon="104.002098">
<ele>536.383301</ele>
<time>2011-04-26T06:00:20Z</time>
<desc>lat.=22.036524, lon.=104.002098, Alt.=536.383301m. Speed=0.684000m/h.</desc>
<speed>0.190000</speed>
</trkpt>
<trkpt lat="22.036522" lon="104.002098">
<ele>536.398926</ele>
<time>2011-04-26T06:00:25Z</time>
<desc>lat.=22.036522, lon.=104.002098, Alt.=536.398926m. Speed=0.432000m/h.</desc>
<speed>0.120000</speed>
</trkpt>
<trkpt lat="22.036524" lon="104.002090">
<ele>536.398926</ele>
<time>2011-04-26T06:00:30Z</time>
<desc>lat.=22.036524, lon.=104.002090, Alt.=536.398926m. Speed=0.144000m/h.</desc>
<speed>0.040000</speed>
</trkpt>
<trkpt lat="22.036516" lon="104.002098">
<ele>536.414551</ele>
<time>2011-04-26T06:00:35Z</time>
<desc>lat.=22.036516, lon.=104.002098, Alt.=536.414551m. Speed=0.180000m/h.</desc>
<speed>0.050000</speed>
</trkpt>
<trkpt lat="22.036514" lon="104.002098">
<ele>536.430176</ele>
<time>2011-04-26T06:00:40Z</time>
<desc>lat.=22.036514, lon.=104.002098, Alt.=536.430176m. Speed=0.540000m/h.</desc>
<speed>0.150000</speed>
</trkpt>
<trkpt lat="22.036509" lon="104.002106">
<ele>536.461426</ele>
<time>2011-04-26T06:00:45Z</time>
<desc>lat.=22.036509, lon.=104.002106, Alt.=536.461426m. Speed=0.360000m/h.</desc>
<speed>0.100000</speed>
</trkpt>
<trkpt lat="22.036507" lon="104.002106">
<ele>536.492676</ele>
<time>2011-04-26T06:00:50Z</time>
<desc>lat.=22.036507, lon.=104.002106, Alt.=536.492676m. Speed=0.180000m/h.</desc>
<speed>0.050000</speed>
</trkpt>
<trkpt lat="22.036509" lon="104.002113">
<ele>536.523926</ele>
<time>2011-04-26T06:00:55Z</time>
<desc>lat.=22.036509, lon.=104.002113, Alt.=536.523926m. Speed=0.324000m/h.</desc>
<speed>0.090000</speed>
</trkpt>
<trkpt lat="22.036509" lon="104.002113">
<ele>536.539551</ele>
<time>2011-04-26T06:01:00Z</time>
<desc>lat.=22.036509, lon.=104.002113, Alt.=536.539551m. Speed=0.360000m/h.</desc>
<speed>0.100000</speed>
</trkpt>
<trkpt lat="22.036512" lon="104.002113">
<ele>536.555176</ele>
<time>2011-04-26T06:01:05Z</time>
<desc>lat.=22.036512, lon.=104.002113, Alt.=536.555176m. Speed=0.288000m/h.</desc>
<speed>0.080000</speed>
</trkpt>
<trkpt lat="22.036514" lon="104.002106">
<ele>536.555176</ele>
<time>2011-04-26T06:01:10Z</time>
<desc>lat.=22.036514, lon.=104.002106, Alt.=536.555176m. Speed=0.432000m/h.</desc>
<speed>0.120000</speed>
</trkpt>
<trkpt lat="22.036520" lon="104.002106">
<ele>536.539551</ele>
<time>2011-04-26T06:01:15Z</time>
<desc>lat.=22.036520, lon.=104.002106, Alt.=536.539551m. Speed=0.036000m/h.</desc>
<speed>0.010000</speed>
</trkpt>
<trkpt lat="22.036516" lon="104.002106">
<ele>536.523926</ele>
<time>2011-04-26T06:01:20Z</time>
<desc>lat.=22.036516, lon.=104.002106, Alt.=536.523926m. Speed=0.324000m/h.</desc>
<speed>0.090000</speed>
</trkpt>
<trkpt lat="22.036516" lon="104.002113">
<ele>536.508301</ele>
<time>2011-04-26T06:01:25Z</time>
<desc>lat.=22.036516, lon.=104.002113, Alt.=536.508301m. Speed=0.288000m/h.</desc>
<speed>0.080000</speed>
</trkpt>
<trkpt lat="22.036522" lon="104.002113">
<ele>536.523926</ele>
<time>2011-04-26T06:01:30Z</time>
<desc>lat.=22.036522, lon.=104.002113, Alt.=536.523926m. Speed=0.468000m/h.</desc>
<speed>0.130000</speed>
</trkpt>
<trkpt lat="22.036528" lon="104.002113">
<ele>536.586426</ele>
<time>2011-04-26T06:01:35Z</time>
<desc>lat.=22.036528, lon.=104.002113, Alt.=536.586426m. Speed=0.612000m/h.</desc>
<speed>0.170000</speed>
</trkpt>
<trkpt lat="22.036531" lon="104.002113">
<ele>536.602051</ele>
<time>2011-04-26T06:01:40Z</time>
<desc>lat.=22.036531, lon.=104.002113, Alt.=536.602051m. Speed=0.288000m/h.</desc>
<speed>0.080000</speed>
</trkpt>
<trkpt lat="22.036530" lon="104.002121">
<ele>536.586426</ele>
<time>2011-04-26T06:01:45Z</time>
<desc>lat.=22.036530, lon.=104.002121, Alt.=536.586426m. Speed=0.396000m/h.</desc>
<speed>0.110000</speed>
</trkpt>
<trkpt lat="22.036531" lon="104.002121">
<ele>536.586426</ele>
<time>2011-04-26T06:01:50Z</time>
<desc>lat.=22.036531, lon.=104.002121, Alt.=536.586426m. Speed=0.792000m/h.</desc>
<speed>0.220000</speed>
</trkpt>
<trkpt lat="22.036537" lon="104.002129">
<ele>536.586426</ele>
<time>2011-04-26T06:01:55Z</time>
<desc>lat.=22.036537, lon.=104.002129, Alt.=536.586426m. Speed=0.540000m/h.</desc>
<speed>0.150000</speed>
</trkpt>
<trkpt lat="22.036543" lon="104.002129">
<ele>536.602051</ele>
<time>2011-04-26T06:02:00Z</time>
<desc>lat.=22.036543, lon.=104.002129, Alt.=536.602051m. Speed=0.432000m/h.</desc>
<speed>0.120000</speed>
</trkpt>
<trkpt lat="22.036549" lon="104.002129">
<ele>536.602051</ele>
<time>2011-04-26T06:02:05Z</time>
<desc>lat.=22.036549, lon.=104.002129, Alt.=536.602051m. Speed=0.432000m/h.</desc>
<speed>0.120000</speed>
</trkpt>
<trkpt lat="22.036547" lon="104.002136">
<ele>536.617676</ele>
<time>2011-04-26T06:02:10Z</time>
<desc>lat.=22.036547, lon.=104.002136, Alt.=536.617676m. Speed=0.540000m/h.</desc>
<speed>0.150000</speed>
</trkpt>
<trkpt lat="22.036543" lon="104.002136">
<ele>536.633301</ele>
<time>2011-04-26T06:02:15Z</time>
<desc>lat.=22.036543, lon.=104.002136, Alt.=536.633301m. Speed=0.288000m/h.</desc>
<speed>0.080000</speed>
</trkpt>
<trkpt lat="22.036545" lon="104.002136">
<ele>536.648926</ele>
<time>2011-04-26T06:02:20Z</time>
<desc>lat.=22.036545, lon.=104.002136, Alt.=536.648926m. Speed=0.216000m/h.</desc>
<speed>0.060000</speed>
</trkpt>
<trkpt lat="22.036549" lon="104.002144">
<ele>536.680176</ele>
<time>2011-04-26T06:02:25Z</time>
<desc>lat.=22.036549, lon.=104.002144, Alt.=536.680176m. Speed=0.648000m/h.</desc>
<speed>0.180000</speed>
</trkpt>
<trkpt lat="22.036547" lon="104.002151">
<ele>536.695801</ele>
<time>2011-04-26T06:02:30Z</time>
<desc>lat.=22.036547, lon.=104.002151, Alt.=536.695801m. Speed=0.360000m/h.</desc>
<speed>0.100000</speed>
</trkpt>
<trkpt lat="22.036545" lon="104.002151">
<ele>536.727051</ele>
<time>2011-04-26T06:02:35Z</time>
<desc>lat.=22.036545, lon.=104.002151, Alt.=536.727051m. Speed=0.540000m/h.</desc>
<speed>0.150000</speed>
</trkpt>
<trkpt lat="22.036545" lon="104.002144">
<ele>536.742676</ele>
<time>2011-04-26T06:02:40Z</time>
<desc>lat.=22.036545, lon.=104.002144, Alt.=536.742676m. Speed=0.432000m/h.</desc>
<speed>0.120000</speed>
</trkpt>
<trkpt lat="22.036539" lon="104.002136">
<ele>536.742676</ele>
<time>2011-04-26T06:02:45Z</time>
<desc>lat.=22.036539, lon.=104.002136, Alt.=536.742676m. Speed=0.468000m/h.</desc>
<speed>0.130000</speed>
</trkpt>
<trkpt lat="22.036535" lon="104.002136">
<ele>536.727051</ele>
<time>2011-04-26T06:02:50Z</time>
<desc>lat.=22.036535, lon.=104.002136, Alt.=536.727051m. Speed=0.468000m/h.</desc>
<speed>0.130000</speed>
</trkpt>
<trkpt lat="22.036531" lon="104.002136">
<ele>536.727051</ele>
<time>2011-04-26T06:02:55Z</time>
<desc>lat.=22.036531, lon.=104.002136, Alt.=536.727051m. Speed=0.108000m/h.</desc>
<speed>0.030000</speed>
</trkpt>
<trkpt lat="22.036535" lon="104.002136">
<ele>536.727051</ele>
<time>2011-04-26T06:03:00Z</time>
<desc>lat.=22.036535, lon.=104.002136, Alt.=536.727051m. Speed=0.756000m/h.</desc>
<speed>0.210000</speed>
</trkpt>
<trkpt lat="22.036539" lon="104.002136">
<ele>536.742676</ele>
<time>2011-04-26T06:03:05Z</time>
<desc>lat.=22.036539, lon.=104.002136, Alt.=536.742676m. Speed=0.252000m/h.</desc>
<speed>0.070000</speed>
</trkpt>
<trkpt lat="22.036547" lon="104.002136">
<ele>536.742676</ele>
<time>2011-04-26T06:03:10Z</time>
<desc>lat.=22.036547, lon.=104.002136, Alt.=536.742676m. Speed=0.648000m/h.</desc>
<speed>0.180000</speed>
</trkpt>
<trkpt lat="22.036549" lon="104.002144">
<ele>536.758301</ele>
<time>2011-04-26T06:03:15Z</time>
<desc>lat.=22.036549, lon.=104.002144, Alt.=536.758301m. Speed=0.072000m/h.</desc>
<speed>0.020000</speed>
</trkpt>
<trkpt lat="22.036543" lon="104.002144">
<ele>536.758301</ele>
<time>2011-04-26T06:03:20Z</time>
<desc>lat.=22.036543, lon.=104.002144, Alt.=536.758301m. Speed=0.684000m/h.</desc>
<speed>0.190000</speed>
</trkpt>
<trkpt lat="22.036537" lon="104.002144">
<ele>536.742676</ele>
<time>2011-04-26T06:03:25Z</time>
<desc>lat.=22.036537, lon.=104.002144, Alt.=536.742676m. Speed=0.108000m/h.</desc>
<speed>0.030000</speed>
</trkpt>
<trkpt lat="22.036539" lon="104.002144">
<ele>536.742676</ele>
<time>2011-04-26T06:03:30Z</time>
<desc>lat.=22.036539, lon.=104.002144, Alt.=536.742676m. Speed=0.468000m/h.</desc>
<speed>0.130000</speed>
</trkpt>
<trkpt lat="22.036543" lon="104.002144">
<ele>536.773926</ele>
<time>2011-04-26T06:03:35Z</time>
<desc>lat.=22.036543, lon.=104.002144, Alt.=536.773926m. Speed=0.108000m/h.</desc>
<speed>0.030000</speed>
</trkpt>
<trkpt lat="22.036539" lon="104.002151">
<ele>536.789551</ele>
<time>2011-04-26T06:03:40Z</time>
<desc>lat.=22.036539, lon.=104.002151, Alt.=536.789551m. Speed=0.144000m/h.</desc>
<speed>0.040000</speed>
</trkpt>
<trkpt lat="22.036535" lon="104.002144">
<ele>536.789551</ele>
<time>2011-04-26T06:03:45Z</time>
<desc>lat.=22.036535, lon.=104.002144, Alt.=536.789551m. Speed=0.540000m/h.</desc>
<speed>0.150000</speed>
</trkpt>
<trkpt lat="22.036537" lon="104.002144">
<ele>536.773926</ele>
<time>2011-04-26T06:03:50Z</time>
<desc>lat.=22.036537, lon.=104.002144, Alt.=536.773926m. Speed=0.648000m/h.</desc>
<speed>0.180000</speed>
</trkpt>
<trkpt lat="22.036545" lon="104.002144">
<ele>536.773926</ele>
<time>2011-04-26T06:03:55Z</time>
<desc>lat.=22.036545, lon.=104.002144, Alt.=536.773926m. Speed=0.396000m/h.</desc>
<speed>0.110000</speed>
</trkpt>
<trkpt lat="22.036551" lon="104.002144">
<ele>536.773926</ele>
<time>2011-04-26T06:04:00Z</time>
<desc>lat.=22.036551, lon.=104.002144, Alt.=536.773926m. Speed=0.756000m/h.</desc>
<speed>0.210000</speed>
</trkpt>
<trkpt lat="22.036577" lon="104.002144">
<ele>536.586426</ele>
<time>2011-04-26T06:04:05Z</time>
<desc>lat.=22.036577, lon.=104.002144, Alt.=536.586426m. Speed=1.152000m/h.</desc>
<speed>0.320000</speed>
</trkpt>
<trkpt lat="22.036568" lon="104.002136">
<ele>536.305176</ele>
<time>2011-04-26T06:04:10Z</time>
<desc>lat.=22.036568, lon.=104.002136, Alt.=536.305176m. Speed=0.828000m/h.</desc>
<speed>0.230000</speed>
</trkpt>
<trkpt lat="22.036570" lon="104.002136">
<ele>536.258301</ele>
<time>2011-04-26T06:04:15Z</time>
<desc>lat.=22.036570, lon.=104.002136, Alt.=536.258301m. Speed=0.180000m/h.</desc>
<speed>0.050000</speed>
</trkpt>
<trkpt lat="22.036568" lon="104.002136">
<ele>536.258301</ele>
<time>2011-04-26T06:04:20Z</time>
<desc>lat.=22.036568, lon.=104.002136, Alt.=536.258301m. Speed=0.360000m/h.</desc>
<speed>0.100000</speed>
</trkpt>
<trkpt lat="22.036570" lon="104.002144">
<ele>536.258301</ele>
<time>2011-04-26T06:04:25Z</time>
<desc>lat.=22.036570, lon.=104.002144, Alt.=536.258301m. Speed=0.324000m/h.</desc>
<speed>0.090000</speed>
</trkpt>
<trkpt lat="22.036573" lon="104.002144">
<ele>536.258301</ele>
<time>2011-04-26T06:04:30Z</time>
<desc>lat.=22.036573, lon.=104.002144, Alt.=536.258301m. Speed=0.324000m/h.</desc>
<speed>0.090000</speed>
</trkpt>
<trkpt lat="22.036573" lon="104.002144">
<ele>536.273926</ele>
<time>2011-04-26T06:04:35Z</time>
<desc>lat.=22.036573, lon.=104.002144, Alt.=536.273926m. Speed=0.360000m/h.</desc>
<speed>0.100000</speed>
</trkpt>
<trkpt lat="22.036570" lon="104.002144">
<ele>536.273926</ele>
<time>2011-04-26T06:04:40Z</time>
<desc>lat.=22.036570, lon.=104.002144, Alt.=536.273926m. Speed=0.684000m/h.</desc>
<speed>0.190000</speed>
</trkpt>
<trkpt lat="22.036577" lon="104.002144">
<ele>536.289551</ele>
<time>2011-04-26T06:04:45Z</time>
<desc>lat.=22.036577, lon.=104.002144, Alt.=536.289551m. Speed=0.288000m/h.</desc>
<speed>0.080000</speed>
</trkpt>
<trkpt lat="22.036577" lon="104.002144">
<ele>536.289551</ele>
<time>2011-04-26T06:04:50Z</time>
<desc>lat.=22.036577, lon.=104.002144, Alt.=536.289551m. Speed=0.432000m/h.</desc>
<speed>0.120000</speed>
</trkpt>
<trkpt lat="22.036575" lon="104.002144">
<ele>536.289551</ele>
<time>2011-04-26T06:04:55Z</time>
<desc>lat.=22.036575, lon.=104.002144, Alt.=536.289551m. Speed=0.612000m/h.</desc>
<speed>0.170000</speed>
</trkpt>
<trkpt lat="22.036581" lon="104.002151">
<ele>536.289551</ele>
<time>2011-04-26T06:05:00Z</time>
<desc>lat.=22.036581, lon.=104.002151, Alt.=536.289551m. Speed=0.396000m/h.</desc>
<speed>0.110000</speed>
</trkpt>
<trkpt lat="22.036583" lon="104.002151">
<ele>536.305176</ele>
<time>2011-04-26T06:05:05Z</time>
<desc>lat.=22.036583, lon.=104.002151, Alt.=536.305176m. Speed=0.432000m/h.</desc>
<speed>0.120000</speed>
</trkpt>
<trkpt lat="22.036585" lon="104.002151">
<ele>536.336426</ele>
<time>2011-04-26T06:05:10Z</time>
<desc>lat.=22.036585, lon.=104.002151, Alt.=536.336426m. Speed=0.288000m/h.</desc>
<speed>0.080000</speed>
</trkpt>
<trkpt lat="22.036579" lon="104.002151">
<ele>536.352051</ele>
<time>2011-04-26T06:05:15Z</time>
<desc>lat.=22.036579, lon.=104.002151, Alt.=536.352051m. Speed=0.504000m/h.</desc>
<speed>0.140000</speed>
</trkpt>
<trkpt lat="22.036572" lon="104.002151">
<ele>536.367676</ele>
<time>2011-04-26T06:05:20Z</time>
<desc>lat.=22.036572, lon.=104.002151, Alt.=536.367676m. Speed=0.468000m/h.</desc>
<speed>0.130000</speed>
</trkpt>
<trkpt lat="22.036566" lon="104.002144">
<ele>536.383301</ele>
<time>2011-04-26T06:05:25Z</time>
<desc>lat.=22.036566, lon.=104.002144, Alt.=536.383301m. Speed=0.324000m/h.</desc>
<speed>0.090000</speed>
</trkpt>
<trkpt lat="22.036566" lon="104.002136">
<ele>536.398926</ele>
<time>2011-04-26T06:05:30Z</time>
<desc>lat.=22.036566, lon.=104.002136, Alt.=536.398926m. Speed=0.576000m/h.</desc>
<speed>0.160000</speed>
</trkpt>
<trkpt lat="22.036575" lon="104.002136">
<ele>536.398926</ele>
<time>2011-04-26T06:05:35Z</time>
<desc>lat.=22.036575, lon.=104.002136, Alt.=536.398926m. Speed=0.720000m/h.</desc>
<speed>0.200000</speed>
</trkpt>
<trkpt lat="22.036589" lon="104.002121">
<ele>536.227051</ele>
<time>2011-04-26T06:05:40Z</time>
<desc>lat.=22.036589, lon.=104.002121, Alt.=536.227051m. Speed=0.972000m/h.</desc>
<speed>0.270000</speed>
</trkpt>
<trkpt lat="22.036629" lon="104.002106">
<ele>535.680176</ele>
<time>2011-04-26T06:05:45Z</time>
<desc>lat.=22.036629, lon.=104.002106, Alt.=535.680176m. Speed=0.864000m/h.</desc>
<speed>0.240000</speed>
</trkpt>
<trkpt lat="22.036636" lon="104.002113">
<ele>535.617676</ele>
<time>2011-04-26T06:05:50Z</time>
<desc>lat.=22.036636, lon.=104.002113, Alt.=535.617676m. Speed=0.216000m/h.</desc>
<speed>0.060000</speed>
</trkpt>
<trkpt lat="22.036634" lon="104.002106">
<ele>535.602051</ele>
<time>2011-04-26T06:05:55Z</time>
<desc>lat.=22.036634, lon.=104.002106, Alt.=535.602051m. Speed=0.144000m/h.</desc>
<speed>0.040000</speed>
</trkpt>
<trkpt lat="22.036631" lon="104.002113">
<ele>535.617676</ele>
<time>2011-04-26T06:06:00Z</time>
<desc>lat.=22.036631, lon.=104.002113, Alt.=535.617676m. Speed=0.612000m/h.</desc>
<speed>0.170000</speed>
</trkpt>
<trkpt lat="22.036627" lon="104.002113">
<ele>535.617676</ele>
<time>2011-04-26T06:06:05Z</time>
<desc>lat.=22.036627, lon.=104.002113, Alt.=535.617676m. Speed=0.072000m/h.</desc>
<speed>0.020000</speed>
</trkpt>
<trkpt lat="22.036623" lon="104.002113">
<ele>535.617676</ele>
<time>2011-04-26T06:06:10Z</time>
<desc>lat.=22.036623, lon.=104.002113, Alt.=535.617676m. Speed=0.612000m/h.</desc>
<speed>0.170000</speed>
</trkpt>
<trkpt lat="22.036615" lon="104.002106">
<ele>535.617676</ele>
<time>2011-04-26T06:06:15Z</time>
<desc>lat.=22.036615, lon.=104.002106, Alt.=535.617676m. Speed=0.612000m/h.</desc>
<speed>0.170000</speed>
</trkpt>
<trkpt lat="22.036594" lon="104.002098">
<ele>535.461426</ele>
<time>2011-04-26T06:06:20Z</time>
<desc>lat.=22.036594, lon.=104.002098, Alt.=535.461426m. Speed=1.188000m/h.</desc>
<speed>0.330000</speed>
</trkpt>
<trkpt lat="22.036533" lon="104.002106">
<ele>535.320801</ele>
<time>2011-04-26T06:06:25Z</time>
<desc>lat.=22.036533, lon.=104.002106, Alt.=535.320801m. Speed=1.116000m/h.</desc>
<speed>0.310000</speed>
</trkpt>
<trkpt lat="22.036537" lon="104.002121">
<ele>535.320801</ele>
<time>2011-04-26T06:06:30Z</time>
<desc>lat.=22.036537, lon.=104.002121, Alt.=535.320801m. Speed=0.612000m/h.</desc>
<speed>0.170000</speed>
</trkpt>
<trkpt lat="22.036539" lon="104.002129">
<ele>535.320801</ele>
<time>2011-04-26T06:06:35Z</time>
<desc>lat.=22.036539, lon.=104.002129, Alt.=535.320801m. Speed=0.900000m/h.</desc>
<speed>0.250000</speed>
</trkpt>
<trkpt lat="22.036547" lon="104.002136">
<ele>535.320801</ele>
<time>2011-04-26T06:06:40Z</time>
<desc>lat.=22.036547, lon.=104.002136, Alt.=535.320801m. Speed=0.468000m/h.</desc>
<speed>0.130000</speed>
</trkpt>
<trkpt lat="22.036551" lon="104.002136">
<ele>535.305176</ele>
<time>2011-04-26T06:06:45Z</time>
<desc>lat.=22.036551, lon.=104.002136, Alt.=535.305176m. Speed=0.108000m/h.</desc>
<speed>0.030000</speed>
</trkpt>
<trkpt lat="22.036547" lon="104.002136">
<ele>535.273926</ele>
<time>2011-04-26T06:06:50Z</time>
<desc>lat.=22.036547, lon.=104.002136, Alt.=535.273926m. Speed=0.108000m/h.</desc>
<speed>0.030000</speed>
</trkpt>
<trkpt lat="22.036547" lon="104.002136">
<ele>535.258301</ele>
<time>2011-04-26T06:06:55Z</time>
<desc>lat.=22.036547, lon.=104.002136, Alt.=535.258301m. Speed=0.288000m/h.</desc>
<speed>0.080000</speed>
</trkpt>
<trkpt lat="22.036543" lon="104.002144">
<ele>535.242676</ele>
<time>2011-04-26T06:07:00Z</time>
<desc>lat.=22.036543, lon.=104.002144, Alt.=535.242676m. Speed=0.504000m/h.</desc>
<speed>0.140000</speed>
</trkpt>
<trkpt lat="22.036543" lon="104.002151">
<ele>535.227051</ele>
<time>2011-04-26T06:07:05Z</time>
<desc>lat.=22.036543, lon.=104.002151, Alt.=535.227051m. Speed=0.360000m/h.</desc>
<speed>0.100000</speed>
</trkpt>
<trkpt lat="22.036545" lon="104.002151">
<ele>535.211426</ele>
<time>2011-04-26T06:07:10Z</time>
<desc>lat.=22.036545, lon.=104.002151, Alt.=535.211426m. Speed=0.360000m/h.</desc>
<speed>0.100000</speed>
</trkpt>
<trkpt lat="22.036549" lon="104.002159">
<ele>535.211426</ele>
<time>2011-04-26T06:07:15Z</time>
<desc>lat.=22.036549, lon.=104.002159, Alt.=535.211426m. Speed=0.540000m/h.</desc>
<speed>0.150000</speed>
</trkpt>
<trkpt lat="22.036549" lon="104.002167">
<ele>535.195801</ele>
<time>2011-04-26T06:07:20Z</time>
<desc>lat.=22.036549, lon.=104.002167, Alt.=535.195801m. Speed=0.612000m/h.</desc>
<speed>0.170000</speed>
</trkpt>
<trkpt lat="22.036549" lon="104.002174">
<ele>535.195801</ele>
<time>2011-04-26T06:07:25Z</time>
<desc>lat.=22.036549, lon.=104.002174, Alt.=535.195801m. Speed=0.144000m/h.</desc>
<speed>0.040000</speed>
</trkpt>
<trkpt lat="22.036549" lon="104.002174">
<ele>535.195801</ele>
<time>2011-04-26T06:07:30Z</time>
<desc>lat.=22.036549, lon.=104.002174, Alt.=535.195801m. Speed=0.324000m/h.</desc>
<speed>0.090000</speed>
</trkpt>
<trkpt lat="22.036552" lon="104.002174">
<ele>535.195801</ele>
<time>2011-04-26T06:07:35Z</time>
<desc>lat.=22.036552, lon.=104.002174, Alt.=535.195801m. Speed=0.468000m/h.</desc>
<speed>0.130000</speed>
</trkpt>
<trkpt lat="22.036558" lon="104.002182">
<ele>535.195801</ele>
<time>2011-04-26T06:07:40Z</time>
<desc>lat.=22.036558, lon.=104.002182, Alt.=535.195801m. Speed=0.432000m/h.</desc>
<speed>0.120000</speed>
</trkpt>
<trkpt lat="22.036562" lon="104.002190">
<ele>535.211426</ele>
<time>2011-04-26T06:07:45Z</time>
<desc>lat.=22.036562, lon.=104.002190, Alt.=535.211426m. Speed=0.468000m/h.</desc>
<speed>0.130000</speed>
</trkpt>
<trkpt lat="22.036562" lon="104.002197">
<ele>535.258301</ele>
<time>2011-04-26T06:07:50Z</time>
<desc>lat.=22.036562, lon.=104.002197, Alt.=535.258301m. Speed=0.216000m/h.</desc>
<speed>0.060000</speed>
</trkpt>
<trkpt lat="22.036560" lon="104.002197">
<ele>535.289551</ele>
<time>2011-04-26T06:07:55Z</time>
<desc>lat.=22.036560, lon.=104.002197, Alt.=535.289551m. Speed=0.396000m/h.</desc>
<speed>0.110000</speed>
</trkpt>
<trkpt lat="22.036558" lon="104.002197">
<ele>535.320801</ele>
<time>2011-04-26T06:08:00Z</time>
<desc>lat.=22.036558, lon.=104.002197, Alt.=535.320801m. Speed=0.540000m/h.</desc>
<speed>0.150000</speed>
</trkpt>
<trkpt lat="22.036556" lon="104.002190">
<ele>535.305176</ele>
<time>2011-04-26T06:08:05Z</time>
<desc>lat.=22.036556, lon.=104.002190, Alt.=535.305176m. Speed=0.468000m/h.</desc>
<speed>0.130000</speed>
</trkpt>
<trkpt lat="22.036560" lon="104.002190">
<ele>535.305176</ele>
<time>2011-04-26T06:08:10Z</time>
<desc>lat.=22.036560, lon.=104.002190, Alt.=535.305176m. Speed=0.360000m/h.</desc>
<speed>0.100000</speed>
</trkpt>
<trkpt lat="22.036562" lon="104.002190">
<ele>535.289551</ele>
<time>2011-04-26T06:08:15Z</time>
<desc>lat.=22.036562, lon.=104.002190, Alt.=535.289551m. Speed=0.144000m/h.</desc>
<speed>0.040000</speed>
</trkpt>
<trkpt lat="22.036564" lon="104.002182">
<ele>535.258301</ele>
<time>2011-04-26T06:08:20Z</time>
<desc>lat.=22.036564, lon.=104.002182, Alt.=535.258301m. Speed=0.288000m/h.</desc>
<speed>0.080000</speed>
</trkpt>
<trkpt lat="22.036566" lon="104.002182">
<ele>535.211426</ele>
<time>2011-04-26T06:08:25Z</time>
<desc>lat.=22.036566, lon.=104.002182, Alt.=535.211426m. Speed=0.216000m/h.</desc>
<speed>0.060000</speed>
</trkpt>
<trkpt lat="22.036564" lon="104.002190">
<ele>535.195801</ele>
<time>2011-04-26T06:08:30Z</time>
<desc>lat.=22.036564, lon.=104.002190, Alt.=535.195801m. Speed=0.216000m/h.</desc>
<speed>0.060000</speed>
</trkpt>
<trkpt lat="22.036564" lon="104.002190">
<ele>535.195801</ele>
<time>2011-04-26T06:08:35Z</time>
<desc>lat.=22.036564, lon.=104.002190, Alt.=535.195801m. Speed=0.396000m/h.</desc>
<speed>0.110000</speed>
</trkpt>
<trkpt lat="22.036562" lon="104.002197">
<ele>535.180176</ele>
<time>2011-04-26T06:08:40Z</time>
<desc>lat.=22.036562, lon.=104.002197, Alt.=535.180176m. Speed=0.576000m/h.</desc>
<speed>0.160000</speed>
</trkpt>
<trkpt lat="22.036560" lon="104.002197">
<ele>535.195801</ele>
<time>2011-04-26T06:08:45Z</time>
<desc>lat.=22.036560, lon.=104.002197, Alt.=535.195801m. Speed=0.504000m/h.</desc>
<speed>0.140000</speed>
</trkpt>
<trkpt lat="22.036560" lon="104.002205">
<ele>535.211426</ele>
<time>2011-04-26T06:08:50Z</time>
<desc>lat.=22.036560, lon.=104.002205, Alt.=535.211426m. Speed=0.468000m/h.</desc>
<speed>0.130000</speed>
</trkpt>
<trkpt lat="22.036558" lon="104.002205">
<ele>535.211426</ele>
<time>2011-04-26T06:08:55Z</time>
<desc>lat.=22.036558, lon.=104.002205, Alt.=535.211426m. Speed=0.468000m/h.</desc>
<speed>0.130000</speed>
</trkpt>
<trkpt lat="22.036562" lon="104.002205">
<ele>535.227051</ele>
<time>2011-04-26T06:09:00Z</time>
<desc>lat.=22.036562, lon.=104.002205, Alt.=535.227051m. Speed=0.324000m/h.</desc>
<speed>0.090000</speed>
</trkpt>
<trkpt lat="22.036564" lon="104.002213">
<ele>535.258301</ele>
<time>2011-04-26T06:09:05Z</time>
<desc>lat.=22.036564, lon.=104.002213, Alt.=535.258301m. Speed=0.360000m/h.</desc>
<speed>0.100000</speed>
</trkpt>
<trkpt lat="22.036564" lon="104.002213">
<ele>535.258301</ele>
<time>2011-04-26T06:09:10Z</time>
<desc>lat.=22.036564, lon.=104.002213, Alt.=535.258301m. Speed=0.036000m/h.</desc>
<speed>0.010000</speed>
</trkpt>
<trkpt lat="22.036564" lon="104.002213">
<ele>535.227051</ele>
<time>2011-04-26T06:09:15Z</time>
<desc>lat.=22.036564, lon.=104.002213, Alt.=535.227051m. Speed=0.432000m/h.</desc>
<speed>0.120000</speed>
</trkpt>
<trkpt lat="22.036564" lon="104.002213">
<ele>535.211426</ele>
<time>2011-04-26T06:09:20Z</time>
<desc>lat.=22.036564, lon.=104.002213, Alt.=535.211426m. Speed=0.108000m/h.</desc>
<speed>0.030000</speed>
</trkpt>
<trkpt lat="22.036564" lon="104.002213">
<ele>535.195801</ele>
<time>2011-04-26T06:09:25Z</time>
<desc>lat.=22.036564, lon.=104.002213, Alt.=535.195801m. Speed=0.180000m/h.</desc>
<speed>0.050000</speed>
</trkpt>
<trkpt lat="22.036562" lon="104.002213">
<ele>535.180176</ele>
<time>2011-04-26T06:09:30Z</time>
<desc>lat.=22.036562, lon.=104.002213, Alt.=535.180176m. Speed=0.072000m/h.</desc>
<speed>0.020000</speed>
</trkpt>
<trkpt lat="22.036562" lon="104.002213">
<ele>535.148926</ele>
<time>2011-04-26T06:09:35Z</time>
<desc>lat.=22.036562, lon.=104.002213, Alt.=535.148926m. Speed=0.180000m/h.</desc>
<speed>0.050000</speed>
</trkpt>
<trkpt lat="22.036562" lon="104.002213">
<ele>535.133301</ele>
<time>2011-04-26T06:09:40Z</time>
<desc>lat.=22.036562, lon.=104.002213, Alt.=535.133301m. Speed=0.360000m/h.</desc>
<speed>0.100000</speed>
</trkpt>
<trkpt lat="22.036558" lon="104.002213">
<ele>535.117676</ele>
<time>2011-04-26T06:09:45Z</time>
<desc>lat.=22.036558, lon.=104.002213, Alt.=535.117676m. Speed=0.324000m/h.</desc>
<speed>0.090000</speed>
</trkpt>
<trkpt lat="22.036554" lon="104.002213">
<ele>535.117676</ele>
<time>2011-04-26T06:09:50Z</time>
<desc>lat.=22.036554, lon.=104.002213, Alt.=535.117676m. Speed=0.216000m/h.</desc>
<speed>0.060000</speed>
</trkpt>
<trkpt lat="22.036552" lon="104.002213">
<ele>535.102051</ele>
<time>2011-04-26T06:09:55Z</time>
<desc>lat.=22.036552, lon.=104.002213, Alt.=535.102051m. Speed=0.072000m/h.</desc>
<speed>0.020000</speed>
</trkpt>
<trkpt lat="22.036552" lon="104.002213">
<ele>535.086426</ele>
<time>2011-04-26T06:10:00Z</time>
<desc>lat.=22.036552, lon.=104.002213, Alt.=535.086426m. Speed=0.252000m/h.</desc>
<speed>0.070000</speed>
</trkpt>
<trkpt lat="22.036552" lon="104.002213">
<ele>535.070801</ele>
<time>2011-04-26T06:10:05Z</time>
<desc>lat.=22.036552, lon.=104.002213, Alt.=535.070801m. Speed=0.288000m/h.</desc>
<speed>0.080000</speed>
</trkpt>
<trkpt lat="22.036551" lon="104.002220">
<ele>535.055176</ele>
<time>2011-04-26T06:10:10Z</time>
<desc>lat.=22.036551, lon.=104.002220, Alt.=535.055176m. Speed=0.504000m/h.</desc>
<speed>0.140000</speed>
</trkpt>
<trkpt lat="22.036549" lon="104.002220">
<ele>535.055176</ele>
<time>2011-04-26T06:10:15Z</time>
<desc>lat.=22.036549, lon.=104.002220, Alt.=535.055176m. Speed=0.288000m/h.</desc>
<speed>0.080000</speed>
</trkpt>
<trkpt lat="22.036547" lon="104.002228">
<ele>535.055176</ele>
<time>2011-04-26T06:10:20Z</time>
<desc>lat.=22.036547, lon.=104.002228, Alt.=535.055176m. Speed=0.504000m/h.</desc>
<speed>0.140000</speed>
</trkpt>
<trkpt lat="22.036547" lon="104.002235">
<ele>535.055176</ele>
<time>2011-04-26T06:10:25Z</time>
<desc>lat.=22.036547, lon.=104.002235, Alt.=535.055176m. Speed=0.288000m/h.</desc>
<speed>0.080000</speed>
</trkpt>
<trkpt lat="22.036545" lon="104.002235">
<ele>535.039551</ele>
<time>2011-04-26T06:10:30Z</time>
<desc>lat.=22.036545, lon.=104.002235, Alt.=535.039551m. Speed=0.468000m/h.</desc>
<speed>0.130000</speed>
</trkpt>
<trkpt lat="22.036543" lon="104.002243">
<ele>535.023926</ele>
<time>2011-04-26T06:10:35Z</time>
<desc>lat.=22.036543, lon.=104.002243, Alt.=535.023926m. Speed=0.576000m/h.</desc>
<speed>0.160000</speed>
</trkpt>
<trkpt lat="22.036541" lon="104.002251">
<ele>535.023926</ele>
<time>2011-04-26T06:10:40Z</time>
<desc>lat.=22.036541, lon.=104.002251, Alt.=535.023926m. Speed=0.612000m/h.</desc>
<speed>0.170000</speed>
</trkpt>
<trkpt lat="22.036539" lon="104.002258">
<ele>535.023926</ele>
<time>2011-04-26T06:10:45Z</time>
<desc>lat.=22.036539, lon.=104.002258, Alt.=535.023926m. Speed=0.792000m/h.</desc>
<speed>0.220000</speed>
</trkpt>
<trkpt lat="22.036537" lon="104.002266">
<ele>535.023926</ele>
<time>2011-04-26T06:10:50Z</time>
<desc>lat.=22.036537, lon.=104.002266, Alt.=535.023926m. Speed=0.540000m/h.</desc>
<speed>0.150000</speed>
</trkpt>
<trkpt lat="22.036535" lon="104.002266">
<ele>535.039551</ele>
<time>2011-04-26T06:10:55Z</time>
<desc>lat.=22.036535, lon.=104.002266, Alt.=535.039551m. Speed=0.108000m/h.</desc>
<speed>0.030000</speed>
</trkpt>
<trkpt lat="22.036535" lon="104.002266">
<ele>535.023926</ele>
<time>2011-04-26T06:11:00Z</time>
<desc>lat.=22.036535, lon.=104.002266, Alt.=535.023926m. Speed=0.684000m/h.</desc>
<speed>0.190000</speed>
</trkpt>
<trkpt lat="22.036537" lon="104.002258">
<ele>535.008301</ele>
<time>2011-04-26T06:11:05Z</time>
<desc>lat.=22.036537, lon.=104.002258, Alt.=535.008301m. Speed=0.108000m/h.</desc>
<speed>0.030000</speed>
</trkpt>
<trkpt lat="22.036537" lon="104.002258">
<ele>534.992676</ele>
<time>2011-04-26T06:11:10Z</time>
<desc>lat.=22.036537, lon.=104.002258, Alt.=534.992676m. Speed=0.144000m/h.</desc>
<speed>0.040000</speed>
</trkpt>
<trkpt lat="22.036533" lon="104.002258">
<ele>534.977051</ele>
<time>2011-04-26T06:11:15Z</time>
<desc>lat.=22.036533, lon.=104.002258, Alt.=534.977051m. Speed=0.252000m/h.</desc>
<speed>0.070000</speed>
</trkpt>
<trkpt lat="22.036533" lon="104.002266">
<ele>534.961426</ele>
<time>2011-04-26T06:11:20Z</time>
<desc>lat.=22.036533, lon.=104.002266, Alt.=534.961426m. Speed=0.144000m/h.</desc>
<speed>0.040000</speed>
</trkpt>
<trkpt lat="22.036533" lon="104.002266">
<ele>534.945801</ele>
<time>2011-04-26T06:11:25Z</time>
<desc>lat.=22.036533, lon.=104.002266, Alt.=534.945801m. Speed=0.324000m/h.</desc>
<speed>0.090000</speed>
</trkpt>
<trkpt lat="22.036531" lon="104.002266">
<ele>534.914551</ele>
<time>2011-04-26T06:11:30Z</time>
<desc>lat.=22.036531, lon.=104.002266, Alt.=534.914551m. Speed=0.432000m/h.</desc>
<speed>0.120000</speed>
</trkpt>
<trkpt lat="22.036530" lon="104.002266">
<ele>534.914551</ele>
<time>2011-04-26T06:11:35Z</time>
<desc>lat.=22.036530, lon.=104.002266, Alt.=534.914551m. Speed=0.216000m/h.</desc>
<speed>0.060000</speed>
</trkpt>
<trkpt lat="22.036530" lon="104.002274">
<ele>534.898926</ele>
<time>2011-04-26T06:11:40Z</time>
<desc>lat.=22.036530, lon.=104.002274, Alt.=534.898926m. Speed=0.144000m/h.</desc>
<speed>0.040000</speed>
</trkpt>
<trkpt lat="22.036530" lon="104.002274">
<ele>534.898926</ele>
<time>2011-04-26T06:11:45Z</time>
<desc>lat.=22.036530, lon.=104.002274, Alt.=534.898926m. Speed=0.108000m/h.</desc>
<speed>0.030000</speed>
</trkpt>
<trkpt lat="22.036528" lon="104.002274">
<ele>534.883301</ele>
<time>2011-04-26T06:11:50Z</time>
<desc>lat.=22.036528, lon.=104.002274, Alt.=534.883301m. Speed=0.216000m/h.</desc>
<speed>0.060000</speed>
</trkpt>
<trkpt lat="22.036530" lon="104.002266">
<ele>534.867676</ele>
<time>2011-04-26T06:11:55Z</time>
<desc>lat.=22.036530, lon.=104.002266, Alt.=534.867676m. Speed=0.108000m/h.</desc>
<speed>0.030000</speed>
</trkpt>
<trkpt lat="22.036528" lon="104.002274">
<ele>534.867676</ele>
<time>2011-04-26T06:12:00Z</time>
<desc>lat.=22.036528, lon.=104.002274, Alt.=534.867676m. Speed=0.216000m/h.</desc>
<speed>0.060000</speed>
</trkpt>
<trkpt lat="22.036524" lon="104.002266">
<ele>534.852051</ele>
<time>2011-04-26T06:12:05Z</time>
<desc>lat.=22.036524, lon.=104.002266, Alt.=534.852051m. Speed=0.576000m/h.</desc>
<speed>0.160000</speed>
</trkpt>
<trkpt lat="22.036518" lon="104.002266">
<ele>534.836426</ele>
<time>2011-04-26T06:12:10Z</time>
<desc>lat.=22.036518, lon.=104.002266, Alt.=534.836426m. Speed=0.648000m/h.</desc>
<speed>0.180000</speed>
</trkpt>
<trkpt lat="22.036509" lon="104.002266">
<ele>534.820801</ele>
<time>2011-04-26T06:12:15Z</time>
<desc>lat.=22.036509, lon.=104.002266, Alt.=534.820801m. Speed=0.576000m/h.</desc>
<speed>0.160000</speed>
</trkpt>
<trkpt lat="22.036501" lon="104.002266">
<ele>534.852051</ele>
<time>2011-04-26T06:12:20Z</time>
<desc>lat.=22.036501, lon.=104.002266, Alt.=534.852051m. Speed=0.540000m/h.</desc>
<speed>0.150000</speed>
</trkpt>
<trkpt lat="22.036497" lon="104.002258">
<ele>534.852051</ele>
<time>2011-04-26T06:12:25Z</time>
<desc>lat.=22.036497, lon.=104.002258, Alt.=534.852051m. Speed=0.324000m/h.</desc>
<speed>0.090000</speed>
</trkpt>
<trkpt lat="22.036493" lon="104.002251">
<ele>534.867676</ele>
<time>2011-04-26T06:12:30Z</time>
<desc>lat.=22.036493, lon.=104.002251, Alt.=534.867676m. Speed=0.612000m/h.</desc>
<speed>0.170000</speed>
</trkpt>
<trkpt lat="22.036491" lon="104.002243">
<ele>534.867676</ele>
<time>2011-04-26T06:12:35Z</time>
<desc>lat.=22.036491, lon.=104.002243, Alt.=534.867676m. Speed=0.252000m/h.</desc>
<speed>0.070000</speed>
</trkpt>
<trkpt lat="22.036489" lon="104.002235">
<ele>534.852051</ele>
<time>2011-04-26T06:12:40Z</time>
<desc>lat.=22.036489, lon.=104.002235, Alt.=534.852051m. Speed=0.504000m/h.</desc>
<speed>0.140000</speed>
</trkpt>
<trkpt lat="22.036484" lon="104.002235">
<ele>534.852051</ele>
<time>2011-04-26T06:12:45Z</time>
<desc>lat.=22.036484, lon.=104.002235, Alt.=534.852051m. Speed=0.756000m/h.</desc>
<speed>0.210000</speed>
</trkpt>
<trkpt lat="22.036476" lon="104.002228">
<ele>534.852051</ele>
<time>2011-04-26T06:12:50Z</time>
<desc>lat.=22.036476, lon.=104.002228, Alt.=534.852051m. Speed=0.684000m/h.</desc>
<speed>0.190000</speed>
</trkpt>
<trkpt lat="22.036472" lon="104.002213">
<ele>534.836426</ele>
<time>2011-04-26T06:12:55Z</time>
<desc>lat.=22.036472, lon.=104.002213, Alt.=534.836426m. Speed=0.504000m/h.</desc>
<speed>0.140000</speed>
</trkpt>
<trkpt lat="22.036470" lon="104.002213">
<ele>534.836426</ele>
<time>2011-04-26T06:13:00Z</time>
<desc>lat.=22.036470, lon.=104.002213, Alt.=534.836426m. Speed=0.360000m/h.</desc>
<speed>0.100000</speed>
</trkpt>
<trkpt lat="22.036470" lon="104.002205">
<ele>534.805176</ele>
<time>2011-04-26T06:13:05Z</time>
<desc>lat.=22.036470, lon.=104.002205, Alt.=534.805176m. Speed=0.108000m/h.</desc>
<speed>0.030000</speed>
</trkpt>
<trkpt lat="22.036469" lon="104.002205">
<ele>534.789551</ele>
<time>2011-04-26T06:13:10Z</time>
<desc>lat.=22.036469, lon.=104.002205, Alt.=534.789551m. Speed=0.324000m/h.</desc>
<speed>0.090000</speed>
</trkpt>
<trkpt lat="22.036465" lon="104.002205">
<ele>534.773926</ele>
<time>2011-04-26T06:13:15Z</time>
<desc>lat.=22.036465, lon.=104.002205, Alt.=534.773926m. Speed=0.072000m/h.</desc>
<speed>0.020000</speed>
</trkpt>
<trkpt lat="22.036463" lon="104.002205">
<ele>534.773926</ele>
<time>2011-04-26T06:13:20Z</time>
<desc>lat.=22.036463, lon.=104.002205, Alt.=534.773926m. Speed=0.144000m/h.</desc>
<speed>0.040000</speed>
</trkpt>
<trkpt lat="22.036459" lon="104.002205">
<ele>534.742676</ele>
<time>2011-04-26T06:13:25Z</time>
<desc>lat.=22.036459, lon.=104.002205, Alt.=534.742676m. Speed=0.504000m/h.</desc>
<speed>0.140000</speed>
</trkpt>
<trkpt lat="22.036453" lon="104.002205">
<ele>534.742676</ele>
<time>2011-04-26T06:13:30Z</time>
<desc>lat.=22.036453, lon.=104.002205, Alt.=534.742676m. Speed=0.648000m/h.</desc>
<speed>0.180000</speed>
</trkpt>
<trkpt lat="22.036448" lon="104.002197">
<ele>534.727051</ele>
<time>2011-04-26T06:13:35Z</time>
<desc>lat.=22.036448, lon.=104.002197, Alt.=534.727051m. Speed=0.288000m/h.</desc>
<speed>0.080000</speed>
</trkpt>
<trkpt lat="22.036440" lon="104.002190">
<ele>534.727051</ele>
<time>2011-04-26T06:13:40Z</time>
<desc>lat.=22.036440, lon.=104.002190, Alt.=534.727051m. Speed=0.504000m/h.</desc>
<speed>0.140000</speed>
</trkpt>
<trkpt lat="22.036438" lon="104.002197">
<ele>534.742676</ele>
<time>2011-04-26T06:13:45Z</time>
<desc>lat.=22.036438, lon.=104.002197, Alt.=534.742676m. Speed=0.144000m/h.</desc>
<speed>0.040000</speed>
</trkpt>
<trkpt lat="22.036438" lon="104.002197">
<ele>534.727051</ele>
<time>2011-04-26T06:13:50Z</time>
<desc>lat.=22.036438, lon.=104.002197, Alt.=534.727051m. Speed=0.108000m/h.</desc>
<speed>0.030000</speed>
</trkpt>
<trkpt lat="22.036436" lon="104.002197">
<ele>534.695801</ele>
<time>2011-04-26T06:13:55Z</time>
<desc>lat.=22.036436, lon.=104.002197, Alt.=534.695801m. Speed=0.216000m/h.</desc>
<speed>0.060000</speed>
</trkpt>
<trkpt lat="22.036438" lon="104.002205">
<ele>534.680176</ele>
<time>2011-04-26T06:14:00Z</time>
<desc>lat.=22.036438, lon.=104.002205, Alt.=534.680176m. Speed=0.180000m/h.</desc>
<speed>0.050000</speed>
</trkpt>
<trkpt lat="22.036438" lon="104.002205">
<ele>534.664551</ele>
<time>2011-04-26T06:14:05Z</time>
<desc>lat.=22.036438, lon.=104.002205, Alt.=534.664551m. Speed=0.216000m/h.</desc>
<speed>0.060000</speed>
</trkpt>
<trkpt lat="22.036436" lon="104.002205">
<ele>534.633301</ele>
<time>2011-04-26T06:14:10Z</time>
<desc>lat.=22.036436, lon.=104.002205, Alt.=534.633301m. Speed=0.252000m/h.</desc>
<speed>0.070000</speed>
</trkpt>
<trkpt lat="22.036436" lon="104.002205">
<ele>534.617676</ele>
<time>2011-04-26T06:14:15Z</time>
<desc>lat.=22.036436, lon.=104.002205, Alt.=534.617676m. Speed=0.180000m/h.</desc>
<speed>0.050000</speed>
</trkpt>
<trkpt lat="22.036436" lon="104.002205">
<ele>534.617676</ele>
<time>2011-04-26T06:14:20Z</time>
<desc>lat.=22.036436, lon.=104.002205, Alt.=534.617676m. Speed=0.072000m/h.</desc>
<speed>0.020000</speed>
</trkpt>
<trkpt lat="22.036436" lon="104.002205">
<ele>534.602051</ele>
<time>2011-04-26T06:14:25Z</time>
<desc>lat.=22.036436, lon.=104.002205, Alt.=534.602051m. Speed=0.108000m/h.</desc>
<speed>0.030000</speed>
</trkpt>
<trkpt lat="22.036436" lon="104.002213">
<ele>534.602051</ele>
<time>2011-04-26T06:14:30Z</time>
<desc>lat.=22.036436, lon.=104.002213, Alt.=534.602051m. Speed=0.396000m/h.</desc>
<speed>0.110000</speed>
</trkpt>
<trkpt lat="22.036436" lon="104.002213">
<ele>534.586426</ele>
<time>2011-04-26T06:14:35Z</time>
<desc>lat.=22.036436, lon.=104.002213, Alt.=534.586426m. Speed=0.576000m/h.</desc>
<speed>0.160000</speed>
</trkpt>
<trkpt lat="22.036434" lon="104.002213">
<ele>534.570801</ele>
<time>2011-04-26T06:14:40Z</time>
<desc>lat.=22.036434, lon.=104.002213, Alt.=534.570801m. Speed=0.036000m/h.</desc>
<speed>0.010000</speed>
</trkpt>
<trkpt lat="22.036434" lon="104.002213">
<ele>534.555176</ele>
<time>2011-04-26T06:14:45Z</time>
<desc>lat.=22.036434, lon.=104.002213, Alt.=534.555176m. Speed=0.144000m/h.</desc>
<speed>0.040000</speed>
</trkpt>
<trkpt lat="22.036436" lon="104.002213">
<ele>534.539551</ele>
<time>2011-04-26T06:14:50Z</time>
<desc>lat.=22.036436, lon.=104.002213, Alt.=534.539551m. Speed=0.288000m/h.</desc>
<speed>0.080000</speed>
</trkpt>
<trkpt lat="22.036434" lon="104.002220">
<ele>534.523926</ele>
<time>2011-04-26T06:14:55Z</time>
<desc>lat.=22.036434, lon.=104.002220, Alt.=534.523926m. Speed=0.504000m/h.</desc>
<speed>0.140000</speed>
</trkpt>
<trkpt lat="22.036432" lon="104.002228">
<ele>534.539551</ele>
<time>2011-04-26T06:15:00Z</time>
<desc>lat.=22.036432, lon.=104.002228, Alt.=534.539551m. Speed=0.684000m/h.</desc>
<speed>0.190000</speed>
</trkpt>
<trkpt lat="22.036432" lon="104.002228">
<ele>534.539551</ele>
<time>2011-04-26T06:15:05Z</time>
<desc>lat.=22.036432, lon.=104.002228, Alt.=534.539551m. Speed=0.432000m/h.</desc>
<speed>0.120000</speed>
</trkpt>
<trkpt lat="22.036432" lon="104.002235">
<ele>534.539551</ele>
<time>2011-04-26T06:15:10Z</time>
<desc>lat.=22.036432, lon.=104.002235, Alt.=534.539551m. Speed=0.108000m/h.</desc>
<speed>0.030000</speed>
</trkpt>
<trkpt lat="22.036430" lon="104.002235">
<ele>534.539551</ele>
<time>2011-04-26T06:15:15Z</time>
<desc>lat.=22.036430, lon.=104.002235, Alt.=534.539551m. Speed=0.036000m/h.</desc>
<speed>0.010000</speed>
</trkpt>
<trkpt lat="22.036432" lon="104.002235">
<ele>534.523926</ele>
<time>2011-04-26T06:15:20Z</time>
<desc>lat.=22.036432, lon.=104.002235, Alt.=534.523926m. Speed=0.072000m/h.</desc>
<speed>0.020000</speed>
</trkpt>
<trkpt lat="22.036430" lon="104.002235">
<ele>534.539551</ele>
<time>2011-04-26T06:15:25Z</time>
<desc>lat.=22.036430, lon.=104.002235, Alt.=534.539551m. Speed=0.072000m/h.</desc>
<speed>0.020000</speed>
</trkpt>
<trkpt lat="22.036430" lon="104.002243">
<ele>534.539551</ele>
<time>2011-04-26T06:15:30Z</time>
<desc>lat.=22.036430, lon.=104.002243, Alt.=534.539551m. Speed=0.432000m/h.</desc>
<speed>0.120000</speed>
</trkpt>
<trkpt lat="22.036430" lon="104.002243">
<ele>534.539551</ele>
<time>2011-04-26T06:15:35Z</time>
<desc>lat.=22.036430, lon.=104.002243, Alt.=534.539551m. Speed=0.072000m/h.</desc>
<speed>0.020000</speed>
</trkpt>
<trkpt lat="22.036430" lon="104.002243">
<ele>534.523926</ele>
<time>2011-04-26T06:15:40Z</time>
<desc>lat.=22.036430, lon.=104.002243, Alt.=534.523926m. Speed=0.144000m/h.</desc>
<speed>0.040000</speed>
</trkpt>
<trkpt lat="22.036430" lon="104.002243">
<ele>534.508301</ele>
<time>2011-04-26T06:15:45Z</time>
<desc>lat.=22.036430, lon.=104.002243, Alt.=534.508301m. Speed=0.072000m/h.</desc>
<speed>0.020000</speed>
</trkpt>
<trkpt lat="22.036430" lon="104.002243">
<ele>534.508301</ele>
<time>2011-04-26T06:15:50Z</time>
<desc>lat.=22.036430, lon.=104.002243, Alt.=534.508301m. Speed=0.360000m/h.</desc>
<speed>0.100000</speed>
</trkpt>
<trkpt lat="22.036428" lon="104.002243">
<ele>534.492676</ele>
<time>2011-04-26T06:15:55Z</time>
<desc>lat.=22.036428, lon.=104.002243, Alt.=534.492676m. Speed=0.000000m/h.</desc>
<speed>0.000000</speed>
</trkpt>
<trkpt lat="22.036430" lon="104.002243">
<ele>534.477051</ele>
<time>2011-04-26T06:16:00Z</time>
<desc>lat.=22.036430, lon.=104.002243, Alt.=534.477051m. Speed=0.180000m/h.</desc>
<speed>0.050000</speed>
</trkpt>
<trkpt lat="22.036430" lon="104.002243">
<ele>534.461426</ele>
<time>2011-04-26T06:16:05Z</time>
<desc>lat.=22.036430, lon.=104.002243, Alt.=534.461426m. Speed=0.000000m/h.</desc>
<speed>0.000000</speed>
</trkpt>
<trkpt lat="22.036430" lon="104.002243">
<ele>534.430176</ele>
<time>2011-04-26T06:16:10Z</time>
<desc>lat.=22.036430, lon.=104.002243, Alt.=534.430176m. Speed=0.036000m/h.</desc>
<speed>0.010000</speed>
</trkpt>
<trkpt lat="22.036430" lon="104.002243">
<ele>534.430176</ele>
<time>2011-04-26T06:16:15Z</time>
<desc>lat.=22.036430, lon.=104.002243, Alt.=534.430176m. Speed=0.072000m/h.</desc>
<speed>0.020000</speed>
</trkpt>
<trkpt lat="22.036430" lon="104.002243">
<ele>534.430176</ele>
<time>2011-04-26T06:16:20Z</time>
<desc>lat.=22.036430, lon.=104.002243, Alt.=534.430176m. Speed=0.036000m/h.</desc>
<speed>0.010000</speed>
</trkpt>
<trkpt lat="22.036430" lon="104.002243">
<ele>534.430176</ele>
<time>2011-04-26T06:16:25Z</time>
<desc>lat.=22.036430, lon.=104.002243, Alt.=534.430176m. Speed=0.144000m/h.</desc>
<speed>0.040000</speed>
</trkpt>
<trkpt lat="22.036430" lon="104.002243">
<ele>534.414551</ele>
<time>2011-04-26T06:16:30Z</time>
<desc>lat.=22.036430, lon.=104.002243, Alt.=534.414551m. Speed=0.180000m/h.</desc>
<speed>0.050000</speed>
</trkpt>
<trkpt lat="22.036430" lon="104.002243">
<ele>534.398926</ele>
<time>2011-04-26T06:16:35Z</time>
<desc>lat.=22.036430, lon.=104.002243, Alt.=534.398926m. Speed=0.288000m/h.</desc>
<speed>0.080000</speed>
</trkpt>
<trkpt lat="22.036428" lon="104.002251">
<ele>534.383301</ele>
<time>2011-04-26T06:16:40Z</time>
<desc>lat.=22.036428, lon.=104.002251, Alt.=534.383301m. Speed=0.540000m/h.</desc>
<speed>0.150000</speed>
</trkpt>
<trkpt lat="22.036427" lon="104.002258">
<ele>534.383301</ele>
<time>2011-04-26T06:16:45Z</time>
<desc>lat.=22.036427, lon.=104.002258, Alt.=534.383301m. Speed=0.324000m/h.</desc>
<speed>0.090000</speed>
</trkpt>
<trkpt lat="22.036427" lon="104.002266">
<ele>534.383301</ele>
<time>2011-04-26T06:16:50Z</time>
<desc>lat.=22.036427, lon.=104.002266, Alt.=534.383301m. Speed=0.216000m/h.</desc>
<speed>0.060000</speed>
</trkpt>
<trkpt lat="22.036427" lon="104.002266">
<ele>534.383301</ele>
<time>2011-04-26T06:16:55Z</time>
<desc>lat.=22.036427, lon.=104.002266, Alt.=534.383301m. Speed=0.072000m/h.</desc>
<speed>0.020000</speed>
</trkpt>
<trkpt lat="22.036425" lon="104.002266">
<ele>534.367676</ele>
<time>2011-04-26T06:17:00Z</time>
<desc>lat.=22.036425, lon.=104.002266, Alt.=534.367676m. Speed=0.072000m/h.</desc>
<speed>0.020000</speed>
</trkpt>
<trkpt lat="22.036425" lon="104.002266">
<ele>534.352051</ele>
<time>2011-04-26T06:17:05Z</time>
<desc>lat.=22.036425, lon.=104.002266, Alt.=534.352051m. Speed=0.180000m/h.</desc>
<speed>0.050000</speed>
</trkpt>
<trkpt lat="22.036427" lon="104.002266">
<ele>534.352051</ele>
<time>2011-04-26T06:17:10Z</time>
<desc>lat.=22.036427, lon.=104.002266, Alt.=534.352051m. Speed=0.108000m/h.</desc>
<speed>0.030000</speed>
</trkpt>
<trkpt lat="22.036427" lon="104.002266">
<ele>534.336426</ele>
<time>2011-04-26T06:17:15Z</time>
<desc>lat.=22.036427, lon.=104.002266, Alt.=534.336426m. Speed=0.036000m/h.</desc>
<speed>0.010000</speed>
</trkpt>
<trkpt lat="22.036427" lon="104.002266">
<ele>534.305176</ele>
<time>2011-04-26T06:17:20Z</time>
<desc>lat.=22.036427, lon.=104.002266, Alt.=534.305176m. Speed=0.216000m/h.</desc>
<speed>0.060000</speed>
</trkpt>
<trkpt lat="22.036427" lon="104.002266">
<ele>534.305176</ele>
<time>2011-04-26T06:17:25Z</time>
<desc>lat.=22.036427, lon.=104.002266, Alt.=534.305176m. Speed=0.324000m/h.</desc>
<speed>0.090000</speed>
</trkpt>
<trkpt lat="22.036425" lon="104.002266">
<ele>534.273926</ele>
<time>2011-04-26T06:17:30Z</time>
<desc>lat.=22.036425, lon.=104.002266, Alt.=534.273926m. Speed=0.144000m/h.</desc>
<speed>0.040000</speed>
</trkpt>
<trkpt lat="22.036427" lon="104.002266">
<ele>534.273926</ele>
<time>2011-04-26T06:17:35Z</time>
<desc>lat.=22.036427, lon.=104.002266, Alt.=534.273926m. Speed=0.252000m/h.</desc>
<speed>0.070000</speed>
</trkpt>
<trkpt lat="22.036432" lon="104.002266">
<ele>534.273926</ele>
<time>2011-04-26T06:17:40Z</time>
<desc>lat.=22.036432, lon.=104.002266, Alt.=534.273926m. Speed=0.324000m/h.</desc>
<speed>0.090000</speed>
</trkpt>
<trkpt lat="22.036436" lon="104.002274">
<ele>534.289551</ele>
<time>2011-04-26T06:17:45Z</time>
<desc>lat.=22.036436, lon.=104.002274, Alt.=534.289551m. Speed=0.540000m/h.</desc>
<speed>0.150000</speed>
</trkpt>
<trkpt lat="22.036440" lon="104.002266">
<ele>534.305176</ele>
<time>2011-04-26T06:17:50Z</time>
<desc>lat.=22.036440, lon.=104.002266, Alt.=534.305176m. Speed=0.288000m/h.</desc>
<speed>0.080000</speed>
</trkpt>
<trkpt lat="22.036446" lon="104.002251">
<ele>534.164551</ele>
<time>2011-04-26T06:17:55Z</time>
<desc>lat.=22.036446, lon.=104.002251, Alt.=534.164551m. Speed=0.036000m/h.</desc>
<speed>0.010000</speed>
</trkpt>
<trkpt lat="22.036448" lon="104.002251">
<ele>534.164551</ele>
<time>2011-04-26T06:18:00Z</time>
<desc>lat.=22.036448, lon.=104.002251, Alt.=534.164551m. Speed=0.360000m/h.</desc>
<speed>0.100000</speed>
</trkpt>
<trkpt lat="22.036453" lon="104.002251">
<ele>534.148926</ele>
<time>2011-04-26T06:18:05Z</time>
<desc>lat.=22.036453, lon.=104.002251, Alt.=534.148926m. Speed=0.576000m/h.</desc>
<speed>0.160000</speed>
</trkpt>
<trkpt lat="22.036461" lon="104.002251">
<ele>534.148926</ele>
<time>2011-04-26T06:18:10Z</time>
<desc>lat.=22.036461, lon.=104.002251, Alt.=534.148926m. Speed=0.468000m/h.</desc>
<speed>0.130000</speed>
</trkpt>
<trkpt lat="22.036469" lon="104.002251">
<ele>534.211426</ele>
<time>2011-04-26T06:18:15Z</time>
<desc>lat.=22.036469, lon.=104.002251, Alt.=534.211426m. Speed=0.216000m/h.</desc>
<speed>0.060000</speed>
</trkpt>
<trkpt lat="22.036472" lon="104.002251">
<ele>534.195801</ele>
<time>2011-04-26T06:18:20Z</time>
<desc>lat.=22.036472, lon.=104.002251, Alt.=534.195801m. Speed=0.252000m/h.</desc>
<speed>0.070000</speed>
</trkpt>
<trkpt lat="22.036474" lon="104.002251">
<ele>534.227051</ele>
<time>2011-04-26T06:18:25Z</time>
<desc>lat.=22.036474, lon.=104.002251, Alt.=534.227051m. Speed=0.288000m/h.</desc>
<speed>0.080000</speed>
</trkpt>
<trkpt lat="22.036478" lon="104.002243">
<ele>534.289551</ele>
<time>2011-04-26T06:18:30Z</time>
<desc>lat.=22.036478, lon.=104.002243, Alt.=534.289551m. Speed=0.252000m/h.</desc>
<speed>0.070000</speed>
</trkpt>
<trkpt lat="22.036478" lon="104.002243">
<ele>534.336426</ele>
<time>2011-04-26T06:18:35Z</time>
<desc>lat.=22.036478, lon.=104.002243, Alt.=534.336426m. Speed=0.468000m/h.</desc>
<speed>0.130000</speed>
</trkpt>
<trkpt lat="22.036480" lon="104.002251">
<ele>534.367676</ele>
<time>2011-04-26T06:18:40Z</time>
<desc>lat.=22.036480, lon.=104.002251, Alt.=534.367676m. Speed=0.072000m/h.</desc>
<speed>0.020000</speed>
</trkpt>
<trkpt lat="22.036480" lon="104.002251">
<ele>534.305176</ele>
<time>2011-04-26T06:18:45Z</time>
<desc>lat.=22.036480, lon.=104.002251, Alt.=534.305176m. Speed=0.216000m/h.</desc>
<speed>0.060000</speed>
</trkpt>
<trkpt lat="22.036478" lon="104.002251">
<ele>534.273926</ele>
<time>2011-04-26T06:18:50Z</time>
<desc>lat.=22.036478, lon.=104.002251, Alt.=534.273926m. Speed=0.432000m/h.</desc>
<speed>0.120000</speed>
</trkpt>
<trkpt lat="22.036480" lon="104.002258">
<ele>534.289551</ele>
<time>2011-04-26T06:18:55Z</time>
<desc>lat.=22.036480, lon.=104.002258, Alt.=534.289551m. Speed=0.576000m/h.</desc>
<speed>0.160000</speed>
</trkpt>
<trkpt lat="22.036484" lon="104.002258">
<ele>534.305176</ele>
<time>2011-04-26T06:19:00Z</time>
<desc>lat.=22.036484, lon.=104.002258, Alt.=534.305176m. Speed=0.288000m/h.</desc>
<speed>0.080000</speed>
</trkpt>
<trkpt lat="22.036484" lon="104.002258">
<ele>534.273926</ele>
<time>2011-04-26T06:19:05Z</time>
<desc>lat.=22.036484, lon.=104.002258, Alt.=534.273926m. Speed=0.144000m/h.</desc>
<speed>0.040000</speed>
</trkpt>
<trkpt lat="22.036484" lon="104.002258">
<ele>534.195801</ele>
<time>2011-04-26T06:19:10Z</time>
<desc>lat.=22.036484, lon.=104.002258, Alt.=534.195801m. Speed=0.468000m/h.</desc>
<speed>0.130000</speed>
</trkpt>
<trkpt lat="22.036486" lon="104.002266">
<ele>534.102051</ele>
<time>2011-04-26T06:19:15Z</time>
<desc>lat.=22.036486, lon.=104.002266, Alt.=534.102051m. Speed=0.540000m/h.</desc>
<speed>0.150000</speed>
</trkpt>
<trkpt lat="22.036486" lon="104.002266">
<ele>534.086426</ele>
<time>2011-04-26T06:19:20Z</time>
<desc>lat.=22.036486, lon.=104.002266, Alt.=534.086426m. Speed=0.072000m/h.</desc>
<speed>0.020000</speed>
</trkpt>
<trkpt lat="22.036486" lon="104.002266">
<ele>534.039551</ele>
<time>2011-04-26T06:19:25Z</time>
<desc>lat.=22.036486, lon.=104.002266, Alt.=534.039551m. Speed=0.252000m/h.</desc>
<speed>0.070000</speed>
</trkpt>
<trkpt lat="22.036488" lon="104.002266">
<ele>533.945801</ele>
<time>2011-04-26T06:19:30Z</time>
<desc>lat.=22.036488, lon.=104.002266, Alt.=533.945801m. Speed=0.576000m/h.</desc>
<speed>0.160000</speed>
</trkpt>
<trkpt lat="22.036491" lon="104.002266">
<ele>533.914551</ele>
<time>2011-04-26T06:19:35Z</time>
<desc>lat.=22.036491, lon.=104.002266, Alt.=533.914551m. Speed=0.108000m/h.</desc>
<speed>0.030000</speed>
</trkpt>
<trkpt lat="22.036489" lon="104.002258">
<ele>533.867676</ele>
<time>2011-04-26T06:19:40Z</time>
<desc>lat.=22.036489, lon.=104.002258, Alt.=533.867676m. Speed=0.756000m/h.</desc>
<speed>0.210000</speed>
</trkpt>
<trkpt lat="22.036491" lon="104.002235">
<ele>533.539551</ele>
<time>2011-04-26T06:19:45Z</time>
<desc>lat.=22.036491, lon.=104.002235, Alt.=533.539551m. Speed=0.540000m/h.</desc>
<speed>0.150000</speed>
</trkpt>
<trkpt lat="22.036484" lon="104.002220">
<ele>533.398926</ele>
<time>2011-04-26T06:19:50Z</time>
<desc>lat.=22.036484, lon.=104.002220, Alt.=533.398926m. Speed=0.360000m/h.</desc>
<speed>0.100000</speed>
</trkpt>
<trkpt lat="22.036461" lon="104.002113">
<ele>532.164551</ele>
<time>2011-04-26T06:19:55Z</time>
<desc>lat.=22.036461, lon.=104.002113, Alt.=532.164551m. Speed=0.648000m/h.</desc>
<speed>0.180000</speed>
</trkpt>
<trkpt lat="22.036512" lon="104.002075">
<ele>532.398926</ele>
<time>2011-04-26T06:20:00Z</time>
<desc>lat.=22.036512, lon.=104.002075, Alt.=532.398926m. Speed=0.972000m/h.</desc>
<speed>0.270000</speed>
</trkpt>
<trkpt lat="22.036556" lon="104.002045">
<ele>532.883301</ele>
<time>2011-04-26T06:20:05Z</time>
<desc>lat.=22.036556, lon.=104.002045, Alt.=532.883301m. Speed=0.360000m/h.</desc>
<speed>0.100000</speed>
</trkpt>
<trkpt lat="22.036579" lon="104.002029">
<ele>531.883301</ele>
<time>2011-04-26T06:20:10Z</time>
<desc>lat.=22.036579, lon.=104.002029, Alt.=531.883301m. Speed=0.468000m/h.</desc>
<speed>0.130000</speed>
</trkpt>
<trkpt lat="22.036556" lon="104.002022">
<ele>532.023926</ele>
<time>2011-04-26T06:20:15Z</time>
<desc>lat.=22.036556, lon.=104.002022, Alt.=532.023926m. Speed=0.540000m/h.</desc>
<speed>0.150000</speed>
</trkpt>
<trkpt lat="22.036533" lon="104.002014">
<ele>532.258301</ele>
<time>2011-04-26T06:20:20Z</time>
<desc>lat.=22.036533, lon.=104.002014, Alt.=532.258301m. Speed=0.648000m/h.</desc>
<speed>0.180000</speed>
</trkpt>
<trkpt lat="22.036541" lon="104.002037">
<ele>531.477051</ele>
<time>2011-04-26T06:20:25Z</time>
<desc>lat.=22.036541, lon.=104.002037, Alt.=531.477051m. Speed=0.396000m/h.</desc>
<speed>0.110000</speed>
</trkpt>
<trkpt lat="22.036541" lon="104.002045">
<ele>531.492676</ele>
<time>2011-04-26T06:20:30Z</time>
<desc>lat.=22.036541, lon.=104.002045, Alt.=531.492676m. Speed=0.756000m/h.</desc>
<speed>0.210000</speed>
</trkpt>
<trkpt lat="22.036545" lon="104.002037">
<ele>531.539551</ele>
<time>2011-04-26T06:20:35Z</time>
<desc>lat.=22.036545, lon.=104.002037, Alt.=531.539551m. Speed=0.360000m/h.</desc>
<speed>0.100000</speed>
</trkpt>
<trkpt lat="22.036509" lon="104.002014">
<ele>531.773926</ele>
<time>2011-04-26T06:20:40Z</time>
<desc>lat.=22.036509, lon.=104.002014, Alt.=531.773926m. Speed=1.656000m/h.</desc>
<speed>0.460000</speed>
</trkpt>
<trkpt lat="22.036501" lon="104.002007">
<ele>531.602051</ele>
<time>2011-04-26T06:20:45Z</time>
<desc>lat.=22.036501, lon.=104.002007, Alt.=531.602051m. Speed=1.080000m/h.</desc>
<speed>0.300000</speed>
</trkpt>
<trkpt lat="22.036503" lon="104.001991">
<ele>530.617676</ele>
<time>2011-04-26T06:20:50Z</time>
<desc>lat.=22.036503, lon.=104.001991, Alt.=530.617676m. Speed=0.252000m/h.</desc>
<speed>0.070000</speed>
</trkpt>
<trkpt lat="22.036501" lon="104.001991">
<ele>530.617676</ele>
<time>2011-04-26T06:20:55Z</time>
<desc>lat.=22.036501, lon.=104.001991, Alt.=530.617676m. Speed=0.216000m/h.</desc>
<speed>0.060000</speed>
</trkpt>
<trkpt lat="22.036499" lon="104.001999">
<ele>530.461426</ele>
<time>2011-04-26T06:21:00Z</time>
<desc>lat.=22.036499, lon.=104.001999, Alt.=530.461426m. Speed=1.044000m/h.</desc>
<speed>0.290000</speed>
</trkpt>
<trkpt lat="22.036497" lon="104.001984">
<ele>527.273926</ele>
<time>2011-04-26T06:21:05Z</time>
<desc>lat.=22.036497, lon.=104.001984, Alt.=527.273926m. Speed=0.648000m/h.</desc>
<speed>0.180000</speed>
</trkpt>
<trkpt lat="22.036499" lon="104.001999">
<ele>527.273926</ele>
<time>2011-04-26T06:21:10Z</time>
<desc>lat.=22.036499, lon.=104.001999, Alt.=527.273926m. Speed=0.756000m/h.</desc>
<speed>0.210000</speed>
</trkpt>
<trkpt lat="22.036501" lon="104.002007">
<ele>527.227051</ele>
<time>2011-04-26T06:21:15Z</time>
<desc>lat.=22.036501, lon.=104.002007, Alt.=527.227051m. Speed=0.972000m/h.</desc>
<speed>0.270000</speed>
</trkpt>
<trkpt lat="22.036505" lon="104.002029">
<ele>527.242676</ele>
<time>2011-04-26T06:21:20Z</time>
<desc>lat.=22.036505, lon.=104.002029, Alt.=527.242676m. Speed=1.080000m/h.</desc>
<speed>0.300000</speed>
</trkpt>
<trkpt lat="22.036505" lon="104.002037">
<ele>527.789551</ele>
<time>2011-04-26T06:21:25Z</time>
<desc>lat.=22.036505, lon.=104.002037, Alt.=527.789551m. Speed=0.648000m/h.</desc>
<speed>0.180000</speed>
</trkpt>
<trkpt lat="22.036505" lon="104.002037">
<ele>527.867676</ele>
<time>2011-04-26T06:21:30Z</time>
<desc>lat.=22.036505, lon.=104.002037, Alt.=527.867676m. Speed=0.144000m/h.</desc>
<speed>0.040000</speed>
</trkpt>
<trkpt lat="22.036505" lon="104.002037">
<ele>527.977051</ele>
<time>2011-04-26T06:21:35Z</time>
<desc>lat.=22.036505, lon.=104.002037, Alt.=527.977051m. Speed=0.180000m/h.</desc>
<speed>0.050000</speed>
</trkpt>
<trkpt lat="22.036507" lon="104.002037">
<ele>528.070801</ele>
<time>2011-04-26T06:21:40Z</time>
<desc>lat.=22.036507, lon.=104.002037, Alt.=528.070801m. Speed=0.108000m/h.</desc>
<speed>0.030000</speed>
</trkpt>
<trkpt lat="22.036507" lon="104.002045">
<ele>528.164551</ele>
<time>2011-04-26T06:21:45Z</time>
<desc>lat.=22.036507, lon.=104.002045, Alt.=528.164551m. Speed=0.468000m/h.</desc>
<speed>0.130000</speed>
</trkpt>
<trkpt lat="22.036510" lon="104.002052">
<ele>528.258301</ele>
<time>2011-04-26T06:21:50Z</time>
<desc>lat.=22.036510, lon.=104.002052, Alt.=528.258301m. Speed=0.684000m/h.</desc>
<speed>0.190000</speed>
</trkpt>
<trkpt lat="22.036512" lon="104.002060">
<ele>528.336426</ele>
<time>2011-04-26T06:21:55Z</time>
<desc>lat.=22.036512, lon.=104.002060, Alt.=528.336426m. Speed=0.684000m/h.</desc>
<speed>0.190000</speed>
</trkpt>
<trkpt lat="22.036514" lon="104.002068">
<ele>528.367676</ele>
<time>2011-04-26T06:22:00Z</time>
<desc>lat.=22.036514, lon.=104.002068, Alt.=528.367676m. Speed=0.720000m/h.</desc>
<speed>0.200000</speed>
</trkpt>
<trkpt lat="22.036518" lon="104.002075">
<ele>528.367676</ele>
<time>2011-04-26T06:22:05Z</time>
<desc>lat.=22.036518, lon.=104.002075, Alt.=528.367676m. Speed=0.432000m/h.</desc>
<speed>0.120000</speed>
</trkpt>
<trkpt lat="22.036514" lon="104.002083">
<ele>528.414551</ele>
<time>2011-04-26T06:22:10Z</time>
<desc>lat.=22.036514, lon.=104.002083, Alt.=528.414551m. Speed=0.216000m/h.</desc>
<speed>0.060000</speed>
</trkpt>
<trkpt lat="22.036512" lon="104.002083">
<ele>528.477051</ele>
<time>2011-04-26T06:22:15Z</time>
<desc>lat.=22.036512, lon.=104.002083, Alt.=528.477051m. Speed=0.360000m/h.</desc>
<speed>0.100000</speed>
</trkpt>
<trkpt lat="22.036509" lon="104.002083">
<ele>528.570801</ele>
<time>2011-04-26T06:22:20Z</time>
<desc>lat.=22.036509, lon.=104.002083, Alt.=528.570801m. Speed=0.216000m/h.</desc>
<speed>0.060000</speed>
</trkpt>
<trkpt lat="22.036509" lon="104.002083">
<ele>528.664551</ele>
<time>2011-04-26T06:22:25Z</time>
<desc>lat.=22.036509, lon.=104.002083, Alt.=528.664551m. Speed=0.036000m/h.</desc>
<speed>0.010000</speed>
</trkpt>
<trkpt lat="22.036510" lon="104.002083">
<ele>528.711426</ele>
<time>2011-04-26T06:22:30Z</time>
<desc>lat.=22.036510, lon.=104.002083, Alt.=528.711426m. Speed=0.396000m/h.</desc>
<speed>0.110000</speed>
</trkpt>
<trkpt lat="22.036512" lon="104.002090">
<ele>528.789551</ele>
<time>2011-04-26T06:22:35Z</time>
<desc>lat.=22.036512, lon.=104.002090, Alt.=528.789551m. Speed=0.468000m/h.</desc>
<speed>0.130000</speed>
</trkpt>
<trkpt lat="22.036516" lon="104.002098">
<ele>528.898926</ele>
<time>2011-04-26T06:22:40Z</time>
<desc>lat.=22.036516, lon.=104.002098, Alt.=528.898926m. Speed=1.008000m/h.</desc>
<speed>0.280000</speed>
</trkpt>
<trkpt lat="22.036528" lon="104.002113">
<ele>526.805176</ele>
<time>2011-04-26T06:22:45Z</time>
<desc>lat.=22.036528, lon.=104.002113, Alt.=526.805176m. Speed=1.116000m/h.</desc>
<speed>0.310000</speed>
</trkpt>
<trkpt lat="22.036537" lon="104.002129">
<ele>525.070801</ele>
<time>2011-04-26T06:22:50Z</time>
<desc>lat.=22.036537, lon.=104.002129, Alt.=525.070801m. Speed=0.936000m/h.</desc>
<speed>0.260000</speed>
</trkpt>
<trkpt lat="22.036554" lon="104.002144">
<ele>524.055176</ele>
<time>2011-04-26T06:22:55Z</time>
<desc>lat.=22.036554, lon.=104.002144, Alt.=524.055176m. Speed=0.720000m/h.</desc>
<speed>0.200000</speed>
</trkpt>
<trkpt lat="22.036558" lon="104.002151">
<ele>523.836426</ele>
<time>2011-04-26T06:23:00Z</time>
<desc>lat.=22.036558, lon.=104.002151, Alt.=523.836426m. Speed=0.756000m/h.</desc>
<speed>0.210000</speed>
</trkpt>
<trkpt lat="22.036562" lon="104.002167">
<ele>523.664551</ele>
<time>2011-04-26T06:23:05Z</time>
<desc>lat.=22.036562, lon.=104.002167, Alt.=523.664551m. Speed=0.684000m/h.</desc>
<speed>0.190000</speed>
</trkpt>
<trkpt lat="22.036564" lon="104.002174">
<ele>523.508301</ele>
<time>2011-04-26T06:23:10Z</time>
<desc>lat.=22.036564, lon.=104.002174, Alt.=523.508301m. Speed=0.144000m/h.</desc>
<speed>0.040000</speed>
</trkpt>
<trkpt lat="22.036562" lon="104.002167">
<ele>523.336426</ele>
<time>2011-04-26T06:23:15Z</time>
<desc>lat.=22.036562, lon.=104.002167, Alt.=523.336426m. Speed=0.396000m/h.</desc>
<speed>0.110000</speed>
</trkpt>
<trkpt lat="22.036558" lon="104.002159">
<ele>523.211426</ele>
<time>2011-04-26T06:23:20Z</time>
<desc>lat.=22.036558, lon.=104.002159, Alt.=523.211426m. Speed=0.756000m/h.</desc>
<speed>0.210000</speed>
</trkpt>
<trkpt lat="22.036554" lon="104.002151">
<ele>523.070801</ele>
<time>2011-04-26T06:23:25Z</time>
<desc>lat.=22.036554, lon.=104.002151, Alt.=523.070801m. Speed=0.828000m/h.</desc>
<speed>0.230000</speed>
</trkpt>
<trkpt lat="22.036552" lon="104.002144">
<ele>521.352051</ele>
<time>2011-04-26T06:23:30Z</time>
<desc>lat.=22.036552, lon.=104.002144, Alt.=521.352051m. Speed=0.900000m/h.</desc>
<speed>0.250000</speed>
</trkpt>
<trkpt lat="22.036543" lon="104.002121">
<ele>520.633301</ele>
<time>2011-04-26T06:23:35Z</time>
<desc>lat.=22.036543, lon.=104.002121, Alt.=520.633301m. Speed=0.792000m/h.</desc>
<speed>0.220000</speed>
</trkpt>
<trkpt lat="22.036539" lon="104.002113">
<ele>520.258301</ele>
<time>2011-04-26T06:23:40Z</time>
<desc>lat.=22.036539, lon.=104.002113, Alt.=520.258301m. Speed=0.612000m/h.</desc>
<speed>0.170000</speed>
</trkpt>
<trkpt lat="22.036535" lon="104.002106">
<ele>519.836426</ele>
<time>2011-04-26T06:23:45Z</time>
<desc>lat.=22.036535, lon.=104.002106, Alt.=519.836426m. Speed=0.792000m/h.</desc>
<speed>0.220000</speed>
</trkpt>
<trkpt lat="22.036531" lon="104.002090">
<ele>519.320801</ele>
<time>2011-04-26T06:23:50Z</time>
<desc>lat.=22.036531, lon.=104.002090, Alt.=519.320801m. Speed=1.044000m/h.</desc>
<speed>0.290000</speed>
</trkpt>
<trkpt lat="22.036518" lon="104.002045">
<ele>518.414551</ele>
<time>2011-04-26T06:23:55Z</time>
<desc>lat.=22.036518, lon.=104.002045, Alt.=518.414551m. Speed=1.368000m/h.</desc>
<speed>0.380000</speed>
</trkpt>
<trkpt lat="22.036482" lon="104.001968">
<ele>516.570801</ele>
<time>2011-04-26T06:24:00Z</time>
<desc>lat.=22.036482, lon.=104.001968, Alt.=516.570801m. Speed=1.836000m/h.</desc>
<speed>0.510000</speed>
</trkpt>
<trkpt lat="22.036474" lon="104.001938">
<ele>515.711426</ele>
<time>2011-04-26T06:24:05Z</time>
<desc>lat.=22.036474, lon.=104.001938, Alt.=515.711426m. Speed=1.620000m/h.</desc>
<speed>0.450000</speed>
</trkpt>
<trkpt lat="22.036469" lon="104.001938">
<ele>515.258301</ele>
<time>2011-04-26T06:24:10Z</time>
<desc>lat.=22.036469, lon.=104.001938, Alt.=515.258301m. Speed=1.152000m/h.</desc>
<speed>0.320000</speed>
</trkpt>
<trkpt lat="22.036472" lon="104.001953">
<ele>514.758301</ele>
<time>2011-04-26T06:24:15Z</time>
<desc>lat.=22.036472, lon.=104.001953, Alt.=514.758301m. Speed=0.720000m/h.</desc>
<speed>0.200000</speed>
</trkpt>
<trkpt lat="22.036469" lon="104.001945">
<ele>514.242676</ele>
<time>2011-04-26T06:24:20Z</time>
<desc>lat.=22.036469, lon.=104.001945, Alt.=514.242676m. Speed=0.540000m/h.</desc>
<speed>0.150000</speed>
</trkpt>
<trkpt lat="22.036467" lon="104.001938">
<ele>513.727051</ele>
<time>2011-04-26T06:24:25Z</time>
<desc>lat.=22.036467, lon.=104.001938, Alt.=513.727051m. Speed=0.216000m/h.</desc>
<speed>0.060000</speed>
</trkpt>
<trkpt lat="22.036469" lon="104.001938">
<ele>513.211426</ele>
<time>2011-04-26T06:24:30Z</time>
<desc>lat.=22.036469, lon.=104.001938, Alt.=513.211426m. Speed=0.504000m/h.</desc>
<speed>0.140000</speed>
</trkpt>
<trkpt lat="22.036501" lon="104.002007">
<ele>512.883301</ele>
<time>2011-04-26T06:24:35Z</time>
<desc>lat.=22.036501, lon.=104.002007, Alt.=512.883301m. Speed=1.908000m/h.</desc>
<speed>0.530000</speed>
</trkpt>
<trkpt lat="22.036522" lon="104.002075">
<ele>512.773926</ele>
<time>2011-04-26T06:24:40Z</time>
<desc>lat.=22.036522, lon.=104.002075, Alt.=512.773926m. Speed=1.548000m/h.</desc>
<speed>0.430000</speed>
</trkpt>
<trkpt lat="22.036535" lon="104.002075">
<ele>512.398926</ele>
<time>2011-04-26T06:24:45Z</time>
<desc>lat.=22.036535, lon.=104.002075, Alt.=512.398926m. Speed=1.332000m/h.</desc>
<speed>0.370000</speed>
</trkpt>
<trkpt lat="22.036539" lon="104.002090">
<ele>511.949463</ele>
<time>2011-04-26T06:24:50Z</time>
<desc>lat.=22.036539, lon.=104.002090, Alt.=511.949463m. Speed=1.296000m/h.</desc>
<speed>0.360000</speed>
</trkpt>
<trkpt lat="22.036530" lon="104.002098">
<ele>511.293213</ele>
<time>2011-04-26T06:24:55Z</time>
<desc>lat.=22.036530, lon.=104.002098, Alt.=511.293213m. Speed=1.260000m/h.</desc>
<speed>0.350000</speed>
</trkpt>
<trkpt lat="22.036518" lon="104.002098">
<ele>510.590088</ele>
<time>2011-04-26T06:25:00Z</time>
<desc>lat.=22.036518, lon.=104.002098, Alt.=510.590088m. Speed=0.936000m/h.</desc>
<speed>0.260000</speed>
</trkpt>
<trkpt lat="22.036512" lon="104.002098">
<ele>509.988525</ele>
<time>2011-04-26T06:25:05Z</time>
<desc>lat.=22.036512, lon.=104.002098, Alt.=509.988525m. Speed=0.828000m/h.</desc>
<speed>0.230000</speed>
</trkpt>
<trkpt lat="22.036510" lon="104.002106">
<ele>509.496338</ele>
<time>2011-04-26T06:25:10Z</time>
<desc>lat.=22.036510, lon.=104.002106, Alt.=509.496338m. Speed=0.216000m/h.</desc>
<speed>0.060000</speed>
</trkpt>
<trkpt lat="22.036507" lon="104.002106">
<ele>509.004150</ele>
<time>2011-04-26T06:25:15Z</time>
<desc>lat.=22.036507, lon.=104.002106, Alt.=509.004150m. Speed=0.144000m/h.</desc>
<speed>0.040000</speed>
</trkpt>
<trkpt lat="22.036507" lon="104.002106">
<ele>508.504150</ele>
<time>2011-04-26T06:25:20Z</time>
<desc>lat.=22.036507, lon.=104.002106, Alt.=508.504150m. Speed=0.108000m/h.</desc>
<speed>0.030000</speed>
</trkpt>
<trkpt lat="22.036505" lon="104.002106">
<ele>508.004150</ele>
<time>2011-04-26T06:25:25Z</time>
<desc>lat.=22.036505, lon.=104.002106, Alt.=508.004150m. Speed=0.180000m/h.</desc>
<speed>0.050000</speed>
</trkpt>
<trkpt lat="22.036505" lon="104.002106">
<ele>507.519775</ele>
<time>2011-04-26T06:25:30Z</time>
<desc>lat.=22.036505, lon.=104.002106, Alt.=507.519775m. Speed=0.216000m/h.</desc>
<speed>0.060000</speed>
</trkpt>
<trkpt lat="22.036507" lon="104.002098">
<ele>507.019775</ele>
<time>2011-04-26T06:25:35Z</time>
<desc>lat.=22.036507, lon.=104.002098, Alt.=507.019775m. Speed=0.576000m/h.</desc>
<speed>0.160000</speed>
</trkpt>
<trkpt lat="22.036510" lon="104.002090">
<ele>506.543213</ele>
<time>2011-04-26T06:25:40Z</time>
<desc>lat.=22.036510, lon.=104.002090, Alt.=506.543213m. Speed=0.720000m/h.</desc>
<speed>0.200000</speed>
</trkpt>
<trkpt lat="22.036514" lon="104.002075">
<ele>506.074463</ele>
<time>2011-04-26T06:25:45Z</time>
<desc>lat.=22.036514, lon.=104.002075, Alt.=506.074463m. Speed=1.080000m/h.</desc>
<speed>0.300000</speed>
</trkpt>
<trkpt lat="22.036528" lon="104.002052">
<ele>505.574463</ele>
<time>2011-04-26T06:25:50Z</time>
<desc>lat.=22.036528, lon.=104.002052, Alt.=505.574463m. Speed=0.864000m/h.</desc>
<speed>0.240000</speed>
</trkpt>
<trkpt lat="22.036535" lon="104.002037">
<ele>505.097900</ele>
<time>2011-04-26T06:25:55Z</time>
<desc>lat.=22.036535, lon.=104.002037, Alt.=505.097900m. Speed=0.828000m/h.</desc>
<speed>0.230000</speed>
</trkpt>
<trkpt lat="22.036543" lon="104.002029">
<ele>504.629150</ele>
<time>2011-04-26T06:26:00Z</time>
<desc>lat.=22.036543, lon.=104.002029, Alt.=504.629150m. Speed=0.936000m/h.</desc>
<speed>0.260000</speed>
</trkpt>
<trkpt lat="22.036554" lon="104.002029">
<ele>504.168213</ele>
<time>2011-04-26T06:26:05Z</time>
<desc>lat.=22.036554, lon.=104.002029, Alt.=504.168213m. Speed=0.900000m/h.</desc>
<speed>0.250000</speed>
</trkpt>
<trkpt lat="22.036564" lon="104.002022">
<ele>503.707275</ele>
<time>2011-04-26T06:26:10Z</time>
<desc>lat.=22.036564, lon.=104.002022, Alt.=503.707275m. Speed=0.648000m/h.</desc>
<speed>0.180000</speed>
</trkpt>
<trkpt lat="22.036572" lon="104.002022">
<ele>503.254150</ele>
<time>2011-04-26T06:26:15Z</time>
<desc>lat.=22.036572, lon.=104.002022, Alt.=503.254150m. Speed=0.540000m/h.</desc>
<speed>0.150000</speed>
</trkpt>
<trkpt lat="22.036577" lon="104.002014">
<ele>502.793213</ele>
<time>2011-04-26T06:26:20Z</time>
<desc>lat.=22.036577, lon.=104.002014, Alt.=502.793213m. Speed=0.612000m/h.</desc>
<speed>0.170000</speed>
</trkpt>
<trkpt lat="22.036585" lon="104.002014">
<ele>502.340088</ele>
<time>2011-04-26T06:26:25Z</time>
<desc>lat.=22.036585, lon.=104.002014, Alt.=502.340088m. Speed=0.468000m/h.</desc>
<speed>0.130000</speed>
</trkpt>
<trkpt lat="22.036589" lon="104.002014">
<ele>501.879150</ele>
<time>2011-04-26T06:26:30Z</time>
<desc>lat.=22.036589, lon.=104.002014, Alt.=501.879150m. Speed=0.252000m/h.</desc>
<speed>0.070000</speed>
</trkpt>
<trkpt lat="22.036589" lon="104.002014">
<ele>501.426025</ele>
<time>2011-04-26T06:26:35Z</time>
<desc>lat.=22.036589, lon.=104.002014, Alt.=501.426025m. Speed=0.216000m/h.</desc>
<speed>0.060000</speed>
</trkpt>
<trkpt lat="22.036583" lon="104.002014">
<ele>500.980713</ele>
<time>2011-04-26T06:26:40Z</time>
<desc>lat.=22.036583, lon.=104.002014, Alt.=500.980713m. Speed=0.576000m/h.</desc>
<speed>0.160000</speed>
</trkpt>
<trkpt lat="22.036577" lon="104.002014">
<ele>500.535400</ele>
<time>2011-04-26T06:26:45Z</time>
<desc>lat.=22.036577, lon.=104.002014, Alt.=500.535400m. Speed=0.576000m/h.</desc>
<speed>0.160000</speed>
</trkpt>
<trkpt lat="22.036570" lon="104.002022">
<ele>500.082275</ele>
<time>2011-04-26T06:26:50Z</time>
<desc>lat.=22.036570, lon.=104.002022, Alt.=500.082275m. Speed=0.648000m/h.</desc>
<speed>0.180000</speed>
</trkpt>
<trkpt lat="22.036564" lon="104.002029">
<ele>499.644775</ele>
<time>2011-04-26T06:26:55Z</time>
<desc>lat.=22.036564, lon.=104.002029, Alt.=499.644775m. Speed=0.612000m/h.</desc>
<speed>0.170000</speed>
</trkpt>
<trkpt lat="22.036564" lon="104.002037">
<ele>499.199463</ele>
<time>2011-04-26T06:27:00Z</time>
<desc>lat.=22.036564, lon.=104.002037, Alt.=499.199463m. Speed=0.540000m/h.</desc>
<speed>0.150000</speed>
</trkpt>
<trkpt lat="22.036566" lon="104.002045">
<ele>498.761963</ele>
<time>2011-04-26T06:27:05Z</time>
<desc>lat.=22.036566, lon.=104.002045, Alt.=498.761963m. Speed=0.396000m/h.</desc>
<speed>0.110000</speed>
</trkpt>
<trkpt lat="22.036568" lon="104.002052">
<ele>498.332275</ele>
<time>2011-04-26T06:27:10Z</time>
<desc>lat.=22.036568, lon.=104.002052, Alt.=498.332275m. Speed=0.180000m/h.</desc>
<speed>0.050000</speed>
</trkpt>
<trkpt lat="22.036572" lon="104.002045">
<ele>497.894775</ele>
<time>2011-04-26T06:27:15Z</time>
<desc>lat.=22.036572, lon.=104.002045, Alt.=497.894775m. Speed=0.360000m/h.</desc>
<speed>0.100000</speed>
</trkpt>
<trkpt lat="22.036575" lon="104.002045">
<ele>497.465088</ele>
<time>2011-04-26T06:27:20Z</time>
<desc>lat.=22.036575, lon.=104.002045, Alt.=497.465088m. Speed=0.324000m/h.</desc>
<speed>0.090000</speed>
</trkpt>
<trkpt lat="22.036577" lon="104.002037">
<ele>497.027588</ele>
<time>2011-04-26T06:27:25Z</time>
<desc>lat.=22.036577, lon.=104.002037, Alt.=497.027588m. Speed=0.324000m/h.</desc>
<speed>0.090000</speed>
</trkpt>
<trkpt lat="22.036581" lon="104.002037">
<ele>496.590088</ele>
<time>2011-04-26T06:27:30Z</time>
<desc>lat.=22.036581, lon.=104.002037, Alt.=496.590088m. Speed=0.432000m/h.</desc>
<speed>0.120000</speed>
</trkpt>
<trkpt lat="22.036585" lon="104.002029">
<ele>496.152588</ele>
<time>2011-04-26T06:27:35Z</time>
<desc>lat.=22.036585, lon.=104.002029, Alt.=496.152588m. Speed=0.504000m/h.</desc>
<speed>0.140000</speed>
</trkpt>
<trkpt lat="22.036587" lon="104.002029">
<ele>495.730713</ele>
<time>2011-04-26T06:27:40Z</time>
<desc>lat.=22.036587, lon.=104.002029, Alt.=495.730713m. Speed=0.252000m/h.</desc>
<speed>0.070000</speed>
</trkpt>
<trkpt lat="22.036589" lon="104.002029">
<ele>495.308838</ele>
<time>2011-04-26T06:27:45Z</time>
<desc>lat.=22.036589, lon.=104.002029, Alt.=495.308838m. Speed=0.036000m/h.</desc>
<speed>0.010000</speed>
</trkpt>
<trkpt lat="22.036587" lon="104.002029">
<ele>494.886963</ele>
<time>2011-04-26T06:27:50Z</time>
<desc>lat.=22.036587, lon.=104.002029, Alt.=494.886963m. Speed=0.180000m/h.</desc>
<speed>0.050000</speed>
</trkpt>
<trkpt lat="22.036581" lon="104.002037">
<ele>494.472900</ele>
<time>2011-04-26T06:27:55Z</time>
<desc>lat.=22.036581, lon.=104.002037, Alt.=494.472900m. Speed=0.576000m/h.</desc>
<speed>0.160000</speed>
</trkpt>
<trkpt lat="22.036573" lon="104.002037">
<ele>494.051025</ele>
<time>2011-04-26T06:28:00Z</time>
<desc>lat.=22.036573, lon.=104.002037, Alt.=494.051025m. Speed=1.008000m/h.</desc>
<speed>0.280000</speed>
</trkpt>
<trkpt lat="22.036560" lon="104.002037">
<ele>493.629150</ele>
<time>2011-04-26T06:28:05Z</time>
<desc>lat.=22.036560, lon.=104.002037, Alt.=493.629150m. Speed=0.972000m/h.</desc>
<speed>0.270000</speed>
</trkpt>
<trkpt lat="22.036545" lon="104.002037">
<ele>493.246338</ele>
<time>2011-04-26T06:28:10Z</time>
<desc>lat.=22.036545, lon.=104.002037, Alt.=493.246338m. Speed=1.008000m/h.</desc>
<speed>0.280000</speed>
</trkpt>
<trkpt lat="22.036531" lon="104.002037">
<ele>493.019775</ele>
<time>2011-04-26T06:28:15Z</time>
<desc>lat.=22.036531, lon.=104.002037, Alt.=493.019775m. Speed=0.792000m/h.</desc>
<speed>0.220000</speed>
</trkpt>
<trkpt lat="22.036520" lon="104.002037">
<ele>492.613525</ele>
<time>2011-04-26T06:28:20Z</time>
<desc>lat.=22.036520, lon.=104.002037, Alt.=492.613525m. Speed=0.756000m/h.</desc>
<speed>0.210000</speed>
</trkpt>
<trkpt lat="22.036512" lon="104.002037">
<ele>492.207275</ele>
<time>2011-04-26T06:28:25Z</time>
<desc>lat.=22.036512, lon.=104.002037, Alt.=492.207275m. Speed=0.612000m/h.</desc>
<speed>0.170000</speed>
</trkpt>
<trkpt lat="22.036509" lon="104.002037">
<ele>491.801025</ele>
<time>2011-04-26T06:28:30Z</time>
<desc>lat.=22.036509, lon.=104.002037, Alt.=491.801025m. Speed=0.288000m/h.</desc>
<speed>0.080000</speed>
</trkpt>
<trkpt lat="22.036512" lon="104.002045">
<ele>491.402588</ele>
<time>2011-04-26T06:28:35Z</time>
<desc>lat.=22.036512, lon.=104.002045, Alt.=491.402588m. Speed=0.648000m/h.</desc>
<speed>0.180000</speed>
</trkpt>
<trkpt lat="22.036520" lon="104.002052">
<ele>491.011963</ele>
<time>2011-04-26T06:28:40Z</time>
<desc>lat.=22.036520, lon.=104.002052, Alt.=491.011963m. Speed=0.828000m/h.</desc>
<speed>0.230000</speed>
</trkpt>
<trkpt lat="22.036528" lon="104.002052">
<ele>490.621338</ele>
<time>2011-04-26T06:28:45Z</time>
<desc>lat.=22.036528, lon.=104.002052, Alt.=490.621338m. Speed=0.540000m/h.</desc>
<speed>0.150000</speed>
</trkpt>
<trkpt lat="22.036537" lon="104.002060">
<ele>490.238525</ele>
<time>2011-04-26T06:28:50Z</time>
<desc>lat.=22.036537, lon.=104.002060, Alt.=490.238525m. Speed=0.720000m/h.</desc>
<speed>0.200000</speed>
</trkpt>
<trkpt lat="22.036545" lon="104.002060">
<ele>489.855713</ele>
<time>2011-04-26T06:28:55Z</time>
<desc>lat.=22.036545, lon.=104.002060, Alt.=489.855713m. Speed=0.612000m/h.</desc>
<speed>0.170000</speed>
</trkpt>
<trkpt lat="22.036552" lon="104.002052">
<ele>489.480713</ele>
<time>2011-04-26T06:29:00Z</time>
<desc>lat.=22.036552, lon.=104.002052, Alt.=489.480713m. Speed=0.396000m/h.</desc>
<speed>0.110000</speed>
</trkpt>
<trkpt lat="22.036554" lon="104.002052">
<ele>489.097900</ele>
<time>2011-04-26T06:29:05Z</time>
<desc>lat.=22.036554, lon.=104.002052, Alt.=489.097900m. Speed=0.288000m/h.</desc>
<speed>0.080000</speed>
</trkpt>
<trkpt lat="22.036552" lon="104.002045">
<ele>488.722900</ele>
<time>2011-04-26T06:29:10Z</time>
<desc>lat.=22.036552, lon.=104.002045, Alt.=488.722900m. Speed=0.360000m/h.</desc>
<speed>0.100000</speed>
</trkpt>
<trkpt lat="22.036551" lon="104.002045">
<ele>488.340088</ele>
<time>2011-04-26T06:29:15Z</time>
<desc>lat.=22.036551, lon.=104.002045, Alt.=488.340088m. Speed=0.108000m/h.</desc>
<speed>0.030000</speed>
</trkpt>
<trkpt lat="22.036552" lon="104.002045">
<ele>487.965088</ele>
<time>2011-04-26T06:29:20Z</time>
<desc>lat.=22.036552, lon.=104.002045, Alt.=487.965088m. Speed=0.144000m/h.</desc>
<speed>0.040000</speed>
</trkpt>
<trkpt lat="22.036552" lon="104.002045">
<ele>487.590088</ele>
<time>2011-04-26T06:29:25Z</time>
<desc>lat.=22.036552, lon.=104.002045, Alt.=487.590088m. Speed=0.072000m/h.</desc>
<speed>0.020000</speed>
</trkpt>
<trkpt lat="22.036552" lon="104.002037">
<ele>487.222900</ele>
<time>2011-04-26T06:29:30Z</time>
<desc>lat.=22.036552, lon.=104.002037, Alt.=487.222900m. Speed=0.288000m/h.</desc>
<speed>0.080000</speed>
</trkpt>
<trkpt lat="22.036545" lon="104.002037">
<ele>486.855713</ele>
<time>2011-04-26T06:29:35Z</time>
<desc>lat.=22.036545, lon.=104.002037, Alt.=486.855713m. Speed=0.648000m/h.</desc>
<speed>0.180000</speed>
</trkpt>
<trkpt lat="22.036535" lon="104.002037">
<ele>486.488525</ele>
<time>2011-04-26T06:29:40Z</time>
<desc>lat.=22.036535, lon.=104.002037, Alt.=486.488525m. Speed=0.792000m/h.</desc>
<speed>0.220000</speed>
</trkpt>
<trkpt lat="22.036530" lon="104.002037">
<ele>486.129150</ele>
<time>2011-04-26T06:29:45Z</time>
<desc>lat.=22.036530, lon.=104.002037, Alt.=486.129150m. Speed=0.324000m/h.</desc>
<speed>0.090000</speed>
</trkpt>
<trkpt lat="22.036526" lon="104.002037">
<ele>485.761963</ele>
<time>2011-04-26T06:29:50Z</time>
<desc>lat.=22.036526, lon.=104.002037, Alt.=485.761963m. Speed=0.432000m/h.</desc>
<speed>0.120000</speed>
</trkpt>
<trkpt lat="22.036524" lon="104.002029">
<ele>485.394775</ele>
<time>2011-04-26T06:29:55Z</time>
<desc>lat.=22.036524, lon.=104.002029, Alt.=485.394775m. Speed=0.468000m/h.</desc>
<speed>0.130000</speed>
</trkpt>
<trkpt lat="22.036524" lon="104.002022">
<ele>485.035400</ele>
<time>2011-04-26T06:30:00Z</time>
<desc>lat.=22.036524, lon.=104.002022, Alt.=485.035400m. Speed=0.648000m/h.</desc>
<speed>0.180000</speed>
</trkpt>
<trkpt lat="22.036528" lon="104.002014">
<ele>484.668213</ele>
<time>2011-04-26T06:30:05Z</time>
<desc>lat.=22.036528, lon.=104.002014, Alt.=484.668213m. Speed=0.612000m/h.</desc>
<speed>0.170000</speed>
</trkpt>
<trkpt lat="22.036533" lon="104.002007">
<ele>484.308838</ele>
<time>2011-04-26T06:30:10Z</time>
<desc>lat.=22.036533, lon.=104.002007, Alt.=484.308838m. Speed=0.684000m/h.</desc>
<speed>0.190000</speed>
</trkpt>
<trkpt lat="22.036537" lon="104.002007">
<ele>483.949463</ele>
<time>2011-04-26T06:30:15Z</time>
<desc>lat.=22.036537, lon.=104.002007, Alt.=483.949463m. Speed=0.324000m/h.</desc>
<speed>0.090000</speed>
</trkpt>
<trkpt lat="22.036541" lon="104.001999">
<ele>483.597900</ele>
<time>2011-04-26T06:30:20Z</time>
<desc>lat.=22.036541, lon.=104.001999, Alt.=483.597900m. Speed=0.468000m/h.</desc>
<speed>0.130000</speed>
</trkpt>
<trkpt lat="22.036549" lon="104.001999">
<ele>483.246338</ele>
<time>2011-04-26T06:30:25Z</time>
<desc>lat.=22.036549, lon.=104.001999, Alt.=483.246338m. Speed=0.576000m/h.</desc>
<speed>0.160000</speed>
</trkpt>
<trkpt lat="22.036554" lon="104.001991">
<ele>482.902588</ele>
<time>2011-04-26T06:30:30Z</time>
<desc>lat.=22.036554, lon.=104.001991, Alt.=482.902588m. Speed=0.612000m/h.</desc>
<speed>0.170000</speed>
</trkpt>
<trkpt lat="22.036564" lon="104.001991">
<ele>482.566650</ele>
<time>2011-04-26T06:30:35Z</time>
<desc>lat.=22.036564, lon.=104.001991, Alt.=482.566650m. Speed=0.684000m/h.</desc>
<speed>0.190000</speed>
</trkpt>
<trkpt lat="22.036572" lon="104.001991">
<ele>482.222900</ele>
<time>2011-04-26T06:30:40Z</time>
<desc>lat.=22.036572, lon.=104.001991, Alt.=482.222900m. Speed=0.684000m/h.</desc>
<speed>0.190000</speed>
</trkpt>
<trkpt lat="22.036577" lon="104.001991">
<ele>481.886963</ele>
<time>2011-04-26T06:30:45Z</time>
<desc>lat.=22.036577, lon.=104.001991, Alt.=481.886963m. Speed=0.288000m/h.</desc>
<speed>0.080000</speed>
</trkpt>
<trkpt lat="22.036579" lon="104.001991">
<ele>481.551025</ele>
<time>2011-04-26T06:30:50Z</time>
<desc>lat.=22.036579, lon.=104.001991, Alt.=481.551025m. Speed=0.000000m/h.</desc>
<speed>0.000000</speed>
</trkpt>
<trkpt lat="22.036579" lon="104.001991">
<ele>481.222900</ele>
<time>2011-04-26T06:30:55Z</time>
<desc>lat.=22.036579, lon.=104.001991, Alt.=481.222900m. Speed=0.072000m/h.</desc>
<speed>0.020000</speed>
</trkpt>
<trkpt lat="22.036579" lon="104.001991">
<ele>480.886963</ele>
<time>2011-04-26T06:31:00Z</time>
<desc>lat.=22.036579, lon.=104.001991, Alt.=480.886963m. Speed=0.036000m/h.</desc>
<speed>0.010000</speed>
</trkpt>
<trkpt lat="22.036577" lon="104.001991">
<ele>480.551025</ele>
<time>2011-04-26T06:31:05Z</time>
<desc>lat.=22.036577, lon.=104.001991, Alt.=480.551025m. Speed=0.288000m/h.</desc>
<speed>0.080000</speed>
</trkpt>
<trkpt lat="22.036572" lon="104.001991">
<ele>480.222900</ele>
<time>2011-04-26T06:31:10Z</time>
<desc>lat.=22.036572, lon.=104.001991, Alt.=480.222900m. Speed=0.360000m/h.</desc>
<speed>0.100000</speed>
</trkpt>
<trkpt lat="22.036568" lon="104.001991">
<ele>479.894775</ele>
<time>2011-04-26T06:31:15Z</time>
<desc>lat.=22.036568, lon.=104.001991, Alt.=479.894775m. Speed=0.360000m/h.</desc>
<speed>0.100000</speed>
</trkpt>
<trkpt lat="22.036562" lon="104.001991">
<ele>479.574463</ele>
<time>2011-04-26T06:31:20Z</time>
<desc>lat.=22.036562, lon.=104.001991, Alt.=479.574463m. Speed=0.756000m/h.</desc>
<speed>0.210000</speed>
</trkpt>
<trkpt lat="22.036552" lon="104.001984">
<ele>479.246338</ele>
<time>2011-04-26T06:31:25Z</time>
<desc>lat.=22.036552, lon.=104.001984, Alt.=479.246338m. Speed=0.648000m/h.</desc>
<speed>0.180000</speed>
</trkpt>
<trkpt lat="22.036545" lon="104.001984">
<ele>478.926025</ele>
<time>2011-04-26T06:31:30Z</time>
<desc>lat.=22.036545, lon.=104.001984, Alt.=478.926025m. Speed=0.576000m/h.</desc>
<speed>0.160000</speed>
</trkpt>
<trkpt lat="22.036541" lon="104.001984">
<ele>478.613525</ele>
<time>2011-04-26T06:31:35Z</time>
<desc>lat.=22.036541, lon.=104.001984, Alt.=478.613525m. Speed=0.216000m/h.</desc>
<speed>0.060000</speed>
</trkpt>
<trkpt lat="22.036541" lon="104.001976">
<ele>478.301025</ele>
<time>2011-04-26T06:31:40Z</time>
<desc>lat.=22.036541, lon.=104.001976, Alt.=478.301025m. Speed=0.144000m/h.</desc>
<speed>0.040000</speed>
</trkpt>
<trkpt lat="22.036539" lon="104.001984">
<ele>477.988525</ele>
<time>2011-04-26T06:31:45Z</time>
<desc>lat.=22.036539, lon.=104.001984, Alt.=477.988525m. Speed=0.144000m/h.</desc>
<speed>0.040000</speed>
</trkpt>
<trkpt lat="22.036537" lon="104.001984">
<ele>477.676025</ele>
<time>2011-04-26T06:31:50Z</time>
<desc>lat.=22.036537, lon.=104.001984, Alt.=477.676025m. Speed=0.252000m/h.</desc>
<speed>0.070000</speed>
</trkpt>
<trkpt lat="22.036537" lon="104.001984">
<ele>477.363525</ele>
<time>2011-04-26T06:31:55Z</time>
<desc>lat.=22.036537, lon.=104.001984, Alt.=477.363525m. Speed=0.216000m/h.</desc>
<speed>0.060000</speed>
</trkpt>
<trkpt lat="22.036541" lon="104.001984">
<ele>477.051025</ele>
<time>2011-04-26T06:32:00Z</time>
<desc>lat.=22.036541, lon.=104.001984, Alt.=477.051025m. Speed=0.504000m/h.</desc>
<speed>0.140000</speed>
</trkpt>
<trkpt lat="22.036547" lon="104.001984">
<ele>476.746338</ele>
<time>2011-04-26T06:32:05Z</time>
<desc>lat.=22.036547, lon.=104.001984, Alt.=476.746338m. Speed=0.432000m/h.</desc>
<speed>0.120000</speed>
</trkpt>
<trkpt lat="22.036552" lon="104.001984">
<ele>476.441650</ele>
<time>2011-04-26T06:32:10Z</time>
<desc>lat.=22.036552, lon.=104.001984, Alt.=476.441650m. Speed=0.432000m/h.</desc>
<speed>0.120000</speed>
</trkpt>
<trkpt lat="22.036560" lon="104.001984">
<ele>476.136963</ele>
<time>2011-04-26T06:32:15Z</time>
<desc>lat.=22.036560, lon.=104.001984, Alt.=476.136963m. Speed=0.684000m/h.</desc>
<speed>0.190000</speed>
</trkpt>
<trkpt lat="22.036570" lon="104.001976">
<ele>475.832275</ele>
<time>2011-04-26T06:32:20Z</time>
<desc>lat.=22.036570, lon.=104.001976, Alt.=475.832275m. Speed=0.684000m/h.</desc>
<speed>0.190000</speed>
</trkpt>
<trkpt lat="22.036575" lon="104.001976">
<ele>475.535400</ele>
<time>2011-04-26T06:32:25Z</time>
<desc>lat.=22.036575, lon.=104.001976, Alt.=475.535400m. Speed=0.144000m/h.</desc>
<speed>0.040000</speed>
</trkpt>
<trkpt lat="22.036575" lon="104.001976">
<ele>475.230713</ele>
<time>2011-04-26T06:32:30Z</time>
<desc>lat.=22.036575, lon.=104.001976, Alt.=475.230713m. Speed=0.072000m/h.</desc>
<speed>0.020000</speed>
</trkpt>
<trkpt lat="22.036572" lon="104.001976">
<ele>474.933838</ele>
<time>2011-04-26T06:32:35Z</time>
<desc>lat.=22.036572, lon.=104.001976, Alt.=474.933838m. Speed=0.288000m/h.</desc>
<speed>0.080000</speed>
</trkpt>
<trkpt lat="22.036570" lon="104.001976">
<ele>474.636963</ele>
<time>2011-04-26T06:32:40Z</time>
<desc>lat.=22.036570, lon.=104.001976, Alt.=474.636963m. Speed=0.288000m/h.</desc>
<speed>0.080000</speed>
</trkpt>
<trkpt lat="22.036564" lon="104.001976">
<ele>474.347900</ele>
<time>2011-04-26T06:32:45Z</time>
<desc>lat.=22.036564, lon.=104.001976, Alt.=474.347900m. Speed=0.468000m/h.</desc>
<speed>0.130000</speed>
</trkpt>
<trkpt lat="22.036558" lon="104.001976">
<ele>474.058838</ele>
<time>2011-04-26T06:32:50Z</time>
<desc>lat.=22.036558, lon.=104.001976, Alt.=474.058838m. Speed=0.576000m/h.</desc>
<speed>0.160000</speed>
</trkpt>
<trkpt lat="22.036552" lon="104.001968">
<ele>473.761963</ele>
<time>2011-04-26T06:32:55Z</time>
<desc>lat.=22.036552, lon.=104.001968, Alt.=473.761963m. Speed=0.684000m/h.</desc>
<speed>0.190000</speed>
</trkpt>
<trkpt lat="22.036543" lon="104.001961">
<ele>473.472900</ele>
<time>2011-04-26T06:33:00Z</time>
<desc>lat.=22.036543, lon.=104.001961, Alt.=473.472900m. Speed=0.720000m/h.</desc>
<speed>0.200000</speed>
</trkpt>
<trkpt lat="22.036531" lon="104.001961">
<ele>473.191650</ele>
<time>2011-04-26T06:33:05Z</time>
<desc>lat.=22.036531, lon.=104.001961, Alt.=473.191650m. Speed=1.044000m/h.</desc>
<speed>0.290000</speed>
</trkpt>
<trkpt lat="22.036514" lon="104.001991">
<ele>473.199463</ele>
<time>2011-04-26T06:33:10Z</time>
<desc>lat.=22.036514, lon.=104.001991, Alt.=473.199463m. Speed=1.116000m/h.</desc>
<speed>0.310000</speed>
</trkpt>
<trkpt lat="22.036512" lon="104.002007">
<ele>473.269775</ele>
<time>2011-04-26T06:33:15Z</time>
<desc>lat.=22.036512, lon.=104.002007, Alt.=473.269775m. Speed=1.008000m/h.</desc>
<speed>0.280000</speed>
</trkpt>
<trkpt lat="22.036535" lon="104.001999">
<ele>472.402588</ele>
<time>2011-04-26T06:33:20Z</time>
<desc>lat.=22.036535, lon.=104.001999, Alt.=472.402588m. Speed=0.072000m/h.</desc>
<speed>0.020000</speed>
</trkpt>
<trkpt lat="22.036537" lon="104.001999">
<ele>472.129150</ele>
<time>2011-04-26T06:33:25Z</time>
<desc>lat.=22.036537, lon.=104.001999, Alt.=472.129150m. Speed=0.216000m/h.</desc>
<speed>0.060000</speed>
</trkpt>
<trkpt lat="22.036539" lon="104.001991">
<ele>471.855713</ele>
<time>2011-04-26T06:33:30Z</time>
<desc>lat.=22.036539, lon.=104.001991, Alt.=471.855713m. Speed=0.252000m/h.</desc>
<speed>0.070000</speed>
</trkpt>
<trkpt lat="22.036539" lon="104.001991">
<ele>471.582275</ele>
<time>2011-04-26T06:33:35Z</time>
<desc>lat.=22.036539, lon.=104.001991, Alt.=471.582275m. Speed=0.252000m/h.</desc>
<speed>0.070000</speed>
</trkpt>
<trkpt lat="22.036537" lon="104.001984">
<ele>471.363525</ele>
<time>2011-04-26T06:33:40Z</time>
<desc>lat.=22.036537, lon.=104.001984, Alt.=471.363525m. Speed=1.080000m/h.</desc>
<speed>0.300000</speed>
</trkpt>
<trkpt lat="22.036577" lon="104.001915">
<ele>473.996338</ele>
<time>2011-04-26T06:33:45Z</time>
<desc>lat.=22.036577, lon.=104.001915, Alt.=473.996338m. Speed=1.692000m/h.</desc>
<speed>0.470000</speed>
</trkpt>
<trkpt lat="22.036573" lon="104.001877">
<ele>475.066650</ele>
<time>2011-04-26T06:33:50Z</time>
<desc>lat.=22.036573, lon.=104.001877, Alt.=475.066650m. Speed=1.656000m/h.</desc>
<speed>0.460000</speed>
</trkpt>
<trkpt lat="22.036562" lon="104.001869">
<ele>475.488525</ele>
<time>2011-04-26T06:33:55Z</time>
<desc>lat.=22.036562, lon.=104.001869, Alt.=475.488525m. Speed=1.044000m/h.</desc>
<speed>0.290000</speed>
</trkpt>
<trkpt lat="22.036558" lon="104.001862">
<ele>475.566650</ele>
<time>2011-04-26T06:34:00Z</time>
<desc>lat.=22.036558, lon.=104.001862, Alt.=475.566650m. Speed=0.828000m/h.</desc>
<speed>0.230000</speed>
</trkpt>
<trkpt lat="22.036556" lon="104.001854">
<ele>475.308838</ele>
<time>2011-04-26T06:34:05Z</time>
<desc>lat.=22.036556, lon.=104.001854, Alt.=475.308838m. Speed=0.396000m/h.</desc>
<speed>0.110000</speed>
</trkpt>
<trkpt lat="22.036556" lon="104.001854">
<ele>475.058838</ele>
<time>2011-04-26T06:34:10Z</time>
<desc>lat.=22.036556, lon.=104.001854, Alt.=475.058838m. Speed=0.036000m/h.</desc>
<speed>0.010000</speed>
</trkpt>
<trkpt lat="22.036558" lon="104.001854">
<ele>474.793213</ele>
<time>2011-04-26T06:34:15Z</time>
<desc>lat.=22.036558, lon.=104.001854, Alt.=474.793213m. Speed=0.504000m/h.</desc>
<speed>0.140000</speed>
</trkpt>
<trkpt lat="22.036566" lon="104.001862">
<ele>474.551025</ele>
<time>2011-04-26T06:34:20Z</time>
<desc>lat.=22.036566, lon.=104.001862, Alt.=474.551025m. Speed=0.900000m/h.</desc>
<speed>0.250000</speed>
</trkpt>
<trkpt lat="22.036573" lon="104.001869">
<ele>474.308838</ele>
<time>2011-04-26T06:34:25Z</time>
<desc>lat.=22.036573, lon.=104.001869, Alt.=474.308838m. Speed=0.648000m/h.</desc>
<speed>0.180000</speed>
</trkpt>
<trkpt lat="22.036581" lon="104.001869">
<ele>474.105713</ele>
<time>2011-04-26T06:34:30Z</time>
<desc>lat.=22.036581, lon.=104.001869, Alt.=474.105713m. Speed=1.368000m/h.</desc>
<speed>0.380000</speed>
</trkpt>
<trkpt lat="22.036644" lon="104.001953">
<ele>478.332275</ele>
<time>2011-04-26T06:34:35Z</time>
<desc>lat.=22.036644, lon.=104.001953, Alt.=478.332275m. Speed=1.800000m/h.</desc>
<speed>0.500000</speed>
</trkpt>
<trkpt lat="22.036634" lon="104.001953">
<ele>481.949463</ele>
<time>2011-04-26T06:34:40Z</time>
<desc>lat.=22.036634, lon.=104.001953, Alt.=481.949463m. Speed=0.900000m/h.</desc>
<speed>0.250000</speed>
</trkpt>
<trkpt lat="22.036615" lon="104.001938">
<ele>483.160400</ele>
<time>2011-04-26T06:34:45Z</time>
<desc>lat.=22.036615, lon.=104.001938, Alt.=483.160400m. Speed=0.108000m/h.</desc>
<speed>0.030000</speed>
</trkpt>
<trkpt lat="22.036613" lon="104.001938">
<ele>483.019775</ele>
<time>2011-04-26T06:34:50Z</time>
<desc>lat.=22.036613, lon.=104.001938, Alt.=483.019775m. Speed=0.216000m/h.</desc>
<speed>0.060000</speed>
</trkpt>
<trkpt lat="22.036612" lon="104.001938">
<ele>482.863525</ele>
<time>2011-04-26T06:34:55Z</time>
<desc>lat.=22.036612, lon.=104.001938, Alt.=482.863525m. Speed=0.144000m/h.</desc>
<speed>0.040000</speed>
</trkpt>
<trkpt lat="22.036610" lon="104.001945">
<ele>482.683838</ele>
<time>2011-04-26T06:35:00Z</time>
<desc>lat.=22.036610, lon.=104.001945, Alt.=482.683838m. Speed=0.252000m/h.</desc>
<speed>0.070000</speed>
</trkpt>
<trkpt lat="22.036610" lon="104.001945">
<ele>482.511963</ele>
<time>2011-04-26T06:35:05Z</time>
<desc>lat.=22.036610, lon.=104.001945, Alt.=482.511963m. Speed=0.432000m/h.</desc>
<speed>0.120000</speed>
</trkpt>
<trkpt lat="22.036600" lon="104.001953">
<ele>482.324463</ele>
<time>2011-04-26T06:35:10Z</time>
<desc>lat.=22.036600, lon.=104.001953, Alt.=482.324463m. Speed=0.792000m/h.</desc>
<speed>0.220000</speed>
</trkpt>
<trkpt lat="22.036591" lon="104.001953">
<ele>482.144775</ele>
<time>2011-04-26T06:35:15Z</time>
<desc>lat.=22.036591, lon.=104.001953, Alt.=482.144775m. Speed=0.720000m/h.</desc>
<speed>0.200000</speed>
</trkpt>
<trkpt lat="22.036570" lon="104.001953">
<ele>483.254150</ele>
<time>2011-04-26T06:35:20Z</time>
<desc>lat.=22.036570, lon.=104.001953, Alt.=483.254150m. Speed=1.332000m/h.</desc>
<speed>0.370000</speed>
</trkpt>
<trkpt lat="22.036543" lon="104.001938">
<ele>486.761963</ele>
<time>2011-04-26T06:35:25Z</time>
<desc>lat.=22.036543, lon.=104.001938, Alt.=486.761963m. Speed=1.008000m/h.</desc>
<speed>0.280000</speed>
</trkpt>
<trkpt lat="22.036533" lon="104.001930">
<ele>488.129150</ele>
<time>2011-04-26T06:35:30Z</time>
<desc>lat.=22.036533, lon.=104.001930, Alt.=488.129150m. Speed=0.684000m/h.</desc>
<speed>0.190000</speed>
</trkpt>
<trkpt lat="22.036530" lon="104.001923">
<ele>488.199463</ele>
<time>2011-04-26T06:35:35Z</time>
<desc>lat.=22.036530, lon.=104.001923, Alt.=488.199463m. Speed=0.324000m/h.</desc>
<speed>0.090000</speed>
</trkpt>
<trkpt lat="22.036526" lon="104.001923">
<ele>488.293213</ele>
<time>2011-04-26T06:35:40Z</time>
<desc>lat.=22.036526, lon.=104.001923, Alt.=488.293213m. Speed=0.324000m/h.</desc>
<speed>0.090000</speed>
</trkpt>
<trkpt lat="22.036524" lon="104.001915">
<ele>488.394775</ele>
<time>2011-04-26T06:35:45Z</time>
<desc>lat.=22.036524, lon.=104.001915, Alt.=488.394775m. Speed=0.108000m/h.</desc>
<speed>0.030000</speed>
</trkpt>
<trkpt lat="22.036524" lon="104.001915">
<ele>488.496338</ele>
<time>2011-04-26T06:35:50Z</time>
<desc>lat.=22.036524, lon.=104.001915, Alt.=488.496338m. Speed=0.144000m/h.</desc>
<speed>0.040000</speed>
</trkpt>
<trkpt lat="22.036524" lon="104.001915">
<ele>488.597900</ele>
<time>2011-04-26T06:35:55Z</time>
<desc>lat.=22.036524, lon.=104.001915, Alt.=488.597900m. Speed=0.144000m/h.</desc>
<speed>0.040000</speed>
</trkpt>
<trkpt lat="22.036524" lon="104.001923">
<ele>488.691650</ele>
<time>2011-04-26T06:36:00Z</time>
<desc>lat.=22.036524, lon.=104.001923, Alt.=488.691650m. Speed=0.000000m/h.</desc>
<speed>0.000000</speed>
</trkpt>
<trkpt lat="22.036526" lon="104.001923">
<ele>488.785400</ele>
<time>2011-04-26T06:36:05Z</time>
<desc>lat.=22.036526, lon.=104.001923, Alt.=488.785400m. Speed=0.288000m/h.</desc>
<speed>0.080000</speed>
</trkpt>
<trkpt lat="22.036528" lon="104.001923">
<ele>488.886963</ele>
<time>2011-04-26T06:36:10Z</time>
<desc>lat.=22.036528, lon.=104.001923, Alt.=488.886963m. Speed=0.360000m/h.</desc>
<speed>0.100000</speed>
</trkpt>
<trkpt lat="22.036533" lon="104.001938">
<ele>488.988525</ele>
<time>2011-04-26T06:36:15Z</time>
<desc>lat.=22.036533, lon.=104.001938, Alt.=488.988525m. Speed=1.044000m/h.</desc>
<speed>0.290000</speed>
</trkpt>
<trkpt lat="22.036551" lon="104.001961">
<ele>490.082275</ele>
<time>2011-04-26T06:36:20Z</time>
<desc>lat.=22.036551, lon.=104.001961, Alt.=490.082275m. Speed=1.188000m/h.</desc>
<speed>0.330000</speed>
</trkpt>
<trkpt lat="22.036554" lon="104.001968">
<ele>491.347900</ele>
<time>2011-04-26T06:36:25Z</time>
<desc>lat.=22.036554, lon.=104.001968, Alt.=491.347900m. Speed=0.864000m/h.</desc>
<speed>0.240000</speed>
</trkpt>
<trkpt lat="22.036560" lon="104.001976">
<ele>491.480713</ele>
<time>2011-04-26T06:36:30Z</time>
<desc>lat.=22.036560, lon.=104.001976, Alt.=491.480713m. Speed=0.468000m/h.</desc>
<speed>0.130000</speed>
</trkpt>
<trkpt lat="22.036562" lon="104.001984">
<ele>491.597900</ele>
<time>2011-04-26T06:36:35Z</time>
<desc>lat.=22.036562, lon.=104.001984, Alt.=491.597900m. Speed=0.036000m/h.</desc>
<speed>0.010000</speed>
</trkpt>
<trkpt lat="22.036558" lon="104.001976">
<ele>491.730713</ele>
<time>2011-04-26T06:36:40Z</time>
<desc>lat.=22.036558, lon.=104.001976, Alt.=491.730713m. Speed=0.468000m/h.</desc>
<speed>0.130000</speed>
</trkpt>
<trkpt lat="22.036552" lon="104.001976">
<ele>491.886963</ele>
<time>2011-04-26T06:36:45Z</time>
<desc>lat.=22.036552, lon.=104.001976, Alt.=491.886963m. Speed=0.396000m/h.</desc>
<speed>0.110000</speed>
</trkpt>
<trkpt lat="22.036549" lon="104.001968">
<ele>492.074463</ele>
<time>2011-04-26T06:36:50Z</time>
<desc>lat.=22.036549, lon.=104.001968, Alt.=492.074463m. Speed=0.252000m/h.</desc>
<speed>0.070000</speed>
</trkpt>
<trkpt lat="22.036549" lon="104.001968">
<ele>492.277588</ele>
<time>2011-04-26T06:36:55Z</time>
<desc>lat.=22.036549, lon.=104.001968, Alt.=492.277588m. Speed=0.108000m/h.</desc>
<speed>0.030000</speed>
</trkpt>
<trkpt lat="22.036547" lon="104.001976">
<ele>492.496338</ele>
<time>2011-04-26T06:37:00Z</time>
<desc>lat.=22.036547, lon.=104.001976, Alt.=492.496338m. Speed=0.072000m/h.</desc>
<speed>0.020000</speed>
</trkpt>
<trkpt lat="22.036547" lon="104.001976">
<ele>492.722900</ele>
<time>2011-04-26T06:37:05Z</time>
<desc>lat.=22.036547, lon.=104.001976, Alt.=492.722900m. Speed=0.072000m/h.</desc>
<speed>0.020000</speed>
</trkpt>
<trkpt lat="22.036545" lon="104.001976">
<ele>492.933838</ele>
<time>2011-04-26T06:37:10Z</time>
<desc>lat.=22.036545, lon.=104.001976, Alt.=492.933838m. Speed=0.216000m/h.</desc>
<speed>0.060000</speed>
</trkpt>
<trkpt lat="22.036545" lon="104.001976">
<ele>493.160400</ele>
<time>2011-04-26T06:37:15Z</time>
<desc>lat.=22.036545, lon.=104.001976, Alt.=493.160400m. Speed=0.144000m/h.</desc>
<speed>0.040000</speed>
</trkpt>
<trkpt lat="22.036543" lon="104.001976">
<ele>493.386963</ele>
<time>2011-04-26T06:37:20Z</time>
<desc>lat.=22.036543, lon.=104.001976, Alt.=493.386963m. Speed=0.144000m/h.</desc>
<speed>0.040000</speed>
</trkpt>
<trkpt lat="22.036541" lon="104.001976">
<ele>493.621338</ele>
<time>2011-04-26T06:37:25Z</time>
<desc>lat.=22.036541, lon.=104.001976, Alt.=493.621338m. Speed=0.144000m/h.</desc>
<speed>0.040000</speed>
</trkpt>
<trkpt lat="22.036537" lon="104.001976">
<ele>493.824463</ele>
<time>2011-04-26T06:37:30Z</time>
<desc>lat.=22.036537, lon.=104.001976, Alt.=493.824463m. Speed=0.324000m/h.</desc>
<speed>0.090000</speed>
</trkpt>
<trkpt lat="22.036535" lon="104.001976">
<ele>494.043213</ele>
<time>2011-04-26T06:37:35Z</time>
<desc>lat.=22.036535, lon.=104.001976, Alt.=494.043213m. Speed=0.000000m/h.</desc>
<speed>0.000000</speed>
</trkpt>
<trkpt lat="22.036533" lon="104.001976">
<ele>494.285400</ele>
<time>2011-04-26T06:37:40Z</time>
<desc>lat.=22.036533, lon.=104.001976, Alt.=494.285400m. Speed=0.144000m/h.</desc>
<speed>0.040000</speed>
</trkpt>
<trkpt lat="22.036533" lon="104.001976">
<ele>494.566650</ele>
<time>2011-04-26T06:37:45Z</time>
<desc>lat.=22.036533, lon.=104.001976, Alt.=494.566650m. Speed=0.036000m/h.</desc>
<speed>0.010000</speed>
</trkpt>
<trkpt lat="22.036535" lon="104.001976">
<ele>494.871338</ele>
<time>2011-04-26T06:37:50Z</time>
<desc>lat.=22.036535, lon.=104.001976, Alt.=494.871338m. Speed=0.036000m/h.</desc>
<speed>0.010000</speed>
</trkpt>
<trkpt lat="22.036535" lon="104.001976">
<ele>495.199463</ele>
<time>2011-04-26T06:37:55Z</time>
<desc>lat.=22.036535, lon.=104.001976, Alt.=495.199463m. Speed=0.108000m/h.</desc>
<speed>0.030000</speed>
</trkpt>
<trkpt lat="22.036535" lon="104.001976">
<ele>495.543213</ele>
<time>2011-04-26T06:38:00Z</time>
<desc>lat.=22.036535, lon.=104.001976, Alt.=495.543213m. Speed=0.072000m/h.</desc>
<speed>0.020000</speed>
</trkpt>
<trkpt lat="22.036535" lon="104.001984">
<ele>495.933838</ele>
<time>2011-04-26T06:38:05Z</time>
<desc>lat.=22.036535, lon.=104.001984, Alt.=495.933838m. Speed=0.216000m/h.</desc>
<speed>0.060000</speed>
</trkpt>
<trkpt lat="22.036535" lon="104.001984">
<ele>496.371338</ele>
<time>2011-04-26T06:38:10Z</time>
<desc>lat.=22.036535, lon.=104.001984, Alt.=496.371338m. Speed=0.180000m/h.</desc>
<speed>0.050000</speed>
</trkpt>
<trkpt lat="22.036535" lon="104.001991">
<ele>496.793213</ele>
<time>2011-04-26T06:38:15Z</time>
<desc>lat.=22.036535, lon.=104.001991, Alt.=496.793213m. Speed=0.504000m/h.</desc>
<speed>0.140000</speed>
</trkpt>
<trkpt lat="22.036535" lon="104.001999">
<ele>497.215088</ele>
<time>2011-04-26T06:38:20Z</time>
<desc>lat.=22.036535, lon.=104.001999, Alt.=497.215088m. Speed=0.288000m/h.</desc>
<speed>0.080000</speed>
</trkpt>
<trkpt lat="22.036533" lon="104.001999">
<ele>497.636963</ele>
<time>2011-04-26T06:38:25Z</time>
<desc>lat.=22.036533, lon.=104.001999, Alt.=497.636963m. Speed=0.252000m/h.</desc>
<speed>0.070000</speed>
</trkpt>
<trkpt lat="22.036533" lon="104.001999">
<ele>498.066650</ele>
<time>2011-04-26T06:38:30Z</time>
<desc>lat.=22.036533, lon.=104.001999, Alt.=498.066650m. Speed=0.288000m/h.</desc>
<speed>0.080000</speed>
</trkpt>
<trkpt lat="22.036531" lon="104.002007">
<ele>498.519775</ele>
<time>2011-04-26T06:38:35Z</time>
<desc>lat.=22.036531, lon.=104.002007, Alt.=498.519775m. Speed=0.288000m/h.</desc>
<speed>0.080000</speed>
</trkpt>
<trkpt lat="22.036531" lon="104.002014">
<ele>498.972900</ele>
<time>2011-04-26T06:38:40Z</time>
<desc>lat.=22.036531, lon.=104.002014, Alt.=498.972900m. Speed=0.324000m/h.</desc>
<speed>0.090000</speed>
</trkpt>
<trkpt lat="22.036530" lon="104.002014">
<ele>499.426025</ele>
<time>2011-04-26T06:38:45Z</time>
<desc>lat.=22.036530, lon.=104.002014, Alt.=499.426025m. Speed=0.360000m/h.</desc>
<speed>0.100000</speed>
</trkpt>
<trkpt lat="22.036528" lon="104.002022">
<ele>499.871338</ele>
<time>2011-04-26T06:38:50Z</time>
<desc>lat.=22.036528, lon.=104.002022, Alt.=499.871338m. Speed=0.216000m/h.</desc>
<speed>0.060000</speed>
</trkpt>
<trkpt lat="22.036528" lon="104.002022">
<ele>500.308838</ele>
<time>2011-04-26T06:38:55Z</time>
<desc>lat.=22.036528, lon.=104.002022, Alt.=500.308838m. Speed=0.324000m/h.</desc>
<speed>0.090000</speed>
</trkpt>
<trkpt lat="22.036526" lon="104.002029">
<ele>500.754150</ele>
<time>2011-04-26T06:39:00Z</time>
<desc>lat.=22.036526, lon.=104.002029, Alt.=500.754150m. Speed=0.180000m/h.</desc>
<speed>0.050000</speed>
</trkpt>
<trkpt lat="22.036524" lon="104.002029">
<ele>501.207275</ele>
<time>2011-04-26T06:39:05Z</time>
<desc>lat.=22.036524, lon.=104.002029, Alt.=501.207275m. Speed=0.360000m/h.</desc>
<speed>0.100000</speed>
</trkpt>
<trkpt lat="22.036524" lon="104.002037">
<ele>501.660400</ele>
<time>2011-04-26T06:39:10Z</time>
<desc>lat.=22.036524, lon.=104.002037, Alt.=501.660400m. Speed=0.288000m/h.</desc>
<speed>0.080000</speed>
</trkpt>
<trkpt lat="22.036522" lon="104.002037">
<ele>502.113525</ele>
<time>2011-04-26T06:39:15Z</time>
<desc>lat.=22.036522, lon.=104.002037, Alt.=502.113525m. Speed=0.252000m/h.</desc>
<speed>0.070000</speed>
</trkpt>
<trkpt lat="22.036520" lon="104.002045">
<ele>502.582275</ele>
<time>2011-04-26T06:39:20Z</time>
<desc>lat.=22.036520, lon.=104.002045, Alt.=502.582275m. Speed=0.180000m/h.</desc>
<speed>0.050000</speed>
</trkpt>
<trkpt lat="22.036520" lon="104.002045">
<ele>503.011963</ele>
<time>2011-04-26T06:39:25Z</time>
<desc>lat.=22.036520, lon.=104.002045, Alt.=503.011963m. Speed=0.360000m/h.</desc>
<speed>0.100000</speed>
</trkpt>
<trkpt lat="22.036520" lon="104.002045">
<ele>503.363525</ele>
<time>2011-04-26T06:39:30Z</time>
<desc>lat.=22.036520, lon.=104.002045, Alt.=503.363525m. Speed=0.036000m/h.</desc>
<speed>0.010000</speed>
</trkpt>
<trkpt lat="22.036520" lon="104.002045">
<ele>503.715088</ele>
<time>2011-04-26T06:39:35Z</time>
<desc>lat.=22.036520, lon.=104.002045, Alt.=503.715088m. Speed=0.252000m/h.</desc>
<speed>0.070000</speed>
</trkpt>
<trkpt lat="22.036524" lon="104.002045">
<ele>504.051025</ele>
<time>2011-04-26T06:39:40Z</time>
<desc>lat.=22.036524, lon.=104.002045, Alt.=504.051025m. Speed=0.360000m/h.</desc>
<speed>0.100000</speed>
</trkpt>
<trkpt lat="22.036522" lon="104.002037">
<ele>504.410400</ele>
<time>2011-04-26T06:39:45Z</time>
<desc>lat.=22.036522, lon.=104.002037, Alt.=504.410400m. Speed=0.324000m/h.</desc>
<speed>0.090000</speed>
</trkpt>
<trkpt lat="22.036520" lon="104.002037">
<ele>504.769775</ele>
<time>2011-04-26T06:39:50Z</time>
<desc>lat.=22.036520, lon.=104.002037, Alt.=504.769775m. Speed=0.216000m/h.</desc>
<speed>0.060000</speed>
</trkpt>
<trkpt lat="22.036520" lon="104.002037">
<ele>505.144775</ele>
<time>2011-04-26T06:39:55Z</time>
<desc>lat.=22.036520, lon.=104.002037, Alt.=505.144775m. Speed=0.288000m/h.</desc>
<speed>0.080000</speed>
</trkpt>
<trkpt lat="22.036524" lon="104.002037">
<ele>505.519775</ele>
<time>2011-04-26T06:40:00Z</time>
<desc>lat.=22.036524, lon.=104.002037, Alt.=505.519775m. Speed=0.144000m/h.</desc>
<speed>0.040000</speed>
</trkpt>
<trkpt lat="22.036526" lon="104.002037">
<ele>505.902588</ele>
<time>2011-04-26T06:40:05Z</time>
<desc>lat.=22.036526, lon.=104.002037, Alt.=505.902588m. Speed=0.072000m/h.</desc>
<speed>0.020000</speed>
</trkpt>
<trkpt lat="22.036526" lon="104.002037">
<ele>506.285400</ele>
<time>2011-04-26T06:40:10Z</time>
<desc>lat.=22.036526, lon.=104.002037, Alt.=506.285400m. Speed=0.036000m/h.</desc>
<speed>0.010000</speed>
</trkpt>
<trkpt lat="22.036528" lon="104.002037">
<ele>506.668213</ele>
<time>2011-04-26T06:40:15Z</time>
<desc>lat.=22.036528, lon.=104.002037, Alt.=506.668213m. Speed=0.108000m/h.</desc>
<speed>0.030000</speed>
</trkpt>
<trkpt lat="22.036528" lon="104.002037">
<ele>507.043213</ele>
<time>2011-04-26T06:40:20Z</time>
<desc>lat.=22.036528, lon.=104.002037, Alt.=507.043213m. Speed=0.036000m/h.</desc>
<speed>0.010000</speed>
</trkpt>
<trkpt lat="22.036528" lon="104.002037">
<ele>507.426025</ele>
<time>2011-04-26T06:40:25Z</time>
<desc>lat.=22.036528, lon.=104.002037, Alt.=507.426025m. Speed=0.036000m/h.</desc>
<speed>0.010000</speed>
</trkpt>
<trkpt lat="22.036528" lon="104.002037">
<ele>507.816650</ele>
<time>2011-04-26T06:40:30Z</time>
<desc>lat.=22.036528, lon.=104.002037, Alt.=507.816650m. Speed=0.144000m/h.</desc>
<speed>0.040000</speed>
</trkpt>
<trkpt lat="22.036530" lon="104.002037">
<ele>508.222900</ele>
<time>2011-04-26T06:40:35Z</time>
<desc>lat.=22.036530, lon.=104.002037, Alt.=508.222900m. Speed=0.108000m/h.</desc>
<speed>0.030000</speed>
</trkpt>
<trkpt lat="22.036530" lon="104.002037">
<ele>508.629150</ele>
<time>2011-04-26T06:40:40Z</time>
<desc>lat.=22.036530, lon.=104.002037, Alt.=508.629150m. Speed=0.216000m/h.</desc>
<speed>0.060000</speed>
</trkpt>
<trkpt lat="22.036531" lon="104.002037">
<ele>509.043213</ele>
<time>2011-04-26T06:40:45Z</time>
<desc>lat.=22.036531, lon.=104.002037, Alt.=509.043213m. Speed=0.072000m/h.</desc>
<speed>0.020000</speed>
</trkpt>
<trkpt lat="22.036530" lon="104.002045">
<ele>509.457275</ele>
<time>2011-04-26T06:40:50Z</time>
<desc>lat.=22.036530, lon.=104.002045, Alt.=509.457275m. Speed=0.432000m/h.</desc>
<speed>0.120000</speed>
</trkpt>
<trkpt lat="22.036524" lon="104.002045">
<ele>509.863525</ele>
<time>2011-04-26T06:40:55Z</time>
<desc>lat.=22.036524, lon.=104.002045, Alt.=509.863525m. Speed=0.324000m/h.</desc>
<speed>0.090000</speed>
</trkpt>
<trkpt lat="22.036522" lon="104.002045">
<ele>510.277588</ele>
<time>2011-04-26T06:41:00Z</time>
<desc>lat.=22.036522, lon.=104.002045, Alt.=510.277588m. Speed=0.432000m/h.</desc>
<speed>0.120000</speed>
</trkpt>
<trkpt lat="22.036526" lon="104.002037">
<ele>510.691650</ele>
<time>2011-04-26T06:41:05Z</time>
<desc>lat.=22.036526, lon.=104.002037, Alt.=510.691650m. Speed=0.108000m/h.</desc>
<speed>0.030000</speed>
</trkpt>
<trkpt lat="22.036526" lon="104.002037">
<ele>511.105713</ele>
<time>2011-04-26T06:41:10Z</time>
<desc>lat.=22.036526, lon.=104.002037, Alt.=511.105713m. Speed=0.144000m/h.</desc>
<speed>0.040000</speed>
</trkpt>
<trkpt lat="22.036524" lon="104.002037">
<ele>511.527588</ele>
<time>2011-04-26T06:41:15Z</time>
<desc>lat.=22.036524, lon.=104.002037, Alt.=511.527588m. Speed=0.180000m/h.</desc>
<speed>0.050000</speed>
</trkpt>
<trkpt lat="22.036524" lon="104.002037">
<ele>511.957275</ele>
<time>2011-04-26T06:41:20Z</time>
<desc>lat.=22.036524, lon.=104.002037, Alt.=511.957275m. Speed=0.216000m/h.</desc>
<speed>0.060000</speed>
</trkpt>
<trkpt lat="22.036520" lon="104.002037">
<ele>512.383301</ele>
<time>2011-04-26T06:41:25Z</time>
<desc>lat.=22.036520, lon.=104.002037, Alt.=512.383301m. Speed=0.396000m/h.</desc>
<speed>0.110000</speed>
</trkpt>
<trkpt lat="22.036510" lon="104.002029">
<ele>512.805176</ele>
<time>2011-04-26T06:41:30Z</time>
<desc>lat.=22.036510, lon.=104.002029, Alt.=512.805176m. Speed=0.936000m/h.</desc>
<speed>0.260000</speed>
</trkpt>
<trkpt lat="22.036501" lon="104.002029">
<ele>513.227051</ele>
<time>2011-04-26T06:41:35Z</time>
<desc>lat.=22.036501, lon.=104.002029, Alt.=513.227051m. Speed=0.972000m/h.</desc>
<speed>0.270000</speed>
</trkpt>
<trkpt lat="22.036488" lon="104.002022">
<ele>513.648926</ele>
<time>2011-04-26T06:41:40Z</time>
<desc>lat.=22.036488, lon.=104.002022, Alt.=513.648926m. Speed=1.116000m/h.</desc>
<speed>0.310000</speed>
</trkpt>
<trkpt lat="22.036486" lon="104.002068">
<ele>513.070801</ele>
<time>2011-04-26T06:41:45Z</time>
<desc>lat.=22.036486, lon.=104.002068, Alt.=513.070801m. Speed=0.864000m/h.</desc>
<speed>0.240000</speed>
</trkpt>
<trkpt lat="22.036474" lon="104.002068">
<ele>512.867676</ele>
<time>2011-04-26T06:41:50Z</time>
<desc>lat.=22.036474, lon.=104.002068, Alt.=512.867676m. Speed=0.612000m/h.</desc>
<speed>0.170000</speed>
</trkpt>
<trkpt lat="22.036467" lon="104.002068">
<ele>513.164551</ele>
<time>2011-04-26T06:41:55Z</time>
<desc>lat.=22.036467, lon.=104.002068, Alt.=513.164551m. Speed=0.360000m/h.</desc>
<speed>0.100000</speed>
</trkpt>
<trkpt lat="22.036463" lon="104.002060">
<ele>513.461426</ele>
<time>2011-04-26T06:42:00Z</time>
<desc>lat.=22.036463, lon.=104.002060, Alt.=513.461426m. Speed=0.792000m/h.</desc>
<speed>0.220000</speed>
</trkpt>
<trkpt lat="22.036463" lon="104.002060">
<ele>513.758301</ele>
<time>2011-04-26T06:42:05Z</time>
<desc>lat.=22.036463, lon.=104.002060, Alt.=513.758301m. Speed=0.612000m/h.</desc>
<speed>0.170000</speed>
</trkpt>
<trkpt lat="22.036472" lon="104.002060">
<ele>514.055176</ele>
<time>2011-04-26T06:42:10Z</time>
<desc>lat.=22.036472, lon.=104.002060, Alt.=514.055176m. Speed=1.044000m/h.</desc>
<speed>0.290000</speed>
</trkpt>
<trkpt lat="22.036484" lon="104.002060">
<ele>514.352051</ele>
<time>2011-04-26T06:42:15Z</time>
<desc>lat.=22.036484, lon.=104.002060, Alt.=514.352051m. Speed=1.404000m/h.</desc>
<speed>0.390000</speed>
</trkpt>
<trkpt lat="22.036524" lon="104.002060">
<ele>515.086426</ele>
<time>2011-04-26T06:42:20Z</time>
<desc>lat.=22.036524, lon.=104.002060, Alt.=515.086426m. Speed=1.512000m/h.</desc>
<speed>0.420000</speed>
</trkpt>
<trkpt lat="22.036528" lon="104.002075">
<ele>515.742676</ele>
<time>2011-04-26T06:42:25Z</time>
<desc>lat.=22.036528, lon.=104.002075, Alt.=515.742676m. Speed=0.288000m/h.</desc>
<speed>0.080000</speed>
</trkpt>
<trkpt lat="22.036526" lon="104.002083">
<ele>516.055176</ele>
<time>2011-04-26T06:42:30Z</time>
<desc>lat.=22.036526, lon.=104.002083, Alt.=516.055176m. Speed=0.252000m/h.</desc>
<speed>0.070000</speed>
</trkpt>
<trkpt lat="22.036526" lon="104.002083">
<ele>516.383301</ele>
<time>2011-04-26T06:42:35Z</time>
<desc>lat.=22.036526, lon.=104.002083, Alt.=516.383301m. Speed=0.360000m/h.</desc>
<speed>0.100000</speed>
</trkpt>
<trkpt lat="22.036526" lon="104.002090">
<ele>516.695801</ele>
<time>2011-04-26T06:42:40Z</time>
<desc>lat.=22.036526, lon.=104.002090, Alt.=516.695801m. Speed=0.216000m/h.</desc>
<speed>0.060000</speed>
</trkpt>
<trkpt lat="22.036526" lon="104.002090">
<ele>517.023926</ele>
<time>2011-04-26T06:42:45Z</time>
<desc>lat.=22.036526, lon.=104.002090, Alt.=517.023926m. Speed=0.324000m/h.</desc>
<speed>0.090000</speed>
</trkpt>
<trkpt lat="22.036531" lon="104.002098">
<ele>517.352051</ele>
<time>2011-04-26T06:42:50Z</time>
<desc>lat.=22.036531, lon.=104.002098, Alt.=517.352051m. Speed=1.368000m/h.</desc>
<speed>0.380000</speed>
</trkpt>
<trkpt lat="22.036623" lon="104.002075">
<ele>517.648926</ele>
<time>2011-04-26T06:42:55Z</time>
<desc>lat.=22.036623, lon.=104.002075, Alt.=517.648926m. Speed=3.420000m/h.</desc>
<speed>0.950000</speed>
</trkpt>
<trkpt lat="22.036757" lon="104.002098">
<ele>518.148926</ele>
<time>2011-04-26T06:43:00Z</time>
<desc>lat.=22.036757, lon.=104.002098, Alt.=518.148926m. Speed=10.044000m/h.</desc>
<speed>2.790000</speed>
</trkpt>
<trkpt lat="22.036839" lon="104.002144">
<ele>518.570801</ele>
<time>2011-04-26T06:43:05Z</time>
<desc>lat.=22.036839, lon.=104.002144, Alt.=518.570801m. Speed=6.084000m/h.</desc>
<speed>1.690000</speed>
</trkpt>
<trkpt lat="22.036852" lon="104.002220">
<ele>519.305176</ele>
<time>2011-04-26T06:43:10Z</time>
<desc>lat.=22.036852, lon.=104.002220, Alt.=519.305176m. Speed=7.380000m/h.</desc>
<speed>2.050000</speed>
</trkpt>
<trkpt lat="22.036850" lon="104.002266">
<ele>519.930176</ele>
<time>2011-04-26T06:43:15Z</time>
<desc>lat.=22.036850, lon.=104.002266, Alt.=519.930176m. Speed=3.852000m/h.</desc>
<speed>1.070000</speed>
</trkpt>
<trkpt lat="22.036863" lon="104.002296">
<ele>520.336426</ele>
<time>2011-04-26T06:43:20Z</time>
<desc>lat.=22.036863, lon.=104.002296, Alt.=520.336426m. Speed=3.276000m/h.</desc>
<speed>0.910000</speed>
</trkpt>
<trkpt lat="22.036892" lon="104.002357">
<ele>520.758301</ele>
<time>2011-04-26T06:43:25Z</time>
<desc>lat.=22.036892, lon.=104.002357, Alt.=520.758301m. Speed=5.076000m/h.</desc>
<speed>1.410000</speed>
</trkpt>
<trkpt lat="22.036970" lon="104.002426">
<ele>521.055176</ele>
<time>2011-04-26T06:43:30Z</time>
<desc>lat.=22.036970, lon.=104.002426, Alt.=521.055176m. Speed=7.704000m/h.</desc>
<speed>2.140000</speed>
</trkpt>
<trkpt lat="22.037046" lon="104.002464">
<ele>521.633301</ele>
<time>2011-04-26T06:43:35Z</time>
<desc>lat.=22.037046, lon.=104.002464, Alt.=521.633301m. Speed=4.896000m/h.</desc>
<speed>1.360000</speed>
</trkpt>
<trkpt lat="22.037127" lon="104.002449">
<ele>521.977051</ele>
<time>2011-04-26T06:43:40Z</time>
<desc>lat.=22.037127, lon.=104.002449, Alt.=521.977051m. Speed=6.156000m/h.</desc>
<speed>1.710000</speed>
</trkpt>
<trkpt lat="22.037241" lon="104.002411">
<ele>521.773926</ele>
<time>2011-04-26T06:43:45Z</time>
<desc>lat.=22.037241, lon.=104.002411, Alt.=521.773926m. Speed=7.884000m/h.</desc>
<speed>2.190000</speed>
</trkpt>
<trkpt lat="22.037336" lon="104.002380">
<ele>521.289551</ele>
<time>2011-04-26T06:43:50Z</time>
<desc>lat.=22.037336, lon.=104.002380, Alt.=521.289551m. Speed=5.256000m/h.</desc>
<speed>1.460000</speed>
</trkpt>
<trkpt lat="22.037395" lon="104.002365">
<ele>521.336426</ele>
<time>2011-04-26T06:43:55Z</time>
<desc>lat.=22.037395, lon.=104.002365, Alt.=521.336426m. Speed=7.992000m/h.</desc>
<speed>2.220000</speed>
</trkpt>
<trkpt lat="22.037485" lon="104.002365">
<ele>521.508301</ele>
<time>2011-04-26T06:44:00Z</time>
<desc>lat.=22.037485, lon.=104.002365, Alt.=521.508301m. Speed=7.812000m/h.</desc>
<speed>2.170000</speed>
</trkpt>
<trkpt lat="22.037558" lon="104.002365">
<ele>521.602051</ele>
<time>2011-04-26T06:44:05Z</time>
<desc>lat.=22.037558, lon.=104.002365, Alt.=521.602051m. Speed=7.452000m/h.</desc>
<speed>2.070000</speed>
</trkpt>
<trkpt lat="22.037647" lon="104.002342">
<ele>521.977051</ele>
<time>2011-04-26T06:44:10Z</time>
<desc>lat.=22.037647, lon.=104.002342, Alt.=521.977051m. Speed=5.976000m/h.</desc>
<speed>1.660000</speed>
</trkpt>
<trkpt lat="22.037722" lon="104.002342">
<ele>521.352051</ele>
<time>2011-04-26T06:44:15Z</time>
<desc>lat.=22.037722, lon.=104.002342, Alt.=521.352051m. Speed=6.192000m/h.</desc>
<speed>1.720000</speed>
</trkpt>
<trkpt lat="22.037800" lon="104.002357">
<ele>520.133301</ele>
<time>2011-04-26T06:44:20Z</time>
<desc>lat.=22.037800, lon.=104.002357, Alt.=520.133301m. Speed=6.192000m/h.</desc>
<speed>1.720000</speed>
</trkpt>
<trkpt lat="22.037874" lon="104.002396">
<ele>520.992676</ele>
<time>2011-04-26T06:44:25Z</time>
<desc>lat.=22.037874, lon.=104.002396, Alt.=520.992676m. Speed=6.336000m/h.</desc>
<speed>1.760000</speed>
</trkpt>
<trkpt lat="22.037910" lon="104.002464">
<ele>522.883301</ele>
<time>2011-04-26T06:44:30Z</time>
<desc>lat.=22.037910, lon.=104.002464, Alt.=522.883301m. Speed=5.688000m/h.</desc>
<speed>1.580000</speed>
</trkpt>
<trkpt lat="22.037954" lon="104.002541">
<ele>523.820801</ele>
<time>2011-04-26T06:44:35Z</time>
<desc>lat.=22.037954, lon.=104.002541, Alt.=523.820801m. Speed=5.220000m/h.</desc>
<speed>1.450000</speed>
</trkpt>
<trkpt lat="22.037966" lon="104.002602">
<ele>525.070801</ele>
<time>2011-04-26T06:44:40Z</time>
<desc>lat.=22.037966, lon.=104.002602, Alt.=525.070801m. Speed=2.592000m/h.</desc>
<speed>0.720000</speed>
</trkpt>
<trkpt lat="22.037920" lon="104.002663">
<ele>526.008301</ele>
<time>2011-04-26T06:44:45Z</time>
<desc>lat.=22.037920, lon.=104.002663, Alt.=526.008301m. Speed=3.420000m/h.</desc>
<speed>0.950000</speed>
</trkpt>
<trkpt lat="22.037954" lon="104.002724">
<ele>526.727051</ele>
<time>2011-04-26T06:44:50Z</time>
<desc>lat.=22.037954, lon.=104.002724, Alt.=526.727051m. Speed=5.004000m/h.</desc>
<speed>1.390000</speed>
</trkpt>
<trkpt lat="22.037981" lon="104.002800">
<ele>527.180176</ele>
<time>2011-04-26T06:44:55Z</time>
<desc>lat.=22.037981, lon.=104.002800, Alt.=527.180176m. Speed=4.932000m/h.</desc>
<speed>1.370000</speed>
</trkpt>
<trkpt lat="22.038006" lon="104.002869">
<ele>527.586426</ele>
<time>2011-04-26T06:45:00Z</time>
<desc>lat.=22.038006, lon.=104.002869, Alt.=527.586426m. Speed=3.708000m/h.</desc>
<speed>1.030000</speed>
</trkpt>
<trkpt lat="22.038015" lon="104.002953">
<ele>527.945801</ele>
<time>2011-04-26T06:45:05Z</time>
<desc>lat.=22.038015, lon.=104.002953, Alt.=527.945801m. Speed=3.744000m/h.</desc>
<speed>1.040000</speed>
</trkpt>
<trkpt lat="22.038013" lon="104.003044">
<ele>528.320801</ele>
<time>2011-04-26T06:45:10Z</time>
<desc>lat.=22.038013, lon.=104.003044, Alt.=528.320801m. Speed=4.212000m/h.</desc>
<speed>1.170000</speed>
</trkpt>
<trkpt lat="22.038025" lon="104.003113">
<ele>528.648926</ele>
<time>2011-04-26T06:45:15Z</time>
<desc>lat.=22.038025, lon.=104.003113, Alt.=528.648926m. Speed=4.464000m/h.</desc>
<speed>1.240000</speed>
</trkpt>
<trkpt lat="22.038088" lon="104.003181">
<ele>528.961426</ele>
<time>2011-04-26T06:45:20Z</time>
<desc>lat.=22.038088, lon.=104.003181, Alt.=528.961426m. Speed=5.040000m/h.</desc>
<speed>1.400000</speed>
</trkpt>
<trkpt lat="22.038160" lon="104.003235">
<ele>529.148926</ele>
<time>2011-04-26T06:45:25Z</time>
<desc>lat.=22.038160, lon.=104.003235, Alt.=529.148926m. Speed=5.364000m/h.</desc>
<speed>1.490000</speed>
</trkpt>
<trkpt lat="22.038261" lon="104.003304">
<ele>529.320801</ele>
<time>2011-04-26T06:45:30Z</time>
<desc>lat.=22.038261, lon.=104.003304, Alt.=529.320801m. Speed=3.780000m/h.</desc>
<speed>1.050000</speed>
</trkpt>
<trkpt lat="22.038296" lon="104.003357">
<ele>529.352051</ele>
<time>2011-04-26T06:45:35Z</time>
<desc>lat.=22.038296, lon.=104.003357, Alt.=529.352051m. Speed=4.248000m/h.</desc>
<speed>1.180000</speed>
</trkpt>
<trkpt lat="22.038290" lon="104.003365">
<ele>529.414551</ele>
<time>2011-04-26T06:45:40Z</time>
<desc>lat.=22.038290, lon.=104.003365, Alt.=529.414551m. Speed=0.540000m/h.</desc>
<speed>0.150000</speed>
</trkpt>
<trkpt lat="22.038275" lon="104.003372">
<ele>529.102051</ele>
<time>2011-04-26T06:45:45Z</time>
<desc>lat.=22.038275, lon.=104.003372, Alt.=529.102051m. Speed=0.720000m/h.</desc>
<speed>0.200000</speed>
</trkpt>
<trkpt lat="22.038286" lon="104.003395">
<ele>528.664551</ele>
<time>2011-04-26T06:45:50Z</time>
<desc>lat.=22.038286, lon.=104.003395, Alt.=528.664551m. Speed=3.240000m/h.</desc>
<speed>0.900000</speed>
</trkpt>
<trkpt lat="22.038374" lon="104.003525">
<ele>528.336426</ele>
<time>2011-04-26T06:45:55Z</time>
<desc>lat.=22.038374, lon.=104.003525, Alt.=528.336426m. Speed=8.532000m/h.</desc>
<speed>2.370000</speed>
</trkpt>
<trkpt lat="22.038427" lon="104.003662">
<ele>527.945801</ele>
<time>2011-04-26T06:46:00Z</time>
<desc>lat.=22.038427, lon.=104.003662, Alt.=527.945801m. Speed=13.968000m/h.</desc>
<speed>3.880000</speed>
</trkpt>
<trkpt lat="22.038523" lon="104.003906">
<ele>527.055176</ele>
<time>2011-04-26T06:46:05Z</time>
<desc>lat.=22.038523, lon.=104.003906, Alt.=527.055176m. Speed=20.375999m/h.</desc>
<speed>5.660000</speed>
</trkpt>
<trkpt lat="22.038584" lon="104.004227">
<ele>526.180176</ele>
<time>2011-04-26T06:46:10Z</time>
<desc>lat.=22.038584, lon.=104.004227, Alt.=526.180176m. Speed=24.948000m/h.</desc>
<speed>6.930000</speed>
</trkpt>
<trkpt lat="22.038599" lon="104.004623">
<ele>525.211426</ele>
<time>2011-04-26T06:46:15Z</time>
<desc>lat.=22.038599, lon.=104.004623, Alt.=525.211426m. Speed=33.948002m/h.</desc>
<speed>9.430001</speed>
</trkpt>
<trkpt lat="22.038624" lon="104.005066">
<ele>525.008301</ele>
<time>2011-04-26T06:46:20Z</time>
<desc>lat.=22.038624, lon.=104.005066, Alt.=525.008301m. Speed=24.695999m/h.</desc>
<speed>6.860000</speed>
</trkpt>
<trkpt lat="22.038649" lon="104.005386">
<ele>524.898926</ele>
<time>2011-04-26T06:46:25Z</time>
<desc>lat.=22.038649, lon.=104.005386, Alt.=524.898926m. Speed=15.048000m/h.</desc>
<speed>4.180000</speed>
</trkpt>
<trkpt lat="22.038643" lon="104.005638">
<ele>525.023926</ele>
<time>2011-04-26T06:46:30Z</time>
<desc>lat.=22.038643, lon.=104.005638, Alt.=525.023926m. Speed=10.332000m/h.</desc>
<speed>2.870000</speed>
</trkpt>
<trkpt lat="22.038803" lon="104.005997">
<ele>524.945801</ele>
<time>2011-04-26T06:46:35Z</time>
<desc>lat.=22.038803, lon.=104.005997, Alt.=524.945801m. Speed=20.448000m/h.</desc>
<speed>5.680000</speed>
</trkpt>
<trkpt lat="22.038853" lon="104.006248">
<ele>524.258301</ele>
<time>2011-04-26T06:46:40Z</time>
<desc>lat.=22.038853, lon.=104.006248, Alt.=524.258301m. Speed=18.143999m/h.</desc>
<speed>5.040000</speed>
</trkpt>
<trkpt lat="22.038824" lon="104.006531">
<ele>523.367676</ele>
<time>2011-04-26T06:46:45Z</time>
<desc>lat.=22.038824, lon.=104.006531, Alt.=523.367676m. Speed=20.087999m/h.</desc>
<speed>5.580000</speed>
</trkpt>
<trkpt lat="22.038767" lon="104.006882">
<ele>522.539551</ele>
<time>2011-04-26T06:46:50Z</time>
<desc>lat.=22.038767, lon.=104.006882, Alt.=522.539551m. Speed=21.600000m/h.</desc>
<speed>6.000000</speed>
</trkpt>
<trkpt lat="22.038776" lon="104.007263">
<ele>521.914551</ele>
<time>2011-04-26T06:46:55Z</time>
<desc>lat.=22.038776, lon.=104.007263, Alt.=521.914551m. Speed=24.011999m/h.</desc>
<speed>6.670000</speed>
</trkpt>
<trkpt lat="22.038792" lon="104.007690">
<ele>521.461426</ele>
<time>2011-04-26T06:47:00Z</time>
<desc>lat.=22.038792, lon.=104.007690, Alt.=521.461426m. Speed=19.511999m/h.</desc>
<speed>5.420000</speed>
</trkpt>
<trkpt lat="22.038809" lon="104.007996">
<ele>521.148926</ele>
<time>2011-04-26T06:47:05Z</time>
<desc>lat.=22.038809, lon.=104.007996, Alt.=521.148926m. Speed=11.016000m/h.</desc>
<speed>3.060000</speed>
</trkpt>
<trkpt lat="22.038832" lon="104.008240">
<ele>521.070801</ele>
<time>2011-04-26T06:47:10Z</time>
<desc>lat.=22.038832, lon.=104.008240, Alt.=521.070801m. Speed=8.892000m/h.</desc>
<speed>2.470000</speed>
</trkpt>
<trkpt lat="22.038807" lon="104.008392">
<ele>521.148926</ele>
<time>2011-04-26T06:47:15Z</time>
<desc>lat.=22.038807, lon.=104.008392, Alt.=521.148926m. Speed=11.196000m/h.</desc>
<speed>3.110000</speed>
</trkpt>
<trkpt lat="22.038729" lon="104.008598">
<ele>521.289551</ele>
<time>2011-04-26T06:47:20Z</time>
<desc>lat.=22.038729, lon.=104.008598, Alt.=521.289551m. Speed=12.168000m/h.</desc>
<speed>3.380000</speed>
</trkpt>
<trkpt lat="22.038633" lon="104.008789">
<ele>520.945801</ele>
<time>2011-04-26T06:47:25Z</time>
<desc>lat.=22.038633, lon.=104.008789, Alt.=520.945801m. Speed=8.244000m/h.</desc>
<speed>2.290000</speed>
</trkpt>
<trkpt lat="22.038561" lon="104.008972">
<ele>520.148926</ele>
<time>2011-04-26T06:47:30Z</time>
<desc>lat.=22.038561, lon.=104.008972, Alt.=520.148926m. Speed=11.520000m/h.</desc>
<speed>3.200000</speed>
</trkpt>
<trkpt lat="22.038504" lon="104.009094">
<ele>519.836426</ele>
<time>2011-04-26T06:47:35Z</time>
<desc>lat.=22.038504, lon.=104.009094, Alt.=519.836426m. Speed=8.892000m/h.</desc>
<speed>2.470000</speed>
</trkpt>
<trkpt lat="22.038439" lon="104.009247">
<ele>519.695801</ele>
<time>2011-04-26T06:47:40Z</time>
<desc>lat.=22.038439, lon.=104.009247, Alt.=519.695801m. Speed=9.720000m/h.</desc>
<speed>2.700000</speed>
</trkpt>
<trkpt lat="22.038410" lon="104.009422">
<ele>519.680176</ele>
<time>2011-04-26T06:47:45Z</time>
<desc>lat.=22.038410, lon.=104.009422, Alt.=519.680176m. Speed=15.300000m/h.</desc>
<speed>4.250000</speed>
</trkpt>
<trkpt lat="22.038349" lon="104.009666">
<ele>518.680176</ele>
<time>2011-04-26T06:47:50Z</time>
<desc>lat.=22.038349, lon.=104.009666, Alt.=518.680176m. Speed=9.720000m/h.</desc>
<speed>2.700000</speed>
</trkpt>
<trkpt lat="22.038202" lon="104.009819">
<ele>517.242676</ele>
<time>2011-04-26T06:47:55Z</time>
<desc>lat.=22.038202, lon.=104.009819, Alt.=517.242676m. Speed=20.087999m/h.</desc>
<speed>5.580000</speed>
</trkpt>
<trkpt lat="22.037941" lon="104.010040">
<ele>515.383301</ele>
<time>2011-04-26T06:48:00Z</time>
<desc>lat.=22.037941, lon.=104.010040, Alt.=515.383301m. Speed=29.268000m/h.</desc>
<speed>8.130000</speed>
</trkpt>
<trkpt lat="22.037601" lon="104.010399">
<ele>513.305176</ele>
<time>2011-04-26T06:48:05Z</time>
<desc>lat.=22.037601, lon.=104.010399, Alt.=513.305176m. Speed=35.208000m/h.</desc>
<speed>9.780000</speed>
</trkpt>
<trkpt lat="22.037357" lon="104.010773">
<ele>511.988525</ele>
<time>2011-04-26T06:48:10Z</time>
<desc>lat.=22.037357, lon.=104.010773, Alt.=511.988525m. Speed=31.823999m/h.</desc>
<speed>8.840000</speed>
</trkpt>
<trkpt lat="22.037001" lon="104.010941">
<ele>510.801025</ele>
<time>2011-04-26T06:48:15Z</time>
<desc>lat.=22.037001, lon.=104.010941, Alt.=510.801025m. Speed=27.360001m/h.</desc>
<speed>7.600000</speed>
</trkpt>
<trkpt lat="22.036709" lon="104.011078">
<ele>509.652588</ele>
<time>2011-04-26T06:48:20Z</time>
<desc>lat.=22.036709, lon.=104.011078, Alt.=509.652588m. Speed=26.316000m/h.</desc>
<speed>7.310000</speed>
</trkpt>
<trkpt lat="22.036469" lon="104.011353">
<ele>508.683838</ele>
<time>2011-04-26T06:48:25Z</time>
<desc>lat.=22.036469, lon.=104.011353, Alt.=508.683838m. Speed=27.900000m/h.</desc>
<speed>7.750000</speed>
</trkpt>
<trkpt lat="22.036163" lon="104.011642">
<ele>507.535400</ele>
<time>2011-04-26T06:48:30Z</time>
<desc>lat.=22.036163, lon.=104.011642, Alt.=507.535400m. Speed=33.948002m/h.</desc>
<speed>9.430001</speed>
</trkpt>
<trkpt lat="22.035877" lon="104.012039">
<ele>506.105713</ele>
<time>2011-04-26T06:48:35Z</time>
<desc>lat.=22.035877, lon.=104.012039, Alt.=506.105713m. Speed=36.144001m/h.</desc>
<speed>10.040000</speed>
</trkpt>
<trkpt lat="22.035627" lon="104.012421">
<ele>504.949463</ele>
<time>2011-04-26T06:48:40Z</time>
<desc>lat.=22.035627, lon.=104.012421, Alt.=504.949463m. Speed=31.104000m/h.</desc>
<speed>8.640000</speed>
</trkpt>
<trkpt lat="22.035480" lon="104.012688">
<ele>504.363525</ele>
<time>2011-04-26T06:48:45Z</time>
<desc>lat.=22.035480, lon.=104.012688, Alt.=504.363525m. Speed=18.323999m/h.</desc>
<speed>5.090000</speed>
</trkpt>
<trkpt lat="22.035421" lon="104.012817">
<ele>503.988525</ele>
<time>2011-04-26T06:48:50Z</time>
<desc>lat.=22.035421, lon.=104.012817, Alt.=503.988525m. Speed=6.588000m/h.</desc>
<speed>1.830000</speed>
</trkpt>
<trkpt lat="22.035389" lon="104.012863">
<ele>503.949463</ele>
<time>2011-04-26T06:48:55Z</time>
<desc>lat.=22.035389, lon.=104.012863, Alt.=503.949463m. Speed=4.320000m/h.</desc>
<speed>1.200000</speed>
</trkpt>
<trkpt lat="22.035368" lon="104.012924">
<ele>503.933838</ele>
<time>2011-04-26T06:49:00Z</time>
<desc>lat.=22.035368, lon.=104.012924, Alt.=503.933838m. Speed=4.824000m/h.</desc>
<speed>1.340000</speed>
</trkpt>
<trkpt lat="22.035337" lon="104.012962">
<ele>504.066650</ele>
<time>2011-04-26T06:49:05Z</time>
<desc>lat.=22.035337, lon.=104.012962, Alt.=504.066650m. Speed=1.764000m/h.</desc>
<speed>0.490000</speed>
</trkpt>
<trkpt lat="22.035318" lon="104.012978">
<ele>504.027588</ele>
<time>2011-04-26T06:49:10Z</time>
<desc>lat.=22.035318, lon.=104.012978, Alt.=504.027588m. Speed=1.584000m/h.</desc>
<speed>0.440000</speed>
</trkpt>
<trkpt lat="22.035295" lon="104.012985">
<ele>503.894775</ele>
<time>2011-04-26T06:49:15Z</time>
<desc>lat.=22.035295, lon.=104.012985, Alt.=503.894775m. Speed=1.116000m/h.</desc>
<speed>0.310000</speed>
</trkpt>
<trkpt lat="22.035288" lon="104.012985">
<ele>503.722900</ele>
<time>2011-04-26T06:49:20Z</time>
<desc>lat.=22.035288, lon.=104.012985, Alt.=503.722900m. Speed=0.936000m/h.</desc>
<speed>0.260000</speed>
</trkpt>
<trkpt lat="22.035292" lon="104.013008">
<ele>503.715088</ele>
<time>2011-04-26T06:49:25Z</time>
<desc>lat.=22.035292, lon.=104.013008, Alt.=503.715088m. Speed=2.088000m/h.</desc>
<speed>0.580000</speed>
</trkpt>
<trkpt lat="22.035301" lon="104.013077">
<ele>503.847900</ele>
<time>2011-04-26T06:49:30Z</time>
<desc>lat.=22.035301, lon.=104.013077, Alt.=503.847900m. Speed=4.212000m/h.</desc>
<speed>1.170000</speed>
</trkpt>
<trkpt lat="22.035276" lon="104.013145">
<ele>504.043213</ele>
<time>2011-04-26T06:49:35Z</time>
<desc>lat.=22.035276, lon.=104.013145, Alt.=504.043213m. Speed=4.536000m/h.</desc>
<speed>1.260000</speed>
</trkpt>
<trkpt lat="22.035263" lon="104.013252">
<ele>504.222900</ele>
<time>2011-04-26T06:49:40Z</time>
<desc>lat.=22.035263, lon.=104.013252, Alt.=504.222900m. Speed=4.608000m/h.</desc>
<speed>1.280000</speed>
</trkpt>
<trkpt lat="22.035248" lon="104.013382">
<ele>504.347900</ele>
<time>2011-04-26T06:49:45Z</time>
<desc>lat.=22.035248, lon.=104.013382, Alt.=504.347900m. Speed=5.292000m/h.</desc>
<speed>1.470000</speed>
</trkpt>
<trkpt lat="22.035254" lon="104.013474">
<ele>504.715088</ele>
<time>2011-04-26T06:49:50Z</time>
<desc>lat.=22.035254, lon.=104.013474, Alt.=504.715088m. Speed=5.976000m/h.</desc>
<speed>1.660000</speed>
</trkpt>
<trkpt lat="22.035238" lon="104.013573">
<ele>505.199463</ele>
<time>2011-04-26T06:49:55Z</time>
<desc>lat.=22.035238, lon.=104.013573, Alt.=505.199463m. Speed=6.480000m/h.</desc>
<speed>1.800000</speed>
</trkpt>
<trkpt lat="22.035223" lon="104.013641">
<ele>505.761963</ele>
<time>2011-04-26T06:50:00Z</time>
<desc>lat.=22.035223, lon.=104.013641, Alt.=505.761963m. Speed=5.760000m/h.</desc>
<speed>1.600000</speed>
</trkpt>
<trkpt lat="22.035217" lon="104.013733">
<ele>506.129150</ele>
<time>2011-04-26T06:50:05Z</time>
<desc>lat.=22.035217, lon.=104.013733, Alt.=506.129150m. Speed=4.320000m/h.</desc>
<speed>1.200000</speed>
</trkpt>
<trkpt lat="22.035233" lon="104.013794">
<ele>506.480713</ele>
<time>2011-04-26T06:50:10Z</time>
<desc>lat.=22.035233, lon.=104.013794, Alt.=506.480713m. Speed=4.356000m/h.</desc>
<speed>1.210000</speed>
</trkpt>
<trkpt lat="22.035200" lon="104.013878">
<ele>506.933838</ele>
<time>2011-04-26T06:50:15Z</time>
<desc>lat.=22.035200, lon.=104.013878, Alt.=506.933838m. Speed=5.364000m/h.</desc>
<speed>1.490000</speed>
</trkpt>
<trkpt lat="22.035181" lon="104.013977">
<ele>507.316650</ele>
<time>2011-04-26T06:50:20Z</time>
<desc>lat.=22.035181, lon.=104.013977, Alt.=507.316650m. Speed=5.292000m/h.</desc>
<speed>1.470000</speed>
</trkpt>
<trkpt lat="22.035173" lon="104.014061">
<ele>507.519775</ele>
<time>2011-04-26T06:50:25Z</time>
<desc>lat.=22.035173, lon.=104.014061, Alt.=507.519775m. Speed=3.672000m/h.</desc>
<speed>1.020000</speed>
</trkpt>
<trkpt lat="22.035137" lon="104.014183">
<ele>507.629150</ele>
<time>2011-04-26T06:50:30Z</time>
<desc>lat.=22.035137, lon.=104.014183, Alt.=507.629150m. Speed=3.888000m/h.</desc>
<speed>1.080000</speed>
</trkpt>
<trkpt lat="22.035128" lon="104.014244">
<ele>507.793213</ele>
<time>2011-04-26T06:50:35Z</time>
<desc>lat.=22.035128, lon.=104.014244, Alt.=507.793213m. Speed=5.544000m/h.</desc>
<speed>1.540000</speed>
</trkpt>
<trkpt lat="22.035109" lon="104.014320">
<ele>507.730713</ele>
<time>2011-04-26T06:50:40Z</time>
<desc>lat.=22.035109, lon.=104.014320, Alt.=507.730713m. Speed=5.076000m/h.</desc>
<speed>1.410000</speed>
</trkpt>
<trkpt lat="22.035093" lon="104.014397">
<ele>507.582275</ele>
<time>2011-04-26T06:50:45Z</time>
<desc>lat.=22.035093, lon.=104.014397, Alt.=507.582275m. Speed=5.112000m/h.</desc>
<speed>1.420000</speed>
</trkpt>
<trkpt lat="22.035103" lon="104.014534">
<ele>507.386963</ele>
<time>2011-04-26T06:50:50Z</time>
<desc>lat.=22.035103, lon.=104.014534, Alt.=507.386963m. Speed=5.796000m/h.</desc>
<speed>1.610000</speed>
</trkpt>
<trkpt lat="22.035101" lon="104.014641">
<ele>507.246338</ele>
<time>2011-04-26T06:50:55Z</time>
<desc>lat.=22.035101, lon.=104.014641, Alt.=507.246338m. Speed=11.196000m/h.</desc>
<speed>3.110000</speed>
</trkpt>
<trkpt lat="22.035143" lon="104.014740">
<ele>507.074463</ele>
<time>2011-04-26T06:51:00Z</time>
<desc>lat.=22.035143, lon.=104.014740, Alt.=507.074463m. Speed=6.408000m/h.</desc>
<speed>1.780000</speed>
</trkpt>
<trkpt lat="22.035189" lon="104.014832">
<ele>506.840088</ele>
<time>2011-04-26T06:51:05Z</time>
<desc>lat.=22.035189, lon.=104.014832, Alt.=506.840088m. Speed=6.444000m/h.</desc>
<speed>1.790000</speed>
</trkpt>
<trkpt lat="22.035231" lon="104.014923">
<ele>506.488525</ele>
<time>2011-04-26T06:51:10Z</time>
<desc>lat.=22.035231, lon.=104.014923, Alt.=506.488525m. Speed=6.804000m/h.</desc>
<speed>1.890000</speed>
</trkpt>
<trkpt lat="22.035280" lon="104.014992">
<ele>505.933838</ele>
<time>2011-04-26T06:51:15Z</time>
<desc>lat.=22.035280, lon.=104.014992, Alt.=505.933838m. Speed=5.796000m/h.</desc>
<speed>1.610000</speed>
</trkpt>
<trkpt lat="22.035320" lon="104.015045">
<ele>505.472900</ele>
<time>2011-04-26T06:51:20Z</time>
<desc>lat.=22.035320, lon.=104.015045, Alt.=505.472900m. Speed=5.184000m/h.</desc>
<speed>1.440000</speed>
</trkpt>
<trkpt lat="22.035324" lon="104.015129">
<ele>505.652588</ele>
<time>2011-04-26T06:51:25Z</time>
<desc>lat.=22.035324, lon.=104.015129, Alt.=505.652588m. Speed=6.228000m/h.</desc>
<speed>1.730000</speed>
</trkpt>
<trkpt lat="22.035322" lon="104.015228">
<ele>506.910400</ele>
<time>2011-04-26T06:51:30Z</time>
<desc>lat.=22.035322, lon.=104.015228, Alt.=506.910400m. Speed=7.884000m/h.</desc>
<speed>2.190000</speed>
</trkpt>
<trkpt lat="22.035276" lon="104.015350">
<ele>505.496338</ele>
<time>2011-04-26T06:51:35Z</time>
<desc>lat.=22.035276, lon.=104.015350, Alt.=505.496338m. Speed=9.828000m/h.</desc>
<speed>2.730000</speed>
</trkpt>
<trkpt lat="22.035215" lon="104.015526">
<ele>504.332275</ele>
<time>2011-04-26T06:51:40Z</time>
<desc>lat.=22.035215, lon.=104.015526, Alt.=504.332275m. Speed=13.680000m/h.</desc>
<speed>3.800000</speed>
</trkpt>
<trkpt lat="22.035141" lon="104.015739">
<ele>503.332275</ele>
<time>2011-04-26T06:51:45Z</time>
<desc>lat.=22.035141, lon.=104.015739, Alt.=503.332275m. Speed=16.524000m/h.</desc>
<speed>4.590000</speed>
</trkpt>
<trkpt lat="22.035055" lon="104.016022">
<ele>502.582275</ele>
<time>2011-04-26T06:51:50Z</time>
<desc>lat.=22.035055, lon.=104.016022, Alt.=502.582275m. Speed=20.664000m/h.</desc>
<speed>5.740000</speed>
</trkpt>
<trkpt lat="22.034973" lon="104.016342">
<ele>501.496338</ele>
<time>2011-04-26T06:51:55Z</time>
<desc>lat.=22.034973, lon.=104.016342, Alt.=501.496338m. Speed=23.112000m/h.</desc>
<speed>6.420000</speed>
</trkpt>
<trkpt lat="22.034824" lon="104.016640">
<ele>501.035400</ele>
<time>2011-04-26T06:52:00Z</time>
<desc>lat.=22.034824, lon.=104.016640, Alt.=501.035400m. Speed=19.260000m/h.</desc>
<speed>5.350000</speed>
</trkpt>
<trkpt lat="22.034739" lon="104.016853">
<ele>498.410400</ele>
<time>2011-04-26T06:52:05Z</time>
<desc>lat.=22.034739, lon.=104.016853, Alt.=498.410400m. Speed=11.484000m/h.</desc>
<speed>3.190000</speed>
</trkpt>
<trkpt lat="22.034691" lon="104.016991">
<ele>499.113525</ele>
<time>2011-04-26T06:52:10Z</time>
<desc>lat.=22.034691, lon.=104.016991, Alt.=499.113525m. Speed=7.704000m/h.</desc>
<speed>2.140000</speed>
</trkpt>
<trkpt lat="22.034653" lon="104.017090">
<ele>500.207275</ele>
<time>2011-04-26T06:52:15Z</time>
<desc>lat.=22.034653, lon.=104.017090, Alt.=500.207275m. Speed=8.136000m/h.</desc>
<speed>2.260000</speed>
</trkpt>
<trkpt lat="22.034578" lon="104.017174">
<ele>500.222900</ele>
<time>2011-04-26T06:52:20Z</time>
<desc>lat.=22.034578, lon.=104.017174, Alt.=500.222900m. Speed=9.936000m/h.</desc>
<speed>2.760000</speed>
</trkpt>
<trkpt lat="22.034477" lon="104.017258">
<ele>499.613525</ele>
<time>2011-04-26T06:52:25Z</time>
<desc>lat.=22.034477, lon.=104.017258, Alt.=499.613525m. Speed=9.108000m/h.</desc>
<speed>2.530000</speed>
</trkpt>
<trkpt lat="22.034266" lon="104.017273">
<ele>500.332275</ele>
<time>2011-04-26T06:52:30Z</time>
<desc>lat.=22.034266, lon.=104.017273, Alt.=500.332275m. Speed=16.091999m/h.</desc>
<speed>4.470000</speed>
</trkpt>
<trkpt lat="22.034048" lon="104.017281">
<ele>498.722900</ele>
<time>2011-04-26T06:52:35Z</time>
<desc>lat.=22.034048, lon.=104.017281, Alt.=498.722900m. Speed=17.208000m/h.</desc>
<speed>4.780000</speed>
</trkpt>
<trkpt lat="22.033930" lon="104.017387">
<ele>497.855713</ele>
<time>2011-04-26T06:52:40Z</time>
<desc>lat.=22.033930, lon.=104.017387, Alt.=497.855713m. Speed=5.436000m/h.</desc>
<speed>1.510000</speed>
</trkpt>
<trkpt lat="22.033920" lon="104.017433">
<ele>497.715088</ele>
<time>2011-04-26T06:52:45Z</time>
<desc>lat.=22.033920, lon.=104.017433, Alt.=497.715088m. Speed=3.564000m/h.</desc>
<speed>0.990000</speed>
</trkpt>
<trkpt lat="22.033937" lon="104.017525">
<ele>497.168213</ele>
<time>2011-04-26T06:52:50Z</time>
<desc>lat.=22.033937, lon.=104.017525, Alt.=497.168213m. Speed=5.508000m/h.</desc>
<speed>1.530000</speed>
</trkpt>
<trkpt lat="22.033939" lon="104.017548">
<ele>497.285400</ele>
<time>2011-04-26T06:52:55Z</time>
<desc>lat.=22.033939, lon.=104.017548, Alt.=497.285400m. Speed=0.360000m/h.</desc>
<speed>0.100000</speed>
</trkpt>
<trkpt lat="22.033941" lon="104.017548">
<ele>497.121338</ele>
<time>2011-04-26T06:53:00Z</time>
<desc>lat.=22.033941, lon.=104.017548, Alt.=497.121338m. Speed=0.720000m/h.</desc>
<speed>0.200000</speed>
</trkpt>
<trkpt lat="22.033949" lon="104.017570">
<ele>497.152588</ele>
<time>2011-04-26T06:53:05Z</time>
<desc>lat.=22.033949, lon.=104.017570, Alt.=497.152588m. Speed=1.332000m/h.</desc>
<speed>0.370000</speed>
</trkpt>
<trkpt lat="22.033947" lon="104.017593">
<ele>497.152588</ele>
<time>2011-04-26T06:53:10Z</time>
<desc>lat.=22.033947, lon.=104.017593, Alt.=497.152588m. Speed=1.332000m/h.</desc>
<speed>0.370000</speed>
</trkpt>
<trkpt lat="22.033960" lon="104.017609">
<ele>497.168213</ele>
<time>2011-04-26T06:53:15Z</time>
<desc>lat.=22.033960, lon.=104.017609, Alt.=497.168213m. Speed=0.576000m/h.</desc>
<speed>0.160000</speed>
</trkpt>
<trkpt lat="22.033972" lon="104.017624">
<ele>497.168213</ele>
<time>2011-04-26T06:53:20Z</time>
<desc>lat.=22.033972, lon.=104.017624, Alt.=497.168213m. Speed=0.828000m/h.</desc>
<speed>0.230000</speed>
</trkpt>
<trkpt lat="22.033978" lon="104.017639">
<ele>497.168213</ele>
<time>2011-04-26T06:53:25Z</time>
<desc>lat.=22.033978, lon.=104.017639, Alt.=497.168213m. Speed=1.116000m/h.</desc>
<speed>0.310000</speed>
</trkpt>
<trkpt lat="22.033960" lon="104.017677">
<ele>497.597900</ele>
<time>2011-04-26T06:53:30Z</time>
<desc>lat.=22.033960, lon.=104.017677, Alt.=497.597900m. Speed=1.116000m/h.</desc>
<speed>0.310000</speed>
</trkpt>
<trkpt lat="22.033955" lon="104.017685">
<ele>497.699463</ele>
<time>2011-04-26T06:53:35Z</time>
<desc>lat.=22.033955, lon.=104.017685, Alt.=497.699463m. Speed=2.880000m/h.</desc>
<speed>0.800000</speed>
</trkpt>
<trkpt lat="22.033974" lon="104.017738">
<ele>497.746338</ele>
<time>2011-04-26T06:53:40Z</time>
<desc>lat.=22.033974, lon.=104.017738, Alt.=497.746338m. Speed=3.636000m/h.</desc>
<speed>1.010000</speed>
</trkpt>
<trkpt lat="22.034006" lon="104.017807">
<ele>497.832275</ele>
<time>2011-04-26T06:53:45Z</time>
<desc>lat.=22.034006, lon.=104.017807, Alt.=497.832275m. Speed=4.500000m/h.</desc>
<speed>1.250000</speed>
</trkpt>
<trkpt lat="22.034033" lon="104.017876">
<ele>497.847900</ele>
<time>2011-04-26T06:53:50Z</time>
<desc>lat.=22.034033, lon.=104.017876, Alt.=497.847900m. Speed=4.824000m/h.</desc>
<speed>1.340000</speed>
</trkpt>
<trkpt lat="22.034016" lon="104.017952">
<ele>497.824463</ele>
<time>2011-04-26T06:53:55Z</time>
<desc>lat.=22.034016, lon.=104.017952, Alt.=497.824463m. Speed=4.968000m/h.</desc>
<speed>1.380000</speed>
</trkpt>
<trkpt lat="22.033972" lon="104.018044">
<ele>497.801025</ele>
<time>2011-04-26T06:54:00Z</time>
<desc>lat.=22.033972, lon.=104.018044, Alt.=497.801025m. Speed=7.128000m/h.</desc>
<speed>1.980000</speed>
</trkpt>
<trkpt lat="22.033924" lon="104.018112">
<ele>497.949463</ele>
<time>2011-04-26T06:54:05Z</time>
<desc>lat.=22.033924, lon.=104.018112, Alt.=497.949463m. Speed=6.192000m/h.</desc>
<speed>1.720000</speed>
</trkpt>
<trkpt lat="22.033895" lon="104.018143">
<ele>497.910400</ele>
<time>2011-04-26T06:54:10Z</time>
<desc>lat.=22.033895, lon.=104.018143, Alt.=497.910400m. Speed=3.312000m/h.</desc>
<speed>0.920000</speed>
</trkpt>
<trkpt lat="22.033880" lon="104.018188">
<ele>497.761963</ele>
<time>2011-04-26T06:54:15Z</time>
<desc>lat.=22.033880, lon.=104.018188, Alt.=497.761963m. Speed=3.348000m/h.</desc>
<speed>0.930000</speed>
</trkpt>
<trkpt lat="22.033865" lon="104.018227">
<ele>497.683838</ele>
<time>2011-04-26T06:54:20Z</time>
<desc>lat.=22.033865, lon.=104.018227, Alt.=497.683838m. Speed=2.628000m/h.</desc>
<speed>0.730000</speed>
</trkpt>
<trkpt lat="22.033796" lon="104.018280">
<ele>497.527588</ele>
<time>2011-04-26T06:54:25Z</time>
<desc>lat.=22.033796, lon.=104.018280, Alt.=497.527588m. Speed=3.816000m/h.</desc>
<speed>1.060000</speed>
</trkpt>
<trkpt lat="22.033768" lon="104.018333">
<ele>497.090088</ele>
<time>2011-04-26T06:54:30Z</time>
<desc>lat.=22.033768, lon.=104.018333, Alt.=497.090088m. Speed=3.456000m/h.</desc>
<speed>0.960000</speed>
</trkpt>
<trkpt lat="22.033703" lon="104.018372">
<ele>496.808838</ele>
<time>2011-04-26T06:54:35Z</time>
<desc>lat.=22.033703, lon.=104.018372, Alt.=496.808838m. Speed=3.132000m/h.</desc>
<speed>0.870000</speed>
</trkpt>
<trkpt lat="22.033642" lon="104.018448">
<ele>496.363525</ele>
<time>2011-04-26T06:54:40Z</time>
<desc>lat.=22.033642, lon.=104.018448, Alt.=496.363525m. Speed=4.284000m/h.</desc>
<speed>1.190000</speed>
</trkpt>
<trkpt lat="22.033619" lon="104.018509">
<ele>495.918213</ele>
<time>2011-04-26T06:54:45Z</time>
<desc>lat.=22.033619, lon.=104.018509, Alt.=495.918213m. Speed=3.636000m/h.</desc>
<speed>1.010000</speed>
</trkpt>
<trkpt lat="22.033602" lon="104.018524">
<ele>495.551025</ele>
<time>2011-04-26T06:54:50Z</time>
<desc>lat.=22.033602, lon.=104.018524, Alt.=495.551025m. Speed=3.024000m/h.</desc>
<speed>0.840000</speed>
</trkpt>
<trkpt lat="22.033566" lon="104.018562">
<ele>495.418213</ele>
<time>2011-04-26T06:54:55Z</time>
<desc>lat.=22.033566, lon.=104.018562, Alt.=495.418213m. Speed=3.528000m/h.</desc>
<speed>0.980000</speed>
</trkpt>
<trkpt lat="22.033512" lon="104.018639">
<ele>494.894775</ele>
<time>2011-04-26T06:55:00Z</time>
<desc>lat.=22.033512, lon.=104.018639, Alt.=494.894775m. Speed=5.472000m/h.</desc>
<speed>1.520000</speed>
</trkpt>
<trkpt lat="22.033474" lon="104.018700">
<ele>494.504150</ele>
<time>2011-04-26T06:55:05Z</time>
<desc>lat.=22.033474, lon.=104.018700, Alt.=494.504150m. Speed=4.464000m/h.</desc>
<speed>1.240000</speed>
</trkpt>
<trkpt lat="22.033438" lon="104.018738">
<ele>494.308838</ele>
<time>2011-04-26T06:55:10Z</time>
<desc>lat.=22.033438, lon.=104.018738, Alt.=494.308838m. Speed=3.096000m/h.</desc>
<speed>0.860000</speed>
</trkpt>
<trkpt lat="22.033401" lon="104.018799">
<ele>493.926025</ele>
<time>2011-04-26T06:55:15Z</time>
<desc>lat.=22.033401, lon.=104.018799, Alt.=493.926025m. Speed=4.104000m/h.</desc>
<speed>1.140000</speed>
</trkpt>
<trkpt lat="22.033377" lon="104.018829">
<ele>493.894775</ele>
<time>2011-04-26T06:55:20Z</time>
<desc>lat.=22.033377, lon.=104.018829, Alt.=493.894775m. Speed=2.376000m/h.</desc>
<speed>0.660000</speed>
</trkpt>
<trkpt lat="22.033340" lon="104.018852">
<ele>493.621338</ele>
<time>2011-04-26T06:55:25Z</time>
<desc>lat.=22.033340, lon.=104.018852, Alt.=493.621338m. Speed=3.384000m/h.</desc>
<speed>0.940000</speed>
</trkpt>
<trkpt lat="22.033310" lon="104.018890">
<ele>493.488525</ele>
<time>2011-04-26T06:55:30Z</time>
<desc>lat.=22.033310, lon.=104.018890, Alt.=493.488525m. Speed=4.140000m/h.</desc>
<speed>1.150000</speed>
</trkpt>
<trkpt lat="22.033272" lon="104.018936">
<ele>493.285400</ele>
<time>2011-04-26T06:55:35Z</time>
<desc>lat.=22.033272, lon.=104.018936, Alt.=493.285400m. Speed=4.284000m/h.</desc>
<speed>1.190000</speed>
</trkpt>
<trkpt lat="22.033224" lon="104.018959">
<ele>493.324463</ele>
<time>2011-04-26T06:55:40Z</time>
<desc>lat.=22.033224, lon.=104.018959, Alt.=493.324463m. Speed=4.392000m/h.</desc>
<speed>1.220000</speed>
</trkpt>
<trkpt lat="22.033194" lon="104.019005">
<ele>493.090088</ele>
<time>2011-04-26T06:55:45Z</time>
<desc>lat.=22.033194, lon.=104.019005, Alt.=493.090088m. Speed=4.428000m/h.</desc>
<speed>1.230000</speed>
</trkpt>
<trkpt lat="22.033146" lon="104.019089">
<ele>492.957275</ele>
<time>2011-04-26T06:55:50Z</time>
<desc>lat.=22.033146, lon.=104.019089, Alt.=492.957275m. Speed=7.056000m/h.</desc>
<speed>1.960000</speed>
</trkpt>
<trkpt lat="22.033083" lon="104.019157">
<ele>492.933838</ele>
<time>2011-04-26T06:55:55Z</time>
<desc>lat.=22.033083, lon.=104.019157, Alt.=492.933838m. Speed=6.336000m/h.</desc>
<speed>1.760000</speed>
</trkpt>
<trkpt lat="22.033041" lon="104.019249">
<ele>492.699463</ele>
<time>2011-04-26T06:56:00Z</time>
<desc>lat.=22.033041, lon.=104.019249, Alt.=492.699463m. Speed=7.632000m/h.</desc>
<speed>2.120000</speed>
</trkpt>
<trkpt lat="22.032991" lon="104.019386">
<ele>492.316650</ele>
<time>2011-04-26T06:56:05Z</time>
<desc>lat.=22.032991, lon.=104.019386, Alt.=492.316650m. Speed=7.524000m/h.</desc>
<speed>2.090000</speed>
</trkpt>
<trkpt lat="22.032936" lon="104.019562">
<ele>491.301025</ele>
<time>2011-04-26T06:56:10Z</time>
<desc>lat.=22.032936, lon.=104.019562, Alt.=491.301025m. Speed=7.020000m/h.</desc>
<speed>1.950000</speed>
</trkpt>
<trkpt lat="22.032902" lon="104.019669">
<ele>490.676025</ele>
<time>2011-04-26T06:56:15Z</time>
<desc>lat.=22.032902, lon.=104.019669, Alt.=490.676025m. Speed=8.604000m/h.</desc>
<speed>2.390000</speed>
</trkpt>
<trkpt lat="22.032873" lon="104.019775">
<ele>490.090088</ele>
<time>2011-04-26T06:56:20Z</time>
<desc>lat.=22.032873, lon.=104.019775, Alt.=490.090088m. Speed=7.380000m/h.</desc>
<speed>2.050000</speed>
</trkpt>
<trkpt lat="22.032822" lon="104.019867">
<ele>489.683838</ele>
<time>2011-04-26T06:56:25Z</time>
<desc>lat.=22.032822, lon.=104.019867, Alt.=489.683838m. Speed=7.020000m/h.</desc>
<speed>1.950000</speed>
</trkpt>
<trkpt lat="22.032761" lon="104.019974">
<ele>489.347900</ele>
<time>2011-04-26T06:56:30Z</time>
<desc>lat.=22.032761, lon.=104.019974, Alt.=489.347900m. Speed=7.956000m/h.</desc>
<speed>2.210000</speed>
</trkpt>
<trkpt lat="22.032722" lon="104.020126">
<ele>488.269775</ele>
<time>2011-04-26T06:56:35Z</time>
<desc>lat.=22.032722, lon.=104.020126, Alt.=488.269775m. Speed=8.352000m/h.</desc>
<speed>2.320000</speed>
</trkpt>
<trkpt lat="22.032724" lon="104.020271">
<ele>486.793213</ele>
<time>2011-04-26T06:56:40Z</time>
<desc>lat.=22.032724, lon.=104.020271, Alt.=486.793213m. Speed=3.816000m/h.</desc>
<speed>1.060000</speed>
</trkpt>
<trkpt lat="22.032715" lon="104.020340">
<ele>485.808838</ele>
<time>2011-04-26T06:56:45Z</time>
<desc>lat.=22.032715, lon.=104.020340, Alt.=485.808838m. Speed=4.608000m/h.</desc>
<speed>1.280000</speed>
</trkpt>
<trkpt lat="22.032732" lon="104.020416">
<ele>484.652588</ele>
<time>2011-04-26T06:56:50Z</time>
<desc>lat.=22.032732, lon.=104.020416, Alt.=484.652588m. Speed=7.056000m/h.</desc>
<speed>1.960000</speed>
</trkpt>
<trkpt lat="22.032722" lon="104.020584">
<ele>483.699463</ele>
<time>2011-04-26T06:56:55Z</time>
<desc>lat.=22.032722, lon.=104.020584, Alt.=483.699463m. Speed=11.880000m/h.</desc>
<speed>3.300000</speed>
</trkpt>
<trkpt lat="22.032785" lon="104.020821">
<ele>482.715088</ele>
<time>2011-04-26T06:57:00Z</time>
<desc>lat.=22.032785, lon.=104.020821, Alt.=482.715088m. Speed=15.912000m/h.</desc>
<speed>4.420000</speed>
</trkpt>
<trkpt lat="22.032806" lon="104.021118">
<ele>481.301025</ele>
<time>2011-04-26T06:57:05Z</time>
<desc>lat.=22.032806, lon.=104.021118, Alt.=481.301025m. Speed=19.799999m/h.</desc>
<speed>5.500000</speed>
</trkpt>
<trkpt lat="22.032808" lon="104.021355">
<ele>479.426025</ele>
<time>2011-04-26T06:57:10Z</time>
<desc>lat.=22.032808, lon.=104.021355, Alt.=479.426025m. Speed=14.220000m/h.</desc>
<speed>3.950000</speed>
</trkpt>
<trkpt lat="22.033022" lon="104.021599">
<ele>477.121338</ele>
<time>2011-04-26T06:57:15Z</time>
<desc>lat.=22.033022, lon.=104.021599, Alt.=477.121338m. Speed=20.808001m/h.</desc>
<speed>5.780000</speed>
</trkpt>
<trkpt lat="22.033237" lon="104.021713">
<ele>475.246338</ele>
<time>2011-04-26T06:57:20Z</time>
<desc>lat.=22.033237, lon.=104.021713, Alt.=475.246338m. Speed=12.348000m/h.</desc>
<speed>3.430000</speed>
</trkpt>
<trkpt lat="22.033274" lon="104.021759">
<ele>475.176025</ele>
<time>2011-04-26T06:57:25Z</time>
<desc>lat.=22.033274, lon.=104.021759, Alt.=475.176025m. Speed=0.828000m/h.</desc>
<speed>0.230000</speed>
</trkpt>
<trkpt lat="22.033283" lon="104.021759">
<ele>475.426025</ele>
<time>2011-04-26T06:57:30Z</time>
<desc>lat.=22.033283, lon.=104.021759, Alt.=475.426025m. Speed=0.036000m/h.</desc>
<speed>0.010000</speed>
</trkpt>
<trkpt lat="22.033283" lon="104.021759">
<ele>475.301025</ele>
<time>2011-04-26T06:57:35Z</time>
<desc>lat.=22.033283, lon.=104.021759, Alt.=475.301025m. Speed=0.036000m/h.</desc>
<speed>0.010000</speed>
</trkpt>
<trkpt lat="22.033285" lon="104.021759">
<ele>475.246338</ele>
<time>2011-04-26T06:57:40Z</time>
<desc>lat.=22.033285, lon.=104.021759, Alt.=475.246338m. Speed=0.144000m/h.</desc>
<speed>0.040000</speed>
</trkpt>
<trkpt lat="22.033283" lon="104.021767">
<ele>475.230713</ele>
<time>2011-04-26T06:57:45Z</time>
<desc>lat.=22.033283, lon.=104.021767, Alt.=475.230713m. Speed=0.540000m/h.</desc>
<speed>0.150000</speed>
</trkpt>
<trkpt lat="22.033281" lon="104.021759">
<ele>475.215088</ele>
<time>2011-04-26T06:57:50Z</time>
<desc>lat.=22.033281, lon.=104.021759, Alt.=475.215088m. Speed=0.468000m/h.</desc>
<speed>0.130000</speed>
</trkpt>
<trkpt lat="22.033346" lon="104.021797">
<ele>475.558838</ele>
<time>2011-04-26T06:57:55Z</time>
<desc>lat.=22.033346, lon.=104.021797, Alt.=475.558838m. Speed=11.304000m/h.</desc>
<speed>3.140000</speed>
</trkpt>
<trkpt lat="22.033520" lon="104.021935">
<ele>475.566650</ele>
<time>2011-04-26T06:58:00Z</time>
<desc>lat.=22.033520, lon.=104.021935, Alt.=475.566650m. Speed=19.799999m/h.</desc>
<speed>5.500000</speed>
</trkpt>
<trkpt lat="22.033735" lon="104.022102">
<ele>475.004150</ele>
<time>2011-04-26T06:58:05Z</time>
<desc>lat.=22.033735, lon.=104.022102, Alt.=475.004150m. Speed=22.104000m/h.</desc>
<speed>6.140000</speed>
</trkpt>
<trkpt lat="22.033957" lon="104.022293">
<ele>474.355713</ele>
<time>2011-04-26T06:58:10Z</time>
<desc>lat.=22.033957, lon.=104.022293, Alt.=474.355713m. Speed=20.808001m/h.</desc>
<speed>5.780000</speed>
</trkpt>
<trkpt lat="22.034111" lon="104.022636">
<ele>473.488525</ele>
<time>2011-04-26T06:58:15Z</time>
<desc>lat.=22.034111, lon.=104.022636, Alt.=473.488525m. Speed=30.924000m/h.</desc>
<speed>8.590000</speed>
</trkpt>
<trkpt lat="22.034214" lon="104.023033">
<ele>472.746338</ele>
<time>2011-04-26T06:58:20Z</time>
<desc>lat.=22.034214, lon.=104.023033, Alt.=472.746338m. Speed=29.268000m/h.</desc>
<speed>8.130000</speed>
</trkpt>
<trkpt lat="22.034369" lon="104.023376">
<ele>471.746338</ele>
<time>2011-04-26T06:58:25Z</time>
<desc>lat.=22.034369, lon.=104.023376, Alt.=471.746338m. Speed=23.652000m/h.</desc>
<speed>6.570000</speed>
</trkpt>
<trkpt lat="22.034391" lon="104.023720">
<ele>471.074463</ele>
<time>2011-04-26T06:58:30Z</time>
<desc>lat.=22.034391, lon.=104.023720, Alt.=471.074463m. Speed=24.299999m/h.</desc>
<speed>6.750000</speed>
</trkpt>
<trkpt lat="22.034388" lon="104.024132">
<ele>470.058838</ele>
<time>2011-04-26T06:58:35Z</time>
<desc>lat.=22.034388, lon.=104.024132, Alt.=470.058838m. Speed=31.068001m/h.</desc>
<speed>8.630000</speed>
</trkpt>
<trkpt lat="22.034445" lon="104.024612">
<ele>469.644775</ele>
<time>2011-04-26T06:58:40Z</time>
<desc>lat.=22.034445, lon.=104.024612, Alt.=469.644775m. Speed=33.119999m/h.</desc>
<speed>9.200000</speed>
</trkpt>
<trkpt lat="22.034555" lon="104.025093">
<ele>469.957275</ele>
<time>2011-04-26T06:58:45Z</time>
<desc>lat.=22.034555, lon.=104.025093, Alt.=469.957275m. Speed=34.056000m/h.</desc>
<speed>9.460000</speed>
</trkpt>
<trkpt lat="22.034685" lon="104.025497">
<ele>470.504150</ele>
<time>2011-04-26T06:58:50Z</time>
<desc>lat.=22.034685, lon.=104.025497, Alt.=470.504150m. Speed=24.732000m/h.</desc>
<speed>6.870000</speed>
</trkpt>
<trkpt lat="22.034765" lon="104.025703">
<ele>472.386963</ele>
<time>2011-04-26T06:58:55Z</time>
<desc>lat.=22.034765, lon.=104.025703, Alt.=472.386963m. Speed=8.892000m/h.</desc>
<speed>2.470000</speed>
</trkpt>
<trkpt lat="22.034809" lon="104.025856">
<ele>472.699463</ele>
<time>2011-04-26T06:59:00Z</time>
<desc>lat.=22.034809, lon.=104.025856, Alt.=472.699463m. Speed=9.900000m/h.</desc>
<speed>2.750000</speed>
</trkpt>
<trkpt lat="22.034821" lon="104.025986">
<ele>473.051025</ele>
<time>2011-04-26T06:59:05Z</time>
<desc>lat.=22.034821, lon.=104.025986, Alt.=473.051025m. Speed=5.148000m/h.</desc>
<speed>1.430000</speed>
</trkpt>
<trkpt lat="22.034908" lon="104.026077">
<ele>472.832275</ele>
<time>2011-04-26T06:59:10Z</time>
<desc>lat.=22.034908, lon.=104.026077, Alt.=472.832275m. Speed=2.124000m/h.</desc>
<speed>0.590000</speed>
</trkpt>
<trkpt lat="22.034918" lon="104.026077">
<ele>472.535400</ele>
<time>2011-04-26T06:59:15Z</time>
<desc>lat.=22.034918, lon.=104.026077, Alt.=472.535400m. Speed=1.476000m/h.</desc>
<speed>0.410000</speed>
</trkpt>
<trkpt lat="22.034922" lon="104.026077">
<ele>472.215088</ele>
<time>2011-04-26T06:59:20Z</time>
<desc>lat.=22.034922, lon.=104.026077, Alt.=472.215088m. Speed=0.180000m/h.</desc>
<speed>0.050000</speed>
</trkpt>
<trkpt lat="22.034927" lon="104.026077">
<ele>472.051025</ele>
<time>2011-04-26T06:59:25Z</time>
<desc>lat.=22.034927, lon.=104.026077, Alt.=472.051025m. Speed=0.612000m/h.</desc>
<speed>0.170000</speed>
</trkpt>
<trkpt lat="22.034935" lon="104.026093">
<ele>472.465088</ele>
<time>2011-04-26T06:59:30Z</time>
<desc>lat.=22.034935, lon.=104.026093, Alt.=472.465088m. Speed=0.360000m/h.</desc>
<speed>0.100000</speed>
</trkpt>
<trkpt lat="22.034939" lon="104.026100">
<ele>472.597900</ele>
<time>2011-04-26T06:59:35Z</time>
<desc>lat.=22.034939, lon.=104.026100, Alt.=472.597900m. Speed=0.612000m/h.</desc>
<speed>0.170000</speed>
</trkpt>
<trkpt lat="22.034941" lon="104.026108">
<ele>472.621338</ele>
<time>2011-04-26T06:59:40Z</time>
<desc>lat.=22.034941, lon.=104.026108, Alt.=472.621338m. Speed=0.576000m/h.</desc>
<speed>0.160000</speed>
</trkpt>
<trkpt lat="22.034946" lon="104.026115">
<ele>472.605713</ele>
<time>2011-04-26T06:59:45Z</time>
<desc>lat.=22.034946, lon.=104.026115, Alt.=472.605713m. Speed=0.756000m/h.</desc>
<speed>0.210000</speed>
</trkpt>
<trkpt lat="22.034952" lon="104.026131">
<ele>472.613525</ele>
<time>2011-04-26T06:59:50Z</time>
<desc>lat.=22.034952, lon.=104.026131, Alt.=472.613525m. Speed=0.936000m/h.</desc>
<speed>0.260000</speed>
</trkpt>
<trkpt lat="22.034956" lon="104.026146">
<ele>472.636963</ele>
<time>2011-04-26T06:59:55Z</time>
<desc>lat.=22.034956, lon.=104.026146, Alt.=472.636963m. Speed=1.764000m/h.</desc>
<speed>0.490000</speed>
</trkpt>
<trkpt lat="22.034956" lon="104.026169">
<ele>472.636963</ele>
<time>2011-04-26T07:00:00Z</time>
<desc>lat.=22.034956, lon.=104.026169, Alt.=472.636963m. Speed=1.296000m/h.</desc>
<speed>0.360000</speed>
</trkpt>
<trkpt lat="22.034954" lon="104.026184">
<ele>472.636963</ele>
<time>2011-04-26T07:00:05Z</time>
<desc>lat.=22.034954, lon.=104.026184, Alt.=472.636963m. Speed=0.180000m/h.</desc>
<speed>0.050000</speed>
</trkpt>
<trkpt lat="22.034956" lon="104.026184">
<ele>472.644775</ele>
<time>2011-04-26T07:00:10Z</time>
<desc>lat.=22.034956, lon.=104.026184, Alt.=472.644775m. Speed=0.864000m/h.</desc>
<speed>0.240000</speed>
</trkpt>
<trkpt lat="22.034960" lon="104.026184">
<ele>472.676025</ele>
<time>2011-04-26T07:00:15Z</time>
<desc>lat.=22.034960, lon.=104.026184, Alt.=472.676025m. Speed=0.144000m/h.</desc>
<speed>0.040000</speed>
</trkpt>
<trkpt lat="22.034958" lon="104.026184">
<ele>472.730713</ele>
<time>2011-04-26T07:00:20Z</time>
<desc>lat.=22.034958, lon.=104.026184, Alt.=472.730713m. Speed=0.468000m/h.</desc>
<speed>0.130000</speed>
</trkpt>
<trkpt lat="22.034954" lon="104.026192">
<ele>472.715088</ele>
<time>2011-04-26T07:00:25Z</time>
<desc>lat.=22.034954, lon.=104.026192, Alt.=472.715088m. Speed=0.576000m/h.</desc>
<speed>0.160000</speed>
</trkpt>
<trkpt lat="22.034948" lon="104.026199">
<ele>472.738525</ele>
<time>2011-04-26T07:00:30Z</time>
<desc>lat.=22.034948, lon.=104.026199, Alt.=472.738525m. Speed=0.216000m/h.</desc>
<speed>0.060000</speed>
</trkpt>
<trkpt lat="22.034946" lon="104.026192">
<ele>472.777588</ele>
<time>2011-04-26T07:00:35Z</time>
<desc>lat.=22.034946, lon.=104.026192, Alt.=472.777588m. Speed=0.144000m/h.</desc>
<speed>0.040000</speed>
</trkpt>
<trkpt lat="22.034954" lon="104.026199">
<ele>472.816650</ele>
<time>2011-04-26T07:00:40Z</time>
<desc>lat.=22.034954, lon.=104.026199, Alt.=472.816650m. Speed=0.504000m/h.</desc>
<speed>0.140000</speed>
</trkpt>
<trkpt lat="22.034958" lon="104.026199">
<ele>472.801025</ele>
<time>2011-04-26T07:00:45Z</time>
<desc>lat.=22.034958, lon.=104.026199, Alt.=472.801025m. Speed=0.396000m/h.</desc>
<speed>0.110000</speed>
</trkpt>
<trkpt lat="22.034960" lon="104.026215">
<ele>472.879150</ele>
<time>2011-04-26T07:00:50Z</time>
<desc>lat.=22.034960, lon.=104.026215, Alt.=472.879150m. Speed=0.468000m/h.</desc>
<speed>0.130000</speed>
</trkpt>
<trkpt lat="22.034943" lon="104.026230">
<ele>473.472900</ele>
<time>2011-04-26T07:00:55Z</time>
<desc>lat.=22.034943, lon.=104.026230, Alt.=473.472900m. Speed=0.864000m/h.</desc>
<speed>0.240000</speed>
</trkpt>
<trkpt lat="22.034954" lon="104.026245">
<ele>473.980713</ele>
<time>2011-04-26T07:01:00Z</time>
<desc>lat.=22.034954, lon.=104.026245, Alt.=473.980713m. Speed=0.396000m/h.</desc>
<speed>0.110000</speed>
</trkpt>
<trkpt lat="22.034964" lon="104.026276">
<ele>475.582275</ele>
<time>2011-04-26T07:01:05Z</time>
<desc>lat.=22.034964, lon.=104.026276, Alt.=475.582275m. Speed=0.324000m/h.</desc>
<speed>0.090000</speed>
</trkpt>
<trkpt lat="22.034966" lon="104.026291">
<ele>476.832275</ele>
<time>2011-04-26T07:01:10Z</time>
<desc>lat.=22.034966, lon.=104.026291, Alt.=476.832275m. Speed=0.396000m/h.</desc>
<speed>0.110000</speed>
</trkpt>
<trkpt lat="22.034969" lon="104.026283">
<ele>477.910400</ele>
<time>2011-04-26T07:01:15Z</time>
<desc>lat.=22.034969, lon.=104.026283, Alt.=477.910400m. Speed=0.108000m/h.</desc>
<speed>0.030000</speed>
</trkpt>
<trkpt lat="22.034973" lon="104.026283">
<ele>479.222900</ele>
<time>2011-04-26T07:01:20Z</time>
<desc>lat.=22.034973, lon.=104.026283, Alt.=479.222900m. Speed=0.072000m/h.</desc>
<speed>0.020000</speed>
</trkpt>
<trkpt lat="22.034966" lon="104.026268">
<ele>479.769775</ele>
<time>2011-04-26T07:01:25Z</time>
<desc>lat.=22.034966, lon.=104.026268, Alt.=479.769775m. Speed=0.396000m/h.</desc>
<speed>0.110000</speed>
</trkpt>
<trkpt lat="22.034973" lon="104.026268">
<ele>480.472900</ele>
<time>2011-04-26T07:01:30Z</time>
<desc>lat.=22.034973, lon.=104.026268, Alt.=480.472900m. Speed=0.252000m/h.</desc>
<speed>0.070000</speed>
</trkpt>
<trkpt lat="22.034966" lon="104.026268">
<ele>480.371338</ele>
<time>2011-04-26T07:01:35Z</time>
<desc>lat.=22.034966, lon.=104.026268, Alt.=480.371338m. Speed=0.360000m/h.</desc>
<speed>0.100000</speed>
</trkpt>
<trkpt lat="22.034975" lon="104.026237">
<ele>482.551025</ele>
<time>2011-04-26T07:01:40Z</time>
<desc>lat.=22.034975, lon.=104.026237, Alt.=482.551025m. Speed=0.612000m/h.</desc>
<speed>0.170000</speed>
</trkpt>
<trkpt lat="22.034971" lon="104.026237">
<ele>482.777588</ele>
<time>2011-04-26T07:01:45Z</time>
<desc>lat.=22.034971, lon.=104.026237, Alt.=482.777588m. Speed=0.504000m/h.</desc>
<speed>0.140000</speed>
</trkpt>
<trkpt lat="22.034946" lon="104.026245">
<ele>482.715088</ele>
<time>2011-04-26T07:01:50Z</time>
<desc>lat.=22.034946, lon.=104.026245, Alt.=482.715088m. Speed=0.648000m/h.</desc>
<speed>0.180000</speed>
</trkpt>
<trkpt lat="22.034935" lon="104.026260">
<ele>482.902588</ele>
<time>2011-04-26T07:01:55Z</time>
<desc>lat.=22.034935, lon.=104.026260, Alt.=482.902588m. Speed=0.936000m/h.</desc>
<speed>0.260000</speed>
</trkpt>
<trkpt lat="22.034939" lon="104.026268">
<ele>482.613525</ele>
<time>2011-04-26T07:02:00Z</time>
<desc>lat.=22.034939, lon.=104.026268, Alt.=482.613525m. Speed=0.324000m/h.</desc>
<speed>0.090000</speed>
</trkpt>
<trkpt lat="22.034920" lon="104.026245">
<ele>482.926025</ele>
<time>2011-04-26T07:02:05Z</time>
<desc>lat.=22.034920, lon.=104.026245, Alt.=482.926025m. Speed=0.288000m/h.</desc>
<speed>0.080000</speed>
</trkpt>
<trkpt lat="22.034906" lon="104.026230">
<ele>482.558838</ele>
<time>2011-04-26T07:02:10Z</time>
<desc>lat.=22.034906, lon.=104.026230, Alt.=482.558838m. Speed=0.252000m/h.</desc>
<speed>0.070000</speed>
</trkpt>
<trkpt lat="22.034922" lon="104.026268">
<ele>481.371338</ele>
<time>2011-04-26T07:02:15Z</time>
<desc>lat.=22.034922, lon.=104.026268, Alt.=481.371338m. Speed=0.324000m/h.</desc>
<speed>0.090000</speed>
</trkpt>
<trkpt lat="22.034935" lon="104.026276">
<ele>481.113525</ele>
<time>2011-04-26T07:02:20Z</time>
<desc>lat.=22.034935, lon.=104.026276, Alt.=481.113525m. Speed=0.720000m/h.</desc>
<speed>0.200000</speed>
</trkpt>
<trkpt lat="22.034941" lon="104.026276">
<ele>481.105713</ele>
<time>2011-04-26T07:02:25Z</time>
<desc>lat.=22.034941, lon.=104.026276, Alt.=481.105713m. Speed=0.540000m/h.</desc>
<speed>0.150000</speed>
</trkpt>
<trkpt lat="22.034946" lon="104.026283">
<ele>481.136963</ele>
<time>2011-04-26T07:02:30Z</time>
<desc>lat.=22.034946, lon.=104.026283, Alt.=481.136963m. Speed=0.576000m/h.</desc>
<speed>0.160000</speed>
</trkpt>
<trkpt lat="22.034948" lon="104.026283">
<ele>481.129150</ele>
<time>2011-04-26T07:02:35Z</time>
<desc>lat.=22.034948, lon.=104.026283, Alt.=481.129150m. Speed=0.144000m/h.</desc>
<speed>0.040000</speed>
</trkpt>
<trkpt lat="22.034948" lon="104.026276">
<ele>481.113525</ele>
<time>2011-04-26T07:02:40Z</time>
<desc>lat.=22.034948, lon.=104.026276, Alt.=481.113525m. Speed=1.044000m/h.</desc>
<speed>0.290000</speed>
</trkpt>
<trkpt lat="22.034950" lon="104.026268">
<ele>481.097900</ele>
<time>2011-04-26T07:02:45Z</time>
<desc>lat.=22.034950, lon.=104.026268, Alt.=481.097900m. Speed=0.432000m/h.</desc>
<speed>0.120000</speed>
</trkpt>
<trkpt lat="22.034954" lon="104.026276">
<ele>481.074463</ele>
<time>2011-04-26T07:02:50Z</time>
<desc>lat.=22.034954, lon.=104.026276, Alt.=481.074463m. Speed=0.864000m/h.</desc>
<speed>0.240000</speed>
</trkpt>
<trkpt lat="22.034956" lon="104.026283">
<ele>481.121338</ele>
<time>2011-04-26T07:02:55Z</time>
<desc>lat.=22.034956, lon.=104.026283, Alt.=481.121338m. Speed=0.180000m/h.</desc>
<speed>0.050000</speed>
</trkpt>
<trkpt lat="22.034956" lon="104.026283">
<ele>481.168213</ele>
<time>2011-04-26T07:03:00Z</time>
<desc>lat.=22.034956, lon.=104.026283, Alt.=481.168213m. Speed=0.252000m/h.</desc>
<speed>0.070000</speed>
</trkpt>
<trkpt lat="22.034958" lon="104.026283">
<ele>481.191650</ele>
<time>2011-04-26T07:03:05Z</time>
<desc>lat.=22.034958, lon.=104.026283, Alt.=481.191650m. Speed=0.360000m/h.</desc>
<speed>0.100000</speed>
</trkpt>
<trkpt lat="22.034962" lon="104.026291">
<ele>481.215088</ele>
<time>2011-04-26T07:03:10Z</time>
<desc>lat.=22.034962, lon.=104.026291, Alt.=481.215088m. Speed=1.620000m/h.</desc>
<speed>0.450000</speed>
</trkpt>
<trkpt lat="22.034996" lon="104.026329">
<ele>481.910400</ele>
<time>2011-04-26T07:03:15Z</time>
<desc>lat.=22.034996, lon.=104.026329, Alt.=481.910400m. Speed=1.260000m/h.</desc>
<speed>0.350000</speed>
</trkpt>
<trkpt lat="22.035002" lon="104.026337">
<ele>483.316650</ele>
<time>2011-04-26T07:03:20Z</time>
<desc>lat.=22.035002, lon.=104.026337, Alt.=483.316650m. Speed=0.684000m/h.</desc>
<speed>0.190000</speed>
</trkpt>
<trkpt lat="22.035007" lon="104.026329">
<ele>483.386963</ele>
<time>2011-04-26T07:03:25Z</time>
<desc>lat.=22.035007, lon.=104.026329, Alt.=483.386963m. Speed=0.216000m/h.</desc>
<speed>0.060000</speed>
</trkpt>
<trkpt lat="22.035006" lon="104.026321">
<ele>483.558838</ele>
<time>2011-04-26T07:03:30Z</time>
<desc>lat.=22.035006, lon.=104.026321, Alt.=483.558838m. Speed=0.720000m/h.</desc>
<speed>0.200000</speed>
</trkpt>
<trkpt lat="22.034998" lon="104.026321">
<ele>483.801025</ele>
<time>2011-04-26T07:03:35Z</time>
<desc>lat.=22.034998, lon.=104.026321, Alt.=483.801025m. Speed=0.792000m/h.</desc>
<speed>0.220000</speed>
</trkpt>
<trkpt lat="22.034990" lon="104.026306">
<ele>484.136963</ele>
<time>2011-04-26T07:03:40Z</time>
<desc>lat.=22.034990, lon.=104.026306, Alt.=484.136963m. Speed=1.080000m/h.</desc>
<speed>0.300000</speed>
</trkpt>
<trkpt lat="22.034967" lon="104.026245">
<ele>484.902588</ele>
<time>2011-04-26T07:03:45Z</time>
<desc>lat.=22.034967, lon.=104.026245, Alt.=484.902588m. Speed=1.224000m/h.</desc>
<speed>0.340000</speed>
</trkpt>
<trkpt lat="22.034966" lon="104.026215">
<ele>485.082275</ele>
<time>2011-04-26T07:03:50Z</time>
<desc>lat.=22.034966, lon.=104.026215, Alt.=485.082275m. Speed=0.684000m/h.</desc>
<speed>0.190000</speed>
</trkpt>
<trkpt lat="22.034962" lon="104.026215">
<ele>485.480713</ele>
<time>2011-04-26T07:03:55Z</time>
<desc>lat.=22.034962, lon.=104.026215, Alt.=485.480713m. Speed=0.180000m/h.</desc>
<speed>0.050000</speed>
</trkpt>
<trkpt lat="22.034962" lon="104.026207">
<ele>485.879150</ele>
<time>2011-04-26T07:04:00Z</time>
<desc>lat.=22.034962, lon.=104.026207, Alt.=485.879150m. Speed=0.108000m/h.</desc>
<speed>0.030000</speed>
</trkpt>
<trkpt lat="22.034960" lon="104.026207">
<ele>486.277588</ele>
<time>2011-04-26T07:04:05Z</time>
<desc>lat.=22.034960, lon.=104.026207, Alt.=486.277588m. Speed=0.432000m/h.</desc>
<speed>0.120000</speed>
</trkpt>
<trkpt lat="22.034962" lon="104.026207">
<ele>486.761963</ele>
<time>2011-04-26T07:04:10Z</time>
<desc>lat.=22.034962, lon.=104.026207, Alt.=486.761963m. Speed=0.252000m/h.</desc>
<speed>0.070000</speed>
</trkpt>
<trkpt lat="22.034964" lon="104.026207">
<ele>487.355713</ele>
<time>2011-04-26T07:04:15Z</time>
<desc>lat.=22.034964, lon.=104.026207, Alt.=487.355713m. Speed=0.108000m/h.</desc>
<speed>0.030000</speed>
</trkpt>
<trkpt lat="22.034962" lon="104.026207">
<ele>488.027588</ele>
<time>2011-04-26T07:04:20Z</time>
<desc>lat.=22.034962, lon.=104.026207, Alt.=488.027588m. Speed=0.180000m/h.</desc>
<speed>0.050000</speed>
</trkpt>
<trkpt lat="22.034960" lon="104.026215">
<ele>488.769775</ele>
<time>2011-04-26T07:04:25Z</time>
<desc>lat.=22.034960, lon.=104.026215, Alt.=488.769775m. Speed=0.432000m/h.</desc>
<speed>0.120000</speed>
</trkpt>
<trkpt lat="22.034956" lon="104.026215">
<ele>489.597900</ele>
<time>2011-04-26T07:04:30Z</time>
<desc>lat.=22.034956, lon.=104.026215, Alt.=489.597900m. Speed=0.396000m/h.</desc>
<speed>0.110000</speed>
</trkpt>
<trkpt lat="22.034954" lon="104.026222">
<ele>490.418213</ele>
<time>2011-04-26T07:04:35Z</time>
<desc>lat.=22.034954, lon.=104.026222, Alt.=490.418213m. Speed=0.540000m/h.</desc>
<speed>0.150000</speed>
</trkpt>
<trkpt lat="22.034952" lon="104.026230">
<ele>491.168213</ele>
<time>2011-04-26T07:04:40Z</time>
<desc>lat.=22.034952, lon.=104.026230, Alt.=491.168213m. Speed=0.540000m/h.</desc>
<speed>0.150000</speed>
</trkpt>
<trkpt lat="22.034946" lon="104.026237">
<ele>491.957275</ele>
<time>2011-04-26T07:04:45Z</time>
<desc>lat.=22.034946, lon.=104.026237, Alt.=491.957275m. Speed=0.612000m/h.</desc>
<speed>0.170000</speed>
</trkpt>
<trkpt lat="22.034943" lon="104.026245">
<ele>492.707275</ele>
<time>2011-04-26T07:04:50Z</time>
<desc>lat.=22.034943, lon.=104.026245, Alt.=492.707275m. Speed=0.504000m/h.</desc>
<speed>0.140000</speed>
</trkpt>
<trkpt lat="22.034939" lon="104.026253">
<ele>493.441650</ele>
<time>2011-04-26T07:04:55Z</time>
<desc>lat.=22.034939, lon.=104.026253, Alt.=493.441650m. Speed=0.612000m/h.</desc>
<speed>0.170000</speed>
</trkpt>
<trkpt lat="22.034935" lon="104.026260">
<ele>494.121338</ele>
<time>2011-04-26T07:05:00Z</time>
<desc>lat.=22.034935, lon.=104.026260, Alt.=494.121338m. Speed=0.360000m/h.</desc>
<speed>0.100000</speed>
</trkpt>
<trkpt lat="22.034933" lon="104.026260">
<ele>494.926025</ele>
<time>2011-04-26T07:05:05Z</time>
<desc>lat.=22.034933, lon.=104.026260, Alt.=494.926025m. Speed=0.396000m/h.</desc>
<speed>0.110000</speed>
</trkpt>
<trkpt lat="22.034929" lon="104.026268">
<ele>495.910400</ele>
<time>2011-04-26T07:05:10Z</time>
<desc>lat.=22.034929, lon.=104.026268, Alt.=495.910400m. Speed=0.180000m/h.</desc>
<speed>0.050000</speed>
</trkpt>
<trkpt lat="22.034927" lon="104.026268">
<ele>496.847900</ele>
<time>2011-04-26T07:05:15Z</time>
<desc>lat.=22.034927, lon.=104.026268, Alt.=496.847900m. Speed=0.216000m/h.</desc>
<speed>0.060000</speed>
</trkpt>
<trkpt lat="22.034924" lon="104.026268">
<ele>497.808838</ele>
<time>2011-04-26T07:05:20Z</time>
<desc>lat.=22.034924, lon.=104.026268, Alt.=497.808838m. Speed=0.396000m/h.</desc>
<speed>0.110000</speed>
</trkpt>
<trkpt lat="22.034924" lon="104.026276">
<ele>498.840088</ele>
<time>2011-04-26T07:05:25Z</time>
<desc>lat.=22.034924, lon.=104.026276, Alt.=498.840088m. Speed=0.324000m/h.</desc>
<speed>0.090000</speed>
</trkpt>
<trkpt lat="22.034925" lon="104.026276">
<ele>499.894775</ele>
<time>2011-04-26T07:05:30Z</time>
<desc>lat.=22.034925, lon.=104.026276, Alt.=499.894775m. Speed=0.144000m/h.</desc>
<speed>0.040000</speed>
</trkpt>
<trkpt lat="22.034924" lon="104.026276">
<ele>500.965088</ele>
<time>2011-04-26T07:05:35Z</time>
<desc>lat.=22.034924, lon.=104.026276, Alt.=500.965088m. Speed=0.108000m/h.</desc>
<speed>0.030000</speed>
</trkpt>
<trkpt lat="22.034925" lon="104.026276">
<ele>502.105713</ele>
<time>2011-04-26T07:05:40Z</time>
<desc>lat.=22.034925, lon.=104.026276, Alt.=502.105713m. Speed=0.144000m/h.</desc>
<speed>0.040000</speed>
</trkpt>
<trkpt lat="22.034927" lon="104.026268">
<ele>503.371338</ele>
<time>2011-04-26T07:05:45Z</time>
<desc>lat.=22.034927, lon.=104.026268, Alt.=503.371338m. Speed=0.576000m/h.</desc>
<speed>0.160000</speed>
</trkpt>
<trkpt lat="22.034931" lon="104.026260">
<ele>504.644775</ele>
<time>2011-04-26T07:05:50Z</time>
<desc>lat.=22.034931, lon.=104.026260, Alt.=504.644775m. Speed=0.504000m/h.</desc>
<speed>0.140000</speed>
</trkpt>
<trkpt lat="22.034937" lon="104.026260">
<ele>505.941650</ele>
<time>2011-04-26T07:05:55Z</time>
<desc>lat.=22.034937, lon.=104.026260, Alt.=505.941650m. Speed=0.576000m/h.</desc>
<speed>0.160000</speed>
</trkpt>
<trkpt lat="22.034941" lon="104.026253">
<ele>507.183838</ele>
<time>2011-04-26T07:06:00Z</time>
<desc>lat.=22.034941, lon.=104.026253, Alt.=507.183838m. Speed=0.684000m/h.</desc>
<speed>0.190000</speed>
</trkpt>
<trkpt lat="22.034946" lon="104.026245">
<ele>508.418213</ele>
<time>2011-04-26T07:06:05Z</time>
<desc>lat.=22.034946, lon.=104.026245, Alt.=508.418213m. Speed=0.504000m/h.</desc>
<speed>0.140000</speed>
</trkpt>
<trkpt lat="22.034950" lon="104.026237">
<ele>509.613525</ele>
<time>2011-04-26T07:06:10Z</time>
<desc>lat.=22.034950, lon.=104.026237, Alt.=509.613525m. Speed=0.504000m/h.</desc>
<speed>0.140000</speed>
</trkpt>
<trkpt lat="22.034954" lon="104.026230">
<ele>510.738525</ele>
<time>2011-04-26T07:06:15Z</time>
<desc>lat.=22.034954, lon.=104.026230, Alt.=510.738525m. Speed=0.540000m/h.</desc>
<speed>0.150000</speed>
</trkpt>
<trkpt lat="22.034958" lon="104.026230">
<ele>511.816650</ele>
<time>2011-04-26T07:06:20Z</time>
<desc>lat.=22.034958, lon.=104.026230, Alt.=511.816650m. Speed=0.504000m/h.</desc>
<speed>0.140000</speed>
</trkpt>
<trkpt lat="22.034962" lon="104.026222">
<ele>512.883301</ele>
<time>2011-04-26T07:06:25Z</time>
<desc>lat.=22.034962, lon.=104.026222, Alt.=512.883301m. Speed=0.504000m/h.</desc>
<speed>0.140000</speed>
</trkpt>
<trkpt lat="22.034964" lon="104.026215">
<ele>513.883301</ele>
<time>2011-04-26T07:06:30Z</time>
<desc>lat.=22.034964, lon.=104.026215, Alt.=513.883301m. Speed=0.576000m/h.</desc>
<speed>0.160000</speed>
</trkpt>
<trkpt lat="22.034966" lon="104.026207">
<ele>514.820801</ele>
<time>2011-04-26T07:06:35Z</time>
<desc>lat.=22.034966, lon.=104.026207, Alt.=514.820801m. Speed=0.252000m/h.</desc>
<speed>0.070000</speed>
</trkpt>
<trkpt lat="22.034962" lon="104.026207">
<ele>515.617676</ele>
<time>2011-04-26T07:06:40Z</time>
<desc>lat.=22.034962, lon.=104.026207, Alt.=515.617676m. Speed=0.180000m/h.</desc>
<speed>0.050000</speed>
</trkpt>
<trkpt lat="22.034958" lon="104.026207">
<ele>516.289551</ele>
<time>2011-04-26T07:06:45Z</time>
<desc>lat.=22.034958, lon.=104.026207, Alt.=516.289551m. Speed=0.432000m/h.</desc>
<speed>0.120000</speed>
</trkpt>
<trkpt lat="22.034956" lon="104.026215">
<ele>516.852051</ele>
<time>2011-04-26T07:06:50Z</time>
<desc>lat.=22.034956, lon.=104.026215, Alt.=516.852051m. Speed=0.324000m/h.</desc>
<speed>0.090000</speed>
</trkpt>
<trkpt lat="22.034954" lon="104.026215">
<ele>517.336426</ele>
<time>2011-04-26T07:06:55Z</time>
<desc>lat.=22.034954, lon.=104.026215, Alt.=517.336426m. Speed=0.540000m/h.</desc>
<speed>0.150000</speed>
</trkpt>
<trkpt lat="22.034948" lon="104.026222">
<ele>517.742676</ele>
<time>2011-04-26T07:07:00Z</time>
<desc>lat.=22.034948, lon.=104.026222, Alt.=517.742676m. Speed=0.432000m/h.</desc>
<speed>0.120000</speed>
</trkpt>
<trkpt lat="22.034945" lon="104.026230">
<ele>518.086426</ele>
<time>2011-04-26T07:07:05Z</time>
<desc>lat.=22.034945, lon.=104.026230, Alt.=518.086426m. Speed=0.612000m/h.</desc>
<speed>0.170000</speed>
</trkpt>
<trkpt lat="22.034937" lon="104.026237">
<ele>518.352051</ele>
<time>2011-04-26T07:07:10Z</time>
<desc>lat.=22.034937, lon.=104.026237, Alt.=518.352051m. Speed=0.936000m/h.</desc>
<speed>0.260000</speed>
</trkpt>
<trkpt lat="22.034925" lon="104.026253">
<ele>518.398926</ele>
<time>2011-04-26T07:07:15Z</time>
<desc>lat.=22.034925, lon.=104.026253, Alt.=518.398926m. Speed=1.116000m/h.</desc>
<speed>0.310000</speed>
</trkpt>
<trkpt lat="22.034918" lon="104.026253">
<ele>516.070801</ele>
<time>2011-04-26T07:07:20Z</time>
<desc>lat.=22.034918, lon.=104.026253, Alt.=516.070801m. Speed=0.648000m/h.</desc>
<speed>0.180000</speed>
</trkpt>
<trkpt lat="22.034914" lon="104.026260">
<ele>515.945801</ele>
<time>2011-04-26T07:07:25Z</time>
<desc>lat.=22.034914, lon.=104.026260, Alt.=515.945801m. Speed=0.216000m/h.</desc>
<speed>0.060000</speed>
</trkpt>
<trkpt lat="22.034912" lon="104.026260">
<ele>515.586426</ele>
<time>2011-04-26T07:07:30Z</time>
<desc>lat.=22.034912, lon.=104.026260, Alt.=515.586426m. Speed=0.144000m/h.</desc>
<speed>0.040000</speed>
</trkpt>
<trkpt lat="22.034914" lon="104.026268">
<ele>515.117676</ele>
<time>2011-04-26T07:07:35Z</time>
<desc>lat.=22.034914, lon.=104.026268, Alt.=515.117676m. Speed=0.252000m/h.</desc>
<speed>0.070000</speed>
</trkpt>
<trkpt lat="22.034912" lon="104.026268">
<ele>514.555176</ele>
<time>2011-04-26T07:07:40Z</time>
<desc>lat.=22.034912, lon.=104.026268, Alt.=514.555176m. Speed=0.396000m/h.</desc>
<speed>0.110000</speed>
</trkpt>
<trkpt lat="22.034910" lon="104.026268">
<ele>513.883301</ele>
<time>2011-04-26T07:07:45Z</time>
<desc>lat.=22.034910, lon.=104.026268, Alt.=513.883301m. Speed=0.108000m/h.</desc>
<speed>0.030000</speed>
</trkpt>
<trkpt lat="22.034914" lon="104.026268">
<ele>513.195801</ele>
<time>2011-04-26T07:07:50Z</time>
<desc>lat.=22.034914, lon.=104.026268, Alt.=513.195801m. Speed=0.648000m/h.</desc>
<speed>0.180000</speed>
</trkpt>
<trkpt lat="22.034920" lon="104.026276">
<ele>512.461426</ele>
<time>2011-04-26T07:07:55Z</time>
<desc>lat.=22.034920, lon.=104.026276, Alt.=512.461426m. Speed=0.648000m/h.</desc>
<speed>0.180000</speed>
</trkpt>
<trkpt lat="22.034922" lon="104.026291">
<ele>511.715088</ele>
<time>2011-04-26T07:08:00Z</time>
<desc>lat.=22.034922, lon.=104.026291, Alt.=511.715088m. Speed=0.612000m/h.</desc>
<speed>0.170000</speed>
</trkpt>
<trkpt lat="22.034922" lon="104.026299">
<ele>510.957275</ele>
<time>2011-04-26T07:08:05Z</time>
<desc>lat.=22.034922, lon.=104.026299, Alt.=510.957275m. Speed=0.684000m/h.</desc>
<speed>0.190000</speed>
</trkpt>
<trkpt lat="22.034918" lon="104.026306">
<ele>510.152588</ele>
<time>2011-04-26T07:08:10Z</time>
<desc>lat.=22.034918, lon.=104.026306, Alt.=510.152588m. Speed=0.576000m/h.</desc>
<speed>0.160000</speed>
</trkpt>
<trkpt lat="22.034914" lon="104.026314">
<ele>509.433838</ele>
<time>2011-04-26T07:08:15Z</time>
<desc>lat.=22.034914, lon.=104.026314, Alt.=509.433838m. Speed=0.756000m/h.</desc>
<speed>0.210000</speed>
</trkpt>
<trkpt lat="22.034908" lon="104.026321">
<ele>508.769775</ele>
<time>2011-04-26T07:08:20Z</time>
<desc>lat.=22.034908, lon.=104.026321, Alt.=508.769775m. Speed=0.648000m/h.</desc>
<speed>0.180000</speed>
</trkpt>
<trkpt lat="22.034904" lon="104.026329">
<ele>508.176025</ele>
<time>2011-04-26T07:08:25Z</time>
<desc>lat.=22.034904, lon.=104.026329, Alt.=508.176025m. Speed=0.504000m/h.</desc>
<speed>0.140000</speed>
</trkpt>
<trkpt lat="22.034901" lon="104.026329">
<ele>507.636963</ele>
<time>2011-04-26T07:08:30Z</time>
<desc>lat.=22.034901, lon.=104.026329, Alt.=507.636963m. Speed=0.432000m/h.</desc>
<speed>0.120000</speed>
</trkpt>
<trkpt lat="22.034899" lon="104.026337">
<ele>507.168213</ele>
<time>2011-04-26T07:08:35Z</time>
<desc>lat.=22.034899, lon.=104.026337, Alt.=507.168213m. Speed=0.252000m/h.</desc>
<speed>0.070000</speed>
</trkpt>
<trkpt lat="22.034897" lon="104.026337">
<ele>506.871338</ele>
<time>2011-04-26T07:08:40Z</time>
<desc>lat.=22.034897, lon.=104.026337, Alt.=506.871338m. Speed=0.180000m/h.</desc>
<speed>0.050000</speed>
</trkpt>
<trkpt lat="22.034895" lon="104.026337">
<ele>506.660400</ele>
<time>2011-04-26T07:08:45Z</time>
<desc>lat.=22.034895, lon.=104.026337, Alt.=506.660400m. Speed=0.072000m/h.</desc>
<speed>0.020000</speed>
</trkpt>
<trkpt lat="22.034895" lon="104.026337">
<ele>506.621338</ele>
<time>2011-04-26T07:08:50Z</time>
<desc>lat.=22.034895, lon.=104.026337, Alt.=506.621338m. Speed=0.036000m/h.</desc>
<speed>0.010000</speed>
</trkpt>
<trkpt lat="22.034895" lon="104.026337">
<ele>506.676025</ele>
<time>2011-04-26T07:08:55Z</time>
<desc>lat.=22.034895, lon.=104.026337, Alt.=506.676025m. Speed=0.036000m/h.</desc>
<speed>0.010000</speed>
</trkpt>
<trkpt lat="22.034895" lon="104.026337">
<ele>506.676025</ele>
<time>2011-04-26T07:09:00Z</time>
<desc>lat.=22.034895, lon.=104.026337, Alt.=506.676025m. Speed=0.036000m/h.</desc>
<speed>0.010000</speed>
</trkpt>
<trkpt lat="22.034895" lon="104.026337">
<ele>506.676025</ele>
<time>2011-04-26T07:09:05Z</time>
<desc>lat.=22.034895, lon.=104.026337, Alt.=506.676025m. Speed=0.036000m/h.</desc>
<speed>0.010000</speed>
</trkpt>
<trkpt lat="22.034895" lon="104.026337">
<ele>506.676025</ele>
<time>2011-04-26T07:09:10Z</time>
<desc>lat.=22.034895, lon.=104.026337, Alt.=506.676025m. Speed=0.036000m/h.</desc>
<speed>0.010000</speed>
</trkpt>
<trkpt lat="22.034895" lon="104.026337">
<ele>506.683838</ele>
<time>2011-04-26T07:09:15Z</time>
<desc>lat.=22.034895, lon.=104.026337, Alt.=506.683838m. Speed=0.000000m/h.</desc>
<speed>0.000000</speed>
</trkpt>
<trkpt lat="22.034895" lon="104.026337">
<ele>506.699463</ele>
<time>2011-04-26T07:09:20Z</time>
<desc>lat.=22.034895, lon.=104.026337, Alt.=506.699463m. Speed=0.108000m/h.</desc>
<speed>0.030000</speed>
</trkpt>
<trkpt lat="22.034893" lon="104.026337">
<ele>506.715088</ele>
<time>2011-04-26T07:09:25Z</time>
<desc>lat.=22.034893, lon.=104.026337, Alt.=506.715088m. Speed=0.108000m/h.</desc>
<speed>0.030000</speed>
</trkpt>
<trkpt lat="22.034893" lon="104.026337">
<ele>506.746338</ele>
<time>2011-04-26T07:09:30Z</time>
<desc>lat.=22.034893, lon.=104.026337, Alt.=506.746338m. Speed=0.036000m/h.</desc>
<speed>0.010000</speed>
</trkpt>
<trkpt lat="22.034895" lon="104.026337">
<ele>506.754150</ele>
<time>2011-04-26T07:09:35Z</time>
<desc>lat.=22.034895, lon.=104.026337, Alt.=506.754150m. Speed=0.072000m/h.</desc>
<speed>0.020000</speed>
</trkpt>
<trkpt lat="22.034895" lon="104.026337">
<ele>506.777588</ele>
<time>2011-04-26T07:09:40Z</time>
<desc>lat.=22.034895, lon.=104.026337, Alt.=506.777588m. Speed=0.036000m/h.</desc>
<speed>0.010000</speed>
</trkpt>
<trkpt lat="22.034895" lon="104.026337">
<ele>506.785400</ele>
<time>2011-04-26T07:09:45Z</time>
<desc>lat.=22.034895, lon.=104.026337, Alt.=506.785400m. Speed=0.036000m/h.</desc>
<speed>0.010000</speed>
</trkpt>
<trkpt lat="22.034895" lon="104.026337">
<ele>506.769775</ele>
<time>2011-04-26T07:09:50Z</time>
<desc>lat.=22.034895, lon.=104.026337, Alt.=506.769775m. Speed=0.108000m/h.</desc>
<speed>0.030000</speed>
</trkpt>
<trkpt lat="22.034895" lon="104.026337">
<ele>506.761963</ele>
<time>2011-04-26T07:09:55Z</time>
<desc>lat.=22.034895, lon.=104.026337, Alt.=506.761963m. Speed=0.036000m/h.</desc>
<speed>0.010000</speed>
</trkpt>
<trkpt lat="22.034895" lon="104.026337">
<ele>506.785400</ele>
<time>2011-04-26T07:10:00Z</time>
<desc>lat.=22.034895, lon.=104.026337, Alt.=506.785400m. Speed=0.036000m/h.</desc>
<speed>0.010000</speed>
</trkpt>
<trkpt lat="22.034895" lon="104.026337">
<ele>506.793213</ele>
<time>2011-04-26T07:10:05Z</time>
<desc>lat.=22.034895, lon.=104.026337, Alt.=506.793213m. Speed=0.072000m/h.</desc>
<speed>0.020000</speed>
</trkpt>
<trkpt lat="22.034895" lon="104.026337">
<ele>506.832275</ele>
<time>2011-04-26T07:10:10Z</time>
<desc>lat.=22.034895, lon.=104.026337, Alt.=506.832275m. Speed=0.072000m/h.</desc>
<speed>0.020000</speed>
</trkpt>
<trkpt lat="22.034897" lon="104.026337">
<ele>506.855713</ele>
<time>2011-04-26T07:10:15Z</time>
<desc>lat.=22.034897, lon.=104.026337, Alt.=506.855713m. Speed=0.108000m/h.</desc>
<speed>0.030000</speed>
</trkpt>
<trkpt lat="22.034897" lon="104.026337">
<ele>506.886963</ele>
<time>2011-04-26T07:10:20Z</time>
<desc>lat.=22.034897, lon.=104.026337, Alt.=506.886963m. Speed=0.072000m/h.</desc>
<speed>0.020000</speed>
</trkpt>
<trkpt lat="22.034897" lon="104.026337">
<ele>506.933838</ele>
<time>2011-04-26T07:10:25Z</time>
<desc>lat.=22.034897, lon.=104.026337, Alt.=506.933838m. Speed=0.144000m/h.</desc>
<speed>0.040000</speed>
</trkpt>
<trkpt lat="22.034895" lon="104.026337">
<ele>506.980713</ele>
<time>2011-04-26T07:10:30Z</time>
<desc>lat.=22.034895, lon.=104.026337, Alt.=506.980713m. Speed=0.108000m/h.</desc>
<speed>0.030000</speed>
</trkpt>
<trkpt lat="22.034897" lon="104.026329">
<ele>507.004150</ele>
<time>2011-04-26T07:10:35Z</time>
<desc>lat.=22.034897, lon.=104.026329, Alt.=507.004150m. Speed=0.036000m/h.</desc>
<speed>0.010000</speed>
</trkpt>
<trkpt lat="22.034897" lon="104.026329">
<ele>506.988525</ele>
<time>2011-04-26T07:10:40Z</time>
<desc>lat.=22.034897, lon.=104.026329, Alt.=506.988525m. Speed=0.036000m/h.</desc>
<speed>0.010000</speed>
</trkpt>
<trkpt lat="22.034897" lon="104.026329">
<ele>506.941650</ele>
<time>2011-04-26T07:10:45Z</time>
<desc>lat.=22.034897, lon.=104.026329, Alt.=506.941650m. Speed=0.072000m/h.</desc>
<speed>0.020000</speed>
</trkpt>
<trkpt lat="22.034897" lon="104.026329">
<ele>506.894775</ele>
<time>2011-04-26T07:10:50Z</time>
<desc>lat.=22.034897, lon.=104.026329, Alt.=506.894775m. Speed=0.036000m/h.</desc>
<speed>0.010000</speed>
</trkpt>
<trkpt lat="22.034899" lon="104.026329">
<ele>506.816650</ele>
<time>2011-04-26T07:10:55Z</time>
<desc>lat.=22.034899, lon.=104.026329, Alt.=506.816650m. Speed=0.072000m/h.</desc>
<speed>0.020000</speed>
</trkpt>
<trkpt lat="22.034899" lon="104.026329">
<ele>506.761963</ele>
<time>2011-04-26T07:11:00Z</time>
<desc>lat.=22.034899, lon.=104.026329, Alt.=506.761963m. Speed=0.144000m/h.</desc>
<speed>0.040000</speed>
</trkpt>
<trkpt lat="22.034899" lon="104.026329">
<ele>506.715088</ele>
<time>2011-04-26T07:11:05Z</time>
<desc>lat.=22.034899, lon.=104.026329, Alt.=506.715088m. Speed=0.144000m/h.</desc>
<speed>0.040000</speed>
</trkpt>
<trkpt lat="22.034899" lon="104.026329">
<ele>506.715088</ele>
<time>2011-04-26T07:11:10Z</time>
<desc>lat.=22.034899, lon.=104.026329, Alt.=506.715088m. Speed=0.108000m/h.</desc>
<speed>0.030000</speed>
</trkpt>
<trkpt lat="22.034899" lon="104.026329">
<ele>506.676025</ele>
<time>2011-04-26T07:11:15Z</time>
<desc>lat.=22.034899, lon.=104.026329, Alt.=506.676025m. Speed=0.180000m/h.</desc>
<speed>0.050000</speed>
</trkpt>
<trkpt lat="22.034899" lon="104.026329">
<ele>506.676025</ele>
<time>2011-04-26T07:11:20Z</time>
<desc>lat.=22.034899, lon.=104.026329, Alt.=506.676025m. Speed=0.000000m/h.</desc>
<speed>0.000000</speed>
</trkpt>
<trkpt lat="22.034901" lon="104.026329">
<ele>506.754150</ele>
<time>2011-04-26T07:11:25Z</time>
<desc>lat.=22.034901, lon.=104.026329, Alt.=506.754150m. Speed=0.036000m/h.</desc>
<speed>0.010000</speed>
</trkpt>
<trkpt lat="22.034901" lon="104.026329">
<ele>506.761963</ele>
<time>2011-04-26T07:11:30Z</time>
<desc>lat.=22.034901, lon.=104.026329, Alt.=506.761963m. Speed=0.036000m/h.</desc>
<speed>0.010000</speed>
</trkpt>
<trkpt lat="22.034901" lon="104.026329">
<ele>506.785400</ele>
<time>2011-04-26T07:11:35Z</time>
<desc>lat.=22.034901, lon.=104.026329, Alt.=506.785400m. Speed=0.072000m/h.</desc>
<speed>0.020000</speed>
</trkpt>
<trkpt lat="22.034891" lon="104.026337">
<ele>506.715088</ele>
<time>2011-04-26T07:11:40Z</time>
<desc>lat.=22.034891, lon.=104.026337, Alt.=506.715088m. Speed=4.032000m/h.</desc>
<speed>1.120000</speed>
</trkpt>
<trkpt lat="22.034821" lon="104.026413">
<ele>505.988525</ele>
<time>2011-04-26T07:11:45Z</time>
<desc>lat.=22.034821, lon.=104.026413, Alt.=505.988525m. Speed=10.152000m/h.</desc>
<speed>2.820000</speed>
</trkpt>
<trkpt lat="22.034712" lon="104.026489">
<ele>502.793213</ele>
<time>2011-04-26T07:11:50Z</time>
<desc>lat.=22.034712, lon.=104.026489, Alt.=502.793213m. Speed=8.496000m/h.</desc>
<speed>2.360000</speed>
</trkpt>
<trkpt lat="22.034609" lon="104.026535">
<ele>499.051025</ele>
<time>2011-04-26T07:11:55Z</time>
<desc>lat.=22.034609, lon.=104.026535, Alt.=499.051025m. Speed=7.452000m/h.</desc>
<speed>2.070000</speed>
</trkpt>
<trkpt lat="22.034523" lon="104.026558">
<ele>499.746338</ele>
<time>2011-04-26T07:12:00Z</time>
<desc>lat.=22.034523, lon.=104.026558, Alt.=499.746338m. Speed=8.568000m/h.</desc>
<speed>2.380000</speed>
</trkpt>
<trkpt lat="22.034426" lon="104.026619">
<ele>498.011963</ele>
<time>2011-04-26T07:12:05Z</time>
<desc>lat.=22.034426, lon.=104.026619, Alt.=498.011963m. Speed=8.172000m/h.</desc>
<speed>2.270000</speed>
</trkpt>
<trkpt lat="22.034332" lon="104.026642">
<ele>499.980713</ele>
<time>2011-04-26T07:12:10Z</time>
<desc>lat.=22.034332, lon.=104.026642, Alt.=499.980713m. Speed=6.264000m/h.</desc>
<speed>1.740000</speed>
</trkpt>
<trkpt lat="22.034317" lon="104.026657">
<ele>497.863525</ele>
<time>2011-04-26T07:12:15Z</time>
<desc>lat.=22.034317, lon.=104.026657, Alt.=497.863525m. Speed=0.792000m/h.</desc>
<speed>0.220000</speed>
</trkpt>
<trkpt lat="22.034311" lon="104.026642">
<ele>496.761963</ele>
<time>2011-04-26T07:12:20Z</time>
<desc>lat.=22.034311, lon.=104.026642, Alt.=496.761963m. Speed=0.108000m/h.</desc>
<speed>0.030000</speed>
</trkpt>
<trkpt lat="22.034309" lon="104.026642">
<ele>496.754150</ele>
<time>2011-04-26T07:12:25Z</time>
<desc>lat.=22.034309, lon.=104.026642, Alt.=496.754150m. Speed=0.360000m/h.</desc>
<speed>0.100000</speed>
</trkpt>
<trkpt lat="22.034290" lon="104.026672">
<ele>495.340088</ele>
<time>2011-04-26T07:12:30Z</time>
<desc>lat.=22.034290, lon.=104.026672, Alt.=495.340088m. Speed=6.300000m/h.</desc>
<speed>1.750000</speed>
</trkpt>
<trkpt lat="22.034187" lon="104.026695">
<ele>495.754150</ele>
<time>2011-04-26T07:12:35Z</time>
<desc>lat.=22.034187, lon.=104.026695, Alt.=495.754150m. Speed=7.524000m/h.</desc>
<speed>2.090000</speed>
</trkpt>
<trkpt lat="22.034092" lon="104.026718">
<ele>495.754150</ele>
<time>2011-04-26T07:12:40Z</time>
<desc>lat.=22.034092, lon.=104.026718, Alt.=495.754150m. Speed=7.020000m/h.</desc>
<speed>1.950000</speed>
</trkpt>
<trkpt lat="22.034004" lon="104.026741">
<ele>495.972900</ele>
<time>2011-04-26T07:12:45Z</time>
<desc>lat.=22.034004, lon.=104.026741, Alt.=495.972900m. Speed=6.228000m/h.</desc>
<speed>1.730000</speed>
</trkpt>
<trkpt lat="22.033926" lon="104.026764">
<ele>496.793213</ele>
<time>2011-04-26T07:12:50Z</time>
<desc>lat.=22.033926, lon.=104.026764, Alt.=496.793213m. Speed=5.580000m/h.</desc>
<speed>1.550000</speed>
</trkpt>
<trkpt lat="22.033850" lon="104.026794">
<ele>497.410400</ele>
<time>2011-04-26T07:12:55Z</time>
<desc>lat.=22.033850, lon.=104.026794, Alt.=497.410400m. Speed=5.328000m/h.</desc>
<speed>1.480000</speed>
</trkpt>
<trkpt lat="22.033773" lon="104.026825">
<ele>498.183838</ele>
<time>2011-04-26T07:13:00Z</time>
<desc>lat.=22.033773, lon.=104.026825, Alt.=498.183838m. Speed=4.860000m/h.</desc>
<speed>1.350000</speed>
</trkpt>
<trkpt lat="22.033691" lon="104.026901">
<ele>498.066650</ele>
<time>2011-04-26T07:13:05Z</time>
<desc>lat.=22.033691, lon.=104.026901, Alt.=498.066650m. Speed=6.696000m/h.</desc>
<speed>1.860000</speed>
</trkpt>
<trkpt lat="22.033617" lon="104.026939">
<ele>500.074463</ele>
<time>2011-04-26T07:13:10Z</time>
<desc>lat.=22.033617, lon.=104.026939, Alt.=500.074463m. Speed=5.940000m/h.</desc>
<speed>1.650000</speed>
</trkpt>
<trkpt lat="22.033546" lon="104.026993">
<ele>501.340088</ele>
<time>2011-04-26T07:13:15Z</time>
<desc>lat.=22.033546, lon.=104.026993, Alt.=501.340088m. Speed=6.336000m/h.</desc>
<speed>1.760000</speed>
</trkpt>
<trkpt lat="22.033470" lon="104.027031">
<ele>502.543213</ele>
<time>2011-04-26T07:13:20Z</time>
<desc>lat.=22.033470, lon.=104.027031, Alt.=502.543213m. Speed=8.676000m/h.</desc>
<speed>2.410000</speed>
</trkpt>
<trkpt lat="22.033390" lon="104.027084">
<ele>502.199463</ele>
<time>2011-04-26T07:13:25Z</time>
<desc>lat.=22.033390, lon.=104.027084, Alt.=502.199463m. Speed=6.984000m/h.</desc>
<speed>1.940000</speed>
</trkpt>
<trkpt lat="22.033302" lon="104.027138">
<ele>503.011963</ele>
<time>2011-04-26T07:13:30Z</time>
<desc>lat.=22.033302, lon.=104.027138, Alt.=503.011963m. Speed=7.992000m/h.</desc>
<speed>2.220000</speed>
</trkpt>
<trkpt lat="22.033211" lon="104.027199">
<ele>505.019775</ele>
<time>2011-04-26T07:13:35Z</time>
<desc>lat.=22.033211, lon.=104.027199, Alt.=505.019775m. Speed=6.768000m/h.</desc>
<speed>1.880000</speed>
</trkpt>
<trkpt lat="22.033127" lon="104.027245">
<ele>505.254150</ele>
<time>2011-04-26T07:13:40Z</time>
<desc>lat.=22.033127, lon.=104.027245, Alt.=505.254150m. Speed=7.056000m/h.</desc>
<speed>1.960000</speed>
</trkpt>
<trkpt lat="22.033035" lon="104.027298">
<ele>504.715088</ele>
<time>2011-04-26T07:13:45Z</time>
<desc>lat.=22.033035, lon.=104.027298, Alt.=504.715088m. Speed=7.740000m/h.</desc>
<speed>2.150000</speed>
</trkpt>
<trkpt lat="22.032949" lon="104.027351">
<ele>503.949463</ele>
<time>2011-04-26T07:13:50Z</time>
<desc>lat.=22.032949, lon.=104.027351, Alt.=503.949463m. Speed=7.776000m/h.</desc>
<speed>2.160000</speed>
</trkpt>
<trkpt lat="22.032856" lon="104.027412">
<ele>503.511963</ele>
<time>2011-04-26T07:13:55Z</time>
<desc>lat.=22.032856, lon.=104.027412, Alt.=503.511963m. Speed=8.640000m/h.</desc>
<speed>2.400000</speed>
</trkpt>
<trkpt lat="22.032766" lon="104.027481">
<ele>505.527588</ele>
<time>2011-04-26T07:14:00Z</time>
<desc>lat.=22.032766, lon.=104.027481, Alt.=505.527588m. Speed=8.316000m/h.</desc>
<speed>2.310000</speed>
</trkpt>
<trkpt lat="22.032663" lon="104.027550">
<ele>507.254150</ele>
<time>2011-04-26T07:14:05Z</time>
<desc>lat.=22.032663, lon.=104.027550, Alt.=507.254150m. Speed=9.288000m/h.</desc>
<speed>2.580000</speed>
</trkpt>
<trkpt lat="22.032564" lon="104.027573">
<ele>507.621338</ele>
<time>2011-04-26T07:14:10Z</time>
<desc>lat.=22.032564, lon.=104.027573, Alt.=507.621338m. Speed=8.712000m/h.</desc>
<speed>2.420000</speed>
</trkpt>
<trkpt lat="22.032434" lon="104.027634">
<ele>509.004150</ele>
<time>2011-04-26T07:14:15Z</time>
<desc>lat.=22.032434, lon.=104.027634, Alt.=509.004150m. Speed=11.520000m/h.</desc>
<speed>3.200000</speed>
</trkpt>
<trkpt lat="22.032228" lon="104.027611">
<ele>508.183838</ele>
<time>2011-04-26T07:14:20Z</time>
<desc>lat.=22.032228, lon.=104.027611, Alt.=508.183838m. Speed=17.532000m/h.</desc>
<speed>4.870000</speed>
</trkpt>
<trkpt lat="22.031942" lon="104.027580">
<ele>508.566650</ele>
<time>2011-04-26T07:14:25Z</time>
<desc>lat.=22.031942, lon.=104.027580, Alt.=508.566650m. Speed=23.327999m/h.</desc>
<speed>6.480000</speed>
</trkpt>
<trkpt lat="22.031706" lon="104.027657">
<ele>511.066650</ele>
<time>2011-04-26T07:14:30Z</time>
<desc>lat.=22.031706, lon.=104.027657, Alt.=511.066650m. Speed=12.240000m/h.</desc>
<speed>3.400000</speed>
</trkpt>
<trkpt lat="22.031597" lon="104.027771">
<ele>513.320801</ele>
<time>2011-04-26T07:14:35Z</time>
<desc>lat.=22.031597, lon.=104.027771, Alt.=513.320801m. Speed=9.180000m/h.</desc>
<speed>2.550000</speed>
</trkpt>
<trkpt lat="22.031513" lon="104.027992">
<ele>515.070801</ele>
<time>2011-04-26T07:14:40Z</time>
<desc>lat.=22.031513, lon.=104.027992, Alt.=515.070801m. Speed=14.688000m/h.</desc>
<speed>4.080000</speed>
</trkpt>
<trkpt lat="22.031473" lon="104.028183">
<ele>515.570801</ele>
<time>2011-04-26T07:14:45Z</time>
<desc>lat.=22.031473, lon.=104.028183, Alt.=515.570801m. Speed=12.456000m/h.</desc>
<speed>3.460000</speed>
</trkpt>
<trkpt lat="22.031467" lon="104.028412">
<ele>513.320801</ele>
<time>2011-04-26T07:14:50Z</time>
<desc>lat.=22.031467, lon.=104.028412, Alt.=513.320801m. Speed=16.416000m/h.</desc>
<speed>4.560000</speed>
</trkpt>
<trkpt lat="22.031469" lon="104.028679">
<ele>511.488525</ele>
<time>2011-04-26T07:14:55Z</time>
<desc>lat.=22.031469, lon.=104.028679, Alt.=511.488525m. Speed=18.431999m/h.</desc>
<speed>5.120000</speed>
</trkpt>
<trkpt lat="22.031446" lon="104.028954">
<ele>506.340088</ele>
<time>2011-04-26T07:15:00Z</time>
<desc>lat.=22.031446, lon.=104.028954, Alt.=506.340088m. Speed=15.732000m/h.</desc>
<speed>4.370000</speed>
</trkpt>
<trkpt lat="22.031410" lon="104.029121">
<ele>505.121338</ele>
<time>2011-04-26T07:15:05Z</time>
<desc>lat.=22.031410, lon.=104.029121, Alt.=505.121338m. Speed=9.900000m/h.</desc>
<speed>2.750000</speed>
</trkpt>
<trkpt lat="22.031355" lon="104.029221">
<ele>504.738525</ele>
<time>2011-04-26T07:15:10Z</time>
<desc>lat.=22.031355, lon.=104.029221, Alt.=504.738525m. Speed=3.672000m/h.</desc>
<speed>1.020000</speed>
</trkpt>
<trkpt lat="22.031351" lon="104.029243">
<ele>505.285400</ele>
<time>2011-04-26T07:15:15Z</time>
<desc>lat.=22.031351, lon.=104.029243, Alt.=505.285400m. Speed=0.180000m/h.</desc>
<speed>0.050000</speed>
</trkpt>
<trkpt lat="22.031349" lon="104.029251">
<ele>505.222900</ele>
<time>2011-04-26T07:15:20Z</time>
<desc>lat.=22.031349, lon.=104.029251, Alt.=505.222900m. Speed=0.252000m/h.</desc>
<speed>0.070000</speed>
</trkpt>
<trkpt lat="22.031347" lon="104.029251">
<ele>505.199463</ele>
<time>2011-04-26T07:15:25Z</time>
<desc>lat.=22.031347, lon.=104.029251, Alt.=505.199463m. Speed=0.108000m/h.</desc>
<speed>0.030000</speed>
</trkpt>
<trkpt lat="22.031347" lon="104.029251">
<ele>505.168213</ele>
<time>2011-04-26T07:15:30Z</time>
<desc>lat.=22.031347, lon.=104.029251, Alt.=505.168213m. Speed=0.144000m/h.</desc>
<speed>0.040000</speed>
</trkpt>
<trkpt lat="22.031347" lon="104.029251">
<ele>505.144775</ele>
<time>2011-04-26T07:15:35Z</time>
<desc>lat.=22.031347, lon.=104.029251, Alt.=505.144775m. Speed=0.252000m/h.</desc>
<speed>0.070000</speed>
</trkpt>
<trkpt lat="22.031349" lon="104.029251">
<ele>505.105713</ele>
<time>2011-04-26T07:15:40Z</time>
<desc>lat.=22.031349, lon.=104.029251, Alt.=505.105713m. Speed=0.216000m/h.</desc>
<speed>0.060000</speed>
</trkpt>
<trkpt lat="22.031345" lon="104.029259">
<ele>505.082275</ele>
<time>2011-04-26T07:15:45Z</time>
<desc>lat.=22.031345, lon.=104.029259, Alt.=505.082275m. Speed=0.648000m/h.</desc>
<speed>0.180000</speed>
</trkpt>
<trkpt lat="22.031336" lon="104.029266">
<ele>505.090088</ele>
<time>2011-04-26T07:15:50Z</time>
<desc>lat.=22.031336, lon.=104.029266, Alt.=505.090088m. Speed=1.152000m/h.</desc>
<speed>0.320000</speed>
</trkpt>
<trkpt lat="22.031326" lon="104.029274">
<ele>505.105713</ele>
<time>2011-04-26T07:15:55Z</time>
<desc>lat.=22.031326, lon.=104.029274, Alt.=505.105713m. Speed=0.576000m/h.</desc>
<speed>0.160000</speed>
</trkpt>
<trkpt lat="22.031321" lon="104.029274">
<ele>505.121338</ele>
<time>2011-04-26T07:16:00Z</time>
<desc>lat.=22.031321, lon.=104.029274, Alt.=505.121338m. Speed=0.324000m/h.</desc>
<speed>0.090000</speed>
</trkpt>
<trkpt lat="22.031317" lon="104.029274">
<ele>505.129150</ele>
<time>2011-04-26T07:16:05Z</time>
<desc>lat.=22.031317, lon.=104.029274, Alt.=505.129150m. Speed=0.108000m/h.</desc>
<speed>0.030000</speed>
</trkpt>
<trkpt lat="22.031317" lon="104.029274">
<ele>505.136963</ele>
<time>2011-04-26T07:16:10Z</time>
<desc>lat.=22.031317, lon.=104.029274, Alt.=505.136963m. Speed=0.144000m/h.</desc>
<speed>0.040000</speed>
</trkpt>
<trkpt lat="22.031315" lon="104.029274">
<ele>505.152588</ele>
<time>2011-04-26T07:16:15Z</time>
<desc>lat.=22.031315, lon.=104.029274, Alt.=505.152588m. Speed=0.180000m/h.</desc>
<speed>0.050000</speed>
</trkpt>
<trkpt lat="22.031315" lon="104.029274">
<ele>505.144775</ele>
<time>2011-04-26T07:16:20Z</time>
<desc>lat.=22.031315, lon.=104.029274, Alt.=505.144775m. Speed=0.072000m/h.</desc>
<speed>0.020000</speed>
</trkpt>
<trkpt lat="22.031315" lon="104.029274">
<ele>505.144775</ele>
<time>2011-04-26T07:16:25Z</time>
<desc>lat.=22.031315, lon.=104.029274, Alt.=505.144775m. Speed=0.000000m/h.</desc>
<speed>0.000000</speed>
</trkpt>
<trkpt lat="22.031315" lon="104.029282">
<ele>505.136963</ele>
<time>2011-04-26T07:16:30Z</time>
<desc>lat.=22.031315, lon.=104.029282, Alt.=505.136963m. Speed=0.072000m/h.</desc>
<speed>0.020000</speed>
</trkpt>
<trkpt lat="22.031313" lon="104.029282">
<ele>505.136963</ele>
<time>2011-04-26T07:16:35Z</time>
<desc>lat.=22.031313, lon.=104.029282, Alt.=505.136963m. Speed=0.108000m/h.</desc>
<speed>0.030000</speed>
</trkpt>
<trkpt lat="22.031315" lon="104.029282">
<ele>505.121338</ele>
<time>2011-04-26T07:16:40Z</time>
<desc>lat.=22.031315, lon.=104.029282, Alt.=505.121338m. Speed=0.216000m/h.</desc>
<speed>0.060000</speed>
</trkpt>
<trkpt lat="22.031315" lon="104.029282">
<ele>505.082275</ele>
<time>2011-04-26T07:16:45Z</time>
<desc>lat.=22.031315, lon.=104.029282, Alt.=505.082275m. Speed=0.036000m/h.</desc>
<speed>0.010000</speed>
</trkpt>
<trkpt lat="22.031315" lon="104.029282">
<ele>505.043213</ele>
<time>2011-04-26T07:16:50Z</time>
<desc>lat.=22.031315, lon.=104.029282, Alt.=505.043213m. Speed=0.000000m/h.</desc>
<speed>0.000000</speed>
</trkpt>
<trkpt lat="22.031315" lon="104.029282">
<ele>505.027588</ele>
<time>2011-04-26T07:16:55Z</time>
<desc>lat.=22.031315, lon.=104.029282, Alt.=505.027588m. Speed=0.144000m/h.</desc>
<speed>0.040000</speed>
</trkpt>
<trkpt lat="22.031315" lon="104.029282">
<ele>505.058838</ele>
<time>2011-04-26T07:17:00Z</time>
<desc>lat.=22.031315, lon.=104.029282, Alt.=505.058838m. Speed=0.288000m/h.</desc>
<speed>0.080000</speed>
</trkpt>
<trkpt lat="22.031315" lon="104.029282">
<ele>505.058838</ele>
<time>2011-04-26T07:17:05Z</time>
<desc>lat.=22.031315, lon.=104.029282, Alt.=505.058838m. Speed=0.036000m/h.</desc>
<speed>0.010000</speed>
</trkpt>
<trkpt lat="22.031315" lon="104.029282">
<ele>505.058838</ele>
<time>2011-04-26T07:17:10Z</time>
<desc>lat.=22.031315, lon.=104.029282, Alt.=505.058838m. Speed=0.108000m/h.</desc>
<speed>0.030000</speed>
</trkpt>
<trkpt lat="22.031315" lon="104.029282">
<ele>505.058838</ele>
<time>2011-04-26T07:17:15Z</time>
<desc>lat.=22.031315, lon.=104.029282, Alt.=505.058838m. Speed=0.000000m/h.</desc>
<speed>0.000000</speed>
</trkpt>
<trkpt lat="22.031315" lon="104.029282">
<ele>505.051025</ele>
<time>2011-04-26T07:17:20Z</time>
<desc>lat.=22.031315, lon.=104.029282, Alt.=505.051025m. Speed=0.144000m/h.</desc>
<speed>0.040000</speed>
</trkpt>
<trkpt lat="22.031315" lon="104.029289">
<ele>505.035400</ele>
<time>2011-04-26T07:17:25Z</time>
<desc>lat.=22.031315, lon.=104.029289, Alt.=505.035400m. Speed=0.576000m/h.</desc>
<speed>0.160000</speed>
</trkpt>
<trkpt lat="22.031309" lon="104.029297">
<ele>505.035400</ele>
<time>2011-04-26T07:17:30Z</time>
<desc>lat.=22.031309, lon.=104.029297, Alt.=505.035400m. Speed=1.224000m/h.</desc>
<speed>0.340000</speed>
</trkpt>
<trkpt lat="22.031294" lon="104.029312">
<ele>505.027588</ele>
<time>2011-04-26T07:17:35Z</time>
<desc>lat.=22.031294, lon.=104.029312, Alt.=505.027588m. Speed=2.736000m/h.</desc>
<speed>0.760000</speed>
</trkpt>
<trkpt lat="22.031252" lon="104.029366">
<ele>505.121338</ele>
<time>2011-04-26T07:17:40Z</time>
<desc>lat.=22.031252, lon.=104.029366, Alt.=505.121338m. Speed=9.252000m/h.</desc>
<speed>2.570000</speed>
</trkpt>
<trkpt lat="22.031046" lon="104.029488">
<ele>504.769775</ele>
<time>2011-04-26T07:17:45Z</time>
<desc>lat.=22.031046, lon.=104.029488, Alt.=504.769775m. Speed=19.511999m/h.</desc>
<speed>5.420000</speed>
</trkpt>
<trkpt lat="22.030790" lon="104.029610">
<ele>504.074463</ele>
<time>2011-04-26T07:17:50Z</time>
<desc>lat.=22.030790, lon.=104.029610, Alt.=504.074463m. Speed=17.964001m/h.</desc>
<speed>4.990000</speed>
</trkpt>
<trkpt lat="22.030750" lon="104.029884">
<ele>503.160400</ele>
<time>2011-04-26T07:17:55Z</time>
<desc>lat.=22.030750, lon.=104.029884, Alt.=503.160400m. Speed=25.020000m/h.</desc>
<speed>6.950000</speed>
</trkpt>
<trkpt lat="22.030704" lon="104.030334">
<ele>501.886963</ele>
<time>2011-04-26T07:18:00Z</time>
<desc>lat.=22.030704, lon.=104.030334, Alt.=501.886963m. Speed=20.771999m/h.</desc>
<speed>5.770000</speed>
</trkpt>
<trkpt lat="22.030554" lon="104.030899">
<ele>500.933838</ele>
<time>2011-04-26T07:18:05Z</time>
<desc>lat.=22.030554, lon.=104.030899, Alt.=500.933838m. Speed=18.864000m/h.</desc>
<speed>5.240000</speed>
</trkpt>
<trkpt lat="22.030514" lon="104.031189">
<ele>499.785400</ele>
<time>2011-04-26T07:18:10Z</time>
<desc>lat.=22.030514, lon.=104.031189, Alt.=499.785400m. Speed=9.612000m/h.</desc>
<speed>2.670000</speed>
</trkpt>
<trkpt lat="22.030449" lon="104.031448">
<ele>498.972900</ele>
<time>2011-04-26T07:18:15Z</time>
<desc>lat.=22.030449, lon.=104.031448, Alt.=498.972900m. Speed=12.924000m/h.</desc>
<speed>3.590000</speed>
</trkpt>
<trkpt lat="22.030369" lon="104.031738">
<ele>497.996338</ele>
<time>2011-04-26T07:18:20Z</time>
<desc>lat.=22.030369, lon.=104.031738, Alt.=497.996338m. Speed=19.044001m/h.</desc>
<speed>5.290000</speed>
</trkpt>
<trkpt lat="22.030237" lon="104.032127">
<ele>496.941650</ele>
<time>2011-04-26T07:18:25Z</time>
<desc>lat.=22.030237, lon.=104.032127, Alt.=496.941650m. Speed=30.312000m/h.</desc>
<speed>8.420000</speed>
</trkpt>
<trkpt lat="22.030090" lon="104.032578">
<ele>495.730713</ele>
<time>2011-04-26T07:18:30Z</time>
<desc>lat.=22.030090, lon.=104.032578, Alt.=495.730713m. Speed=31.572001m/h.</desc>
<speed>8.770000</speed>
</trkpt>
<trkpt lat="22.029970" lon="104.032959">
<ele>494.824463</ele>
<time>2011-04-26T07:18:35Z</time>
<desc>lat.=22.029970, lon.=104.032959, Alt.=494.824463m. Speed=25.091999m/h.</desc>
<speed>6.970000</speed>
</trkpt>
<trkpt lat="22.029785" lon="104.033279">
<ele>494.410400</ele>
<time>2011-04-26T07:18:40Z</time>
<desc>lat.=22.029785, lon.=104.033279, Alt.=494.410400m. Speed=24.840000m/h.</desc>
<speed>6.900000</speed>
</trkpt>
<trkpt lat="22.029528" lon="104.033554">
<ele>493.699463</ele>
<time>2011-04-26T07:18:45Z</time>
<desc>lat.=22.029528, lon.=104.033554, Alt.=493.699463m. Speed=25.632000m/h.</desc>
<speed>7.120000</speed>
</trkpt>
<trkpt lat="22.029356" lon="104.033806">
<ele>493.379150</ele>
<time>2011-04-26T07:18:50Z</time>
<desc>lat.=22.029356, lon.=104.033806, Alt.=493.379150m. Speed=19.368000m/h.</desc>
<speed>5.380000</speed>
</trkpt>
<trkpt lat="22.029224" lon="104.034088">
<ele>493.308838</ele>
<time>2011-04-26T07:18:55Z</time>
<desc>lat.=22.029224, lon.=104.034088, Alt.=493.308838m. Speed=18.864000m/h.</desc>
<speed>5.240000</speed>
</trkpt>
<trkpt lat="22.029211" lon="104.034538">
<ele>493.129150</ele>
<time>2011-04-26T07:19:00Z</time>
<desc>lat.=22.029211, lon.=104.034538, Alt.=493.129150m. Speed=25.884001m/h.</desc>
<speed>7.190000</speed>
</trkpt>
<trkpt lat="22.029181" lon="104.034882">
<ele>493.097900</ele>
<time>2011-04-26T07:19:05Z</time>
<desc>lat.=22.029181, lon.=104.034882, Alt.=493.097900m. Speed=21.851999m/h.</desc>
<speed>6.070000</speed>
</trkpt>
<trkpt lat="22.029068" lon="104.035225">
<ele>493.347900</ele>
<time>2011-04-26T07:19:10Z</time>
<desc>lat.=22.029068, lon.=104.035225, Alt.=493.347900m. Speed=22.212000m/h.</desc>
<speed>6.170000</speed>
</trkpt>
<trkpt lat="22.028948" lon="104.035507">
<ele>492.230713</ele>
<time>2011-04-26T07:19:15Z</time>
<desc>lat.=22.028948, lon.=104.035507, Alt.=492.230713m. Speed=17.351999m/h.</desc>
<speed>4.820000</speed>
</trkpt>
<trkpt lat="22.028835" lon="104.035782">
<ele>490.316650</ele>
<time>2011-04-26T07:19:20Z</time>
<desc>lat.=22.028835, lon.=104.035782, Alt.=490.316650m. Speed=18.000000m/h.</desc>
<speed>5.000000</speed>
</trkpt>
<trkpt lat="22.028685" lon="104.035965">
<ele>489.847900</ele>
<time>2011-04-26T07:19:25Z</time>
<desc>lat.=22.028685, lon.=104.035965, Alt.=489.847900m. Speed=17.712000m/h.</desc>
<speed>4.920000</speed>
</trkpt>
<trkpt lat="22.028460" lon="104.036079">
<ele>487.347900</ele>
<time>2011-04-26T07:19:30Z</time>
<desc>lat.=22.028460, lon.=104.036079, Alt.=487.347900m. Speed=16.344000m/h.</desc>
<speed>4.540000</speed>
</trkpt>
<trkpt lat="22.028252" lon="104.036095">
<ele>485.683838</ele>
<time>2011-04-26T07:19:35Z</time>
<desc>lat.=22.028252, lon.=104.036095, Alt.=485.683838m. Speed=12.564000m/h.</desc>
<speed>3.490000</speed>
</trkpt>
<trkpt lat="22.028109" lon="104.036064">
<ele>483.519775</ele>
<time>2011-04-26T07:19:40Z</time>
<desc>lat.=22.028109, lon.=104.036064, Alt.=483.519775m. Speed=7.920000m/h.</desc>
<speed>2.200000</speed>
</trkpt>
<trkpt lat="22.028008" lon="104.036034">
<ele>482.363525</ele>
<time>2011-04-26T07:19:45Z</time>
<desc>lat.=22.028008, lon.=104.036034, Alt.=482.363525m. Speed=5.400000m/h.</desc>
<speed>1.500000</speed>
</trkpt>
<trkpt lat="22.027916" lon="104.036011">
<ele>479.652588</ele>
<time>2011-04-26T07:19:50Z</time>
<desc>lat.=22.027916, lon.=104.036011, Alt.=479.652588m. Speed=4.140000m/h.</desc>
<speed>1.150000</speed>
</trkpt>
<trkpt lat="22.027826" lon="104.035995">
<ele>477.316650</ele>
<time>2011-04-26T07:19:55Z</time>
<desc>lat.=22.027826, lon.=104.035995, Alt.=477.316650m. Speed=6.840000m/h.</desc>
<speed>1.900000</speed>
</trkpt>
<trkpt lat="22.027718" lon="104.035973">
<ele>475.761963</ele>
<time>2011-04-26T07:20:00Z</time>
<desc>lat.=22.027718, lon.=104.035973, Alt.=475.761963m. Speed=8.712000m/h.</desc>
<speed>2.420000</speed>
</trkpt>
<trkpt lat="22.027609" lon="104.035912">
<ele>474.488525</ele>
<time>2011-04-26T07:20:05Z</time>
<desc>lat.=22.027609, lon.=104.035912, Alt.=474.488525m. Speed=9.144000m/h.</desc>
<speed>2.540000</speed>
</trkpt>
<trkpt lat="22.027456" lon="104.035858">
<ele>469.715088</ele>
<time>2011-04-26T07:20:10Z</time>
<desc>lat.=22.027456, lon.=104.035858, Alt.=469.715088m. Speed=10.764000m/h.</desc>
<speed>2.990000</speed>
</trkpt>
<trkpt lat="22.027317" lon="104.035812">
<ele>468.207275</ele>
<time>2011-04-26T07:20:15Z</time>
<desc>lat.=22.027317, lon.=104.035812, Alt.=468.207275m. Speed=11.376000m/h.</desc>
<speed>3.160000</speed>
</trkpt>
<trkpt lat="22.027138" lon="104.035774">
<ele>466.707275</ele>
<time>2011-04-26T07:20:20Z</time>
<desc>lat.=22.027138, lon.=104.035774, Alt.=466.707275m. Speed=16.488001m/h.</desc>
<speed>4.580000</speed>
</trkpt>
<trkpt lat="22.026951" lon="104.035721">
<ele>464.691650</ele>
<time>2011-04-26T07:20:25Z</time>
<desc>lat.=22.026951, lon.=104.035721, Alt.=464.691650m. Speed=13.968000m/h.</desc>
<speed>3.880000</speed>
</trkpt>
<trkpt lat="22.026760" lon="104.035805">
<ele>462.472900</ele>
<time>2011-04-26T07:20:30Z</time>
<desc>lat.=22.026760, lon.=104.035805, Alt.=462.472900m. Speed=14.868000m/h.</desc>
<speed>4.130000</speed>
</trkpt>
<trkpt lat="22.026611" lon="104.035912">
<ele>460.582275</ele>
<time>2011-04-26T07:20:35Z</time>
<desc>lat.=22.026611, lon.=104.035912, Alt.=460.582275m. Speed=8.460000m/h.</desc>
<speed>2.350000</speed>
</trkpt>
<trkpt lat="22.026554" lon="104.035942">
<ele>459.777588</ele>
<time>2011-04-26T07:20:40Z</time>
<desc>lat.=22.026554, lon.=104.035942, Alt.=459.777588m. Speed=0.396000m/h.</desc>
<speed>0.110000</speed>
</trkpt>
<trkpt lat="22.026550" lon="104.035934">
<ele>459.011963</ele>
<time>2011-04-26T07:20:45Z</time>
<desc>lat.=22.026550, lon.=104.035934, Alt.=459.011963m. Speed=0.036000m/h.</desc>
<speed>0.010000</speed>
</trkpt>
<trkpt lat="22.026545" lon="104.035934">
<ele>458.871338</ele>
<time>2011-04-26T07:20:50Z</time>
<desc>lat.=22.026545, lon.=104.035934, Alt.=458.871338m. Speed=0.108000m/h.</desc>
<speed>0.030000</speed>
</trkpt>
<trkpt lat="22.026545" lon="104.035934">
<ele>458.871338</ele>
<time>2011-04-26T07:20:55Z</time>
<desc>lat.=22.026545, lon.=104.035934, Alt.=458.871338m. Speed=0.288000m/h.</desc>
<speed>0.080000</speed>
</trkpt>
<trkpt lat="22.026543" lon="104.035934">
<ele>458.824463</ele>
<time>2011-04-26T07:21:00Z</time>
<desc>lat.=22.026543, lon.=104.035934, Alt.=458.824463m. Speed=0.036000m/h.</desc>
<speed>0.010000</speed>
</trkpt>
<trkpt lat="22.026543" lon="104.035934">
<ele>458.847900</ele>
<time>2011-04-26T07:21:05Z</time>
<desc>lat.=22.026543, lon.=104.035934, Alt.=458.847900m. Speed=0.036000m/h.</desc>
<speed>0.010000</speed>
</trkpt>
<trkpt lat="22.026541" lon="104.035950">
<ele>458.730713</ele>
<time>2011-04-26T07:21:10Z</time>
<desc>lat.=22.026541, lon.=104.035950, Alt.=458.730713m. Speed=2.556000m/h.</desc>
<speed>0.710000</speed>
</trkpt>
<trkpt lat="22.026550" lon="104.035980">
<ele>459.457275</ele>
<time>2011-04-26T07:21:15Z</time>
<desc>lat.=22.026550, lon.=104.035980, Alt.=459.457275m. Speed=2.412000m/h.</desc>
<speed>0.670000</speed>
</trkpt>
<trkpt lat="22.026558" lon="104.035995">
<ele>459.426025</ele>
<time>2011-04-26T07:21:20Z</time>
<desc>lat.=22.026558, lon.=104.035995, Alt.=459.426025m. Speed=0.144000m/h.</desc>
<speed>0.040000</speed>
</trkpt>
<trkpt lat="22.026558" lon="104.035995">
<ele>459.402588</ele>
<time>2011-04-26T07:21:25Z</time>
<desc>lat.=22.026558, lon.=104.035995, Alt.=459.402588m. Speed=0.072000m/h.</desc>
<speed>0.020000</speed>
</trkpt>
<trkpt lat="22.026556" lon="104.035995">
<ele>459.386963</ele>
<time>2011-04-26T07:21:30Z</time>
<desc>lat.=22.026556, lon.=104.035995, Alt.=459.386963m. Speed=0.000000m/h.</desc>
<speed>0.000000</speed>
</trkpt>
<trkpt lat="22.026556" lon="104.035995">
<ele>459.363525</ele>
<time>2011-04-26T07:21:35Z</time>
<desc>lat.=22.026556, lon.=104.035995, Alt.=459.363525m. Speed=0.036000m/h.</desc>
<speed>0.010000</speed>
</trkpt>
<trkpt lat="22.026556" lon="104.035995">
<ele>459.347900</ele>
<time>2011-04-26T07:21:40Z</time>
<desc>lat.=22.026556, lon.=104.035995, Alt.=459.347900m. Speed=0.000000m/h.</desc>
<speed>0.000000</speed>
</trkpt>
<trkpt lat="22.026556" lon="104.035995">
<ele>459.332275</ele>
<time>2011-04-26T07:21:45Z</time>
<desc>lat.=22.026556, lon.=104.035995, Alt.=459.332275m. Speed=0.396000m/h.</desc>
<speed>0.110000</speed>
</trkpt>
<trkpt lat="22.026556" lon="104.036003">
<ele>459.324463</ele>
<time>2011-04-26T07:21:50Z</time>
<desc>lat.=22.026556, lon.=104.036003, Alt.=459.324463m. Speed=0.180000m/h.</desc>
<speed>0.050000</speed>
</trkpt>
<trkpt lat="22.026554" lon="104.036003">
<ele>459.324463</ele>
<time>2011-04-26T07:21:55Z</time>
<desc>lat.=22.026554, lon.=104.036003, Alt.=459.324463m. Speed=0.144000m/h.</desc>
<speed>0.040000</speed>
</trkpt>
<trkpt lat="22.026552" lon="104.036003">
<ele>459.324463</ele>
<time>2011-04-26T07:22:00Z</time>
<desc>lat.=22.026552, lon.=104.036003, Alt.=459.324463m. Speed=0.144000m/h.</desc>
<speed>0.040000</speed>
</trkpt>
<trkpt lat="22.026550" lon="104.036003">
<ele>459.363525</ele>
<time>2011-04-26T07:22:05Z</time>
<desc>lat.=22.026550, lon.=104.036003, Alt.=459.363525m. Speed=0.180000m/h.</desc>
<speed>0.050000</speed>
</trkpt>
<trkpt lat="22.026548" lon="104.036003">
<ele>459.418213</ele>
<time>2011-04-26T07:22:10Z</time>
<desc>lat.=22.026548, lon.=104.036003, Alt.=459.418213m. Speed=0.180000m/h.</desc>
<speed>0.050000</speed>
</trkpt>
<trkpt lat="22.026546" lon="104.036003">
<ele>459.472900</ele>
<time>2011-04-26T07:22:15Z</time>
<desc>lat.=22.026546, lon.=104.036003, Alt.=459.472900m. Speed=0.072000m/h.</desc>
<speed>0.020000</speed>
</trkpt>
<trkpt lat="22.026545" lon="104.036003">
<ele>459.535400</ele>
<time>2011-04-26T07:22:20Z</time>
<desc>lat.=22.026545, lon.=104.036003, Alt.=459.535400m. Speed=0.180000m/h.</desc>
<speed>0.050000</speed>
</trkpt>
<trkpt lat="22.026543" lon="104.036003">
<ele>459.644775</ele>
<time>2011-04-26T07:22:25Z</time>
<desc>lat.=22.026543, lon.=104.036003, Alt.=459.644775m. Speed=0.180000m/h.</desc>
<speed>0.050000</speed>
</trkpt>
<trkpt lat="22.026539" lon="104.036003">
<ele>459.785400</ele>
<time>2011-04-26T07:22:30Z</time>
<desc>lat.=22.026539, lon.=104.036003, Alt.=459.785400m. Speed=0.252000m/h.</desc>
<speed>0.070000</speed>
</trkpt>
<trkpt lat="22.026537" lon="104.036003">
<ele>459.933838</ele>
<time>2011-04-26T07:22:35Z</time>
<desc>lat.=22.026537, lon.=104.036003, Alt.=459.933838m. Speed=0.216000m/h.</desc>
<speed>0.060000</speed>
</trkpt>
<trkpt lat="22.026533" lon="104.036003">
<ele>460.097900</ele>
<time>2011-04-26T07:22:40Z</time>
<desc>lat.=22.026533, lon.=104.036003, Alt.=460.097900m. Speed=0.216000m/h.</desc>
<speed>0.060000</speed>
</trkpt>
<trkpt lat="22.026531" lon="104.036003">
<ele>460.261963</ele>
<time>2011-04-26T07:22:45Z</time>
<desc>lat.=22.026531, lon.=104.036003, Alt.=460.261963m. Speed=0.180000m/h.</desc>
<speed>0.050000</speed>
</trkpt>
<trkpt lat="22.026527" lon="104.036003">
<ele>460.449463</ele>
<time>2011-04-26T07:22:50Z</time>
<desc>lat.=22.026527, lon.=104.036003, Alt.=460.449463m. Speed=0.180000m/h.</desc>
<speed>0.050000</speed>
</trkpt>
<trkpt lat="22.026524" lon="104.036003">
<ele>460.668213</ele>
<time>2011-04-26T07:22:55Z</time>
<desc>lat.=22.026524, lon.=104.036003, Alt.=460.668213m. Speed=0.288000m/h.</desc>
<speed>0.080000</speed>
</trkpt>
<trkpt lat="22.026520" lon="104.036003">
<ele>460.957275</ele>
<time>2011-04-26T07:23:00Z</time>
<desc>lat.=22.026520, lon.=104.036003, Alt.=460.957275m. Speed=0.288000m/h.</desc>
<speed>0.080000</speed>
</trkpt>
<trkpt lat="22.026516" lon="104.036003">
<ele>461.238525</ele>
<time>2011-04-26T07:23:05Z</time>
<desc>lat.=22.026516, lon.=104.036003, Alt.=461.238525m. Speed=0.324000m/h.</desc>
<speed>0.090000</speed>
</trkpt>
<trkpt lat="22.026510" lon="104.036003">
<ele>461.519775</ele>
<time>2011-04-26T07:23:10Z</time>
<desc>lat.=22.026510, lon.=104.036003, Alt.=461.519775m. Speed=0.396000m/h.</desc>
<speed>0.110000</speed>
</trkpt>
<trkpt lat="22.026505" lon="104.036003">
<ele>461.824463</ele>
<time>2011-04-26T07:23:15Z</time>
<desc>lat.=22.026505, lon.=104.036003, Alt.=461.824463m. Speed=0.396000m/h.</desc>
<speed>0.110000</speed>
</trkpt>
<trkpt lat="22.026501" lon="104.036011">
<ele>462.097900</ele>
<time>2011-04-26T07:23:20Z</time>
<desc>lat.=22.026501, lon.=104.036011, Alt.=462.097900m. Speed=0.288000m/h.</desc>
<speed>0.080000</speed>
</trkpt>
<trkpt lat="22.026497" lon="104.036011">
<ele>462.347900</ele>
<time>2011-04-26T07:23:25Z</time>
<desc>lat.=22.026497, lon.=104.036011, Alt.=462.347900m. Speed=0.288000m/h.</desc>
<speed>0.080000</speed>
</trkpt>
<trkpt lat="22.026493" lon="104.036011">
<ele>462.590088</ele>
<time>2011-04-26T07:23:30Z</time>
<desc>lat.=22.026493, lon.=104.036011, Alt.=462.590088m. Speed=0.216000m/h.</desc>
<speed>0.060000</speed>
</trkpt>
<trkpt lat="22.026489" lon="104.036011">
<ele>462.793213</ele>
<time>2011-04-26T07:23:35Z</time>
<desc>lat.=22.026489, lon.=104.036011, Alt.=462.793213m. Speed=0.288000m/h.</desc>
<speed>0.080000</speed>
</trkpt>
<trkpt lat="22.026484" lon="104.036011">
<ele>463.011963</ele>
<time>2011-04-26T07:23:40Z</time>
<desc>lat.=22.026484, lon.=104.036011, Alt.=463.011963m. Speed=0.432000m/h.</desc>
<speed>0.120000</speed>
</trkpt>
<trkpt lat="22.026478" lon="104.036011">
<ele>463.238525</ele>
<time>2011-04-26T07:23:45Z</time>
<desc>lat.=22.026478, lon.=104.036011, Alt.=463.238525m. Speed=0.504000m/h.</desc>
<speed>0.140000</speed>
</trkpt>
<trkpt lat="22.026472" lon="104.036011">
<ele>463.394775</ele>
<time>2011-04-26T07:23:50Z</time>
<desc>lat.=22.026472, lon.=104.036011, Alt.=463.394775m. Speed=0.360000m/h.</desc>
<speed>0.100000</speed>
</trkpt>
<trkpt lat="22.026466" lon="104.036018">
<ele>463.597900</ele>
<time>2011-04-26T07:23:55Z</time>
<desc>lat.=22.026466, lon.=104.036018, Alt.=463.597900m. Speed=0.504000m/h.</desc>
<speed>0.140000</speed>
</trkpt>
<trkpt lat="22.026461" lon="104.036018">
<ele>463.793213</ele>
<time>2011-04-26T07:24:00Z</time>
<desc>lat.=22.026461, lon.=104.036018, Alt.=463.793213m. Speed=0.504000m/h.</desc>
<speed>0.140000</speed>
</trkpt>
<trkpt lat="22.026455" lon="104.036018">
<ele>463.957275</ele>
<time>2011-04-26T07:24:05Z</time>
<desc>lat.=22.026455, lon.=104.036018, Alt.=463.957275m. Speed=0.504000m/h.</desc>
<speed>0.140000</speed>
</trkpt>
<trkpt lat="22.026447" lon="104.036018">
<ele>464.105713</ele>
<time>2011-04-26T07:24:10Z</time>
<desc>lat.=22.026447, lon.=104.036018, Alt.=464.105713m. Speed=0.432000m/h.</desc>
<speed>0.120000</speed>
</trkpt>
<trkpt lat="22.026443" lon="104.036026">
<ele>464.176025</ele>
<time>2011-04-26T07:24:15Z</time>
<desc>lat.=22.026443, lon.=104.036026, Alt.=464.176025m. Speed=0.288000m/h.</desc>
<speed>0.080000</speed>
</trkpt>
<trkpt lat="22.026440" lon="104.036026">
<ele>464.222900</ele>
<time>2011-04-26T07:24:20Z</time>
<desc>lat.=22.026440, lon.=104.036026, Alt.=464.222900m. Speed=0.360000m/h.</desc>
<speed>0.100000</speed>
</trkpt>
<trkpt lat="22.026436" lon="104.036026">
<ele>464.160400</ele>
<time>2011-04-26T07:24:25Z</time>
<desc>lat.=22.026436, lon.=104.036026, Alt.=464.160400m. Speed=0.216000m/h.</desc>
<speed>0.060000</speed>
</trkpt>
<trkpt lat="22.026434" lon="104.036026">
<ele>464.097900</ele>
<time>2011-04-26T07:24:30Z</time>
<desc>lat.=22.026434, lon.=104.036026, Alt.=464.097900m. Speed=0.360000m/h.</desc>
<speed>0.100000</speed>
</trkpt>
<trkpt lat="22.026430" lon="104.036026">
<ele>464.058838</ele>
<time>2011-04-26T07:24:35Z</time>
<desc>lat.=22.026430, lon.=104.036026, Alt.=464.058838m. Speed=0.180000m/h.</desc>
<speed>0.050000</speed>
</trkpt>
<trkpt lat="22.026428" lon="104.036026">
<ele>464.004150</ele>
<time>2011-04-26T07:24:40Z</time>
<desc>lat.=22.026428, lon.=104.036026, Alt.=464.004150m. Speed=0.072000m/h.</desc>
<speed>0.020000</speed>
</trkpt>
<trkpt lat="22.026419" lon="104.036026">
<ele>463.879150</ele>
<time>2011-04-26T07:24:45Z</time>
<desc>lat.=22.026419, lon.=104.036026, Alt.=463.879150m. Speed=0.900000m/h.</desc>
<speed>0.250000</speed>
</trkpt>
<trkpt lat="22.026402" lon="104.036041">
<ele>463.441650</ele>
<time>2011-04-26T07:24:50Z</time>
<desc>lat.=22.026402, lon.=104.036041, Alt.=463.441650m. Speed=1.764000m/h.</desc>
<speed>0.490000</speed>
</trkpt>
<trkpt lat="22.026321" lon="104.036125">
<ele>460.371338</ele>
<time>2011-04-26T07:24:55Z</time>
<desc>lat.=22.026321, lon.=104.036125, Alt.=460.371338m. Speed=9.936000m/h.</desc>
<speed>2.760000</speed>
</trkpt>
<trkpt lat="22.026211" lon="104.036247">
<ele>456.605713</ele>
<time>2011-04-26T07:25:00Z</time>
<desc>lat.=22.026211, lon.=104.036247, Alt.=456.605713m. Speed=10.368000m/h.</desc>
<speed>2.880000</speed>
</trkpt>
<trkpt lat="22.026094" lon="104.036346">
<ele>453.769775</ele>
<time>2011-04-26T07:25:05Z</time>
<desc>lat.=22.026094, lon.=104.036346, Alt.=453.769775m. Speed=10.332000m/h.</desc>
<speed>2.870000</speed>
</trkpt>
<trkpt lat="22.025963" lon="104.036461">
<ele>450.746338</ele>
<time>2011-04-26T07:25:10Z</time>
<desc>lat.=22.025963, lon.=104.036461, Alt.=450.746338m. Speed=12.312000m/h.</desc>
<speed>3.420000</speed>
</trkpt>
<trkpt lat="22.025806" lon="104.036583">
<ele>449.402588</ele>
<time>2011-04-26T07:25:15Z</time>
<desc>lat.=22.025806, lon.=104.036583, Alt.=449.402588m. Speed=12.492000m/h.</desc>
<speed>3.470000</speed>
</trkpt>
<trkpt lat="22.025705" lon="104.036652">
<ele>447.402588</ele>
<time>2011-04-26T07:25:20Z</time>
<desc>lat.=22.025705, lon.=104.036652, Alt.=447.402588m. Speed=6.660000m/h.</desc>
<speed>1.850000</speed>
</trkpt>
<trkpt lat="22.025595" lon="104.036797">
<ele>447.152588</ele>
<time>2011-04-26T07:25:25Z</time>
<desc>lat.=22.025595, lon.=104.036797, Alt.=447.152588m. Speed=11.844000m/h.</desc>
<speed>3.290000</speed>
</trkpt>
<trkpt lat="22.025511" lon="104.036926">
<ele>448.027588</ele>
<time>2011-04-26T07:25:30Z</time>
<desc>lat.=22.025511, lon.=104.036926, Alt.=448.027588m. Speed=8.064000m/h.</desc>
<speed>2.240000</speed>
</trkpt>
<trkpt lat="22.025423" lon="104.037086">
<ele>448.285400</ele>
<time>2011-04-26T07:25:35Z</time>
<desc>lat.=22.025423, lon.=104.037086, Alt.=448.285400m. Speed=10.512000m/h.</desc>
<speed>2.920000</speed>
</trkpt>
<trkpt lat="22.025335" lon="104.037285">
<ele>452.472900</ele>
<time>2011-04-26T07:25:40Z</time>
<desc>lat.=22.025335, lon.=104.037285, Alt.=452.472900m. Speed=11.700000m/h.</desc>
<speed>3.250000</speed>
</trkpt>
<trkpt lat="22.025232" lon="104.037483">
<ele>453.121338</ele>
<time>2011-04-26T07:25:45Z</time>
<desc>lat.=22.025232, lon.=104.037483, Alt.=453.121338m. Speed=12.924000m/h.</desc>
<speed>3.590000</speed>
</trkpt>
<trkpt lat="22.025173" lon="104.037674">
<ele>451.379150</ele>
<time>2011-04-26T07:25:50Z</time>
<desc>lat.=22.025173, lon.=104.037674, Alt.=451.379150m. Speed=12.276000m/h.</desc>
<speed>3.410000</speed>
</trkpt>
<trkpt lat="22.025137" lon="104.037926">
<ele>450.777588</ele>
<time>2011-04-26T07:25:55Z</time>
<desc>lat.=22.025137, lon.=104.037926, Alt.=450.777588m. Speed=13.716000m/h.</desc>
<speed>3.810000</speed>
</trkpt>
<trkpt lat="22.025095" lon="104.038132">
<ele>450.566650</ele>
<time>2011-04-26T07:26:00Z</time>
<desc>lat.=22.025095, lon.=104.038132, Alt.=450.566650m. Speed=12.672000m/h.</desc>
<speed>3.520000</speed>
</trkpt>
<trkpt lat="22.025034" lon="104.038261">
<ele>451.144775</ele>
<time>2011-04-26T07:26:05Z</time>
<desc>lat.=22.025034, lon.=104.038261, Alt.=451.144775m. Speed=6.696000m/h.</desc>
<speed>1.860000</speed>
</trkpt>
<trkpt lat="22.024942" lon="104.038383">
<ele>451.949463</ele>
<time>2011-04-26T07:26:10Z</time>
<desc>lat.=22.024942, lon.=104.038383, Alt.=451.949463m. Speed=11.196000m/h.</desc>
<speed>3.110000</speed>
</trkpt>
<trkpt lat="22.024811" lon="104.038506">
<ele>452.699463</ele>
<time>2011-04-26T07:26:15Z</time>
<desc>lat.=22.024811, lon.=104.038506, Alt.=452.699463m. Speed=8.856000m/h.</desc>
<speed>2.460000</speed>
</trkpt>
<trkpt lat="22.024666" lon="104.038620">
<ele>454.183838</ele>
<time>2011-04-26T07:26:20Z</time>
<desc>lat.=22.024666, lon.=104.038620, Alt.=454.183838m. Speed=11.520000m/h.</desc>
<speed>3.200000</speed>
</trkpt>
<trkpt lat="22.024481" lon="104.038658">
<ele>454.691650</ele>
<time>2011-04-26T07:26:25Z</time>
<desc>lat.=22.024481, lon.=104.038658, Alt.=454.691650m. Speed=10.584000m/h.</desc>
<speed>2.940000</speed>
</trkpt>
<trkpt lat="22.024359" lon="104.038704">
<ele>455.668213</ele>
<time>2011-04-26T07:26:30Z</time>
<desc>lat.=22.024359, lon.=104.038704, Alt.=455.668213m. Speed=7.848000m/h.</desc>
<speed>2.180000</speed>
</trkpt>
<trkpt lat="22.024210" lon="104.038750">
<ele>457.496338</ele>
<time>2011-04-26T07:26:35Z</time>
<desc>lat.=22.024210, lon.=104.038750, Alt.=457.496338m. Speed=11.016000m/h.</desc>
<speed>3.060000</speed>
</trkpt>
<trkpt lat="22.024088" lon="104.038773">
<ele>458.808838</ele>
<time>2011-04-26T07:26:40Z</time>
<desc>lat.=22.024088, lon.=104.038773, Alt.=458.808838m. Speed=14.364000m/h.</desc>
<speed>3.990000</speed>
</trkpt>
<trkpt lat="22.023949" lon="104.038795">
<ele>459.988525</ele>
<time>2011-04-26T07:26:45Z</time>
<desc>lat.=22.023949, lon.=104.038795, Alt.=459.988525m. Speed=10.296000m/h.</desc>
<speed>2.860000</speed>
</trkpt>
<trkpt lat="22.023827" lon="104.038834">
<ele>461.355713</ele>
<time>2011-04-26T07:26:50Z</time>
<desc>lat.=22.023827, lon.=104.038834, Alt.=461.355713m. Speed=8.100000m/h.</desc>
<speed>2.250000</speed>
</trkpt>
<trkpt lat="22.023705" lon="104.038834">
<ele>463.988525</ele>
<time>2011-04-26T07:26:55Z</time>
<desc>lat.=22.023705, lon.=104.038834, Alt.=463.988525m. Speed=8.892000m/h.</desc>
<speed>2.470000</speed>
</trkpt>
<trkpt lat="22.023542" lon="104.038841">
<ele>465.707275</ele>
<time>2011-04-26T07:27:00Z</time>
<desc>lat.=22.023542, lon.=104.038841, Alt.=465.707275m. Speed=9.576000m/h.</desc>
<speed>2.660000</speed>
</trkpt>
<trkpt lat="22.023399" lon="104.038864">
<ele>467.254150</ele>
<time>2011-04-26T07:27:05Z</time>
<desc>lat.=22.023399, lon.=104.038864, Alt.=467.254150m. Speed=8.424000m/h.</desc>
<speed>2.340000</speed>
</trkpt>
<trkpt lat="22.023272" lon="104.038887">
<ele>469.472900</ele>
<time>2011-04-26T07:27:10Z</time>
<desc>lat.=22.023272, lon.=104.038887, Alt.=469.472900m. Speed=9.360000m/h.</desc>
<speed>2.600000</speed>
</trkpt>
<trkpt lat="22.023142" lon="104.038902">
<ele>470.957275</ele>
<time>2011-04-26T07:27:15Z</time>
<desc>lat.=22.023142, lon.=104.038902, Alt.=470.957275m. Speed=9.360000m/h.</desc>
<speed>2.600000</speed>
</trkpt>
<trkpt lat="22.023003" lon="104.038925">
<ele>472.996338</ele>
<time>2011-04-26T07:27:20Z</time>
<desc>lat.=22.023003, lon.=104.038925, Alt.=472.996338m. Speed=10.908000m/h.</desc>
<speed>3.030000</speed>
</trkpt>
<trkpt lat="22.022860" lon="104.038940">
<ele>474.816650</ele>
<time>2011-04-26T07:27:25Z</time>
<desc>lat.=22.022860, lon.=104.038940, Alt.=474.816650m. Speed=9.144000m/h.</desc>
<speed>2.540000</speed>
</trkpt>
<trkpt lat="22.022667" lon="104.038956">
<ele>474.972900</ele>
<time>2011-04-26T07:27:30Z</time>
<desc>lat.=22.022667, lon.=104.038956, Alt.=474.972900m. Speed=12.708000m/h.</desc>
<speed>3.530000</speed>
</trkpt>
<trkpt lat="22.022511" lon="104.038963">
<ele>475.668213</ele>
<time>2011-04-26T07:27:35Z</time>
<desc>lat.=22.022511, lon.=104.038963, Alt.=475.668213m. Speed=10.260000m/h.</desc>
<speed>2.850000</speed>
</trkpt>
<trkpt lat="22.022352" lon="104.039001">
<ele>477.590088</ele>
<time>2011-04-26T07:27:40Z</time>
<desc>lat.=22.022352, lon.=104.039001, Alt.=477.590088m. Speed=12.420000m/h.</desc>
<speed>3.450000</speed>
</trkpt>
<trkpt lat="22.022213" lon="104.039070">
<ele>479.301025</ele>
<time>2011-04-26T07:27:45Z</time>
<desc>lat.=22.022213, lon.=104.039070, Alt.=479.301025m. Speed=10.836000m/h.</desc>
<speed>3.010000</speed>
</trkpt>
<trkpt lat="22.022034" lon="104.039139">
<ele>479.894775</ele>
<time>2011-04-26T07:27:50Z</time>
<desc>lat.=22.022034, lon.=104.039139, Alt.=479.894775m. Speed=13.284000m/h.</desc>
<speed>3.690000</speed>
</trkpt>
<trkpt lat="22.021843" lon="104.039246">
<ele>480.308838</ele>
<time>2011-04-26T07:27:55Z</time>
<desc>lat.=22.021843, lon.=104.039246, Alt.=480.308838m. Speed=17.784000m/h.</desc>
<speed>4.940000</speed>
</trkpt>
<trkpt lat="22.021622" lon="104.039413">
<ele>479.707275</ele>
<time>2011-04-26T07:28:00Z</time>
<desc>lat.=22.021622, lon.=104.039413, Alt.=479.707275m. Speed=22.968000m/h.</desc>
<speed>6.380000</speed>
</trkpt>
<trkpt lat="22.021412" lon="104.039612">
<ele>478.301025</ele>
<time>2011-04-26T07:28:05Z</time>
<desc>lat.=22.021412, lon.=104.039612, Alt.=478.301025m. Speed=20.340000m/h.</desc>
<speed>5.650000</speed>
</trkpt>
<trkpt lat="22.021175" lon="104.039909">
<ele>474.011963</ele>
<time>2011-04-26T07:28:10Z</time>
<desc>lat.=22.021175, lon.=104.039909, Alt.=474.011963m. Speed=22.284000m/h.</desc>
<speed>6.190000</speed>
</trkpt>
<trkpt lat="22.021006" lon="104.040131">
<ele>474.121338</ele>
<time>2011-04-26T07:28:15Z</time>
<desc>lat.=22.021006, lon.=104.040131, Alt.=474.121338m. Speed=20.520000m/h.</desc>
<speed>5.700000</speed>
</trkpt>
<trkpt lat="22.020758" lon="104.040398">
<ele>471.254150</ele>
<time>2011-04-26T07:28:20Z</time>
<desc>lat.=22.020758, lon.=104.040398, Alt.=471.254150m. Speed=24.372000m/h.</desc>
<speed>6.770000</speed>
</trkpt>
<trkpt lat="22.020456" lon="104.040634">
<ele>464.207275</ele>
<time>2011-04-26T07:28:25Z</time>
<desc>lat.=22.020456, lon.=104.040634, Alt.=464.207275m. Speed=27.323999m/h.</desc>
<speed>7.590000</speed>
</trkpt>
<trkpt lat="22.020172" lon="104.040863">
<ele>461.535400</ele>
<time>2011-04-26T07:28:30Z</time>
<desc>lat.=22.020172, lon.=104.040863, Alt.=461.535400m. Speed=27.504000m/h.</desc>
<speed>7.640000</speed>
</trkpt>
<trkpt lat="22.019920" lon="104.041046">
<ele>458.543213</ele>
<time>2011-04-26T07:28:35Z</time>
<desc>lat.=22.019920, lon.=104.041046, Alt.=458.543213m. Speed=19.368000m/h.</desc>
<speed>5.380000</speed>
</trkpt>
<trkpt lat="22.019756" lon="104.041153">
<ele>455.988525</ele>
<time>2011-04-26T07:28:40Z</time>
<desc>lat.=22.019756, lon.=104.041153, Alt.=455.988525m. Speed=11.160000m/h.</desc>
<speed>3.100000</speed>
</trkpt>
<trkpt lat="22.019632" lon="104.041245">
<ele>454.957275</ele>
<time>2011-04-26T07:28:45Z</time>
<desc>lat.=22.019632, lon.=104.041245, Alt.=454.957275m. Speed=10.548000m/h.</desc>
<speed>2.930000</speed>
</trkpt>
<trkpt lat="22.019543" lon="104.041336">
<ele>452.996338</ele>
<time>2011-04-26T07:28:50Z</time>
<desc>lat.=22.019543, lon.=104.041336, Alt.=452.996338m. Speed=9.576000m/h.</desc>
<speed>2.660000</speed>
</trkpt>
<trkpt lat="22.019451" lon="104.041389">
<ele>452.058838</ele>
<time>2011-04-26T07:28:55Z</time>
<desc>lat.=22.019451, lon.=104.041389, Alt.=452.058838m. Speed=7.632000m/h.</desc>
<speed>2.120000</speed>
</trkpt>
<trkpt lat="22.019361" lon="104.041481">
<ele>451.394775</ele>
<time>2011-04-26T07:29:00Z</time>
<desc>lat.=22.019361, lon.=104.041481, Alt.=451.394775m. Speed=11.556000m/h.</desc>
<speed>3.210000</speed>
</trkpt>
<trkpt lat="22.019281" lon="104.041634">
<ele>453.980713</ele>
<time>2011-04-26T07:29:05Z</time>
<desc>lat.=22.019281, lon.=104.041634, Alt.=453.980713m. Speed=10.548000m/h.</desc>
<speed>2.930000</speed>
</trkpt>
<trkpt lat="22.019192" lon="104.041740">
<ele>453.816650</ele>
<time>2011-04-26T07:29:10Z</time>
<desc>lat.=22.019192, lon.=104.041740, Alt.=453.816650m. Speed=10.080000m/h.</desc>
<speed>2.800000</speed>
</trkpt>
<trkpt lat="22.019089" lon="104.041878">
<ele>453.668213</ele>
<time>2011-04-26T07:29:15Z</time>
<desc>lat.=22.019089, lon.=104.041878, Alt.=453.668213m. Speed=9.324000m/h.</desc>
<speed>2.590000</speed>
</trkpt>
<trkpt lat="22.018984" lon="104.042023">
<ele>453.511963</ele>
<time>2011-04-26T07:29:20Z</time>
<desc>lat.=22.018984, lon.=104.042023, Alt.=453.511963m. Speed=8.712000m/h.</desc>
<speed>2.420000</speed>
</trkpt>
<trkpt lat="22.018904" lon="104.042183">
<ele>452.465088</ele>
<time>2011-04-26T07:29:25Z</time>
<desc>lat.=22.018904, lon.=104.042183, Alt.=452.465088m. Speed=11.484000m/h.</desc>
<speed>3.190000</speed>
</trkpt>
<trkpt lat="22.018799" lon="104.042358">
<ele>452.215088</ele>
<time>2011-04-26T07:29:30Z</time>
<desc>lat.=22.018799, lon.=104.042358, Alt.=452.215088m. Speed=11.772000m/h.</desc>
<speed>3.270000</speed>
</trkpt>
<trkpt lat="22.018660" lon="104.042496">
<ele>453.035400</ele>
<time>2011-04-26T07:29:35Z</time>
<desc>lat.=22.018660, lon.=104.042496, Alt.=453.035400m. Speed=13.896000m/h.</desc>
<speed>3.860000</speed>
</trkpt>
<trkpt lat="22.018494" lon="104.042564">
<ele>454.082275</ele>
<time>2011-04-26T07:29:40Z</time>
<desc>lat.=22.018494, lon.=104.042564, Alt.=454.082275m. Speed=13.320000m/h.</desc>
<speed>3.700000</speed>
</trkpt>
<trkpt lat="22.018326" lon="104.042656">
<ele>456.136963</ele>
<time>2011-04-26T07:29:45Z</time>
<desc>lat.=22.018326, lon.=104.042656, Alt.=456.136963m. Speed=11.268000m/h.</desc>
<speed>3.130000</speed>
</trkpt>
<trkpt lat="22.018173" lon="104.042717">
<ele>456.863525</ele>
<time>2011-04-26T07:29:50Z</time>
<desc>lat.=22.018173, lon.=104.042717, Alt.=456.863525m. Speed=12.420000m/h.</desc>
<speed>3.450000</speed>
</trkpt>
<trkpt lat="22.018023" lon="104.042770">
<ele>458.754150</ele>
<time>2011-04-26T07:29:55Z</time>
<desc>lat.=22.018023, lon.=104.042770, Alt.=458.754150m. Speed=12.888000m/h.</desc>
<speed>3.580000</speed>
</trkpt>
<trkpt lat="22.017914" lon="104.042854">
<ele>461.511963</ele>
<time>2011-04-26T07:30:00Z</time>
<desc>lat.=22.017914, lon.=104.042854, Alt.=461.511963m. Speed=10.728000m/h.</desc>
<speed>2.980000</speed>
</trkpt>
<trkpt lat="22.017851" lon="104.042946">
<ele>463.894775</ele>
<time>2011-04-26T07:30:05Z</time>
<desc>lat.=22.017851, lon.=104.042946, Alt.=463.894775m. Speed=8.748000m/h.</desc>
<speed>2.430000</speed>
</trkpt>
<trkpt lat="22.017717" lon="104.043114">
<ele>464.926025</ele>
<time>2011-04-26T07:30:10Z</time>
<desc>lat.=22.017717, lon.=104.043114, Alt.=464.926025m. Speed=11.772000m/h.</desc>
<speed>3.270000</speed>
</trkpt>
<trkpt lat="22.017572" lon="104.043228">
<ele>467.308838</ele>
<time>2011-04-26T07:30:15Z</time>
<desc>lat.=22.017572, lon.=104.043228, Alt.=467.308838m. Speed=11.556000m/h.</desc>
<speed>3.210000</speed>
</trkpt>
<trkpt lat="22.017418" lon="104.043396">
<ele>470.355713</ele>
<time>2011-04-26T07:30:20Z</time>
<desc>lat.=22.017418, lon.=104.043396, Alt.=470.355713m. Speed=10.260000m/h.</desc>
<speed>2.850000</speed>
</trkpt>
<trkpt lat="22.017319" lon="104.043541">
<ele>472.629150</ele>
<time>2011-04-26T07:30:25Z</time>
<desc>lat.=22.017319, lon.=104.043541, Alt.=472.629150m. Speed=8.496000m/h.</desc>
<speed>2.360000</speed>
</trkpt>
<trkpt lat="22.017204" lon="104.043678">
<ele>475.574463</ele>
<time>2011-04-26T07:30:30Z</time>
<desc>lat.=22.017204, lon.=104.043678, Alt.=475.574463m. Speed=9.972000m/h.</desc>
<speed>2.770000</speed>
</trkpt>
<trkpt lat="22.017117" lon="104.043800">
<ele>478.277588</ele>
<time>2011-04-26T07:30:35Z</time>
<desc>lat.=22.017117, lon.=104.043800, Alt.=478.277588m. Speed=6.624000m/h.</desc>
<speed>1.840000</speed>
</trkpt>
<trkpt lat="22.017023" lon="104.043922">
<ele>481.722900</ele>
<time>2011-04-26T07:30:40Z</time>
<desc>lat.=22.017023, lon.=104.043922, Alt.=481.722900m. Speed=6.660000m/h.</desc>
<speed>1.850000</speed>
</trkpt>
<trkpt lat="22.016911" lon="104.044098">
<ele>484.136963</ele>
<time>2011-04-26T07:30:45Z</time>
<desc>lat.=22.016911, lon.=104.044098, Alt.=484.136963m. Speed=8.892000m/h.</desc>
<speed>2.470000</speed>
</trkpt>
<trkpt lat="22.016825" lon="104.044212">
<ele>486.816650</ele>
<time>2011-04-26T07:30:50Z</time>
<desc>lat.=22.016825, lon.=104.044212, Alt.=486.816650m. Speed=7.704000m/h.</desc>
<speed>2.140000</speed>
</trkpt>
<trkpt lat="22.016729" lon="104.044319">
<ele>485.918213</ele>
<time>2011-04-26T07:30:55Z</time>
<desc>lat.=22.016729, lon.=104.044319, Alt.=485.918213m. Speed=6.120000m/h.</desc>
<speed>1.700000</speed>
</trkpt>
<trkpt lat="22.016653" lon="104.044403">
<ele>486.871338</ele>
<time>2011-04-26T07:31:00Z</time>
<desc>lat.=22.016653, lon.=104.044403, Alt.=486.871338m. Speed=11.088000m/h.</desc>
<speed>3.080000</speed>
</trkpt>
<trkpt lat="22.016602" lon="104.044586">
<ele>488.691650</ele>
<time>2011-04-26T07:31:05Z</time>
<desc>lat.=22.016602, lon.=104.044586, Alt.=488.691650m. Speed=6.732000m/h.</desc>
<speed>1.870000</speed>
</trkpt>
<trkpt lat="22.016558" lon="104.044731">
<ele>490.746338</ele>
<time>2011-04-26T07:31:10Z</time>
<desc>lat.=22.016558, lon.=104.044731, Alt.=490.746338m. Speed=7.596000m/h.</desc>
<speed>2.110000</speed>
</trkpt>
<trkpt lat="22.016512" lon="104.044868">
<ele>492.582275</ele>
<time>2011-04-26T07:31:15Z</time>
<desc>lat.=22.016512, lon.=104.044868, Alt.=492.582275m. Speed=4.500000m/h.</desc>
<speed>1.250000</speed>
</trkpt>
<trkpt lat="22.016449" lon="104.044983">
<ele>494.832275</ele>
<time>2011-04-26T07:31:20Z</time>
<desc>lat.=22.016449, lon.=104.044983, Alt.=494.832275m. Speed=7.308000m/h.</desc>
<speed>2.030000</speed>
</trkpt>
<trkpt lat="22.016352" lon="104.045105">
<ele>496.754150</ele>
<time>2011-04-26T07:31:25Z</time>
<desc>lat.=22.016352, lon.=104.045105, Alt.=496.754150m. Speed=7.452000m/h.</desc>
<speed>2.070000</speed>
</trkpt>
<trkpt lat="22.016232" lon="104.045235">
<ele>497.355713</ele>
<time>2011-04-26T07:31:30Z</time>
<desc>lat.=22.016232, lon.=104.045235, Alt.=497.355713m. Speed=10.440000m/h.</desc>
<speed>2.900000</speed>
</trkpt>
<trkpt lat="22.016113" lon="104.045372">
<ele>498.105713</ele>
<time>2011-04-26T07:31:35Z</time>
<desc>lat.=22.016113, lon.=104.045372, Alt.=498.105713m. Speed=11.916000m/h.</desc>
<speed>3.310000</speed>
</trkpt>
<trkpt lat="22.015926" lon="104.045517">
<ele>497.590088</ele>
<time>2011-04-26T07:31:40Z</time>
<desc>lat.=22.015926, lon.=104.045517, Alt.=497.590088m. Speed=14.544000m/h.</desc>
<speed>4.040000</speed>
</trkpt>
<trkpt lat="22.015749" lon="104.045647">
<ele>497.957275</ele>
<time>2011-04-26T07:31:45Z</time>
<desc>lat.=22.015749, lon.=104.045647, Alt.=497.957275m. Speed=13.104000m/h.</desc>
<speed>3.640000</speed>
</trkpt>
<trkpt lat="22.015577" lon="104.045753">
<ele>497.160400</ele>
<time>2011-04-26T07:31:50Z</time>
<desc>lat.=22.015577, lon.=104.045753, Alt.=497.160400m. Speed=15.912000m/h.</desc>
<speed>4.420000</speed>
</trkpt>
<trkpt lat="22.015469" lon="104.045952">
<ele>494.769775</ele>
<time>2011-04-26T07:31:55Z</time>
<desc>lat.=22.015469, lon.=104.045952, Alt.=494.769775m. Speed=12.564000m/h.</desc>
<speed>3.490000</speed>
</trkpt>
<trkpt lat="22.015432" lon="104.046165">
<ele>496.457275</ele>
<time>2011-04-26T07:32:00Z</time>
<desc>lat.=22.015432, lon.=104.046165, Alt.=496.457275m. Speed=8.964000m/h.</desc>
<speed>2.490000</speed>
</trkpt>
<trkpt lat="22.015455" lon="104.046326">
<ele>494.519775</ele>
<time>2011-04-26T07:32:05Z</time>
<desc>lat.=22.015455, lon.=104.046326, Alt.=494.519775m. Speed=10.224000m/h.</desc>
<speed>2.840000</speed>
</trkpt>
<trkpt lat="22.015484" lon="104.046516">
<ele>491.879150</ele>
<time>2011-04-26T07:32:10Z</time>
<desc>lat.=22.015484, lon.=104.046516, Alt.=491.879150m. Speed=10.476000m/h.</desc>
<speed>2.910000</speed>
</trkpt>
<trkpt lat="22.015491" lon="104.046692">
<ele>486.566650</ele>
<time>2011-04-26T07:32:15Z</time>
<desc>lat.=22.015491, lon.=104.046692, Alt.=486.566650m. Speed=11.196000m/h.</desc>
<speed>3.110000</speed>
</trkpt>
<trkpt lat="22.015514" lon="104.046860">
<ele>482.105713</ele>
<time>2011-04-26T07:32:20Z</time>
<desc>lat.=22.015514, lon.=104.046860, Alt.=482.105713m. Speed=11.628000m/h.</desc>
<speed>3.230000</speed>
</trkpt>
<trkpt lat="22.015537" lon="104.047035">
<ele>477.965088</ele>
<time>2011-04-26T07:32:25Z</time>
<desc>lat.=22.015537, lon.=104.047035, Alt.=477.965088m. Speed=12.816000m/h.</desc>
<speed>3.560000</speed>
</trkpt>
<trkpt lat="22.015545" lon="104.047195">
<ele>476.246338</ele>
<time>2011-04-26T07:32:30Z</time>
<desc>lat.=22.015545, lon.=104.047195, Alt.=476.246338m. Speed=10.476000m/h.</desc>
<speed>2.910000</speed>
</trkpt>
<trkpt lat="22.015539" lon="104.047356">
<ele>474.793213</ele>
<time>2011-04-26T07:32:35Z</time>
<desc>lat.=22.015539, lon.=104.047356, Alt.=474.793213m. Speed=10.908000m/h.</desc>
<speed>3.030000</speed>
</trkpt>
<trkpt lat="22.015518" lon="104.047516">
<ele>474.019775</ele>
<time>2011-04-26T07:32:40Z</time>
<desc>lat.=22.015518, lon.=104.047516, Alt.=474.019775m. Speed=11.052000m/h.</desc>
<speed>3.070000</speed>
</trkpt>
<trkpt lat="22.015453" lon="104.047638">
<ele>473.441650</ele>
<time>2011-04-26T07:32:45Z</time>
<desc>lat.=22.015453, lon.=104.047638, Alt.=473.441650m. Speed=7.092000m/h.</desc>
<speed>1.970000</speed>
</trkpt>
<trkpt lat="22.015394" lon="104.047729">
<ele>473.558838</ele>
<time>2011-04-26T07:32:50Z</time>
<desc>lat.=22.015394, lon.=104.047729, Alt.=473.558838m. Speed=10.260000m/h.</desc>
<speed>2.850000</speed>
</trkpt>
<trkpt lat="22.015337" lon="104.047821">
<ele>473.433838</ele>
<time>2011-04-26T07:32:55Z</time>
<desc>lat.=22.015337, lon.=104.047821, Alt.=473.433838m. Speed=6.624000m/h.</desc>
<speed>1.840000</speed>
</trkpt>
<trkpt lat="22.015245" lon="104.047958">
<ele>474.160400</ele>
<time>2011-04-26T07:33:00Z</time>
<desc>lat.=22.015245, lon.=104.047958, Alt.=474.160400m. Speed=7.164000m/h.</desc>
<speed>1.990000</speed>
</trkpt>
<trkpt lat="22.015167" lon="104.048080">
<ele>474.394775</ele>
<time>2011-04-26T07:33:05Z</time>
<desc>lat.=22.015167, lon.=104.048080, Alt.=474.394775m. Speed=12.132000m/h.</desc>
<speed>3.370000</speed>
</trkpt>
<trkpt lat="22.015059" lon="104.048286">
<ele>474.801025</ele>
<time>2011-04-26T07:33:10Z</time>
<desc>lat.=22.015059, lon.=104.048286, Alt.=474.801025m. Speed=10.656000m/h.</desc>
<speed>2.960000</speed>
</trkpt>
<trkpt lat="22.015007" lon="104.048439">
<ele>477.199463</ele>
<time>2011-04-26T07:33:15Z</time>
<desc>lat.=22.015007, lon.=104.048439, Alt.=477.199463m. Speed=7.524000m/h.</desc>
<speed>2.090000</speed>
</trkpt>
<trkpt lat="22.014936" lon="104.048592">
<ele>478.043213</ele>
<time>2011-04-26T07:33:20Z</time>
<desc>lat.=22.014936, lon.=104.048592, Alt.=478.043213m. Speed=10.872000m/h.</desc>
<speed>3.020000</speed>
</trkpt>
<trkpt lat="22.014805" lon="104.048729">
<ele>478.761963</ele>
<time>2011-04-26T07:33:25Z</time>
<desc>lat.=22.014805, lon.=104.048729, Alt.=478.761963m. Speed=11.268000m/h.</desc>
<speed>3.130000</speed>
</trkpt>
<trkpt lat="22.014679" lon="104.048935">
<ele>478.886963</ele>
<time>2011-04-26T07:33:30Z</time>
<desc>lat.=22.014679, lon.=104.048935, Alt.=478.886963m. Speed=12.708000m/h.</desc>
<speed>3.530000</speed>
</trkpt>
<trkpt lat="22.014551" lon="104.049133">
<ele>478.152588</ele>
<time>2011-04-26T07:33:35Z</time>
<desc>lat.=22.014551, lon.=104.049133, Alt.=478.152588m. Speed=16.379999m/h.</desc>
<speed>4.550000</speed>
</trkpt>
<trkpt lat="22.014467" lon="104.049355">
<ele>477.785400</ele>
<time>2011-04-26T07:33:40Z</time>
<desc>lat.=22.014467, lon.=104.049355, Alt.=477.785400m. Speed=15.624000m/h.</desc>
<speed>4.340000</speed>
</trkpt>
<trkpt lat="22.014378" lon="104.049561">
<ele>477.761963</ele>
<time>2011-04-26T07:33:45Z</time>
<desc>lat.=22.014378, lon.=104.049561, Alt.=477.761963m. Speed=14.976000m/h.</desc>
<speed>4.160000</speed>
</trkpt>
<trkpt lat="22.014254" lon="104.049744">
<ele>474.293213</ele>
<time>2011-04-26T07:33:50Z</time>
<desc>lat.=22.014254, lon.=104.049744, Alt.=474.293213m. Speed=13.968000m/h.</desc>
<speed>3.880000</speed>
</trkpt>
<trkpt lat="22.014124" lon="104.049850">
<ele>473.207275</ele>
<time>2011-04-26T07:33:55Z</time>
<desc>lat.=22.014124, lon.=104.049850, Alt.=473.207275m. Speed=11.304000m/h.</desc>
<speed>3.140000</speed>
</trkpt>
<trkpt lat="22.013948" lon="104.050011">
<ele>471.465088</ele>
<time>2011-04-26T07:34:00Z</time>
<desc>lat.=22.013948, lon.=104.050011, Alt.=471.465088m. Speed=14.364000m/h.</desc>
<speed>3.990000</speed>
</trkpt>
<trkpt lat="22.013762" lon="104.050179">
<ele>470.082275</ele>
<time>2011-04-26T07:34:05Z</time>
<desc>lat.=22.013762, lon.=104.050179, Alt.=470.082275m. Speed=15.948000m/h.</desc>
<speed>4.430000</speed>
</trkpt>
<trkpt lat="22.013597" lon="104.050301">
<ele>469.449463</ele>
<time>2011-04-26T07:34:10Z</time>
<desc>lat.=22.013597, lon.=104.050301, Alt.=469.449463m. Speed=13.824000m/h.</desc>
<speed>3.840000</speed>
</trkpt>
<trkpt lat="22.013472" lon="104.050446">
<ele>467.402588</ele>
<time>2011-04-26T07:34:15Z</time>
<desc>lat.=22.013472, lon.=104.050446, Alt.=467.402588m. Speed=12.888000m/h.</desc>
<speed>3.580000</speed>
</trkpt>
<trkpt lat="22.013388" lon="104.050560">
<ele>467.621338</ele>
<time>2011-04-26T07:34:20Z</time>
<desc>lat.=22.013388, lon.=104.050560, Alt.=467.621338m. Speed=11.196000m/h.</desc>
<speed>3.110000</speed>
</trkpt>
<trkpt lat="22.013273" lon="104.050697">
<ele>466.980713</ele>
<time>2011-04-26T07:34:25Z</time>
<desc>lat.=22.013273, lon.=104.050697, Alt.=466.980713m. Speed=11.196000m/h.</desc>
<speed>3.110000</speed>
</trkpt>
<trkpt lat="22.013153" lon="104.050774">
<ele>466.426025</ele>
<time>2011-04-26T07:34:30Z</time>
<desc>lat.=22.013153, lon.=104.050774, Alt.=466.426025m. Speed=11.772000m/h.</desc>
<speed>3.270000</speed>
</trkpt>
<trkpt lat="22.013071" lon="104.050812">
<ele>466.363525</ele>
<time>2011-04-26T07:34:35Z</time>
<desc>lat.=22.013071, lon.=104.050812, Alt.=466.363525m. Speed=6.192000m/h.</desc>
<speed>1.720000</speed>
</trkpt>
<trkpt lat="22.012934" lon="104.050850">
<ele>466.816650</ele>
<time>2011-04-26T07:34:40Z</time>
<desc>lat.=22.012934, lon.=104.050850, Alt.=466.816650m. Speed=12.204000m/h.</desc>
<speed>3.390000</speed>
</trkpt>
<trkpt lat="22.012730" lon="104.050896">
<ele>466.183838</ele>
<time>2011-04-26T07:34:45Z</time>
<desc>lat.=22.012730, lon.=104.050896, Alt.=466.183838m. Speed=16.884001m/h.</desc>
<speed>4.690000</speed>
</trkpt>
<trkpt lat="22.012548" lon="104.050919">
<ele>465.504150</ele>
<time>2011-04-26T07:34:50Z</time>
<desc>lat.=22.012548, lon.=104.050919, Alt.=465.504150m. Speed=12.096000m/h.</desc>
<speed>3.360000</speed>
</trkpt>
<trkpt lat="22.012403" lon="104.050949">
<ele>465.090088</ele>
<time>2011-04-26T07:34:55Z</time>
<desc>lat.=22.012403, lon.=104.050949, Alt.=465.090088m. Speed=9.540000m/h.</desc>
<speed>2.650000</speed>
</trkpt>
<trkpt lat="22.012259" lon="104.050964">
<ele>466.668213</ele>
<time>2011-04-26T07:35:00Z</time>
<desc>lat.=22.012259, lon.=104.050964, Alt.=466.668213m. Speed=10.116000m/h.</desc>
<speed>2.810000</speed>
</trkpt>
<trkpt lat="22.012129" lon="104.050941">
<ele>468.269775</ele>
<time>2011-04-26T07:35:05Z</time>
<desc>lat.=22.012129, lon.=104.050941, Alt.=468.269775m. Speed=9.180000m/h.</desc>
<speed>2.550000</speed>
</trkpt>
<trkpt lat="22.011950" lon="104.050972">
<ele>469.152588</ele>
<time>2011-04-26T07:35:10Z</time>
<desc>lat.=22.011950, lon.=104.050972, Alt.=469.152588m. Speed=11.448000m/h.</desc>
<speed>3.180000</speed>
</trkpt>
<trkpt lat="22.011831" lon="104.050987">
<ele>469.183838</ele>
<time>2011-04-26T07:35:15Z</time>
<desc>lat.=22.011831, lon.=104.050987, Alt.=469.183838m. Speed=9.900000m/h.</desc>
<speed>2.750000</speed>
</trkpt>
<trkpt lat="22.011702" lon="104.050957">
<ele>469.488525</ele>
<time>2011-04-26T07:35:20Z</time>
<desc>lat.=22.011702, lon.=104.050957, Alt.=469.488525m. Speed=10.728000m/h.</desc>
<speed>2.980000</speed>
</trkpt>
<trkpt lat="22.011541" lon="104.050919">
<ele>472.183838</ele>
<time>2011-04-26T07:35:25Z</time>
<desc>lat.=22.011541, lon.=104.050919, Alt.=472.183838m. Speed=11.412000m/h.</desc>
<speed>3.170000</speed>
</trkpt>
<trkpt lat="22.011383" lon="104.050941">
<ele>472.699463</ele>
<time>2011-04-26T07:35:30Z</time>
<desc>lat.=22.011383, lon.=104.050941, Alt.=472.699463m. Speed=10.512000m/h.</desc>
<speed>2.920000</speed>
</trkpt>
<trkpt lat="22.011292" lon="104.050987">
<ele>474.613525</ele>
<time>2011-04-26T07:35:35Z</time>
<desc>lat.=22.011292, lon.=104.050987, Alt.=474.613525m. Speed=7.020000m/h.</desc>
<speed>1.950000</speed>
</trkpt>
<trkpt lat="22.011190" lon="104.050987">
<ele>474.660400</ele>
<time>2011-04-26T07:35:40Z</time>
<desc>lat.=22.011190, lon.=104.050987, Alt.=474.660400m. Speed=4.932000m/h.</desc>
<speed>1.370000</speed>
</trkpt>
<trkpt lat="22.011093" lon="104.050995">
<ele>476.347900</ele>
<time>2011-04-26T07:35:45Z</time>
<desc>lat.=22.011093, lon.=104.050995, Alt.=476.347900m. Speed=4.860000m/h.</desc>
<speed>1.350000</speed>
</trkpt>
<trkpt lat="22.011036" lon="104.051033">
<ele>477.426025</ele>
<time>2011-04-26T07:35:50Z</time>
<desc>lat.=22.011036, lon.=104.051033, Alt.=477.426025m. Speed=0.648000m/h.</desc>
<speed>0.180000</speed>
</trkpt>
<trkpt lat="22.011044" lon="104.051041">
<ele>477.863525</ele>
<time>2011-04-26T07:35:55Z</time>
<desc>lat.=22.011044, lon.=104.051041, Alt.=477.863525m. Speed=0.144000m/h.</desc>
<speed>0.040000</speed>
</trkpt>
<trkpt lat="22.011042" lon="104.051033">
<ele>478.090088</ele>
<time>2011-04-26T07:36:00Z</time>
<desc>lat.=22.011042, lon.=104.051033, Alt.=478.090088m. Speed=0.324000m/h.</desc>
<speed>0.090000</speed>
</trkpt>
<trkpt lat="22.011045" lon="104.051025">
<ele>478.340088</ele>
<time>2011-04-26T07:36:05Z</time>
<desc>lat.=22.011045, lon.=104.051025, Alt.=478.340088m. Speed=0.288000m/h.</desc>
<speed>0.080000</speed>
</trkpt>
<trkpt lat="22.010988" lon="104.051064">
<ele>478.988525</ele>
<time>2011-04-26T07:36:10Z</time>
<desc>lat.=22.010988, lon.=104.051064, Alt.=478.988525m. Speed=7.740000m/h.</desc>
<speed>2.150000</speed>
</trkpt>
<trkpt lat="22.010836" lon="104.051201">
<ele>477.941650</ele>
<time>2011-04-26T07:36:15Z</time>
<desc>lat.=22.010836, lon.=104.051201, Alt.=477.941650m. Speed=9.828000m/h.</desc>
<speed>2.730000</speed>
</trkpt>
<trkpt lat="22.010742" lon="104.051315">
<ele>476.441650</ele>
<time>2011-04-26T07:36:20Z</time>
<desc>lat.=22.010742, lon.=104.051315, Alt.=476.441650m. Speed=6.048000m/h.</desc>
<speed>1.680000</speed>
</trkpt>
<trkpt lat="22.010674" lon="104.051392">
<ele>474.847900</ele>
<time>2011-04-26T07:36:25Z</time>
<desc>lat.=22.010674, lon.=104.051392, Alt.=474.847900m. Speed=4.032000m/h.</desc>
<speed>1.120000</speed>
</trkpt>
<trkpt lat="22.010603" lon="104.051460">
<ele>473.566650</ele>
<time>2011-04-26T07:36:30Z</time>
<desc>lat.=22.010603, lon.=104.051460, Alt.=473.566650m. Speed=4.572000m/h.</desc>
<speed>1.270000</speed>
</trkpt>
<trkpt lat="22.010590" lon="104.051498">
<ele>472.019775</ele>
<time>2011-04-26T07:36:35Z</time>
<desc>lat.=22.010590, lon.=104.051498, Alt.=472.019775m. Speed=1.764000m/h.</desc>
<speed>0.490000</speed>
</trkpt>
<trkpt lat="22.010590" lon="104.051506">
<ele>471.222900</ele>
<time>2011-04-26T07:36:40Z</time>
<desc>lat.=22.010590, lon.=104.051506, Alt.=471.222900m. Speed=0.936000m/h.</desc>
<speed>0.260000</speed>
</trkpt>
<trkpt lat="22.010578" lon="104.051514">
<ele>471.433838</ele>
<time>2011-04-26T07:36:45Z</time>
<desc>lat.=22.010578, lon.=104.051514, Alt.=471.433838m. Speed=0.072000m/h.</desc>
<speed>0.020000</speed>
</trkpt>
<trkpt lat="22.010578" lon="104.051514">
<ele>471.465088</ele>
<time>2011-04-26T07:36:50Z</time>
<desc>lat.=22.010578, lon.=104.051514, Alt.=471.465088m. Speed=0.072000m/h.</desc>
<speed>0.020000</speed>
</trkpt>
<trkpt lat="22.010578" lon="104.051514">
<ele>471.465088</ele>
<time>2011-04-26T07:36:55Z</time>
<desc>lat.=22.010578, lon.=104.051514, Alt.=471.465088m. Speed=0.000000m/h.</desc>
<speed>0.000000</speed>
</trkpt>
<trkpt lat="22.010580" lon="104.051514">
<ele>471.582275</ele>
<time>2011-04-26T07:37:00Z</time>
<desc>lat.=22.010580, lon.=104.051514, Alt.=471.582275m. Speed=0.216000m/h.</desc>
<speed>0.060000</speed>
</trkpt>
<trkpt lat="22.010580" lon="104.051514">
<ele>471.582275</ele>
<time>2011-04-26T07:37:05Z</time>
<desc>lat.=22.010580, lon.=104.051514, Alt.=471.582275m. Speed=0.180000m/h.</desc>
<speed>0.050000</speed>
</trkpt>
<trkpt lat="22.010580" lon="104.051514">
<ele>471.629150</ele>
<time>2011-04-26T07:37:10Z</time>
<desc>lat.=22.010580, lon.=104.051514, Alt.=471.629150m. Speed=0.036000m/h.</desc>
<speed>0.010000</speed>
</trkpt>
<trkpt lat="22.010580" lon="104.051514">
<ele>471.621338</ele>
<time>2011-04-26T07:37:15Z</time>
<desc>lat.=22.010580, lon.=104.051514, Alt.=471.621338m. Speed=0.000000m/h.</desc>
<speed>0.000000</speed>
</trkpt>
<trkpt lat="22.010580" lon="104.051514">
<ele>471.605713</ele>
<time>2011-04-26T07:37:20Z</time>
<desc>lat.=22.010580, lon.=104.051514, Alt.=471.605713m. Speed=0.072000m/h.</desc>
<speed>0.020000</speed>
</trkpt>
<trkpt lat="22.010580" lon="104.051514">
<ele>471.582275</ele>
<time>2011-04-26T07:37:25Z</time>
<desc>lat.=22.010580, lon.=104.051514, Alt.=471.582275m. Speed=0.036000m/h.</desc>
<speed>0.010000</speed>
</trkpt>
<trkpt lat="22.010578" lon="104.051514">
<ele>471.566650</ele>
<time>2011-04-26T07:37:30Z</time>
<desc>lat.=22.010578, lon.=104.051514, Alt.=471.566650m. Speed=0.072000m/h.</desc>
<speed>0.020000</speed>
</trkpt>
<trkpt lat="22.010578" lon="104.051514">
<ele>471.566650</ele>
<time>2011-04-26T07:37:35Z</time>
<desc>lat.=22.010578, lon.=104.051514, Alt.=471.566650m. Speed=0.036000m/h.</desc>
<speed>0.010000</speed>
</trkpt>
<trkpt lat="22.010576" lon="104.051514">
<ele>471.972900</ele>
<time>2011-04-26T07:37:40Z</time>
<desc>lat.=22.010576, lon.=104.051514, Alt.=471.972900m. Speed=0.000000m/h.</desc>
<speed>0.000000</speed>
</trkpt>
<trkpt lat="22.010567" lon="104.051521">
<ele>471.777588</ele>
<time>2011-04-26T07:37:45Z</time>
<desc>lat.=22.010567, lon.=104.051521, Alt.=471.777588m. Speed=0.108000m/h.</desc>
<speed>0.030000</speed>
</trkpt>
<trkpt lat="22.010559" lon="104.051529">
<ele>470.707275</ele>
<time>2011-04-26T07:37:50Z</time>
<desc>lat.=22.010559, lon.=104.051529, Alt.=470.707275m. Speed=0.036000m/h.</desc>
<speed>0.010000</speed>
</trkpt>
<trkpt lat="22.010553" lon="104.051529">
<ele>470.394775</ele>
<time>2011-04-26T07:37:55Z</time>
<desc>lat.=22.010553, lon.=104.051529, Alt.=470.394775m. Speed=0.036000m/h.</desc>
<speed>0.010000</speed>
</trkpt>
<trkpt lat="22.010550" lon="104.051544">
<ele>469.957275</ele>
<time>2011-04-26T07:38:00Z</time>
<desc>lat.=22.010550, lon.=104.051544, Alt.=469.957275m. Speed=0.036000m/h.</desc>
<speed>0.010000</speed>
</trkpt>
<trkpt lat="22.010550" lon="104.051544">
<ele>471.144775</ele>
<time>2011-04-26T07:38:05Z</time>
<desc>lat.=22.010550, lon.=104.051544, Alt.=471.144775m. Speed=0.072000m/h.</desc>
<speed>0.020000</speed>
</trkpt>
<trkpt lat="22.010553" lon="104.051544">
<ele>471.261963</ele>
<time>2011-04-26T07:38:10Z</time>
<desc>lat.=22.010553, lon.=104.051544, Alt.=471.261963m. Speed=0.216000m/h.</desc>
<speed>0.060000</speed>
</trkpt>
<trkpt lat="22.010557" lon="104.051544">
<ele>471.777588</ele>
<time>2011-04-26T07:38:15Z</time>
<desc>lat.=22.010557, lon.=104.051544, Alt.=471.777588m. Speed=0.000000m/h.</desc>
<speed>0.000000</speed>
</trkpt>
<trkpt lat="22.010555" lon="104.051537">
<ele>471.879150</ele>
<time>2011-04-26T07:38:20Z</time>
<desc>lat.=22.010555, lon.=104.051537, Alt.=471.879150m. Speed=0.000000m/h.</desc>
<speed>0.000000</speed>
</trkpt>
<trkpt lat="22.010555" lon="104.051537">
<ele>471.886963</ele>
<time>2011-04-26T07:38:25Z</time>
<desc>lat.=22.010555, lon.=104.051537, Alt.=471.886963m. Speed=0.108000m/h.</desc>
<speed>0.030000</speed>
</trkpt>
<trkpt lat="22.010557" lon="104.051537">
<ele>471.879150</ele>
<time>2011-04-26T07:38:30Z</time>
<desc>lat.=22.010557, lon.=104.051537, Alt.=471.879150m. Speed=0.000000m/h.</desc>
<speed>0.000000</speed>
</trkpt>
<trkpt lat="22.010542" lon="104.051537">
<ele>471.855713</ele>
<time>2011-04-26T07:38:35Z</time>
<desc>lat.=22.010542, lon.=104.051537, Alt.=471.855713m. Speed=2.916000m/h.</desc>
<speed>0.810000</speed>
</trkpt>
<trkpt lat="22.010468" lon="104.051559">
<ele>471.707275</ele>
<time>2011-04-26T07:38:40Z</time>
<desc>lat.=22.010468, lon.=104.051559, Alt.=471.707275m. Speed=5.760000m/h.</desc>
<speed>1.600000</speed>
</trkpt>
<trkpt lat="22.010288" lon="104.051735">
<ele>471.676025</ele>
<time>2011-04-26T07:38:45Z</time>
<desc>lat.=22.010288, lon.=104.051735, Alt.=471.676025m. Speed=19.944000m/h.</desc>
<speed>5.540000</speed>
</trkpt>
<trkpt lat="22.010109" lon="104.051895">
<ele>471.090088</ele>
<time>2011-04-26T07:38:50Z</time>
<desc>lat.=22.010109, lon.=104.051895, Alt.=471.090088m. Speed=12.420000m/h.</desc>
<speed>3.450000</speed>
</trkpt>
<trkpt lat="22.009911" lon="104.052055">
<ele>471.277588</ele>
<time>2011-04-26T07:38:55Z</time>
<desc>lat.=22.009911, lon.=104.052055, Alt.=471.277588m. Speed=16.164000m/h.</desc>
<speed>4.490000</speed>
</trkpt>
<trkpt lat="22.009699" lon="104.052185">
<ele>471.488525</ele>
<time>2011-04-26T07:39:00Z</time>
<desc>lat.=22.009699, lon.=104.052185, Alt.=471.488525m. Speed=12.708000m/h.</desc>
<speed>3.530000</speed>
</trkpt>
<trkpt lat="22.009520" lon="104.052315">
<ele>470.894775</ele>
<time>2011-04-26T07:39:05Z</time>
<desc>lat.=22.009520, lon.=104.052315, Alt.=470.894775m. Speed=13.500000m/h.</desc>
<speed>3.750000</speed>
</trkpt>
<trkpt lat="22.009359" lon="104.052422">
<ele>470.168213</ele>
<time>2011-04-26T07:39:10Z</time>
<desc>lat.=22.009359, lon.=104.052422, Alt.=470.168213m. Speed=12.636000m/h.</desc>
<speed>3.510000</speed>
</trkpt>
<trkpt lat="22.009157" lon="104.052551">
<ele>469.582275</ele>
<time>2011-04-26T07:39:15Z</time>
<desc>lat.=22.009157, lon.=104.052551, Alt.=469.582275m. Speed=11.088000m/h.</desc>
<speed>3.080000</speed>
</trkpt>
<trkpt lat="22.008995" lon="104.052704">
<ele>469.254150</ele>
<time>2011-04-26T07:39:20Z</time>
<desc>lat.=22.008995, lon.=104.052704, Alt.=469.254150m. Speed=11.736000m/h.</desc>
<speed>3.260000</speed>
</trkpt>
<trkpt lat="22.008862" lon="104.052872">
<ele>468.629150</ele>
<time>2011-04-26T07:39:25Z</time>
<desc>lat.=22.008862, lon.=104.052872, Alt.=468.629150m. Speed=14.508000m/h.</desc>
<speed>4.030000</speed>
</trkpt>
<trkpt lat="22.008722" lon="104.053032">
<ele>467.957275</ele>
<time>2011-04-26T07:39:30Z</time>
<desc>lat.=22.008722, lon.=104.053032, Alt.=467.957275m. Speed=11.520000m/h.</desc>
<speed>3.200000</speed>
</trkpt>
<trkpt lat="22.008644" lon="104.053131">
<ele>467.941650</ele>
<time>2011-04-26T07:39:35Z</time>
<desc>lat.=22.008644, lon.=104.053131, Alt.=467.941650m. Speed=5.904000m/h.</desc>
<speed>1.640000</speed>
</trkpt>
<trkpt lat="22.008558" lon="104.053246">
<ele>468.426025</ele>
<time>2011-04-26T07:39:40Z</time>
<desc>lat.=22.008558, lon.=104.053246, Alt.=468.426025m. Speed=4.104000m/h.</desc>
<speed>1.140000</speed>
</trkpt>
<trkpt lat="22.008516" lon="104.053314">
<ele>468.347900</ele>
<time>2011-04-26T07:39:45Z</time>
<desc>lat.=22.008516, lon.=104.053314, Alt.=468.347900m. Speed=0.828000m/h.</desc>
<speed>0.230000</speed>
</trkpt>
<trkpt lat="22.008511" lon="104.053322">
<ele>468.129150</ele>
<time>2011-04-26T07:39:50Z</time>
<desc>lat.=22.008511, lon.=104.053322, Alt.=468.129150m. Speed=0.360000m/h.</desc>
<speed>0.100000</speed>
</trkpt>
<trkpt lat="22.008503" lon="104.053345">
<ele>468.074463</ele>
<time>2011-04-26T07:39:55Z</time>
<desc>lat.=22.008503, lon.=104.053345, Alt.=468.074463m. Speed=1.188000m/h.</desc>
<speed>0.330000</speed>
</trkpt>
<trkpt lat="22.008472" lon="104.053391">
<ele>468.152588</ele>
<time>2011-04-26T07:40:00Z</time>
<desc>lat.=22.008472, lon.=104.053391, Alt.=468.152588m. Speed=2.772000m/h.</desc>
<speed>0.770000</speed>
</trkpt>
<trkpt lat="22.008396" lon="104.053528">
<ele>469.277588</ele>
<time>2011-04-26T07:40:05Z</time>
<desc>lat.=22.008396, lon.=104.053528, Alt.=469.277588m. Speed=9.396000m/h.</desc>
<speed>2.610000</speed>
</trkpt>
<trkpt lat="22.008387" lon="104.053673">
<ele>469.129150</ele>
<time>2011-04-26T07:40:10Z</time>
<desc>lat.=22.008387, lon.=104.053673, Alt.=469.129150m. Speed=10.188000m/h.</desc>
<speed>2.830000</speed>
</trkpt>
<trkpt lat="22.008375" lon="104.053825">
<ele>468.902588</ele>
<time>2011-04-26T07:40:15Z</time>
<desc>lat.=22.008375, lon.=104.053825, Alt.=468.902588m. Speed=9.936000m/h.</desc>
<speed>2.760000</speed>
</trkpt>
<trkpt lat="22.008390" lon="104.054031">
<ele>466.597900</ele>
<time>2011-04-26T07:40:20Z</time>
<desc>lat.=22.008390, lon.=104.054031, Alt.=466.597900m. Speed=16.271999m/h.</desc>
<speed>4.520000</speed>
</trkpt>
<trkpt lat="22.008400" lon="104.054268">
<ele>466.988525</ele>
<time>2011-04-26T07:40:25Z</time>
<desc>lat.=22.008400, lon.=104.054268, Alt.=466.988525m. Speed=17.351999m/h.</desc>
<speed>4.820000</speed>
</trkpt>
<trkpt lat="22.008392" lon="104.054512">
<ele>466.808838</ele>
<time>2011-04-26T07:40:30Z</time>
<desc>lat.=22.008392, lon.=104.054512, Alt.=466.808838m. Speed=16.308001m/h.</desc>
<speed>4.530000</speed>
</trkpt>
<trkpt lat="22.008339" lon="104.054726">
<ele>469.144775</ele>
<time>2011-04-26T07:40:35Z</time>
<desc>lat.=22.008339, lon.=104.054726, Alt.=469.144775m. Speed=13.608000m/h.</desc>
<speed>3.780000</speed>
</trkpt>
<trkpt lat="22.008251" lon="104.054855">
<ele>470.004150</ele>
<time>2011-04-26T07:40:40Z</time>
<desc>lat.=22.008251, lon.=104.054855, Alt.=470.004150m. Speed=8.892000m/h.</desc>
<speed>2.470000</speed>
</trkpt>
<trkpt lat="22.008175" lon="104.054901">
<ele>471.230713</ele>
<time>2011-04-26T07:40:45Z</time>
<desc>lat.=22.008175, lon.=104.054901, Alt.=471.230713m. Speed=7.308000m/h.</desc>
<speed>2.030000</speed>
</trkpt>
<trkpt lat="22.008085" lon="104.054985">
<ele>472.019775</ele>
<time>2011-04-26T07:40:50Z</time>
<desc>lat.=22.008085, lon.=104.054985, Alt.=472.019775m. Speed=8.136000m/h.</desc>
<speed>2.260000</speed>
</trkpt>
<trkpt lat="22.007992" lon="104.055107">
<ele>472.418213</ele>
<time>2011-04-26T07:40:55Z</time>
<desc>lat.=22.007992, lon.=104.055107, Alt.=472.418213m. Speed=8.568000m/h.</desc>
<speed>2.380000</speed>
</trkpt>
<trkpt lat="22.007891" lon="104.055283">
<ele>474.027588</ele>
<time>2011-04-26T07:41:00Z</time>
<desc>lat.=22.007891, lon.=104.055283, Alt.=474.027588m. Speed=13.212000m/h.</desc>
<speed>3.670000</speed>
</trkpt>
<trkpt lat="22.007816" lon="104.055504">
<ele>475.824463</ele>
<time>2011-04-26T07:41:05Z</time>
<desc>lat.=22.007816, lon.=104.055504, Alt.=475.824463m. Speed=17.927999m/h.</desc>
<speed>4.980000</speed>
</trkpt>
<trkpt lat="22.007793" lon="104.055809">
<ele>475.769775</ele>
<time>2011-04-26T07:41:10Z</time>
<desc>lat.=22.007793, lon.=104.055809, Alt.=475.769775m. Speed=22.752001m/h.</desc>
<speed>6.320000</speed>
</trkpt>
<trkpt lat="22.007833" lon="104.056099">
<ele>475.941650</ele>
<time>2011-04-26T07:41:15Z</time>
<desc>lat.=22.007833, lon.=104.056099, Alt.=475.941650m. Speed=19.152000m/h.</desc>
<speed>5.320000</speed>
</trkpt>
<trkpt lat="22.007999" lon="104.056480">
<ele>476.480713</ele>
<time>2011-04-26T07:41:20Z</time>
<desc>lat.=22.007999, lon.=104.056480, Alt.=476.480713m. Speed=34.200001m/h.</desc>
<speed>9.500000</speed>
</trkpt>
<trkpt lat="22.008234" lon="104.056831">
<ele>476.457275</ele>
<time>2011-04-26T07:41:25Z</time>
<desc>lat.=22.008234, lon.=104.056831, Alt.=476.457275m. Speed=25.740000m/h.</desc>
<speed>7.150000</speed>
</trkpt>
<trkpt lat="22.008457" lon="104.057068">
<ele>476.910400</ele>
<time>2011-04-26T07:41:30Z</time>
<desc>lat.=22.008457, lon.=104.057068, Alt.=476.910400m. Speed=23.219999m/h.</desc>
<speed>6.450000</speed>
</trkpt>
<trkpt lat="22.008615" lon="104.057312">
<ele>477.347900</ele>
<time>2011-04-26T07:41:35Z</time>
<desc>lat.=22.008615, lon.=104.057312, Alt.=477.347900m. Speed=20.700001m/h.</desc>
<speed>5.750000</speed>
</trkpt>
<trkpt lat="22.008711" lon="104.057640">
<ele>475.785400</ele>
<time>2011-04-26T07:41:40Z</time>
<desc>lat.=22.008711, lon.=104.057640, Alt.=475.785400m. Speed=22.427999m/h.</desc>
<speed>6.230000</speed>
</trkpt>
<trkpt lat="22.008802" lon="104.058006">
<ele>473.269775</ele>
<time>2011-04-26T07:41:45Z</time>
<desc>lat.=22.008802, lon.=104.058006, Alt.=473.269775m. Speed=23.507999m/h.</desc>
<speed>6.530000</speed>
</trkpt>
<trkpt lat="22.008696" lon="104.058311">
<ele>468.535400</ele>
<time>2011-04-26T07:41:50Z</time>
<desc>lat.=22.008696, lon.=104.058311, Alt.=468.535400m. Speed=19.656000m/h.</desc>
<speed>5.460000</speed>
</trkpt>
<trkpt lat="22.008595" lon="104.058441">
<ele>466.761963</ele>
<time>2011-04-26T07:41:55Z</time>
<desc>lat.=22.008595, lon.=104.058441, Alt.=466.761963m. Speed=9.864000m/h.</desc>
<speed>2.740000</speed>
</trkpt>
<trkpt lat="22.008520" lon="104.058540">
<ele>465.269775</ele>
<time>2011-04-26T07:42:00Z</time>
<desc>lat.=22.008520, lon.=104.058540, Alt.=465.269775m. Speed=10.008000m/h.</desc>
<speed>2.780000</speed>
</trkpt>
<trkpt lat="22.008421" lon="104.058731">
<ele>464.394775</ele>
<time>2011-04-26T07:42:05Z</time>
<desc>lat.=22.008421, lon.=104.058731, Alt.=464.394775m. Speed=15.372000m/h.</desc>
<speed>4.270000</speed>
</trkpt>
<trkpt lat="22.008326" lon="104.058914">
<ele>461.636963</ele>
<time>2011-04-26T07:42:10Z</time>
<desc>lat.=22.008326, lon.=104.058914, Alt.=461.636963m. Speed=12.744000m/h.</desc>
<speed>3.540000</speed>
</trkpt>
<trkpt lat="22.008232" lon="104.059074">
<ele>458.527588</ele>
<time>2011-04-26T07:42:15Z</time>
<desc>lat.=22.008232, lon.=104.059074, Alt.=458.527588m. Speed=10.764000m/h.</desc>
<speed>2.990000</speed>
</trkpt>
<trkpt lat="22.008123" lon="104.059196">
<ele>455.535400</ele>
<time>2011-04-26T07:42:20Z</time>
<desc>lat.=22.008123, lon.=104.059196, Alt.=455.535400m. Speed=10.152000m/h.</desc>
<speed>2.820000</speed>
</trkpt>
<trkpt lat="22.007978" lon="104.059303">
<ele>454.105713</ele>
<time>2011-04-26T07:42:25Z</time>
<desc>lat.=22.007978, lon.=104.059303, Alt.=454.105713m. Speed=14.004000m/h.</desc>
<speed>3.890000</speed>
</trkpt>
<trkpt lat="22.007849" lon="104.059402">
<ele>452.277588</ele>
<time>2011-04-26T07:42:30Z</time>
<desc>lat.=22.007849, lon.=104.059402, Alt.=452.277588m. Speed=11.448000m/h.</desc>
<speed>3.180000</speed>
</trkpt>
<trkpt lat="22.007717" lon="104.059486">
<ele>450.855713</ele>
<time>2011-04-26T07:42:35Z</time>
<desc>lat.=22.007717, lon.=104.059486, Alt.=450.855713m. Speed=11.736000m/h.</desc>
<speed>3.260000</speed>
</trkpt>
<trkpt lat="22.007566" lon="104.059578">
<ele>449.301025</ele>
<time>2011-04-26T07:42:40Z</time>
<desc>lat.=22.007566, lon.=104.059578, Alt.=449.301025m. Speed=10.728000m/h.</desc>
<speed>2.980000</speed>
</trkpt>
<trkpt lat="22.007416" lon="104.059692">
<ele>446.480713</ele>
<time>2011-04-26T07:42:45Z</time>
<desc>lat.=22.007416, lon.=104.059692, Alt.=446.480713m. Speed=10.836000m/h.</desc>
<speed>3.010000</speed>
</trkpt>
<trkpt lat="22.007280" lon="104.059792">
<ele>444.449463</ele>
<time>2011-04-26T07:42:50Z</time>
<desc>lat.=22.007280, lon.=104.059792, Alt.=444.449463m. Speed=13.968000m/h.</desc>
<speed>3.880000</speed>
</trkpt>
<trkpt lat="22.007160" lon="104.059944">
<ele>441.676025</ele>
<time>2011-04-26T07:42:55Z</time>
<desc>lat.=22.007160, lon.=104.059944, Alt.=441.676025m. Speed=10.620000m/h.</desc>
<speed>2.950000</speed>
</trkpt>
<trkpt lat="22.007084" lon="104.060074">
<ele>439.886963</ele>
<time>2011-04-26T07:43:00Z</time>
<desc>lat.=22.007084, lon.=104.060074, Alt.=439.886963m. Speed=12.780000m/h.</desc>
<speed>3.550000</speed>
</trkpt>
<trkpt lat="22.006985" lon="104.060310">
<ele>436.582275</ele>
<time>2011-04-26T07:43:05Z</time>
<desc>lat.=22.006985, lon.=104.060310, Alt.=436.582275m. Speed=16.091999m/h.</desc>
<speed>4.470000</speed>
</trkpt>
<trkpt lat="22.006920" lon="104.060471">
<ele>433.691650</ele>
<time>2011-04-26T07:43:10Z</time>
<desc>lat.=22.006920, lon.=104.060471, Alt.=433.691650m. Speed=4.032000m/h.</desc>
<speed>1.120000</speed>
</trkpt>
<trkpt lat="22.006887" lon="104.060501">
<ele>433.285400</ele>
<time>2011-04-26T07:43:15Z</time>
<desc>lat.=22.006887, lon.=104.060501, Alt.=433.285400m. Speed=0.540000m/h.</desc>
<speed>0.150000</speed>
</trkpt>
<trkpt lat="22.006887" lon="104.060501">
<ele>433.074463</ele>
<time>2011-04-26T07:43:20Z</time>
<desc>lat.=22.006887, lon.=104.060501, Alt.=433.074463m. Speed=0.072000m/h.</desc>
<speed>0.020000</speed>
</trkpt>
<trkpt lat="22.006882" lon="104.060516">
<ele>432.902588</ele>
<time>2011-04-26T07:43:25Z</time>
<desc>lat.=22.006882, lon.=104.060516, Alt.=432.902588m. Speed=0.396000m/h.</desc>
<speed>0.110000</speed>
</trkpt>
<trkpt lat="22.006886" lon="104.060516">
<ele>432.801025</ele>
<time>2011-04-26T07:43:30Z</time>
<desc>lat.=22.006886, lon.=104.060516, Alt.=432.801025m. Speed=0.072000m/h.</desc>
<speed>0.020000</speed>
</trkpt>
<trkpt lat="22.006880" lon="104.060516">
<ele>432.902588</ele>
<time>2011-04-26T07:43:35Z</time>
<desc>lat.=22.006880, lon.=104.060516, Alt.=432.902588m. Speed=0.432000m/h.</desc>
<speed>0.120000</speed>
</trkpt>
<trkpt lat="22.006863" lon="104.060623">
<ele>432.886963</ele>
<time>2011-04-26T07:43:40Z</time>
<desc>lat.=22.006863, lon.=104.060623, Alt.=432.886963m. Speed=10.008000m/h.</desc>
<speed>2.780000</speed>
</trkpt>
<trkpt lat="22.006840" lon="104.060806">
<ele>432.566650</ele>
<time>2011-04-26T07:43:45Z</time>
<desc>lat.=22.006840, lon.=104.060806, Alt.=432.566650m. Speed=14.508000m/h.</desc>
<speed>4.030000</speed>
</trkpt>
<trkpt lat="22.006815" lon="104.060997">
<ele>431.441650</ele>
<time>2011-04-26T07:43:50Z</time>
<desc>lat.=22.006815, lon.=104.060997, Alt.=431.441650m. Speed=12.276000m/h.</desc>
<speed>3.410000</speed>
</trkpt>
<trkpt lat="22.006912" lon="104.061157">
<ele>430.379150</ele>
<time>2011-04-26T07:43:55Z</time>
<desc>lat.=22.006912, lon.=104.061157, Alt.=430.379150m. Speed=9.216000m/h.</desc>
<speed>2.560000</speed>
</trkpt>
<trkpt lat="22.007038" lon="104.061264">
<ele>429.168213</ele>
<time>2011-04-26T07:44:00Z</time>
<desc>lat.=22.007038, lon.=104.061264, Alt.=429.168213m. Speed=11.052000m/h.</desc>
<speed>3.070000</speed>
</trkpt>
<trkpt lat="22.007116" lon="104.061409">
<ele>428.340088</ele>
<time>2011-04-26T07:44:05Z</time>
<desc>lat.=22.007116, lon.=104.061409, Alt.=428.340088m. Speed=9.324000m/h.</desc>
<speed>2.590000</speed>
</trkpt>
<trkpt lat="22.007154" lon="104.061501">
<ele>427.332275</ele>
<time>2011-04-26T07:44:10Z</time>
<desc>lat.=22.007154, lon.=104.061501, Alt.=427.332275m. Speed=4.788000m/h.</desc>
<speed>1.330000</speed>
</trkpt>
<trkpt lat="22.007164" lon="104.061584">
<ele>426.535400</ele>
<time>2011-04-26T07:44:15Z</time>
<desc>lat.=22.007164, lon.=104.061584, Alt.=426.535400m. Speed=4.392000m/h.</desc>
<speed>1.220000</speed>
</trkpt>
<trkpt lat="22.007185" lon="104.061691">
<ele>425.972900</ele>
<time>2011-04-26T07:44:20Z</time>
<desc>lat.=22.007185, lon.=104.061691, Alt.=425.972900m. Speed=5.544000m/h.</desc>
<speed>1.540000</speed>
</trkpt>
<trkpt lat="22.007229" lon="104.061790">
<ele>425.449463</ele>
<time>2011-04-26T07:44:25Z</time>
<desc>lat.=22.007229, lon.=104.061790, Alt.=425.449463m. Speed=7.668000m/h.</desc>
<speed>2.130000</speed>
</trkpt>
<trkpt lat="22.007263" lon="104.061905">
<ele>425.121338</ele>
<time>2011-04-26T07:44:30Z</time>
<desc>lat.=22.007263, lon.=104.061905, Alt.=425.121338m. Speed=5.652000m/h.</desc>
<speed>1.570000</speed>
</trkpt>
<trkpt lat="22.007259" lon="104.062012">
<ele>424.660400</ele>
<time>2011-04-26T07:44:35Z</time>
<desc>lat.=22.007259, lon.=104.062012, Alt.=424.660400m. Speed=6.264000m/h.</desc>
<speed>1.740000</speed>
</trkpt>
<trkpt lat="22.007206" lon="104.062119">
<ele>424.308838</ele>
<time>2011-04-26T07:44:40Z</time>
<desc>lat.=22.007206, lon.=104.062119, Alt.=424.308838m. Speed=6.444000m/h.</desc>
<speed>1.790000</speed>
</trkpt>
<trkpt lat="22.007153" lon="104.062241">
<ele>423.996338</ele>
<time>2011-04-26T07:44:45Z</time>
<desc>lat.=22.007153, lon.=104.062241, Alt.=423.996338m. Speed=5.652000m/h.</desc>
<speed>1.570000</speed>
</trkpt>
<trkpt lat="22.007114" lon="104.062347">
<ele>423.801025</ele>
<time>2011-04-26T07:44:50Z</time>
<desc>lat.=22.007114, lon.=104.062347, Alt.=423.801025m. Speed=8.532000m/h.</desc>
<speed>2.370000</speed>
</trkpt>
<trkpt lat="22.007036" lon="104.062469">
<ele>423.551025</ele>
<time>2011-04-26T07:44:55Z</time>
<desc>lat.=22.007036, lon.=104.062469, Alt.=423.551025m. Speed=7.776000m/h.</desc>
<speed>2.160000</speed>
</trkpt>
<trkpt lat="22.006966" lon="104.062653">
<ele>423.113525</ele>
<time>2011-04-26T07:45:00Z</time>
<desc>lat.=22.006966, lon.=104.062653, Alt.=423.113525m. Speed=14.220000m/h.</desc>
<speed>3.950000</speed>
</trkpt>
<trkpt lat="22.006861" lon="104.062874">
<ele>422.683838</ele>
<time>2011-04-26T07:45:05Z</time>
<desc>lat.=22.006861, lon.=104.062874, Alt.=422.683838m. Speed=15.588000m/h.</desc>
<speed>4.330000</speed>
</trkpt>
<trkpt lat="22.006691" lon="104.063148">
<ele>422.426025</ele>
<time>2011-04-26T07:45:10Z</time>
<desc>lat.=22.006691, lon.=104.063148, Alt.=422.426025m. Speed=22.860001m/h.</desc>
<speed>6.350000</speed>
</trkpt>
<trkpt lat="22.006428" lon="104.063454">
<ele>422.527588</ele>
<time>2011-04-26T07:45:15Z</time>
<desc>lat.=22.006428, lon.=104.063454, Alt.=422.527588m. Speed=24.732000m/h.</desc>
<speed>6.870000</speed>
</trkpt>
<trkpt lat="22.006172" lon="104.063705">
<ele>422.629150</ele>
<time>2011-04-26T07:45:20Z</time>
<desc>lat.=22.006172, lon.=104.063705, Alt.=422.629150m. Speed=21.132000m/h.</desc>
<speed>5.870000</speed>
</trkpt>
<trkpt lat="22.005955" lon="104.063911">
<ele>423.183838</ele>
<time>2011-04-26T07:45:25Z</time>
<desc>lat.=22.005955, lon.=104.063911, Alt.=423.183838m. Speed=15.984000m/h.</desc>
<speed>4.440000</speed>
</trkpt>
<trkpt lat="22.005823" lon="104.064011">
<ele>423.363525</ele>
<time>2011-04-26T07:45:30Z</time>
<desc>lat.=22.005823, lon.=104.064011, Alt.=423.363525m. Speed=8.568000m/h.</desc>
<speed>2.380000</speed>
</trkpt>
<trkpt lat="22.005714" lon="104.064056">
<ele>423.347900</ele>
<time>2011-04-26T07:45:35Z</time>
<desc>lat.=22.005714, lon.=104.064056, Alt.=423.347900m. Speed=8.316000m/h.</desc>
<speed>2.310000</speed>
</trkpt>
<trkpt lat="22.005581" lon="104.064095">
<ele>423.340088</ele>
<time>2011-04-26T07:45:40Z</time>
<desc>lat.=22.005581, lon.=104.064095, Alt.=423.340088m. Speed=9.828000m/h.</desc>
<speed>2.730000</speed>
</trkpt>
<trkpt lat="22.005419" lon="104.064102">
<ele>425.090088</ele>
<time>2011-04-26T07:45:45Z</time>
<desc>lat.=22.005419, lon.=104.064102, Alt.=425.090088m. Speed=8.532000m/h.</desc>
<speed>2.370000</speed>
</trkpt>
<trkpt lat="22.005316" lon="104.064232">
<ele>424.152588</ele>
<time>2011-04-26T07:45:50Z</time>
<desc>lat.=22.005316, lon.=104.064232, Alt.=424.152588m. Speed=8.172000m/h.</desc>
<speed>2.270000</speed>
</trkpt>
<trkpt lat="22.005230" lon="104.064308">
<ele>424.019775</ele>
<time>2011-04-26T07:45:55Z</time>
<desc>lat.=22.005230, lon.=104.064308, Alt.=424.019775m. Speed=7.884000m/h.</desc>
<speed>2.190000</speed>
</trkpt>
<trkpt lat="22.005125" lon="104.064438">
<ele>424.816650</ele>
<time>2011-04-26T07:46:00Z</time>
<desc>lat.=22.005125, lon.=104.064438, Alt.=424.816650m. Speed=10.512000m/h.</desc>
<speed>2.920000</speed>
</trkpt>
<trkpt lat="22.005041" lon="104.064568">
<ele>425.238525</ele>
<time>2011-04-26T07:46:05Z</time>
<desc>lat.=22.005041, lon.=104.064568, Alt.=425.238525m. Speed=8.244000m/h.</desc>
<speed>2.290000</speed>
</trkpt>
<trkpt lat="22.004986" lon="104.064697">
<ele>426.465088</ele>
<time>2011-04-26T07:46:10Z</time>
<desc>lat.=22.004986, lon.=104.064697, Alt.=426.465088m. Speed=10.332000m/h.</desc>
<speed>2.870000</speed>
</trkpt>
<trkpt lat="22.004944" lon="104.064873">
<ele>427.879150</ele>
<time>2011-04-26T07:46:15Z</time>
<desc>lat.=22.004944, lon.=104.064873, Alt.=427.879150m. Speed=9.360000m/h.</desc>
<speed>2.600000</speed>
</trkpt>
<trkpt lat="22.004946" lon="104.065125">
<ele>429.910400</ele>
<time>2011-04-26T07:46:20Z</time>
<desc>lat.=22.004946, lon.=104.065125, Alt.=429.910400m. Speed=13.860000m/h.</desc>
<speed>3.850000</speed>
</trkpt>
<trkpt lat="22.004932" lon="104.065315">
<ele>431.136963</ele>
<time>2011-04-26T07:46:25Z</time>
<desc>lat.=22.004932, lon.=104.065315, Alt.=431.136963m. Speed=13.032000m/h.</desc>
<speed>3.620000</speed>
</trkpt>
<trkpt lat="22.004879" lon="104.065559">
<ele>433.894775</ele>
<time>2011-04-26T07:46:30Z</time>
<desc>lat.=22.004879, lon.=104.065559, Alt.=433.894775m. Speed=5.760000m/h.</desc>
<speed>1.600000</speed>
</trkpt>
<trkpt lat="22.004850" lon="104.065628">
<ele>431.004150</ele>
<time>2011-04-26T07:46:35Z</time>
<desc>lat.=22.004850, lon.=104.065628, Alt.=431.004150m. Speed=0.612000m/h.</desc>
<speed>0.170000</speed>
</trkpt>
<trkpt lat="22.004848" lon="104.065636">
<ele>431.019775</ele>
<time>2011-04-26T07:46:40Z</time>
<desc>lat.=22.004848, lon.=104.065636, Alt.=431.019775m. Speed=0.036000m/h.</desc>
<speed>0.010000</speed>
</trkpt>
<trkpt lat="22.004848" lon="104.065636">
<ele>431.097900</ele>
<time>2011-04-26T07:46:45Z</time>
<desc>lat.=22.004848, lon.=104.065636, Alt.=431.097900m. Speed=0.000000m/h.</desc>
<speed>0.000000</speed>
</trkpt>
<trkpt lat="22.004848" lon="104.065636">
<ele>431.152588</ele>
<time>2011-04-26T07:46:50Z</time>
<desc>lat.=22.004848, lon.=104.065636, Alt.=431.152588m. Speed=0.036000m/h.</desc>
<speed>0.010000</speed>
</trkpt>
<trkpt lat="22.004848" lon="104.065636">
<ele>431.129150</ele>
<time>2011-04-26T07:46:55Z</time>
<desc>lat.=22.004848, lon.=104.065636, Alt.=431.129150m. Speed=1.296000m/h.</desc>
<speed>0.360000</speed>
</trkpt>
<trkpt lat="22.004845" lon="104.065697">
<ele>431.254150</ele>
<time>2011-04-26T07:47:00Z</time>
<desc>lat.=22.004845, lon.=104.065697, Alt.=431.254150m. Speed=7.020000m/h.</desc>
<speed>1.950000</speed>
</trkpt>
<trkpt lat="22.004845" lon="104.065872">
<ele>431.933838</ele>
<time>2011-04-26T07:47:05Z</time>
<desc>lat.=22.004845, lon.=104.065872, Alt.=431.933838m. Speed=10.836000m/h.</desc>
<speed>3.010000</speed>
</trkpt>
<trkpt lat="22.004835" lon="104.066040">
<ele>432.465088</ele>
<time>2011-04-26T07:47:10Z</time>
<desc>lat.=22.004835, lon.=104.066040, Alt.=432.465088m. Speed=12.096000m/h.</desc>
<speed>3.360000</speed>
</trkpt>
<trkpt lat="22.004856" lon="104.066200">
<ele>432.840088</ele>
<time>2011-04-26T07:47:15Z</time>
<desc>lat.=22.004856, lon.=104.066200, Alt.=432.840088m. Speed=9.684000m/h.</desc>
<speed>2.690000</speed>
</trkpt>
<trkpt lat="22.004915" lon="104.066292">
<ele>433.824463</ele>
<time>2011-04-26T07:47:20Z</time>
<desc>lat.=22.004915, lon.=104.066292, Alt.=433.824463m. Speed=8.208000m/h.</desc>
<speed>2.280000</speed>
</trkpt>
<trkpt lat="22.004995" lon="104.066383">
<ele>434.347900</ele>
<time>2011-04-26T07:47:25Z</time>
<desc>lat.=22.004995, lon.=104.066383, Alt.=434.347900m. Speed=7.380000m/h.</desc>
<speed>2.050000</speed>
</trkpt>
<trkpt lat="22.005068" lon="104.066483">
<ele>434.824463</ele>
<time>2011-04-26T07:47:30Z</time>
<desc>lat.=22.005068, lon.=104.066483, Alt.=434.824463m. Speed=9.000000m/h.</desc>
<speed>2.500000</speed>
</trkpt>
<trkpt lat="22.005129" lon="104.066574">
<ele>435.308838</ele>
<time>2011-04-26T07:47:35Z</time>
<desc>lat.=22.005129, lon.=104.066574, Alt.=435.308838m. Speed=7.452000m/h.</desc>
<speed>2.070000</speed>
</trkpt>
<trkpt lat="22.005173" lon="104.066658">
<ele>435.871338</ele>
<time>2011-04-26T07:47:40Z</time>
<desc>lat.=22.005173, lon.=104.066658, Alt.=435.871338m. Speed=5.616000m/h.</desc>
<speed>1.560000</speed>
</trkpt>
<trkpt lat="22.005213" lon="104.066750">
<ele>436.324463</ele>
<time>2011-04-26T07:47:45Z</time>
<desc>lat.=22.005213, lon.=104.066750, Alt.=436.324463m. Speed=7.992000m/h.</desc>
<speed>2.220000</speed>
</trkpt>
<trkpt lat="22.005226" lon="104.066833">
<ele>436.894775</ele>
<time>2011-04-26T07:47:50Z</time>
<desc>lat.=22.005226, lon.=104.066833, Alt.=436.894775m. Speed=7.596000m/h.</desc>
<speed>2.110000</speed>
</trkpt>
<trkpt lat="22.005234" lon="104.066910">
<ele>437.480713</ele>
<time>2011-04-26T07:47:55Z</time>
<desc>lat.=22.005234, lon.=104.066910, Alt.=437.480713m. Speed=4.392000m/h.</desc>
<speed>1.220000</speed>
</trkpt>
<trkpt lat="22.005224" lon="104.066986">
<ele>438.183838</ele>
<time>2011-04-26T07:48:00Z</time>
<desc>lat.=22.005224, lon.=104.066986, Alt.=438.183838m. Speed=4.716000m/h.</desc>
<speed>1.310000</speed>
</trkpt>
<trkpt lat="22.005215" lon="104.067070">
<ele>438.597900</ele>
<time>2011-04-26T07:48:05Z</time>
<desc>lat.=22.005215, lon.=104.067070, Alt.=438.597900m. Speed=3.060000m/h.</desc>
<speed>0.850000</speed>
</trkpt>
<trkpt lat="22.005205" lon="104.067108">
<ele>439.183838</ele>
<time>2011-04-26T07:48:10Z</time>
<desc>lat.=22.005205, lon.=104.067108, Alt.=439.183838m. Speed=2.952000m/h.</desc>
<speed>0.820000</speed>
</trkpt>
<trkpt lat="22.005201" lon="104.067162">
<ele>439.683838</ele>
<time>2011-04-26T07:48:15Z</time>
<desc>lat.=22.005201, lon.=104.067162, Alt.=439.683838m. Speed=4.644000m/h.</desc>
<speed>1.290000</speed>
</trkpt>
<trkpt lat="22.005194" lon="104.067261">
<ele>440.058838</ele>
<time>2011-04-26T07:48:20Z</time>
<desc>lat.=22.005194, lon.=104.067261, Alt.=440.058838m. Speed=3.096000m/h.</desc>
<speed>0.860000</speed>
</trkpt>
<trkpt lat="22.005184" lon="104.067314">
<ele>440.402588</ele>
<time>2011-04-26T07:48:25Z</time>
<desc>lat.=22.005184, lon.=104.067314, Alt.=440.402588m. Speed=2.952000m/h.</desc>
<speed>0.820000</speed>
</trkpt>
<trkpt lat="22.005194" lon="104.067398">
<ele>440.871338</ele>
<time>2011-04-26T07:48:30Z</time>
<desc>lat.=22.005194, lon.=104.067398, Alt.=440.871338m. Speed=4.140000m/h.</desc>
<speed>1.150000</speed>
</trkpt>
<trkpt lat="22.005194" lon="104.067505">
<ele>441.144775</ele>
<time>2011-04-26T07:48:35Z</time>
<desc>lat.=22.005194, lon.=104.067505, Alt.=441.144775m. Speed=5.112000m/h.</desc>
<speed>1.420000</speed>
</trkpt>
<trkpt lat="22.005192" lon="104.067574">
<ele>441.636963</ele>
<time>2011-04-26T07:48:40Z</time>
<desc>lat.=22.005192, lon.=104.067574, Alt.=441.636963m. Speed=5.040000m/h.</desc>
<speed>1.400000</speed>
</trkpt>
<trkpt lat="22.005194" lon="104.067657">
<ele>442.332275</ele>
<time>2011-04-26T07:48:45Z</time>
<desc>lat.=22.005194, lon.=104.067657, Alt.=442.332275m. Speed=4.536000m/h.</desc>
<speed>1.260000</speed>
</trkpt>
<trkpt lat="22.005163" lon="104.067726">
<ele>443.066650</ele>
<time>2011-04-26T07:48:50Z</time>
<desc>lat.=22.005163, lon.=104.067726, Alt.=443.066650m. Speed=3.420000m/h.</desc>
<speed>0.950000</speed>
</trkpt>
<trkpt lat="22.005167" lon="104.067818">
<ele>443.801025</ele>
<time>2011-04-26T07:48:55Z</time>
<desc>lat.=22.005167, lon.=104.067818, Alt.=443.801025m. Speed=4.752000m/h.</desc>
<speed>1.320000</speed>
</trkpt>
<trkpt lat="22.005188" lon="104.067909">
<ele>444.324463</ele>
<time>2011-04-26T07:49:00Z</time>
<desc>lat.=22.005188, lon.=104.067909, Alt.=444.324463m. Speed=4.752000m/h.</desc>
<speed>1.320000</speed>
</trkpt>
<trkpt lat="22.005213" lon="104.067986">
<ele>444.918213</ele>
<time>2011-04-26T07:49:05Z</time>
<desc>lat.=22.005213, lon.=104.067986, Alt.=444.918213m. Speed=3.852000m/h.</desc>
<speed>1.070000</speed>
</trkpt>
<trkpt lat="22.005236" lon="104.068054">
<ele>445.886963</ele>
<time>2011-04-26T07:49:10Z</time>
<desc>lat.=22.005236, lon.=104.068054, Alt.=445.886963m. Speed=4.248000m/h.</desc>
<speed>1.180000</speed>
</trkpt>
<trkpt lat="22.005224" lon="104.068130">
<ele>446.847900</ele>
<time>2011-04-26T07:49:15Z</time>
<desc>lat.=22.005224, lon.=104.068130, Alt.=446.847900m. Speed=4.140000m/h.</desc>
<speed>1.150000</speed>
</trkpt>
<trkpt lat="22.005232" lon="104.068237">
<ele>447.418213</ele>
<time>2011-04-26T07:49:20Z</time>
<desc>lat.=22.005232, lon.=104.068237, Alt.=447.418213m. Speed=3.384000m/h.</desc>
<speed>0.940000</speed>
</trkpt>
<trkpt lat="22.005236" lon="104.068336">
<ele>447.769775</ele>
<time>2011-04-26T07:49:25Z</time>
<desc>lat.=22.005236, lon.=104.068336, Alt.=447.769775m. Speed=4.536000m/h.</desc>
<speed>1.260000</speed>
</trkpt>
<trkpt lat="22.005270" lon="104.068428">
<ele>448.011963</ele>
<time>2011-04-26T07:49:30Z</time>
<desc>lat.=22.005270, lon.=104.068428, Alt.=448.011963m. Speed=4.176000m/h.</desc>
<speed>1.160000</speed>
</trkpt>
<trkpt lat="22.005278" lon="104.068512">
<ele>448.582275</ele>
<time>2011-04-26T07:49:35Z</time>
<desc>lat.=22.005278, lon.=104.068512, Alt.=448.582275m. Speed=4.140000m/h.</desc>
<speed>1.150000</speed>
</trkpt>
<trkpt lat="22.005276" lon="104.068596">
<ele>449.121338</ele>
<time>2011-04-26T07:49:40Z</time>
<desc>lat.=22.005276, lon.=104.068596, Alt.=449.121338m. Speed=5.976000m/h.</desc>
<speed>1.660000</speed>
</trkpt>
<trkpt lat="22.005287" lon="104.068657">
<ele>449.574463</ele>
<time>2011-04-26T07:49:45Z</time>
<desc>lat.=22.005287, lon.=104.068657, Alt.=449.574463m. Speed=3.420000m/h.</desc>
<speed>0.950000</speed>
</trkpt>
<trkpt lat="22.005257" lon="104.068748">
<ele>449.629150</ele>
<time>2011-04-26T07:49:50Z</time>
<desc>lat.=22.005257, lon.=104.068748, Alt.=449.629150m. Speed=6.192000m/h.</desc>
<speed>1.720000</speed>
</trkpt>
<trkpt lat="22.005224" lon="104.068848">
<ele>449.871338</ele>
<time>2011-04-26T07:49:55Z</time>
<desc>lat.=22.005224, lon.=104.068848, Alt.=449.871338m. Speed=6.732000m/h.</desc>
<speed>1.870000</speed>
</trkpt>
<trkpt lat="22.005205" lon="104.068993">
<ele>449.988525</ele>
<time>2011-04-26T07:50:00Z</time>
<desc>lat.=22.005205, lon.=104.068993, Alt.=449.988525m. Speed=6.516000m/h.</desc>
<speed>1.810000</speed>
</trkpt>
<trkpt lat="22.005173" lon="104.069145">
<ele>451.730713</ele>
<time>2011-04-26T07:50:05Z</time>
<desc>lat.=22.005173, lon.=104.069145, Alt.=451.730713m. Speed=4.752000m/h.</desc>
<speed>1.320000</speed>
</trkpt>
<trkpt lat="22.005167" lon="104.069283">
<ele>453.160400</ele>
<time>2011-04-26T07:50:10Z</time>
<desc>lat.=22.005167, lon.=104.069283, Alt.=453.160400m. Speed=7.092000m/h.</desc>
<speed>1.970000</speed>
</trkpt>
<trkpt lat="22.005175" lon="104.069397">
<ele>454.426025</ele>
<time>2011-04-26T07:50:15Z</time>
<desc>lat.=22.005175, lon.=104.069397, Alt.=454.426025m. Speed=9.612000m/h.</desc>
<speed>2.670000</speed>
</trkpt>
<trkpt lat="22.005157" lon="104.069534">
<ele>455.207275</ele>
<time>2011-04-26T07:50:20Z</time>
<desc>lat.=22.005157, lon.=104.069534, Alt.=455.207275m. Speed=5.832000m/h.</desc>
<speed>1.620000</speed>
</trkpt>
<trkpt lat="22.005123" lon="104.069725">
<ele>456.738525</ele>
<time>2011-04-26T07:50:25Z</time>
<desc>lat.=22.005123, lon.=104.069725, Alt.=456.738525m. Speed=6.192000m/h.</desc>
<speed>1.720000</speed>
</trkpt>
<trkpt lat="22.005136" lon="104.069832">
<ele>456.949463</ele>
<time>2011-04-26T07:50:30Z</time>
<desc>lat.=22.005136, lon.=104.069832, Alt.=456.949463m. Speed=6.984000m/h.</desc>
<speed>1.940000</speed>
</trkpt>
<trkpt lat="22.005157" lon="104.069916">
<ele>457.676025</ele>
<time>2011-04-26T07:50:35Z</time>
<desc>lat.=22.005157, lon.=104.069916, Alt.=457.676025m. Speed=6.156000m/h.</desc>
<speed>1.710000</speed>
</trkpt>
<trkpt lat="22.005161" lon="104.070038">
<ele>458.972900</ele>
<time>2011-04-26T07:50:40Z</time>
<desc>lat.=22.005161, lon.=104.070038, Alt.=458.972900m. Speed=6.480000m/h.</desc>
<speed>1.800000</speed>
</trkpt>
<trkpt lat="22.005131" lon="104.070183">
<ele>459.793213</ele>
<time>2011-04-26T07:50:45Z</time>
<desc>lat.=22.005131, lon.=104.070183, Alt.=459.793213m. Speed=10.080000m/h.</desc>
<speed>2.800000</speed>
</trkpt>
<trkpt lat="22.005123" lon="104.070351">
<ele>459.949463</ele>
<time>2011-04-26T07:50:50Z</time>
<desc>lat.=22.005123, lon.=104.070351, Alt.=459.949463m. Speed=9.792000m/h.</desc>
<speed>2.720000</speed>
</trkpt>
<trkpt lat="22.005152" lon="104.070465">
<ele>461.410400</ele>
<time>2011-04-26T07:50:55Z</time>
<desc>lat.=22.005152, lon.=104.070465, Alt.=461.410400m. Speed=3.780000m/h.</desc>
<speed>1.050000</speed>
</trkpt>
<trkpt lat="22.005148" lon="104.070503">
<ele>462.082275</ele>
<time>2011-04-26T07:51:00Z</time>
<desc>lat.=22.005148, lon.=104.070503, Alt.=462.082275m. Speed=0.396000m/h.</desc>
<speed>0.110000</speed>
</trkpt>
<trkpt lat="22.005135" lon="104.070518">
<ele>462.441650</ele>
<time>2011-04-26T07:51:05Z</time>
<desc>lat.=22.005135, lon.=104.070518, Alt.=462.441650m. Speed=0.072000m/h.</desc>
<speed>0.020000</speed>
</trkpt>
<trkpt lat="22.005135" lon="104.070518">
<ele>462.543213</ele>
<time>2011-04-26T07:51:10Z</time>
<desc>lat.=22.005135, lon.=104.070518, Alt.=462.543213m. Speed=0.252000m/h.</desc>
<speed>0.070000</speed>
</trkpt>
<trkpt lat="22.005138" lon="104.070518">
<ele>462.574463</ele>
<time>2011-04-26T07:51:15Z</time>
<desc>lat.=22.005138, lon.=104.070518, Alt.=462.574463m. Speed=0.180000m/h.</desc>
<speed>0.050000</speed>
</trkpt>
<trkpt lat="22.005140" lon="104.070518">
<ele>462.582275</ele>
<time>2011-04-26T07:51:20Z</time>
<desc>lat.=22.005140, lon.=104.070518, Alt.=462.582275m. Speed=0.000000m/h.</desc>
<speed>0.000000</speed>
</trkpt>
<trkpt lat="22.005140" lon="104.070518">
<ele>462.582275</ele>
<time>2011-04-26T07:51:25Z</time>
<desc>lat.=22.005140, lon.=104.070518, Alt.=462.582275m. Speed=0.288000m/h.</desc>
<speed>0.080000</speed>
</trkpt>
<trkpt lat="22.005144" lon="104.070526">
<ele>462.574463</ele>
<time>2011-04-26T07:51:30Z</time>
<desc>lat.=22.005144, lon.=104.070526, Alt.=462.574463m. Speed=0.432000m/h.</desc>
<speed>0.120000</speed>
</trkpt>
<trkpt lat="22.005148" lon="104.070526">
<ele>462.582275</ele>
<time>2011-04-26T07:51:35Z</time>
<desc>lat.=22.005148, lon.=104.070526, Alt.=462.582275m. Speed=0.288000m/h.</desc>
<speed>0.080000</speed>
</trkpt>
<trkpt lat="22.005148" lon="104.070526">
<ele>462.582275</ele>
<time>2011-04-26T07:51:40Z</time>
<desc>lat.=22.005148, lon.=104.070526, Alt.=462.582275m. Speed=0.036000m/h.</desc>
<speed>0.010000</speed>
</trkpt>
<trkpt lat="22.005146" lon="104.070526">
<ele>462.582275</ele>
<time>2011-04-26T07:51:45Z</time>
<desc>lat.=22.005146, lon.=104.070526, Alt.=462.582275m. Speed=0.072000m/h.</desc>
<speed>0.020000</speed>
</trkpt>
<trkpt lat="22.005150" lon="104.070526">
<ele>462.574463</ele>
<time>2011-04-26T07:51:50Z</time>
<desc>lat.=22.005150, lon.=104.070526, Alt.=462.574463m. Speed=0.540000m/h.</desc>
<speed>0.150000</speed>
</trkpt>
<trkpt lat="22.005152" lon="104.070526">
<ele>462.574463</ele>
<time>2011-04-26T07:51:55Z</time>
<desc>lat.=22.005152, lon.=104.070526, Alt.=462.574463m. Speed=0.108000m/h.</desc>
<speed>0.030000</speed>
</trkpt>
<trkpt lat="22.005150" lon="104.070526">
<ele>462.574463</ele>
<time>2011-04-26T07:52:00Z</time>
<desc>lat.=22.005150, lon.=104.070526, Alt.=462.574463m. Speed=0.036000m/h.</desc>
<speed>0.010000</speed>
</trkpt>
<trkpt lat="22.005150" lon="104.070526">
<ele>462.582275</ele>
<time>2011-04-26T07:52:05Z</time>
<desc>lat.=22.005150, lon.=104.070526, Alt.=462.582275m. Speed=0.144000m/h.</desc>
<speed>0.040000</speed>
</trkpt>
<trkpt lat="22.005148" lon="104.070526">
<ele>462.590088</ele>
<time>2011-04-26T07:52:10Z</time>
<desc>lat.=22.005148, lon.=104.070526, Alt.=462.590088m. Speed=0.036000m/h.</desc>
<speed>0.010000</speed>
</trkpt>
<trkpt lat="22.005146" lon="104.070526">
<ele>462.574463</ele>
<time>2011-04-26T07:52:15Z</time>
<desc>lat.=22.005146, lon.=104.070526, Alt.=462.574463m. Speed=0.108000m/h.</desc>
<speed>0.030000</speed>
</trkpt>
<trkpt lat="22.005146" lon="104.070526">
<ele>462.574463</ele>
<time>2011-04-26T07:52:20Z</time>
<desc>lat.=22.005146, lon.=104.070526, Alt.=462.574463m. Speed=0.144000m/h.</desc>
<speed>0.040000</speed>
</trkpt>
<trkpt lat="22.005150" lon="104.070526">
<ele>462.566650</ele>
<time>2011-04-26T07:52:25Z</time>
<desc>lat.=22.005150, lon.=104.070526, Alt.=462.566650m. Speed=0.252000m/h.</desc>
<speed>0.070000</speed>
</trkpt>
<trkpt lat="22.005152" lon="104.070526">
<ele>462.527588</ele>
<time>2011-04-26T07:52:30Z</time>
<desc>lat.=22.005152, lon.=104.070526, Alt.=462.527588m. Speed=0.252000m/h.</desc>
<speed>0.070000</speed>
</trkpt>
<trkpt lat="22.005152" lon="104.070526">
<ele>462.496338</ele>
<time>2011-04-26T07:52:35Z</time>
<desc>lat.=22.005152, lon.=104.070526, Alt.=462.496338m. Speed=0.036000m/h.</desc>
<speed>0.010000</speed>
</trkpt>
<trkpt lat="22.005152" lon="104.070526">
<ele>462.480713</ele>
<time>2011-04-26T07:52:40Z</time>
<desc>lat.=22.005152, lon.=104.070526, Alt.=462.480713m. Speed=0.000000m/h.</desc>
<speed>0.000000</speed>
</trkpt>
<trkpt lat="22.005152" lon="104.070526">
<ele>462.480713</ele>
<time>2011-04-26T07:52:45Z</time>
<desc>lat.=22.005152, lon.=104.070526, Alt.=462.480713m. Speed=0.036000m/h.</desc>
<speed>0.010000</speed>
</trkpt>
<trkpt lat="22.005154" lon="104.070526">
<ele>462.488525</ele>
<time>2011-04-26T07:52:50Z</time>
<desc>lat.=22.005154, lon.=104.070526, Alt.=462.488525m. Speed=0.000000m/h.</desc>
<speed>0.000000</speed>
</trkpt>
<trkpt lat="22.005154" lon="104.070526">
<ele>462.496338</ele>
<time>2011-04-26T07:52:55Z</time>
<desc>lat.=22.005154, lon.=104.070526, Alt.=462.496338m. Speed=0.000000m/h.</desc>
<speed>0.000000</speed>
</trkpt>
<trkpt lat="22.005154" lon="104.070526">
<ele>462.496338</ele>
<time>2011-04-26T07:53:00Z</time>
<desc>lat.=22.005154, lon.=104.070526, Alt.=462.496338m. Speed=0.036000m/h.</desc>
<speed>0.010000</speed>
</trkpt>
<trkpt lat="22.005154" lon="104.070526">
<ele>462.488525</ele>
<time>2011-04-26T07:53:05Z</time>
<desc>lat.=22.005154, lon.=104.070526, Alt.=462.488525m. Speed=0.036000m/h.</desc>
<speed>0.010000</speed>
</trkpt>
<trkpt lat="22.005154" lon="104.070526">
<ele>462.504150</ele>
<time>2011-04-26T07:53:10Z</time>
<desc>lat.=22.005154, lon.=104.070526, Alt.=462.504150m. Speed=0.072000m/h.</desc>
<speed>0.020000</speed>
</trkpt>
<trkpt lat="22.005156" lon="104.070526">
<ele>462.519775</ele>
<time>2011-04-26T07:53:15Z</time>
<desc>lat.=22.005156, lon.=104.070526, Alt.=462.519775m. Speed=0.144000m/h.</desc>
<speed>0.040000</speed>
</trkpt>
<trkpt lat="22.005156" lon="104.070526">
<ele>462.535400</ele>
<time>2011-04-26T07:53:20Z</time>
<desc>lat.=22.005156, lon.=104.070526, Alt.=462.535400m. Speed=0.036000m/h.</desc>
<speed>0.010000</speed>
</trkpt>
<trkpt lat="22.005156" lon="104.070526">
<ele>462.558838</ele>
<time>2011-04-26T07:53:25Z</time>
<desc>lat.=22.005156, lon.=104.070526, Alt.=462.558838m. Speed=0.036000m/h.</desc>
<speed>0.010000</speed>
</trkpt>
<trkpt lat="22.005156" lon="104.070526">
<ele>462.574463</ele>
<time>2011-04-26T07:53:30Z</time>
<desc>lat.=22.005156, lon.=104.070526, Alt.=462.574463m. Speed=0.108000m/h.</desc>
<speed>0.030000</speed>
</trkpt>
<trkpt lat="22.005156" lon="104.070526">
<ele>462.605713</ele>
<time>2011-04-26T07:53:35Z</time>
<desc>lat.=22.005156, lon.=104.070526, Alt.=462.605713m. Speed=0.072000m/h.</desc>
<speed>0.020000</speed>
</trkpt>
<trkpt lat="22.005154" lon="104.070526">
<ele>462.636963</ele>
<time>2011-04-26T07:53:40Z</time>
<desc>lat.=22.005154, lon.=104.070526, Alt.=462.636963m. Speed=0.000000m/h.</desc>
<speed>0.000000</speed>
</trkpt>
<trkpt lat="22.005154" lon="104.070526">
<ele>462.676025</ele>
<time>2011-04-26T07:53:45Z</time>
<desc>lat.=22.005154, lon.=104.070526, Alt.=462.676025m. Speed=0.036000m/h.</desc>
<speed>0.010000</speed>
</trkpt>
<trkpt lat="22.005154" lon="104.070526">
<ele>462.707275</ele>
<time>2011-04-26T07:53:50Z</time>
<desc>lat.=22.005154, lon.=104.070526, Alt.=462.707275m. Speed=0.072000m/h.</desc>
<speed>0.020000</speed>
</trkpt>
<trkpt lat="22.005152" lon="104.070526">
<ele>462.722900</ele>
<time>2011-04-26T07:53:55Z</time>
<desc>lat.=22.005152, lon.=104.070526, Alt.=462.722900m. Speed=0.072000m/h.</desc>
<speed>0.020000</speed>
</trkpt>
<trkpt lat="22.005152" lon="104.070526">
<ele>462.738525</ele>
<time>2011-04-26T07:54:00Z</time>
<desc>lat.=22.005152, lon.=104.070526, Alt.=462.738525m. Speed=0.000000m/h.</desc>
<speed>0.000000</speed>
</trkpt>
<trkpt lat="22.005152" lon="104.070526">
<ele>462.746338</ele>
<time>2011-04-26T07:54:05Z</time>
<desc>lat.=22.005152, lon.=104.070526, Alt.=462.746338m. Speed=0.144000m/h.</desc>
<speed>0.040000</speed>
</trkpt>
<trkpt lat="22.005154" lon="104.070526">
<ele>462.746338</ele>
<time>2011-04-26T07:54:10Z</time>
<desc>lat.=22.005154, lon.=104.070526, Alt.=462.746338m. Speed=0.108000m/h.</desc>
<speed>0.030000</speed>
</trkpt>
<trkpt lat="22.005154" lon="104.070526">
<ele>462.730713</ele>
<time>2011-04-26T07:54:15Z</time>
<desc>lat.=22.005154, lon.=104.070526, Alt.=462.730713m. Speed=0.108000m/h.</desc>
<speed>0.030000</speed>
</trkpt>
<trkpt lat="22.005154" lon="104.070526">
<ele>462.715088</ele>
<time>2011-04-26T07:54:20Z</time>
<desc>lat.=22.005154, lon.=104.070526, Alt.=462.715088m. Speed=0.036000m/h.</desc>
<speed>0.010000</speed>
</trkpt>
<trkpt lat="22.005154" lon="104.070526">
<ele>462.699463</ele>
<time>2011-04-26T07:54:25Z</time>
<desc>lat.=22.005154, lon.=104.070526, Alt.=462.699463m. Speed=0.108000m/h.</desc>
<speed>0.030000</speed>
</trkpt>
<trkpt lat="22.005154" lon="104.070518">
<ele>462.691650</ele>
<time>2011-04-26T07:54:30Z</time>
<desc>lat.=22.005154, lon.=104.070518, Alt.=462.691650m. Speed=0.036000m/h.</desc>
<speed>0.010000</speed>
</trkpt>
<trkpt lat="22.005154" lon="104.070518">
<ele>462.722900</ele>
<time>2011-04-26T07:54:35Z</time>
<desc>lat.=22.005154, lon.=104.070518, Alt.=462.722900m. Speed=0.144000m/h.</desc>
<speed>0.040000</speed>
</trkpt>
<trkpt lat="22.005154" lon="104.070518">
<ele>462.793213</ele>
<time>2011-04-26T07:54:40Z</time>
<desc>lat.=22.005154, lon.=104.070518, Alt.=462.793213m. Speed=0.216000m/h.</desc>
<speed>0.060000</speed>
</trkpt>
<trkpt lat="22.005154" lon="104.070511">
<ele>462.863525</ele>
<time>2011-04-26T07:54:45Z</time>
<desc>lat.=22.005154, lon.=104.070511, Alt.=462.863525m. Speed=0.108000m/h.</desc>
<speed>0.030000</speed>
</trkpt>
<trkpt lat="22.005154" lon="104.070511">
<ele>462.926025</ele>
<time>2011-04-26T07:54:50Z</time>
<desc>lat.=22.005154, lon.=104.070511, Alt.=462.926025m. Speed=0.108000m/h.</desc>
<speed>0.030000</speed>
</trkpt>
<trkpt lat="22.005154" lon="104.070511">
<ele>462.988525</ele>
<time>2011-04-26T07:54:55Z</time>
<desc>lat.=22.005154, lon.=104.070511, Alt.=462.988525m. Speed=0.252000m/h.</desc>
<speed>0.070000</speed>
</trkpt>
<trkpt lat="22.005154" lon="104.070503">
<ele>463.074463</ele>
<time>2011-04-26T07:55:00Z</time>
<desc>lat.=22.005154, lon.=104.070503, Alt.=463.074463m. Speed=0.252000m/h.</desc>
<speed>0.070000</speed>
</trkpt>
<trkpt lat="22.005156" lon="104.070503">
<ele>463.160400</ele>
<time>2011-04-26T07:55:05Z</time>
<desc>lat.=22.005156, lon.=104.070503, Alt.=463.160400m. Speed=0.252000m/h.</desc>
<speed>0.070000</speed>
</trkpt>
<trkpt lat="22.005156" lon="104.070503">
<ele>463.230713</ele>
<time>2011-04-26T07:55:10Z</time>
<desc>lat.=22.005156, lon.=104.070503, Alt.=463.230713m. Speed=0.072000m/h.</desc>
<speed>0.020000</speed>
</trkpt>
<trkpt lat="22.005156" lon="104.070503">
<ele>463.308838</ele>
<time>2011-04-26T07:55:15Z</time>
<desc>lat.=22.005156, lon.=104.070503, Alt.=463.308838m. Speed=0.108000m/h.</desc>
<speed>0.030000</speed>
</trkpt>
<trkpt lat="22.005157" lon="104.070496">
<ele>463.379150</ele>
<time>2011-04-26T07:55:20Z</time>
<desc>lat.=22.005157, lon.=104.070496, Alt.=463.379150m. Speed=0.288000m/h.</desc>
<speed>0.080000</speed>
</trkpt>
<trkpt lat="22.005161" lon="104.070496">
<ele>463.441650</ele>
<time>2011-04-26T07:55:25Z</time>
<desc>lat.=22.005161, lon.=104.070496, Alt.=463.441650m. Speed=0.288000m/h.</desc>
<speed>0.080000</speed>
</trkpt>
<trkpt lat="22.005163" lon="104.070488">
<ele>463.504150</ele>
<time>2011-04-26T07:55:30Z</time>
<desc>lat.=22.005163, lon.=104.070488, Alt.=463.504150m. Speed=0.360000m/h.</desc>
<speed>0.100000</speed>
</trkpt>
<trkpt lat="22.005165" lon="104.070488">
<ele>463.558838</ele>
<time>2011-04-26T07:55:35Z</time>
<desc>lat.=22.005165, lon.=104.070488, Alt.=463.558838m. Speed=0.252000m/h.</desc>
<speed>0.070000</speed>
</trkpt>
<trkpt lat="22.005167" lon="104.070480">
<ele>463.621338</ele>
<time>2011-04-26T07:55:40Z</time>
<desc>lat.=22.005167, lon.=104.070480, Alt.=463.621338m. Speed=0.324000m/h.</desc>
<speed>0.090000</speed>
</trkpt>
<trkpt lat="22.005167" lon="104.070480">
<ele>463.668213</ele>
<time>2011-04-26T07:55:45Z</time>
<desc>lat.=22.005167, lon.=104.070480, Alt.=463.668213m. Speed=0.360000m/h.</desc>
<speed>0.100000</speed>
</trkpt>
<trkpt lat="22.005169" lon="104.070473">
<ele>463.722900</ele>
<time>2011-04-26T07:55:50Z</time>
<desc>lat.=22.005169, lon.=104.070473, Alt.=463.722900m. Speed=0.000000m/h.</desc>
<speed>0.000000</speed>
</trkpt>
<trkpt lat="22.005169" lon="104.070473">
<ele>463.777588</ele>
<time>2011-04-26T07:55:55Z</time>
<desc>lat.=22.005169, lon.=104.070473, Alt.=463.777588m. Speed=0.036000m/h.</desc>
<speed>0.010000</speed>
</trkpt>
<trkpt lat="22.005169" lon="104.070480">
<ele>463.816650</ele>
<time>2011-04-26T07:56:00Z</time>
<desc>lat.=22.005169, lon.=104.070480, Alt.=463.816650m. Speed=0.072000m/h.</desc>
<speed>0.020000</speed>
</trkpt>
<trkpt lat="22.005169" lon="104.070480">
<ele>463.847900</ele>
<time>2011-04-26T07:56:05Z</time>
<desc>lat.=22.005169, lon.=104.070480, Alt.=463.847900m. Speed=0.108000m/h.</desc>
<speed>0.030000</speed>
</trkpt>
<trkpt lat="22.005171" lon="104.070480">
<ele>463.879150</ele>
<time>2011-04-26T07:56:10Z</time>
<desc>lat.=22.005171, lon.=104.070480, Alt.=463.879150m. Speed=0.144000m/h.</desc>
<speed>0.040000</speed>
</trkpt>
<trkpt lat="22.005173" lon="104.070480">
<ele>463.894775</ele>
<time>2011-04-26T07:56:15Z</time>
<desc>lat.=22.005173, lon.=104.070480, Alt.=463.894775m. Speed=0.216000m/h.</desc>
<speed>0.060000</speed>
</trkpt>
<trkpt lat="22.005175" lon="104.070480">
<ele>463.918213</ele>
<time>2011-04-26T07:56:20Z</time>
<desc>lat.=22.005175, lon.=104.070480, Alt.=463.918213m. Speed=0.180000m/h.</desc>
<speed>0.050000</speed>
</trkpt>
<trkpt lat="22.005177" lon="104.070488">
<ele>463.941650</ele>
<time>2011-04-26T07:56:25Z</time>
<desc>lat.=22.005177, lon.=104.070488, Alt.=463.941650m. Speed=0.072000m/h.</desc>
<speed>0.020000</speed>
</trkpt>
<trkpt lat="22.005177" lon="104.070488">
<ele>463.965088</ele>
<time>2011-04-26T07:56:30Z</time>
<desc>lat.=22.005177, lon.=104.070488, Alt.=463.965088m. Speed=0.036000m/h.</desc>
<speed>0.010000</speed>
</trkpt>
<trkpt lat="22.005177" lon="104.070480">
<ele>463.988525</ele>
<time>2011-04-26T07:56:35Z</time>
<desc>lat.=22.005177, lon.=104.070480, Alt.=463.988525m. Speed=0.144000m/h.</desc>
<speed>0.040000</speed>
</trkpt>
<trkpt lat="22.005175" lon="104.070480">
<ele>464.011963</ele>
<time>2011-04-26T07:56:40Z</time>
<desc>lat.=22.005175, lon.=104.070480, Alt.=464.011963m. Speed=0.144000m/h.</desc>
<speed>0.040000</speed>
</trkpt>
<trkpt lat="22.005173" lon="104.070488">
<ele>464.035400</ele>
<time>2011-04-26T07:56:45Z</time>
<desc>lat.=22.005173, lon.=104.070488, Alt.=464.035400m. Speed=0.144000m/h.</desc>
<speed>0.040000</speed>
</trkpt>
<trkpt lat="22.005171" lon="104.070488">
<ele>464.058838</ele>
<time>2011-04-26T07:56:50Z</time>
<desc>lat.=22.005171, lon.=104.070488, Alt.=464.058838m. Speed=0.144000m/h.</desc>
<speed>0.040000</speed>
</trkpt>
<trkpt lat="22.005169" lon="104.070488">
<ele>464.082275</ele>
<time>2011-04-26T07:56:55Z</time>
<desc>lat.=22.005169, lon.=104.070488, Alt.=464.082275m. Speed=0.144000m/h.</desc>
<speed>0.040000</speed>
</trkpt>
<trkpt lat="22.005167" lon="104.070488">
<ele>464.113525</ele>
<time>2011-04-26T07:57:00Z</time>
<desc>lat.=22.005167, lon.=104.070488, Alt.=464.113525m. Speed=0.360000m/h.</desc>
<speed>0.100000</speed>
</trkpt>
<trkpt lat="22.005163" lon="104.070496">
<ele>464.152588</ele>
<time>2011-04-26T07:57:05Z</time>
<desc>lat.=22.005163, lon.=104.070496, Alt.=464.152588m. Speed=0.612000m/h.</desc>
<speed>0.170000</speed>
</trkpt>
<trkpt lat="22.005159" lon="104.070503">
<ele>464.160400</ele>
<time>2011-04-26T07:57:10Z</time>
<desc>lat.=22.005159, lon.=104.070503, Alt.=464.160400m. Speed=0.648000m/h.</desc>
<speed>0.180000</speed>
</trkpt>
<trkpt lat="22.005154" lon="104.070511">
<ele>464.160400</ele>
<time>2011-04-26T07:57:15Z</time>
<desc>lat.=22.005154, lon.=104.070511, Alt.=464.160400m. Speed=0.828000m/h.</desc>
<speed>0.230000</speed>
</trkpt>
<trkpt lat="22.005148" lon="104.070518">
<ele>464.183838</ele>
<time>2011-04-26T07:57:20Z</time>
<desc>lat.=22.005148, lon.=104.070518, Alt.=464.183838m. Speed=0.900000m/h.</desc>
<speed>0.250000</speed>
</trkpt>
<trkpt lat="22.005142" lon="104.070534">
<ele>464.199463</ele>
<time>2011-04-26T07:57:25Z</time>
<desc>lat.=22.005142, lon.=104.070534, Alt.=464.199463m. Speed=0.828000m/h.</desc>
<speed>0.230000</speed>
</trkpt>
<trkpt lat="22.005138" lon="104.070541">
<ele>464.254150</ele>
<time>2011-04-26T07:57:30Z</time>
<desc>lat.=22.005138, lon.=104.070541, Alt.=464.254150m. Speed=0.612000m/h.</desc>
<speed>0.170000</speed>
</trkpt>
<trkpt lat="22.005135" lon="104.070549">
<ele>464.293213</ele>
<time>2011-04-26T07:57:35Z</time>
<desc>lat.=22.005135, lon.=104.070549, Alt.=464.293213m. Speed=0.612000m/h.</desc>
<speed>0.170000</speed>
</trkpt>
<trkpt lat="22.005135" lon="104.070557">
<ele>464.308838</ele>
<time>2011-04-26T07:57:40Z</time>
<desc>lat.=22.005135, lon.=104.070557, Alt.=464.308838m. Speed=0.000000m/h.</desc>
<speed>0.000000</speed>
</trkpt>
<trkpt lat="22.005135" lon="104.070557">
<ele>464.324463</ele>
<time>2011-04-26T07:57:45Z</time>
<desc>lat.=22.005135, lon.=104.070557, Alt.=464.324463m. Speed=0.000000m/h.</desc>
<speed>0.000000</speed>
</trkpt>
<trkpt lat="22.005135" lon="104.070557">
<ele>464.269775</ele>
<time>2011-04-26T07:57:50Z</time>
<desc>lat.=22.005135, lon.=104.070557, Alt.=464.269775m. Speed=0.072000m/h.</desc>
<speed>0.020000</speed>
</trkpt>
<trkpt lat="22.005135" lon="104.070557">
<ele>464.269775</ele>
<time>2011-04-26T07:57:55Z</time>
<desc>lat.=22.005135, lon.=104.070557, Alt.=464.269775m. Speed=0.036000m/h.</desc>
<speed>0.010000</speed>
</trkpt>
<trkpt lat="22.005136" lon="104.070557">
<ele>464.269775</ele>
<time>2011-04-26T07:58:00Z</time>
<desc>lat.=22.005136, lon.=104.070557, Alt.=464.269775m. Speed=0.252000m/h.</desc>
<speed>0.070000</speed>
</trkpt>
<trkpt lat="22.005142" lon="104.070557">
<ele>464.261963</ele>
<time>2011-04-26T07:58:05Z</time>
<desc>lat.=22.005142, lon.=104.070557, Alt.=464.261963m. Speed=0.828000m/h.</desc>
<speed>0.230000</speed>
</trkpt>
<trkpt lat="22.005175" lon="104.070602">
<ele>464.246338</ele>
<time>2011-04-26T07:58:10Z</time>
<desc>lat.=22.005175, lon.=104.070602, Alt.=464.246338m. Speed=2.088000m/h.</desc>
<speed>0.580000</speed>
</trkpt>
<trkpt lat="22.005215" lon="104.070763">
<ele>463.801025</ele>
<time>2011-04-26T07:58:15Z</time>
<desc>lat.=22.005215, lon.=104.070763, Alt.=463.801025m. Speed=11.340000m/h.</desc>
<speed>3.150000</speed>
</trkpt>
<trkpt lat="22.005161" lon="104.071106">
<ele>462.527588</ele>
<time>2011-04-26T07:58:20Z</time>
<desc>lat.=22.005161, lon.=104.071106, Alt.=462.527588m. Speed=18.972000m/h.</desc>
<speed>5.270000</speed>
</trkpt>
<trkpt lat="22.005243" lon="104.071297">
<ele>461.621338</ele>
<time>2011-04-26T07:58:25Z</time>
<desc>lat.=22.005243, lon.=104.071297, Alt.=461.621338m. Speed=9.396000m/h.</desc>
<speed>2.610000</speed>
</trkpt>
<trkpt lat="22.005293" lon="104.071388">
<ele>461.183838</ele>
<time>2011-04-26T07:58:30Z</time>
<desc>lat.=22.005293, lon.=104.071388, Alt.=461.183838m. Speed=7.020000m/h.</desc>
<speed>1.950000</speed>
</trkpt>
<trkpt lat="22.005396" lon="104.071495">
<ele>460.347900</ele>
<time>2011-04-26T07:58:35Z</time>
<desc>lat.=22.005396, lon.=104.071495, Alt.=460.347900m. Speed=6.228000m/h.</desc>
<speed>1.730000</speed>
</trkpt>
<trkpt lat="22.005455" lon="104.071587">
<ele>459.879150</ele>
<time>2011-04-26T07:58:40Z</time>
<desc>lat.=22.005455, lon.=104.071587, Alt.=459.879150m. Speed=6.840000m/h.</desc>
<speed>1.900000</speed>
</trkpt>
<trkpt lat="22.005491" lon="104.071671">
<ele>459.574463</ele>
<time>2011-04-26T07:58:45Z</time>
<desc>lat.=22.005491, lon.=104.071671, Alt.=459.574463m. Speed=6.192000m/h.</desc>
<speed>1.720000</speed>
</trkpt>
<trkpt lat="22.005497" lon="104.071739">
<ele>459.222900</ele>
<time>2011-04-26T07:58:50Z</time>
<desc>lat.=22.005497, lon.=104.071739, Alt.=459.222900m. Speed=5.724000m/h.</desc>
<speed>1.590000</speed>
</trkpt>
<trkpt lat="22.005468" lon="104.071808">
<ele>459.926025</ele>
<time>2011-04-26T07:58:55Z</time>
<desc>lat.=22.005468, lon.=104.071808, Alt.=459.926025m. Speed=4.104000m/h.</desc>
<speed>1.140000</speed>
</trkpt>
<trkpt lat="22.005423" lon="104.071899">
<ele>460.355713</ele>
<time>2011-04-26T07:59:00Z</time>
<desc>lat.=22.005423, lon.=104.071899, Alt.=460.355713m. Speed=6.876000m/h.</desc>
<speed>1.910000</speed>
</trkpt>
<trkpt lat="22.005386" lon="104.071968">
<ele>460.261963</ele>
<time>2011-04-26T07:59:05Z</time>
<desc>lat.=22.005386, lon.=104.071968, Alt.=460.261963m. Speed=4.608000m/h.</desc>
<speed>1.280000</speed>
</trkpt>
<trkpt lat="22.005337" lon="104.072052">
<ele>460.316650</ele>
<time>2011-04-26T07:59:10Z</time>
<desc>lat.=22.005337, lon.=104.072052, Alt.=460.316650m. Speed=3.780000m/h.</desc>
<speed>1.050000</speed>
</trkpt>
<trkpt lat="22.005301" lon="104.072121">
<ele>460.394775</ele>
<time>2011-04-26T07:59:15Z</time>
<desc>lat.=22.005301, lon.=104.072121, Alt.=460.394775m. Speed=4.932000m/h.</desc>
<speed>1.370000</speed>
</trkpt>
<trkpt lat="22.005243" lon="104.072182">
<ele>460.660400</ele>
<time>2011-04-26T07:59:20Z</time>
<desc>lat.=22.005243, lon.=104.072182, Alt.=460.660400m. Speed=6.120000m/h.</desc>
<speed>1.700000</speed>
</trkpt>
<trkpt lat="22.005171" lon="104.072273">
<ele>460.441650</ele>
<time>2011-04-26T07:59:25Z</time>
<desc>lat.=22.005171, lon.=104.072273, Alt.=460.441650m. Speed=7.020000m/h.</desc>
<speed>1.950000</speed>
</trkpt>
<trkpt lat="22.005125" lon="104.072433">
<ele>460.566650</ele>
<time>2011-04-26T07:59:30Z</time>
<desc>lat.=22.005125, lon.=104.072433, Alt.=460.566650m. Speed=7.740000m/h.</desc>
<speed>2.150000</speed>
</trkpt>
<trkpt lat="22.005157" lon="104.072556">
<ele>461.472900</ele>
<time>2011-04-26T07:59:35Z</time>
<desc>lat.=22.005157, lon.=104.072556, Alt.=461.472900m. Speed=9.216000m/h.</desc>
<speed>2.560000</speed>
</trkpt>
<trkpt lat="22.005177" lon="104.072670">
<ele>462.488525</ele>
<time>2011-04-26T07:59:40Z</time>
<desc>lat.=22.005177, lon.=104.072670, Alt.=462.488525m. Speed=8.388000m/h.</desc>
<speed>2.330000</speed>
</trkpt>
<trkpt lat="22.005198" lon="104.072762">
<ele>463.324463</ele>
<time>2011-04-26T07:59:45Z</time>
<desc>lat.=22.005198, lon.=104.072762, Alt.=463.324463m. Speed=5.076000m/h.</desc>
<speed>1.410000</speed>
</trkpt>
<trkpt lat="22.005211" lon="104.072853">
<ele>464.269775</ele>
<time>2011-04-26T07:59:50Z</time>
<desc>lat.=22.005211, lon.=104.072853, Alt.=464.269775m. Speed=7.416000m/h.</desc>
<speed>2.060000</speed>
</trkpt>
<trkpt lat="22.005230" lon="104.072937">
<ele>465.543213</ele>
<time>2011-04-26T07:59:55Z</time>
<desc>lat.=22.005230, lon.=104.072937, Alt.=465.543213m. Speed=4.464000m/h.</desc>
<speed>1.240000</speed>
</trkpt>
<trkpt lat="22.005276" lon="104.073013">
<ele>466.222900</ele>
<time>2011-04-26T08:00:00Z</time>
<desc>lat.=22.005276, lon.=104.073013, Alt.=466.222900m. Speed=6.012000m/h.</desc>
<speed>1.670000</speed>
</trkpt>
<trkpt lat="22.005346" lon="104.073082">
<ele>467.230713</ele>
<time>2011-04-26T08:00:05Z</time>
<desc>lat.=22.005346, lon.=104.073082, Alt.=467.230713m. Speed=7.272000m/h.</desc>
<speed>2.020000</speed>
</trkpt>
<trkpt lat="22.005421" lon="104.073097">
<ele>468.004150</ele>
<time>2011-04-26T08:00:10Z</time>
<desc>lat.=22.005421, lon.=104.073097, Alt.=468.004150m. Speed=4.572000m/h.</desc>
<speed>1.270000</speed>
</trkpt>
<trkpt lat="22.005499" lon="104.073090">
<ele>468.574463</ele>
<time>2011-04-26T08:00:15Z</time>
<desc>lat.=22.005499, lon.=104.073090, Alt.=468.574463m. Speed=4.500000m/h.</desc>
<speed>1.250000</speed>
</trkpt>
<trkpt lat="22.005569" lon="104.073074">
<ele>469.316650</ele>
<time>2011-04-26T08:00:20Z</time>
<desc>lat.=22.005569, lon.=104.073074, Alt.=469.316650m. Speed=5.292000m/h.</desc>
<speed>1.470000</speed>
</trkpt>
<trkpt lat="22.005629" lon="104.073067">
<ele>469.746338</ele>
<time>2011-04-26T08:00:25Z</time>
<desc>lat.=22.005629, lon.=104.073067, Alt.=469.746338m. Speed=3.996000m/h.</desc>
<speed>1.110000</speed>
</trkpt>
<trkpt lat="22.005707" lon="104.073059">
<ele>470.090088</ele>
<time>2011-04-26T08:00:30Z</time>
<desc>lat.=22.005707, lon.=104.073059, Alt.=470.090088m. Speed=4.752000m/h.</desc>
<speed>1.320000</speed>
</trkpt>
<trkpt lat="22.005781" lon="104.073051">
<ele>470.441650</ele>
<time>2011-04-26T08:00:35Z</time>
<desc>lat.=22.005781, lon.=104.073051, Alt.=470.441650m. Speed=4.968000m/h.</desc>
<speed>1.380000</speed>
</trkpt>
<trkpt lat="22.005878" lon="104.073006">
<ele>471.113525</ele>
<time>2011-04-26T08:00:40Z</time>
<desc>lat.=22.005878, lon.=104.073006, Alt.=471.113525m. Speed=6.012000m/h.</desc>
<speed>1.670000</speed>
</trkpt>
<trkpt lat="22.005962" lon="104.072990">
<ele>471.761963</ele>
<time>2011-04-26T08:00:45Z</time>
<desc>lat.=22.005962, lon.=104.072990, Alt.=471.761963m. Speed=5.940000m/h.</desc>
<speed>1.650000</speed>
</trkpt>
<trkpt lat="22.006044" lon="104.072891">
<ele>472.254150</ele>
<time>2011-04-26T08:00:50Z</time>
<desc>lat.=22.006044, lon.=104.072891, Alt.=472.254150m. Speed=6.840000m/h.</desc>
<speed>1.900000</speed>
</trkpt>
<trkpt lat="22.006126" lon="104.072861">
<ele>472.761963</ele>
<time>2011-04-26T08:00:55Z</time>
<desc>lat.=22.006126, lon.=104.072861, Alt.=472.761963m. Speed=5.580000m/h.</desc>
<speed>1.550000</speed>
</trkpt>
<trkpt lat="22.006201" lon="104.072823">
<ele>473.090088</ele>
<time>2011-04-26T08:01:00Z</time>
<desc>lat.=22.006201, lon.=104.072823, Alt.=473.090088m. Speed=6.732000m/h.</desc>
<speed>1.870000</speed>
</trkpt>
<trkpt lat="22.006296" lon="104.072830">
<ele>473.418213</ele>
<time>2011-04-26T08:01:05Z</time>
<desc>lat.=22.006296, lon.=104.072830, Alt.=473.418213m. Speed=6.588000m/h.</desc>
<speed>1.830000</speed>
</trkpt>
<trkpt lat="22.006388" lon="104.072884">
<ele>473.957275</ele>
<time>2011-04-26T08:01:10Z</time>
<desc>lat.=22.006388, lon.=104.072884, Alt.=473.957275m. Speed=8.424000m/h.</desc>
<speed>2.340000</speed>
</trkpt>
<trkpt lat="22.006464" lon="104.072929">
<ele>473.394775</ele>
<time>2011-04-26T08:01:15Z</time>
<desc>lat.=22.006464, lon.=104.072929, Alt.=473.394775m. Speed=4.500000m/h.</desc>
<speed>1.250000</speed>
</trkpt>
<trkpt lat="22.006508" lon="104.072983">
<ele>473.777588</ele>
<time>2011-04-26T08:01:20Z</time>
<desc>lat.=22.006508, lon.=104.072983, Alt.=473.777588m. Speed=4.932000m/h.</desc>
<speed>1.370000</speed>
</trkpt>
<trkpt lat="22.006542" lon="104.073051">
<ele>475.676025</ele>
<time>2011-04-26T08:01:25Z</time>
<desc>lat.=22.006542, lon.=104.073051, Alt.=475.676025m. Speed=6.408000m/h.</desc>
<speed>1.780000</speed>
</trkpt>
<trkpt lat="22.006544" lon="104.073135">
<ele>476.676025</ele>
<time>2011-04-26T08:01:30Z</time>
<desc>lat.=22.006544, lon.=104.073135, Alt.=476.676025m. Speed=4.284000m/h.</desc>
<speed>1.190000</speed>
</trkpt>
<trkpt lat="22.006533" lon="104.073204">
<ele>477.629150</ele>
<time>2011-04-26T08:01:35Z</time>
<desc>lat.=22.006533, lon.=104.073204, Alt.=477.629150m. Speed=4.248000m/h.</desc>
<speed>1.180000</speed>
</trkpt>
<trkpt lat="22.006533" lon="104.073303">
<ele>478.168213</ele>
<time>2011-04-26T08:01:40Z</time>
<desc>lat.=22.006533, lon.=104.073303, Alt.=478.168213m. Speed=6.624000m/h.</desc>
<speed>1.840000</speed>
</trkpt>
<trkpt lat="22.006529" lon="104.073410">
<ele>479.051025</ele>
<time>2011-04-26T08:01:45Z</time>
<desc>lat.=22.006529, lon.=104.073410, Alt.=479.051025m. Speed=9.324000m/h.</desc>
<speed>2.590000</speed>
</trkpt>
<trkpt lat="22.006554" lon="104.073593">
<ele>479.910400</ele>
<time>2011-04-26T08:01:50Z</time>
<desc>lat.=22.006554, lon.=104.073593, Alt.=479.910400m. Speed=10.692000m/h.</desc>
<speed>2.970000</speed>
</trkpt>
<trkpt lat="22.006636" lon="104.073692">
<ele>481.121338</ele>
<time>2011-04-26T08:01:55Z</time>
<desc>lat.=22.006636, lon.=104.073692, Alt.=481.121338m. Speed=3.816000m/h.</desc>
<speed>1.060000</speed>
</trkpt>
<trkpt lat="22.006651" lon="104.073685">
<ele>481.722900</ele>
<time>2011-04-26T08:02:00Z</time>
<desc>lat.=22.006651, lon.=104.073685, Alt.=481.722900m. Speed=1.008000m/h.</desc>
<speed>0.280000</speed>
</trkpt>
<trkpt lat="22.006647" lon="104.073685">
<ele>482.004150</ele>
<time>2011-04-26T08:02:05Z</time>
<desc>lat.=22.006647, lon.=104.073685, Alt.=482.004150m. Speed=0.036000m/h.</desc>
<speed>0.010000</speed>
</trkpt>
<trkpt lat="22.006645" lon="104.073685">
<ele>481.988525</ele>
<time>2011-04-26T08:02:10Z</time>
<desc>lat.=22.006645, lon.=104.073685, Alt.=481.988525m. Speed=0.000000m/h.</desc>
<speed>0.000000</speed>
</trkpt>
<trkpt lat="22.006647" lon="104.073685">
<ele>482.254150</ele>
<time>2011-04-26T08:02:15Z</time>
<desc>lat.=22.006647, lon.=104.073685, Alt.=482.254150m. Speed=0.108000m/h.</desc>
<speed>0.030000</speed>
</trkpt>
<trkpt lat="22.006647" lon="104.073692">
<ele>482.097900</ele>
<time>2011-04-26T08:02:20Z</time>
<desc>lat.=22.006647, lon.=104.073692, Alt.=482.097900m. Speed=0.216000m/h.</desc>
<speed>0.060000</speed>
</trkpt>
<trkpt lat="22.006647" lon="104.073692">
<ele>482.160400</ele>
<time>2011-04-26T08:02:25Z</time>
<desc>lat.=22.006647, lon.=104.073692, Alt.=482.160400m. Speed=0.252000m/h.</desc>
<speed>0.070000</speed>
</trkpt>
<trkpt lat="22.006622" lon="104.073700">
<ele>482.355713</ele>
<time>2011-04-26T08:02:30Z</time>
<desc>lat.=22.006622, lon.=104.073700, Alt.=482.355713m. Speed=0.612000m/h.</desc>
<speed>0.170000</speed>
</trkpt>
<trkpt lat="22.006605" lon="104.073700">
<ele>482.426025</ele>
<time>2011-04-26T08:02:35Z</time>
<desc>lat.=22.006605, lon.=104.073700, Alt.=482.426025m. Speed=0.504000m/h.</desc>
<speed>0.140000</speed>
</trkpt>
<trkpt lat="22.006590" lon="104.073708">
<ele>482.543213</ele>
<time>2011-04-26T08:02:40Z</time>
<desc>lat.=22.006590, lon.=104.073708, Alt.=482.543213m. Speed=0.540000m/h.</desc>
<speed>0.150000</speed>
</trkpt>
<trkpt lat="22.006590" lon="104.073723">
<ele>482.691650</ele>
<time>2011-04-26T08:02:45Z</time>
<desc>lat.=22.006590, lon.=104.073723, Alt.=482.691650m. Speed=0.468000m/h.</desc>
<speed>0.130000</speed>
</trkpt>
<trkpt lat="22.006592" lon="104.073723">
<ele>482.777588</ele>
<time>2011-04-26T08:02:50Z</time>
<desc>lat.=22.006592, lon.=104.073723, Alt.=482.777588m. Speed=0.108000m/h.</desc>
<speed>0.030000</speed>
</trkpt>
<trkpt lat="22.006590" lon="104.073715">
<ele>482.879150</ele>
<time>2011-04-26T08:02:55Z</time>
<desc>lat.=22.006590, lon.=104.073715, Alt.=482.879150m. Speed=0.108000m/h.</desc>
<speed>0.030000</speed>
</trkpt>
<trkpt lat="22.006590" lon="104.073715">
<ele>482.879150</ele>
<time>2011-04-26T08:03:00Z</time>
<desc>lat.=22.006590, lon.=104.073715, Alt.=482.879150m. Speed=0.360000m/h.</desc>
<speed>0.100000</speed>
</trkpt>
<trkpt lat="22.006588" lon="104.073708">
<ele>482.886963</ele>
<time>2011-04-26T08:03:05Z</time>
<desc>lat.=22.006588, lon.=104.073708, Alt.=482.886963m. Speed=0.756000m/h.</desc>
<speed>0.210000</speed>
</trkpt>
<trkpt lat="22.006588" lon="104.073692">
<ele>482.879150</ele>
<time>2011-04-26T08:03:10Z</time>
<desc>lat.=22.006588, lon.=104.073692, Alt.=482.879150m. Speed=0.288000m/h.</desc>
<speed>0.080000</speed>
</trkpt>
<trkpt lat="22.006590" lon="104.073692">
<ele>482.879150</ele>
<time>2011-04-26T08:03:15Z</time>
<desc>lat.=22.006590, lon.=104.073692, Alt.=482.879150m. Speed=0.144000m/h.</desc>
<speed>0.040000</speed>
</trkpt>
<trkpt lat="22.006639" lon="104.073723">
<ele>482.707275</ele>
<time>2011-04-26T08:03:20Z</time>
<desc>lat.=22.006639, lon.=104.073723, Alt.=482.707275m. Speed=4.068000m/h.</desc>
<speed>1.130000</speed>
</trkpt>
<trkpt lat="22.006737" lon="104.073784">
<ele>482.410400</ele>
<time>2011-04-26T08:03:25Z</time>
<desc>lat.=22.006737, lon.=104.073784, Alt.=482.410400m. Speed=5.436000m/h.</desc>
<speed>1.510000</speed>
</trkpt>
<trkpt lat="22.006769" lon="104.073792">
<ele>482.293213</ele>
<time>2011-04-26T08:03:30Z</time>
<desc>lat.=22.006769, lon.=104.073792, Alt.=482.293213m. Speed=0.684000m/h.</desc>
<speed>0.190000</speed>
</trkpt>
<trkpt lat="22.006763" lon="104.073792">
<ele>482.293213</ele>
<time>2011-04-26T08:03:35Z</time>
<desc>lat.=22.006763, lon.=104.073792, Alt.=482.293213m. Speed=0.432000m/h.</desc>
<speed>0.120000</speed>
</trkpt>
<trkpt lat="22.006765" lon="104.073799">
<ele>481.769775</ele>
<time>2011-04-26T08:03:40Z</time>
<desc>lat.=22.006765, lon.=104.073799, Alt.=481.769775m. Speed=2.340000m/h.</desc>
<speed>0.650000</speed>
</trkpt>
<trkpt lat="22.006865" lon="104.073860">
<ele>481.090088</ele>
<time>2011-04-26T08:03:45Z</time>
<desc>lat.=22.006865, lon.=104.073860, Alt.=481.090088m. Speed=10.584000m/h.</desc>
<speed>2.940000</speed>
</trkpt>
<trkpt lat="22.007088" lon="104.073997">
<ele>480.418213</ele>
<time>2011-04-26T08:03:50Z</time>
<desc>lat.=22.007088, lon.=104.073997, Alt.=480.418213m. Speed=22.788000m/h.</desc>
<speed>6.330000</speed>
</trkpt>
<trkpt lat="22.007364" lon="104.074181">
<ele>479.511963</ele>
<time>2011-04-26T08:03:55Z</time>
<desc>lat.=22.007364, lon.=104.074181, Alt.=479.511963m. Speed=26.351999m/h.</desc>
<speed>7.320000</speed>
</trkpt>
<trkpt lat="22.007650" lon="104.074478">
<ele>478.699463</ele>
<time>2011-04-26T08:04:00Z</time>
<desc>lat.=22.007650, lon.=104.074478, Alt.=478.699463m. Speed=34.883999m/h.</desc>
<speed>9.690000</speed>
</trkpt>
<trkpt lat="22.008045" lon="104.074860">
<ele>477.558838</ele>
<time>2011-04-26T08:04:05Z</time>
<desc>lat.=22.008045, lon.=104.074860, Alt.=477.558838m. Speed=41.688000m/h.</desc>
<speed>11.580000</speed>
</trkpt>
<trkpt lat="22.008448" lon="104.075241">
<ele>475.511963</ele>
<time>2011-04-26T08:04:10Z</time>
<desc>lat.=22.008448, lon.=104.075241, Alt.=475.511963m. Speed=41.147999m/h.</desc>
<speed>11.430000</speed>
</trkpt>
<trkpt lat="22.008965" lon="104.075584">
<ele>473.715088</ele>
<time>2011-04-26T08:04:15Z</time>
<desc>lat.=22.008965, lon.=104.075584, Alt.=473.715088m. Speed=50.616001m/h.</desc>
<speed>14.060000</speed>
</trkpt>
<trkpt lat="22.009464" lon="104.076012">
<ele>471.488525</ele>
<time>2011-04-26T08:04:20Z</time>
<desc>lat.=22.009464, lon.=104.076012, Alt.=471.488525m. Speed=46.692001m/h.</desc>
<speed>12.970000</speed>
</trkpt>
<trkpt lat="22.009840" lon="104.076256">
<ele>468.855713</ele>
<time>2011-04-26T08:04:25Z</time>
<desc>lat.=22.009840, lon.=104.076256, Alt.=468.855713m. Speed=25.379999m/h.</desc>
<speed>7.050000</speed>
</trkpt>
<trkpt lat="22.010033" lon="104.076324">
<ele>466.316650</ele>
<time>2011-04-26T08:04:30Z</time>
<desc>lat.=22.010033, lon.=104.076324, Alt.=466.316650m. Speed=12.888000m/h.</desc>
<speed>3.580000</speed>
</trkpt>
<trkpt lat="22.010094" lon="104.076347">
<ele>464.847900</ele>
<time>2011-04-26T08:04:35Z</time>
<desc>lat.=22.010094, lon.=104.076347, Alt.=464.847900m. Speed=0.684000m/h.</desc>
<speed>0.190000</speed>
</trkpt>
<trkpt lat="22.010101" lon="104.076355">
<ele>464.660400</ele>
<time>2011-04-26T08:04:40Z</time>
<desc>lat.=22.010101, lon.=104.076355, Alt.=464.660400m. Speed=1.152000m/h.</desc>
<speed>0.320000</speed>
</trkpt>
<trkpt lat="22.010105" lon="104.076355">
<ele>464.488525</ele>
<time>2011-04-26T08:04:45Z</time>
<desc>lat.=22.010105, lon.=104.076355, Alt.=464.488525m. Speed=0.396000m/h.</desc>
<speed>0.110000</speed>
</trkpt>
<trkpt lat="22.010117" lon="104.076370">
<ele>464.433838</ele>
<time>2011-04-26T08:04:50Z</time>
<desc>lat.=22.010117, lon.=104.076370, Alt.=464.433838m. Speed=5.004000m/h.</desc>
<speed>1.390000</speed>
</trkpt>
<trkpt lat="22.010370" lon="104.076439">
<ele>461.621338</ele>
<time>2011-04-26T08:04:55Z</time>
<desc>lat.=22.010370, lon.=104.076439, Alt.=461.621338m. Speed=21.743999m/h.</desc>
<speed>6.040000</speed>
</trkpt>
<trkpt lat="22.010681" lon="104.076553">
<ele>459.488525</ele>
<time>2011-04-26T08:05:00Z</time>
<desc>lat.=22.010681, lon.=104.076553, Alt.=459.488525m. Speed=29.628000m/h.</desc>
<speed>8.230000</speed>
</trkpt>
<trkpt lat="22.010952" lon="104.076668">
<ele>454.238525</ele>
<time>2011-04-26T08:05:05Z</time>
<desc>lat.=22.010952, lon.=104.076668, Alt.=454.238525m. Speed=28.440001m/h.</desc>
<speed>7.900000</speed>
</trkpt>
<trkpt lat="22.011259" lon="104.076599">
<ele>452.722900</ele>
<time>2011-04-26T08:05:10Z</time>
<desc>lat.=22.011259, lon.=104.076599, Alt.=452.722900m. Speed=23.400000m/h.</desc>
<speed>6.500000</speed>
</trkpt>
<trkpt lat="22.011572" lon="104.076607">
<ele>451.715088</ele>
<time>2011-04-26T08:05:15Z</time>
<desc>lat.=22.011572, lon.=104.076607, Alt.=451.715088m. Speed=28.260000m/h.</desc>
<speed>7.850000</speed>
</trkpt>
<trkpt lat="22.011814" lon="104.076752">
<ele>449.160400</ele>
<time>2011-04-26T08:05:20Z</time>
<desc>lat.=22.011814, lon.=104.076752, Alt.=449.160400m. Speed=9.360000m/h.</desc>
<speed>2.600000</speed>
</trkpt>
<trkpt lat="22.011877" lon="104.076729">
<ele>446.754150</ele>
<time>2011-04-26T08:05:25Z</time>
<desc>lat.=22.011877, lon.=104.076729, Alt.=446.754150m. Speed=0.288000m/h.</desc>
<speed>0.080000</speed>
</trkpt>
<trkpt lat="22.011881" lon="104.076729">
<ele>446.629150</ele>
<time>2011-04-26T08:05:30Z</time>
<desc>lat.=22.011881, lon.=104.076729, Alt.=446.629150m. Speed=2.304000m/h.</desc>
<speed>0.640000</speed>
</trkpt>
<trkpt lat="22.011950" lon="104.076706">
<ele>442.972900</ele>
<time>2011-04-26T08:05:35Z</time>
<desc>lat.=22.011950, lon.=104.076706, Alt.=442.972900m. Speed=0.468000m/h.</desc>
<speed>0.130000</speed>
</trkpt>
<trkpt lat="22.011950" lon="104.076698">
<ele>442.660400</ele>
<time>2011-04-26T08:05:40Z</time>
<desc>lat.=22.011950, lon.=104.076698, Alt.=442.660400m. Speed=0.036000m/h.</desc>
<speed>0.010000</speed>
</trkpt>
<trkpt lat="22.011950" lon="104.076698">
<ele>442.636963</ele>
<time>2011-04-26T08:05:45Z</time>
<desc>lat.=22.011950, lon.=104.076698, Alt.=442.636963m. Speed=0.072000m/h.</desc>
<speed>0.020000</speed>
</trkpt>
<trkpt lat="22.011950" lon="104.076698">
<ele>442.629150</ele>
<time>2011-04-26T08:05:50Z</time>
<desc>lat.=22.011950, lon.=104.076698, Alt.=442.629150m. Speed=0.036000m/h.</desc>
<speed>0.010000</speed>
</trkpt>
<trkpt lat="22.011950" lon="104.076698">
<ele>442.613525</ele>
<time>2011-04-26T08:05:55Z</time>
<desc>lat.=22.011950, lon.=104.076698, Alt.=442.613525m. Speed=0.108000m/h.</desc>
<speed>0.030000</speed>
</trkpt>
<trkpt lat="22.011950" lon="104.076698">
<ele>442.605713</ele>
<time>2011-04-26T08:06:00Z</time>
<desc>lat.=22.011950, lon.=104.076698, Alt.=442.605713m. Speed=0.288000m/h.</desc>
<speed>0.080000</speed>
</trkpt>
<trkpt lat="22.011982" lon="104.076721">
<ele>441.761963</ele>
<time>2011-04-26T08:06:05Z</time>
<desc>lat.=22.011982, lon.=104.076721, Alt.=441.761963m. Speed=4.680000m/h.</desc>
<speed>1.300000</speed>
</trkpt>
<trkpt lat="22.012066" lon="104.076782">
<ele>440.840088</ele>
<time>2011-04-26T08:06:10Z</time>
<desc>lat.=22.012066, lon.=104.076782, Alt.=440.840088m. Speed=12.744000m/h.</desc>
<speed>3.540000</speed>
</trkpt>
<trkpt lat="22.012222" lon="104.076851">
<ele>440.636963</ele>
<time>2011-04-26T08:06:15Z</time>
<desc>lat.=22.012222, lon.=104.076851, Alt.=440.636963m. Speed=13.536000m/h.</desc>
<speed>3.760000</speed>
</trkpt>
<trkpt lat="22.012369" lon="104.076935">
<ele>440.597900</ele>
<time>2011-04-26T08:06:20Z</time>
<desc>lat.=22.012369, lon.=104.076935, Alt.=440.597900m. Speed=11.340000m/h.</desc>
<speed>3.150000</speed>
</trkpt>
<trkpt lat="22.012491" lon="104.077003">
<ele>440.551025</ele>
<time>2011-04-26T08:06:25Z</time>
<desc>lat.=22.012491, lon.=104.077003, Alt.=440.551025m. Speed=7.992000m/h.</desc>
<speed>2.220000</speed>
</trkpt>
<trkpt lat="22.012543" lon="104.077057">
<ele>439.926025</ele>
<time>2011-04-26T08:06:30Z</time>
<desc>lat.=22.012543, lon.=104.077057, Alt.=439.926025m. Speed=0.540000m/h.</desc>
<speed>0.150000</speed>
</trkpt>
<trkpt lat="22.012541" lon="104.077065">
<ele>440.066650</ele>
<time>2011-04-26T08:06:35Z</time>
<desc>lat.=22.012541, lon.=104.077065, Alt.=440.066650m. Speed=0.540000m/h.</desc>
<speed>0.150000</speed>
</trkpt>
<trkpt lat="22.012535" lon="104.077072">
<ele>440.097900</ele>
<time>2011-04-26T08:06:40Z</time>
<desc>lat.=22.012535, lon.=104.077072, Alt.=440.097900m. Speed=0.324000m/h.</desc>
<speed>0.090000</speed>
</trkpt>
<trkpt lat="22.012533" lon="104.077072">
<ele>440.105713</ele>
<time>2011-04-26T08:06:45Z</time>
<desc>lat.=22.012533, lon.=104.077072, Alt.=440.105713m. Speed=0.396000m/h.</desc>
<speed>0.110000</speed>
</trkpt>
<trkpt lat="22.012531" lon="104.077072">
<ele>440.113525</ele>
<time>2011-04-26T08:06:50Z</time>
<desc>lat.=22.012531, lon.=104.077072, Alt.=440.113525m. Speed=0.036000m/h.</desc>
<speed>0.010000</speed>
</trkpt>
<trkpt lat="22.012531" lon="104.077072">
<ele>440.121338</ele>
<time>2011-04-26T08:06:55Z</time>
<desc>lat.=22.012531, lon.=104.077072, Alt.=440.121338m. Speed=0.144000m/h.</desc>
<speed>0.040000</speed>
</trkpt>
<trkpt lat="22.012531" lon="104.077080">
<ele>440.129150</ele>
<time>2011-04-26T08:07:00Z</time>
<desc>lat.=22.012531, lon.=104.077080, Alt.=440.129150m. Speed=0.360000m/h.</desc>
<speed>0.100000</speed>
</trkpt>
<trkpt lat="22.012535" lon="104.077080">
<ele>440.136963</ele>
<time>2011-04-26T08:07:05Z</time>
<desc>lat.=22.012535, lon.=104.077080, Alt.=440.136963m. Speed=0.144000m/h.</desc>
<speed>0.040000</speed>
</trkpt>
<trkpt lat="22.012533" lon="104.077080">
<ele>440.136963</ele>
<time>2011-04-26T08:07:10Z</time>
<desc>lat.=22.012533, lon.=104.077080, Alt.=440.136963m. Speed=0.108000m/h.</desc>
<speed>0.030000</speed>
</trkpt>
<trkpt lat="22.012535" lon="104.077087">
<ele>440.144775</ele>
<time>2011-04-26T08:07:15Z</time>
<desc>lat.=22.012535, lon.=104.077087, Alt.=440.144775m. Speed=0.468000m/h.</desc>
<speed>0.130000</speed>
</trkpt>
<trkpt lat="22.012537" lon="104.077095">
<ele>440.144775</ele>
<time>2011-04-26T08:07:20Z</time>
<desc>lat.=22.012537, lon.=104.077095, Alt.=440.144775m. Speed=0.720000m/h.</desc>
<speed>0.200000</speed>
</trkpt>
<trkpt lat="22.012537" lon="104.077103">
<ele>440.144775</ele>
<time>2011-04-26T08:07:25Z</time>
<desc>lat.=22.012537, lon.=104.077103, Alt.=440.144775m. Speed=0.252000m/h.</desc>
<speed>0.070000</speed>
</trkpt>
<trkpt lat="22.012535" lon="104.077103">
<ele>440.152588</ele>
<time>2011-04-26T08:07:30Z</time>
<desc>lat.=22.012535, lon.=104.077103, Alt.=440.152588m. Speed=0.900000m/h.</desc>
<speed>0.250000</speed>
</trkpt>
<trkpt lat="22.012531" lon="104.077110">
<ele>440.160400</ele>
<time>2011-04-26T08:07:35Z</time>
<desc>lat.=22.012531, lon.=104.077110, Alt.=440.160400m. Speed=0.180000m/h.</desc>
<speed>0.050000</speed>
</trkpt>
<trkpt lat="22.012531" lon="104.077110">
<ele>440.160400</ele>
<time>2011-04-26T08:07:40Z</time>
<desc>lat.=22.012531, lon.=104.077110, Alt.=440.160400m. Speed=0.144000m/h.</desc>
<speed>0.040000</speed>
</trkpt>
<trkpt lat="22.012531" lon="104.077110">
<ele>440.152588</ele>
<time>2011-04-26T08:07:45Z</time>
<desc>lat.=22.012531, lon.=104.077110, Alt.=440.152588m. Speed=0.360000m/h.</desc>
<speed>0.100000</speed>
</trkpt>
<trkpt lat="22.012531" lon="104.077110">
<ele>440.144775</ele>
<time>2011-04-26T08:07:50Z</time>
<desc>lat.=22.012531, lon.=104.077110, Alt.=440.144775m. Speed=0.432000m/h.</desc>
<speed>0.120000</speed>
</trkpt>
<trkpt lat="22.012539" lon="104.077110">
<ele>440.136963</ele>
<time>2011-04-26T08:07:55Z</time>
<desc>lat.=22.012539, lon.=104.077110, Alt.=440.136963m. Speed=0.432000m/h.</desc>
<speed>0.120000</speed>
</trkpt>
<trkpt lat="22.012541" lon="104.077103">
<ele>440.129150</ele>
<time>2011-04-26T08:08:00Z</time>
<desc>lat.=22.012541, lon.=104.077103, Alt.=440.129150m. Speed=0.216000m/h.</desc>
<speed>0.060000</speed>
</trkpt>
<trkpt lat="22.012541" lon="104.077103">
<ele>440.113525</ele>
<time>2011-04-26T08:08:05Z</time>
<desc>lat.=22.012541, lon.=104.077103, Alt.=440.113525m. Speed=0.072000m/h.</desc>
<speed>0.020000</speed>
</trkpt>
<trkpt lat="22.012543" lon="104.077103">
<ele>440.113525</ele>
<time>2011-04-26T08:08:10Z</time>
<desc>lat.=22.012543, lon.=104.077103, Alt.=440.113525m. Speed=0.468000m/h.</desc>
<speed>0.130000</speed>
</trkpt>
<trkpt lat="22.012545" lon="104.077095">
<ele>440.105713</ele>
<time>2011-04-26T08:08:15Z</time>
<desc>lat.=22.012545, lon.=104.077095, Alt.=440.105713m. Speed=0.252000m/h.</desc>
<speed>0.070000</speed>
</trkpt>
<trkpt lat="22.012545" lon="104.077095">
<ele>440.097900</ele>
<time>2011-04-26T08:08:20Z</time>
<desc>lat.=22.012545, lon.=104.077095, Alt.=440.097900m. Speed=0.324000m/h.</desc>
<speed>0.090000</speed>
</trkpt>
<trkpt lat="22.012541" lon="104.077103">
<ele>440.090088</ele>
<time>2011-04-26T08:08:25Z</time>
<desc>lat.=22.012541, lon.=104.077103, Alt.=440.090088m. Speed=0.036000m/h.</desc>
<speed>0.010000</speed>
</trkpt>
<trkpt lat="22.012541" lon="104.077103">
<ele>440.082275</ele>
<time>2011-04-26T08:08:30Z</time>
<desc>lat.=22.012541, lon.=104.077103, Alt.=440.082275m. Speed=0.072000m/h.</desc>
<speed>0.020000</speed>
</trkpt>
<trkpt lat="22.012543" lon="104.077103">
<ele>440.066650</ele>
<time>2011-04-26T08:08:35Z</time>
<desc>lat.=22.012543, lon.=104.077103, Alt.=440.066650m. Speed=0.324000m/h.</desc>
<speed>0.090000</speed>
</trkpt>
<trkpt lat="22.012547" lon="104.077103">
<ele>440.051025</ele>
<time>2011-04-26T08:08:40Z</time>
<desc>lat.=22.012547, lon.=104.077103, Alt.=440.051025m. Speed=0.216000m/h.</desc>
<speed>0.060000</speed>
</trkpt>
<trkpt lat="22.012548" lon="104.077110">
<ele>440.035400</ele>
<time>2011-04-26T08:08:45Z</time>
<desc>lat.=22.012548, lon.=104.077110, Alt.=440.035400m. Speed=0.720000m/h.</desc>
<speed>0.200000</speed>
</trkpt>
<trkpt lat="22.012550" lon="104.077118">
<ele>440.019775</ele>
<time>2011-04-26T08:08:50Z</time>
<desc>lat.=22.012550, lon.=104.077118, Alt.=440.019775m. Speed=0.360000m/h.</desc>
<speed>0.100000</speed>
</trkpt>
<trkpt lat="22.012552" lon="104.077118">
<ele>440.004150</ele>
<time>2011-04-26T08:08:55Z</time>
<desc>lat.=22.012552, lon.=104.077118, Alt.=440.004150m. Speed=0.432000m/h.</desc>
<speed>0.120000</speed>
</trkpt>
<trkpt lat="22.012554" lon="104.077126">
<ele>439.996338</ele>
<time>2011-04-26T08:09:00Z</time>
<desc>lat.=22.012554, lon.=104.077126, Alt.=439.996338m. Speed=0.468000m/h.</desc>
<speed>0.130000</speed>
</trkpt>
<trkpt lat="22.012558" lon="104.077133">
<ele>439.980713</ele>
<time>2011-04-26T08:09:05Z</time>
<desc>lat.=22.012558, lon.=104.077133, Alt.=439.980713m. Speed=0.468000m/h.</desc>
<speed>0.130000</speed>
</trkpt>
<trkpt lat="22.012560" lon="104.077133">
<ele>439.972900</ele>
<time>2011-04-26T08:09:10Z</time>
<desc>lat.=22.012560, lon.=104.077133, Alt.=439.972900m. Speed=0.216000m/h.</desc>
<speed>0.060000</speed>
</trkpt>
<trkpt lat="22.012560" lon="104.077133">
<ele>439.965088</ele>
<time>2011-04-26T08:09:15Z</time>
<desc>lat.=22.012560, lon.=104.077133, Alt.=439.965088m. Speed=0.072000m/h.</desc>
<speed>0.020000</speed>
</trkpt>
<trkpt lat="22.012564" lon="104.077133">
<ele>439.957275</ele>
<time>2011-04-26T08:09:20Z</time>
<desc>lat.=22.012564, lon.=104.077133, Alt.=439.957275m. Speed=0.612000m/h.</desc>
<speed>0.170000</speed>
</trkpt>
<trkpt lat="22.012571" lon="104.077141">
<ele>439.949463</ele>
<time>2011-04-26T08:09:25Z</time>
<desc>lat.=22.012571, lon.=104.077141, Alt.=439.949463m. Speed=0.612000m/h.</desc>
<speed>0.170000</speed>
</trkpt>
<trkpt lat="22.012575" lon="104.077141">
<ele>439.933838</ele>
<time>2011-04-26T08:09:30Z</time>
<desc>lat.=22.012575, lon.=104.077141, Alt.=439.933838m. Speed=0.396000m/h.</desc>
<speed>0.110000</speed>
</trkpt>
<trkpt lat="22.012581" lon="104.077141">
<ele>439.918213</ele>
<time>2011-04-26T08:09:35Z</time>
<desc>lat.=22.012581, lon.=104.077141, Alt.=439.918213m. Speed=0.468000m/h.</desc>
<speed>0.130000</speed>
</trkpt>
<trkpt lat="22.012583" lon="104.077148">
<ele>439.910400</ele>
<time>2011-04-26T08:09:40Z</time>
<desc>lat.=22.012583, lon.=104.077148, Alt.=439.910400m. Speed=0.612000m/h.</desc>
<speed>0.170000</speed>
</trkpt>
<trkpt lat="22.012583" lon="104.077156">
<ele>439.902588</ele>
<time>2011-04-26T08:09:45Z</time>
<desc>lat.=22.012583, lon.=104.077156, Alt.=439.902588m. Speed=0.180000m/h.</desc>
<speed>0.050000</speed>
</trkpt>
<trkpt lat="22.012585" lon="104.077156">
<ele>439.855713</ele>
<time>2011-04-26T08:09:50Z</time>
<desc>lat.=22.012585, lon.=104.077156, Alt.=439.855713m. Speed=0.504000m/h.</desc>
<speed>0.140000</speed>
</trkpt>
<trkpt lat="22.012587" lon="104.077164">
<ele>439.816650</ele>
<time>2011-04-26T08:09:55Z</time>
<desc>lat.=22.012587, lon.=104.077164, Alt.=439.816650m. Speed=0.360000m/h.</desc>
<speed>0.100000</speed>
</trkpt>
<trkpt lat="22.012592" lon="104.077156">
<ele>439.785400</ele>
<time>2011-04-26T08:10:00Z</time>
<desc>lat.=22.012592, lon.=104.077156, Alt.=439.785400m. Speed=0.756000m/h.</desc>
<speed>0.210000</speed>
</trkpt>
<trkpt lat="22.012596" lon="104.077148">
<ele>439.746338</ele>
<time>2011-04-26T08:10:05Z</time>
<desc>lat.=22.012596, lon.=104.077148, Alt.=439.746338m. Speed=0.720000m/h.</desc>
<speed>0.200000</speed>
</trkpt>
<trkpt lat="22.012600" lon="104.077141">
<ele>439.730713</ele>
<time>2011-04-26T08:10:10Z</time>
<desc>lat.=22.012600, lon.=104.077141, Alt.=439.730713m. Speed=0.504000m/h.</desc>
<speed>0.140000</speed>
</trkpt>
<trkpt lat="22.012602" lon="104.077141">
<ele>439.699463</ele>
<time>2011-04-26T08:10:15Z</time>
<desc>lat.=22.012602, lon.=104.077141, Alt.=439.699463m. Speed=0.072000m/h.</desc>
<speed>0.020000</speed>
</trkpt>
<trkpt lat="22.012602" lon="104.077141">
<ele>439.668213</ele>
<time>2011-04-26T08:10:20Z</time>
<desc>lat.=22.012602, lon.=104.077141, Alt.=439.668213m. Speed=0.288000m/h.</desc>
<speed>0.080000</speed>
</trkpt>
<trkpt lat="22.012602" lon="104.077148">
<ele>439.629150</ele>
<time>2011-04-26T08:10:25Z</time>
<desc>lat.=22.012602, lon.=104.077148, Alt.=439.629150m. Speed=0.180000m/h.</desc>
<speed>0.050000</speed>
</trkpt>
<trkpt lat="22.012604" lon="104.077148">
<ele>439.605713</ele>
<time>2011-04-26T08:10:30Z</time>
<desc>lat.=22.012604, lon.=104.077148, Alt.=439.605713m. Speed=0.252000m/h.</desc>
<speed>0.070000</speed>
</trkpt>
<trkpt lat="22.012606" lon="104.077141">
<ele>439.574463</ele>
<time>2011-04-26T08:10:35Z</time>
<desc>lat.=22.012606, lon.=104.077141, Alt.=439.574463m. Speed=0.612000m/h.</desc>
<speed>0.170000</speed>
</trkpt>
<trkpt lat="22.012611" lon="104.077118">
<ele>438.949463</ele>
<time>2011-04-26T08:10:40Z</time>
<desc>lat.=22.012611, lon.=104.077118, Alt.=438.949463m. Speed=1.008000m/h.</desc>
<speed>0.280000</speed>
</trkpt>
<trkpt lat="22.012636" lon="104.077065">
<ele>436.332275</ele>
<time>2011-04-26T08:10:45Z</time>
<desc>lat.=22.012636, lon.=104.077065, Alt.=436.332275m. Speed=0.864000m/h.</desc>
<speed>0.240000</speed>
</trkpt>
<trkpt lat="22.012646" lon="104.077042">
<ele>435.004150</ele>
<time>2011-04-26T08:10:50Z</time>
<desc>lat.=22.012646, lon.=104.077042, Alt.=435.004150m. Speed=0.792000m/h.</desc>
<speed>0.220000</speed>
</trkpt>
<trkpt lat="22.012646" lon="104.077034">
<ele>434.894775</ele>
<time>2011-04-26T08:10:55Z</time>
<desc>lat.=22.012646, lon.=104.077034, Alt.=434.894775m. Speed=0.504000m/h.</desc>
<speed>0.140000</speed>
</trkpt>
<trkpt lat="22.012646" lon="104.077026">
<ele>434.847900</ele>
<time>2011-04-26T08:11:00Z</time>
<desc>lat.=22.012646, lon.=104.077026, Alt.=434.847900m. Speed=0.108000m/h.</desc>
<speed>0.030000</speed>
</trkpt>
<trkpt lat="22.012646" lon="104.077026">
<ele>434.824463</ele>
<time>2011-04-26T08:11:05Z</time>
<desc>lat.=22.012646, lon.=104.077026, Alt.=434.824463m. Speed=0.108000m/h.</desc>
<speed>0.030000</speed>
</trkpt>
<trkpt lat="22.012644" lon="104.077026">
<ele>434.777588</ele>
<time>2011-04-26T08:11:10Z</time>
<desc>lat.=22.012644, lon.=104.077026, Alt.=434.777588m. Speed=0.288000m/h.</desc>
<speed>0.080000</speed>
</trkpt>
<trkpt lat="22.012644" lon="104.077019">
<ele>434.722900</ele>
<time>2011-04-26T08:11:15Z</time>
<desc>lat.=22.012644, lon.=104.077019, Alt.=434.722900m. Speed=0.576000m/h.</desc>
<speed>0.160000</speed>
</trkpt>
<trkpt lat="22.012642" lon="104.077019">
<ele>434.660400</ele>
<time>2011-04-26T08:11:20Z</time>
<desc>lat.=22.012642, lon.=104.077019, Alt.=434.660400m. Speed=0.144000m/h.</desc>
<speed>0.040000</speed>
</trkpt>
<trkpt lat="22.012642" lon="104.077026">
<ele>434.590088</ele>
<time>2011-04-26T08:11:25Z</time>
<desc>lat.=22.012642, lon.=104.077026, Alt.=434.590088m. Speed=0.180000m/h.</desc>
<speed>0.050000</speed>
</trkpt>
<trkpt lat="22.012640" lon="104.077019">
<ele>434.527588</ele>
<time>2011-04-26T08:11:30Z</time>
<desc>lat.=22.012640, lon.=104.077019, Alt.=434.527588m. Speed=0.216000m/h.</desc>
<speed>0.060000</speed>
</trkpt>
<trkpt lat="22.012636" lon="104.077019">
<ele>434.488525</ele>
<time>2011-04-26T08:11:35Z</time>
<desc>lat.=22.012636, lon.=104.077019, Alt.=434.488525m. Speed=0.180000m/h.</desc>
<speed>0.050000</speed>
</trkpt>
<trkpt lat="22.012634" lon="104.077019">
<ele>434.418213</ele>
<time>2011-04-26T08:11:40Z</time>
<desc>lat.=22.012634, lon.=104.077019, Alt.=434.418213m. Speed=0.000000m/h.</desc>
<speed>0.000000</speed>
</trkpt>
<trkpt lat="22.012634" lon="104.077019">
<ele>434.371338</ele>
<time>2011-04-26T08:11:45Z</time>
<desc>lat.=22.012634, lon.=104.077019, Alt.=434.371338m. Speed=0.720000m/h.</desc>
<speed>0.200000</speed>
</trkpt>
<trkpt lat="22.012630" lon="104.077026">
<ele>434.347900</ele>
<time>2011-04-26T08:11:50Z</time>
<desc>lat.=22.012630, lon.=104.077026, Alt.=434.347900m. Speed=0.360000m/h.</desc>
<speed>0.100000</speed>
</trkpt>
<trkpt lat="22.012629" lon="104.077026">
<ele>434.332275</ele>
<time>2011-04-26T08:11:55Z</time>
<desc>lat.=22.012629, lon.=104.077026, Alt.=434.332275m. Speed=0.288000m/h.</desc>
<speed>0.080000</speed>
</trkpt>
<trkpt lat="22.012625" lon="104.077034">
<ele>434.316650</ele>
<time>2011-04-26T08:12:00Z</time>
<desc>lat.=22.012625, lon.=104.077034, Alt.=434.316650m. Speed=0.468000m/h.</desc>
<speed>0.130000</speed>
</trkpt>
<trkpt lat="22.012623" lon="104.077042">
<ele>434.301025</ele>
<time>2011-04-26T08:12:05Z</time>
<desc>lat.=22.012623, lon.=104.077042, Alt.=434.301025m. Speed=0.324000m/h.</desc>
<speed>0.090000</speed>
</trkpt>
<trkpt lat="22.012621" lon="104.077049">
<ele>434.254150</ele>
<time>2011-04-26T08:12:10Z</time>
<desc>lat.=22.012621, lon.=104.077049, Alt.=434.254150m. Speed=0.324000m/h.</desc>
<speed>0.090000</speed>
</trkpt>
<trkpt lat="22.012621" lon="104.077042">
<ele>434.199463</ele>
<time>2011-04-26T08:12:15Z</time>
<desc>lat.=22.012621, lon.=104.077042, Alt.=434.199463m. Speed=0.648000m/h.</desc>
<speed>0.180000</speed>
</trkpt>
<trkpt lat="22.012634" lon="104.077019">
<ele>433.988525</ele>
<time>2011-04-26T08:12:20Z</time>
<desc>lat.=22.012634, lon.=104.077019, Alt.=433.988525m. Speed=0.684000m/h.</desc>
<speed>0.190000</speed>
</trkpt>
<trkpt lat="22.012644" lon="104.077019">
<ele>433.668213</ele>
<time>2011-04-26T08:12:25Z</time>
<desc>lat.=22.012644, lon.=104.077019, Alt.=433.668213m. Speed=0.000000m/h.</desc>
<speed>0.000000</speed>
</trkpt>
<trkpt lat="22.012646" lon="104.077019">
<ele>433.621338</ele>
<time>2011-04-26T08:12:30Z</time>
<desc>lat.=22.012646, lon.=104.077019, Alt.=433.621338m. Speed=0.216000m/h.</desc>
<speed>0.060000</speed>
</trkpt>
<trkpt lat="22.012644" lon="104.077026">
<ele>433.558838</ele>
<time>2011-04-26T08:12:35Z</time>
<desc>lat.=22.012644, lon.=104.077026, Alt.=433.558838m. Speed=0.288000m/h.</desc>
<speed>0.080000</speed>
</trkpt>
<trkpt lat="22.012642" lon="104.077026">
<ele>433.441650</ele>
<time>2011-04-26T08:12:40Z</time>
<desc>lat.=22.012642, lon.=104.077026, Alt.=433.441650m. Speed=0.432000m/h.</desc>
<speed>0.120000</speed>
</trkpt>
<trkpt lat="22.012638" lon="104.077026">
<ele>433.355713</ele>
<time>2011-04-26T08:12:45Z</time>
<desc>lat.=22.012638, lon.=104.077026, Alt.=433.355713m. Speed=0.252000m/h.</desc>
<speed>0.070000</speed>
</trkpt>
<trkpt lat="22.012640" lon="104.077026">
<ele>433.285400</ele>
<time>2011-04-26T08:12:50Z</time>
<desc>lat.=22.012640, lon.=104.077026, Alt.=433.285400m. Speed=0.252000m/h.</desc>
<speed>0.070000</speed>
</trkpt>
<trkpt lat="22.012644" lon="104.077026">
<ele>433.238525</ele>
<time>2011-04-26T08:12:55Z</time>
<desc>lat.=22.012644, lon.=104.077026, Alt.=433.238525m. Speed=1.008000m/h.</desc>
<speed>0.280000</speed>
</trkpt>
<trkpt lat="22.012651" lon="104.077019">
<ele>433.152588</ele>
<time>2011-04-26T08:13:00Z</time>
<desc>lat.=22.012651, lon.=104.077019, Alt.=433.152588m. Speed=0.864000m/h.</desc>
<speed>0.240000</speed>
</trkpt>
<trkpt lat="22.012659" lon="104.077019">
<ele>433.074463</ele>
<time>2011-04-26T08:13:05Z</time>
<desc>lat.=22.012659, lon.=104.077019, Alt.=433.074463m. Speed=0.396000m/h.</desc>
<speed>0.110000</speed>
</trkpt>
<trkpt lat="22.012691" lon="104.077026">
<ele>432.465088</ele>
<time>2011-04-26T08:13:10Z</time>
<desc>lat.=22.012691, lon.=104.077026, Alt.=432.465088m. Speed=2.772000m/h.</desc>
<speed>0.770000</speed>
</trkpt>
<trkpt lat="22.012751" lon="104.077072">
<ele>431.832275</ele>
<time>2011-04-26T08:13:15Z</time>
<desc>lat.=22.012751, lon.=104.077072, Alt.=431.832275m. Speed=6.084000m/h.</desc>
<speed>1.690000</speed>
</trkpt>
<trkpt lat="22.012791" lon="104.077141">
<ele>430.535400</ele>
<time>2011-04-26T08:13:20Z</time>
<desc>lat.=22.012791, lon.=104.077141, Alt.=430.535400m. Speed=9.612000m/h.</desc>
<speed>2.670000</speed>
</trkpt>
<trkpt lat="22.012907" lon="104.077232">
<ele>429.933838</ele>
<time>2011-04-26T08:13:25Z</time>
<desc>lat.=22.012907, lon.=104.077232, Alt.=429.933838m. Speed=10.512000m/h.</desc>
<speed>2.920000</speed>
</trkpt>
<trkpt lat="22.013021" lon="104.077278">
<ele>429.324463</ele>
<time>2011-04-26T08:13:30Z</time>
<desc>lat.=22.013021, lon.=104.077278, Alt.=429.324463m. Speed=9.252000m/h.</desc>
<speed>2.570000</speed>
</trkpt>
<trkpt lat="22.013136" lon="104.077278">
<ele>428.355713</ele>
<time>2011-04-26T08:13:35Z</time>
<desc>lat.=22.013136, lon.=104.077278, Alt.=428.355713m. Speed=6.444000m/h.</desc>
<speed>1.790000</speed>
</trkpt>
<trkpt lat="22.013239" lon="104.077293">
<ele>427.386963</ele>
<time>2011-04-26T08:13:40Z</time>
<desc>lat.=22.013239, lon.=104.077293, Alt.=427.386963m. Speed=7.380000m/h.</desc>
<speed>2.050000</speed>
</trkpt>
<trkpt lat="22.013329" lon="104.077309">
<ele>423.722900</ele>
<time>2011-04-26T08:13:45Z</time>
<desc>lat.=22.013329, lon.=104.077309, Alt.=423.722900m. Speed=5.652000m/h.</desc>
<speed>1.570000</speed>
</trkpt>
<trkpt lat="22.013445" lon="104.077332">
<ele>419.480713</ele>
<time>2011-04-26T08:13:50Z</time>
<desc>lat.=22.013445, lon.=104.077332, Alt.=419.480713m. Speed=6.768000m/h.</desc>
<speed>1.880000</speed>
</trkpt>
<trkpt lat="22.013544" lon="104.077362">
<ele>417.308838</ele>
<time>2011-04-26T08:13:55Z</time>
<desc>lat.=22.013544, lon.=104.077362, Alt.=417.308838m. Speed=7.380000m/h.</desc>
<speed>2.050000</speed>
</trkpt>
<trkpt lat="22.013632" lon="104.077408">
<ele>414.222900</ele>
<time>2011-04-26T08:14:00Z</time>
<desc>lat.=22.013632, lon.=104.077408, Alt.=414.222900m. Speed=8.748000m/h.</desc>
<speed>2.430000</speed>
</trkpt>
<trkpt lat="22.013739" lon="104.077461">
<ele>412.777588</ele>
<time>2011-04-26T08:14:05Z</time>
<desc>lat.=22.013739, lon.=104.077461, Alt.=412.777588m. Speed=8.100000m/h.</desc>
<speed>2.250000</speed>
</trkpt>
<trkpt lat="22.013851" lon="104.077522">
<ele>412.090088</ele>
<time>2011-04-26T08:14:10Z</time>
<desc>lat.=22.013851, lon.=104.077522, Alt.=412.090088m. Speed=9.576000m/h.</desc>
<speed>2.660000</speed>
</trkpt>
<trkpt lat="22.013962" lon="104.077583">
<ele>411.082275</ele>
<time>2011-04-26T08:14:15Z</time>
<desc>lat.=22.013962, lon.=104.077583, Alt.=411.082275m. Speed=7.812000m/h.</desc>
<speed>2.170000</speed>
</trkpt>
<trkpt lat="22.014061" lon="104.077713">
<ele>411.246338</ele>
<time>2011-04-26T08:14:20Z</time>
<desc>lat.=22.014061, lon.=104.077713, Alt.=411.246338m. Speed=11.268000m/h.</desc>
<speed>3.130000</speed>
</trkpt>
<trkpt lat="22.014172" lon="104.077812">
<ele>410.535400</ele>
<time>2011-04-26T08:14:25Z</time>
<desc>lat.=22.014172, lon.=104.077812, Alt.=410.535400m. Speed=11.268000m/h.</desc>
<speed>3.130000</speed>
</trkpt>
<trkpt lat="22.014278" lon="104.077911">
<ele>409.910400</ele>
<time>2011-04-26T08:14:30Z</time>
<desc>lat.=22.014278, lon.=104.077911, Alt.=409.910400m. Speed=10.296000m/h.</desc>
<speed>2.860000</speed>
</trkpt>
<trkpt lat="22.014418" lon="104.077919">
<ele>408.730713</ele>
<time>2011-04-26T08:14:35Z</time>
<desc>lat.=22.014418, lon.=104.077919, Alt.=408.730713m. Speed=7.596000m/h.</desc>
<speed>2.110000</speed>
</trkpt>
<trkpt lat="22.014557" lon="104.077888">
<ele>408.527588</ele>
<time>2011-04-26T08:14:40Z</time>
<desc>lat.=22.014557, lon.=104.077888, Alt.=408.527588m. Speed=9.720000m/h.</desc>
<speed>2.700000</speed>
</trkpt>
<trkpt lat="22.014694" lon="104.077827">
<ele>408.410400</ele>
<time>2011-04-26T08:14:45Z</time>
<desc>lat.=22.014694, lon.=104.077827, Alt.=408.410400m. Speed=7.992000m/h.</desc>
<speed>2.220000</speed>
</trkpt>
<trkpt lat="22.014788" lon="104.077766">
<ele>408.582275</ele>
<time>2011-04-26T08:14:50Z</time>
<desc>lat.=22.014788, lon.=104.077766, Alt.=408.582275m. Speed=7.488000m/h.</desc>
<speed>2.080000</speed>
</trkpt>
<trkpt lat="22.014889" lon="104.077713">
<ele>409.105713</ele>
<time>2011-04-26T08:14:55Z</time>
<desc>lat.=22.014889, lon.=104.077713, Alt.=409.105713m. Speed=7.812000m/h.</desc>
<speed>2.170000</speed>
</trkpt>
<trkpt lat="22.014990" lon="104.077667">
<ele>409.504150</ele>
<time>2011-04-26T08:15:00Z</time>
<desc>lat.=22.014990, lon.=104.077667, Alt.=409.504150m. Speed=7.056000m/h.</desc>
<speed>1.960000</speed>
</trkpt>
<trkpt lat="22.015097" lon="104.077621">
<ele>409.386963</ele>
<time>2011-04-26T08:15:05Z</time>
<desc>lat.=22.015097, lon.=104.077621, Alt.=409.386963m. Speed=6.480000m/h.</desc>
<speed>1.800000</speed>
</trkpt>
<trkpt lat="22.015221" lon="104.077599">
<ele>410.277588</ele>
<time>2011-04-26T08:15:10Z</time>
<desc>lat.=22.015221, lon.=104.077599, Alt.=410.277588m. Speed=9.324000m/h.</desc>
<speed>2.590000</speed>
</trkpt>
<trkpt lat="22.015322" lon="104.077568">
<ele>410.965088</ele>
<time>2011-04-26T08:15:15Z</time>
<desc>lat.=22.015322, lon.=104.077568, Alt.=410.965088m. Speed=7.200000m/h.</desc>
<speed>2.000000</speed>
</trkpt>
<trkpt lat="22.015444" lon="104.077545">
<ele>411.824463</ele>
<time>2011-04-26T08:15:20Z</time>
<desc>lat.=22.015444, lon.=104.077545, Alt.=411.824463m. Speed=8.352000m/h.</desc>
<speed>2.320000</speed>
</trkpt>
<trkpt lat="22.015566" lon="104.077454">
<ele>412.730713</ele>
<time>2011-04-26T08:15:25Z</time>
<desc>lat.=22.015566, lon.=104.077454, Alt.=412.730713m. Speed=7.668000m/h.</desc>
<speed>2.130000</speed>
</trkpt>
<trkpt lat="22.015661" lon="104.077415">
<ele>414.918213</ele>
<time>2011-04-26T08:15:30Z</time>
<desc>lat.=22.015661, lon.=104.077415, Alt.=414.918213m. Speed=7.992000m/h.</desc>
<speed>2.220000</speed>
</trkpt>
<trkpt lat="22.015776" lon="104.077354">
<ele>416.582275</ele>
<time>2011-04-26T08:15:35Z</time>
<desc>lat.=22.015776, lon.=104.077354, Alt.=416.582275m. Speed=8.532000m/h.</desc>
<speed>2.370000</speed>
</trkpt>
<trkpt lat="22.015879" lon="104.077286">
<ele>418.418213</ele>
<time>2011-04-26T08:15:40Z</time>
<desc>lat.=22.015879, lon.=104.077286, Alt.=418.418213m. Speed=7.884000m/h.</desc>
<speed>2.190000</speed>
</trkpt>
<trkpt lat="22.016001" lon="104.077225">
<ele>420.121338</ele>
<time>2011-04-26T08:15:45Z</time>
<desc>lat.=22.016001, lon.=104.077225, Alt.=420.121338m. Speed=7.920000m/h.</desc>
<speed>2.200000</speed>
</trkpt>
<trkpt lat="22.016069" lon="104.077148">
<ele>420.144775</ele>
<time>2011-04-26T08:15:50Z</time>
<desc>lat.=22.016069, lon.=104.077148, Alt.=420.144775m. Speed=6.516000m/h.</desc>
<speed>1.810000</speed>
</trkpt>
<trkpt lat="22.016144" lon="104.077087">
<ele>420.886963</ele>
<time>2011-04-26T08:15:55Z</time>
<desc>lat.=22.016144, lon.=104.077087, Alt.=420.886963m. Speed=5.904000m/h.</desc>
<speed>1.640000</speed>
</trkpt>
<trkpt lat="22.016224" lon="104.077026">
<ele>420.347900</ele>
<time>2011-04-26T08:16:00Z</time>
<desc>lat.=22.016224, lon.=104.077026, Alt.=420.347900m. Speed=6.804000m/h.</desc>
<speed>1.890000</speed>
</trkpt>
<trkpt lat="22.016346" lon="104.076950">
<ele>421.097900</ele>
<time>2011-04-26T08:16:05Z</time>
<desc>lat.=22.016346, lon.=104.076950, Alt.=421.097900m. Speed=11.412000m/h.</desc>
<speed>3.170000</speed>
</trkpt>
<trkpt lat="22.016468" lon="104.076904">
<ele>420.605713</ele>
<time>2011-04-26T08:16:10Z</time>
<desc>lat.=22.016468, lon.=104.076904, Alt.=420.605713m. Speed=8.892000m/h.</desc>
<speed>2.470000</speed>
</trkpt>
<trkpt lat="22.016602" lon="104.076820">
<ele>420.441650</ele>
<time>2011-04-26T08:16:15Z</time>
<desc>lat.=22.016602, lon.=104.076820, Alt.=420.441650m. Speed=11.160000m/h.</desc>
<speed>3.100000</speed>
</trkpt>
<trkpt lat="22.016756" lon="104.076752">
<ele>420.957275</ele>
<time>2011-04-26T08:16:20Z</time>
<desc>lat.=22.016756, lon.=104.076752, Alt.=420.957275m. Speed=13.428000m/h.</desc>
<speed>3.730000</speed>
</trkpt>
<trkpt lat="22.016933" lon="104.076653">
<ele>420.840088</ele>
<time>2011-04-26T08:16:25Z</time>
<desc>lat.=22.016933, lon.=104.076653, Alt.=420.840088m. Speed=17.172001m/h.</desc>
<speed>4.770000</speed>
</trkpt>
<trkpt lat="22.017145" lon="104.076538">
<ele>420.340088</ele>
<time>2011-04-26T08:16:30Z</time>
<desc>lat.=22.017145, lon.=104.076538, Alt.=420.340088m. Speed=17.856001m/h.</desc>
<speed>4.960000</speed>
</trkpt>
<trkpt lat="22.017429" lon="104.076485">
<ele>419.433838</ele>
<time>2011-04-26T08:16:35Z</time>
<desc>lat.=22.017429, lon.=104.076485, Alt.=419.433838m. Speed=20.448000m/h.</desc>
<speed>5.680000</speed>
</trkpt>
<trkpt lat="22.017744" lon="104.076393">
<ele>419.668213</ele>
<time>2011-04-26T08:16:40Z</time>
<desc>lat.=22.017744, lon.=104.076393, Alt.=419.668213m. Speed=19.980000m/h.</desc>
<speed>5.550000</speed>
</trkpt>
<trkpt lat="22.018003" lon="104.076317">
<ele>420.004150</ele>
<time>2011-04-26T08:16:45Z</time>
<desc>lat.=22.018003, lon.=104.076317, Alt.=420.004150m. Speed=17.172001m/h.</desc>
<speed>4.770000</speed>
</trkpt>
<trkpt lat="22.018211" lon="104.076210">
<ele>418.808838</ele>
<time>2011-04-26T08:16:50Z</time>
<desc>lat.=22.018211, lon.=104.076210, Alt.=418.808838m. Speed=14.832000m/h.</desc>
<speed>4.120000</speed>
</trkpt>
<trkpt lat="22.018387" lon="104.076225">
<ele>417.191650</ele>
<time>2011-04-26T08:16:55Z</time>
<desc>lat.=22.018387, lon.=104.076225, Alt.=417.191650m. Speed=10.116000m/h.</desc>
<speed>2.810000</speed>
</trkpt>
<trkpt lat="22.018511" lon="104.076271">
<ele>416.074463</ele>
<time>2011-04-26T08:17:00Z</time>
<desc>lat.=22.018511, lon.=104.076271, Alt.=416.074463m. Speed=8.928000m/h.</desc>
<speed>2.480000</speed>
</trkpt>
<trkpt lat="22.018616" lon="104.076332">
<ele>415.871338</ele>
<time>2011-04-26T08:17:05Z</time>
<desc>lat.=22.018616, lon.=104.076332, Alt.=415.871338m. Speed=7.272000m/h.</desc>
<speed>2.020000</speed>
</trkpt>
<trkpt lat="22.018724" lon="104.076363">
<ele>416.590088</ele>
<time>2011-04-26T08:17:10Z</time>
<desc>lat.=22.018724, lon.=104.076363, Alt.=416.590088m. Speed=9.180000m/h.</desc>
<speed>2.550000</speed>
</trkpt>
<trkpt lat="22.018833" lon="104.076416">
<ele>417.113525</ele>
<time>2011-04-26T08:17:15Z</time>
<desc>lat.=22.018833, lon.=104.076416, Alt.=417.113525m. Speed=5.436000m/h.</desc>
<speed>1.510000</speed>
</trkpt>
<trkpt lat="22.018898" lon="104.076469">
<ele>417.254150</ele>
<time>2011-04-26T08:17:20Z</time>
<desc>lat.=22.018898, lon.=104.076469, Alt.=417.254150m. Speed=6.300000m/h.</desc>
<speed>1.750000</speed>
</trkpt>
<trkpt lat="22.018965" lon="104.076515">
<ele>416.722900</ele>
<time>2011-04-26T08:17:25Z</time>
<desc>lat.=22.018965, lon.=104.076515, Alt.=416.722900m. Speed=4.716000m/h.</desc>
<speed>1.310000</speed>
</trkpt>
<trkpt lat="22.018988" lon="104.076561">
<ele>416.949463</ele>
<time>2011-04-26T08:17:30Z</time>
<desc>lat.=22.018988, lon.=104.076561, Alt.=416.949463m. Speed=6.732000m/h.</desc>
<speed>1.870000</speed>
</trkpt>
<trkpt lat="22.019039" lon="104.076607">
<ele>416.347900</ele>
<time>2011-04-26T08:17:35Z</time>
<desc>lat.=22.019039, lon.=104.076607, Alt.=416.347900m. Speed=6.012000m/h.</desc>
<speed>1.670000</speed>
</trkpt>
<trkpt lat="22.019068" lon="104.076675">
<ele>416.152588</ele>
<time>2011-04-26T08:17:40Z</time>
<desc>lat.=22.019068, lon.=104.076675, Alt.=416.152588m. Speed=4.212000m/h.</desc>
<speed>1.170000</speed>
</trkpt>
<trkpt lat="22.019108" lon="104.076729">
<ele>416.308838</ele>
<time>2011-04-26T08:17:45Z</time>
<desc>lat.=22.019108, lon.=104.076729, Alt.=416.308838m. Speed=5.976000m/h.</desc>
<speed>1.660000</speed>
</trkpt>
<trkpt lat="22.019135" lon="104.076797">
<ele>416.246338</ele>
<time>2011-04-26T08:17:50Z</time>
<desc>lat.=22.019135, lon.=104.076797, Alt.=416.246338m. Speed=4.068000m/h.</desc>
<speed>1.130000</speed>
</trkpt>
<trkpt lat="22.019154" lon="104.076851">
<ele>415.793213</ele>
<time>2011-04-26T08:17:55Z</time>
<desc>lat.=22.019154, lon.=104.076851, Alt.=415.793213m. Speed=4.608000m/h.</desc>
<speed>1.280000</speed>
</trkpt>
<trkpt lat="22.019156" lon="104.076889">
<ele>415.957275</ele>
<time>2011-04-26T08:18:00Z</time>
<desc>lat.=22.019156, lon.=104.076889, Alt.=415.957275m. Speed=4.248000m/h.</desc>
<speed>1.180000</speed>
</trkpt>
<trkpt lat="22.019156" lon="104.076942">
<ele>415.824463</ele>
<time>2011-04-26T08:18:05Z</time>
<desc>lat.=22.019156, lon.=104.076942, Alt.=415.824463m. Speed=3.204000m/h.</desc>
<speed>0.890000</speed>
</trkpt>
<trkpt lat="22.019182" lon="104.077011">
<ele>416.051025</ele>
<time>2011-04-26T08:18:10Z</time>
<desc>lat.=22.019182, lon.=104.077011, Alt.=416.051025m. Speed=4.752000m/h.</desc>
<speed>1.320000</speed>
</trkpt>
<trkpt lat="22.019209" lon="104.077095">
<ele>415.769775</ele>
<time>2011-04-26T08:18:15Z</time>
<desc>lat.=22.019209, lon.=104.077095, Alt.=415.769775m. Speed=5.004000m/h.</desc>
<speed>1.390000</speed>
</trkpt>
<trkpt lat="22.019222" lon="104.077171">
<ele>415.605713</ele>
<time>2011-04-26T08:18:20Z</time>
<desc>lat.=22.019222, lon.=104.077171, Alt.=415.605713m. Speed=2.700000m/h.</desc>
<speed>0.750000</speed>
</trkpt>
<trkpt lat="22.019243" lon="104.077209">
<ele>415.941650</ele>
<time>2011-04-26T08:18:25Z</time>
<desc>lat.=22.019243, lon.=104.077209, Alt.=415.941650m. Speed=3.348000m/h.</desc>
<speed>0.930000</speed>
</trkpt>
<trkpt lat="22.019279" lon="104.077263">
<ele>416.816650</ele>
<time>2011-04-26T08:18:30Z</time>
<desc>lat.=22.019279, lon.=104.077263, Alt.=416.816650m. Speed=3.744000m/h.</desc>
<speed>1.040000</speed>
</trkpt>
<trkpt lat="22.019320" lon="104.077309">
<ele>417.535400</ele>
<time>2011-04-26T08:18:35Z</time>
<desc>lat.=22.019320, lon.=104.077309, Alt.=417.535400m. Speed=4.068000m/h.</desc>
<speed>1.130000</speed>
</trkpt>
<trkpt lat="22.019375" lon="104.077316">
<ele>417.746338</ele>
<time>2011-04-26T08:18:40Z</time>
<desc>lat.=22.019375, lon.=104.077316, Alt.=417.746338m. Speed=3.528000m/h.</desc>
<speed>0.980000</speed>
</trkpt>
<trkpt lat="22.019444" lon="104.077339">
<ele>417.871338</ele>
<time>2011-04-26T08:18:45Z</time>
<desc>lat.=22.019444, lon.=104.077339, Alt.=417.871338m. Speed=3.708000m/h.</desc>
<speed>1.030000</speed>
</trkpt>
<trkpt lat="22.019495" lon="104.077377">
<ele>418.527588</ele>
<time>2011-04-26T08:18:50Z</time>
<desc>lat.=22.019495, lon.=104.077377, Alt.=418.527588m. Speed=3.312000m/h.</desc>
<speed>0.920000</speed>
</trkpt>
<trkpt lat="22.019552" lon="104.077385">
<ele>419.097900</ele>
<time>2011-04-26T08:18:55Z</time>
<desc>lat.=22.019552, lon.=104.077385, Alt.=419.097900m. Speed=3.348000m/h.</desc>
<speed>0.930000</speed>
</trkpt>
<trkpt lat="22.019567" lon="104.077423">
<ele>418.910400</ele>
<time>2011-04-26T08:19:00Z</time>
<desc>lat.=22.019567, lon.=104.077423, Alt.=418.910400m. Speed=0.972000m/h.</desc>
<speed>0.270000</speed>
</trkpt>
<trkpt lat="22.019600" lon="104.077431">
<ele>418.746338</ele>
<time>2011-04-26T08:19:05Z</time>
<desc>lat.=22.019600, lon.=104.077431, Alt.=418.746338m. Speed=2.340000m/h.</desc>
<speed>0.650000</speed>
</trkpt>
<trkpt lat="22.019651" lon="104.077454">
<ele>418.636963</ele>
<time>2011-04-26T08:19:10Z</time>
<desc>lat.=22.019651, lon.=104.077454, Alt.=418.636963m. Speed=3.132000m/h.</desc>
<speed>0.870000</speed>
</trkpt>
<trkpt lat="22.019686" lon="104.077438">
<ele>418.816650</ele>
<time>2011-04-26T08:19:15Z</time>
<desc>lat.=22.019686, lon.=104.077438, Alt.=418.816650m. Speed=2.556000m/h.</desc>
<speed>0.710000</speed>
</trkpt>
<trkpt lat="22.019726" lon="104.077446">
<ele>418.418213</ele>
<time>2011-04-26T08:19:20Z</time>
<desc>lat.=22.019726, lon.=104.077446, Alt.=418.418213m. Speed=2.016000m/h.</desc>
<speed>0.560000</speed>
</trkpt>
<trkpt lat="22.019766" lon="104.077484">
<ele>418.863525</ele>
<time>2011-04-26T08:19:25Z</time>
<desc>lat.=22.019766, lon.=104.077484, Alt.=418.863525m. Speed=3.708000m/h.</desc>
<speed>1.030000</speed>
</trkpt>
<trkpt lat="22.019804" lon="104.077522">
<ele>419.144775</ele>
<time>2011-04-26T08:19:30Z</time>
<desc>lat.=22.019804, lon.=104.077522, Alt.=419.144775m. Speed=3.348000m/h.</desc>
<speed>0.930000</speed>
</trkpt>
<trkpt lat="22.019831" lon="104.077560">
<ele>419.574463</ele>
<time>2011-04-26T08:19:35Z</time>
<desc>lat.=22.019831, lon.=104.077560, Alt.=419.574463m. Speed=2.592000m/h.</desc>
<speed>0.720000</speed>
</trkpt>
<trkpt lat="22.019854" lon="104.077583">
<ele>419.871338</ele>
<time>2011-04-26T08:19:40Z</time>
<desc>lat.=22.019854, lon.=104.077583, Alt.=419.871338m. Speed=3.204000m/h.</desc>
<speed>0.890000</speed>
</trkpt>
<trkpt lat="22.019886" lon="104.077583">
<ele>419.308838</ele>
<time>2011-04-26T08:19:45Z</time>
<desc>lat.=22.019886, lon.=104.077583, Alt.=419.308838m. Speed=2.952000m/h.</desc>
<speed>0.820000</speed>
</trkpt>
<trkpt lat="22.019936" lon="104.077614">
<ele>419.066650</ele>
<time>2011-04-26T08:19:50Z</time>
<desc>lat.=22.019936, lon.=104.077614, Alt.=419.066650m. Speed=3.636000m/h.</desc>
<speed>1.010000</speed>
</trkpt>
<trkpt lat="22.019970" lon="104.077606">
<ele>419.668213</ele>
<time>2011-04-26T08:19:55Z</time>
<desc>lat.=22.019970, lon.=104.077606, Alt.=419.668213m. Speed=2.880000m/h.</desc>
<speed>0.800000</speed>
</trkpt>
<trkpt lat="22.019999" lon="104.077591">
<ele>420.746338</ele>
<time>2011-04-26T08:20:00Z</time>
<desc>lat.=22.019999, lon.=104.077591, Alt.=420.746338m. Speed=3.132000m/h.</desc>
<speed>0.870000</speed>
</trkpt>
<trkpt lat="22.020041" lon="104.077599">
<ele>421.840088</ele>
<time>2011-04-26T08:20:05Z</time>
<desc>lat.=22.020041, lon.=104.077599, Alt.=421.840088m. Speed=3.204000m/h.</desc>
<speed>0.890000</speed>
</trkpt>
<trkpt lat="22.020077" lon="104.077614">
<ele>422.769775</ele>
<time>2011-04-26T08:20:10Z</time>
<desc>lat.=22.020077, lon.=104.077614, Alt.=422.769775m. Speed=2.988000m/h.</desc>
<speed>0.830000</speed>
</trkpt>
<trkpt lat="22.020115" lon="104.077637">
<ele>423.113525</ele>
<time>2011-04-26T08:20:15Z</time>
<desc>lat.=22.020115, lon.=104.077637, Alt.=423.113525m. Speed=2.844000m/h.</desc>
<speed>0.790000</speed>
</trkpt>
<trkpt lat="22.020149" lon="104.077644">
<ele>423.730713</ele>
<time>2011-04-26T08:20:20Z</time>
<desc>lat.=22.020149, lon.=104.077644, Alt.=423.730713m. Speed=2.772000m/h.</desc>
<speed>0.770000</speed>
</trkpt>
<trkpt lat="22.020191" lon="104.077660">
<ele>424.144775</ele>
<time>2011-04-26T08:20:25Z</time>
<desc>lat.=22.020191, lon.=104.077660, Alt.=424.144775m. Speed=3.312000m/h.</desc>
<speed>0.920000</speed>
</trkpt>
<trkpt lat="22.020243" lon="104.077667">
<ele>424.636963</ele>
<time>2011-04-26T08:20:30Z</time>
<desc>lat.=22.020243, lon.=104.077667, Alt.=424.636963m. Speed=3.276000m/h.</desc>
<speed>0.910000</speed>
</trkpt>
<trkpt lat="22.020285" lon="104.077682">
<ele>425.207275</ele>
<time>2011-04-26T08:20:35Z</time>
<desc>lat.=22.020285, lon.=104.077682, Alt.=425.207275m. Speed=3.600000m/h.</desc>
<speed>1.000000</speed>
</trkpt>
<trkpt lat="22.020319" lon="104.077705">
<ele>426.058838</ele>
<time>2011-04-26T08:20:40Z</time>
<desc>lat.=22.020319, lon.=104.077705, Alt.=426.058838m. Speed=2.880000m/h.</desc>
<speed>0.800000</speed>
</trkpt>
<trkpt lat="22.020370" lon="104.077713">
<ele>427.019775</ele>
<time>2011-04-26T08:20:45Z</time>
<desc>lat.=22.020370, lon.=104.077713, Alt.=427.019775m. Speed=2.736000m/h.</desc>
<speed>0.760000</speed>
</trkpt>
<trkpt lat="22.020407" lon="104.077713">
<ele>428.316650</ele>
<time>2011-04-26T08:20:50Z</time>
<desc>lat.=22.020407, lon.=104.077713, Alt.=428.316650m. Speed=2.952000m/h.</desc>
<speed>0.820000</speed>
</trkpt>
<trkpt lat="22.020483" lon="104.077705">
<ele>429.660400</ele>
<time>2011-04-26T08:20:55Z</time>
<desc>lat.=22.020483, lon.=104.077705, Alt.=429.660400m. Speed=3.672000m/h.</desc>
<speed>1.020000</speed>
</trkpt>
<trkpt lat="22.020544" lon="104.077698">
<ele>432.902588</ele>
<time>2011-04-26T08:21:00Z</time>
<desc>lat.=22.020544, lon.=104.077698, Alt.=432.902588m. Speed=3.240000m/h.</desc>
<speed>0.900000</speed>
</trkpt>
<trkpt lat="22.020605" lon="104.077690">
<ele>432.965088</ele>
<time>2011-04-26T08:21:05Z</time>
<desc>lat.=22.020605, lon.=104.077690, Alt.=432.965088m. Speed=3.564000m/h.</desc>
<speed>0.990000</speed>
</trkpt>
<trkpt lat="22.020655" lon="104.077675">
<ele>434.660400</ele>
<time>2011-04-26T08:21:10Z</time>
<desc>lat.=22.020655, lon.=104.077675, Alt.=434.660400m. Speed=3.276000m/h.</desc>
<speed>0.910000</speed>
</trkpt>
<trkpt lat="22.020683" lon="104.077675">
<ele>435.449463</ele>
<time>2011-04-26T08:21:15Z</time>
<desc>lat.=22.020683, lon.=104.077675, Alt.=435.449463m. Speed=1.512000m/h.</desc>
<speed>0.420000</speed>
</trkpt>
<trkpt lat="22.020710" lon="104.077660">
<ele>436.613525</ele>
<time>2011-04-26T08:21:20Z</time>
<desc>lat.=22.020710, lon.=104.077660, Alt.=436.613525m. Speed=2.520000m/h.</desc>
<speed>0.700000</speed>
</trkpt>
<trkpt lat="22.020739" lon="104.077644">
<ele>438.543213</ele>
<time>2011-04-26T08:21:25Z</time>
<desc>lat.=22.020739, lon.=104.077644, Alt.=438.543213m. Speed=2.916000m/h.</desc>
<speed>0.810000</speed>
</trkpt>
<trkpt lat="22.020782" lon="104.077637">
<ele>439.972900</ele>
<time>2011-04-26T08:21:30Z</time>
<desc>lat.=22.020782, lon.=104.077637, Alt.=439.972900m. Speed=3.384000m/h.</desc>
<speed>0.940000</speed>
</trkpt>
<trkpt lat="22.020826" lon="104.077637">
<ele>440.918213</ele>
<time>2011-04-26T08:21:35Z</time>
<desc>lat.=22.020826, lon.=104.077637, Alt.=440.918213m. Speed=2.628000m/h.</desc>
<speed>0.730000</speed>
</trkpt>
<trkpt lat="22.020863" lon="104.077614">
<ele>441.808838</ele>
<time>2011-04-26T08:21:40Z</time>
<desc>lat.=22.020863, lon.=104.077614, Alt.=441.808838m. Speed=2.880000m/h.</desc>
<speed>0.800000</speed>
</trkpt>
<trkpt lat="22.020916" lon="104.077599">
<ele>442.933838</ele>
<time>2011-04-26T08:21:45Z</time>
<desc>lat.=22.020916, lon.=104.077599, Alt.=442.933838m. Speed=3.456000m/h.</desc>
<speed>0.960000</speed>
</trkpt>
<trkpt lat="22.020977" lon="104.077560">
<ele>443.004150</ele>
<time>2011-04-26T08:21:50Z</time>
<desc>lat.=22.020977, lon.=104.077560, Alt.=443.004150m. Speed=3.240000m/h.</desc>
<speed>0.900000</speed>
</trkpt>
<trkpt lat="22.021015" lon="104.077530">
<ele>443.636963</ele>
<time>2011-04-26T08:21:55Z</time>
<desc>lat.=22.021015, lon.=104.077530, Alt.=443.636963m. Speed=2.700000m/h.</desc>
<speed>0.750000</speed>
</trkpt>
<trkpt lat="22.021042" lon="104.077522">
<ele>444.371338</ele>
<time>2011-04-26T08:22:00Z</time>
<desc>lat.=22.021042, lon.=104.077522, Alt.=444.371338m. Speed=2.808000m/h.</desc>
<speed>0.780000</speed>
</trkpt>
<trkpt lat="22.021088" lon="104.077499">
<ele>444.824463</ele>
<time>2011-04-26T08:22:05Z</time>
<desc>lat.=22.021088, lon.=104.077499, Alt.=444.824463m. Speed=2.448000m/h.</desc>
<speed>0.680000</speed>
</trkpt>
<trkpt lat="22.021126" lon="104.077469">
<ele>445.293213</ele>
<time>2011-04-26T08:22:10Z</time>
<desc>lat.=22.021126, lon.=104.077469, Alt.=445.293213m. Speed=2.880000m/h.</desc>
<speed>0.800000</speed>
</trkpt>
<trkpt lat="22.021166" lon="104.077446">
<ele>445.715088</ele>
<time>2011-04-26T08:22:15Z</time>
<desc>lat.=22.021166, lon.=104.077446, Alt.=445.715088m. Speed=2.592000m/h.</desc>
<speed>0.720000</speed>
</trkpt>
<trkpt lat="22.021194" lon="104.077446">
<ele>444.621338</ele>
<time>2011-04-26T08:22:20Z</time>
<desc>lat.=22.021194, lon.=104.077446, Alt.=444.621338m. Speed=1.080000m/h.</desc>
<speed>0.300000</speed>
</trkpt>
<trkpt lat="22.021189" lon="104.077446">
<ele>444.910400</ele>
<time>2011-04-26T08:22:25Z</time>
<desc>lat.=22.021189, lon.=104.077446, Alt.=444.910400m. Speed=0.108000m/h.</desc>
<speed>0.030000</speed>
</trkpt>
<trkpt lat="22.021191" lon="104.077438">
<ele>445.574463</ele>
<time>2011-04-26T08:22:30Z</time>
<desc>lat.=22.021191, lon.=104.077438, Alt.=445.574463m. Speed=0.360000m/h.</desc>
<speed>0.100000</speed>
</trkpt>
<trkpt lat="22.021208" lon="104.077431">
<ele>446.410400</ele>
<time>2011-04-26T08:22:35Z</time>
<desc>lat.=22.021208, lon.=104.077431, Alt.=446.410400m. Speed=1.404000m/h.</desc>
<speed>0.390000</speed>
</trkpt>
<trkpt lat="22.021254" lon="104.077415">
<ele>446.832275</ele>
<time>2011-04-26T08:22:40Z</time>
<desc>lat.=22.021254, lon.=104.077415, Alt.=446.832275m. Speed=2.736000m/h.</desc>
<speed>0.760000</speed>
</trkpt>
<trkpt lat="22.021292" lon="104.077393">
<ele>447.269775</ele>
<time>2011-04-26T08:22:45Z</time>
<desc>lat.=22.021292, lon.=104.077393, Alt.=447.269775m. Speed=2.736000m/h.</desc>
<speed>0.760000</speed>
</trkpt>
<trkpt lat="22.021351" lon="104.077393">
<ele>447.691650</ele>
<time>2011-04-26T08:22:50Z</time>
<desc>lat.=22.021351, lon.=104.077393, Alt.=447.691650m. Speed=4.032000m/h.</desc>
<speed>1.120000</speed>
</trkpt>
<trkpt lat="22.021391" lon="104.077385">
<ele>448.254150</ele>
<time>2011-04-26T08:22:55Z</time>
<desc>lat.=22.021391, lon.=104.077385, Alt.=448.254150m. Speed=3.132000m/h.</desc>
<speed>0.870000</speed>
</trkpt>
<trkpt lat="22.021442" lon="104.077370">
<ele>448.918213</ele>
<time>2011-04-26T08:23:00Z</time>
<desc>lat.=22.021442, lon.=104.077370, Alt.=448.918213m. Speed=3.240000m/h.</desc>
<speed>0.900000</speed>
</trkpt>
<trkpt lat="22.021482" lon="104.077347">
<ele>448.824463</ele>
<time>2011-04-26T08:23:05Z</time>
<desc>lat.=22.021482, lon.=104.077347, Alt.=448.824463m. Speed=1.872000m/h.</desc>
<speed>0.520000</speed>
</trkpt>
<trkpt lat="22.021505" lon="104.077385">
<ele>448.793213</ele>
<time>2011-04-26T08:23:10Z</time>
<desc>lat.=22.021505, lon.=104.077385, Alt.=448.793213m. Speed=1.476000m/h.</desc>
<speed>0.410000</speed>
</trkpt>
<trkpt lat="22.021540" lon="104.077370">
<ele>449.082275</ele>
<time>2011-04-26T08:23:15Z</time>
<desc>lat.=22.021540, lon.=104.077370, Alt.=449.082275m. Speed=2.196000m/h.</desc>
<speed>0.610000</speed>
</trkpt>
<trkpt lat="22.021584" lon="104.077377">
<ele>449.386963</ele>
<time>2011-04-26T08:23:20Z</time>
<desc>lat.=22.021584, lon.=104.077377, Alt.=449.386963m. Speed=2.772000m/h.</desc>
<speed>0.770000</speed>
</trkpt>
<trkpt lat="22.021624" lon="104.077377">
<ele>450.543213</ele>
<time>2011-04-26T08:23:25Z</time>
<desc>lat.=22.021624, lon.=104.077377, Alt.=450.543213m. Speed=3.204000m/h.</desc>
<speed>0.890000</speed>
</trkpt>
<trkpt lat="22.021669" lon="104.077400">
<ele>451.230713</ele>
<time>2011-04-26T08:23:30Z</time>
<desc>lat.=22.021669, lon.=104.077400, Alt.=451.230713m. Speed=3.816000m/h.</desc>
<speed>1.060000</speed>
</trkpt>
<trkpt lat="22.021713" lon="104.077385">
<ele>452.215088</ele>
<time>2011-04-26T08:23:35Z</time>
<desc>lat.=22.021713, lon.=104.077385, Alt.=452.215088m. Speed=2.952000m/h.</desc>
<speed>0.820000</speed>
</trkpt>
<trkpt lat="22.021763" lon="104.077385">
<ele>452.543213</ele>
<time>2011-04-26T08:23:40Z</time>
<desc>lat.=22.021763, lon.=104.077385, Alt.=452.543213m. Speed=3.996000m/h.</desc>
<speed>1.110000</speed>
</trkpt>
<trkpt lat="22.021803" lon="104.077370">
<ele>452.847900</ele>
<time>2011-04-26T08:23:45Z</time>
<desc>lat.=22.021803, lon.=104.077370, Alt.=452.847900m. Speed=2.988000m/h.</desc>
<speed>0.830000</speed>
</trkpt>
<trkpt lat="22.021812" lon="104.077377">
<ele>452.222900</ele>
<time>2011-04-26T08:23:50Z</time>
<desc>lat.=22.021812, lon.=104.077377, Alt.=452.222900m. Speed=1.260000m/h.</desc>
<speed>0.350000</speed>
</trkpt>
<trkpt lat="22.021816" lon="104.077408">
<ele>452.597900</ele>
<time>2011-04-26T08:23:55Z</time>
<desc>lat.=22.021816, lon.=104.077408, Alt.=452.597900m. Speed=1.188000m/h.</desc>
<speed>0.330000</speed>
</trkpt>
<trkpt lat="22.021835" lon="104.077400">
<ele>452.371338</ele>
<time>2011-04-26T08:24:00Z</time>
<desc>lat.=22.021835, lon.=104.077400, Alt.=452.371338m. Speed=1.260000m/h.</desc>
<speed>0.350000</speed>
</trkpt>
<trkpt lat="22.021894" lon="104.077400">
<ele>452.933838</ele>
<time>2011-04-26T08:24:05Z</time>
<desc>lat.=22.021894, lon.=104.077400, Alt.=452.933838m. Speed=3.132000m/h.</desc>
<speed>0.870000</speed>
</trkpt>
<trkpt lat="22.021961" lon="104.077415">
<ele>453.738525</ele>
<time>2011-04-26T08:24:10Z</time>
<desc>lat.=22.021961, lon.=104.077415, Alt.=453.738525m. Speed=4.716000m/h.</desc>
<speed>1.310000</speed>
</trkpt>
<trkpt lat="22.022041" lon="104.077431">
<ele>454.988525</ele>
<time>2011-04-26T08:24:15Z</time>
<desc>lat.=22.022041, lon.=104.077431, Alt.=454.988525m. Speed=5.904000m/h.</desc>
<speed>1.640000</speed>
</trkpt>
<trkpt lat="22.022120" lon="104.077438">
<ele>457.027588</ele>
<time>2011-04-26T08:24:20Z</time>
<desc>lat.=22.022120, lon.=104.077438, Alt.=457.027588m. Speed=5.508000m/h.</desc>
<speed>1.530000</speed>
</trkpt>
<trkpt lat="22.022198" lon="104.077446">
<ele>457.426025</ele>
<time>2011-04-26T08:24:25Z</time>
<desc>lat.=22.022198, lon.=104.077446, Alt.=457.426025m. Speed=3.744000m/h.</desc>
<speed>1.040000</speed>
</trkpt>
<trkpt lat="22.022301" lon="104.077499">
<ele>456.801025</ele>
<time>2011-04-26T08:24:30Z</time>
<desc>lat.=22.022301, lon.=104.077499, Alt.=456.801025m. Speed=7.092000m/h.</desc>
<speed>1.970000</speed>
</trkpt>
<trkpt lat="22.022417" lon="104.077576">
<ele>458.394775</ele>
<time>2011-04-26T08:24:35Z</time>
<desc>lat.=22.022417, lon.=104.077576, Alt.=458.394775m. Speed=8.280000m/h.</desc>
<speed>2.300000</speed>
</trkpt>
<trkpt lat="22.022484" lon="104.077660">
<ele>459.394775</ele>
<time>2011-04-26T08:24:40Z</time>
<desc>lat.=22.022484, lon.=104.077660, Alt.=459.394775m. Speed=6.084000m/h.</desc>
<speed>1.690000</speed>
</trkpt>
<trkpt lat="22.022535" lon="104.077744">
<ele>460.332275</ele>
<time>2011-04-26T08:24:45Z</time>
<desc>lat.=22.022535, lon.=104.077744, Alt.=460.332275m. Speed=6.984000m/h.</desc>
<speed>1.940000</speed>
</trkpt>
<trkpt lat="22.022549" lon="104.077812">
<ele>461.176025</ele>
<time>2011-04-26T08:24:50Z</time>
<desc>lat.=22.022549, lon.=104.077812, Alt.=461.176025m. Speed=4.356000m/h.</desc>
<speed>1.210000</speed>
</trkpt>
<trkpt lat="22.022579" lon="104.077881">
<ele>462.058838</ele>
<time>2011-04-26T08:24:55Z</time>
<desc>lat.=22.022579, lon.=104.077881, Alt.=462.058838m. Speed=4.032000m/h.</desc>
<speed>1.120000</speed>
</trkpt>
<trkpt lat="22.022608" lon="104.077934">
<ele>462.902588</ele>
<time>2011-04-26T08:25:00Z</time>
<desc>lat.=22.022608, lon.=104.077934, Alt.=462.902588m. Speed=5.220000m/h.</desc>
<speed>1.450000</speed>
</trkpt>
<trkpt lat="22.022631" lon="104.078011">
<ele>462.808838</ele>
<time>2011-04-26T08:25:05Z</time>
<desc>lat.=22.022631, lon.=104.078011, Alt.=462.808838m. Speed=5.508000m/h.</desc>
<speed>1.530000</speed>
</trkpt>
<trkpt lat="22.022671" lon="104.078102">
<ele>463.465088</ele>
<time>2011-04-26T08:25:10Z</time>
<desc>lat.=22.022671, lon.=104.078102, Alt.=463.465088m. Speed=5.724000m/h.</desc>
<speed>1.590000</speed>
</trkpt>
<trkpt lat="22.022715" lon="104.078186">
<ele>463.965088</ele>
<time>2011-04-26T08:25:15Z</time>
<desc>lat.=22.022715, lon.=104.078186, Alt.=463.965088m. Speed=5.760000m/h.</desc>
<speed>1.600000</speed>
</trkpt>
<trkpt lat="22.022778" lon="104.078285">
<ele>464.644775</ele>
<time>2011-04-26T08:25:20Z</time>
<desc>lat.=22.022778, lon.=104.078285, Alt.=464.644775m. Speed=6.408000m/h.</desc>
<speed>1.780000</speed>
</trkpt>
<trkpt lat="22.022858" lon="104.078369">
<ele>465.363525</ele>
<time>2011-04-26T08:25:25Z</time>
<desc>lat.=22.022858, lon.=104.078369, Alt.=465.363525m. Speed=7.560000m/h.</desc>
<speed>2.100000</speed>
</trkpt>
<trkpt lat="22.022943" lon="104.078506">
<ele>467.340088</ele>
<time>2011-04-26T08:25:30Z</time>
<desc>lat.=22.022943, lon.=104.078506, Alt.=467.340088m. Speed=5.760000m/h.</desc>
<speed>1.600000</speed>
</trkpt>
<trkpt lat="22.023012" lon="104.078590">
<ele>467.394775</ele>
<time>2011-04-26T08:25:35Z</time>
<desc>lat.=22.023012, lon.=104.078590, Alt.=467.394775m. Speed=4.500000m/h.</desc>
<speed>1.250000</speed>
</trkpt>
<trkpt lat="22.023079" lon="104.078629">
<ele>467.582275</ele>
<time>2011-04-26T08:25:40Z</time>
<desc>lat.=22.023079, lon.=104.078629, Alt.=467.582275m. Speed=4.896000m/h.</desc>
<speed>1.360000</speed>
</trkpt>
<trkpt lat="22.023186" lon="104.078712">
<ele>468.082275</ele>
<time>2011-04-26T08:25:45Z</time>
<desc>lat.=22.023186, lon.=104.078712, Alt.=468.082275m. Speed=7.524000m/h.</desc>
<speed>2.090000</speed>
</trkpt>
<trkpt lat="22.023270" lon="104.078766">
<ele>468.566650</ele>
<time>2011-04-26T08:25:50Z</time>
<desc>lat.=22.023270, lon.=104.078766, Alt.=468.566650m. Speed=5.688000m/h.</desc>
<speed>1.580000</speed>
</trkpt>
<trkpt lat="22.023361" lon="104.078827">
<ele>468.769775</ele>
<time>2011-04-26T08:25:55Z</time>
<desc>lat.=22.023361, lon.=104.078827, Alt.=468.769775m. Speed=4.824000m/h.</desc>
<speed>1.340000</speed>
</trkpt>
<trkpt lat="22.023457" lon="104.078865">
<ele>468.316650</ele>
<time>2011-04-26T08:26:00Z</time>
<desc>lat.=22.023457, lon.=104.078865, Alt.=468.316650m. Speed=5.580000m/h.</desc>
<speed>1.550000</speed>
</trkpt>
<trkpt lat="22.023525" lon="104.078903">
<ele>469.011963</ele>
<time>2011-04-26T08:26:05Z</time>
<desc>lat.=22.023525, lon.=104.078903, Alt.=469.011963m. Speed=5.040000m/h.</desc>
<speed>1.400000</speed>
</trkpt>
<trkpt lat="22.023575" lon="104.078949">
<ele>469.933838</ele>
<time>2011-04-26T08:26:10Z</time>
<desc>lat.=22.023575, lon.=104.078949, Alt.=469.933838m. Speed=5.904000m/h.</desc>
<speed>1.640000</speed>
</trkpt>
<trkpt lat="22.023624" lon="104.079018">
<ele>470.879150</ele>
<time>2011-04-26T08:26:15Z</time>
<desc>lat.=22.023624, lon.=104.079018, Alt.=470.879150m. Speed=3.564000m/h.</desc>
<speed>0.990000</speed>
</trkpt>
<trkpt lat="22.023642" lon="104.079094">
<ele>470.996338</ele>
<time>2011-04-26T08:26:20Z</time>
<desc>lat.=22.023642, lon.=104.079094, Alt.=470.996338m. Speed=4.752000m/h.</desc>
<speed>1.320000</speed>
</trkpt>
<trkpt lat="22.023676" lon="104.079208">
<ele>470.301025</ele>
<time>2011-04-26T08:26:25Z</time>
<desc>lat.=22.023676, lon.=104.079208, Alt.=470.301025m. Speed=5.868000m/h.</desc>
<speed>1.630000</speed>
</trkpt>
<trkpt lat="22.023724" lon="104.079285">
<ele>470.965088</ele>
<time>2011-04-26T08:26:30Z</time>
<desc>lat.=22.023724, lon.=104.079285, Alt.=470.965088m. Speed=5.688000m/h.</desc>
<speed>1.580000</speed>
</trkpt>
<trkpt lat="22.023767" lon="104.079384">
<ele>470.863525</ele>
<time>2011-04-26T08:26:35Z</time>
<desc>lat.=22.023767, lon.=104.079384, Alt.=470.863525m. Speed=4.392000m/h.</desc>
<speed>1.220000</speed>
</trkpt>
<trkpt lat="22.023808" lon="104.079468">
<ele>470.597900</ele>
<time>2011-04-26T08:26:40Z</time>
<desc>lat.=22.023808, lon.=104.079468, Alt.=470.597900m. Speed=5.148000m/h.</desc>
<speed>1.430000</speed>
</trkpt>
<trkpt lat="22.023869" lon="104.079552">
<ele>469.894775</ele>
<time>2011-04-26T08:26:45Z</time>
<desc>lat.=22.023869, lon.=104.079552, Alt.=469.894775m. Speed=3.168000m/h.</desc>
<speed>0.880000</speed>
</trkpt>
<trkpt lat="22.023926" lon="104.079613">
<ele>469.144775</ele>
<time>2011-04-26T08:26:50Z</time>
<desc>lat.=22.023926, lon.=104.079613, Alt.=469.144775m. Speed=3.240000m/h.</desc>
<speed>0.900000</speed>
</trkpt>
<trkpt lat="22.023954" lon="104.079636">
<ele>469.355713</ele>
<time>2011-04-26T08:26:55Z</time>
<desc>lat.=22.023954, lon.=104.079636, Alt.=469.355713m. Speed=2.880000m/h.</desc>
<speed>0.800000</speed>
</trkpt>
<trkpt lat="22.023972" lon="104.079628">
<ele>467.902588</ele>
<time>2011-04-26T08:27:00Z</time>
<desc>lat.=22.023972, lon.=104.079628, Alt.=467.902588m. Speed=0.396000m/h.</desc>
<speed>0.110000</speed>
</trkpt>
<trkpt lat="22.023975" lon="104.079628">
<ele>467.496338</ele>
<time>2011-04-26T08:27:05Z</time>
<desc>lat.=22.023975, lon.=104.079628, Alt.=467.496338m. Speed=0.324000m/h.</desc>
<speed>0.090000</speed>
</trkpt>
<trkpt lat="22.023977" lon="104.079636">
<ele>467.121338</ele>
<time>2011-04-26T08:27:10Z</time>
<desc>lat.=22.023977, lon.=104.079636, Alt.=467.121338m. Speed=0.432000m/h.</desc>
<speed>0.120000</speed>
</trkpt>
<trkpt lat="22.023985" lon="104.079636">
<ele>466.683838</ele>
<time>2011-04-26T08:27:15Z</time>
<desc>lat.=22.023985, lon.=104.079636, Alt.=466.683838m. Speed=0.468000m/h.</desc>
<speed>0.130000</speed>
</trkpt>
<trkpt lat="22.023989" lon="104.079636">
<ele>466.269775</ele>
<time>2011-04-26T08:27:20Z</time>
<desc>lat.=22.023989, lon.=104.079636, Alt.=466.269775m. Speed=0.252000m/h.</desc>
<speed>0.070000</speed>
</trkpt>
<trkpt lat="22.023991" lon="104.079628">
<ele>465.871338</ele>
<time>2011-04-26T08:27:25Z</time>
<desc>lat.=22.023991, lon.=104.079628, Alt.=465.871338m. Speed=0.180000m/h.</desc>
<speed>0.050000</speed>
</trkpt>
<trkpt lat="22.023993" lon="104.079628">
<ele>465.535400</ele>
<time>2011-04-26T08:27:30Z</time>
<desc>lat.=22.023993, lon.=104.079628, Alt.=465.535400m. Speed=0.144000m/h.</desc>
<speed>0.040000</speed>
</trkpt>
<trkpt lat="22.023994" lon="104.079628">
<ele>465.465088</ele>
<time>2011-04-26T08:27:35Z</time>
<desc>lat.=22.023994, lon.=104.079628, Alt.=465.465088m. Speed=0.000000m/h.</desc>
<speed>0.000000</speed>
</trkpt>
<trkpt lat="22.023994" lon="104.079628">
<ele>465.488525</ele>
<time>2011-04-26T08:27:40Z</time>
<desc>lat.=22.023994, lon.=104.079628, Alt.=465.488525m. Speed=0.000000m/h.</desc>
<speed>0.000000</speed>
</trkpt>
<trkpt lat="22.023994" lon="104.079628">
<ele>465.480713</ele>
<time>2011-04-26T08:27:45Z</time>
<desc>lat.=22.023994, lon.=104.079628, Alt.=465.480713m. Speed=0.000000m/h.</desc>
<speed>0.000000</speed>
</trkpt>
<trkpt lat="22.023994" lon="104.079628">
<ele>465.480713</ele>
<time>2011-04-26T08:27:50Z</time>
<desc>lat.=22.023994, lon.=104.079628, Alt.=465.480713m. Speed=0.000000m/h.</desc>
<speed>0.000000</speed>
</trkpt>
<trkpt lat="22.023994" lon="104.079628">
<ele>465.488525</ele>
<time>2011-04-26T08:27:55Z</time>
<desc>lat.=22.023994, lon.=104.079628, Alt.=465.488525m. Speed=0.000000m/h.</desc>
<speed>0.000000</speed>
</trkpt>
<trkpt lat="22.023994" lon="104.079628">
<ele>465.488525</ele>
<time>2011-04-26T08:28:00Z</time>
<desc>lat.=22.023994, lon.=104.079628, Alt.=465.488525m. Speed=0.000000m/h.</desc>
<speed>0.000000</speed>
</trkpt>
<trkpt lat="22.023994" lon="104.079628">
<ele>465.465088</ele>
<time>2011-04-26T08:28:05Z</time>
<desc>lat.=22.023994, lon.=104.079628, Alt.=465.465088m. Speed=0.000000m/h.</desc>
<speed>0.000000</speed>
</trkpt>
<trkpt lat="22.023994" lon="104.079628">
<ele>465.449463</ele>
<time>2011-04-26T08:28:10Z</time>
<desc>lat.=22.023994, lon.=104.079628, Alt.=465.449463m. Speed=0.036000m/h.</desc>
<speed>0.010000</speed>
</trkpt>
<trkpt lat="22.023994" lon="104.079628">
<ele>465.457275</ele>
<time>2011-04-26T08:28:15Z</time>
<desc>lat.=22.023994, lon.=104.079628, Alt.=465.457275m. Speed=0.036000m/h.</desc>
<speed>0.010000</speed>
</trkpt>
<trkpt lat="22.023994" lon="104.079628">
<ele>465.449463</ele>
<time>2011-04-26T08:28:20Z</time>
<desc>lat.=22.023994, lon.=104.079628, Alt.=465.449463m. Speed=0.036000m/h.</desc>
<speed>0.010000</speed>
</trkpt>
<trkpt lat="22.023994" lon="104.079628">
<ele>465.449463</ele>
<time>2011-04-26T08:28:25Z</time>
<desc>lat.=22.023994, lon.=104.079628, Alt.=465.449463m. Speed=0.072000m/h.</desc>
<speed>0.020000</speed>
</trkpt>
<trkpt lat="22.023994" lon="104.079628">
<ele>465.457275</ele>
<time>2011-04-26T08:28:30Z</time>
<desc>lat.=22.023994, lon.=104.079628, Alt.=465.457275m. Speed=0.036000m/h.</desc>
<speed>0.010000</speed>
</trkpt>
<trkpt lat="22.023994" lon="104.079628">
<ele>465.449463</ele>
<time>2011-04-26T08:28:35Z</time>
<desc>lat.=22.023994, lon.=104.079628, Alt.=465.449463m. Speed=0.072000m/h.</desc>
<speed>0.020000</speed>
</trkpt>
<trkpt lat="22.023994" lon="104.079628">
<ele>465.426025</ele>
<time>2011-04-26T08:28:40Z</time>
<desc>lat.=22.023994, lon.=104.079628, Alt.=465.426025m. Speed=0.072000m/h.</desc>
<speed>0.020000</speed>
</trkpt>
<trkpt lat="22.023996" lon="104.079628">
<ele>465.402588</ele>
<time>2011-04-26T08:28:45Z</time>
<desc>lat.=22.023996, lon.=104.079628, Alt.=465.402588m. Speed=0.036000m/h.</desc>
<speed>0.010000</speed>
</trkpt>
<trkpt lat="22.023996" lon="104.079628">
<ele>465.379150</ele>
<time>2011-04-26T08:28:50Z</time>
<desc>lat.=22.023996, lon.=104.079628, Alt.=465.379150m. Speed=0.036000m/h.</desc>
<speed>0.010000</speed>
</trkpt>
<trkpt lat="22.023996" lon="104.079628">
<ele>465.355713</ele>
<time>2011-04-26T08:28:55Z</time>
<desc>lat.=22.023996, lon.=104.079628, Alt.=465.355713m. Speed=0.072000m/h.</desc>
<speed>0.020000</speed>
</trkpt>
<trkpt lat="22.023996" lon="104.079628">
<ele>465.371338</ele>
<time>2011-04-26T08:29:00Z</time>
<desc>lat.=22.023996, lon.=104.079628, Alt.=465.371338m. Speed=0.072000m/h.</desc>
<speed>0.020000</speed>
</trkpt>
<trkpt lat="22.023996" lon="104.079628">
<ele>465.386963</ele>
<time>2011-04-26T08:29:05Z</time>
<desc>lat.=22.023996, lon.=104.079628, Alt.=465.386963m. Speed=0.036000m/h.</desc>
<speed>0.010000</speed>
</trkpt>
<trkpt lat="22.023994" lon="104.079628">
<ele>465.433838</ele>
<time>2011-04-26T08:29:10Z</time>
<desc>lat.=22.023994, lon.=104.079628, Alt.=465.433838m. Speed=0.324000m/h.</desc>
<speed>0.090000</speed>
</trkpt>
<trkpt lat="22.023994" lon="104.079636">
<ele>465.519775</ele>
<time>2011-04-26T08:29:15Z</time>
<desc>lat.=22.023994, lon.=104.079636, Alt.=465.519775m. Speed=0.648000m/h.</desc>
<speed>0.180000</speed>
</trkpt>
<trkpt lat="22.023993" lon="104.079643">
<ele>465.668213</ele>
<time>2011-04-26T08:29:20Z</time>
<desc>lat.=22.023993, lon.=104.079643, Alt.=465.668213m. Speed=0.684000m/h.</desc>
<speed>0.190000</speed>
</trkpt>
<trkpt lat="22.023987" lon="104.079651">
<ele>465.926025</ele>
<time>2011-04-26T08:29:25Z</time>
<desc>lat.=22.023987, lon.=104.079651, Alt.=465.926025m. Speed=0.576000m/h.</desc>
<speed>0.160000</speed>
</trkpt>
<trkpt lat="22.023983" lon="104.079659">
<ele>466.277588</ele>
<time>2011-04-26T08:29:30Z</time>
<desc>lat.=22.023983, lon.=104.079659, Alt.=466.277588m. Speed=0.360000m/h.</desc>
<speed>0.100000</speed>
</trkpt>
<trkpt lat="22.023979" lon="104.079666">
<ele>466.527588</ele>
<time>2011-04-26T08:29:35Z</time>
<desc>lat.=22.023979, lon.=104.079666, Alt.=466.527588m. Speed=0.324000m/h.</desc>
<speed>0.090000</speed>
</trkpt>
<trkpt lat="22.023977" lon="104.079666">
<ele>466.652588</ele>
<time>2011-04-26T08:29:40Z</time>
<desc>lat.=22.023977, lon.=104.079666, Alt.=466.652588m. Speed=0.108000m/h.</desc>
<speed>0.030000</speed>
</trkpt>
<trkpt lat="22.023977" lon="104.079666">
<ele>466.769775</ele>
<time>2011-04-26T08:29:45Z</time>
<desc>lat.=22.023977, lon.=104.079666, Alt.=466.769775m. Speed=0.216000m/h.</desc>
<speed>0.060000</speed>
</trkpt>
<trkpt lat="22.023983" lon="104.079659">
<ele>466.871338</ele>
<time>2011-04-26T08:29:50Z</time>
<desc>lat.=22.023983, lon.=104.079659, Alt.=466.871338m. Speed=0.900000m/h.</desc>
<speed>0.250000</speed>
</trkpt>
<trkpt lat="22.023985" lon="104.079651">
<ele>466.926025</ele>
<time>2011-04-26T08:29:55Z</time>
<desc>lat.=22.023985, lon.=104.079651, Alt.=466.926025m. Speed=0.036000m/h.</desc>
<speed>0.010000</speed>
</trkpt>
<trkpt lat="22.023983" lon="104.079659">
<ele>466.996338</ele>
<time>2011-04-26T08:30:00Z</time>
<desc>lat.=22.023983, lon.=104.079659, Alt.=466.996338m. Speed=0.108000m/h.</desc>
<speed>0.030000</speed>
</trkpt>
<trkpt lat="22.023983" lon="104.079659">
<ele>467.113525</ele>
<time>2011-04-26T08:30:05Z</time>
<desc>lat.=22.023983, lon.=104.079659, Alt.=467.113525m. Speed=0.180000m/h.</desc>
<speed>0.050000</speed>
</trkpt>
<trkpt lat="22.023981" lon="104.079659">
<ele>467.136963</ele>
<time>2011-04-26T08:30:10Z</time>
<desc>lat.=22.023981, lon.=104.079659, Alt.=467.136963m. Speed=0.288000m/h.</desc>
<speed>0.080000</speed>
</trkpt>
<trkpt lat="22.023981" lon="104.079659">
<ele>467.152588</ele>
<time>2011-04-26T08:30:15Z</time>
<desc>lat.=22.023981, lon.=104.079659, Alt.=467.152588m. Speed=0.000000m/h.</desc>
<speed>0.000000</speed>
</trkpt>
<trkpt lat="22.023981" lon="104.079659">
<ele>467.168213</ele>
<time>2011-04-26T08:30:20Z</time>
<desc>lat.=22.023981, lon.=104.079659, Alt.=467.168213m. Speed=0.036000m/h.</desc>
<speed>0.010000</speed>
</trkpt>
<trkpt lat="22.023981" lon="104.079659">
<ele>467.222900</ele>
<time>2011-04-26T08:30:25Z</time>
<desc>lat.=22.023981, lon.=104.079659, Alt.=467.222900m. Speed=0.144000m/h.</desc>
<speed>0.040000</speed>
</trkpt>
<trkpt lat="22.023981" lon="104.079659">
<ele>467.246338</ele>
<time>2011-04-26T08:30:30Z</time>
<desc>lat.=22.023981, lon.=104.079659, Alt.=467.246338m. Speed=0.036000m/h.</desc>
<speed>0.010000</speed>
</trkpt>
<trkpt lat="22.023981" lon="104.079659">
<ele>467.285400</ele>
<time>2011-04-26T08:30:35Z</time>
<desc>lat.=22.023981, lon.=104.079659, Alt.=467.285400m. Speed=0.000000m/h.</desc>
<speed>0.000000</speed>
</trkpt>
<trkpt lat="22.023981" lon="104.079659">
<ele>467.308838</ele>
<time>2011-04-26T08:30:40Z</time>
<desc>lat.=22.023981, lon.=104.079659, Alt.=467.308838m. Speed=0.036000m/h.</desc>
<speed>0.010000</speed>
</trkpt>
<trkpt lat="22.023981" lon="104.079659">
<ele>467.363525</ele>
<time>2011-04-26T08:30:45Z</time>
<desc>lat.=22.023981, lon.=104.079659, Alt.=467.363525m. Speed=0.036000m/h.</desc>
<speed>0.010000</speed>
</trkpt>
<trkpt lat="22.023981" lon="104.079659">
<ele>467.410400</ele>
<time>2011-04-26T08:30:50Z</time>
<desc>lat.=22.023981, lon.=104.079659, Alt.=467.410400m. Speed=0.072000m/h.</desc>
<speed>0.020000</speed>
</trkpt>
<trkpt lat="22.023981" lon="104.079659">
<ele>467.426025</ele>
<time>2011-04-26T08:30:55Z</time>
<desc>lat.=22.023981, lon.=104.079659, Alt.=467.426025m. Speed=0.000000m/h.</desc>
<speed>0.000000</speed>
</trkpt>
<trkpt lat="22.023981" lon="104.079659">
<ele>467.457275</ele>
<time>2011-04-26T08:31:00Z</time>
<desc>lat.=22.023981, lon.=104.079659, Alt.=467.457275m. Speed=0.000000m/h.</desc>
<speed>0.000000</speed>
</trkpt>
<trkpt lat="22.023981" lon="104.079659">
<ele>467.472900</ele>
<time>2011-04-26T08:31:05Z</time>
<desc>lat.=22.023981, lon.=104.079659, Alt.=467.472900m. Speed=0.072000m/h.</desc>
<speed>0.020000</speed>
</trkpt>
<trkpt lat="22.023981" lon="104.079659">
<ele>467.488525</ele>
<time>2011-04-26T08:31:10Z</time>
<desc>lat.=22.023981, lon.=104.079659, Alt.=467.488525m. Speed=0.000000m/h.</desc>
<speed>0.000000</speed>
</trkpt>
<trkpt lat="22.023981" lon="104.079659">
<ele>467.496338</ele>
<time>2011-04-26T08:31:15Z</time>
<desc>lat.=22.023981, lon.=104.079659, Alt.=467.496338m. Speed=0.000000m/h.</desc>
<speed>0.000000</speed>
</trkpt>
<trkpt lat="22.023981" lon="104.079659">
<ele>467.504150</ele>
<time>2011-04-26T08:31:20Z</time>
<desc>lat.=22.023981, lon.=104.079659, Alt.=467.504150m. Speed=0.000000m/h.</desc>
<speed>0.000000</speed>
</trkpt>
<trkpt lat="22.023981" lon="104.079659">
<ele>467.519775</ele>
<time>2011-04-26T08:31:25Z</time>
<desc>lat.=22.023981, lon.=104.079659, Alt.=467.519775m. Speed=0.036000m/h.</desc>
<speed>0.010000</speed>
</trkpt>
<trkpt lat="22.023981" lon="104.079659">
<ele>467.511963</ele>
<time>2011-04-26T08:31:30Z</time>
<desc>lat.=22.023981, lon.=104.079659, Alt.=467.511963m. Speed=0.036000m/h.</desc>
<speed>0.010000</speed>
</trkpt>
<trkpt lat="22.023981" lon="104.079659">
<ele>467.566650</ele>
<time>2011-04-26T08:31:35Z</time>
<desc>lat.=22.023981, lon.=104.079659, Alt.=467.566650m. Speed=0.036000m/h.</desc>
<speed>0.010000</speed>
</trkpt>
<trkpt lat="22.023981" lon="104.079659">
<ele>467.676025</ele>
<time>2011-04-26T08:31:40Z</time>
<desc>lat.=22.023981, lon.=104.079659, Alt.=467.676025m. Speed=0.000000m/h.</desc>
<speed>0.000000</speed>
</trkpt>
<trkpt lat="22.023981" lon="104.079659">
<ele>467.840088</ele>
<time>2011-04-26T08:31:45Z</time>
<desc>lat.=22.023981, lon.=104.079659, Alt.=467.840088m. Speed=0.072000m/h.</desc>
<speed>0.020000</speed>
</trkpt>
<trkpt lat="22.023979" lon="104.079659">
<ele>468.090088</ele>
<time>2011-04-26T08:31:50Z</time>
<desc>lat.=22.023979, lon.=104.079659, Alt.=468.090088m. Speed=0.108000m/h.</desc>
<speed>0.030000</speed>
</trkpt>
<trkpt lat="22.023977" lon="104.079659">
<ele>468.496338</ele>
<time>2011-04-26T08:31:55Z</time>
<desc>lat.=22.023977, lon.=104.079659, Alt.=468.496338m. Speed=0.180000m/h.</desc>
<speed>0.050000</speed>
</trkpt>
<trkpt lat="22.023975" lon="104.079659">
<ele>468.980713</ele>
<time>2011-04-26T08:32:00Z</time>
<desc>lat.=22.023975, lon.=104.079659, Alt.=468.980713m. Speed=0.252000m/h.</desc>
<speed>0.070000</speed>
</trkpt>
<trkpt lat="22.023972" lon="104.079666">
<ele>469.535400</ele>
<time>2011-04-26T08:32:05Z</time>
<desc>lat.=22.023972, lon.=104.079666, Alt.=469.535400m. Speed=0.252000m/h.</desc>
<speed>0.070000</speed>
</trkpt>
<trkpt lat="22.023968" lon="104.079666">
<ele>470.121338</ele>
<time>2011-04-26T08:32:10Z</time>
<desc>lat.=22.023968, lon.=104.079666, Alt.=470.121338m. Speed=0.324000m/h.</desc>
<speed>0.090000</speed>
</trkpt>
<trkpt lat="22.023966" lon="104.079666">
<ele>470.691650</ele>
<time>2011-04-26T08:32:15Z</time>
<desc>lat.=22.023966, lon.=104.079666, Alt.=470.691650m. Speed=0.180000m/h.</desc>
<speed>0.050000</speed>
</trkpt>
<trkpt lat="22.023964" lon="104.079674">
<ele>471.191650</ele>
<time>2011-04-26T08:32:20Z</time>
<desc>lat.=22.023964, lon.=104.079674, Alt.=471.191650m. Speed=0.288000m/h.</desc>
<speed>0.080000</speed>
</trkpt>
<trkpt lat="22.023960" lon="104.079674">
<ele>471.683838</ele>
<time>2011-04-26T08:32:25Z</time>
<desc>lat.=22.023960, lon.=104.079674, Alt.=471.683838m. Speed=0.180000m/h.</desc>
<speed>0.050000</speed>
</trkpt>
<trkpt lat="22.023958" lon="104.079674">
<ele>472.144775</ele>
<time>2011-04-26T08:32:30Z</time>
<desc>lat.=22.023958, lon.=104.079674, Alt.=472.144775m. Speed=0.180000m/h.</desc>
<speed>0.050000</speed>
</trkpt>
<trkpt lat="22.023956" lon="104.079674">
<ele>472.535400</ele>
<time>2011-04-26T08:32:35Z</time>
<desc>lat.=22.023956, lon.=104.079674, Alt.=472.535400m. Speed=0.144000m/h.</desc>
<speed>0.040000</speed>
</trkpt>
<trkpt lat="22.023956" lon="104.079674">
<ele>472.847900</ele>
<time>2011-04-26T08:32:40Z</time>
<desc>lat.=22.023956, lon.=104.079674, Alt.=472.847900m. Speed=0.036000m/h.</desc>
<speed>0.010000</speed>
</trkpt>
<trkpt lat="22.023958" lon="104.079674">
<ele>473.074463</ele>
<time>2011-04-26T08:32:45Z</time>
<desc>lat.=22.023958, lon.=104.079674, Alt.=473.074463m. Speed=0.288000m/h.</desc>
<speed>0.080000</speed>
</trkpt>
<trkpt lat="22.023964" lon="104.079674">
<ele>473.293213</ele>
<time>2011-04-26T08:32:50Z</time>
<desc>lat.=22.023964, lon.=104.079674, Alt.=473.293213m. Speed=0.540000m/h.</desc>
<speed>0.150000</speed>
</trkpt>
<trkpt lat="22.023972" lon="104.079674">
<ele>473.504150</ele>
<time>2011-04-26T08:32:55Z</time>
<desc>lat.=22.023972, lon.=104.079674, Alt.=473.504150m. Speed=0.648000m/h.</desc>
<speed>0.180000</speed>
</trkpt>
<trkpt lat="22.023979" lon="104.079674">
<ele>473.707275</ele>
<time>2011-04-26T08:33:00Z</time>
<desc>lat.=22.023979, lon.=104.079674, Alt.=473.707275m. Speed=0.000000m/h.</desc>
<speed>0.000000</speed>
</trkpt>
<trkpt lat="22.023979" lon="104.079674">
<ele>473.886963</ele>
<time>2011-04-26T08:33:05Z</time>
<desc>lat.=22.023979, lon.=104.079674, Alt.=473.886963m. Speed=0.036000m/h.</desc>
<speed>0.010000</speed>
</trkpt>
<trkpt lat="22.023977" lon="104.079674">
<ele>474.113525</ele>
<time>2011-04-26T08:33:10Z</time>
<desc>lat.=22.023977, lon.=104.079674, Alt.=474.113525m. Speed=0.036000m/h.</desc>
<speed>0.010000</speed>
</trkpt>
<trkpt lat="22.023977" lon="104.079674">
<ele>474.183838</ele>
<time>2011-04-26T08:33:15Z</time>
<desc>lat.=22.023977, lon.=104.079674, Alt.=474.183838m. Speed=0.072000m/h.</desc>
<speed>0.020000</speed>
</trkpt>
<trkpt lat="22.023977" lon="104.079674">
<ele>474.191650</ele>
<time>2011-04-26T08:33:20Z</time>
<desc>lat.=22.023977, lon.=104.079674, Alt.=474.191650m. Speed=0.036000m/h.</desc>
<speed>0.010000</speed>
</trkpt>
<trkpt lat="22.023977" lon="104.079674">
<ele>474.230713</ele>
<time>2011-04-26T08:33:25Z</time>
<desc>lat.=22.023977, lon.=104.079674, Alt.=474.230713m. Speed=0.036000m/h.</desc>
<speed>0.010000</speed>
</trkpt>
<trkpt lat="22.023977" lon="104.079674">
<ele>474.246338</ele>
<time>2011-04-26T08:33:30Z</time>
<desc>lat.=22.023977, lon.=104.079674, Alt.=474.246338m. Speed=0.036000m/h.</desc>
<speed>0.010000</speed>
</trkpt>
<trkpt lat="22.023977" lon="104.079674">
<ele>474.277588</ele>
<time>2011-04-26T08:33:35Z</time>
<desc>lat.=22.023977, lon.=104.079674, Alt.=474.277588m. Speed=0.000000m/h.</desc>
<speed>0.000000</speed>
</trkpt>
<trkpt lat="22.023979" lon="104.079674">
<ele>474.301025</ele>
<time>2011-04-26T08:33:40Z</time>
<desc>lat.=22.023979, lon.=104.079674, Alt.=474.301025m. Speed=0.036000m/h.</desc>
<speed>0.010000</speed>
</trkpt>
<trkpt lat="22.023979" lon="104.079674">
<ele>474.324463</ele>
<time>2011-04-26T08:33:45Z</time>
<desc>lat.=22.023979, lon.=104.079674, Alt.=474.324463m. Speed=0.000000m/h.</desc>
<speed>0.000000</speed>
</trkpt>
<trkpt lat="22.023979" lon="104.079674">
<ele>474.355713</ele>
<time>2011-04-26T08:33:50Z</time>
<desc>lat.=22.023979, lon.=104.079674, Alt.=474.355713m. Speed=0.000000m/h.</desc>
<speed>0.000000</speed>
</trkpt>
<trkpt lat="22.023979" lon="104.079674">
<ele>474.363525</ele>
<time>2011-04-26T08:33:55Z</time>
<desc>lat.=22.023979, lon.=104.079674, Alt.=474.363525m. Speed=0.000000m/h.</desc>
<speed>0.000000</speed>
</trkpt>
<trkpt lat="22.023979" lon="104.079674">
<ele>474.363525</ele>
<time>2011-04-26T08:34:00Z</time>
<desc>lat.=22.023979, lon.=104.079674, Alt.=474.363525m. Speed=0.036000m/h.</desc>
<speed>0.010000</speed>
</trkpt>
<trkpt lat="22.023979" lon="104.079674">
<ele>474.355713</ele>
<time>2011-04-26T08:34:05Z</time>
<desc>lat.=22.023979, lon.=104.079674, Alt.=474.355713m. Speed=0.000000m/h.</desc>
<speed>0.000000</speed>
</trkpt>
<trkpt lat="22.023979" lon="104.079666">
<ele>474.363525</ele>
<time>2011-04-26T08:34:10Z</time>
<desc>lat.=22.023979, lon.=104.079666, Alt.=474.363525m. Speed=0.000000m/h.</desc>
<speed>0.000000</speed>
</trkpt>
<trkpt lat="22.023979" lon="104.079666">
<ele>474.363525</ele>
<time>2011-04-26T08:34:15Z</time>
<desc>lat.=22.023979, lon.=104.079666, Alt.=474.363525m. Speed=0.036000m/h.</desc>
<speed>0.010000</speed>
</trkpt>
<trkpt lat="22.023979" lon="104.079666">
<ele>474.316650</ele>
<time>2011-04-26T08:34:20Z</time>
<desc>lat.=22.023979, lon.=104.079666, Alt.=474.316650m. Speed=0.036000m/h.</desc>
<speed>0.010000</speed>
</trkpt>
<trkpt lat="22.023981" lon="104.079666">
<ele>474.230713</ele>
<time>2011-04-26T08:34:25Z</time>
<desc>lat.=22.023981, lon.=104.079666, Alt.=474.230713m. Speed=0.072000m/h.</desc>
<speed>0.020000</speed>
</trkpt>
<trkpt lat="22.023981" lon="104.079666">
<ele>474.066650</ele>
<time>2011-04-26T08:34:30Z</time>
<desc>lat.=22.023981, lon.=104.079666, Alt.=474.066650m. Speed=0.072000m/h.</desc>
<speed>0.020000</speed>
</trkpt>
<trkpt lat="22.023983" lon="104.079666">
<ele>473.965088</ele>
<time>2011-04-26T08:34:35Z</time>
<desc>lat.=22.023983, lon.=104.079666, Alt.=473.965088m. Speed=0.036000m/h.</desc>
<speed>0.010000</speed>
</trkpt>
<trkpt lat="22.023983" lon="104.079666">
<ele>473.949463</ele>
<time>2011-04-26T08:34:40Z</time>
<desc>lat.=22.023983, lon.=104.079666, Alt.=473.949463m. Speed=0.036000m/h.</desc>
<speed>0.010000</speed>
</trkpt>
<trkpt lat="22.023983" lon="104.079666">
<ele>473.980713</ele>
<time>2011-04-26T08:34:45Z</time>
<desc>lat.=22.023983, lon.=104.079666, Alt.=473.980713m. Speed=0.036000m/h.</desc>
<speed>0.010000</speed>
</trkpt>
<trkpt lat="22.023983" lon="104.079666">
<ele>474.043213</ele>
<time>2011-04-26T08:34:50Z</time>
<desc>lat.=22.023983, lon.=104.079666, Alt.=474.043213m. Speed=0.000000m/h.</desc>
<speed>0.000000</speed>
</trkpt>
<trkpt lat="22.023983" lon="104.079666">
<ele>474.082275</ele>
<time>2011-04-26T08:34:55Z</time>
<desc>lat.=22.023983, lon.=104.079666, Alt.=474.082275m. Speed=0.000000m/h.</desc>
<speed>0.000000</speed>
</trkpt>
<trkpt lat="22.023983" lon="104.079666">
<ele>474.105713</ele>
<time>2011-04-26T08:35:00Z</time>
<desc>lat.=22.023983, lon.=104.079666, Alt.=474.105713m. Speed=0.036000m/h.</desc>
<speed>0.010000</speed>
</trkpt>
<trkpt lat="22.023981" lon="104.079666">
<ele>474.136963</ele>
<time>2011-04-26T08:35:05Z</time>
<desc>lat.=22.023981, lon.=104.079666, Alt.=474.136963m. Speed=0.000000m/h.</desc>
<speed>0.000000</speed>
</trkpt>
<trkpt lat="22.023983" lon="104.079666">
<ele>474.160400</ele>
<time>2011-04-26T08:35:10Z</time>
<desc>lat.=22.023983, lon.=104.079666, Alt.=474.160400m. Speed=0.036000m/h.</desc>
<speed>0.010000</speed>
</trkpt>
<trkpt lat="22.023983" lon="104.079666">
<ele>474.183838</ele>
<time>2011-04-26T08:35:15Z</time>
<desc>lat.=22.023983, lon.=104.079666, Alt.=474.183838m. Speed=0.000000m/h.</desc>
<speed>0.000000</speed>
</trkpt>
<trkpt lat="22.023983" lon="104.079666">
<ele>474.222900</ele>
<time>2011-04-26T08:35:20Z</time>
<desc>lat.=22.023983, lon.=104.079666, Alt.=474.222900m. Speed=0.000000m/h.</desc>
<speed>0.000000</speed>
</trkpt>
<trkpt lat="22.023983" lon="104.079666">
<ele>474.254150</ele>
<time>2011-04-26T08:35:25Z</time>
<desc>lat.=22.023983, lon.=104.079666, Alt.=474.254150m. Speed=0.036000m/h.</desc>
<speed>0.010000</speed>
</trkpt>
<trkpt lat="22.023981" lon="104.079666">
<ele>474.277588</ele>
<time>2011-04-26T08:35:30Z</time>
<desc>lat.=22.023981, lon.=104.079666, Alt.=474.277588m. Speed=0.036000m/h.</desc>
<speed>0.010000</speed>
</trkpt>
<trkpt lat="22.023981" lon="104.079666">
<ele>474.308838</ele>
<time>2011-04-26T08:35:35Z</time>
<desc>lat.=22.023981, lon.=104.079666, Alt.=474.308838m. Speed=0.000000m/h.</desc>
<speed>0.000000</speed>
</trkpt>
<trkpt lat="22.023981" lon="104.079666">
<ele>474.332275</ele>
<time>2011-04-26T08:35:40Z</time>
<desc>lat.=22.023981, lon.=104.079666, Alt.=474.332275m. Speed=0.036000m/h.</desc>
<speed>0.010000</speed>
</trkpt>
<trkpt lat="22.023981" lon="104.079666">
<ele>474.332275</ele>
<time>2011-04-26T08:35:45Z</time>
<desc>lat.=22.023981, lon.=104.079666, Alt.=474.332275m. Speed=0.036000m/h.</desc>
<speed>0.010000</speed>
</trkpt>
<trkpt lat="22.023981" lon="104.079666">
<ele>474.332275</ele>
<time>2011-04-26T08:35:50Z</time>
<desc>lat.=22.023981, lon.=104.079666, Alt.=474.332275m. Speed=0.036000m/h.</desc>
<speed>0.010000</speed>
</trkpt>
<trkpt lat="22.023981" lon="104.079666">
<ele>474.347900</ele>
<time>2011-04-26T08:35:55Z</time>
<desc>lat.=22.023981, lon.=104.079666, Alt.=474.347900m. Speed=0.036000m/h.</desc>
<speed>0.010000</speed>
</trkpt>
<trkpt lat="22.023983" lon="104.079666">
<ele>474.340088</ele>
<time>2011-04-26T08:36:00Z</time>
<desc>lat.=22.023983, lon.=104.079666, Alt.=474.340088m. Speed=0.036000m/h.</desc>
<speed>0.010000</speed>
</trkpt>
<trkpt lat="22.023983" lon="104.079666">
<ele>474.340088</ele>
<time>2011-04-26T08:36:05Z</time>
<desc>lat.=22.023983, lon.=104.079666, Alt.=474.340088m. Speed=0.036000m/h.</desc>
<speed>0.010000</speed>
</trkpt>
<trkpt lat="22.023983" lon="104.079666">
<ele>474.332275</ele>
<time>2011-04-26T08:36:10Z</time>
<desc>lat.=22.023983, lon.=104.079666, Alt.=474.332275m. Speed=0.036000m/h.</desc>
<speed>0.010000</speed>
</trkpt>
<trkpt lat="22.023983" lon="104.079666">
<ele>474.324463</ele>
<time>2011-04-26T08:36:15Z</time>
<desc>lat.=22.023983, lon.=104.079666, Alt.=474.324463m. Speed=0.000000m/h.</desc>
<speed>0.000000</speed>
</trkpt>
<trkpt lat="22.023983" lon="104.079666">
<ele>474.324463</ele>
<time>2011-04-26T08:36:20Z</time>
<desc>lat.=22.023983, lon.=104.079666, Alt.=474.324463m. Speed=0.000000m/h.</desc>
<speed>0.000000</speed>
</trkpt>
<trkpt lat="22.023983" lon="104.079666">
<ele>474.316650</ele>
<time>2011-04-26T08:36:25Z</time>
<desc>lat.=22.023983, lon.=104.079666, Alt.=474.316650m. Speed=0.000000m/h.</desc>
<speed>0.000000</speed>
</trkpt>
<trkpt lat="22.023983" lon="104.079666">
<ele>474.308838</ele>
<time>2011-04-26T08:36:30Z</time>
<desc>lat.=22.023983, lon.=104.079666, Alt.=474.308838m. Speed=0.000000m/h.</desc>
<speed>0.000000</speed>
</trkpt>
<trkpt lat="22.023983" lon="104.079666">
<ele>474.301025</ele>
<time>2011-04-26T08:36:35Z</time>
<desc>lat.=22.023983, lon.=104.079666, Alt.=474.301025m. Speed=0.036000m/h.</desc>
<speed>0.010000</speed>
</trkpt>
<trkpt lat="22.023983" lon="104.079666">
<ele>474.308838</ele>
<time>2011-04-26T08:36:40Z</time>
<desc>lat.=22.023983, lon.=104.079666, Alt.=474.308838m. Speed=0.036000m/h.</desc>
<speed>0.010000</speed>
</trkpt>
<trkpt lat="22.023983" lon="104.079666">
<ele>474.301025</ele>
<time>2011-04-26T08:36:45Z</time>
<desc>lat.=22.023983, lon.=104.079666, Alt.=474.301025m. Speed=0.036000m/h.</desc>
<speed>0.010000</speed>
</trkpt>
<trkpt lat="22.023983" lon="104.079666">
<ele>474.277588</ele>
<time>2011-04-26T08:36:50Z</time>
<desc>lat.=22.023983, lon.=104.079666, Alt.=474.277588m. Speed=0.036000m/h.</desc>
<speed>0.010000</speed>
</trkpt>
<trkpt lat="22.023983" lon="104.079666">
<ele>474.230713</ele>
<time>2011-04-26T08:36:55Z</time>
<desc>lat.=22.023983, lon.=104.079666, Alt.=474.230713m. Speed=0.000000m/h.</desc>
<speed>0.000000</speed>
</trkpt>
<trkpt lat="22.023983" lon="104.079666">
<ele>474.191650</ele>
<time>2011-04-26T08:37:00Z</time>
<desc>lat.=22.023983, lon.=104.079666, Alt.=474.191650m. Speed=0.036000m/h.</desc>
<speed>0.010000</speed>
</trkpt>
<trkpt lat="22.023983" lon="104.079666">
<ele>474.191650</ele>
<time>2011-04-26T08:37:05Z</time>
<desc>lat.=22.023983, lon.=104.079666, Alt.=474.191650m. Speed=0.000000m/h.</desc>
<speed>0.000000</speed>
</trkpt>
<trkpt lat="22.023983" lon="104.079666">
<ele>474.191650</ele>
<time>2011-04-26T08:37:10Z</time>
<desc>lat.=22.023983, lon.=104.079666, Alt.=474.191650m. Speed=0.000000m/h.</desc>
<speed>0.000000</speed>
</trkpt>
<trkpt lat="22.023983" lon="104.079666">
<ele>474.238525</ele>
<time>2011-04-26T08:37:15Z</time>
<desc>lat.=22.023983, lon.=104.079666, Alt.=474.238525m. Speed=0.000000m/h.</desc>
<speed>0.000000</speed>
</trkpt>
<trkpt lat="22.023983" lon="104.079666">
<ele>474.316650</ele>
<time>2011-04-26T08:37:20Z</time>
<desc>lat.=22.023983, lon.=104.079666, Alt.=474.316650m. Speed=0.000000m/h.</desc>
<speed>0.000000</speed>
</trkpt>
<trkpt lat="22.023983" lon="104.079666">
<ele>474.418213</ele>
<time>2011-04-26T08:37:25Z</time>
<desc>lat.=22.023983, lon.=104.079666, Alt.=474.418213m. Speed=0.000000m/h.</desc>
<speed>0.000000</speed>
</trkpt>
<trkpt lat="22.023983" lon="104.079666">
<ele>474.511963</ele>
<time>2011-04-26T08:37:30Z</time>
<desc>lat.=22.023983, lon.=104.079666, Alt.=474.511963m. Speed=0.000000m/h.</desc>
<speed>0.000000</speed>
</trkpt>
<trkpt lat="22.023983" lon="104.079666">
<ele>474.597900</ele>
<time>2011-04-26T08:37:35Z</time>
<desc>lat.=22.023983, lon.=104.079666, Alt.=474.597900m. Speed=0.144000m/h.</desc>
<speed>0.040000</speed>
</trkpt>
<trkpt lat="22.023987" lon="104.079666">
<ele>474.597900</ele>
<time>2011-04-26T08:37:40Z</time>
<desc>lat.=22.023987, lon.=104.079666, Alt.=474.597900m. Speed=0.396000m/h.</desc>
<speed>0.110000</speed>
</trkpt>
<trkpt lat="22.023991" lon="104.079659">
<ele>474.558838</ele>
<time>2011-04-26T08:37:45Z</time>
<desc>lat.=22.023991, lon.=104.079659, Alt.=474.558838m. Speed=0.252000m/h.</desc>
<speed>0.070000</speed>
</trkpt>
<trkpt lat="22.023994" lon="104.079659">
<ele>474.504150</ele>
<time>2011-04-26T08:37:50Z</time>
<desc>lat.=22.023994, lon.=104.079659, Alt.=474.504150m. Speed=0.108000m/h.</desc>
<speed>0.030000</speed>
</trkpt>
<trkpt lat="22.023996" lon="104.079659">
<ele>474.480713</ele>
<time>2011-04-26T08:37:55Z</time>
<desc>lat.=22.023996, lon.=104.079659, Alt.=474.480713m. Speed=0.252000m/h.</desc>
<speed>0.070000</speed>
</trkpt>
<trkpt lat="22.023998" lon="104.079659">
<ele>474.504150</ele>
<time>2011-04-26T08:38:00Z</time>
<desc>lat.=22.023998, lon.=104.079659, Alt.=474.504150m. Speed=0.036000m/h.</desc>
<speed>0.010000</speed>
</trkpt>
<trkpt lat="22.023998" lon="104.079659">
<ele>474.535400</ele>
<time>2011-04-26T08:38:05Z</time>
<desc>lat.=22.023998, lon.=104.079659, Alt.=474.535400m. Speed=0.036000m/h.</desc>
<speed>0.010000</speed>
</trkpt>
<trkpt lat="22.023998" lon="104.079659">
<ele>474.551025</ele>
<time>2011-04-26T08:38:10Z</time>
<desc>lat.=22.023998, lon.=104.079659, Alt.=474.551025m. Speed=0.036000m/h.</desc>
<speed>0.010000</speed>
</trkpt>
<trkpt lat="22.023998" lon="104.079659">
<ele>474.574463</ele>
<time>2011-04-26T08:38:15Z</time>
<desc>lat.=22.023998, lon.=104.079659, Alt.=474.574463m. Speed=0.000000m/h.</desc>
<speed>0.000000</speed>
</trkpt>
<trkpt lat="22.023998" lon="104.079659">
<ele>474.636963</ele>
<time>2011-04-26T08:38:20Z</time>
<desc>lat.=22.023998, lon.=104.079659, Alt.=474.636963m. Speed=0.000000m/h.</desc>
<speed>0.000000</speed>
</trkpt>
<trkpt lat="22.023998" lon="104.079659">
<ele>474.668213</ele>
<time>2011-04-26T08:38:25Z</time>
<desc>lat.=22.023998, lon.=104.079659, Alt.=474.668213m. Speed=0.000000m/h.</desc>
<speed>0.000000</speed>
</trkpt>
<trkpt lat="22.023998" lon="104.079659">
<ele>474.699463</ele>
<time>2011-04-26T08:38:30Z</time>
<desc>lat.=22.023998, lon.=104.079659, Alt.=474.699463m. Speed=0.000000m/h.</desc>
<speed>0.000000</speed>
</trkpt>
<trkpt lat="22.023998" lon="104.079659">
<ele>474.722900</ele>
<time>2011-04-26T08:38:35Z</time>
<desc>lat.=22.023998, lon.=104.079659, Alt.=474.722900m. Speed=0.036000m/h.</desc>
<speed>0.010000</speed>
</trkpt>
<trkpt lat="22.023998" lon="104.079659">
<ele>474.746338</ele>
<time>2011-04-26T08:38:40Z</time>
<desc>lat.=22.023998, lon.=104.079659, Alt.=474.746338m. Speed=0.000000m/h.</desc>
<speed>0.000000</speed>
</trkpt>
<trkpt lat="22.023998" lon="104.079659">
<ele>474.769775</ele>
<time>2011-04-26T08:38:45Z</time>
<desc>lat.=22.023998, lon.=104.079659, Alt.=474.769775m. Speed=0.000000m/h.</desc>
<speed>0.000000</speed>
</trkpt>
<trkpt lat="22.023998" lon="104.079659">
<ele>474.801025</ele>
<time>2011-04-26T08:38:50Z</time>
<desc>lat.=22.023998, lon.=104.079659, Alt.=474.801025m. Speed=0.000000m/h.</desc>
<speed>0.000000</speed>
</trkpt>
<trkpt lat="22.023998" lon="104.079659">
<ele>474.824463</ele>
<time>2011-04-26T08:38:55Z</time>
<desc>lat.=22.023998, lon.=104.079659, Alt.=474.824463m. Speed=0.036000m/h.</desc>
<speed>0.010000</speed>
</trkpt>
<trkpt lat="22.023998" lon="104.079659">
<ele>474.863525</ele>
<time>2011-04-26T08:39:00Z</time>
<desc>lat.=22.023998, lon.=104.079659, Alt.=474.863525m. Speed=0.000000m/h.</desc>
<speed>0.000000</speed>
</trkpt>
<trkpt lat="22.023998" lon="104.079659">
<ele>474.894775</ele>
<time>2011-04-26T08:39:05Z</time>
<desc>lat.=22.023998, lon.=104.079659, Alt.=474.894775m. Speed=0.072000m/h.</desc>
<speed>0.020000</speed>
</trkpt>
<trkpt lat="22.023998" lon="104.079659">
<ele>474.918213</ele>
<time>2011-04-26T08:39:10Z</time>
<desc>lat.=22.023998, lon.=104.079659, Alt.=474.918213m. Speed=0.000000m/h.</desc>
<speed>0.000000</speed>
</trkpt>
<trkpt lat="22.023998" lon="104.079659">
<ele>474.949463</ele>
<time>2011-04-26T08:39:15Z</time>
<desc>lat.=22.023998, lon.=104.079659, Alt.=474.949463m. Speed=0.000000m/h.</desc>
<speed>0.000000</speed>
</trkpt>
<trkpt lat="22.023998" lon="104.079659">
<ele>474.980713</ele>
<time>2011-04-26T08:39:20Z</time>
<desc>lat.=22.023998, lon.=104.079659, Alt.=474.980713m. Speed=0.000000m/h.</desc>
<speed>0.000000</speed>
</trkpt>
<trkpt lat="22.023998" lon="104.079659">
<ele>475.004150</ele>
<time>2011-04-26T08:39:25Z</time>
<desc>lat.=22.023998, lon.=104.079659, Alt.=475.004150m. Speed=0.000000m/h.</desc>
<speed>0.000000</speed>
</trkpt>
<trkpt lat="22.023998" lon="104.079659">
<ele>475.043213</ele>
<time>2011-04-26T08:39:30Z</time>
<desc>lat.=22.023998, lon.=104.079659, Alt.=475.043213m. Speed=0.000000m/h.</desc>
<speed>0.000000</speed>
</trkpt>
<trkpt lat="22.023998" lon="104.079659">
<ele>475.105713</ele>
<time>2011-04-26T08:39:35Z</time>
<desc>lat.=22.023998, lon.=104.079659, Alt.=475.105713m. Speed=0.000000m/h.</desc>
<speed>0.000000</speed>
</trkpt>
<trkpt lat="22.023998" lon="104.079659">
<ele>475.160400</ele>
<time>2011-04-26T08:39:40Z</time>
<desc>lat.=22.023998, lon.=104.079659, Alt.=475.160400m. Speed=0.000000m/h.</desc>
<speed>0.000000</speed>
</trkpt>
<trkpt lat="22.023998" lon="104.079659">
<ele>475.207275</ele>
<time>2011-04-26T08:39:45Z</time>
<desc>lat.=22.023998, lon.=104.079659, Alt.=475.207275m. Speed=0.000000m/h.</desc>
<speed>0.000000</speed>
</trkpt>
<trkpt lat="22.023998" lon="104.079659">
<ele>475.277588</ele>
<time>2011-04-26T08:39:50Z</time>
<desc>lat.=22.023998, lon.=104.079659, Alt.=475.277588m. Speed=0.000000m/h.</desc>
<speed>0.000000</speed>
</trkpt>
<trkpt lat="22.023998" lon="104.079659">
<ele>475.363525</ele>
<time>2011-04-26T08:39:55Z</time>
<desc>lat.=22.023998, lon.=104.079659, Alt.=475.363525m. Speed=0.000000m/h.</desc>
<speed>0.000000</speed>
</trkpt>
<trkpt lat="22.023998" lon="104.079659">
<ele>475.410400</ele>
<time>2011-04-26T08:40:00Z</time>
<desc>lat.=22.023998, lon.=104.079659, Alt.=475.410400m. Speed=0.036000m/h.</desc>
<speed>0.010000</speed>
</trkpt>
<trkpt lat="22.023998" lon="104.079659">
<ele>475.457275</ele>
<time>2011-04-26T08:40:05Z</time>
<desc>lat.=22.023998, lon.=104.079659, Alt.=475.457275m. Speed=0.000000m/h.</desc>
<speed>0.000000</speed>
</trkpt>
<trkpt lat="22.023998" lon="104.079659">
<ele>475.488525</ele>
<time>2011-04-26T08:40:10Z</time>
<desc>lat.=22.023998, lon.=104.079659, Alt.=475.488525m. Speed=0.036000m/h.</desc>
<speed>0.010000</speed>
</trkpt>
<trkpt lat="22.023998" lon="104.079659">
<ele>475.496338</ele>
<time>2011-04-26T08:40:15Z</time>
<desc>lat.=22.023998, lon.=104.079659, Alt.=475.496338m. Speed=0.180000m/h.</desc>
<speed>0.050000</speed>
</trkpt>
<trkpt lat="22.024002" lon="104.079659">
<ele>475.574463</ele>
<time>2011-04-26T08:40:20Z</time>
<desc>lat.=22.024002, lon.=104.079659, Alt.=475.574463m. Speed=0.216000m/h.</desc>
<speed>0.060000</speed>
</trkpt>
<trkpt lat="22.024004" lon="104.079659">
<ele>475.707275</ele>
<time>2011-04-26T08:40:25Z</time>
<desc>lat.=22.024004, lon.=104.079659, Alt.=475.707275m. Speed=0.252000m/h.</desc>
<speed>0.070000</speed>
</trkpt>
<trkpt lat="22.024008" lon="104.079659">
<ele>475.855713</ele>
<time>2011-04-26T08:40:30Z</time>
<desc>lat.=22.024008, lon.=104.079659, Alt.=475.855713m. Speed=0.288000m/h.</desc>
<speed>0.080000</speed>
</trkpt>
<trkpt lat="22.024014" lon="104.079659">
<ele>476.035400</ele>
<time>2011-04-26T08:40:35Z</time>
<desc>lat.=22.024014, lon.=104.079659, Alt.=476.035400m. Speed=0.432000m/h.</desc>
<speed>0.120000</speed>
</trkpt>
<trkpt lat="22.024019" lon="104.079659">
<ele>476.293213</ele>
<time>2011-04-26T08:40:40Z</time>
<desc>lat.=22.024019, lon.=104.079659, Alt.=476.293213m. Speed=0.396000m/h.</desc>
<speed>0.110000</speed>
</trkpt>
<trkpt lat="22.024023" lon="104.079659">
<ele>476.629150</ele>
<time>2011-04-26T08:40:45Z</time>
<desc>lat.=22.024023, lon.=104.079659, Alt.=476.629150m. Speed=0.252000m/h.</desc>
<speed>0.070000</speed>
</trkpt>
<trkpt lat="22.024025" lon="104.079659">
<ele>477.058838</ele>
<time>2011-04-26T08:40:50Z</time>
<desc>lat.=22.024025, lon.=104.079659, Alt.=477.058838m. Speed=0.216000m/h.</desc>
<speed>0.060000</speed>
</trkpt>
<trkpt lat="22.024029" lon="104.079659">
<ele>477.574463</ele>
<time>2011-04-26T08:40:55Z</time>
<desc>lat.=22.024029, lon.=104.079659, Alt.=477.574463m. Speed=0.180000m/h.</desc>
<speed>0.050000</speed>
</trkpt>
<trkpt lat="22.024027" lon="104.079659">
<ele>478.121338</ele>
<time>2011-04-26T08:41:00Z</time>
<desc>lat.=22.024027, lon.=104.079659, Alt.=478.121338m. Speed=0.216000m/h.</desc>
<speed>0.060000</speed>
</trkpt>
<trkpt lat="22.024023" lon="104.079666">
<ele>478.699463</ele>
<time>2011-04-26T08:41:05Z</time>
<desc>lat.=22.024023, lon.=104.079666, Alt.=478.699463m. Speed=0.180000m/h.</desc>
<speed>0.050000</speed>
</trkpt>
<trkpt lat="22.024021" lon="104.079666">
<ele>479.285400</ele>
<time>2011-04-26T08:41:10Z</time>
<desc>lat.=22.024021, lon.=104.079666, Alt.=479.285400m. Speed=0.216000m/h.</desc>
<speed>0.060000</speed>
</trkpt>
<trkpt lat="22.024019" lon="104.079666">
<ele>479.879150</ele>
<time>2011-04-26T08:41:15Z</time>
<desc>lat.=22.024019, lon.=104.079666, Alt.=479.879150m. Speed=0.252000m/h.</desc>
<speed>0.070000</speed>
</trkpt>
<trkpt lat="22.024017" lon="104.079666">
<ele>480.472900</ele>
<time>2011-04-26T08:41:20Z</time>
<desc>lat.=22.024017, lon.=104.079666, Alt.=480.472900m. Speed=0.216000m/h.</desc>
<speed>0.060000</speed>
</trkpt>
<trkpt lat="22.024014" lon="104.079674">
<ele>481.082275</ele>
<time>2011-04-26T08:41:25Z</time>
<desc>lat.=22.024014, lon.=104.079674, Alt.=481.082275m. Speed=0.252000m/h.</desc>
<speed>0.070000</speed>
</trkpt>
<trkpt lat="22.024012" lon="104.079674">
<ele>481.668213</ele>
<time>2011-04-26T08:41:30Z</time>
<desc>lat.=22.024012, lon.=104.079674, Alt.=481.668213m. Speed=0.216000m/h.</desc>
<speed>0.060000</speed>
</trkpt>
<trkpt lat="22.024010" lon="104.079674">
<ele>482.160400</ele>
<time>2011-04-26T08:41:35Z</time>
<desc>lat.=22.024010, lon.=104.079674, Alt.=482.160400m. Speed=0.216000m/h.</desc>
<speed>0.060000</speed>
</trkpt>
<trkpt lat="22.024008" lon="104.079674">
<ele>482.597900</ele>
<time>2011-04-26T08:41:40Z</time>
<desc>lat.=22.024008, lon.=104.079674, Alt.=482.597900m. Speed=0.144000m/h.</desc>
<speed>0.040000</speed>
</trkpt>
<trkpt lat="22.024008" lon="104.079674">
<ele>483.004150</ele>
<time>2011-04-26T08:41:45Z</time>
<desc>lat.=22.024008, lon.=104.079674, Alt.=483.004150m. Speed=0.252000m/h.</desc>
<speed>0.070000</speed>
</trkpt>
<trkpt lat="22.024008" lon="104.079674">
<ele>483.418213</ele>
<time>2011-04-26T08:41:50Z</time>
<desc>lat.=22.024008, lon.=104.079674, Alt.=483.418213m. Speed=0.144000m/h.</desc>
<speed>0.040000</speed>
</trkpt>
<trkpt lat="22.024006" lon="104.079681">
<ele>483.832275</ele>
<time>2011-04-26T08:41:55Z</time>
<desc>lat.=22.024006, lon.=104.079681, Alt.=483.832275m. Speed=0.108000m/h.</desc>
<speed>0.030000</speed>
</trkpt>
<trkpt lat="22.024008" lon="104.079681">
<ele>484.199463</ele>
<time>2011-04-26T08:42:00Z</time>
<desc>lat.=22.024008, lon.=104.079681, Alt.=484.199463m. Speed=0.108000m/h.</desc>
<speed>0.030000</speed>
</trkpt>
<trkpt lat="22.024008" lon="104.079681">
<ele>484.511963</ele>
<time>2011-04-26T08:42:05Z</time>
<desc>lat.=22.024008, lon.=104.079681, Alt.=484.511963m. Speed=0.072000m/h.</desc>
<speed>0.020000</speed>
</trkpt>
<trkpt lat="22.024006" lon="104.079681">
<ele>484.832275</ele>
<time>2011-04-26T08:42:10Z</time>
<desc>lat.=22.024006, lon.=104.079681, Alt.=484.832275m. Speed=0.324000m/h.</desc>
<speed>0.090000</speed>
</trkpt>
<trkpt lat="22.024004" lon="104.079689">
<ele>485.144775</ele>
<time>2011-04-26T08:42:15Z</time>
<desc>lat.=22.024004, lon.=104.079689, Alt.=485.144775m. Speed=1.008000m/h.</desc>
<speed>0.280000</speed>
</trkpt>
<trkpt lat="22.024008" lon="104.079727">
<ele>485.418213</ele>
<time>2011-04-26T08:42:20Z</time>
<desc>lat.=22.024008, lon.=104.079727, Alt.=485.418213m. Speed=1.908000m/h.</desc>
<speed>0.530000</speed>
</trkpt>
<trkpt lat="22.024029" lon="104.079773">
<ele>485.652588</ele>
<time>2011-04-26T08:42:25Z</time>
<desc>lat.=22.024029, lon.=104.079773, Alt.=485.652588m. Speed=2.592000m/h.</desc>
<speed>0.720000</speed>
</trkpt>
<trkpt lat="22.024130" lon="104.079926">
<ele>485.847900</ele>
<time>2011-04-26T08:42:30Z</time>
<desc>lat.=22.024130, lon.=104.079926, Alt.=485.847900m. Speed=15.768000m/h.</desc>
<speed>4.380000</speed>
</trkpt>
<trkpt lat="22.024254" lon="104.080261">
<ele>484.933838</ele>
<time>2011-04-26T08:42:35Z</time>
<desc>lat.=22.024254, lon.=104.080261, Alt.=484.933838m. Speed=14.796000m/h.</desc>
<speed>4.110000</speed>
</trkpt>
<trkpt lat="22.024387" lon="104.080429">
<ele>484.582275</ele>
<time>2011-04-26T08:42:40Z</time>
<desc>lat.=22.024387, lon.=104.080429, Alt.=484.582275m. Speed=10.296000m/h.</desc>
<speed>2.860000</speed>
</trkpt>
<trkpt lat="22.024599" lon="104.080544">
<ele>484.277588</ele>
<time>2011-04-26T08:42:45Z</time>
<desc>lat.=22.024599, lon.=104.080544, Alt.=484.277588m. Speed=12.564000m/h.</desc>
<speed>3.490000</speed>
</trkpt>
<trkpt lat="22.024761" lon="104.080658">
<ele>484.480713</ele>
<time>2011-04-26T08:42:50Z</time>
<desc>lat.=22.024761, lon.=104.080658, Alt.=484.480713m. Speed=9.864000m/h.</desc>
<speed>2.740000</speed>
</trkpt>
<trkpt lat="22.024889" lon="104.080818">
<ele>485.222900</ele>
<time>2011-04-26T08:42:55Z</time>
<desc>lat.=22.024889, lon.=104.080818, Alt.=485.222900m. Speed=12.060000m/h.</desc>
<speed>3.350000</speed>
</trkpt>
<trkpt lat="22.024975" lon="104.081009">
<ele>485.957275</ele>
<time>2011-04-26T08:43:00Z</time>
<desc>lat.=22.024975, lon.=104.081009, Alt.=485.957275m. Speed=10.188000m/h.</desc>
<speed>2.830000</speed>
</trkpt>
<trkpt lat="22.025034" lon="104.081184">
<ele>485.824463</ele>
<time>2011-04-26T08:43:05Z</time>
<desc>lat.=22.025034, lon.=104.081184, Alt.=485.824463m. Speed=11.592000m/h.</desc>
<speed>3.220000</speed>
</trkpt>
<trkpt lat="22.025084" lon="104.081383">
<ele>486.168213</ele>
<time>2011-04-26T08:43:10Z</time>
<desc>lat.=22.025084, lon.=104.081383, Alt.=486.168213m. Speed=14.580000m/h.</desc>
<speed>4.050000</speed>
</trkpt>
<trkpt lat="22.025211" lon="104.081543">
<ele>486.246338</ele>
<time>2011-04-26T08:43:15Z</time>
<desc>lat.=22.025211, lon.=104.081543, Alt.=486.246338m. Speed=11.376000m/h.</desc>
<speed>3.160000</speed>
</trkpt>
<trkpt lat="22.025431" lon="104.081612">
<ele>486.457275</ele>
<time>2011-04-26T08:43:20Z</time>
<desc>lat.=22.025431, lon.=104.081612, Alt.=486.457275m. Speed=18.827999m/h.</desc>
<speed>5.230000</speed>
</trkpt>
<trkpt lat="22.025711" lon="104.081589">
<ele>486.160400</ele>
<time>2011-04-26T08:43:25Z</time>
<desc>lat.=22.025711, lon.=104.081589, Alt.=486.160400m. Speed=23.364000m/h.</desc>
<speed>6.490000</speed>
</trkpt>
<trkpt lat="22.025993" lon="104.081459">
<ele>485.543213</ele>
<time>2011-04-26T08:43:30Z</time>
<desc>lat.=22.025993, lon.=104.081459, Alt.=485.543213m. Speed=21.636000m/h.</desc>
<speed>6.010000</speed>
</trkpt>
<trkpt lat="22.026270" lon="104.081444">
<ele>485.105713</ele>
<time>2011-04-26T08:43:35Z</time>
<desc>lat.=22.026270, lon.=104.081444, Alt.=485.105713m. Speed=18.252001m/h.</desc>
<speed>5.070000</speed>
</trkpt>
<trkpt lat="22.026569" lon="104.081558">
<ele>485.043213</ele>
<time>2011-04-26T08:43:40Z</time>
<desc>lat.=22.026569, lon.=104.081558, Alt.=485.043213m. Speed=21.851999m/h.</desc>
<speed>6.070000</speed>
</trkpt>
<trkpt lat="22.026842" lon="104.081421">
<ele>485.168213</ele>
<time>2011-04-26T08:43:45Z</time>
<desc>lat.=22.026842, lon.=104.081421, Alt.=485.168213m. Speed=18.540001m/h.</desc>
<speed>5.150000</speed>
</trkpt>
<trkpt lat="22.026958" lon="104.081123">
<ele>484.027588</ele>
<time>2011-04-26T08:43:50Z</time>
<desc>lat.=22.026958, lon.=104.081123, Alt.=484.027588m. Speed=22.860001m/h.</desc>
<speed>6.350000</speed>
</trkpt>
<trkpt lat="22.026987" lon="104.080811">
<ele>482.316650</ele>
<time>2011-04-26T08:43:55Z</time>
<desc>lat.=22.026987, lon.=104.080811, Alt.=482.316650m. Speed=23.615999m/h.</desc>
<speed>6.560000</speed>
</trkpt>
<trkpt lat="22.027067" lon="104.080544">
<ele>479.941650</ele>
<time>2011-04-26T08:44:00Z</time>
<desc>lat.=22.027067, lon.=104.080544, Alt.=479.941650m. Speed=13.572000m/h.</desc>
<speed>3.770000</speed>
</trkpt>
<trkpt lat="22.027107" lon="104.080460">
<ele>478.269775</ele>
<time>2011-04-26T08:44:05Z</time>
<desc>lat.=22.027107, lon.=104.080460, Alt.=478.269775m. Speed=2.664000m/h.</desc>
<speed>0.740000</speed>
</trkpt>
<trkpt lat="22.027113" lon="104.080452">
<ele>477.511963</ele>
<time>2011-04-26T08:44:10Z</time>
<desc>lat.=22.027113, lon.=104.080452, Alt.=477.511963m. Speed=0.828000m/h.</desc>
<speed>0.230000</speed>
</trkpt>
<trkpt lat="22.027155" lon="104.080399">
<ele>474.980713</ele>
<time>2011-04-26T08:44:15Z</time>
<desc>lat.=22.027155, lon.=104.080399, Alt.=474.980713m. Speed=11.268000m/h.</desc>
<speed>3.130000</speed>
</trkpt>
<trkpt lat="22.027355" lon="104.080307">
<ele>472.051025</ele>
<time>2011-04-26T08:44:20Z</time>
<desc>lat.=22.027355, lon.=104.080307, Alt.=472.051025m. Speed=21.132000m/h.</desc>
<speed>5.870000</speed>
</trkpt>
<trkpt lat="22.027597" lon="104.080345">
<ele>472.019775</ele>
<time>2011-04-26T08:44:25Z</time>
<desc>lat.=22.027597, lon.=104.080345, Alt.=472.019775m. Speed=21.240000m/h.</desc>
<speed>5.900000</speed>
</trkpt>
<trkpt lat="22.027899" lon="104.080360">
<ele>466.433838</ele>
<time>2011-04-26T08:44:30Z</time>
<desc>lat.=22.027899, lon.=104.080360, Alt.=466.433838m. Speed=22.608000m/h.</desc>
<speed>6.280000</speed>
</trkpt>
<trkpt lat="22.028179" lon="104.080437">
<ele>463.730713</ele>
<time>2011-04-26T08:44:35Z</time>
<desc>lat.=22.028179, lon.=104.080437, Alt.=463.730713m. Speed=22.931999m/h.</desc>
<speed>6.370000</speed>
</trkpt>
<trkpt lat="22.028496" lon="104.080505">
<ele>461.519775</ele>
<time>2011-04-26T08:44:40Z</time>
<desc>lat.=22.028496, lon.=104.080505, Alt.=461.519775m. Speed=24.804001m/h.</desc>
<speed>6.890000</speed>
</trkpt>
<trkpt lat="22.028749" lon="104.080559">
<ele>460.199463</ele>
<time>2011-04-26T08:44:45Z</time>
<desc>lat.=22.028749, lon.=104.080559, Alt.=460.199463m. Speed=17.424000m/h.</desc>
<speed>4.840000</speed>
</trkpt>
<trkpt lat="22.028952" lon="104.080505">
<ele>458.238525</ele>
<time>2011-04-26T08:44:50Z</time>
<desc>lat.=22.028952, lon.=104.080505, Alt.=458.238525m. Speed=9.648000m/h.</desc>
<speed>2.680000</speed>
</trkpt>
<trkpt lat="22.029139" lon="104.080467">
<ele>456.621338</ele>
<time>2011-04-26T08:44:55Z</time>
<desc>lat.=22.029139, lon.=104.080467, Alt.=456.621338m. Speed=15.048000m/h.</desc>
<speed>4.180000</speed>
</trkpt>
<trkpt lat="22.029366" lon="104.080399">
<ele>453.605713</ele>
<time>2011-04-26T08:45:00Z</time>
<desc>lat.=22.029366, lon.=104.080399, Alt.=453.605713m. Speed=16.596001m/h.</desc>
<speed>4.610000</speed>
</trkpt>
<trkpt lat="22.029615" lon="104.080452">
<ele>454.004150</ele>
<time>2011-04-26T08:45:05Z</time>
<desc>lat.=22.029615, lon.=104.080452, Alt.=454.004150m. Speed=19.080000m/h.</desc>
<speed>5.300000</speed>
</trkpt>
<trkpt lat="22.029835" lon="104.080528">
<ele>453.371338</ele>
<time>2011-04-26T08:45:10Z</time>
<desc>lat.=22.029835, lon.=104.080528, Alt.=453.371338m. Speed=17.351999m/h.</desc>
<speed>4.820000</speed>
</trkpt>
<trkpt lat="22.030111" lon="104.080559">
<ele>452.402588</ele>
<time>2011-04-26T08:45:15Z</time>
<desc>lat.=22.030111, lon.=104.080559, Alt.=452.402588m. Speed=19.764000m/h.</desc>
<speed>5.490000</speed>
</trkpt>
<trkpt lat="22.030382" lon="104.080620">
<ele>451.043213</ele>
<time>2011-04-26T08:45:20Z</time>
<desc>lat.=22.030382, lon.=104.080620, Alt.=451.043213m. Speed=21.780001m/h.</desc>
<speed>6.050000</speed>
</trkpt>
<trkpt lat="22.030724" lon="104.080673">
<ele>449.261963</ele>
<time>2011-04-26T08:45:25Z</time>
<desc>lat.=22.030724, lon.=104.080673, Alt.=449.261963m. Speed=27.323999m/h.</desc>
<speed>7.590000</speed>
</trkpt>
<trkpt lat="22.031078" lon="104.080788">
<ele>448.996338</ele>
<time>2011-04-26T08:45:30Z</time>
<desc>lat.=22.031078, lon.=104.080788, Alt.=448.996338m. Speed=29.087999m/h.</desc>
<speed>8.080000</speed>
</trkpt>
<trkpt lat="22.031416" lon="104.080917">
<ele>448.051025</ele>
<time>2011-04-26T08:45:35Z</time>
<desc>lat.=22.031416, lon.=104.080917, Alt.=448.051025m. Speed=20.628000m/h.</desc>
<speed>5.730000</speed>
</trkpt>
<trkpt lat="22.031635" lon="104.081024">
<ele>448.566650</ele>
<time>2011-04-26T08:45:40Z</time>
<desc>lat.=22.031635, lon.=104.081024, Alt.=448.566650m. Speed=15.984000m/h.</desc>
<speed>4.440000</speed>
</trkpt>
<trkpt lat="22.031797" lon="104.081192">
<ele>447.129150</ele>
<time>2011-04-26T08:45:45Z</time>
<desc>lat.=22.031797, lon.=104.081192, Alt.=447.129150m. Speed=14.040000m/h.</desc>
<speed>3.900000</speed>
</trkpt>
<trkpt lat="22.031996" lon="104.081367">
<ele>437.379150</ele>
<time>2011-04-26T08:45:50Z</time>
<desc>lat.=22.031996, lon.=104.081367, Alt.=437.379150m. Speed=21.455999m/h.</desc>
<speed>5.960000</speed>
</trkpt>
<trkpt lat="22.032274" lon="104.081642">
<ele>433.199463</ele>
<time>2011-04-26T08:45:55Z</time>
<desc>lat.=22.032274, lon.=104.081642, Alt.=433.199463m. Speed=26.172001m/h.</desc>
<speed>7.270000</speed>
</trkpt>
<trkpt lat="22.032597" lon="104.081825">
<ele>427.246338</ele>
<time>2011-04-26T08:46:00Z</time>
<desc>lat.=22.032597, lon.=104.081825, Alt.=427.246338m. Speed=24.983999m/h.</desc>
<speed>6.940000</speed>
</trkpt>
<trkpt lat="22.032778" lon="104.082161">
<ele>420.222900</ele>
<time>2011-04-26T08:46:05Z</time>
<desc>lat.=22.032778, lon.=104.082161, Alt.=420.222900m. Speed=25.920000m/h.</desc>
<speed>7.200000</speed>
</trkpt>
<trkpt lat="22.033018" lon="104.082344">
<ele>416.730713</ele>
<time>2011-04-26T08:46:10Z</time>
<desc>lat.=22.033018, lon.=104.082344, Alt.=416.730713m. Speed=18.396000m/h.</desc>
<speed>5.110000</speed>
</trkpt>
<trkpt lat="22.033184" lon="104.082321">
<ele>415.230713</ele>
<time>2011-04-26T08:46:15Z</time>
<desc>lat.=22.033184, lon.=104.082321, Alt.=415.230713m. Speed=6.516000m/h.</desc>
<speed>1.810000</speed>
</trkpt>
<trkpt lat="22.033302" lon="104.082306">
<ele>414.543213</ele>
<time>2011-04-26T08:46:20Z</time>
<desc>lat.=22.033302, lon.=104.082306, Alt.=414.543213m. Speed=6.948000m/h.</desc>
<speed>1.930000</speed>
</trkpt>
<trkpt lat="22.033384" lon="104.082321">
<ele>412.722900</ele>
<time>2011-04-26T08:46:25Z</time>
<desc>lat.=22.033384, lon.=104.082321, Alt.=412.722900m. Speed=5.112000m/h.</desc>
<speed>1.420000</speed>
</trkpt>
<trkpt lat="22.033443" lon="104.082314">
<ele>411.418213</ele>
<time>2011-04-26T08:46:30Z</time>
<desc>lat.=22.033443, lon.=104.082314, Alt.=411.418213m. Speed=4.356000m/h.</desc>
<speed>1.210000</speed>
</trkpt>
<trkpt lat="22.033480" lon="104.082336">
<ele>413.066650</ele>
<time>2011-04-26T08:46:35Z</time>
<desc>lat.=22.033480, lon.=104.082336, Alt.=413.066650m. Speed=4.104000m/h.</desc>
<speed>1.140000</speed>
</trkpt>
<trkpt lat="22.033516" lon="104.082359">
<ele>414.496338</ele>
<time>2011-04-26T08:46:40Z</time>
<desc>lat.=22.033516, lon.=104.082359, Alt.=414.496338m. Speed=3.744000m/h.</desc>
<speed>1.040000</speed>
</trkpt>
<trkpt lat="22.033583" lon="104.082375">
<ele>415.097900</ele>
<time>2011-04-26T08:46:45Z</time>
<desc>lat.=22.033583, lon.=104.082375, Alt.=415.097900m. Speed=5.688000m/h.</desc>
<speed>1.580000</speed>
</trkpt>
<trkpt lat="22.033663" lon="104.082420">
<ele>415.761963</ele>
<time>2011-04-26T08:46:50Z</time>
<desc>lat.=22.033663, lon.=104.082420, Alt.=415.761963m. Speed=6.660000m/h.</desc>
<speed>1.850000</speed>
</trkpt>
<trkpt lat="22.033730" lon="104.082451">
<ele>416.215088</ele>
<time>2011-04-26T08:46:55Z</time>
<desc>lat.=22.033730, lon.=104.082451, Alt.=416.215088m. Speed=3.780000m/h.</desc>
<speed>1.050000</speed>
</trkpt>
<trkpt lat="22.033779" lon="104.082504">
<ele>415.590088</ele>
<time>2011-04-26T08:47:00Z</time>
<desc>lat.=22.033779, lon.=104.082504, Alt.=415.590088m. Speed=5.040000m/h.</desc>
<speed>1.400000</speed>
</trkpt>
<trkpt lat="22.033875" lon="104.082581">
<ele>415.965088</ele>
<time>2011-04-26T08:47:05Z</time>
<desc>lat.=22.033875, lon.=104.082581, Alt.=415.965088m. Speed=5.940000m/h.</desc>
<speed>1.650000</speed>
</trkpt>
<trkpt lat="22.033974" lon="104.082619">
<ele>415.832275</ele>
<time>2011-04-26T08:47:10Z</time>
<desc>lat.=22.033974, lon.=104.082619, Alt.=415.832275m. Speed=5.184000m/h.</desc>
<speed>1.440000</speed>
</trkpt>
<trkpt lat="22.034082" lon="104.082664">
<ele>416.332275</ele>
<time>2011-04-26T08:47:15Z</time>
<desc>lat.=22.034082, lon.=104.082664, Alt.=416.332275m. Speed=4.140000m/h.</desc>
<speed>1.150000</speed>
</trkpt>
<trkpt lat="22.034100" lon="104.082687">
<ele>416.496338</ele>
<time>2011-04-26T08:47:20Z</time>
<desc>lat.=22.034100, lon.=104.082687, Alt.=416.496338m. Speed=2.988000m/h.</desc>
<speed>0.830000</speed>
</trkpt>
<trkpt lat="22.034092" lon="104.082703">
<ele>416.433838</ele>
<time>2011-04-26T08:47:25Z</time>
<desc>lat.=22.034092, lon.=104.082703, Alt.=416.433838m. Speed=1.116000m/h.</desc>
<speed>0.310000</speed>
</trkpt>
<trkpt lat="22.034128" lon="104.082718">
<ele>416.371338</ele>
<time>2011-04-26T08:47:30Z</time>
<desc>lat.=22.034128, lon.=104.082718, Alt.=416.371338m. Speed=3.780000m/h.</desc>
<speed>1.050000</speed>
</trkpt>
<trkpt lat="22.034210" lon="104.082787">
<ele>415.777588</ele>
<time>2011-04-26T08:47:35Z</time>
<desc>lat.=22.034210, lon.=104.082787, Alt.=415.777588m. Speed=7.848000m/h.</desc>
<speed>2.180000</speed>
</trkpt>
<trkpt lat="22.034273" lon="104.082985">
<ele>412.090088</ele>
<time>2011-04-26T08:47:40Z</time>
<desc>lat.=22.034273, lon.=104.082985, Alt.=412.090088m. Speed=14.724000m/h.</desc>
<speed>4.090000</speed>
</trkpt>
<trkpt lat="22.034420" lon="104.083176">
<ele>409.363525</ele>
<time>2011-04-26T08:47:45Z</time>
<desc>lat.=22.034420, lon.=104.083176, Alt.=409.363525m. Speed=21.672001m/h.</desc>
<speed>6.020000</speed>
</trkpt>
<trkpt lat="22.034441" lon="104.083519">
<ele>407.511963</ele>
<time>2011-04-26T08:47:50Z</time>
<desc>lat.=22.034441, lon.=104.083519, Alt.=407.511963m. Speed=23.868000m/h.</desc>
<speed>6.630000</speed>
</trkpt>
<trkpt lat="22.034597" lon="104.083679">
<ele>405.261963</ele>
<time>2011-04-26T08:47:55Z</time>
<desc>lat.=22.034597, lon.=104.083679, Alt.=405.261963m. Speed=13.716000m/h.</desc>
<speed>3.810000</speed>
</trkpt>
<trkpt lat="22.034721" lon="104.083832">
<ele>401.871338</ele>
<time>2011-04-26T08:48:00Z</time>
<desc>lat.=22.034721, lon.=104.083832, Alt.=401.871338m. Speed=9.000000m/h.</desc>
<speed>2.500000</speed>
</trkpt>
<trkpt lat="22.034866" lon="104.083939">
<ele>400.238525</ele>
<time>2011-04-26T08:48:05Z</time>
<desc>lat.=22.034866, lon.=104.083939, Alt.=400.238525m. Speed=11.520000m/h.</desc>
<speed>3.200000</speed>
</trkpt>
<trkpt lat="22.035076" lon="104.084106">
<ele>398.535400</ele>
<time>2011-04-26T08:48:10Z</time>
<desc>lat.=22.035076, lon.=104.084106, Alt.=398.535400m. Speed=18.360001m/h.</desc>
<speed>5.100000</speed>
</trkpt>
<trkpt lat="22.035326" lon="104.084351">
<ele>397.465088</ele>
<time>2011-04-26T08:48:15Z</time>
<desc>lat.=22.035326, lon.=104.084351, Alt.=397.465088m. Speed=23.580000m/h.</desc>
<speed>6.550000</speed>
</trkpt>
<trkpt lat="22.035589" lon="104.084679">
<ele>396.660400</ele>
<time>2011-04-26T08:48:20Z</time>
<desc>lat.=22.035589, lon.=104.084679, Alt.=396.660400m. Speed=23.940001m/h.</desc>
<speed>6.650000</speed>
</trkpt>
<trkpt lat="22.035889" lon="104.085007">
<ele>395.957275</ele>
<time>2011-04-26T08:48:25Z</time>
<desc>lat.=22.035889, lon.=104.085007, Alt.=395.957275m. Speed=17.820000m/h.</desc>
<speed>4.950000</speed>
</trkpt>
<trkpt lat="22.036013" lon="104.085213">
<ele>395.222900</ele>
<time>2011-04-26T08:48:30Z</time>
<desc>lat.=22.036013, lon.=104.085213, Alt.=395.222900m. Speed=10.044000m/h.</desc>
<speed>2.790000</speed>
</trkpt>
<trkpt lat="22.036076" lon="104.085289">
<ele>395.222900</ele>
<time>2011-04-26T08:48:35Z</time>
<desc>lat.=22.036076, lon.=104.085289, Alt.=395.222900m. Speed=4.680000m/h.</desc>
<speed>1.300000</speed>
</trkpt>
<trkpt lat="22.036177" lon="104.085434">
<ele>394.340088</ele>
<time>2011-04-26T08:48:40Z</time>
<desc>lat.=22.036177, lon.=104.085434, Alt.=394.340088m. Speed=3.996000m/h.</desc>
<speed>1.110000</speed>
</trkpt>
<trkpt lat="22.036224" lon="104.085526">
<ele>391.097900</ele>
<time>2011-04-26T08:48:45Z</time>
<desc>lat.=22.036224, lon.=104.085526, Alt.=391.097900m. Speed=4.824000m/h.</desc>
<speed>1.340000</speed>
</trkpt>
<trkpt lat="22.036268" lon="104.085609">
<ele>388.715088</ele>
<time>2011-04-26T08:48:50Z</time>
<desc>lat.=22.036268, lon.=104.085609, Alt.=388.715088m. Speed=5.580000m/h.</desc>
<speed>1.550000</speed>
</trkpt>
<trkpt lat="22.036322" lon="104.085670">
<ele>386.855713</ele>
<time>2011-04-26T08:48:55Z</time>
<desc>lat.=22.036322, lon.=104.085670, Alt.=386.855713m. Speed=5.400000m/h.</desc>
<speed>1.500000</speed>
</trkpt>
<trkpt lat="22.036346" lon="104.085747">
<ele>386.441650</ele>
<time>2011-04-26T08:49:00Z</time>
<desc>lat.=22.036346, lon.=104.085747, Alt.=386.441650m. Speed=6.156000m/h.</desc>
<speed>1.710000</speed>
</trkpt>
<trkpt lat="22.036425" lon="104.085808">
<ele>384.824463</ele>
<time>2011-04-26T08:49:05Z</time>
<desc>lat.=22.036425, lon.=104.085808, Alt.=384.824463m. Speed=5.256000m/h.</desc>
<speed>1.460000</speed>
</trkpt>
<trkpt lat="22.036478" lon="104.085869">
<ele>383.754150</ele>
<time>2011-04-26T08:49:10Z</time>
<desc>lat.=22.036478, lon.=104.085869, Alt.=383.754150m. Speed=5.616000m/h.</desc>
<speed>1.560000</speed>
</trkpt>
<trkpt lat="22.036524" lon="104.085938">
<ele>382.605713</ele>
<time>2011-04-26T08:49:15Z</time>
<desc>lat.=22.036524, lon.=104.085938, Alt.=382.605713m. Speed=6.192000m/h.</desc>
<speed>1.720000</speed>
</trkpt>
<trkpt lat="22.036531" lon="104.086014">
<ele>382.480713</ele>
<time>2011-04-26T08:49:20Z</time>
<desc>lat.=22.036531, lon.=104.086014, Alt.=382.480713m. Speed=2.448000m/h.</desc>
<speed>0.680000</speed>
</trkpt>
<trkpt lat="22.036552" lon="104.086082">
<ele>382.644775</ele>
<time>2011-04-26T08:49:25Z</time>
<desc>lat.=22.036552, lon.=104.086082, Alt.=382.644775m. Speed=6.732000m/h.</desc>
<speed>1.870000</speed>
</trkpt>
<trkpt lat="22.036625" lon="104.086128">
<ele>383.035400</ele>
<time>2011-04-26T08:49:30Z</time>
<desc>lat.=22.036625, lon.=104.086128, Alt.=383.035400m. Speed=5.724000m/h.</desc>
<speed>1.590000</speed>
</trkpt>
<trkpt lat="22.036697" lon="104.086235">
<ele>382.238525</ele>
<time>2011-04-26T08:49:35Z</time>
<desc>lat.=22.036697, lon.=104.086235, Alt.=382.238525m. Speed=7.092000m/h.</desc>
<speed>1.970000</speed>
</trkpt>
<trkpt lat="22.036751" lon="104.086342">
<ele>382.496338</ele>
<time>2011-04-26T08:49:40Z</time>
<desc>lat.=22.036751, lon.=104.086342, Alt.=382.496338m. Speed=4.716000m/h.</desc>
<speed>1.310000</speed>
</trkpt>
<trkpt lat="22.036831" lon="104.086403">
<ele>384.074463</ele>
<time>2011-04-26T08:49:45Z</time>
<desc>lat.=22.036831, lon.=104.086403, Alt.=384.074463m. Speed=8.100000m/h.</desc>
<speed>2.250000</speed>
</trkpt>
<trkpt lat="22.036879" lon="104.086456">
<ele>384.863525</ele>
<time>2011-04-26T08:49:50Z</time>
<desc>lat.=22.036879, lon.=104.086456, Alt.=384.863525m. Speed=4.212000m/h.</desc>
<speed>1.170000</speed>
</trkpt>
<trkpt lat="22.036930" lon="104.086555">
<ele>384.652588</ele>
<time>2011-04-26T08:49:55Z</time>
<desc>lat.=22.036930, lon.=104.086555, Alt.=384.652588m. Speed=8.280000m/h.</desc>
<speed>2.300000</speed>
</trkpt>
<trkpt lat="22.036974" lon="104.086670">
<ele>383.636963</ele>
<time>2011-04-26T08:50:00Z</time>
<desc>lat.=22.036974, lon.=104.086670, Alt.=383.636963m. Speed=9.324000m/h.</desc>
<speed>2.590000</speed>
</trkpt>
<trkpt lat="22.037018" lon="104.086792">
<ele>383.027588</ele>
<time>2011-04-26T08:50:05Z</time>
<desc>lat.=22.037018, lon.=104.086792, Alt.=383.027588m. Speed=10.116000m/h.</desc>
<speed>2.810000</speed>
</trkpt>
<trkpt lat="22.037058" lon="104.086945">
<ele>381.644775</ele>
<time>2011-04-26T08:50:10Z</time>
<desc>lat.=22.037058, lon.=104.086945, Alt.=381.644775m. Speed=11.124000m/h.</desc>
<speed>3.090000</speed>
</trkpt>
<trkpt lat="22.037115" lon="104.087143">
<ele>381.144775</ele>
<time>2011-04-26T08:50:15Z</time>
<desc>lat.=22.037115, lon.=104.087143, Alt.=381.144775m. Speed=14.400000m/h.</desc>
<speed>4.000000</speed>
</trkpt>
<trkpt lat="22.037159" lon="104.087364">
<ele>380.316650</ele>
<time>2011-04-26T08:50:20Z</time>
<desc>lat.=22.037159, lon.=104.087364, Alt.=380.316650m. Speed=12.960000m/h.</desc>
<speed>3.600000</speed>
</trkpt>
<trkpt lat="22.037169" lon="104.087578">
<ele>379.582275</ele>
<time>2011-04-26T08:50:25Z</time>
<desc>lat.=22.037169, lon.=104.087578, Alt.=379.582275m. Speed=13.392000m/h.</desc>
<speed>3.720000</speed>
</trkpt>
<trkpt lat="22.037184" lon="104.087784">
<ele>378.801025</ele>
<time>2011-04-26T08:50:30Z</time>
<desc>lat.=22.037184, lon.=104.087784, Alt.=378.801025m. Speed=14.220000m/h.</desc>
<speed>3.950000</speed>
</trkpt>
<trkpt lat="22.037289" lon="104.088005">
<ele>378.136963</ele>
<time>2011-04-26T08:50:35Z</time>
<desc>lat.=22.037289, lon.=104.088005, Alt.=378.136963m. Speed=15.120000m/h.</desc>
<speed>4.200000</speed>
</trkpt>
<trkpt lat="22.037466" lon="104.088150">
<ele>377.910400</ele>
<time>2011-04-26T08:50:40Z</time>
<desc>lat.=22.037466, lon.=104.088150, Alt.=377.910400m. Speed=16.164000m/h.</desc>
<speed>4.490000</speed>
</trkpt>
<trkpt lat="22.037731" lon="104.088326">
<ele>377.621338</ele>
<time>2011-04-26T08:50:45Z</time>
<desc>lat.=22.037731, lon.=104.088326, Alt.=377.621338m. Speed=22.896000m/h.</desc>
<speed>6.360000</speed>
</trkpt>
<trkpt lat="22.038082" lon="104.088570">
<ele>376.082275</ele>
<time>2011-04-26T08:50:50Z</time>
<desc>lat.=22.038082, lon.=104.088570, Alt.=376.082275m. Speed=27.000000m/h.</desc>
<speed>7.500000</speed>
</trkpt>
<trkpt lat="22.038404" lon="104.088890">
<ele>373.152588</ele>
<time>2011-04-26T08:50:55Z</time>
<desc>lat.=22.038404, lon.=104.088890, Alt.=373.152588m. Speed=25.704000m/h.</desc>
<speed>7.140000</speed>
</trkpt>
<trkpt lat="22.038507" lon="104.089226">
<ele>370.347900</ele>
<time>2011-04-26T08:51:00Z</time>
<desc>lat.=22.038507, lon.=104.089226, Alt.=370.347900m. Speed=23.436001m/h.</desc>
<speed>6.510000</speed>
</trkpt>
<trkpt lat="22.038315" lon="104.089531">
<ele>367.386963</ele>
<time>2011-04-26T08:51:05Z</time>
<desc>lat.=22.038315, lon.=104.089531, Alt.=367.386963m. Speed=25.884001m/h.</desc>
<speed>7.190000</speed>
</trkpt>
<trkpt lat="22.038313" lon="104.089806">
<ele>364.082275</ele>
<time>2011-04-26T08:51:10Z</time>
<desc>lat.=22.038313, lon.=104.089806, Alt.=364.082275m. Speed=19.908001m/h.</desc>
<speed>5.530000</speed>
</trkpt>
<trkpt lat="22.038519" lon="104.089905">
<ele>364.129150</ele>
<time>2011-04-26T08:51:15Z</time>
<desc>lat.=22.038519, lon.=104.089905, Alt.=364.129150m. Speed=16.775999m/h.</desc>
<speed>4.660000</speed>
</trkpt>
<trkpt lat="22.038708" lon="104.089920">
<ele>366.136963</ele>
<time>2011-04-26T08:51:20Z</time>
<desc>lat.=22.038708, lon.=104.089920, Alt.=366.136963m. Speed=15.624000m/h.</desc>
<speed>4.340000</speed>
</trkpt>
<trkpt lat="22.038919" lon="104.090096">
<ele>365.660400</ele>
<time>2011-04-26T08:51:25Z</time>
<desc>lat.=22.038919, lon.=104.090096, Alt.=365.660400m. Speed=19.799999m/h.</desc>
<speed>5.500000</speed>
</trkpt>
<trkpt lat="22.039108" lon="104.090302">
<ele>364.715088</ele>
<time>2011-04-26T08:51:30Z</time>
<desc>lat.=22.039108, lon.=104.090302, Alt.=364.715088m. Speed=19.728001m/h.</desc>
<speed>5.480000</speed>
</trkpt>
<trkpt lat="22.039560" lon="104.090302">
<ele>366.152588</ele>
<time>2011-04-26T08:51:35Z</time>
<desc>lat.=22.039560, lon.=104.090302, Alt.=366.152588m. Speed=27.072001m/h.</desc>
<speed>7.520000</speed>
</trkpt>
<trkpt lat="22.039953" lon="104.090416">
<ele>363.246338</ele>
<time>2011-04-26T08:51:40Z</time>
<desc>lat.=22.039953, lon.=104.090416, Alt.=363.246338m. Speed=28.511999m/h.</desc>
<speed>7.920000</speed>
</trkpt>
<trkpt lat="22.040293" lon="104.090652">
<ele>361.769775</ele>
<time>2011-04-26T08:51:45Z</time>
<desc>lat.=22.040293, lon.=104.090652, Alt.=361.769775m. Speed=32.759998m/h.</desc>
<speed>9.100000</speed>
</trkpt>
<trkpt lat="22.040653" lon="104.091049">
<ele>359.840088</ele>
<time>2011-04-26T08:51:50Z</time>
<desc>lat.=22.040653, lon.=104.091049, Alt.=359.840088m. Speed=44.568001m/h.</desc>
<speed>12.380000</speed>
</trkpt>
<trkpt lat="22.041103" lon="104.091484">
<ele>357.074463</ele>
<time>2011-04-26T08:51:55Z</time>
<desc>lat.=22.041103, lon.=104.091484, Alt.=357.074463m. Speed=43.271999m/h.</desc>
<speed>12.020000</speed>
</trkpt>
<trkpt lat="22.041441" lon="104.091827">
<ele>356.199463</ele>
<time>2011-04-26T08:52:00Z</time>
<desc>lat.=22.041441, lon.=104.091827, Alt.=356.199463m. Speed=30.743999m/h.</desc>
<speed>8.540000</speed>
</trkpt>
<trkpt lat="22.041550" lon="104.092117">
<ele>356.871338</ele>
<time>2011-04-26T08:52:05Z</time>
<desc>lat.=22.041550, lon.=104.092117, Alt.=356.871338m. Speed=20.916000m/h.</desc>
<speed>5.810000</speed>
</trkpt>
<trkpt lat="22.041569" lon="104.092361">
<ele>357.074463</ele>
<time>2011-04-26T08:52:10Z</time>
<desc>lat.=22.041569, lon.=104.092361, Alt.=357.074463m. Speed=16.704000m/h.</desc>
<speed>4.640000</speed>
</trkpt>
<trkpt lat="22.041603" lon="104.092522">
<ele>357.121338</ele>
<time>2011-04-26T08:52:15Z</time>
<desc>lat.=22.041603, lon.=104.092522, Alt.=357.121338m. Speed=8.820000m/h.</desc>
<speed>2.450000</speed>
</trkpt>
<trkpt lat="22.041641" lon="104.092621">
<ele>356.668213</ele>
<time>2011-04-26T08:52:20Z</time>
<desc>lat.=22.041641, lon.=104.092621, Alt.=356.668213m. Speed=5.976000m/h.</desc>
<speed>1.660000</speed>
</trkpt>
<trkpt lat="22.041668" lon="104.092697">
<ele>356.832275</ele>
<time>2011-04-26T08:52:25Z</time>
<desc>lat.=22.041668, lon.=104.092697, Alt.=356.832275m. Speed=5.004000m/h.</desc>
<speed>1.390000</speed>
</trkpt>
<trkpt lat="22.041693" lon="104.092735">
<ele>356.871338</ele>
<time>2011-04-26T08:52:30Z</time>
<desc>lat.=22.041693, lon.=104.092735, Alt.=356.871338m. Speed=2.412000m/h.</desc>
<speed>0.670000</speed>
</trkpt>
<trkpt lat="22.041698" lon="104.092781">
<ele>356.535400</ele>
<time>2011-04-26T08:52:35Z</time>
<desc>lat.=22.041698, lon.=104.092781, Alt.=356.535400m. Speed=3.024000m/h.</desc>
<speed>0.840000</speed>
</trkpt>
<trkpt lat="22.041719" lon="104.092834">
<ele>356.621338</ele>
<time>2011-04-26T08:52:40Z</time>
<desc>lat.=22.041719, lon.=104.092834, Alt.=356.621338m. Speed=3.636000m/h.</desc>
<speed>1.010000</speed>
</trkpt>
<trkpt lat="22.041718" lon="104.092888">
<ele>356.902588</ele>
<time>2011-04-26T08:52:45Z</time>
<desc>lat.=22.041718, lon.=104.092888, Alt.=356.902588m. Speed=2.772000m/h.</desc>
<speed>0.770000</speed>
</trkpt>
<trkpt lat="22.041744" lon="104.092941">
<ele>357.613525</ele>
<time>2011-04-26T08:52:50Z</time>
<desc>lat.=22.041744, lon.=104.092941, Alt.=357.613525m. Speed=3.708000m/h.</desc>
<speed>1.030000</speed>
</trkpt>
<trkpt lat="22.041765" lon="104.093002">
<ele>357.801025</ele>
<time>2011-04-26T08:52:55Z</time>
<desc>lat.=22.041765, lon.=104.093002, Alt.=357.801025m. Speed=3.816000m/h.</desc>
<speed>1.060000</speed>
</trkpt>
<trkpt lat="22.041796" lon="104.093063">
<ele>358.043213</ele>
<time>2011-04-26T08:53:00Z</time>
<desc>lat.=22.041796, lon.=104.093063, Alt.=358.043213m. Speed=4.464000m/h.</desc>
<speed>1.240000</speed>
</trkpt>
<trkpt lat="22.041899" lon="104.093155">
<ele>360.324463</ele>
<time>2011-04-26T08:53:05Z</time>
<desc>lat.=22.041899, lon.=104.093155, Alt.=360.324463m. Speed=4.824000m/h.</desc>
<speed>1.340000</speed>
</trkpt>
<trkpt lat="22.041906" lon="104.093163">
<ele>360.113525</ele>
<time>2011-04-26T08:53:10Z</time>
<desc>lat.=22.041906, lon.=104.093163, Alt.=360.113525m. Speed=0.324000m/h.</desc>
<speed>0.090000</speed>
</trkpt>
<trkpt lat="22.041903" lon="104.093163">
<ele>360.066650</ele>
<time>2011-04-26T08:53:15Z</time>
<desc>lat.=22.041903, lon.=104.093163, Alt.=360.066650m. Speed=0.360000m/h.</desc>
<speed>0.100000</speed>
</trkpt>
<trkpt lat="22.041903" lon="104.093163">
<ele>360.051025</ele>
<time>2011-04-26T08:53:20Z</time>
<desc>lat.=22.041903, lon.=104.093163, Alt.=360.051025m. Speed=0.576000m/h.</desc>
<speed>0.160000</speed>
</trkpt>
<trkpt lat="22.041914" lon="104.093185">
<ele>360.043213</ele>
<time>2011-04-26T08:53:25Z</time>
<desc>lat.=22.041914, lon.=104.093185, Alt.=360.043213m. Speed=3.924000m/h.</desc>
<speed>1.090000</speed>
</trkpt>
<trkpt lat="22.041956" lon="104.093254">
<ele>360.277588</ele>
<time>2011-04-26T08:53:30Z</time>
<desc>lat.=22.041956, lon.=104.093254, Alt.=360.277588m. Speed=5.148000m/h.</desc>
<speed>1.430000</speed>
</trkpt>
<trkpt lat="22.042007" lon="104.093285">
<ele>360.535400</ele>
<time>2011-04-26T08:53:35Z</time>
<desc>lat.=22.042007, lon.=104.093285, Alt.=360.535400m. Speed=4.572000m/h.</desc>
<speed>1.270000</speed>
</trkpt>
<trkpt lat="22.042061" lon="104.093346">
<ele>360.582275</ele>
<time>2011-04-26T08:53:40Z</time>
<desc>lat.=22.042061, lon.=104.093346, Alt.=360.582275m. Speed=4.392000m/h.</desc>
<speed>1.220000</speed>
</trkpt>
<trkpt lat="22.042109" lon="104.093376">
<ele>360.402588</ele>
<time>2011-04-26T08:53:45Z</time>
<desc>lat.=22.042109, lon.=104.093376, Alt.=360.402588m. Speed=4.500000m/h.</desc>
<speed>1.250000</speed>
</trkpt>
<trkpt lat="22.042158" lon="104.093414">
<ele>360.402588</ele>
<time>2011-04-26T08:53:50Z</time>
<desc>lat.=22.042158, lon.=104.093414, Alt.=360.402588m. Speed=4.968000m/h.</desc>
<speed>1.380000</speed>
</trkpt>
<trkpt lat="22.042212" lon="104.093452">
<ele>360.371338</ele>
<time>2011-04-26T08:53:55Z</time>
<desc>lat.=22.042212, lon.=104.093452, Alt.=360.371338m. Speed=4.500000m/h.</desc>
<speed>1.250000</speed>
</trkpt>
<trkpt lat="22.042248" lon="104.093498">
<ele>360.496338</ele>
<time>2011-04-26T08:54:00Z</time>
<desc>lat.=22.042248, lon.=104.093498, Alt.=360.496338m. Speed=3.384000m/h.</desc>
<speed>0.940000</speed>
</trkpt>
<trkpt lat="22.042288" lon="104.093529">
<ele>360.449463</ele>
<time>2011-04-26T08:54:05Z</time>
<desc>lat.=22.042288, lon.=104.093529, Alt.=360.449463m. Speed=4.104000m/h.</desc>
<speed>1.140000</speed>
</trkpt>
<trkpt lat="22.042326" lon="104.093567">
<ele>360.597900</ele>
<time>2011-04-26T08:54:10Z</time>
<desc>lat.=22.042326, lon.=104.093567, Alt.=360.597900m. Speed=4.248000m/h.</desc>
<speed>1.180000</speed>
</trkpt>
<trkpt lat="22.042381" lon="104.093605">
<ele>360.715088</ele>
<time>2011-04-26T08:54:15Z</time>
<desc>lat.=22.042381, lon.=104.093605, Alt.=360.715088m. Speed=4.608000m/h.</desc>
<speed>1.280000</speed>
</trkpt>
<trkpt lat="22.042446" lon="104.093651">
<ele>360.793213</ele>
<time>2011-04-26T08:54:20Z</time>
<desc>lat.=22.042446, lon.=104.093651, Alt.=360.793213m. Speed=6.588000m/h.</desc>
<speed>1.830000</speed>
</trkpt>
<trkpt lat="22.042501" lon="104.093689">
<ele>361.347900</ele>
<time>2011-04-26T08:54:25Z</time>
<desc>lat.=22.042501, lon.=104.093689, Alt.=361.347900m. Speed=4.176000m/h.</desc>
<speed>1.160000</speed>
</trkpt>
<trkpt lat="22.042549" lon="104.093712">
<ele>361.605713</ele>
<time>2011-04-26T08:54:30Z</time>
<desc>lat.=22.042549, lon.=104.093712, Alt.=361.605713m. Speed=3.384000m/h.</desc>
<speed>0.940000</speed>
</trkpt>
<trkpt lat="22.042591" lon="104.093750">
<ele>362.144775</ele>
<time>2011-04-26T08:54:35Z</time>
<desc>lat.=22.042591, lon.=104.093750, Alt.=362.144775m. Speed=3.204000m/h.</desc>
<speed>0.890000</speed>
</trkpt>
<trkpt lat="22.042624" lon="104.093765">
<ele>362.129150</ele>
<time>2011-04-26T08:54:40Z</time>
<desc>lat.=22.042624, lon.=104.093765, Alt.=362.129150m. Speed=3.564000m/h.</desc>
<speed>0.990000</speed>
</trkpt>
<trkpt lat="22.042669" lon="104.093796">
<ele>362.629150</ele>
<time>2011-04-26T08:54:45Z</time>
<desc>lat.=22.042669, lon.=104.093796, Alt.=362.629150m. Speed=4.428000m/h.</desc>
<speed>1.230000</speed>
</trkpt>
<trkpt lat="22.042704" lon="104.093834">
<ele>363.527588</ele>
<time>2011-04-26T08:54:50Z</time>
<desc>lat.=22.042704, lon.=104.093834, Alt.=363.527588m. Speed=3.744000m/h.</desc>
<speed>1.040000</speed>
</trkpt>
<trkpt lat="22.042740" lon="104.093880">
<ele>365.847900</ele>
<time>2011-04-26T08:54:55Z</time>
<desc>lat.=22.042740, lon.=104.093880, Alt.=365.847900m. Speed=3.420000m/h.</desc>
<speed>0.950000</speed>
</trkpt>
<trkpt lat="22.042746" lon="104.093903">
<ele>366.668213</ele>
<time>2011-04-26T08:55:00Z</time>
<desc>lat.=22.042746, lon.=104.093903, Alt.=366.668213m. Speed=2.772000m/h.</desc>
<speed>0.770000</speed>
</trkpt>
<trkpt lat="22.042759" lon="104.093933">
<ele>367.011963</ele>
<time>2011-04-26T08:55:05Z</time>
<desc>lat.=22.042759, lon.=104.093933, Alt.=367.011963m. Speed=1.476000m/h.</desc>
<speed>0.410000</speed>
</trkpt>
<trkpt lat="22.042759" lon="104.093971">
<ele>367.683838</ele>
<time>2011-04-26T08:55:10Z</time>
<desc>lat.=22.042759, lon.=104.093971, Alt.=367.683838m. Speed=0.720000m/h.</desc>
<speed>0.200000</speed>
</trkpt>
<trkpt lat="22.042784" lon="104.094009">
<ele>368.277588</ele>
<time>2011-04-26T08:55:15Z</time>
<desc>lat.=22.042784, lon.=104.094009, Alt.=368.277588m. Speed=3.636000m/h.</desc>
<speed>1.010000</speed>
</trkpt>
<trkpt lat="22.042797" lon="104.094070">
<ele>369.840088</ele>
<time>2011-04-26T08:55:20Z</time>
<desc>lat.=22.042797, lon.=104.094070, Alt.=369.840088m. Speed=3.096000m/h.</desc>
<speed>0.860000</speed>
</trkpt>
<trkpt lat="22.042797" lon="104.094116">
<ele>370.738525</ele>
<time>2011-04-26T08:55:25Z</time>
<desc>lat.=22.042797, lon.=104.094116, Alt.=370.738525m. Speed=2.988000m/h.</desc>
<speed>0.830000</speed>
</trkpt>
<trkpt lat="22.042812" lon="104.094177">
<ele>371.324463</ele>
<time>2011-04-26T08:55:30Z</time>
<desc>lat.=22.042812, lon.=104.094177, Alt.=371.324463m. Speed=3.780000m/h.</desc>
<speed>1.050000</speed>
</trkpt>
<trkpt lat="22.042843" lon="104.094231">
<ele>371.816650</ele>
<time>2011-04-26T08:55:35Z</time>
<desc>lat.=22.042843, lon.=104.094231, Alt.=371.816650m. Speed=3.384000m/h.</desc>
<speed>0.940000</speed>
</trkpt>
<trkpt lat="22.042858" lon="104.094284">
<ele>372.418213</ele>
<time>2011-04-26T08:55:40Z</time>
<desc>lat.=22.042858, lon.=104.094284, Alt.=372.418213m. Speed=3.960000m/h.</desc>
<speed>1.100000</speed>
</trkpt>
<trkpt lat="22.042881" lon="104.094330">
<ele>373.121338</ele>
<time>2011-04-26T08:55:45Z</time>
<desc>lat.=22.042881, lon.=104.094330, Alt.=373.121338m. Speed=5.364000m/h.</desc>
<speed>1.490000</speed>
</trkpt>
<trkpt lat="22.042904" lon="104.094376">
<ele>373.613525</ele>
<time>2011-04-26T08:55:50Z</time>
<desc>lat.=22.042904, lon.=104.094376, Alt.=373.613525m. Speed=3.384000m/h.</desc>
<speed>0.940000</speed>
</trkpt>
<trkpt lat="22.042938" lon="104.094460">
<ele>374.676025</ele>
<time>2011-04-26T08:55:55Z</time>
<desc>lat.=22.042938, lon.=104.094460, Alt.=374.676025m. Speed=0.792000m/h.</desc>
<speed>0.220000</speed>
</trkpt>
<trkpt lat="22.042963" lon="104.094505">
<ele>375.301025</ele>
<time>2011-04-26T08:56:00Z</time>
<desc>lat.=22.042963, lon.=104.094505, Alt.=375.301025m. Speed=2.268000m/h.</desc>
<speed>0.630000</speed>
</trkpt>
<trkpt lat="22.042980" lon="104.094559">
<ele>375.886963</ele>
<time>2011-04-26T08:56:05Z</time>
<desc>lat.=22.042980, lon.=104.094559, Alt.=375.886963m. Speed=3.600000m/h.</desc>
<speed>1.000000</speed>
</trkpt>
<trkpt lat="22.042999" lon="104.094589">
<ele>376.441650</ele>
<time>2011-04-26T08:56:10Z</time>
<desc>lat.=22.042999, lon.=104.094589, Alt.=376.441650m. Speed=2.160000m/h.</desc>
<speed>0.600000</speed>
</trkpt>
<trkpt lat="22.043028" lon="104.094620">
<ele>376.902588</ele>
<time>2011-04-26T08:56:15Z</time>
<desc>lat.=22.043028, lon.=104.094620, Alt.=376.902588m. Speed=2.592000m/h.</desc>
<speed>0.720000</speed>
</trkpt>
<trkpt lat="22.043020" lon="104.094650">
<ele>377.340088</ele>
<time>2011-04-26T08:56:20Z</time>
<desc>lat.=22.043020, lon.=104.094650, Alt.=377.340088m. Speed=1.800000m/h.</desc>
<speed>0.500000</speed>
</trkpt>
<trkpt lat="22.043036" lon="104.094673">
<ele>377.496338</ele>
<time>2011-04-26T08:56:25Z</time>
<desc>lat.=22.043036, lon.=104.094673, Alt.=377.496338m. Speed=2.880000m/h.</desc>
<speed>0.800000</speed>
</trkpt>
<trkpt lat="22.043076" lon="104.094711">
<ele>377.926025</ele>
<time>2011-04-26T08:56:30Z</time>
<desc>lat.=22.043076, lon.=104.094711, Alt.=377.926025m. Speed=1.872000m/h.</desc>
<speed>0.520000</speed>
</trkpt>
<trkpt lat="22.043116" lon="104.094772">
<ele>378.465088</ele>
<time>2011-04-26T08:56:35Z</time>
<desc>lat.=22.043116, lon.=104.094772, Alt.=378.465088m. Speed=2.268000m/h.</desc>
<speed>0.630000</speed>
</trkpt>
<trkpt lat="22.043163" lon="104.094826">
<ele>379.105713</ele>
<time>2011-04-26T08:56:40Z</time>
<desc>lat.=22.043163, lon.=104.094826, Alt.=379.105713m. Speed=3.348000m/h.</desc>
<speed>0.930000</speed>
</trkpt>
<trkpt lat="22.043201" lon="104.094872">
<ele>379.168213</ele>
<time>2011-04-26T08:56:45Z</time>
<desc>lat.=22.043201, lon.=104.094872, Alt.=379.168213m. Speed=3.204000m/h.</desc>
<speed>0.890000</speed>
</trkpt>
<trkpt lat="22.043262" lon="104.094933">
<ele>379.777588</ele>
<time>2011-04-26T08:56:50Z</time>
<desc>lat.=22.043262, lon.=104.094933, Alt.=379.777588m. Speed=4.464000m/h.</desc>
<speed>1.240000</speed>
</trkpt>
<trkpt lat="22.043324" lon="104.094978">
<ele>380.574463</ele>
<time>2011-04-26T08:56:55Z</time>
<desc>lat.=22.043324, lon.=104.094978, Alt.=380.574463m. Speed=1.476000m/h.</desc>
<speed>0.410000</speed>
</trkpt>
<trkpt lat="22.043339" lon="104.094986">
<ele>381.105713</ele>
<time>2011-04-26T08:57:00Z</time>
<desc>lat.=22.043339, lon.=104.094986, Alt.=381.105713m. Speed=0.684000m/h.</desc>
<speed>0.190000</speed>
</trkpt>
<trkpt lat="22.043335" lon="104.094994">
<ele>381.293213</ele>
<time>2011-04-26T08:57:05Z</time>
<desc>lat.=22.043335, lon.=104.094994, Alt.=381.293213m. Speed=0.288000m/h.</desc>
<speed>0.080000</speed>
</trkpt>
<trkpt lat="22.043335" lon="104.095016">
<ele>381.535400</ele>
<time>2011-04-26T08:57:10Z</time>
<desc>lat.=22.043335, lon.=104.095016, Alt.=381.535400m. Speed=0.648000m/h.</desc>
<speed>0.180000</speed>
</trkpt>
<trkpt lat="22.043356" lon="104.095047">
<ele>381.652588</ele>
<time>2011-04-26T08:57:15Z</time>
<desc>lat.=22.043356, lon.=104.095047, Alt.=381.652588m. Speed=2.124000m/h.</desc>
<speed>0.590000</speed>
</trkpt>
<trkpt lat="22.043396" lon="104.095093">
<ele>381.543213</ele>
<time>2011-04-26T08:57:20Z</time>
<desc>lat.=22.043396, lon.=104.095093, Alt.=381.543213m. Speed=3.888000m/h.</desc>
<speed>1.080000</speed>
</trkpt>
<trkpt lat="22.043430" lon="104.095154">
<ele>381.324463</ele>
<time>2011-04-26T08:57:25Z</time>
<desc>lat.=22.043430, lon.=104.095154, Alt.=381.324463m. Speed=5.796000m/h.</desc>
<speed>1.610000</speed>
</trkpt>
<trkpt lat="22.043463" lon="104.095215">
<ele>381.277588</ele>
<time>2011-04-26T08:57:30Z</time>
<desc>lat.=22.043463, lon.=104.095215, Alt.=381.277588m. Speed=4.968000m/h.</desc>
<speed>1.380000</speed>
</trkpt>
<trkpt lat="22.043486" lon="104.095268">
<ele>380.863525</ele>
<time>2011-04-26T08:57:35Z</time>
<desc>lat.=22.043486, lon.=104.095268, Alt.=380.863525m. Speed=4.896000m/h.</desc>
<speed>1.360000</speed>
</trkpt>
<trkpt lat="22.043524" lon="104.095329">
<ele>380.886963</ele>
<time>2011-04-26T08:57:40Z</time>
<desc>lat.=22.043524, lon.=104.095329, Alt.=380.886963m. Speed=4.392000m/h.</desc>
<speed>1.220000</speed>
</trkpt>
<trkpt lat="22.043554" lon="104.095383">
<ele>381.097900</ele>
<time>2011-04-26T08:57:45Z</time>
<desc>lat.=22.043554, lon.=104.095383, Alt.=381.097900m. Speed=4.284000m/h.</desc>
<speed>1.190000</speed>
</trkpt>
<trkpt lat="22.043627" lon="104.095406">
<ele>381.246338</ele>
<time>2011-04-26T08:57:50Z</time>
<desc>lat.=22.043627, lon.=104.095406, Alt.=381.246338m. Speed=4.572000m/h.</desc>
<speed>1.270000</speed>
</trkpt>
<trkpt lat="22.043652" lon="104.095444">
<ele>381.629150</ele>
<time>2011-04-26T08:57:55Z</time>
<desc>lat.=22.043652, lon.=104.095444, Alt.=381.629150m. Speed=4.140000m/h.</desc>
<speed>1.150000</speed>
</trkpt>
<trkpt lat="22.043682" lon="104.095497">
<ele>381.902588</ele>
<time>2011-04-26T08:58:00Z</time>
<desc>lat.=22.043682, lon.=104.095497, Alt.=381.902588m. Speed=2.304000m/h.</desc>
<speed>0.640000</speed>
</trkpt>
<trkpt lat="22.043732" lon="104.095551">
<ele>382.152588</ele>
<time>2011-04-26T08:58:05Z</time>
<desc>lat.=22.043732, lon.=104.095551, Alt.=382.152588m. Speed=4.968000m/h.</desc>
<speed>1.380000</speed>
</trkpt>
<trkpt lat="22.043772" lon="104.095596">
<ele>382.558838</ele>
<time>2011-04-26T08:58:10Z</time>
<desc>lat.=22.043772, lon.=104.095596, Alt.=382.558838m. Speed=4.788000m/h.</desc>
<speed>1.330000</speed>
</trkpt>
<trkpt lat="22.043819" lon="104.095665">
<ele>385.340088</ele>
<time>2011-04-26T08:58:15Z</time>
<desc>lat.=22.043819, lon.=104.095665, Alt.=385.340088m. Speed=6.300000m/h.</desc>
<speed>1.750000</speed>
</trkpt>
<trkpt lat="22.043854" lon="104.095718">
<ele>385.879150</ele>
<time>2011-04-26T08:58:20Z</time>
<desc>lat.=22.043854, lon.=104.095718, Alt.=385.879150m. Speed=5.364000m/h.</desc>
<speed>1.490000</speed>
</trkpt>
<trkpt lat="22.043882" lon="104.095787">
<ele>386.715088</ele>
<time>2011-04-26T08:58:25Z</time>
<desc>lat.=22.043882, lon.=104.095787, Alt.=386.715088m. Speed=4.392000m/h.</desc>
<speed>1.220000</speed>
</trkpt>
<trkpt lat="22.043903" lon="104.095840">
<ele>387.504150</ele>
<time>2011-04-26T08:58:30Z</time>
<desc>lat.=22.043903, lon.=104.095840, Alt.=387.504150m. Speed=3.564000m/h.</desc>
<speed>0.990000</speed>
</trkpt>
<trkpt lat="22.043928" lon="104.095871">
<ele>387.558838</ele>
<time>2011-04-26T08:58:35Z</time>
<desc>lat.=22.043928, lon.=104.095871, Alt.=387.558838m. Speed=3.600000m/h.</desc>
<speed>1.000000</speed>
</trkpt>
<trkpt lat="22.043955" lon="104.095917">
<ele>387.996338</ele>
<time>2011-04-26T08:58:40Z</time>
<desc>lat.=22.043955, lon.=104.095917, Alt.=387.996338m. Speed=4.464000m/h.</desc>
<speed>1.240000</speed>
</trkpt>
<trkpt lat="22.043985" lon="104.095970">
<ele>388.879150</ele>
<time>2011-04-26T08:58:45Z</time>
<desc>lat.=22.043985, lon.=104.095970, Alt.=388.879150m. Speed=3.672000m/h.</desc>
<speed>1.020000</speed>
</trkpt>
<trkpt lat="22.044008" lon="104.096016">
<ele>389.801025</ele>
<time>2011-04-26T08:58:50Z</time>
<desc>lat.=22.044008, lon.=104.096016, Alt.=389.801025m. Speed=5.256000m/h.</desc>
<speed>1.460000</speed>
</trkpt>
<trkpt lat="22.044035" lon="104.096092">
<ele>390.871338</ele>
<time>2011-04-26T08:58:55Z</time>
<desc>lat.=22.044035, lon.=104.096092, Alt.=390.871338m. Speed=5.076000m/h.</desc>
<speed>1.410000</speed>
</trkpt>
<trkpt lat="22.044048" lon="104.096146">
<ele>392.019775</ele>
<time>2011-04-26T08:59:00Z</time>
<desc>lat.=22.044048, lon.=104.096146, Alt.=392.019775m. Speed=3.816000m/h.</desc>
<speed>1.060000</speed>
</trkpt>
<trkpt lat="22.044060" lon="104.096176">
<ele>393.207275</ele>
<time>2011-04-26T08:59:05Z</time>
<desc>lat.=22.044060, lon.=104.096176, Alt.=393.207275m. Speed=2.952000m/h.</desc>
<speed>0.820000</speed>
</trkpt>
<trkpt lat="22.044075" lon="104.096237">
<ele>394.441650</ele>
<time>2011-04-26T08:59:10Z</time>
<desc>lat.=22.044075, lon.=104.096237, Alt.=394.441650m. Speed=3.600000m/h.</desc>
<speed>1.000000</speed>
</trkpt>
<trkpt lat="22.044064" lon="104.096283">
<ele>395.105713</ele>
<time>2011-04-26T08:59:15Z</time>
<desc>lat.=22.044064, lon.=104.096283, Alt.=395.105713m. Speed=0.144000m/h.</desc>
<speed>0.040000</speed>
</trkpt>
<trkpt lat="22.044062" lon="104.096283">
<ele>395.480713</ele>
<time>2011-04-26T08:59:20Z</time>
<desc>lat.=22.044062, lon.=104.096283, Alt.=395.480713m. Speed=0.216000m/h.</desc>
<speed>0.060000</speed>
</trkpt>
<trkpt lat="22.044058" lon="104.096291">
<ele>395.738525</ele>
<time>2011-04-26T08:59:25Z</time>
<desc>lat.=22.044058, lon.=104.096291, Alt.=395.738525m. Speed=0.504000m/h.</desc>
<speed>0.140000</speed>
</trkpt>
<trkpt lat="22.044060" lon="104.096298">
<ele>395.988525</ele>
<time>2011-04-26T08:59:30Z</time>
<desc>lat.=22.044060, lon.=104.096298, Alt.=395.988525m. Speed=0.828000m/h.</desc>
<speed>0.230000</speed>
</trkpt>
<trkpt lat="22.044062" lon="104.096306">
<ele>396.230713</ele>
<time>2011-04-26T08:59:35Z</time>
<desc>lat.=22.044062, lon.=104.096306, Alt.=396.230713m. Speed=0.756000m/h.</desc>
<speed>0.210000</speed>
</trkpt>
<trkpt lat="22.044064" lon="104.096321">
<ele>396.472900</ele>
<time>2011-04-26T08:59:40Z</time>
<desc>lat.=22.044064, lon.=104.096321, Alt.=396.472900m. Speed=0.540000m/h.</desc>
<speed>0.150000</speed>
</trkpt>
<trkpt lat="22.044065" lon="104.096321">
<ele>396.715088</ele>
<time>2011-04-26T08:59:45Z</time>
<desc>lat.=22.044065, lon.=104.096321, Alt.=396.715088m. Speed=0.504000m/h.</desc>
<speed>0.140000</speed>
</trkpt>
<trkpt lat="22.044067" lon="104.096329">
<ele>396.957275</ele>
<time>2011-04-26T08:59:50Z</time>
<desc>lat.=22.044067, lon.=104.096329, Alt.=396.957275m. Speed=0.360000m/h.</desc>
<speed>0.100000</speed>
</trkpt>
<trkpt lat="22.044069" lon="104.096336">
<ele>397.207275</ele>
<time>2011-04-26T08:59:55Z</time>
<desc>lat.=22.044069, lon.=104.096336, Alt.=397.207275m. Speed=0.072000m/h.</desc>
<speed>0.020000</speed>
</trkpt>
<trkpt lat="22.044069" lon="104.096329">
<ele>397.457275</ele>
<time>2011-04-26T09:00:00Z</time>
<desc>lat.=22.044069, lon.=104.096329, Alt.=397.457275m. Speed=0.216000m/h.</desc>
<speed>0.060000</speed>
</trkpt>
<trkpt lat="22.044071" lon="104.096329">
<ele>397.699463</ele>
<time>2011-04-26T09:00:05Z</time>
<desc>lat.=22.044071, lon.=104.096329, Alt.=397.699463m. Speed=0.360000m/h.</desc>
<speed>0.100000</speed>
</trkpt>
<trkpt lat="22.044075" lon="104.096321">
<ele>397.949463</ele>
<time>2011-04-26T09:00:10Z</time>
<desc>lat.=22.044075, lon.=104.096321, Alt.=397.949463m. Speed=0.324000m/h.</desc>
<speed>0.090000</speed>
</trkpt>
<trkpt lat="22.044079" lon="104.096321">
<ele>398.191650</ele>
<time>2011-04-26T09:00:15Z</time>
<desc>lat.=22.044079, lon.=104.096321, Alt.=398.191650m. Speed=0.612000m/h.</desc>
<speed>0.170000</speed>
</trkpt>
<trkpt lat="22.044083" lon="104.096313">
<ele>398.433838</ele>
<time>2011-04-26T09:00:20Z</time>
<desc>lat.=22.044083, lon.=104.096313, Alt.=398.433838m. Speed=0.036000m/h.</desc>
<speed>0.010000</speed>
</trkpt>
<trkpt lat="22.044081" lon="104.096313">
<ele>398.676025</ele>
<time>2011-04-26T09:00:25Z</time>
<desc>lat.=22.044081, lon.=104.096313, Alt.=398.676025m. Speed=0.396000m/h.</desc>
<speed>0.110000</speed>
</trkpt>
<trkpt lat="22.044079" lon="104.096313">
<ele>398.918213</ele>
<time>2011-04-26T09:00:30Z</time>
<desc>lat.=22.044079, lon.=104.096313, Alt.=398.918213m. Speed=0.072000m/h.</desc>
<speed>0.020000</speed>
</trkpt>
<trkpt lat="22.044079" lon="104.096313">
<ele>398.926025</ele>
<time>2011-04-26T09:00:35Z</time>
<desc>lat.=22.044079, lon.=104.096313, Alt.=398.926025m. Speed=0.000000m/h.</desc>
<speed>0.000000</speed>
</trkpt>
<trkpt lat="22.044079" lon="104.096313">
<ele>398.926025</ele>
<time>2011-04-26T09:00:40Z</time>
<desc>lat.=22.044079, lon.=104.096313, Alt.=398.926025m. Speed=0.036000m/h.</desc>
<speed>0.010000</speed>
</trkpt>
<trkpt lat="22.044079" lon="104.096313">
<ele>398.926025</ele>
<time>2011-04-26T09:00:45Z</time>
<desc>lat.=22.044079, lon.=104.096313, Alt.=398.926025m. Speed=0.000000m/h.</desc>
<speed>0.000000</speed>
</trkpt>
<trkpt lat="22.044079" lon="104.096321">
<ele>398.933838</ele>
<time>2011-04-26T09:00:50Z</time>
<desc>lat.=22.044079, lon.=104.096321, Alt.=398.933838m. Speed=0.036000m/h.</desc>
<speed>0.010000</speed>
</trkpt>
<trkpt lat="22.044079" lon="104.096321">
<ele>398.926025</ele>
<time>2011-04-26T09:00:55Z</time>
<desc>lat.=22.044079, lon.=104.096321, Alt.=398.926025m. Speed=0.144000m/h.</desc>
<speed>0.040000</speed>
</trkpt>
<trkpt lat="22.044081" lon="104.096321">
<ele>398.926025</ele>
<time>2011-04-26T09:01:00Z</time>
<desc>lat.=22.044081, lon.=104.096321, Alt.=398.926025m. Speed=0.216000m/h.</desc>
<speed>0.060000</speed>
</trkpt>
<trkpt lat="22.044085" lon="104.096321">
<ele>398.918213</ele>
<time>2011-04-26T09:01:05Z</time>
<desc>lat.=22.044085, lon.=104.096321, Alt.=398.918213m. Speed=0.432000m/h.</desc>
<speed>0.120000</speed>
</trkpt>
<trkpt lat="22.044088" lon="104.096329">
<ele>398.910400</ele>
<time>2011-04-26T09:01:10Z</time>
<desc>lat.=22.044088, lon.=104.096329, Alt.=398.910400m. Speed=0.396000m/h.</desc>
<speed>0.110000</speed>
</trkpt>
<trkpt lat="22.044092" lon="104.096336">
<ele>398.910400</ele>
<time>2011-04-26T09:01:15Z</time>
<desc>lat.=22.044092, lon.=104.096336, Alt.=398.910400m. Speed=0.360000m/h.</desc>
<speed>0.100000</speed>
</trkpt>
<trkpt lat="22.044094" lon="104.096336">
<ele>398.902588</ele>
<time>2011-04-26T09:01:20Z</time>
<desc>lat.=22.044094, lon.=104.096336, Alt.=398.902588m. Speed=0.288000m/h.</desc>
<speed>0.080000</speed>
</trkpt>
<trkpt lat="22.044096" lon="104.096336">
<ele>398.894775</ele>
<time>2011-04-26T09:01:25Z</time>
<desc>lat.=22.044096, lon.=104.096336, Alt.=398.894775m. Speed=0.216000m/h.</desc>
<speed>0.060000</speed>
</trkpt>
<trkpt lat="22.044098" lon="104.096344">
<ele>398.894775</ele>
<time>2011-04-26T09:01:30Z</time>
<desc>lat.=22.044098, lon.=104.096344, Alt.=398.894775m. Speed=0.072000m/h.</desc>
<speed>0.020000</speed>
</trkpt>
<trkpt lat="22.044096" lon="104.096344">
<ele>398.894775</ele>
<time>2011-04-26T09:01:35Z</time>
<desc>lat.=22.044096, lon.=104.096344, Alt.=398.894775m. Speed=0.072000m/h.</desc>
<speed>0.020000</speed>
</trkpt>
<trkpt lat="22.044096" lon="104.096344">
<ele>398.894775</ele>
<time>2011-04-26T09:01:40Z</time>
<desc>lat.=22.044096, lon.=104.096344, Alt.=398.894775m. Speed=0.036000m/h.</desc>
<speed>0.010000</speed>
</trkpt>
<trkpt lat="22.044096" lon="104.096344">
<ele>398.894775</ele>
<time>2011-04-26T09:01:45Z</time>
<desc>lat.=22.044096, lon.=104.096344, Alt.=398.894775m. Speed=0.000000m/h.</desc>
<speed>0.000000</speed>
</trkpt>
<trkpt lat="22.044096" lon="104.096344">
<ele>398.902588</ele>
<time>2011-04-26T09:01:50Z</time>
<desc>lat.=22.044096, lon.=104.096344, Alt.=398.902588m. Speed=0.000000m/h.</desc>
<speed>0.000000</speed>
</trkpt>
<trkpt lat="22.044094" lon="104.096344">
<ele>398.910400</ele>
<time>2011-04-26T09:01:55Z</time>
<desc>lat.=22.044094, lon.=104.096344, Alt.=398.910400m. Speed=0.036000m/h.</desc>
<speed>0.010000</speed>
</trkpt>
<trkpt lat="22.044094" lon="104.096336">
<ele>398.910400</ele>
<time>2011-04-26T09:02:00Z</time>
<desc>lat.=22.044094, lon.=104.096336, Alt.=398.910400m. Speed=0.000000m/h.</desc>
<speed>0.000000</speed>
</trkpt>
<trkpt lat="22.044094" lon="104.096336">
<ele>398.910400</ele>
<time>2011-04-26T09:02:05Z</time>
<desc>lat.=22.044094, lon.=104.096336, Alt.=398.910400m. Speed=0.036000m/h.</desc>
<speed>0.010000</speed>
</trkpt>
<trkpt lat="22.044094" lon="104.096336">
<ele>398.918213</ele>
<time>2011-04-26T09:02:10Z</time>
<desc>lat.=22.044094, lon.=104.096336, Alt.=398.918213m. Speed=0.000000m/h.</desc>
<speed>0.000000</speed>
</trkpt>
<trkpt lat="22.044094" lon="104.096344">
<ele>398.926025</ele>
<time>2011-04-26T09:02:15Z</time>
<desc>lat.=22.044094, lon.=104.096344, Alt.=398.926025m. Speed=0.036000m/h.</desc>
<speed>0.010000</speed>
</trkpt>
<trkpt lat="22.044094" lon="104.096344">
<ele>398.926025</ele>
<time>2011-04-26T09:02:20Z</time>
<desc>lat.=22.044094, lon.=104.096344, Alt.=398.926025m. Speed=0.000000m/h.</desc>
<speed>0.000000</speed>
</trkpt>
<trkpt lat="22.044094" lon="104.096344">
<ele>398.926025</ele>
<time>2011-04-26T09:02:25Z</time>
<desc>lat.=22.044094, lon.=104.096344, Alt.=398.926025m. Speed=0.072000m/h.</desc>
<speed>0.020000</speed>
</trkpt>
<trkpt lat="22.044094" lon="104.096344">
<ele>398.926025</ele>
<time>2011-04-26T09:02:30Z</time>
<desc>lat.=22.044094, lon.=104.096344, Alt.=398.926025m. Speed=0.036000m/h.</desc>
<speed>0.010000</speed>
</trkpt>
<trkpt lat="22.044094" lon="104.096344">
<ele>398.949463</ele>
<time>2011-04-26T09:02:35Z</time>
<desc>lat.=22.044094, lon.=104.096344, Alt.=398.949463m. Speed=0.036000m/h.</desc>
<speed>0.010000</speed>
</trkpt>
<trkpt lat="22.044094" lon="104.096344">
<ele>398.972900</ele>
<time>2011-04-26T09:02:40Z</time>
<desc>lat.=22.044094, lon.=104.096344, Alt.=398.972900m. Speed=0.036000m/h.</desc>
<speed>0.010000</speed>
</trkpt>
<trkpt lat="22.044094" lon="104.096344">
<ele>398.996338</ele>
<time>2011-04-26T09:02:45Z</time>
<desc>lat.=22.044094, lon.=104.096344, Alt.=398.996338m. Speed=0.036000m/h.</desc>
<speed>0.010000</speed>
</trkpt>
<trkpt lat="22.044094" lon="104.096344">
<ele>399.019775</ele>
<time>2011-04-26T09:02:50Z</time>
<desc>lat.=22.044094, lon.=104.096344, Alt.=399.019775m. Speed=0.036000m/h.</desc>
<speed>0.010000</speed>
</trkpt>
<trkpt lat="22.044092" lon="104.096344">
<ele>399.043213</ele>
<time>2011-04-26T09:02:55Z</time>
<desc>lat.=22.044092, lon.=104.096344, Alt.=399.043213m. Speed=0.000000m/h.</desc>
<speed>0.000000</speed>
</trkpt>
<trkpt lat="22.044092" lon="104.096344">
<ele>399.043213</ele>
<time>2011-04-26T09:03:00Z</time>
<desc>lat.=22.044092, lon.=104.096344, Alt.=399.043213m. Speed=0.108000m/h.</desc>
<speed>0.030000</speed>
</trkpt>
<trkpt lat="22.044094" lon="104.096344">
<ele>399.058838</ele>
<time>2011-04-26T09:03:05Z</time>
<desc>lat.=22.044094, lon.=104.096344, Alt.=399.058838m. Speed=0.036000m/h.</desc>
<speed>0.010000</speed>
</trkpt>
<trkpt lat="22.044094" lon="104.096344">
<ele>399.090088</ele>
<time>2011-04-26T09:03:10Z</time>
<desc>lat.=22.044094, lon.=104.096344, Alt.=399.090088m. Speed=0.000000m/h.</desc>
<speed>0.000000</speed>
</trkpt>
<trkpt lat="22.044094" lon="104.096344">
<ele>399.121338</ele>
<time>2011-04-26T09:03:15Z</time>
<desc>lat.=22.044094, lon.=104.096344, Alt.=399.121338m. Speed=0.000000m/h.</desc>
<speed>0.000000</speed>
</trkpt>
<trkpt lat="22.044094" lon="104.096344">
<ele>399.152588</ele>
<time>2011-04-26T09:03:20Z</time>
<desc>lat.=22.044094, lon.=104.096344, Alt.=399.152588m. Speed=0.000000m/h.</desc>
<speed>0.000000</speed>
</trkpt>
<trkpt lat="22.044094" lon="104.096344">
<ele>399.183838</ele>
<time>2011-04-26T09:03:25Z</time>
<desc>lat.=22.044094, lon.=104.096344, Alt.=399.183838m. Speed=0.000000m/h.</desc>
<speed>0.000000</speed>
</trkpt>
<trkpt lat="22.044094" lon="104.096344">
<ele>399.222900</ele>
<time>2011-04-26T09:03:30Z</time>
<desc>lat.=22.044094, lon.=104.096344, Alt.=399.222900m. Speed=0.000000m/h.</desc>
<speed>0.000000</speed>
</trkpt>
<trkpt lat="22.044094" lon="104.096344">
<ele>399.254150</ele>
<time>2011-04-26T09:03:35Z</time>
<desc>lat.=22.044094, lon.=104.096344, Alt.=399.254150m. Speed=0.000000m/h.</desc>
<speed>0.000000</speed>
</trkpt>
<trkpt lat="22.044094" lon="104.096344">
<ele>399.293213</ele>
<time>2011-04-26T09:03:40Z</time>
<desc>lat.=22.044094, lon.=104.096344, Alt.=399.293213m. Speed=0.000000m/h.</desc>
<speed>0.000000</speed>
</trkpt>
<trkpt lat="22.044094" lon="104.096344">
<ele>399.316650</ele>
<time>2011-04-26T09:03:45Z</time>
<desc>lat.=22.044094, lon.=104.096344, Alt.=399.316650m. Speed=0.000000m/h.</desc>
<speed>0.000000</speed>
</trkpt>
<trkpt lat="22.044094" lon="104.096336">
<ele>399.332275</ele>
<time>2011-04-26T09:03:50Z</time>
<desc>lat.=22.044094, lon.=104.096336, Alt.=399.332275m. Speed=0.000000m/h.</desc>
<speed>0.000000</speed>
</trkpt>
<trkpt lat="22.044094" lon="104.096336">
<ele>399.355713</ele>
<time>2011-04-26T09:03:55Z</time>
<desc>lat.=22.044094, lon.=104.096336, Alt.=399.355713m. Speed=0.000000m/h.</desc>
<speed>0.000000</speed>
</trkpt>
<trkpt lat="22.044094" lon="104.096336">
<ele>399.363525</ele>
<time>2011-04-26T09:04:00Z</time>
<desc>lat.=22.044094, lon.=104.096336, Alt.=399.363525m. Speed=0.000000m/h.</desc>
<speed>0.000000</speed>
</trkpt>
<trkpt lat="22.044094" lon="104.096336">
<ele>399.386963</ele>
<time>2011-04-26T09:04:05Z</time>
<desc>lat.=22.044094, lon.=104.096336, Alt.=399.386963m. Speed=0.036000m/h.</desc>
<speed>0.010000</speed>
</trkpt>
<trkpt lat="22.044094" lon="104.096336">
<ele>399.402588</ele>
<time>2011-04-26T09:04:10Z</time>
<desc>lat.=22.044094, lon.=104.096336, Alt.=399.402588m. Speed=0.036000m/h.</desc>
<speed>0.010000</speed>
</trkpt>
<trkpt lat="22.044094" lon="104.096336">
<ele>399.418213</ele>
<time>2011-04-26T09:04:15Z</time>
<desc>lat.=22.044094, lon.=104.096336, Alt.=399.418213m. Speed=0.036000m/h.</desc>
<speed>0.010000</speed>
</trkpt>
<trkpt lat="22.044094" lon="104.096336">
<ele>399.433838</ele>
<time>2011-04-26T09:04:20Z</time>
<desc>lat.=22.044094, lon.=104.096336, Alt.=399.433838m. Speed=0.000000m/h.</desc>
<speed>0.000000</speed>
</trkpt>
<trkpt lat="22.044094" lon="104.096336">
<ele>399.449463</ele>
<time>2011-04-26T09:04:25Z</time>
<desc>lat.=22.044094, lon.=104.096336, Alt.=399.449463m. Speed=0.000000m/h.</desc>
<speed>0.000000</speed>
</trkpt>
<trkpt lat="22.044094" lon="104.096336">
<ele>399.472900</ele>
<time>2011-04-26T09:04:30Z</time>
<desc>lat.=22.044094, lon.=104.096336, Alt.=399.472900m. Speed=0.000000m/h.</desc>
<speed>0.000000</speed>
</trkpt>
<trkpt lat="22.044094" lon="104.096336">
<ele>399.488525</ele>
<time>2011-04-26T09:04:35Z</time>
<desc>lat.=22.044094, lon.=104.096336, Alt.=399.488525m. Speed=0.000000m/h.</desc>
<speed>0.000000</speed>
</trkpt>
<trkpt lat="22.044094" lon="104.096336">
<ele>399.511963</ele>
<time>2011-04-26T09:04:40Z</time>
<desc>lat.=22.044094, lon.=104.096336, Alt.=399.511963m. Speed=0.000000m/h.</desc>
<speed>0.000000</speed>
</trkpt>
<trkpt lat="22.044094" lon="104.096336">
<ele>399.543213</ele>
<time>2011-04-26T09:04:45Z</time>
<desc>lat.=22.044094, lon.=104.096336, Alt.=399.543213m. Speed=0.036000m/h.</desc>
<speed>0.010000</speed>
</trkpt>
<trkpt lat="22.044094" lon="104.096336">
<ele>399.551025</ele>
<time>2011-04-26T09:04:50Z</time>
<desc>lat.=22.044094, lon.=104.096336, Alt.=399.551025m. Speed=0.036000m/h.</desc>
<speed>0.010000</speed>
</trkpt>
<trkpt lat="22.044094" lon="104.096336">
<ele>399.582275</ele>
<time>2011-04-26T09:04:55Z</time>
<desc>lat.=22.044094, lon.=104.096336, Alt.=399.582275m. Speed=0.036000m/h.</desc>
<speed>0.010000</speed>
</trkpt>
<trkpt lat="22.044094" lon="104.096336">
<ele>399.605713</ele>
<time>2011-04-26T09:05:00Z</time>
<desc>lat.=22.044094, lon.=104.096336, Alt.=399.605713m. Speed=0.036000m/h.</desc>
<speed>0.010000</speed>
</trkpt>
<trkpt lat="22.044094" lon="104.096336">
<ele>399.621338</ele>
<time>2011-04-26T09:05:05Z</time>
<desc>lat.=22.044094, lon.=104.096336, Alt.=399.621338m. Speed=0.036000m/h.</desc>
<speed>0.010000</speed>
</trkpt>
<trkpt lat="22.044094" lon="104.096344">
<ele>399.644775</ele>
<time>2011-04-26T09:05:10Z</time>
<desc>lat.=22.044094, lon.=104.096344, Alt.=399.644775m. Speed=0.000000m/h.</desc>
<speed>0.000000</speed>
</trkpt>
<trkpt lat="22.044094" lon="104.096344">
<ele>399.676025</ele>
<time>2011-04-26T09:05:15Z</time>
<desc>lat.=22.044094, lon.=104.096344, Alt.=399.676025m. Speed=0.036000m/h.</desc>
<speed>0.010000</speed>
</trkpt>
<trkpt lat="22.044094" lon="104.096336">
<ele>399.715088</ele>
<time>2011-04-26T09:05:20Z</time>
<desc>lat.=22.044094, lon.=104.096336, Alt.=399.715088m. Speed=0.000000m/h.</desc>
<speed>0.000000</speed>
</trkpt>
<trkpt lat="22.044094" lon="104.096344">
<ele>399.746338</ele>
<time>2011-04-26T09:05:25Z</time>
<desc>lat.=22.044094, lon.=104.096344, Alt.=399.746338m. Speed=0.036000m/h.</desc>
<speed>0.010000</speed>
</trkpt>
<trkpt lat="22.044094" lon="104.096344">
<ele>399.785400</ele>
<time>2011-04-26T09:05:30Z</time>
<desc>lat.=22.044094, lon.=104.096344, Alt.=399.785400m. Speed=0.036000m/h.</desc>
<speed>0.010000</speed>
</trkpt>
<trkpt lat="22.044094" lon="104.096344">
<ele>399.816650</ele>
<time>2011-04-26T09:05:35Z</time>
<desc>lat.=22.044094, lon.=104.096344, Alt.=399.816650m. Speed=0.036000m/h.</desc>
<speed>0.010000</speed>
</trkpt>
<trkpt lat="22.044094" lon="104.096344">
<ele>399.855713</ele>
<time>2011-04-26T09:05:40Z</time>
<desc>lat.=22.044094, lon.=104.096344, Alt.=399.855713m. Speed=0.000000m/h.</desc>
<speed>0.000000</speed>
</trkpt>
<trkpt lat="22.044094" lon="104.096344">
<ele>399.886963</ele>
<time>2011-04-26T09:05:45Z</time>
<desc>lat.=22.044094, lon.=104.096344, Alt.=399.886963m. Speed=0.036000m/h.</desc>
<speed>0.010000</speed>
</trkpt>
<trkpt lat="22.044094" lon="104.096344">
<ele>399.926025</ele>
<time>2011-04-26T09:05:50Z</time>
<desc>lat.=22.044094, lon.=104.096344, Alt.=399.926025m. Speed=0.000000m/h.</desc>
<speed>0.000000</speed>
</trkpt>
<trkpt lat="22.044094" lon="104.096344">
<ele>399.933838</ele>
<time>2011-04-26T09:05:55Z</time>
<desc>lat.=22.044094, lon.=104.096344, Alt.=399.933838m. Speed=0.072000m/h.</desc>
<speed>0.020000</speed>
</trkpt>
<trkpt lat="22.044094" lon="104.096344">
<ele>399.941650</ele>
<time>2011-04-26T09:06:00Z</time>
<desc>lat.=22.044094, lon.=104.096344, Alt.=399.941650m. Speed=0.000000m/h.</desc>
<speed>0.000000</speed>
</trkpt>
<trkpt lat="22.044094" lon="104.096344">
<ele>399.988525</ele>
<time>2011-04-26T09:06:05Z</time>
<desc>lat.=22.044094, lon.=104.096344, Alt.=399.988525m. Speed=0.036000m/h.</desc>
<speed>0.010000</speed>
</trkpt>
<trkpt lat="22.044094" lon="104.096336">
<ele>400.011963</ele>
<time>2011-04-26T09:06:10Z</time>
<desc>lat.=22.044094, lon.=104.096336, Alt.=400.011963m. Speed=0.000000m/h.</desc>
<speed>0.000000</speed>
</trkpt>
<trkpt lat="22.044096" lon="104.096336">
<ele>400.051025</ele>
<time>2011-04-26T09:06:15Z</time>
<desc>lat.=22.044096, lon.=104.096336, Alt.=400.051025m. Speed=0.036000m/h.</desc>
<speed>0.010000</speed>
</trkpt>
<trkpt lat="22.044096" lon="104.096336">
<ele>400.074463</ele>
<time>2011-04-26T09:06:20Z</time>
<desc>lat.=22.044096, lon.=104.096336, Alt.=400.074463m. Speed=0.036000m/h.</desc>
<speed>0.010000</speed>
</trkpt>
<trkpt lat="22.044096" lon="104.096336">
<ele>400.097900</ele>
<time>2011-04-26T09:06:25Z</time>
<desc>lat.=22.044096, lon.=104.096336, Alt.=400.097900m. Speed=0.000000m/h.</desc>
<speed>0.000000</speed>
</trkpt>
<trkpt lat="22.044096" lon="104.096336">
<ele>400.129150</ele>
<time>2011-04-26T09:06:30Z</time>
<desc>lat.=22.044096, lon.=104.096336, Alt.=400.129150m. Speed=0.000000m/h.</desc>
<speed>0.000000</speed>
</trkpt>
<trkpt lat="22.044096" lon="104.096336">
<ele>400.129150</ele>
<time>2011-04-26T09:06:35Z</time>
<desc>lat.=22.044096, lon.=104.096336, Alt.=400.129150m. Speed=0.000000m/h.</desc>
<speed>0.000000</speed>
</trkpt>
<trkpt lat="22.044096" lon="104.096336">
<ele>400.168213</ele>
<time>2011-04-26T09:06:40Z</time>
<desc>lat.=22.044096, lon.=104.096336, Alt.=400.168213m. Speed=0.036000m/h.</desc>
<speed>0.010000</speed>
</trkpt>
<trkpt lat="22.044096" lon="104.096336">
<ele>400.222900</ele>
<time>2011-04-26T09:06:45Z</time>
<desc>lat.=22.044096, lon.=104.096336, Alt.=400.222900m. Speed=0.000000m/h.</desc>
<speed>0.000000</speed>
</trkpt>
<trkpt lat="22.044096" lon="104.096336">
<ele>400.269775</ele>
<time>2011-04-26T09:06:50Z</time>
<desc>lat.=22.044096, lon.=104.096336, Alt.=400.269775m. Speed=0.072000m/h.</desc>
<speed>0.020000</speed>
</trkpt>
<trkpt lat="22.044096" lon="104.096336">
<ele>400.293213</ele>
<time>2011-04-26T09:06:55Z</time>
<desc>lat.=22.044096, lon.=104.096336, Alt.=400.293213m. Speed=0.036000m/h.</desc>
<speed>0.010000</speed>
</trkpt>
<trkpt lat="22.044096" lon="104.096336">
<ele>400.308838</ele>
<time>2011-04-26T09:07:00Z</time>
<desc>lat.=22.044096, lon.=104.096336, Alt.=400.308838m. Speed=0.000000m/h.</desc>
<speed>0.000000</speed>
</trkpt>
<trkpt lat="22.044096" lon="104.096336">
<ele>400.340088</ele>
<time>2011-04-26T09:07:05Z</time>
<desc>lat.=22.044096, lon.=104.096336, Alt.=400.340088m. Speed=0.000000m/h.</desc>
<speed>0.000000</speed>
</trkpt>
<trkpt lat="22.044096" lon="104.096336">
<ele>400.371338</ele>
<time>2011-04-26T09:07:10Z</time>
<desc>lat.=22.044096, lon.=104.096336, Alt.=400.371338m. Speed=0.036000m/h.</desc>
<speed>0.010000</speed>
</trkpt>
<trkpt lat="22.044096" lon="104.096336">
<ele>400.394775</ele>
<time>2011-04-26T09:07:15Z</time>
<desc>lat.=22.044096, lon.=104.096336, Alt.=400.394775m. Speed=0.000000m/h.</desc>
<speed>0.000000</speed>
</trkpt>
<trkpt lat="22.044096" lon="104.096336">
<ele>400.441650</ele>
<time>2011-04-26T09:07:20Z</time>
<desc>lat.=22.044096, lon.=104.096336, Alt.=400.441650m. Speed=0.000000m/h.</desc>
<speed>0.000000</speed>
</trkpt>
<trkpt lat="22.044096" lon="104.096336">
<ele>400.480713</ele>
<time>2011-04-26T09:07:25Z</time>
<desc>lat.=22.044096, lon.=104.096336, Alt.=400.480713m. Speed=0.000000m/h.</desc>
<speed>0.000000</speed>
</trkpt>
<trkpt lat="22.044096" lon="104.096336">
<ele>400.504150</ele>
<time>2011-04-26T09:07:30Z</time>
<desc>lat.=22.044096, lon.=104.096336, Alt.=400.504150m. Speed=0.036000m/h.</desc>
<speed>0.010000</speed>
</trkpt>
<trkpt lat="22.044096" lon="104.096336">
<ele>400.527588</ele>
<time>2011-04-26T09:07:35Z</time>
<desc>lat.=22.044096, lon.=104.096336, Alt.=400.527588m. Speed=0.036000m/h.</desc>
<speed>0.010000</speed>
</trkpt>
<trkpt lat="22.044098" lon="104.096336">
<ele>400.582275</ele>
<time>2011-04-26T09:07:40Z</time>
<desc>lat.=22.044098, lon.=104.096336, Alt.=400.582275m. Speed=0.036000m/h.</desc>
<speed>0.010000</speed>
</trkpt>
<trkpt lat="22.044098" lon="104.096336">
<ele>400.636963</ele>
<time>2011-04-26T09:07:45Z</time>
<desc>lat.=22.044098, lon.=104.096336, Alt.=400.636963m. Speed=0.000000m/h.</desc>
<speed>0.000000</speed>
</trkpt>
<trkpt lat="22.044098" lon="104.096336">
<ele>400.668213</ele>
<time>2011-04-26T09:07:50Z</time>
<desc>lat.=22.044098, lon.=104.096336, Alt.=400.668213m. Speed=0.036000m/h.</desc>
<speed>0.010000</speed>
</trkpt>
<trkpt lat="22.044098" lon="104.096336">
<ele>400.660400</ele>
<time>2011-04-26T09:07:55Z</time>
<desc>lat.=22.044098, lon.=104.096336, Alt.=400.660400m. Speed=0.036000m/h.</desc>
<speed>0.010000</speed>
</trkpt>
<trkpt lat="22.044098" lon="104.096336">
<ele>400.683838</ele>
<time>2011-04-26T09:08:00Z</time>
<desc>lat.=22.044098, lon.=104.096336, Alt.=400.683838m. Speed=0.072000m/h.</desc>
<speed>0.020000</speed>
</trkpt>
<trkpt lat="22.044098" lon="104.096336">
<ele>400.707275</ele>
<time>2011-04-26T09:08:05Z</time>
<desc>lat.=22.044098, lon.=104.096336, Alt.=400.707275m. Speed=0.036000m/h.</desc>
<speed>0.010000</speed>
</trkpt>
<trkpt lat="22.044098" lon="104.096336">
<ele>400.722900</ele>
<time>2011-04-26T09:08:10Z</time>
<desc>lat.=22.044098, lon.=104.096336, Alt.=400.722900m. Speed=0.036000m/h.</desc>
<speed>0.010000</speed>
</trkpt>
<trkpt lat="22.044100" lon="104.096336">
<ele>400.746338</ele>
<time>2011-04-26T09:08:15Z</time>
<desc>lat.=22.044100, lon.=104.096336, Alt.=400.746338m. Speed=0.036000m/h.</desc>
<speed>0.010000</speed>
</trkpt>
<trkpt lat="22.044100" lon="104.096336">
<ele>400.769775</ele>
<time>2011-04-26T09:08:20Z</time>
<desc>lat.=22.044100, lon.=104.096336, Alt.=400.769775m. Speed=0.000000m/h.</desc>
<speed>0.000000</speed>
</trkpt>
<trkpt lat="22.044100" lon="104.096336">
<ele>400.801025</ele>
<time>2011-04-26T09:08:25Z</time>
<desc>lat.=22.044100, lon.=104.096336, Alt.=400.801025m. Speed=0.000000m/h.</desc>
<speed>0.000000</speed>
</trkpt>
<trkpt lat="22.044100" lon="104.096336">
<ele>400.816650</ele>
<time>2011-04-26T09:08:30Z</time>
<desc>lat.=22.044100, lon.=104.096336, Alt.=400.816650m. Speed=0.036000m/h.</desc>
<speed>0.010000</speed>
</trkpt>
<trkpt lat="22.044100" lon="104.096336">
<ele>400.840088</ele>
<time>2011-04-26T09:08:35Z</time>
<desc>lat.=22.044100, lon.=104.096336, Alt.=400.840088m. Speed=0.000000m/h.</desc>
<speed>0.000000</speed>
</trkpt>
<trkpt lat="22.044100" lon="104.096336">
<ele>400.863525</ele>
<time>2011-04-26T09:08:40Z</time>
<desc>lat.=22.044100, lon.=104.096336, Alt.=400.863525m. Speed=0.036000m/h.</desc>
<speed>0.010000</speed>
</trkpt>
<trkpt lat="22.044100" lon="104.096336">
<ele>400.902588</ele>
<time>2011-04-26T09:08:45Z</time>
<desc>lat.=22.044100, lon.=104.096336, Alt.=400.902588m. Speed=0.000000m/h.</desc>
<speed>0.000000</speed>
</trkpt>
<trkpt lat="22.044100" lon="104.096336">
<ele>400.933838</ele>
<time>2011-04-26T09:08:50Z</time>
<desc>lat.=22.044100, lon.=104.096336, Alt.=400.933838m. Speed=0.036000m/h.</desc>
<speed>0.010000</speed>
</trkpt>
<trkpt lat="22.044100" lon="104.096336">
<ele>400.972900</ele>
<time>2011-04-26T09:08:55Z</time>
<desc>lat.=22.044100, lon.=104.096336, Alt.=400.972900m. Speed=0.000000m/h.</desc>
<speed>0.000000</speed>
</trkpt>
<trkpt lat="22.044100" lon="104.096336">
<ele>401.004150</ele>
<time>2011-04-26T09:09:00Z</time>
<desc>lat.=22.044100, lon.=104.096336, Alt.=401.004150m. Speed=0.000000m/h.</desc>
<speed>0.000000</speed>
</trkpt>
<trkpt lat="22.044100" lon="104.096336">
<ele>401.019775</ele>
<time>2011-04-26T09:09:05Z</time>
<desc>lat.=22.044100, lon.=104.096336, Alt.=401.019775m. Speed=0.000000m/h.</desc>
<speed>0.000000</speed>
</trkpt>
<trkpt lat="22.044100" lon="104.096336">
<ele>401.027588</ele>
<time>2011-04-26T09:09:10Z</time>
<desc>lat.=22.044100, lon.=104.096336, Alt.=401.027588m. Speed=0.036000m/h.</desc>
<speed>0.010000</speed>
</trkpt>
<trkpt lat="22.044100" lon="104.096336">
<ele>401.043213</ele>
<time>2011-04-26T09:09:15Z</time>
<desc>lat.=22.044100, lon.=104.096336, Alt.=401.043213m. Speed=0.036000m/h.</desc>
<speed>0.010000</speed>
</trkpt>
<trkpt lat="22.044100" lon="104.096336">
<ele>401.051025</ele>
<time>2011-04-26T09:09:20Z</time>
<desc>lat.=22.044100, lon.=104.096336, Alt.=401.051025m. Speed=0.000000m/h.</desc>
<speed>0.000000</speed>
</trkpt>
<trkpt lat="22.044100" lon="104.096336">
<ele>401.043213</ele>
<time>2011-04-26T09:09:25Z</time>
<desc>lat.=22.044100, lon.=104.096336, Alt.=401.043213m. Speed=0.072000m/h.</desc>
<speed>0.020000</speed>
</trkpt>
<trkpt lat="22.044100" lon="104.096336">
<ele>401.051025</ele>
<time>2011-04-26T09:09:30Z</time>
<desc>lat.=22.044100, lon.=104.096336, Alt.=401.051025m. Speed=0.144000m/h.</desc>
<speed>0.040000</speed>
</trkpt>
<trkpt lat="22.044100" lon="104.096336">
<ele>401.058838</ele>
<time>2011-04-26T09:09:35Z</time>
<desc>lat.=22.044100, lon.=104.096336, Alt.=401.058838m. Speed=0.072000m/h.</desc>
<speed>0.020000</speed>
</trkpt>
<trkpt lat="22.044100" lon="104.096336">
<ele>401.066650</ele>
<time>2011-04-26T09:09:40Z</time>
<desc>lat.=22.044100, lon.=104.096336, Alt.=401.066650m. Speed=0.000000m/h.</desc>
<speed>0.000000</speed>
</trkpt>
<trkpt lat="22.044100" lon="104.096336">
<ele>401.066650</ele>
<time>2011-04-26T09:09:45Z</time>
<desc>lat.=22.044100, lon.=104.096336, Alt.=401.066650m. Speed=0.000000m/h.</desc>
<speed>0.000000</speed>
</trkpt>
<trkpt lat="22.044100" lon="104.096336">
<ele>401.066650</ele>
<time>2011-04-26T09:09:50Z</time>
<desc>lat.=22.044100, lon.=104.096336, Alt.=401.066650m. Speed=0.000000m/h.</desc>
<speed>0.000000</speed>
</trkpt>
<trkpt lat="22.044100" lon="104.096344">
<ele>401.090088</ele>
<time>2011-04-26T09:09:55Z</time>
<desc>lat.=22.044100, lon.=104.096344, Alt.=401.090088m. Speed=0.828000m/h.</desc>
<speed>0.230000</speed>
</trkpt>
<trkpt lat="22.044098" lon="104.096359">
<ele>401.113525</ele>
<time>2011-04-26T09:10:00Z</time>
<desc>lat.=22.044098, lon.=104.096359, Alt.=401.113525m. Speed=0.828000m/h.</desc>
<speed>0.230000</speed>
</trkpt>
<trkpt lat="22.044098" lon="104.096367">
<ele>401.136963</ele>
<time>2011-04-26T09:10:05Z</time>
<desc>lat.=22.044098, lon.=104.096367, Alt.=401.136963m. Speed=0.288000m/h.</desc>
<speed>0.080000</speed>
</trkpt>
<trkpt lat="22.044106" lon="104.096367">
<ele>401.152588</ele>
<time>2011-04-26T09:10:10Z</time>
<desc>lat.=22.044106, lon.=104.096367, Alt.=401.152588m. Speed=0.612000m/h.</desc>
<speed>0.170000</speed>
</trkpt>
<trkpt lat="22.044113" lon="104.096367">
<ele>401.176025</ele>
<time>2011-04-26T09:10:15Z</time>
<desc>lat.=22.044113, lon.=104.096367, Alt.=401.176025m. Speed=0.612000m/h.</desc>
<speed>0.170000</speed>
</trkpt>
<trkpt lat="22.044123" lon="104.096367">
<ele>401.215088</ele>
<time>2011-04-26T09:10:20Z</time>
<desc>lat.=22.044123, lon.=104.096367, Alt.=401.215088m. Speed=0.720000m/h.</desc>
<speed>0.200000</speed>
</trkpt>
<trkpt lat="22.044132" lon="104.096359">
<ele>401.246338</ele>
<time>2011-04-26T09:10:25Z</time>
<desc>lat.=22.044132, lon.=104.096359, Alt.=401.246338m. Speed=0.792000m/h.</desc>
<speed>0.220000</speed>
</trkpt>
<trkpt lat="22.044142" lon="104.096359">
<ele>401.277588</ele>
<time>2011-04-26T09:10:30Z</time>
<desc>lat.=22.044142, lon.=104.096359, Alt.=401.277588m. Speed=0.684000m/h.</desc>
<speed>0.190000</speed>
</trkpt>
<trkpt lat="22.044151" lon="104.096359">
<ele>401.316650</ele>
<time>2011-04-26T09:10:35Z</time>
<desc>lat.=22.044151, lon.=104.096359, Alt.=401.316650m. Speed=0.684000m/h.</desc>
<speed>0.190000</speed>
</trkpt>
<trkpt lat="22.044159" lon="104.096359">
<ele>401.355713</ele>
<time>2011-04-26T09:10:40Z</time>
<desc>lat.=22.044159, lon.=104.096359, Alt.=401.355713m. Speed=0.684000m/h.</desc>
<speed>0.190000</speed>
</trkpt>
<trkpt lat="22.044168" lon="104.096367">
<ele>401.394775</ele>
<time>2011-04-26T09:10:45Z</time>
<desc>lat.=22.044168, lon.=104.096367, Alt.=401.394775m. Speed=0.864000m/h.</desc>
<speed>0.240000</speed>
</trkpt>
<trkpt lat="22.044182" lon="104.096367">
<ele>401.441650</ele>
<time>2011-04-26T09:10:50Z</time>
<desc>lat.=22.044182, lon.=104.096367, Alt.=401.441650m. Speed=0.936000m/h.</desc>
<speed>0.260000</speed>
</trkpt>
<trkpt lat="22.044193" lon="104.096367">
<ele>401.488525</ele>
<time>2011-04-26T09:10:55Z</time>
<desc>lat.=22.044193, lon.=104.096367, Alt.=401.488525m. Speed=0.756000m/h.</desc>
<speed>0.210000</speed>
</trkpt>
<trkpt lat="22.044178" lon="104.096413">
<ele>401.949463</ele>
<time>2011-04-26T09:11:00Z</time>
<desc>lat.=22.044178, lon.=104.096413, Alt.=401.949463m. Speed=7.092000m/h.</desc>
<speed>1.970000</speed>
</trkpt>
<trkpt lat="22.044140" lon="104.096527">
<ele>402.269775</ele>
<time>2011-04-26T09:11:05Z</time>
<desc>lat.=22.044140, lon.=104.096527, Alt.=402.269775m. Speed=8.388000m/h.</desc>
<speed>2.330000</speed>
</trkpt>
<trkpt lat="22.044136" lon="104.096718">
<ele>402.004150</ele>
<time>2011-04-26T09:11:10Z</time>
<desc>lat.=22.044136, lon.=104.096718, Alt.=402.004150m. Speed=16.559999m/h.</desc>
<speed>4.600000</speed>
</trkpt>
<trkpt lat="22.044172" lon="104.097023">
<ele>399.144775</ele>
<time>2011-04-26T09:11:15Z</time>
<desc>lat.=22.044172, lon.=104.097023, Alt.=399.144775m. Speed=24.624001m/h.</desc>
<speed>6.840000</speed>
</trkpt>
<trkpt lat="22.044334" lon="104.097343">
<ele>395.340088</ele>
<time>2011-04-26T09:11:20Z</time>
<desc>lat.=22.044334, lon.=104.097343, Alt.=395.340088m. Speed=24.264000m/h.</desc>
<speed>6.740000</speed>
</trkpt>
<trkpt lat="22.044428" lon="104.097633">
<ele>392.738525</ele>
<time>2011-04-26T09:11:25Z</time>
<desc>lat.=22.044428, lon.=104.097633, Alt.=392.738525m. Speed=22.535999m/h.</desc>
<speed>6.260000</speed>
</trkpt>
<trkpt lat="22.044498" lon="104.097939">
<ele>391.426025</ele>
<time>2011-04-26T09:11:30Z</time>
<desc>lat.=22.044498, lon.=104.097939, Alt.=391.426025m. Speed=24.228001m/h.</desc>
<speed>6.730000</speed>
</trkpt>
<trkpt lat="22.044580" lon="104.098236">
<ele>389.410400</ele>
<time>2011-04-26T09:11:35Z</time>
<desc>lat.=22.044580, lon.=104.098236, Alt.=389.410400m. Speed=19.764000m/h.</desc>
<speed>5.490000</speed>
</trkpt>
<trkpt lat="22.044630" lon="104.098434">
<ele>387.340088</ele>
<time>2011-04-26T09:11:40Z</time>
<desc>lat.=22.044630, lon.=104.098434, Alt.=387.340088m. Speed=13.500000m/h.</desc>
<speed>3.750000</speed>
</trkpt>
<trkpt lat="22.044666" lon="104.098640">
<ele>384.738525</ele>
<time>2011-04-26T09:11:45Z</time>
<desc>lat.=22.044666, lon.=104.098640, Alt.=384.738525m. Speed=15.084000m/h.</desc>
<speed>4.190000</speed>
</trkpt>
<trkpt lat="22.044727" lon="104.098892">
<ele>382.691650</ele>
<time>2011-04-26T09:11:50Z</time>
<desc>lat.=22.044727, lon.=104.098892, Alt.=382.691650m. Speed=15.876000m/h.</desc>
<speed>4.410000</speed>
</trkpt>
<trkpt lat="22.044718" lon="104.099052">
<ele>381.097900</ele>
<time>2011-04-26T09:11:55Z</time>
<desc>lat.=22.044718, lon.=104.099052, Alt.=381.097900m. Speed=11.592000m/h.</desc>
<speed>3.220000</speed>
</trkpt>
<trkpt lat="22.044626" lon="104.099251">
<ele>379.246338</ele>
<time>2011-04-26T09:12:00Z</time>
<desc>lat.=22.044626, lon.=104.099251, Alt.=379.246338m. Speed=16.488001m/h.</desc>
<speed>4.580000</speed>
</trkpt>
<trkpt lat="22.044319" lon="104.099579">
<ele>376.847900</ele>
<time>2011-04-26T09:12:05Z</time>
<desc>lat.=22.044319, lon.=104.099579, Alt.=376.847900m. Speed=40.535999m/h.</desc>
<speed>11.260000</speed>
</trkpt>
<trkpt lat="22.043964" lon="104.100021">
<ele>373.941650</ele>
<time>2011-04-26T09:12:10Z</time>
<desc>lat.=22.043964, lon.=104.100021, Alt.=373.941650m. Speed=40.608002m/h.</desc>
<speed>11.280000</speed>
</trkpt>
<trkpt lat="22.043749" lon="104.100479">
<ele>371.879150</ele>
<time>2011-04-26T09:12:15Z</time>
<desc>lat.=22.043749, lon.=104.100479, Alt.=371.879150m. Speed=34.632000m/h.</desc>
<speed>9.620000</speed>
</trkpt>
<trkpt lat="22.043520" lon="104.100800">
<ele>370.480713</ele>
<time>2011-04-26T09:12:20Z</time>
<desc>lat.=22.043520, lon.=104.100800, Alt.=370.480713m. Speed=28.260000m/h.</desc>
<speed>7.850000</speed>
</trkpt>
<trkpt lat="22.043310" lon="104.100998">
<ele>369.551025</ele>
<time>2011-04-26T09:12:25Z</time>
<desc>lat.=22.043310, lon.=104.100998, Alt.=369.551025m. Speed=18.288000m/h.</desc>
<speed>5.080000</speed>
</trkpt>
<trkpt lat="22.043133" lon="104.101196">
<ele>368.683838</ele>
<time>2011-04-26T09:12:30Z</time>
<desc>lat.=22.043133, lon.=104.101196, Alt.=368.683838m. Speed=18.468000m/h.</desc>
<speed>5.130000</speed>
</trkpt>
<trkpt lat="22.042917" lon="104.101448">
<ele>368.386963</ele>
<time>2011-04-26T09:12:35Z</time>
<desc>lat.=22.042917, lon.=104.101448, Alt.=368.386963m. Speed=26.136000m/h.</desc>
<speed>7.260000</speed>
</trkpt>
<trkpt lat="22.042597" lon="104.101555">
<ele>367.722900</ele>
<time>2011-04-26T09:12:40Z</time>
<desc>lat.=22.042597, lon.=104.101555, Alt.=367.722900m. Speed=26.172001m/h.</desc>
<speed>7.270000</speed>
</trkpt>
<trkpt lat="22.042280" lon="104.101433">
<ele>366.332275</ele>
<time>2011-04-26T09:12:45Z</time>
<desc>lat.=22.042280, lon.=104.101433, Alt.=366.332275m. Speed=26.496000m/h.</desc>
<speed>7.360000</speed>
</trkpt>
<trkpt lat="22.041845" lon="104.101379">
<ele>366.004150</ele>
<time>2011-04-26T09:12:50Z</time>
<desc>lat.=22.041845, lon.=104.101379, Alt.=366.004150m. Speed=37.655998m/h.</desc>
<speed>10.460000</speed>
</trkpt>
<trkpt lat="22.041378" lon="104.101540">
<ele>364.113525</ele>
<time>2011-04-26T09:12:55Z</time>
<desc>lat.=22.041378, lon.=104.101540, Alt.=364.113525m. Speed=37.619999m/h.</desc>
<speed>10.450000</speed>
</trkpt>
<trkpt lat="22.041014" lon="104.101906">
<ele>362.535400</ele>
<time>2011-04-26T09:13:00Z</time>
<desc>lat.=22.041014, lon.=104.101906, Alt.=362.535400m. Speed=39.672001m/h.</desc>
<speed>11.020000</speed>
</trkpt>
<trkpt lat="22.040958" lon="104.102303">
<ele>358.746338</ele>
<time>2011-04-26T09:13:05Z</time>
<desc>lat.=22.040958, lon.=104.102303, Alt.=358.746338m. Speed=30.528000m/h.</desc>
<speed>8.480000</speed>
</trkpt>
<trkpt lat="22.041147" lon="104.102737">
<ele>355.176025</ele>
<time>2011-04-26T09:13:10Z</time>
<desc>lat.=22.041147, lon.=104.102737, Alt.=355.176025m. Speed=36.720001m/h.</desc>
<speed>10.200000</speed>
</trkpt>
<trkpt lat="22.041241" lon="104.103241">
<ele>350.676025</ele>
<time>2011-04-26T09:13:15Z</time>
<desc>lat.=22.041241, lon.=104.103241, Alt.=350.676025m. Speed=37.476002m/h.</desc>
<speed>10.410000</speed>
</trkpt>
<trkpt lat="22.041206" lon="104.103745">
<ele>345.066650</ele>
<time>2011-04-26T09:13:20Z</time>
<desc>lat.=22.041206, lon.=104.103745, Alt.=345.066650m. Speed=33.444000m/h.</desc>
<speed>9.290000</speed>
</trkpt>
<trkpt lat="22.041113" lon="104.104111">
<ele>339.324463</ele>
<time>2011-04-26T09:13:25Z</time>
<desc>lat.=22.041113, lon.=104.104111, Alt.=339.324463m. Speed=27.756001m/h.</desc>
<speed>7.710000</speed>
</trkpt>
<trkpt lat="22.040955" lon="104.104538">
<ele>334.527588</ele>
<time>2011-04-26T09:13:30Z</time>
<desc>lat.=22.040955, lon.=104.104538, Alt.=334.527588m. Speed=36.612000m/h.</desc>
<speed>10.170000</speed>
</trkpt>
<trkpt lat="22.041010" lon="104.105042">
<ele>328.488525</ele>
<time>2011-04-26T09:13:35Z</time>
<desc>lat.=22.041010, lon.=104.105042, Alt.=328.488525m. Speed=39.348000m/h.</desc>
<speed>10.930000</speed>
</trkpt>
<trkpt lat="22.041275" lon="104.105515">
<ele>322.551025</ele>
<time>2011-04-26T09:13:40Z</time>
<desc>lat.=22.041275, lon.=104.105515, Alt.=322.551025m. Speed=39.924000m/h.</desc>
<speed>11.090000</speed>
</trkpt>
<trkpt lat="22.041544" lon="104.106003">
<ele>316.043213</ele>
<time>2011-04-26T09:13:45Z</time>
<desc>lat.=22.041544, lon.=104.106003, Alt.=316.043213m. Speed=42.731998m/h.</desc>
<speed>11.870000</speed>
</trkpt>
<trkpt lat="22.041725" lon="104.106544">
<ele>310.254150</ele>
<time>2011-04-26T09:13:50Z</time>
<desc>lat.=22.041725, lon.=104.106544, Alt.=310.254150m. Speed=44.712002m/h.</desc>
<speed>12.420001</speed>
</trkpt>
<trkpt lat="22.041800" lon="104.107124">
<ele>306.863525</ele>
<time>2011-04-26T09:13:55Z</time>
<desc>lat.=22.041800, lon.=104.107124, Alt.=306.863525m. Speed=40.175999m/h.</desc>
<speed>11.160000</speed>
</trkpt>
<trkpt lat="22.041889" lon="104.107544">
<ele>304.527588</ele>
<time>2011-04-26T09:14:00Z</time>
<desc>lat.=22.041889, lon.=104.107544, Alt.=304.527588m. Speed=29.052000m/h.</desc>
<speed>8.070000</speed>
</trkpt>
<trkpt lat="22.042030" lon="104.107826">
<ele>301.847900</ele>
<time>2011-04-26T09:14:05Z</time>
<desc>lat.=22.042030, lon.=104.107826, Alt.=301.847900m. Speed=17.856001m/h.</desc>
<speed>4.960000</speed>
</trkpt>
<trkpt lat="22.042135" lon="104.108025">
<ele>299.840088</ele>
<time>2011-04-26T09:14:10Z</time>
<desc>lat.=22.042135, lon.=104.108025, Alt.=299.840088m. Speed=13.140000m/h.</desc>
<speed>3.650000</speed>
</trkpt>
<trkpt lat="22.042217" lon="104.108192">
<ele>298.379150</ele>
<time>2011-04-26T09:14:15Z</time>
<desc>lat.=22.042217, lon.=104.108192, Alt.=298.379150m. Speed=10.188000m/h.</desc>
<speed>2.830000</speed>
</trkpt>
<trkpt lat="22.042370" lon="104.108269">
<ele>297.097900</ele>
<time>2011-04-26T09:14:20Z</time>
<desc>lat.=22.042370, lon.=104.108269, Alt.=297.097900m. Speed=12.240000m/h.</desc>
<speed>3.400000</speed>
</trkpt>
<trkpt lat="22.042555" lon="104.108330">
<ele>298.316650</ele>
<time>2011-04-26T09:14:25Z</time>
<desc>lat.=22.042555, lon.=104.108330, Alt.=298.316650m. Speed=14.868000m/h.</desc>
<speed>4.130000</speed>
</trkpt>
<trkpt lat="22.042723" lon="104.108498">
<ele>297.808838</ele>
<time>2011-04-26T09:14:30Z</time>
<desc>lat.=22.042723, lon.=104.108498, Alt.=297.808838m. Speed=18.288000m/h.</desc>
<speed>5.080000</speed>
</trkpt>
<trkpt lat="22.042902" lon="104.108673">
<ele>297.488525</ele>
<time>2011-04-26T09:14:35Z</time>
<desc>lat.=22.042902, lon.=104.108673, Alt.=297.488525m. Speed=18.108000m/h.</desc>
<speed>5.030000</speed>
</trkpt>
<trkpt lat="22.043098" lon="104.108795">
<ele>298.660400</ele>
<time>2011-04-26T09:14:40Z</time>
<desc>lat.=22.043098, lon.=104.108795, Alt.=298.660400m. Speed=11.988000m/h.</desc>
<speed>3.330000</speed>
</trkpt>
<trkpt lat="22.043224" lon="104.108856">
<ele>300.394775</ele>
<time>2011-04-26T09:14:45Z</time>
<desc>lat.=22.043224, lon.=104.108856, Alt.=300.394775m. Speed=6.660000m/h.</desc>
<speed>1.850000</speed>
</trkpt>
<trkpt lat="22.043295" lon="104.108879">
<ele>301.488525</ele>
<time>2011-04-26T09:14:50Z</time>
<desc>lat.=22.043295, lon.=104.108879, Alt.=301.488525m. Speed=5.292000m/h.</desc>
<speed>1.470000</speed>
</trkpt>
<trkpt lat="22.043377" lon="104.108917">
<ele>303.402588</ele>
<time>2011-04-26T09:14:55Z</time>
<desc>lat.=22.043377, lon.=104.108917, Alt.=303.402588m. Speed=4.932000m/h.</desc>
<speed>1.370000</speed>
</trkpt>
<trkpt lat="22.043465" lon="104.108971">
<ele>306.019775</ele>
<time>2011-04-26T09:15:00Z</time>
<desc>lat.=22.043465, lon.=104.108971, Alt.=306.019775m. Speed=6.192000m/h.</desc>
<speed>1.720000</speed>
</trkpt>
<trkpt lat="22.043526" lon="104.108994">
<ele>308.191650</ele>
<time>2011-04-26T09:15:05Z</time>
<desc>lat.=22.043526, lon.=104.108994, Alt.=308.191650m. Speed=5.436000m/h.</desc>
<speed>1.510000</speed>
</trkpt>
<trkpt lat="22.043600" lon="104.109016">
<ele>310.043213</ele>
<time>2011-04-26T09:15:10Z</time>
<desc>lat.=22.043600, lon.=104.109016, Alt.=310.043213m. Speed=4.932000m/h.</desc>
<speed>1.370000</speed>
</trkpt>
<trkpt lat="22.043688" lon="104.109039">
<ele>309.886963</ele>
<time>2011-04-26T09:15:15Z</time>
<desc>lat.=22.043688, lon.=104.109039, Alt.=309.886963m. Speed=5.760000m/h.</desc>
<speed>1.600000</speed>
</trkpt>
<trkpt lat="22.043758" lon="104.109077">
<ele>310.254150</ele>
<time>2011-04-26T09:15:20Z</time>
<desc>lat.=22.043758, lon.=104.109077, Alt.=310.254150m. Speed=4.752000m/h.</desc>
<speed>1.320000</speed>
</trkpt>
<trkpt lat="22.043808" lon="104.109116">
<ele>310.535400</ele>
<time>2011-04-26T09:15:25Z</time>
<desc>lat.=22.043808, lon.=104.109116, Alt.=310.535400m. Speed=5.436000m/h.</desc>
<speed>1.510000</speed>
</trkpt>
<trkpt lat="22.043877" lon="104.109138">
<ele>310.808838</ele>
<time>2011-04-26T09:15:30Z</time>
<desc>lat.=22.043877, lon.=104.109138, Alt.=310.808838m. Speed=4.320000m/h.</desc>
<speed>1.200000</speed>
</trkpt>
<trkpt lat="22.043957" lon="104.109161">
<ele>308.699463</ele>
<time>2011-04-26T09:15:35Z</time>
<desc>lat.=22.043957, lon.=104.109161, Alt.=308.699463m. Speed=3.420000m/h.</desc>
<speed>0.950000</speed>
</trkpt>
<trkpt lat="22.043962" lon="104.109161">
<ele>308.230713</ele>
<time>2011-04-26T09:15:40Z</time>
<desc>lat.=22.043962, lon.=104.109161, Alt.=308.230713m. Speed=0.216000m/h.</desc>
<speed>0.060000</speed>
</trkpt>
<trkpt lat="22.043962" lon="104.109161">
<ele>308.168213</ele>
<time>2011-04-26T09:15:45Z</time>
<desc>lat.=22.043962, lon.=104.109161, Alt.=308.168213m. Speed=0.216000m/h.</desc>
<speed>0.060000</speed>
</trkpt>
<trkpt lat="22.043962" lon="104.109161">
<ele>308.097900</ele>
<time>2011-04-26T09:15:50Z</time>
<desc>lat.=22.043962, lon.=104.109161, Alt.=308.097900m. Speed=0.504000m/h.</desc>
<speed>0.140000</speed>
</trkpt>
<trkpt lat="22.043964" lon="104.109161">
<ele>308.082275</ele>
<time>2011-04-26T09:15:55Z</time>
<desc>lat.=22.043964, lon.=104.109161, Alt.=308.082275m. Speed=0.252000m/h.</desc>
<speed>0.070000</speed>
</trkpt>
<trkpt lat="22.043980" lon="104.109169">
<ele>308.074463</ele>
<time>2011-04-26T09:16:00Z</time>
<desc>lat.=22.043980, lon.=104.109169, Alt.=308.074463m. Speed=4.104000m/h.</desc>
<speed>1.140000</speed>
</trkpt>
<trkpt lat="22.044086" lon="104.109200">
<ele>307.051025</ele>
<time>2011-04-26T09:16:05Z</time>
<desc>lat.=22.044086, lon.=104.109200, Alt.=307.051025m. Speed=10.656000m/h.</desc>
<speed>2.960000</speed>
</trkpt>
<trkpt lat="22.044207" lon="104.109268">
<ele>305.754150</ele>
<time>2011-04-26T09:16:10Z</time>
<desc>lat.=22.044207, lon.=104.109268, Alt.=305.754150m. Speed=10.332000m/h.</desc>
<speed>2.870000</speed>
</trkpt>
<trkpt lat="22.044315" lon="104.109344">
<ele>303.722900</ele>
<time>2011-04-26T09:16:15Z</time>
<desc>lat.=22.044315, lon.=104.109344, Alt.=303.722900m. Speed=9.252000m/h.</desc>
<speed>2.570000</speed>
</trkpt>
<trkpt lat="22.044420" lon="104.109406">
<ele>300.855713</ele>
<time>2011-04-26T09:16:20Z</time>
<desc>lat.=22.044420, lon.=104.109406, Alt.=300.855713m. Speed=8.640000m/h.</desc>
<speed>2.400000</speed>
</trkpt>
<trkpt lat="22.044529" lon="104.109451">
<ele>297.886963</ele>
<time>2011-04-26T09:16:25Z</time>
<desc>lat.=22.044529, lon.=104.109451, Alt.=297.886963m. Speed=9.648000m/h.</desc>
<speed>2.680000</speed>
</trkpt>
<trkpt lat="22.044641" lon="104.109512">
<ele>297.316650</ele>
<time>2011-04-26T09:16:30Z</time>
<desc>lat.=22.044641, lon.=104.109512, Alt.=297.316650m. Speed=10.764000m/h.</desc>
<speed>2.990000</speed>
</trkpt>
<trkpt lat="22.044777" lon="104.109612">
<ele>296.090088</ele>
<time>2011-04-26T09:16:35Z</time>
<desc>lat.=22.044777, lon.=104.109612, Alt.=296.090088m. Speed=14.400000m/h.</desc>
<speed>4.000000</speed>
</trkpt>
<trkpt lat="22.044930" lon="104.109756">
<ele>294.808838</ele>
<time>2011-04-26T09:16:40Z</time>
<desc>lat.=22.044930, lon.=104.109756, Alt.=294.808838m. Speed=16.379999m/h.</desc>
<speed>4.550000</speed>
</trkpt>
<trkpt lat="22.045042" lon="104.109909">
<ele>294.355713</ele>
<time>2011-04-26T09:16:45Z</time>
<desc>lat.=22.045042, lon.=104.109909, Alt.=294.355713m. Speed=13.824000m/h.</desc>
<speed>3.840000</speed>
</trkpt>
<trkpt lat="22.045130" lon="104.110069">
<ele>295.011963</ele>
<time>2011-04-26T09:16:50Z</time>
<desc>lat.=22.045130, lon.=104.110069, Alt.=295.011963m. Speed=14.868000m/h.</desc>
<speed>4.130000</speed>
</trkpt>
<trkpt lat="22.045208" lon="104.110214">
<ele>296.472900</ele>
<time>2011-04-26T09:16:55Z</time>
<desc>lat.=22.045208, lon.=104.110214, Alt.=296.472900m. Speed=13.104000m/h.</desc>
<speed>3.640000</speed>
</trkpt>
<trkpt lat="22.045282" lon="104.110359">
<ele>298.707275</ele>
<time>2011-04-26T09:17:00Z</time>
<desc>lat.=22.045282, lon.=104.110359, Alt.=298.707275m. Speed=13.572000m/h.</desc>
<speed>3.770000</speed>
</trkpt>
<trkpt lat="22.045437" lon="104.110519">
<ele>296.863525</ele>
<time>2011-04-26T09:17:05Z</time>
<desc>lat.=22.045437, lon.=104.110519, Alt.=296.863525m. Speed=18.792000m/h.</desc>
<speed>5.220000</speed>
</trkpt>
<trkpt lat="22.045637" lon="104.110672">
<ele>292.840088</ele>
<time>2011-04-26T09:17:10Z</time>
<desc>lat.=22.045637, lon.=104.110672, Alt.=292.840088m. Speed=16.020000m/h.</desc>
<speed>4.450000</speed>
</trkpt>
<trkpt lat="22.045811" lon="104.110771">
<ele>289.472900</ele>
<time>2011-04-26T09:17:15Z</time>
<desc>lat.=22.045811, lon.=104.110771, Alt.=289.472900m. Speed=14.832000m/h.</desc>
<speed>4.120000</speed>
</trkpt>
<trkpt lat="22.045986" lon="104.110832">
<ele>289.465088</ele>
<time>2011-04-26T09:17:20Z</time>
<desc>lat.=22.045986, lon.=104.110832, Alt.=289.465088m. Speed=14.508000m/h.</desc>
<speed>4.030000</speed>
</trkpt>
<trkpt lat="22.046185" lon="104.110901">
<ele>289.152588</ele>
<time>2011-04-26T09:17:25Z</time>
<desc>lat.=22.046185, lon.=104.110901, Alt.=289.152588m. Speed=16.596001m/h.</desc>
<speed>4.610000</speed>
</trkpt>
<trkpt lat="22.046371" lon="104.111000">
<ele>287.605713</ele>
<time>2011-04-26T09:17:30Z</time>
<desc>lat.=22.046371, lon.=104.111000, Alt.=287.605713m. Speed=14.904000m/h.</desc>
<speed>4.140000</speed>
</trkpt>
<trkpt lat="22.046551" lon="104.111115">
<ele>284.801025</ele>
<time>2011-04-26T09:17:35Z</time>
<desc>lat.=22.046551, lon.=104.111115, Alt.=284.801025m. Speed=16.667999m/h.</desc>
<speed>4.630000</speed>
</trkpt>
<trkpt lat="22.046753" lon="104.111229">
<ele>282.832275</ele>
<time>2011-04-26T09:17:40Z</time>
<desc>lat.=22.046753, lon.=104.111229, Alt.=282.832275m. Speed=19.260000m/h.</desc>
<speed>5.350000</speed>
</trkpt>
<trkpt lat="22.046989" lon="104.111336">
<ele>281.129150</ele>
<time>2011-04-26T09:17:45Z</time>
<desc>lat.=22.046989, lon.=104.111336, Alt.=281.129150m. Speed=23.327999m/h.</desc>
<speed>6.480000</speed>
</trkpt>
<trkpt lat="22.047266" lon="104.111534">
<ele>279.316650</ele>
<time>2011-04-26T09:17:50Z</time>
<desc>lat.=22.047266, lon.=104.111534, Alt.=279.316650m. Speed=31.212000m/h.</desc>
<speed>8.670000</speed>
</trkpt>
<trkpt lat="22.047440" lon="104.111847">
<ele>277.441650</ele>
<time>2011-04-26T09:17:55Z</time>
<desc>lat.=22.047440, lon.=104.111847, Alt.=277.441650m. Speed=25.452000m/h.</desc>
<speed>7.070000</speed>
</trkpt>
<trkpt lat="22.047407" lon="104.112099">
<ele>276.621338</ele>
<time>2011-04-26T09:18:00Z</time>
<desc>lat.=22.047407, lon.=104.112099, Alt.=276.621338m. Speed=18.000000m/h.</desc>
<speed>5.000000</speed>
</trkpt>
<trkpt lat="22.047411" lon="104.112289">
<ele>276.754150</ele>
<time>2011-04-26T09:18:05Z</time>
<desc>lat.=22.047411, lon.=104.112289, Alt.=276.754150m. Speed=11.520000m/h.</desc>
<speed>3.200000</speed>
</trkpt>
<trkpt lat="22.047440" lon="104.112526">
<ele>275.847900</ele>
<time>2011-04-26T09:18:10Z</time>
<desc>lat.=22.047440, lon.=104.112526, Alt.=275.847900m. Speed=16.488001m/h.</desc>
<speed>4.580000</speed>
</trkpt>
<trkpt lat="22.047489" lon="104.112747">
<ele>274.332275</ele>
<time>2011-04-26T09:18:15Z</time>
<desc>lat.=22.047489, lon.=104.112747, Alt.=274.332275m. Speed=17.496000m/h.</desc>
<speed>4.860000</speed>
</trkpt>
<trkpt lat="22.047615" lon="104.113037">
<ele>270.535400</ele>
<time>2011-04-26T09:18:20Z</time>
<desc>lat.=22.047615, lon.=104.113037, Alt.=270.535400m. Speed=21.959999m/h.</desc>
<speed>6.100000</speed>
</trkpt>
<trkpt lat="22.047764" lon="104.113335">
<ele>266.558838</ele>
<time>2011-04-26T09:18:25Z</time>
<desc>lat.=22.047764, lon.=104.113335, Alt.=266.558838m. Speed=26.172001m/h.</desc>
<speed>7.270000</speed>
</trkpt>
<trkpt lat="22.047897" lon="104.113647">
<ele>262.308838</ele>
<time>2011-04-26T09:18:30Z</time>
<desc>lat.=22.047897, lon.=104.113647, Alt.=262.308838m. Speed=25.848000m/h.</desc>
<speed>7.180000</speed>
</trkpt>
<trkpt lat="22.048037" lon="104.113953">
<ele>258.058838</ele>
<time>2011-04-26T09:18:35Z</time>
<desc>lat.=22.048037, lon.=104.113953, Alt.=258.058838m. Speed=26.388000m/h.</desc>
<speed>7.330000</speed>
</trkpt>
<trkpt lat="22.048243" lon="104.114281">
<ele>254.283325</ele>
<time>2011-04-26T09:18:40Z</time>
<desc>lat.=22.048243, lon.=104.114281, Alt.=254.283325m. Speed=30.384001m/h.</desc>
<speed>8.440000</speed>
</trkpt>
<trkpt lat="22.048382" lon="104.114655">
<ele>249.927856</ele>
<time>2011-04-26T09:18:45Z</time>
<desc>lat.=22.048382, lon.=104.114655, Alt.=249.927856m. Speed=28.296000m/h.</desc>
<speed>7.860000</speed>
</trkpt>
<trkpt lat="22.048458" lon="104.114960">
<ele>248.748169</ele>
<time>2011-04-26T09:18:50Z</time>
<desc>lat.=22.048458, lon.=104.114960, Alt.=248.748169m. Speed=15.516000m/h.</desc>
<speed>4.310000</speed>
</trkpt>
<trkpt lat="22.048479" lon="104.115044">
<ele>247.326294</ele>
<time>2011-04-26T09:18:55Z</time>
<desc>lat.=22.048479, lon.=104.115044, Alt.=247.326294m. Speed=0.900000m/h.</desc>
<speed>0.250000</speed>
</trkpt>
<trkpt lat="22.048479" lon="104.115044">
<ele>247.498169</ele>
<time>2011-04-26T09:19:00Z</time>
<desc>lat.=22.048479, lon.=104.115044, Alt.=247.498169m. Speed=0.396000m/h.</desc>
<speed>0.110000</speed>
</trkpt>
<trkpt lat="22.048483" lon="104.115059">
<ele>247.365356</ele>
<time>2011-04-26T09:19:05Z</time>
<desc>lat.=22.048483, lon.=104.115059, Alt.=247.365356m. Speed=4.500000m/h.</desc>
<speed>1.250000</speed>
</trkpt>
<trkpt lat="22.048502" lon="104.115089">
<ele>247.716919</ele>
<time>2011-04-26T09:19:10Z</time>
<desc>lat.=22.048502, lon.=104.115089, Alt.=247.716919m. Speed=0.252000m/h.</desc>
<speed>0.070000</speed>
</trkpt>
<trkpt lat="22.048519" lon="104.115089">
<ele>248.197388</ele>
<time>2011-04-26T09:19:15Z</time>
<desc>lat.=22.048519, lon.=104.115089, Alt.=248.197388m. Speed=0.288000m/h.</desc>
<speed>0.080000</speed>
</trkpt>
<trkpt lat="22.048521" lon="104.115089">
<ele>248.072388</ele>
<time>2011-04-26T09:19:20Z</time>
<desc>lat.=22.048521, lon.=104.115089, Alt.=248.072388m. Speed=1.764000m/h.</desc>
<speed>0.490000</speed>
</trkpt>
<trkpt lat="22.048580" lon="104.115189">
<ele>246.834106</ele>
<time>2011-04-26T09:19:25Z</time>
<desc>lat.=22.048580, lon.=104.115189, Alt.=246.834106m. Speed=11.808000m/h.</desc>
<speed>3.280000</speed>
</trkpt>
<trkpt lat="22.048693" lon="104.115425">
<ele>245.619263</ele>
<time>2011-04-26T09:19:30Z</time>
<desc>lat.=22.048693, lon.=104.115425, Alt.=245.619263m. Speed=22.823999m/h.</desc>
<speed>6.340000</speed>
</trkpt>
<trkpt lat="22.048841" lon="104.115753">
<ele>244.095825</ele>
<time>2011-04-26T09:19:35Z</time>
<desc>lat.=22.048841, lon.=104.115753, Alt.=244.095825m. Speed=28.980000m/h.</desc>
<speed>8.050000</speed>
</trkpt>
<trkpt lat="22.049030" lon="104.116096">
<ele>242.775513</ele>
<time>2011-04-26T09:19:40Z</time>
<desc>lat.=22.049030, lon.=104.116096, Alt.=242.775513m. Speed=28.476000m/h.</desc>
<speed>7.910000</speed>
</trkpt>
<trkpt lat="22.049202" lon="104.116432">
<ele>241.451294</ele>
<time>2011-04-26T09:19:45Z</time>
<desc>lat.=22.049202, lon.=104.116432, Alt.=241.451294m. Speed=27.180000m/h.</desc>
<speed>7.550000</speed>
</trkpt>
<trkpt lat="22.049360" lon="104.116730">
<ele>241.455200</ele>
<time>2011-04-26T09:19:50Z</time>
<desc>lat.=22.049360, lon.=104.116730, Alt.=241.455200m. Speed=26.747999m/h.</desc>
<speed>7.430000</speed>
</trkpt>
<trkpt lat="22.049501" lon="104.117050">
<ele>241.474731</ele>
<time>2011-04-26T09:19:55Z</time>
<desc>lat.=22.049501, lon.=104.117050, Alt.=241.474731m. Speed=23.292000m/h.</desc>
<speed>6.470000</speed>
</trkpt>
<trkpt lat="22.049593" lon="104.117279">
<ele>241.666138</ele>
<time>2011-04-26T09:20:00Z</time>
<desc>lat.=22.049593, lon.=104.117279, Alt.=241.666138m. Speed=17.676001m/h.</desc>
<speed>4.910000</speed>
</trkpt>
<trkpt lat="22.049665" lon="104.117470">
<ele>241.502075</ele>
<time>2011-04-26T09:20:05Z</time>
<desc>lat.=22.049665, lon.=104.117470, Alt.=241.502075m. Speed=15.300000m/h.</desc>
<speed>4.250000</speed>
</trkpt>
<trkpt lat="22.049763" lon="104.117683">
<ele>241.834106</ele>
<time>2011-04-26T09:20:10Z</time>
<desc>lat.=22.049763, lon.=104.117683, Alt.=241.834106m. Speed=15.156000m/h.</desc>
<speed>4.210000</speed>
</trkpt>
<trkpt lat="22.049843" lon="104.117882">
<ele>242.341919</ele>
<time>2011-04-26T09:20:15Z</time>
<desc>lat.=22.049843, lon.=104.117882, Alt.=242.341919m. Speed=15.444000m/h.</desc>
<speed>4.290000</speed>
</trkpt>
<trkpt lat="22.049932" lon="104.118118">
<ele>240.935669</ele>
<time>2011-04-26T09:20:20Z</time>
<desc>lat.=22.049932, lon.=104.118118, Alt.=240.935669m. Speed=19.368000m/h.</desc>
<speed>5.380000</speed>
</trkpt>
<trkpt lat="22.050032" lon="104.118355">
<ele>241.873169</ele>
<time>2011-04-26T09:20:25Z</time>
<desc>lat.=22.050032, lon.=104.118355, Alt.=241.873169m. Speed=17.351999m/h.</desc>
<speed>4.820000</speed>
</trkpt>
<trkpt lat="22.050167" lon="104.118538">
<ele>243.130981</ele>
<time>2011-04-26T09:20:30Z</time>
<desc>lat.=22.050167, lon.=104.118538, Alt.=243.130981m. Speed=15.192000m/h.</desc>
<speed>4.220000</speed>
</trkpt>
<trkpt lat="22.050325" lon="104.118736">
<ele>244.736450</ele>
<time>2011-04-26T09:20:35Z</time>
<desc>lat.=22.050325, lon.=104.118736, Alt.=244.736450m. Speed=14.796000m/h.</desc>
<speed>4.110000</speed>
</trkpt>
<trkpt lat="22.050499" lon="104.118919">
<ele>245.623169</ele>
<time>2011-04-26T09:20:40Z</time>
<desc>lat.=22.050499, lon.=104.118919, Alt.=245.623169m. Speed=16.128000m/h.</desc>
<speed>4.480000</speed>
</trkpt>
<trkpt lat="22.050657" lon="104.119133">
<ele>245.931763</ele>
<time>2011-04-26T09:20:45Z</time>
<desc>lat.=22.050657, lon.=104.119133, Alt.=245.931763m. Speed=17.280001m/h.</desc>
<speed>4.800000</speed>
</trkpt>
<trkpt lat="22.050783" lon="104.119339">
<ele>246.658325</ele>
<time>2011-04-26T09:20:50Z</time>
<desc>lat.=22.050783, lon.=104.119339, Alt.=246.658325m. Speed=14.436000m/h.</desc>
<speed>4.010000</speed>
</trkpt>
<trkpt lat="22.050821" lon="104.119568">
<ele>247.646606</ele>
<time>2011-04-26T09:20:55Z</time>
<desc>lat.=22.050821, lon.=104.119568, Alt.=247.646606m. Speed=11.772000m/h.</desc>
<speed>3.270000</speed>
</trkpt>
<trkpt lat="22.050789" lon="104.119736">
<ele>248.252075</ele>
<time>2011-04-26T09:21:00Z</time>
<desc>lat.=22.050789, lon.=104.119736, Alt.=248.252075m. Speed=12.672000m/h.</desc>
<speed>3.520000</speed>
</trkpt>
<trkpt lat="22.050758" lon="104.119919">
<ele>248.923950</ele>
<time>2011-04-26T09:21:05Z</time>
<desc>lat.=22.050758, lon.=104.119919, Alt.=248.923950m. Speed=11.628000m/h.</desc>
<speed>3.230000</speed>
</trkpt>
<trkpt lat="22.050724" lon="104.120094">
<ele>249.763794</ele>
<time>2011-04-26T09:21:10Z</time>
<desc>lat.=22.050724, lon.=104.120094, Alt.=249.763794m. Speed=11.520000m/h.</desc>
<speed>3.200000</speed>
</trkpt>
<trkpt lat="22.050711" lon="104.120300">
<ele>250.213013</ele>
<time>2011-04-26T09:21:15Z</time>
<desc>lat.=22.050711, lon.=104.120300, Alt.=250.213013m. Speed=10.116000m/h.</desc>
<speed>2.810000</speed>
</trkpt>
<trkpt lat="22.050686" lon="104.120453">
<ele>251.064575</ele>
<time>2011-04-26T09:21:20Z</time>
<desc>lat.=22.050686, lon.=104.120453, Alt.=251.064575m. Speed=9.288000m/h.</desc>
<speed>2.580000</speed>
</trkpt>
<trkpt lat="22.050663" lon="104.120651">
<ele>251.134888</ele>
<time>2011-04-26T09:21:25Z</time>
<desc>lat.=22.050663, lon.=104.120651, Alt.=251.134888m. Speed=9.648000m/h.</desc>
<speed>2.680000</speed>
</trkpt>
<trkpt lat="22.050655" lon="104.120789">
<ele>251.904419</ele>
<time>2011-04-26T09:21:30Z</time>
<desc>lat.=22.050655, lon.=104.120789, Alt.=251.904419m. Speed=6.732000m/h.</desc>
<speed>1.870000</speed>
</trkpt>
<trkpt lat="22.050625" lon="104.120926">
<ele>252.728638</ele>
<time>2011-04-26T09:21:35Z</time>
<desc>lat.=22.050625, lon.=104.120926, Alt.=252.728638m. Speed=9.540000m/h.</desc>
<speed>2.650000</speed>
</trkpt>
<trkpt lat="22.050587" lon="104.121033">
<ele>253.568481</ele>
<time>2011-04-26T09:21:40Z</time>
<desc>lat.=22.050587, lon.=104.121033, Alt.=253.568481m. Speed=9.180000m/h.</desc>
<speed>2.550000</speed>
</trkpt>
<trkpt lat="22.050558" lon="104.121170">
<ele>254.650513</ele>
<time>2011-04-26T09:21:45Z</time>
<desc>lat.=22.050558, lon.=104.121170, Alt.=254.650513m. Speed=7.704000m/h.</desc>
<speed>2.140000</speed>
</trkpt>
<trkpt lat="22.050535" lon="104.121262">
<ele>255.748169</ele>
<time>2011-04-26T09:21:50Z</time>
<desc>lat.=22.050535, lon.=104.121262, Alt.=255.748169m. Speed=1.980000m/h.</desc>
<speed>0.550000</speed>
</trkpt>
<trkpt lat="22.050537" lon="104.121269">
<ele>256.551025</ele>
<time>2011-04-26T09:21:55Z</time>
<desc>lat.=22.050537, lon.=104.121269, Alt.=256.551025m. Speed=0.612000m/h.</desc>
<speed>0.170000</speed>
</trkpt>
<trkpt lat="22.050543" lon="104.121277">
<ele>256.832275</ele>
<time>2011-04-26T09:22:00Z</time>
<desc>lat.=22.050543, lon.=104.121277, Alt.=256.832275m. Speed=0.180000m/h.</desc>
<speed>0.050000</speed>
</trkpt>
<trkpt lat="22.050541" lon="104.121292">
<ele>256.918213</ele>
<time>2011-04-26T09:22:05Z</time>
<desc>lat.=22.050541, lon.=104.121292, Alt.=256.918213m. Speed=1.080000m/h.</desc>
<speed>0.300000</speed>
</trkpt>
<trkpt lat="22.050535" lon="104.121300">
<ele>256.980713</ele>
<time>2011-04-26T09:22:10Z</time>
<desc>lat.=22.050535, lon.=104.121300, Alt.=256.980713m. Speed=0.972000m/h.</desc>
<speed>0.270000</speed>
</trkpt>
<trkpt lat="22.050526" lon="104.121323">
<ele>257.058838</ele>
<time>2011-04-26T09:22:15Z</time>
<desc>lat.=22.050526, lon.=104.121323, Alt.=257.058838m. Speed=1.728000m/h.</desc>
<speed>0.480000</speed>
</trkpt>
<trkpt lat="22.050516" lon="104.121338">
<ele>257.129150</ele>
<time>2011-04-26T09:22:20Z</time>
<desc>lat.=22.050516, lon.=104.121338, Alt.=257.129150m. Speed=1.620000m/h.</desc>
<speed>0.450000</speed>
</trkpt>
<trkpt lat="22.050514" lon="104.121361">
<ele>257.191650</ele>
<time>2011-04-26T09:22:25Z</time>
<desc>lat.=22.050514, lon.=104.121361, Alt.=257.191650m. Speed=1.728000m/h.</desc>
<speed>0.480000</speed>
</trkpt>
<trkpt lat="22.050482" lon="104.121483">
<ele>256.465088</ele>
<time>2011-04-26T09:22:30Z</time>
<desc>lat.=22.050482, lon.=104.121483, Alt.=256.465088m. Speed=9.180000m/h.</desc>
<speed>2.550000</speed>
</trkpt>
<trkpt lat="22.050428" lon="104.121635">
<ele>255.888794</ele>
<time>2011-04-26T09:22:35Z</time>
<desc>lat.=22.050428, lon.=104.121635, Alt.=255.888794m. Speed=14.328000m/h.</desc>
<speed>3.980000</speed>
</trkpt>
<trkpt lat="22.050375" lon="104.121849">
<ele>255.420044</ele>
<time>2011-04-26T09:22:40Z</time>
<desc>lat.=22.050375, lon.=104.121849, Alt.=255.420044m. Speed=16.056000m/h.</desc>
<speed>4.460000</speed>
</trkpt>
<trkpt lat="22.050365" lon="104.122070">
<ele>253.951294</ele>
<time>2011-04-26T09:22:45Z</time>
<desc>lat.=22.050365, lon.=104.122070, Alt.=253.951294m. Speed=11.772000m/h.</desc>
<speed>3.270000</speed>
</trkpt>
<trkpt lat="22.050369" lon="104.122208">
<ele>253.302856</ele>
<time>2011-04-26T09:22:50Z</time>
<desc>lat.=22.050369, lon.=104.122208, Alt.=253.302856m. Speed=6.912000m/h.</desc>
<speed>1.920000</speed>
</trkpt>
<trkpt lat="22.050373" lon="104.122299">
<ele>252.939575</ele>
<time>2011-04-26T09:22:55Z</time>
<desc>lat.=22.050373, lon.=104.122299, Alt.=252.939575m. Speed=7.560000m/h.</desc>
<speed>2.100000</speed>
</trkpt>
<trkpt lat="22.050398" lon="104.122421">
<ele>253.322388</ele>
<time>2011-04-26T09:23:00Z</time>
<desc>lat.=22.050398, lon.=104.122421, Alt.=253.322388m. Speed=7.920000m/h.</desc>
<speed>2.200000</speed>
</trkpt>
<trkpt lat="22.050436" lon="104.122589">
<ele>253.533325</ele>
<time>2011-04-26T09:23:05Z</time>
<desc>lat.=22.050436, lon.=104.122589, Alt.=253.533325m. Speed=8.928000m/h.</desc>
<speed>2.480000</speed>
</trkpt>
<trkpt lat="22.050457" lon="104.122734">
<ele>253.420044</ele>
<time>2011-04-26T09:23:10Z</time>
<desc>lat.=22.050457, lon.=104.122734, Alt.=253.420044m. Speed=9.900000m/h.</desc>
<speed>2.750000</speed>
</trkpt>
<trkpt lat="22.050404" lon="104.122955">
<ele>252.865356</ele>
<time>2011-04-26T09:23:15Z</time>
<desc>lat.=22.050404, lon.=104.122955, Alt.=252.865356m. Speed=11.016000m/h.</desc>
<speed>3.060000</speed>
</trkpt>
<trkpt lat="22.050356" lon="104.123131">
<ele>253.513794</ele>
<time>2011-04-26T09:23:20Z</time>
<desc>lat.=22.050356, lon.=104.123131, Alt.=253.513794m. Speed=10.440000m/h.</desc>
<speed>2.900000</speed>
</trkpt>
<trkpt lat="22.050285" lon="104.123283">
<ele>252.923950</ele>
<time>2011-04-26T09:23:25Z</time>
<desc>lat.=22.050285, lon.=104.123283, Alt.=252.923950m. Speed=10.944000m/h.</desc>
<speed>3.040000</speed>
</trkpt>
<trkpt lat="22.050232" lon="104.123398">
<ele>252.591919</ele>
<time>2011-04-26T09:23:30Z</time>
<desc>lat.=22.050232, lon.=104.123398, Alt.=252.591919m. Speed=8.316000m/h.</desc>
<speed>2.310000</speed>
</trkpt>
<trkpt lat="22.050203" lon="104.123474">
<ele>252.955200</ele>
<time>2011-04-26T09:23:35Z</time>
<desc>lat.=22.050203, lon.=104.123474, Alt.=252.955200m. Speed=5.292000m/h.</desc>
<speed>1.470000</speed>
</trkpt>
<trkpt lat="22.050169" lon="104.123512">
<ele>252.115356</ele>
<time>2011-04-26T09:23:40Z</time>
<desc>lat.=22.050169, lon.=104.123512, Alt.=252.115356m. Speed=4.212000m/h.</desc>
<speed>1.170000</speed>
</trkpt>
<trkpt lat="22.050169" lon="104.123581">
<ele>252.130981</ele>
<time>2011-04-26T09:23:45Z</time>
<desc>lat.=22.050169, lon.=104.123581, Alt.=252.130981m. Speed=4.392000m/h.</desc>
<speed>1.220000</speed>
</trkpt>
<trkpt lat="22.050165" lon="104.123634">
<ele>252.177856</ele>
<time>2011-04-26T09:23:50Z</time>
<desc>lat.=22.050165, lon.=104.123634, Alt.=252.177856m. Speed=2.736000m/h.</desc>
<speed>0.760000</speed>
</trkpt>
<trkpt lat="22.050173" lon="104.123680">
<ele>252.627075</ele>
<time>2011-04-26T09:23:55Z</time>
<desc>lat.=22.050173, lon.=104.123680, Alt.=252.627075m. Speed=2.916000m/h.</desc>
<speed>0.810000</speed>
</trkpt>
<trkpt lat="22.050179" lon="104.123756">
<ele>253.330200</ele>
<time>2011-04-26T09:24:00Z</time>
<desc>lat.=22.050179, lon.=104.123756, Alt.=253.330200m. Speed=6.984000m/h.</desc>
<speed>1.940000</speed>
</trkpt>
<trkpt lat="22.050184" lon="104.123833">
<ele>253.576294</ele>
<time>2011-04-26T09:24:05Z</time>
<desc>lat.=22.050184, lon.=104.123833, Alt.=253.576294m. Speed=5.004000m/h.</desc>
<speed>1.390000</speed>
</trkpt>
<trkpt lat="22.050188" lon="104.123909">
<ele>254.060669</ele>
<time>2011-04-26T09:24:10Z</time>
<desc>lat.=22.050188, lon.=104.123909, Alt.=254.060669m. Speed=4.752000m/h.</desc>
<speed>1.320000</speed>
</trkpt>
<trkpt lat="22.050192" lon="104.124001">
<ele>255.451294</ele>
<time>2011-04-26T09:24:15Z</time>
<desc>lat.=22.050192, lon.=104.124001, Alt.=255.451294m. Speed=5.508000m/h.</desc>
<speed>1.530000</speed>
</trkpt>
<trkpt lat="22.050186" lon="104.124077">
<ele>256.027588</ele>
<time>2011-04-26T09:24:20Z</time>
<desc>lat.=22.050186, lon.=104.124077, Alt.=256.027588m. Speed=6.012000m/h.</desc>
<speed>1.670000</speed>
</trkpt>
<trkpt lat="22.050196" lon="104.124176">
<ele>256.574463</ele>
<time>2011-04-26T09:24:25Z</time>
<desc>lat.=22.050196, lon.=104.124176, Alt.=256.574463m. Speed=5.940000m/h.</desc>
<speed>1.650000</speed>
</trkpt>
<trkpt lat="22.050201" lon="104.124260">
<ele>257.566650</ele>
<time>2011-04-26T09:24:30Z</time>
<desc>lat.=22.050201, lon.=104.124260, Alt.=257.566650m. Speed=5.040000m/h.</desc>
<speed>1.400000</speed>
</trkpt>
<trkpt lat="22.050186" lon="104.124336">
<ele>258.535400</ele>
<time>2011-04-26T09:24:35Z</time>
<desc>lat.=22.050186, lon.=104.124336, Alt.=258.535400m. Speed=4.680000m/h.</desc>
<speed>1.300000</speed>
</trkpt>
<trkpt lat="22.050182" lon="104.124420">
<ele>260.051025</ele>
<time>2011-04-26T09:24:40Z</time>
<desc>lat.=22.050182, lon.=104.124420, Alt.=260.051025m. Speed=6.624000m/h.</desc>
<speed>1.840000</speed>
</trkpt>
<trkpt lat="22.050190" lon="104.124504">
<ele>261.066650</ele>
<time>2011-04-26T09:24:45Z</time>
<desc>lat.=22.050190, lon.=104.124504, Alt.=261.066650m. Speed=6.012000m/h.</desc>
<speed>1.670000</speed>
</trkpt>
<trkpt lat="22.050180" lon="104.124580">
<ele>261.832275</ele>
<time>2011-04-26T09:24:50Z</time>
<desc>lat.=22.050180, lon.=104.124580, Alt.=261.832275m. Speed=5.688000m/h.</desc>
<speed>1.580000</speed>
</trkpt>
<trkpt lat="22.050180" lon="104.124657">
<ele>262.691650</ele>
<time>2011-04-26T09:24:55Z</time>
<desc>lat.=22.050180, lon.=104.124657, Alt.=262.691650m. Speed=4.536000m/h.</desc>
<speed>1.260000</speed>
</trkpt>
<trkpt lat="22.050165" lon="104.124748">
<ele>263.480713</ele>
<time>2011-04-26T09:25:00Z</time>
<desc>lat.=22.050165, lon.=104.124748, Alt.=263.480713m. Speed=5.508000m/h.</desc>
<speed>1.530000</speed>
</trkpt>
<trkpt lat="22.050146" lon="104.124825">
<ele>264.324463</ele>
<time>2011-04-26T09:25:05Z</time>
<desc>lat.=22.050146, lon.=104.124825, Alt.=264.324463m. Speed=5.220000m/h.</desc>
<speed>1.450000</speed>
</trkpt>
<trkpt lat="22.050135" lon="104.124924">
<ele>265.129150</ele>
<time>2011-04-26T09:25:10Z</time>
<desc>lat.=22.050135, lon.=104.124924, Alt.=265.129150m. Speed=6.984000m/h.</desc>
<speed>1.940000</speed>
</trkpt>
<trkpt lat="22.050125" lon="104.125008">
<ele>265.410400</ele>
<time>2011-04-26T09:25:15Z</time>
<desc>lat.=22.050125, lon.=104.125008, Alt.=265.410400m. Speed=6.480000m/h.</desc>
<speed>1.800000</speed>
</trkpt>
<trkpt lat="22.050116" lon="104.125107">
<ele>265.738525</ele>
<time>2011-04-26T09:25:20Z</time>
<desc>lat.=22.050116, lon.=104.125107, Alt.=265.738525m. Speed=6.624000m/h.</desc>
<speed>1.840000</speed>
</trkpt>
<trkpt lat="22.050083" lon="104.125191">
<ele>267.051025</ele>
<time>2011-04-26T09:25:25Z</time>
<desc>lat.=22.050083, lon.=104.125191, Alt.=267.051025m. Speed=6.948000m/h.</desc>
<speed>1.930000</speed>
</trkpt>
<trkpt lat="22.050035" lon="104.125305">
<ele>267.832275</ele>
<time>2011-04-26T09:25:30Z</time>
<desc>lat.=22.050035, lon.=104.125305, Alt.=267.832275m. Speed=6.300000m/h.</desc>
<speed>1.750000</speed>
</trkpt>
<trkpt lat="22.049990" lon="104.125389">
<ele>268.949463</ele>
<time>2011-04-26T09:25:35Z</time>
<desc>lat.=22.049990, lon.=104.125389, Alt.=268.949463m. Speed=5.400000m/h.</desc>
<speed>1.500000</speed>
</trkpt>
<trkpt lat="22.049974" lon="104.125412">
<ele>269.597900</ele>
<time>2011-04-26T09:25:40Z</time>
<desc>lat.=22.049974, lon.=104.125412, Alt.=269.597900m. Speed=0.396000m/h.</desc>
<speed>0.110000</speed>
</trkpt>
<trkpt lat="22.049973" lon="104.125412">
<ele>269.863525</ele>
<time>2011-04-26T09:25:45Z</time>
<desc>lat.=22.049973, lon.=104.125412, Alt.=269.863525m. Speed=0.072000m/h.</desc>
<speed>0.020000</speed>
</trkpt>
<trkpt lat="22.049961" lon="104.125420">
<ele>269.886963</ele>
<time>2011-04-26T09:25:50Z</time>
<desc>lat.=22.049961, lon.=104.125420, Alt.=269.886963m. Speed=3.528000m/h.</desc>
<speed>0.980000</speed>
</trkpt>
<trkpt lat="22.049953" lon="104.125443">
<ele>269.582275</ele>
<time>2011-04-26T09:25:55Z</time>
<desc>lat.=22.049953, lon.=104.125443, Alt.=269.582275m. Speed=1.116000m/h.</desc>
<speed>0.310000</speed>
</trkpt>
<trkpt lat="22.049953" lon="104.125458">
<ele>269.824463</ele>
<time>2011-04-26T09:26:00Z</time>
<desc>lat.=22.049953, lon.=104.125458, Alt.=269.824463m. Speed=0.324000m/h.</desc>
<speed>0.090000</speed>
</trkpt>
<trkpt lat="22.049955" lon="104.125458">
<ele>269.847900</ele>
<time>2011-04-26T09:26:05Z</time>
<desc>lat.=22.049955, lon.=104.125458, Alt.=269.847900m. Speed=0.216000m/h.</desc>
<speed>0.060000</speed>
</trkpt>
<trkpt lat="22.049957" lon="104.125458">
<ele>269.863525</ele>
<time>2011-04-26T09:26:10Z</time>
<desc>lat.=22.049957, lon.=104.125458, Alt.=269.863525m. Speed=0.576000m/h.</desc>
<speed>0.160000</speed>
</trkpt>
<trkpt lat="22.049961" lon="104.125458">
<ele>269.863525</ele>
<time>2011-04-26T09:26:15Z</time>
<desc>lat.=22.049961, lon.=104.125458, Alt.=269.863525m. Speed=0.036000m/h.</desc>
<speed>0.010000</speed>
</trkpt>
<trkpt lat="22.049961" lon="104.125458">
<ele>269.847900</ele>
<time>2011-04-26T09:26:20Z</time>
<desc>lat.=22.049961, lon.=104.125458, Alt.=269.847900m. Speed=0.108000m/h.</desc>
<speed>0.030000</speed>
</trkpt>
<trkpt lat="22.049961" lon="104.125458">
<ele>269.824463</ele>
<time>2011-04-26T09:26:25Z</time>
<desc>lat.=22.049961, lon.=104.125458, Alt.=269.824463m. Speed=0.216000m/h.</desc>
<speed>0.060000</speed>
</trkpt>
<trkpt lat="22.049961" lon="104.125458">
<ele>269.808838</ele>
<time>2011-04-26T09:26:30Z</time>
<desc>lat.=22.049961, lon.=104.125458, Alt.=269.808838m. Speed=0.108000m/h.</desc>
<speed>0.030000</speed>
</trkpt>
<trkpt lat="22.049959" lon="104.125458">
<ele>269.793213</ele>
<time>2011-04-26T09:26:35Z</time>
<desc>lat.=22.049959, lon.=104.125458, Alt.=269.793213m. Speed=0.144000m/h.</desc>
<speed>0.040000</speed>
</trkpt>
<trkpt lat="22.049963" lon="104.125458">
<ele>269.785400</ele>
<time>2011-04-26T09:26:40Z</time>
<desc>lat.=22.049963, lon.=104.125458, Alt.=269.785400m. Speed=0.684000m/h.</desc>
<speed>0.190000</speed>
</trkpt>
<trkpt lat="22.049965" lon="104.125458">
<ele>269.801025</ele>
<time>2011-04-26T09:26:45Z</time>
<desc>lat.=22.049965, lon.=104.125458, Alt.=269.801025m. Speed=0.360000m/h.</desc>
<speed>0.100000</speed>
</trkpt>
<trkpt lat="22.049971" lon="104.125465">
<ele>269.785400</ele>
<time>2011-04-26T09:26:50Z</time>
<desc>lat.=22.049971, lon.=104.125465, Alt.=269.785400m. Speed=0.396000m/h.</desc>
<speed>0.110000</speed>
</trkpt>
<trkpt lat="22.049973" lon="104.125465">
<ele>269.769775</ele>
<time>2011-04-26T09:26:55Z</time>
<desc>lat.=22.049973, lon.=104.125465, Alt.=269.769775m. Speed=0.216000m/h.</desc>
<speed>0.060000</speed>
</trkpt>
<trkpt lat="22.049973" lon="104.125465">
<ele>269.785400</ele>
<time>2011-04-26T09:27:00Z</time>
<desc>lat.=22.049973, lon.=104.125465, Alt.=269.785400m. Speed=0.108000m/h.</desc>
<speed>0.030000</speed>
</trkpt>
<trkpt lat="22.049971" lon="104.125465">
<ele>269.777588</ele>
<time>2011-04-26T09:27:05Z</time>
<desc>lat.=22.049971, lon.=104.125465, Alt.=269.777588m. Speed=0.036000m/h.</desc>
<speed>0.010000</speed>
</trkpt>
<trkpt lat="22.049967" lon="104.125458">
<ele>269.793213</ele>
<time>2011-04-26T09:27:10Z</time>
<desc>lat.=22.049967, lon.=104.125458, Alt.=269.793213m. Speed=0.468000m/h.</desc>
<speed>0.130000</speed>
</trkpt>
<trkpt lat="22.049967" lon="104.125465">
<ele>269.808838</ele>
<time>2011-04-26T09:27:15Z</time>
<desc>lat.=22.049967, lon.=104.125465, Alt.=269.808838m. Speed=0.252000m/h.</desc>
<speed>0.070000</speed>
</trkpt>
<trkpt lat="22.049967" lon="104.125465">
<ele>269.847900</ele>
<time>2011-04-26T09:27:20Z</time>
<desc>lat.=22.049967, lon.=104.125465, Alt.=269.847900m. Speed=0.072000m/h.</desc>
<speed>0.020000</speed>
</trkpt>
<trkpt lat="22.049965" lon="104.125465">
<ele>269.886963</ele>
<time>2011-04-26T09:27:25Z</time>
<desc>lat.=22.049965, lon.=104.125465, Alt.=269.886963m. Speed=0.036000m/h.</desc>
<speed>0.010000</speed>
</trkpt>
<trkpt lat="22.049967" lon="104.125465">
<ele>269.910400</ele>
<time>2011-04-26T09:27:30Z</time>
<desc>lat.=22.049967, lon.=104.125465, Alt.=269.910400m. Speed=0.108000m/h.</desc>
<speed>0.030000</speed>
</trkpt>
<trkpt lat="22.049967" lon="104.125465">
<ele>269.941650</ele>
<time>2011-04-26T09:27:35Z</time>
<desc>lat.=22.049967, lon.=104.125465, Alt.=269.941650m. Speed=0.252000m/h.</desc>
<speed>0.070000</speed>
</trkpt>
<trkpt lat="22.049967" lon="104.125465">
<ele>269.972900</ele>
<time>2011-04-26T09:27:40Z</time>
<desc>lat.=22.049967, lon.=104.125465, Alt.=269.972900m. Speed=0.036000m/h.</desc>
<speed>0.010000</speed>
</trkpt>
<trkpt lat="22.049967" lon="104.125465">
<ele>269.996338</ele>
<time>2011-04-26T09:27:45Z</time>
<desc>lat.=22.049967, lon.=104.125465, Alt.=269.996338m. Speed=0.252000m/h.</desc>
<speed>0.070000</speed>
</trkpt>
<trkpt lat="22.049963" lon="104.125465">
<ele>270.011963</ele>
<time>2011-04-26T09:27:50Z</time>
<desc>lat.=22.049963, lon.=104.125465, Alt.=270.011963m. Speed=0.432000m/h.</desc>
<speed>0.120000</speed>
</trkpt>
<trkpt lat="22.049959" lon="104.125458">
<ele>270.027588</ele>
<time>2011-04-26T09:27:55Z</time>
<desc>lat.=22.049959, lon.=104.125458, Alt.=270.027588m. Speed=0.360000m/h.</desc>
<speed>0.100000</speed>
</trkpt>
<trkpt lat="22.049955" lon="104.125458">
<ele>270.027588</ele>
<time>2011-04-26T09:28:00Z</time>
<desc>lat.=22.049955, lon.=104.125458, Alt.=270.027588m. Speed=0.360000m/h.</desc>
<speed>0.100000</speed>
</trkpt>
<trkpt lat="22.049952" lon="104.125450">
<ele>270.035400</ele>
<time>2011-04-26T09:28:05Z</time>
<desc>lat.=22.049952, lon.=104.125450, Alt.=270.035400m. Speed=0.288000m/h.</desc>
<speed>0.080000</speed>
</trkpt>
<trkpt lat="22.049948" lon="104.125450">
<ele>270.043213</ele>
<time>2011-04-26T09:28:10Z</time>
<desc>lat.=22.049948, lon.=104.125450, Alt.=270.043213m. Speed=0.216000m/h.</desc>
<speed>0.060000</speed>
</trkpt>
<trkpt lat="22.049946" lon="104.125450">
<ele>270.051025</ele>
<time>2011-04-26T09:28:15Z</time>
<desc>lat.=22.049946, lon.=104.125450, Alt.=270.051025m. Speed=0.036000m/h.</desc>
<speed>0.010000</speed>
</trkpt>
<trkpt lat="22.049948" lon="104.125450">
<ele>270.058838</ele>
<time>2011-04-26T09:28:20Z</time>
<desc>lat.=22.049948, lon.=104.125450, Alt.=270.058838m. Speed=0.108000m/h.</desc>
<speed>0.030000</speed>
</trkpt>
<trkpt lat="22.049948" lon="104.125450">
<ele>270.051025</ele>
<time>2011-04-26T09:28:25Z</time>
<desc>lat.=22.049948, lon.=104.125450, Alt.=270.051025m. Speed=0.108000m/h.</desc>
<speed>0.030000</speed>
</trkpt>
<trkpt lat="22.049946" lon="104.125450">
<ele>270.058838</ele>
<time>2011-04-26T09:28:30Z</time>
<desc>lat.=22.049946, lon.=104.125450, Alt.=270.058838m. Speed=0.036000m/h.</desc>
<speed>0.010000</speed>
</trkpt>
<trkpt lat="22.049944" lon="104.125450">
<ele>270.066650</ele>
<time>2011-04-26T09:28:35Z</time>
<desc>lat.=22.049944, lon.=104.125450, Alt.=270.066650m. Speed=0.180000m/h.</desc>
<speed>0.050000</speed>
</trkpt>
<trkpt lat="22.049942" lon="104.125450">
<ele>269.988525</ele>
<time>2011-04-26T09:28:40Z</time>
<desc>lat.=22.049942, lon.=104.125450, Alt.=269.988525m. Speed=0.144000m/h.</desc>
<speed>0.040000</speed>
</trkpt>
<trkpt lat="22.049940" lon="104.125458">
<ele>269.847900</ele>
<time>2011-04-26T09:28:45Z</time>
<desc>lat.=22.049940, lon.=104.125458, Alt.=269.847900m. Speed=0.288000m/h.</desc>
<speed>0.080000</speed>
</trkpt>
<trkpt lat="22.049938" lon="104.125450">
<ele>269.722900</ele>
<time>2011-04-26T09:28:50Z</time>
<desc>lat.=22.049938, lon.=104.125450, Alt.=269.722900m. Speed=0.216000m/h.</desc>
<speed>0.060000</speed>
</trkpt>
<trkpt lat="22.049936" lon="104.125450">
<ele>269.629150</ele>
<time>2011-04-26T09:28:55Z</time>
<desc>lat.=22.049936, lon.=104.125450, Alt.=269.629150m. Speed=0.792000m/h.</desc>
<speed>0.220000</speed>
</trkpt>
<trkpt lat="22.049885" lon="104.125504">
<ele>269.785400</ele>
<time>2011-04-26T09:29:00Z</time>
<desc>lat.=22.049885, lon.=104.125504, Alt.=269.785400m. Speed=5.112000m/h.</desc>
<speed>1.420000</speed>
</trkpt>
<trkpt lat="22.049841" lon="104.125587">
<ele>269.910400</ele>
<time>2011-04-26T09:29:05Z</time>
<desc>lat.=22.049841, lon.=104.125587, Alt.=269.910400m. Speed=6.624000m/h.</desc>
<speed>1.840000</speed>
</trkpt>
<trkpt lat="22.049818" lon="104.125664">
<ele>270.230713</ele>
<time>2011-04-26T09:29:10Z</time>
<desc>lat.=22.049818, lon.=104.125664, Alt.=270.230713m. Speed=5.868000m/h.</desc>
<speed>1.630000</speed>
</trkpt>
<trkpt lat="22.049799" lon="104.125771">
<ele>269.957275</ele>
<time>2011-04-26T09:29:15Z</time>
<desc>lat.=22.049799, lon.=104.125771, Alt.=269.957275m. Speed=8.244000m/h.</desc>
<speed>2.290000</speed>
</trkpt>
<trkpt lat="22.049803" lon="104.125893">
<ele>270.543213</ele>
<time>2011-04-26T09:29:20Z</time>
<desc>lat.=22.049803, lon.=104.125893, Alt.=270.543213m. Speed=9.288000m/h.</desc>
<speed>2.580000</speed>
</trkpt>
<trkpt lat="22.049835" lon="104.126038">
<ele>271.191650</ele>
<time>2011-04-26T09:29:25Z</time>
<desc>lat.=22.049835, lon.=104.126038, Alt.=271.191650m. Speed=11.808000m/h.</desc>
<speed>3.280000</speed>
</trkpt>
<trkpt lat="22.049885" lon="104.126282">
<ele>269.902588</ele>
<time>2011-04-26T09:29:30Z</time>
<desc>lat.=22.049885, lon.=104.126282, Alt.=269.902588m. Speed=19.296000m/h.</desc>
<speed>5.360000</speed>
</trkpt>
<trkpt lat="22.049953" lon="104.126511">
<ele>269.785400</ele>
<time>2011-04-26T09:29:35Z</time>
<desc>lat.=22.049953, lon.=104.126511, Alt.=269.785400m. Speed=15.228000m/h.</desc>
<speed>4.230000</speed>
</trkpt>
<trkpt lat="22.050049" lon="104.126678">
<ele>270.176025</ele>
<time>2011-04-26T09:29:40Z</time>
<desc>lat.=22.050049, lon.=104.126678, Alt.=270.176025m. Speed=15.120000m/h.</desc>
<speed>4.200000</speed>
</trkpt>
<trkpt lat="22.050161" lon="104.126869">
<ele>269.847900</ele>
<time>2011-04-26T09:29:45Z</time>
<desc>lat.=22.050161, lon.=104.126869, Alt.=269.847900m. Speed=22.464001m/h.</desc>
<speed>6.240000</speed>
</trkpt>
<trkpt lat="22.050329" lon="104.127159">
<ele>267.902588</ele>
<time>2011-04-26T09:29:50Z</time>
<desc>lat.=22.050329, lon.=104.127159, Alt.=267.902588m. Speed=20.304001m/h.</desc>
<speed>5.640000</speed>
</trkpt>
<trkpt lat="22.050480" lon="104.127396">
<ele>265.535400</ele>
<time>2011-04-26T09:29:55Z</time>
<desc>lat.=22.050480, lon.=104.127396, Alt.=265.535400m. Speed=18.612000m/h.</desc>
<speed>5.170000</speed>
</trkpt>
<trkpt lat="22.050591" lon="104.127647">
<ele>264.269775</ele>
<time>2011-04-26T09:30:00Z</time>
<desc>lat.=22.050591, lon.=104.127647, Alt.=264.269775m. Speed=18.323999m/h.</desc>
<speed>5.090000</speed>
</trkpt>
<trkpt lat="22.050713" lon="104.127937">
<ele>261.699463</ele>
<time>2011-04-26T09:30:05Z</time>
<desc>lat.=22.050713, lon.=104.127937, Alt.=261.699463m. Speed=18.864000m/h.</desc>
<speed>5.240000</speed>
</trkpt>
<trkpt lat="22.050816" lon="104.128212">
<ele>259.152588</ele>
<time>2011-04-26T09:30:10Z</time>
<desc>lat.=22.050816, lon.=104.128212, Alt.=259.152588m. Speed=24.660000m/h.</desc>
<speed>6.850000</speed>
</trkpt>
<trkpt lat="22.050926" lon="104.128563">
<ele>257.136963</ele>
<time>2011-04-26T09:30:15Z</time>
<desc>lat.=22.050926, lon.=104.128563, Alt.=257.136963m. Speed=27.972000m/h.</desc>
<speed>7.770000</speed>
</trkpt>
<trkpt lat="22.050985" lon="104.129036">
<ele>253.849731</ele>
<time>2011-04-26T09:30:20Z</time>
<desc>lat.=22.050985, lon.=104.129036, Alt.=253.849731m. Speed=31.535999m/h.</desc>
<speed>8.760000</speed>
</trkpt>
<trkpt lat="22.051016" lon="104.129509">
<ele>250.623169</ele>
<time>2011-04-26T09:30:25Z</time>
<desc>lat.=22.051016, lon.=104.129509, Alt.=250.623169m. Speed=30.348000m/h.</desc>
<speed>8.430000</speed>
</trkpt>
<trkpt lat="22.051252" lon="104.129875">
<ele>246.529419</ele>
<time>2011-04-26T09:30:30Z</time>
<desc>lat.=22.051252, lon.=104.129875, Alt.=246.529419m. Speed=34.091999m/h.</desc>
<speed>9.470000</speed>
</trkpt>
<trkpt lat="22.051365" lon="104.130188">
<ele>244.650513</ele>
<time>2011-04-26T09:30:35Z</time>
<desc>lat.=22.051365, lon.=104.130188, Alt.=244.650513m. Speed=20.195999m/h.</desc>
<speed>5.610000</speed>
</trkpt>
<trkpt lat="22.051277" lon="104.130486">
<ele>243.295044</ele>
<time>2011-04-26T09:30:40Z</time>
<desc>lat.=22.051277, lon.=104.130486, Alt.=243.295044m. Speed=23.219999m/h.</desc>
<speed>6.450000</speed>
</trkpt>
<trkpt lat="22.051142" lon="104.130875">
<ele>242.361450</ele>
<time>2011-04-26T09:30:45Z</time>
<desc>lat.=22.051142, lon.=104.130875, Alt.=242.361450m. Speed=26.568001m/h.</desc>
<speed>7.380000</speed>
</trkpt>
<trkpt lat="22.051043" lon="104.131203">
<ele>240.654419</ele>
<time>2011-04-26T09:30:50Z</time>
<desc>lat.=22.051043, lon.=104.131203, Alt.=240.654419m. Speed=18.396000m/h.</desc>
<speed>5.110000</speed>
</trkpt>
<trkpt lat="22.051027" lon="104.131470">
<ele>238.713013</ele>
<time>2011-04-26T09:30:55Z</time>
<desc>lat.=22.051027, lon.=104.131470, Alt.=238.713013m. Speed=20.268000m/h.</desc>
<speed>5.630000</speed>
</trkpt>
<trkpt lat="22.051069" lon="104.131836">
<ele>235.939575</ele>
<time>2011-04-26T09:31:00Z</time>
<desc>lat.=22.051069, lon.=104.131836, Alt.=235.939575m. Speed=21.528000m/h.</desc>
<speed>5.980000</speed>
</trkpt>
<trkpt lat="22.051096" lon="104.132103">
<ele>235.091919</ele>
<time>2011-04-26T09:31:05Z</time>
<desc>lat.=22.051096, lon.=104.132103, Alt.=235.091919m. Speed=19.403999m/h.</desc>
<speed>5.390000</speed>
</trkpt>
<trkpt lat="22.051147" lon="104.132355">
<ele>233.576294</ele>
<time>2011-04-26T09:31:10Z</time>
<desc>lat.=22.051147, lon.=104.132355, Alt.=233.576294m. Speed=16.344000m/h.</desc>
<speed>4.540000</speed>
</trkpt>
<trkpt lat="22.051207" lon="104.132553">
<ele>233.420044</ele>
<time>2011-04-26T09:31:15Z</time>
<desc>lat.=22.051207, lon.=104.132553, Alt.=233.420044m. Speed=12.096000m/h.</desc>
<speed>3.360000</speed>
</trkpt>
<trkpt lat="22.051266" lon="104.132690">
<ele>232.505981</ele>
<time>2011-04-26T09:31:20Z</time>
<desc>lat.=22.051266, lon.=104.132690, Alt.=232.505981m. Speed=10.512000m/h.</desc>
<speed>2.920000</speed>
</trkpt>
<trkpt lat="22.051317" lon="104.132813">
<ele>235.189575</ele>
<time>2011-04-26T09:31:25Z</time>
<desc>lat.=22.051317, lon.=104.132813, Alt.=235.189575m. Speed=10.548000m/h.</desc>
<speed>2.930000</speed>
</trkpt>
<trkpt lat="22.051407" lon="104.132935">
<ele>235.775513</ele>
<time>2011-04-26T09:31:30Z</time>
<desc>lat.=22.051407, lon.=104.132935, Alt.=235.775513m. Speed=10.836000m/h.</desc>
<speed>3.010000</speed>
</trkpt>
<trkpt lat="22.051523" lon="104.133064">
<ele>235.642700</ele>
<time>2011-04-26T09:31:35Z</time>
<desc>lat.=22.051523, lon.=104.133064, Alt.=235.642700m. Speed=10.944000m/h.</desc>
<speed>3.040000</speed>
</trkpt>
<trkpt lat="22.051601" lon="104.133179">
<ele>237.134888</ele>
<time>2011-04-26T09:31:40Z</time>
<desc>lat.=22.051601, lon.=104.133179, Alt.=237.134888m. Speed=7.884000m/h.</desc>
<speed>2.190000</speed>
</trkpt>
<trkpt lat="22.051649" lon="104.133270">
<ele>238.455200</ele>
<time>2011-04-26T09:31:45Z</time>
<desc>lat.=22.051649, lon.=104.133270, Alt.=238.455200m. Speed=6.912000m/h.</desc>
<speed>1.920000</speed>
</trkpt>
<trkpt lat="22.051682" lon="104.133354">
<ele>239.037231</ele>
<time>2011-04-26T09:31:50Z</time>
<desc>lat.=22.051682, lon.=104.133354, Alt.=239.037231m. Speed=7.560000m/h.</desc>
<speed>2.100000</speed>
</trkpt>
<trkpt lat="22.051750" lon="104.133476">
<ele>238.412231</ele>
<time>2011-04-26T09:31:55Z</time>
<desc>lat.=22.051750, lon.=104.133476, Alt.=238.412231m. Speed=8.532000m/h.</desc>
<speed>2.370000</speed>
</trkpt>
<trkpt lat="22.051781" lon="104.133591">
<ele>238.236450</ele>
<time>2011-04-26T09:32:00Z</time>
<desc>lat.=22.051781, lon.=104.133591, Alt.=238.236450m. Speed=8.172000m/h.</desc>
<speed>2.270000</speed>
</trkpt>
<trkpt lat="22.051813" lon="104.133698">
<ele>238.439575</ele>
<time>2011-04-26T09:32:05Z</time>
<desc>lat.=22.051813, lon.=104.133698, Alt.=238.439575m. Speed=9.432000m/h.</desc>
<speed>2.620000</speed>
</trkpt>
<trkpt lat="22.051844" lon="104.133804">
<ele>239.021606</ele>
<time>2011-04-26T09:32:10Z</time>
<desc>lat.=22.051844, lon.=104.133804, Alt.=239.021606m. Speed=7.596000m/h.</desc>
<speed>2.110000</speed>
</trkpt>
<trkpt lat="22.051874" lon="104.133926">
<ele>238.162231</ele>
<time>2011-04-26T09:32:15Z</time>
<desc>lat.=22.051874, lon.=104.133926, Alt.=238.162231m. Speed=10.656000m/h.</desc>
<speed>2.960000</speed>
</trkpt>
<trkpt lat="22.051893" lon="104.134079">
<ele>237.318481</ele>
<time>2011-04-26T09:32:20Z</time>
<desc>lat.=22.051893, lon.=104.134079, Alt.=237.318481m. Speed=10.440000m/h.</desc>
<speed>2.900000</speed>
</trkpt>
<trkpt lat="22.051914" lon="104.134209">
<ele>236.345825</ele>
<time>2011-04-26T09:32:25Z</time>
<desc>lat.=22.051914, lon.=104.134209, Alt.=236.345825m. Speed=9.396000m/h.</desc>
<speed>2.610000</speed>
</trkpt>
<trkpt lat="22.051952" lon="104.134354">
<ele>237.060669</ele>
<time>2011-04-26T09:32:30Z</time>
<desc>lat.=22.051952, lon.=104.134354, Alt.=237.060669m. Speed=11.340000m/h.</desc>
<speed>3.150000</speed>
</trkpt>
<trkpt lat="22.051996" lon="104.134499">
<ele>235.474731</ele>
<time>2011-04-26T09:32:35Z</time>
<desc>lat.=22.051996, lon.=104.134499, Alt.=235.474731m. Speed=8.964000m/h.</desc>
<speed>2.490000</speed>
</trkpt>
<trkpt lat="22.052034" lon="104.134636">
<ele>235.599731</ele>
<time>2011-04-26T09:32:40Z</time>
<desc>lat.=22.052034, lon.=104.134636, Alt.=235.599731m. Speed=8.856000m/h.</desc>
<speed>2.460000</speed>
</trkpt>
<trkpt lat="22.052038" lon="104.134781">
<ele>235.283325</ele>
<time>2011-04-26T09:32:45Z</time>
<desc>lat.=22.052038, lon.=104.134781, Alt.=235.283325m. Speed=7.560000m/h.</desc>
<speed>2.100000</speed>
</trkpt>
<trkpt lat="22.052076" lon="104.134972">
<ele>233.775513</ele>
<time>2011-04-26T09:32:50Z</time>
<desc>lat.=22.052076, lon.=104.134972, Alt.=233.775513m. Speed=11.808000m/h.</desc>
<speed>3.280000</speed>
</trkpt>
<trkpt lat="22.052116" lon="104.135162">
<ele>232.795044</ele>
<time>2011-04-26T09:32:55Z</time>
<desc>lat.=22.052116, lon.=104.135162, Alt.=232.795044m. Speed=13.896000m/h.</desc>
<speed>3.860000</speed>
</trkpt>
<trkpt lat="22.052170" lon="104.135361">
<ele>232.404419</ele>
<time>2011-04-26T09:33:00Z</time>
<desc>lat.=22.052170, lon.=104.135361, Alt.=232.404419m. Speed=12.492000m/h.</desc>
<speed>3.470000</speed>
</trkpt>
<trkpt lat="22.052212" lon="104.135529">
<ele>232.451294</ele>
<time>2011-04-26T09:33:05Z</time>
<desc>lat.=22.052212, lon.=104.135529, Alt.=232.451294m. Speed=10.944000m/h.</desc>
<speed>3.040000</speed>
</trkpt>
<trkpt lat="22.052225" lon="104.135696">
<ele>231.935669</ele>
<time>2011-04-26T09:33:10Z</time>
<desc>lat.=22.052225, lon.=104.135696, Alt.=231.935669m. Speed=12.096000m/h.</desc>
<speed>3.360000</speed>
</trkpt>
<trkpt lat="22.052166" lon="104.135887">
<ele>232.095825</ele>
<time>2011-04-26T09:33:15Z</time>
<desc>lat.=22.052166, lon.=104.135887, Alt.=232.095825m. Speed=16.271999m/h.</desc>
<speed>4.520000</speed>
</trkpt>
<trkpt lat="22.052027" lon="104.136124">
<ele>231.373169</ele>
<time>2011-04-26T09:33:20Z</time>
<desc>lat.=22.052027, lon.=104.136124, Alt.=231.373169m. Speed=20.844000m/h.</desc>
<speed>5.790000</speed>
</trkpt>
<trkpt lat="22.051903" lon="104.136383">
<ele>230.580200</ele>
<time>2011-04-26T09:33:25Z</time>
<desc>lat.=22.051903, lon.=104.136383, Alt.=230.580200m. Speed=22.500000m/h.</desc>
<speed>6.250000</speed>
</trkpt>
<trkpt lat="22.051834" lon="104.136658">
<ele>229.072388</ele>
<time>2011-04-26T09:33:30Z</time>
<desc>lat.=22.051834, lon.=104.136658, Alt.=229.072388m. Speed=18.827999m/h.</desc>
<speed>5.230000</speed>
</trkpt>
<trkpt lat="22.051777" lon="104.136879">
<ele>229.392700</ele>
<time>2011-04-26T09:33:35Z</time>
<desc>lat.=22.051777, lon.=104.136879, Alt.=229.392700m. Speed=16.236000m/h.</desc>
<speed>4.510000</speed>
</trkpt>
<trkpt lat="22.051704" lon="104.137062">
<ele>229.736450</ele>
<time>2011-04-26T09:33:40Z</time>
<desc>lat.=22.051704, lon.=104.137062, Alt.=229.736450m. Speed=14.544000m/h.</desc>
<speed>4.040000</speed>
</trkpt>
<trkpt lat="22.051657" lon="104.137260">
<ele>229.888794</ele>
<time>2011-04-26T09:33:45Z</time>
<desc>lat.=22.051657, lon.=104.137260, Alt.=229.888794m. Speed=13.680000m/h.</desc>
<speed>3.800000</speed>
</trkpt>
<trkpt lat="22.051609" lon="104.137482">
<ele>228.966919</ele>
<time>2011-04-26T09:33:50Z</time>
<desc>lat.=22.051609, lon.=104.137482, Alt.=228.966919m. Speed=16.128000m/h.</desc>
<speed>4.480000</speed>
</trkpt>
<trkpt lat="22.051559" lon="104.137688">
<ele>227.795044</ele>
<time>2011-04-26T09:33:55Z</time>
<desc>lat.=22.051559, lon.=104.137688, Alt.=227.795044m. Speed=15.120000m/h.</desc>
<speed>4.200000</speed>
</trkpt>
<trkpt lat="22.051512" lon="104.137886">
<ele>226.908325</ele>
<time>2011-04-26T09:34:00Z</time>
<desc>lat.=22.051512, lon.=104.137886, Alt.=226.908325m. Speed=13.608000m/h.</desc>
<speed>3.780000</speed>
</trkpt>
<trkpt lat="22.051481" lon="104.138107">
<ele>226.556763</ele>
<time>2011-04-26T09:34:05Z</time>
<desc>lat.=22.051481, lon.=104.138107, Alt.=226.556763m. Speed=16.992001m/h.</desc>
<speed>4.720000</speed>
</trkpt>
<trkpt lat="22.051510" lon="104.138359">
<ele>226.791138</ele>
<time>2011-04-26T09:34:10Z</time>
<desc>lat.=22.051510, lon.=104.138359, Alt.=226.791138m. Speed=15.156000m/h.</desc>
<speed>4.210000</speed>
</trkpt>
<trkpt lat="22.051573" lon="104.138550">
<ele>226.533325</ele>
<time>2011-04-26T09:34:15Z</time>
<desc>lat.=22.051573, lon.=104.138550, Alt.=226.533325m. Speed=12.816000m/h.</desc>
<speed>3.560000</speed>
</trkpt>
<trkpt lat="22.051611" lon="104.138687">
<ele>227.255981</ele>
<time>2011-04-26T09:34:20Z</time>
<desc>lat.=22.051611, lon.=104.138687, Alt.=227.255981m. Speed=9.468000m/h.</desc>
<speed>2.630000</speed>
</trkpt>
<trkpt lat="22.051697" lon="104.138885">
<ele>227.572388</ele>
<time>2011-04-26T09:34:25Z</time>
<desc>lat.=22.051697, lon.=104.138885, Alt.=227.572388m. Speed=14.868000m/h.</desc>
<speed>4.130000</speed>
</trkpt>
<trkpt lat="22.051804" lon="104.139145">
<ele>227.287231</ele>
<time>2011-04-26T09:34:30Z</time>
<desc>lat.=22.051804, lon.=104.139145, Alt.=227.287231m. Speed=17.747999m/h.</desc>
<speed>4.930000</speed>
</trkpt>
<trkpt lat="22.051888" lon="104.139404">
<ele>227.408325</ele>
<time>2011-04-26T09:34:35Z</time>
<desc>lat.=22.051888, lon.=104.139404, Alt.=227.408325m. Speed=12.564000m/h.</desc>
<speed>3.490000</speed>
</trkpt>
<trkpt lat="22.051949" lon="104.139580">
<ele>227.080200</ele>
<time>2011-04-26T09:34:40Z</time>
<desc>lat.=22.051949, lon.=104.139580, Alt.=227.080200m. Speed=13.176000m/h.</desc>
<speed>3.660000</speed>
</trkpt>
<trkpt lat="22.052008" lon="104.139832">
<ele>227.341919</ele>
<time>2011-04-26T09:34:45Z</time>
<desc>lat.=22.052008, lon.=104.139832, Alt.=227.341919m. Speed=12.204000m/h.</desc>
<speed>3.390000</speed>
</trkpt>
<trkpt lat="22.052113" lon="104.140091">
<ele>228.056763</ele>
<time>2011-04-26T09:34:50Z</time>
<desc>lat.=22.052113, lon.=104.140091, Alt.=228.056763m. Speed=11.196000m/h.</desc>
<speed>3.110000</speed>
</trkpt>
<trkpt lat="22.052248" lon="104.140282">
<ele>228.439575</ele>
<time>2011-04-26T09:34:55Z</time>
<desc>lat.=22.052248, lon.=104.140282, Alt.=228.439575m. Speed=13.788000m/h.</desc>
<speed>3.830000</speed>
</trkpt>
<trkpt lat="22.052435" lon="104.140457">
<ele>227.798950</ele>
<time>2011-04-26T09:35:00Z</time>
<desc>lat.=22.052435, lon.=104.140457, Alt.=227.798950m. Speed=14.112000m/h.</desc>
<speed>3.920000</speed>
</trkpt>
<trkpt lat="22.052588" lon="104.140610">
<ele>227.552856</ele>
<time>2011-04-26T09:35:05Z</time>
<desc>lat.=22.052588, lon.=104.140610, Alt.=227.552856m. Speed=8.856000m/h.</desc>
<speed>2.460000</speed>
</trkpt>
<trkpt lat="22.052671" lon="104.140747">
<ele>228.541138</ele>
<time>2011-04-26T09:35:10Z</time>
<desc>lat.=22.052671, lon.=104.140747, Alt.=228.541138m. Speed=8.676000m/h.</desc>
<speed>2.410000</speed>
</trkpt>
<trkpt lat="22.052794" lon="104.140892">
<ele>229.314575</ele>
<time>2011-04-26T09:35:15Z</time>
<desc>lat.=22.052794, lon.=104.140892, Alt.=229.314575m. Speed=8.712000m/h.</desc>
<speed>2.420000</speed>
</trkpt>
<trkpt lat="22.052904" lon="104.141052">
<ele>229.513794</ele>
<time>2011-04-26T09:35:20Z</time>
<desc>lat.=22.052904, lon.=104.141052, Alt.=229.513794m. Speed=8.352000m/h.</desc>
<speed>2.320000</speed>
</trkpt>
<trkpt lat="22.052986" lon="104.141190">
<ele>229.767700</ele>
<time>2011-04-26T09:35:25Z</time>
<desc>lat.=22.052986, lon.=104.141190, Alt.=229.767700m. Speed=8.856000m/h.</desc>
<speed>2.460000</speed>
</trkpt>
<trkpt lat="22.053070" lon="104.141380">
<ele>227.423950</ele>
<time>2011-04-26T09:35:30Z</time>
<desc>lat.=22.053070, lon.=104.141380, Alt.=227.423950m. Speed=8.100000m/h.</desc>
<speed>2.250000</speed>
</trkpt>
<trkpt lat="22.053186" lon="104.141533">
<ele>227.619263</ele>
<time>2011-04-26T09:35:35Z</time>
<desc>lat.=22.053186, lon.=104.141533, Alt.=227.619263m. Speed=9.252000m/h.</desc>
<speed>2.570000</speed>
</trkpt>
<trkpt lat="22.053324" lon="104.141663">
<ele>229.013794</ele>
<time>2011-04-26T09:35:40Z</time>
<desc>lat.=22.053324, lon.=104.141663, Alt.=229.013794m. Speed=11.844000m/h.</desc>
<speed>3.290000</speed>
</trkpt>
<trkpt lat="22.053493" lon="104.141838">
<ele>227.494263</ele>
<time>2011-04-26T09:35:45Z</time>
<desc>lat.=22.053493, lon.=104.141838, Alt.=227.494263m. Speed=14.760000m/h.</desc>
<speed>4.100000</speed>
</trkpt>
<trkpt lat="22.053692" lon="104.141937">
<ele>227.228638</ele>
<time>2011-04-26T09:35:50Z</time>
<desc>lat.=22.053692, lon.=104.141937, Alt.=227.228638m. Speed=16.632000m/h.</desc>
<speed>4.620000</speed>
</trkpt>
<trkpt lat="22.053938" lon="104.142044">
<ele>227.611450</ele>
<time>2011-04-26T09:35:55Z</time>
<desc>lat.=22.053938, lon.=104.142044, Alt.=227.611450m. Speed=14.940000m/h.</desc>
<speed>4.150000</speed>
</trkpt>
<trkpt lat="22.054125" lon="104.142090">
<ele>226.498169</ele>
<time>2011-04-26T09:36:00Z</time>
<desc>lat.=22.054125, lon.=104.142090, Alt.=226.498169m. Speed=10.908000m/h.</desc>
<speed>3.030000</speed>
</trkpt>
<trkpt lat="22.054335" lon="104.142181">
<ele>228.545044</ele>
<time>2011-04-26T09:36:05Z</time>
<desc>lat.=22.054335, lon.=104.142181, Alt.=228.545044m. Speed=9.864000m/h.</desc>
<speed>2.740000</speed>
</trkpt>
<trkpt lat="22.054455" lon="104.142250">
<ele>230.154419</ele>
<time>2011-04-26T09:36:10Z</time>
<desc>lat.=22.054455, lon.=104.142250, Alt.=230.154419m. Speed=6.804000m/h.</desc>
<speed>1.890000</speed>
</trkpt>
<trkpt lat="22.054569" lon="104.142296">
<ele>231.720825</ele>
<time>2011-04-26T09:36:15Z</time>
<desc>lat.=22.054569, lon.=104.142296, Alt.=231.720825m. Speed=8.460000m/h.</desc>
<speed>2.350000</speed>
</trkpt>
<trkpt lat="22.054699" lon="104.142410">
<ele>231.779419</ele>
<time>2011-04-26T09:36:20Z</time>
<desc>lat.=22.054699, lon.=104.142410, Alt.=231.779419m. Speed=8.604000m/h.</desc>
<speed>2.390000</speed>
</trkpt>
<trkpt lat="22.054798" lon="104.142471">
<ele>233.287231</ele>
<time>2011-04-26T09:36:25Z</time>
<desc>lat.=22.054798, lon.=104.142471, Alt.=233.287231m. Speed=9.144000m/h.</desc>
<speed>2.540000</speed>
</trkpt>
<trkpt lat="22.054903" lon="104.142540">
<ele>233.455200</ele>
<time>2011-04-26T09:36:30Z</time>
<desc>lat.=22.054903, lon.=104.142540, Alt.=233.455200m. Speed=7.560000m/h.</desc>
<speed>2.100000</speed>
</trkpt>
<trkpt lat="22.054981" lon="104.142616">
<ele>233.494263</ele>
<time>2011-04-26T09:36:35Z</time>
<desc>lat.=22.054981, lon.=104.142616, Alt.=233.494263m. Speed=5.940000m/h.</desc>
<speed>1.650000</speed>
</trkpt>
<trkpt lat="22.055016" lon="104.142685">
<ele>234.759888</ele>
<time>2011-04-26T09:36:40Z</time>
<desc>lat.=22.055016, lon.=104.142685, Alt.=234.759888m. Speed=3.924000m/h.</desc>
<speed>1.090000</speed>
</trkpt>
<trkpt lat="22.055040" lon="104.142723">
<ele>236.197388</ele>
<time>2011-04-26T09:36:45Z</time>
<desc>lat.=22.055040, lon.=104.142723, Alt.=236.197388m. Speed=1.260000m/h.</desc>
<speed>0.350000</speed>
</trkpt>
<trkpt lat="22.055058" lon="104.142715">
<ele>236.474731</ele>
<time>2011-04-26T09:36:50Z</time>
<desc>lat.=22.055058, lon.=104.142715, Alt.=236.474731m. Speed=1.260000m/h.</desc>
<speed>0.350000</speed>
</trkpt>
<trkpt lat="22.055075" lon="104.142715">
<ele>236.752075</ele>
<time>2011-04-26T09:36:55Z</time>
<desc>lat.=22.055075, lon.=104.142715, Alt.=236.752075m. Speed=1.260000m/h.</desc>
<speed>0.350000</speed>
</trkpt>
<trkpt lat="22.055094" lon="104.142708">
<ele>236.994263</ele>
<time>2011-04-26T09:37:00Z</time>
<desc>lat.=22.055094, lon.=104.142708, Alt.=236.994263m. Speed=1.800000m/h.</desc>
<speed>0.500000</speed>
</trkpt>
<trkpt lat="22.055117" lon="104.142700">
<ele>237.209106</ele>
<time>2011-04-26T09:37:05Z</time>
<desc>lat.=22.055117, lon.=104.142700, Alt.=237.209106m. Speed=1.872000m/h.</desc>
<speed>0.520000</speed>
</trkpt>
<trkpt lat="22.055140" lon="104.142700">
<ele>237.427856</ele>
<time>2011-04-26T09:37:10Z</time>
<desc>lat.=22.055140, lon.=104.142700, Alt.=237.427856m. Speed=1.872000m/h.</desc>
<speed>0.520000</speed>
</trkpt>
<trkpt lat="22.055164" lon="104.142700">
<ele>237.670044</ele>
<time>2011-04-26T09:37:15Z</time>
<desc>lat.=22.055164, lon.=104.142700, Alt.=237.670044m. Speed=1.836000m/h.</desc>
<speed>0.510000</speed>
</trkpt>
<trkpt lat="22.055197" lon="104.142738">
<ele>237.045044</ele>
<time>2011-04-26T09:37:20Z</time>
<desc>lat.=22.055197, lon.=104.142738, Alt.=237.045044m. Speed=7.848000m/h.</desc>
<speed>2.180000</speed>
</trkpt>
<trkpt lat="22.055265" lon="104.142807">
<ele>237.341919</ele>
<time>2011-04-26T09:37:25Z</time>
<desc>lat.=22.055265, lon.=104.142807, Alt.=237.341919m. Speed=6.696000m/h.</desc>
<speed>1.860000</speed>
</trkpt>
<trkpt lat="22.055323" lon="104.142899">
<ele>235.857544</ele>
<time>2011-04-26T09:37:30Z</time>
<desc>lat.=22.055323, lon.=104.142899, Alt.=235.857544m. Speed=4.464000m/h.</desc>
<speed>1.240000</speed>
</trkpt>
<trkpt lat="22.055382" lon="104.142982">
<ele>235.525513</ele>
<time>2011-04-26T09:37:35Z</time>
<desc>lat.=22.055382, lon.=104.142982, Alt.=235.525513m. Speed=8.676000m/h.</desc>
<speed>2.410000</speed>
</trkpt>
<trkpt lat="22.055426" lon="104.143051">
<ele>236.111450</ele>
<time>2011-04-26T09:37:40Z</time>
<desc>lat.=22.055426, lon.=104.143051, Alt.=236.111450m. Speed=3.276000m/h.</desc>
<speed>0.910000</speed>
</trkpt>
<trkpt lat="22.055454" lon="104.143127">
<ele>237.252075</ele>
<time>2011-04-26T09:37:45Z</time>
<desc>lat.=22.055454, lon.=104.143127, Alt.=237.252075m. Speed=3.528000m/h.</desc>
<speed>0.980000</speed>
</trkpt>
<trkpt lat="22.055492" lon="104.143196">
<ele>238.548950</ele>
<time>2011-04-26T09:37:50Z</time>
<desc>lat.=22.055492, lon.=104.143196, Alt.=238.548950m. Speed=2.844000m/h.</desc>
<speed>0.790000</speed>
</trkpt>
<trkpt lat="22.055510" lon="104.143265">
<ele>239.408325</ele>
<time>2011-04-26T09:37:55Z</time>
<desc>lat.=22.055510, lon.=104.143265, Alt.=239.408325m. Speed=2.988000m/h.</desc>
<speed>0.830000</speed>
</trkpt>
<trkpt lat="22.055536" lon="104.143349">
<ele>240.392700</ele>
<time>2011-04-26T09:38:00Z</time>
<desc>lat.=22.055536, lon.=104.143349, Alt.=240.392700m. Speed=2.484000m/h.</desc>
<speed>0.690000</speed>
</trkpt>
<trkpt lat="22.055546" lon="104.143410">
<ele>242.361450</ele>
<time>2011-04-26T09:38:05Z</time>
<desc>lat.=22.055546, lon.=104.143410, Alt.=242.361450m. Speed=3.024000m/h.</desc>
<speed>0.840000</speed>
</trkpt>
<trkpt lat="22.055550" lon="104.143471">
<ele>242.166138</ele>
<time>2011-04-26T09:38:10Z</time>
<desc>lat.=22.055550, lon.=104.143471, Alt.=242.166138m. Speed=1.044000m/h.</desc>
<speed>0.290000</speed>
</trkpt>
<trkpt lat="22.055546" lon="104.143478">
<ele>243.259888</ele>
<time>2011-04-26T09:38:15Z</time>
<desc>lat.=22.055546, lon.=104.143478, Alt.=243.259888m. Speed=0.036000m/h.</desc>
<speed>0.010000</speed>
</trkpt>
<trkpt lat="22.055544" lon="104.143478">
<ele>243.666138</ele>
<time>2011-04-26T09:38:20Z</time>
<desc>lat.=22.055544, lon.=104.143478, Alt.=243.666138m. Speed=0.144000m/h.</desc>
<speed>0.040000</speed>
</trkpt>
<trkpt lat="22.055542" lon="104.143478">
<ele>244.041138</ele>
<time>2011-04-26T09:38:25Z</time>
<desc>lat.=22.055542, lon.=104.143478, Alt.=244.041138m. Speed=1.296000m/h.</desc>
<speed>0.360000</speed>
</trkpt>
<trkpt lat="22.055532" lon="104.143539">
<ele>244.209106</ele>
<time>2011-04-26T09:38:30Z</time>
<desc>lat.=22.055532, lon.=104.143539, Alt.=244.209106m. Speed=4.140000m/h.</desc>
<speed>1.150000</speed>
</trkpt>
<trkpt lat="22.055538" lon="104.143562">
<ele>244.173950</ele>
<time>2011-04-26T09:38:35Z</time>
<desc>lat.=22.055538, lon.=104.143562, Alt.=244.173950m. Speed=0.936000m/h.</desc>
<speed>0.260000</speed>
</trkpt>
<trkpt lat="22.055546" lon="104.143555">
<ele>244.107544</ele>
<time>2011-04-26T09:38:40Z</time>
<desc>lat.=22.055546, lon.=104.143555, Alt.=244.107544m. Speed=1.044000m/h.</desc>
<speed>0.290000</speed>
</trkpt>
<trkpt lat="22.055553" lon="104.143555">
<ele>244.166138</ele>
<time>2011-04-26T09:38:45Z</time>
<desc>lat.=22.055553, lon.=104.143555, Alt.=244.166138m. Speed=0.036000m/h.</desc>
<speed>0.010000</speed>
</trkpt>
<trkpt lat="22.055552" lon="104.143555">
<ele>244.181763</ele>
<time>2011-04-26T09:38:50Z</time>
<desc>lat.=22.055552, lon.=104.143555, Alt.=244.181763m. Speed=0.000000m/h.</desc>
<speed>0.000000</speed>
</trkpt>
<trkpt lat="22.055552" lon="104.143555">
<ele>244.177856</ele>
<time>2011-04-26T09:38:55Z</time>
<desc>lat.=22.055552, lon.=104.143555, Alt.=244.177856m. Speed=0.000000m/h.</desc>
<speed>0.000000</speed>
</trkpt>
<trkpt lat="22.055553" lon="104.143555">
<ele>244.166138</ele>
<time>2011-04-26T09:39:00Z</time>
<desc>lat.=22.055553, lon.=104.143555, Alt.=244.166138m. Speed=0.108000m/h.</desc>
<speed>0.030000</speed>
</trkpt>
<trkpt lat="22.055559" lon="104.143555">
<ele>244.158325</ele>
<time>2011-04-26T09:39:05Z</time>
<desc>lat.=22.055559, lon.=104.143555, Alt.=244.158325m. Speed=0.180000m/h.</desc>
<speed>0.050000</speed>
</trkpt>
<trkpt lat="22.055563" lon="104.143562">
<ele>244.138794</ele>
<time>2011-04-26T09:39:10Z</time>
<desc>lat.=22.055563, lon.=104.143562, Alt.=244.138794m. Speed=0.468000m/h.</desc>
<speed>0.130000</speed>
</trkpt>
<trkpt lat="22.055571" lon="104.143562">
<ele>244.127075</ele>
<time>2011-04-26T09:39:15Z</time>
<desc>lat.=22.055571, lon.=104.143562, Alt.=244.127075m. Speed=0.936000m/h.</desc>
<speed>0.260000</speed>
</trkpt>
<trkpt lat="22.055578" lon="104.143562">
<ele>244.130981</ele>
<time>2011-04-26T09:39:20Z</time>
<desc>lat.=22.055578, lon.=104.143562, Alt.=244.130981m. Speed=0.648000m/h.</desc>
<speed>0.180000</speed>
</trkpt>
<trkpt lat="22.055603" lon="104.143578">
<ele>244.127075</ele>
<time>2011-04-26T09:39:25Z</time>
<desc>lat.=22.055603, lon.=104.143578, Alt.=244.127075m. Speed=0.900000m/h.</desc>
<speed>0.250000</speed>
</trkpt>
<trkpt lat="22.055626" lon="104.143578">
<ele>244.111450</ele>
<time>2011-04-26T09:39:30Z</time>
<desc>lat.=22.055626, lon.=104.143578, Alt.=244.111450m. Speed=1.044000m/h.</desc>
<speed>0.290000</speed>
</trkpt>
<trkpt lat="22.055641" lon="104.143585">
<ele>244.048950</ele>
<time>2011-04-26T09:39:35Z</time>
<desc>lat.=22.055641, lon.=104.143585, Alt.=244.048950m. Speed=0.792000m/h.</desc>
<speed>0.220000</speed>
</trkpt>
<trkpt lat="22.055653" lon="104.143585">
<ele>244.091919</ele>
<time>2011-04-26T09:39:40Z</time>
<desc>lat.=22.055653, lon.=104.143585, Alt.=244.091919m. Speed=0.936000m/h.</desc>
<speed>0.260000</speed>
</trkpt>
<trkpt lat="22.055662" lon="104.143593">
<ele>244.134888</ele>
<time>2011-04-26T09:39:45Z</time>
<desc>lat.=22.055662, lon.=104.143593, Alt.=244.134888m. Speed=0.612000m/h.</desc>
<speed>0.170000</speed>
</trkpt>
<trkpt lat="22.055668" lon="104.143593">
<ele>244.181763</ele>
<time>2011-04-26T09:39:50Z</time>
<desc>lat.=22.055668, lon.=104.143593, Alt.=244.181763m. Speed=0.432000m/h.</desc>
<speed>0.120000</speed>
</trkpt>
<trkpt lat="22.055672" lon="104.143600">
<ele>244.220825</ele>
<time>2011-04-26T09:39:55Z</time>
<desc>lat.=22.055672, lon.=104.143600, Alt.=244.220825m. Speed=0.180000m/h.</desc>
<speed>0.050000</speed>
</trkpt>
<trkpt lat="22.055676" lon="104.143600">
<ele>244.255981</ele>
<time>2011-04-26T09:40:00Z</time>
<desc>lat.=22.055676, lon.=104.143600, Alt.=244.255981m. Speed=0.108000m/h.</desc>
<speed>0.030000</speed>
</trkpt>
<trkpt lat="22.055677" lon="104.143600">
<ele>244.271606</ele>
<time>2011-04-26T09:40:05Z</time>
<desc>lat.=22.055677, lon.=104.143600, Alt.=244.271606m. Speed=0.252000m/h.</desc>
<speed>0.070000</speed>
</trkpt>
<trkpt lat="22.055677" lon="104.143600">
<ele>244.275513</ele>
<time>2011-04-26T09:40:10Z</time>
<desc>lat.=22.055677, lon.=104.143600, Alt.=244.275513m. Speed=0.036000m/h.</desc>
<speed>0.010000</speed>
</trkpt>
<trkpt lat="22.055677" lon="104.143600">
<ele>244.267700</ele>
<time>2011-04-26T09:40:15Z</time>
<desc>lat.=22.055677, lon.=104.143600, Alt.=244.267700m. Speed=0.036000m/h.</desc>
<speed>0.010000</speed>
</trkpt>
<trkpt lat="22.055677" lon="104.143600">
<ele>244.271606</ele>
<time>2011-04-26T09:40:20Z</time>
<desc>lat.=22.055677, lon.=104.143600, Alt.=244.271606m. Speed=0.072000m/h.</desc>
<speed>0.020000</speed>
</trkpt>
<trkpt lat="22.055676" lon="104.143600">
<ele>244.271606</ele>
<time>2011-04-26T09:40:25Z</time>
<desc>lat.=22.055676, lon.=104.143600, Alt.=244.271606m. Speed=0.144000m/h.</desc>
<speed>0.040000</speed>
</trkpt>
<trkpt lat="22.055676" lon="104.143600">
<ele>244.295044</ele>
<time>2011-04-26T09:40:30Z</time>
<desc>lat.=22.055676, lon.=104.143600, Alt.=244.295044m. Speed=0.072000m/h.</desc>
<speed>0.020000</speed>
</trkpt>
<trkpt lat="22.055676" lon="104.143600">
<ele>244.318481</ele>
<time>2011-04-26T09:40:35Z</time>
<desc>lat.=22.055676, lon.=104.143600, Alt.=244.318481m. Speed=0.108000m/h.</desc>
<speed>0.030000</speed>
</trkpt>
<trkpt lat="22.055674" lon="104.143593">
<ele>244.330200</ele>
<time>2011-04-26T09:40:40Z</time>
<desc>lat.=22.055674, lon.=104.143593, Alt.=244.330200m. Speed=0.108000m/h.</desc>
<speed>0.030000</speed>
</trkpt>
<trkpt lat="22.055674" lon="104.143593">
<ele>244.377075</ele>
<time>2011-04-26T09:40:45Z</time>
<desc>lat.=22.055674, lon.=104.143593, Alt.=244.377075m. Speed=0.180000m/h.</desc>
<speed>0.050000</speed>
</trkpt>
<trkpt lat="22.055674" lon="104.143593">
<ele>244.388794</ele>
<time>2011-04-26T09:40:50Z</time>
<desc>lat.=22.055674, lon.=104.143593, Alt.=244.388794m. Speed=0.036000m/h.</desc>
<speed>0.010000</speed>
</trkpt>
<trkpt lat="22.055674" lon="104.143593">
<ele>244.392700</ele>
<time>2011-04-26T09:40:55Z</time>
<desc>lat.=22.055674, lon.=104.143593, Alt.=244.392700m. Speed=0.036000m/h.</desc>
<speed>0.010000</speed>
</trkpt>
<trkpt lat="22.055674" lon="104.143593">
<ele>244.380981</ele>
<time>2011-04-26T09:41:00Z</time>
<desc>lat.=22.055674, lon.=104.143593, Alt.=244.380981m. Speed=0.036000m/h.</desc>
<speed>0.010000</speed>
</trkpt>
<trkpt lat="22.055674" lon="104.143593">
<ele>244.377075</ele>
<time>2011-04-26T09:41:05Z</time>
<desc>lat.=22.055674, lon.=104.143593, Alt.=244.377075m. Speed=0.000000m/h.</desc>
<speed>0.000000</speed>
</trkpt>
<trkpt lat="22.055674" lon="104.143593">
<ele>244.365356</ele>
<time>2011-04-26T09:41:10Z</time>
<desc>lat.=22.055674, lon.=104.143593, Alt.=244.365356m. Speed=0.000000m/h.</desc>
<speed>0.000000</speed>
</trkpt>
<trkpt lat="22.055674" lon="104.143593">
<ele>244.338013</ele>
<time>2011-04-26T09:41:15Z</time>
<desc>lat.=22.055674, lon.=104.143593, Alt.=244.338013m. Speed=0.108000m/h.</desc>
<speed>0.030000</speed>
</trkpt>
<trkpt lat="22.055674" lon="104.143593">
<ele>244.314575</ele>
<time>2011-04-26T09:41:20Z</time>
<desc>lat.=22.055674, lon.=104.143593, Alt.=244.314575m. Speed=0.000000m/h.</desc>
<speed>0.000000</speed>
</trkpt>
<trkpt lat="22.055674" lon="104.143593">
<ele>244.322388</ele>
<time>2011-04-26T09:41:25Z</time>
<desc>lat.=22.055674, lon.=104.143593, Alt.=244.322388m. Speed=0.036000m/h.</desc>
<speed>0.010000</speed>
</trkpt>
<trkpt lat="22.055674" lon="104.143593">
<ele>244.306763</ele>
<time>2011-04-26T09:41:30Z</time>
<desc>lat.=22.055674, lon.=104.143593, Alt.=244.306763m. Speed=0.000000m/h.</desc>
<speed>0.000000</speed>
</trkpt>
<trkpt lat="22.055674" lon="104.143593">
<ele>244.310669</ele>
<time>2011-04-26T09:41:35Z</time>
<desc>lat.=22.055674, lon.=104.143593, Alt.=244.310669m. Speed=0.000000m/h.</desc>
<speed>0.000000</speed>
</trkpt>
<trkpt lat="22.055672" lon="104.143593">
<ele>244.298950</ele>
<time>2011-04-26T09:41:40Z</time>
<desc>lat.=22.055672, lon.=104.143593, Alt.=244.298950m. Speed=0.036000m/h.</desc>
<speed>0.010000</speed>
</trkpt>
<trkpt lat="22.055672" lon="104.143593">
<ele>244.279419</ele>
<time>2011-04-26T09:41:45Z</time>
<desc>lat.=22.055672, lon.=104.143593, Alt.=244.279419m. Speed=0.000000m/h.</desc>
<speed>0.000000</speed>
</trkpt>
<trkpt lat="22.055672" lon="104.143593">
<ele>244.263794</ele>
<time>2011-04-26T09:41:50Z</time>
<desc>lat.=22.055672, lon.=104.143593, Alt.=244.263794m. Speed=0.036000m/h.</desc>
<speed>0.010000</speed>
</trkpt>
<trkpt lat="22.055672" lon="104.143593">
<ele>244.236450</ele>
<time>2011-04-26T09:41:55Z</time>
<desc>lat.=22.055672, lon.=104.143593, Alt.=244.236450m. Speed=0.072000m/h.</desc>
<speed>0.020000</speed>
</trkpt>
<trkpt lat="22.055672" lon="104.143593">
<ele>244.213013</ele>
<time>2011-04-26T09:42:00Z</time>
<desc>lat.=22.055672, lon.=104.143593, Alt.=244.213013m. Speed=0.036000m/h.</desc>
<speed>0.010000</speed>
</trkpt>
<trkpt lat="22.055672" lon="104.143593">
<ele>244.170044</ele>
<time>2011-04-26T09:42:05Z</time>
<desc>lat.=22.055672, lon.=104.143593, Alt.=244.170044m. Speed=0.036000m/h.</desc>
<speed>0.010000</speed>
</trkpt>
<trkpt lat="22.055672" lon="104.143593">
<ele>244.162231</ele>
<time>2011-04-26T09:42:10Z</time>
<desc>lat.=22.055672, lon.=104.143593, Alt.=244.162231m. Speed=0.000000m/h.</desc>
<speed>0.000000</speed>
</trkpt>
<trkpt lat="22.055672" lon="104.143593">
<ele>244.158325</ele>
<time>2011-04-26T09:42:15Z</time>
<desc>lat.=22.055672, lon.=104.143593, Alt.=244.158325m. Speed=0.000000m/h.</desc>
<speed>0.000000</speed>
</trkpt>
<trkpt lat="22.055672" lon="104.143593">
<ele>244.166138</ele>
<time>2011-04-26T09:42:20Z</time>
<desc>lat.=22.055672, lon.=104.143593, Alt.=244.166138m. Speed=0.000000m/h.</desc>
<speed>0.000000</speed>
</trkpt>
<trkpt lat="22.055672" lon="104.143593">
<ele>244.170044</ele>
<time>2011-04-26T09:42:25Z</time>
<desc>lat.=22.055672, lon.=104.143593, Alt.=244.170044m. Speed=0.036000m/h.</desc>
<speed>0.010000</speed>
</trkpt>
<trkpt lat="22.055672" lon="104.143593">
<ele>244.166138</ele>
<time>2011-04-26T09:42:30Z</time>
<desc>lat.=22.055672, lon.=104.143593, Alt.=244.166138m. Speed=0.036000m/h.</desc>
<speed>0.010000</speed>
</trkpt>
<trkpt lat="22.055672" lon="104.143593">
<ele>244.173950</ele>
<time>2011-04-26T09:42:35Z</time>
<desc>lat.=22.055672, lon.=104.143593, Alt.=244.173950m. Speed=0.000000m/h.</desc>
<speed>0.000000</speed>
</trkpt>
<trkpt lat="22.055672" lon="104.143593">
<ele>244.170044</ele>
<time>2011-04-26T09:42:40Z</time>
<desc>lat.=22.055672, lon.=104.143593, Alt.=244.170044m. Speed=0.036000m/h.</desc>
<speed>0.010000</speed>
</trkpt>
<trkpt lat="22.055672" lon="104.143593">
<ele>244.166138</ele>
<time>2011-04-26T09:42:45Z</time>
<desc>lat.=22.055672, lon.=104.143593, Alt.=244.166138m. Speed=0.036000m/h.</desc>
<speed>0.010000</speed>
</trkpt>
<trkpt lat="22.055672" lon="104.143593">
<ele>244.170044</ele>
<time>2011-04-26T09:42:50Z</time>
<desc>lat.=22.055672, lon.=104.143593, Alt.=244.170044m. Speed=0.036000m/h.</desc>
<speed>0.010000</speed>
</trkpt>
<trkpt lat="22.055672" lon="104.143593">
<ele>244.146606</ele>
<time>2011-04-26T09:42:55Z</time>
<desc>lat.=22.055672, lon.=104.143593, Alt.=244.146606m. Speed=0.036000m/h.</desc>
<speed>0.010000</speed>
</trkpt>
<trkpt lat="22.055672" lon="104.143593">
<ele>244.119263</ele>
<time>2011-04-26T09:43:00Z</time>
<desc>lat.=22.055672, lon.=104.143593, Alt.=244.119263m. Speed=0.000000m/h.</desc>
<speed>0.000000</speed>
</trkpt>
<trkpt lat="22.055672" lon="104.143593">
<ele>244.088013</ele>
<time>2011-04-26T09:43:05Z</time>
<desc>lat.=22.055672, lon.=104.143593, Alt.=244.088013m. Speed=0.000000m/h.</desc>
<speed>0.000000</speed>
</trkpt>
<trkpt lat="22.055672" lon="104.143593">
<ele>244.072388</ele>
<time>2011-04-26T09:43:10Z</time>
<desc>lat.=22.055672, lon.=104.143593, Alt.=244.072388m. Speed=0.000000m/h.</desc>
<speed>0.000000</speed>
</trkpt>
<trkpt lat="22.055672" lon="104.143593">
<ele>244.084106</ele>
<time>2011-04-26T09:43:15Z</time>
<desc>lat.=22.055672, lon.=104.143593, Alt.=244.084106m. Speed=0.000000m/h.</desc>
<speed>0.000000</speed>
</trkpt>
<trkpt lat="22.055672" lon="104.143593">
<ele>244.091919</ele>
<time>2011-04-26T09:43:20Z</time>
<desc>lat.=22.055672, lon.=104.143593, Alt.=244.091919m. Speed=0.000000m/h.</desc>
<speed>0.000000</speed>
</trkpt>
<trkpt lat="22.055672" lon="104.143593">
<ele>244.103638</ele>
<time>2011-04-26T09:43:25Z</time>
<desc>lat.=22.055672, lon.=104.143593, Alt.=244.103638m. Speed=0.000000m/h.</desc>
<speed>0.000000</speed>
</trkpt>
<trkpt lat="22.055670" lon="104.143593">
<ele>244.115356</ele>
<time>2011-04-26T09:43:30Z</time>
<desc>lat.=22.055670, lon.=104.143593, Alt.=244.115356m. Speed=0.072000m/h.</desc>
<speed>0.020000</speed>
</trkpt>
<trkpt lat="22.055670" lon="104.143593">
<ele>244.115356</ele>
<time>2011-04-26T09:43:35Z</time>
<desc>lat.=22.055670, lon.=104.143593, Alt.=244.115356m. Speed=0.036000m/h.</desc>
<speed>0.010000</speed>
</trkpt>
<trkpt lat="22.055670" lon="104.143593">
<ele>244.123169</ele>
<time>2011-04-26T09:43:40Z</time>
<desc>lat.=22.055670, lon.=104.143593, Alt.=244.123169m. Speed=0.108000m/h.</desc>
<speed>0.030000</speed>
</trkpt>
<trkpt lat="22.055670" lon="104.143593">
<ele>244.115356</ele>
<time>2011-04-26T09:43:45Z</time>
<desc>lat.=22.055670, lon.=104.143593, Alt.=244.115356m. Speed=0.072000m/h.</desc>
<speed>0.020000</speed>
</trkpt>
<trkpt lat="22.055670" lon="104.143593">
<ele>244.099731</ele>
<time>2011-04-26T09:43:50Z</time>
<desc>lat.=22.055670, lon.=104.143593, Alt.=244.099731m. Speed=0.000000m/h.</desc>
<speed>0.000000</speed>
</trkpt>
<trkpt lat="22.055670" lon="104.143593">
<ele>244.091919</ele>
<time>2011-04-26T09:43:55Z</time>
<desc>lat.=22.055670, lon.=104.143593, Alt.=244.091919m. Speed=0.108000m/h.</desc>
<speed>0.030000</speed>
</trkpt>
<trkpt lat="22.055670" lon="104.143593">
<ele>244.088013</ele>
<time>2011-04-26T09:44:00Z</time>
<desc>lat.=22.055670, lon.=104.143593, Alt.=244.088013m. Speed=0.000000m/h.</desc>
<speed>0.000000</speed>
</trkpt>
<trkpt lat="22.055670" lon="104.143593">
<ele>244.068481</ele>
<time>2011-04-26T09:44:05Z</time>
<desc>lat.=22.055670, lon.=104.143593, Alt.=244.068481m. Speed=0.036000m/h.</desc>
<speed>0.010000</speed>
</trkpt>
<trkpt lat="22.055670" lon="104.143593">
<ele>244.056763</ele>
<time>2011-04-26T09:44:10Z</time>
<desc>lat.=22.055670, lon.=104.143593, Alt.=244.056763m. Speed=0.000000m/h.</desc>
<speed>0.000000</speed>
</trkpt>
<trkpt lat="22.055670" lon="104.143593">
<ele>244.045044</ele>
<time>2011-04-26T09:44:15Z</time>
<desc>lat.=22.055670, lon.=104.143593, Alt.=244.045044m. Speed=0.072000m/h.</desc>
<speed>0.020000</speed>
</trkpt>
<trkpt lat="22.055670" lon="104.143593">
<ele>244.041138</ele>
<time>2011-04-26T09:44:20Z</time>
<desc>lat.=22.055670, lon.=104.143593, Alt.=244.041138m. Speed=0.000000m/h.</desc>
<speed>0.000000</speed>
</trkpt>
<trkpt lat="22.055670" lon="104.143593">
<ele>244.029419</ele>
<time>2011-04-26T09:44:25Z</time>
<desc>lat.=22.055670, lon.=104.143593, Alt.=244.029419m. Speed=0.072000m/h.</desc>
<speed>0.020000</speed>
</trkpt>
<trkpt lat="22.055670" lon="104.143593">
<ele>244.021606</ele>
<time>2011-04-26T09:44:30Z</time>
<desc>lat.=22.055670, lon.=104.143593, Alt.=244.021606m. Speed=0.036000m/h.</desc>
<speed>0.010000</speed>
</trkpt>
<trkpt lat="22.055670" lon="104.143593">
<ele>244.041138</ele>
<time>2011-04-26T09:44:35Z</time>
<desc>lat.=22.055670, lon.=104.143593, Alt.=244.041138m. Speed=0.000000m/h.</desc>
<speed>0.000000</speed>
</trkpt>
<trkpt lat="22.055670" lon="104.143593">
<ele>244.056763</ele>
<time>2011-04-26T09:44:40Z</time>
<desc>lat.=22.055670, lon.=104.143593, Alt.=244.056763m. Speed=0.036000m/h.</desc>
<speed>0.010000</speed>
</trkpt>
<trkpt lat="22.055670" lon="104.143593">
<ele>244.056763</ele>
<time>2011-04-26T09:44:45Z</time>
<desc>lat.=22.055670, lon.=104.143593, Alt.=244.056763m. Speed=0.000000m/h.</desc>
<speed>0.000000</speed>
</trkpt>
<trkpt lat="22.055668" lon="104.143593">
<ele>244.060669</ele>
<time>2011-04-26T09:44:50Z</time>
<desc>lat.=22.055668, lon.=104.143593, Alt.=244.060669m. Speed=0.000000m/h.</desc>
<speed>0.000000</speed>
</trkpt>
<trkpt lat="22.055668" lon="104.143593">
<ele>244.068481</ele>
<time>2011-04-26T09:44:55Z</time>
<desc>lat.=22.055668, lon.=104.143593, Alt.=244.068481m. Speed=0.072000m/h.</desc>
<speed>0.020000</speed>
</trkpt>
<trkpt lat="22.055668" lon="104.143593">
<ele>244.056763</ele>
<time>2011-04-26T09:45:00Z</time>
<desc>lat.=22.055668, lon.=104.143593, Alt.=244.056763m. Speed=0.072000m/h.</desc>
<speed>0.020000</speed>
</trkpt>
<trkpt lat="22.055668" lon="104.143593">
<ele>244.037231</ele>
<time>2011-04-26T09:45:05Z</time>
<desc>lat.=22.055668, lon.=104.143593, Alt.=244.037231m. Speed=0.000000m/h.</desc>
<speed>0.000000</speed>
</trkpt>
<trkpt lat="22.055668" lon="104.143593">
<ele>244.017700</ele>
<time>2011-04-26T09:45:10Z</time>
<desc>lat.=22.055668, lon.=104.143593, Alt.=244.017700m. Speed=0.036000m/h.</desc>
<speed>0.010000</speed>
</trkpt>
<trkpt lat="22.055668" lon="104.143593">
<ele>244.009888</ele>
<time>2011-04-26T09:45:15Z</time>
<desc>lat.=22.055668, lon.=104.143593, Alt.=244.009888m. Speed=0.036000m/h.</desc>
<speed>0.010000</speed>
</trkpt>
<trkpt lat="22.055668" lon="104.143593">
<ele>243.994263</ele>
<time>2011-04-26T09:45:20Z</time>
<desc>lat.=22.055668, lon.=104.143593, Alt.=243.994263m. Speed=0.036000m/h.</desc>
<speed>0.010000</speed>
</trkpt>
<trkpt lat="22.055668" lon="104.143593">
<ele>243.982544</ele>
<time>2011-04-26T09:45:25Z</time>
<desc>lat.=22.055668, lon.=104.143593, Alt.=243.982544m. Speed=0.072000m/h.</desc>
<speed>0.020000</speed>
</trkpt>
<trkpt lat="22.055668" lon="104.143593">
<ele>243.998169</ele>
<time>2011-04-26T09:45:30Z</time>
<desc>lat.=22.055668, lon.=104.143593, Alt.=243.998169m. Speed=0.036000m/h.</desc>
<speed>0.010000</speed>
</trkpt>
<trkpt lat="22.055666" lon="104.143593">
<ele>243.982544</ele>
<time>2011-04-26T09:45:35Z</time>
<desc>lat.=22.055666, lon.=104.143593, Alt.=243.982544m. Speed=0.036000m/h.</desc>
<speed>0.010000</speed>
</trkpt>
<trkpt lat="22.055666" lon="104.143593">
<ele>243.963013</ele>
<time>2011-04-26T09:45:40Z</time>
<desc>lat.=22.055666, lon.=104.143593, Alt.=243.963013m. Speed=0.036000m/h.</desc>
<speed>0.010000</speed>
</trkpt>
<trkpt lat="22.055666" lon="104.143593">
<ele>243.951294</ele>
<time>2011-04-26T09:45:45Z</time>
<desc>lat.=22.055666, lon.=104.143593, Alt.=243.951294m. Speed=0.072000m/h.</desc>
<speed>0.020000</speed>
</trkpt>
<trkpt lat="22.055666" lon="104.143593">
<ele>243.923950</ele>
<time>2011-04-26T09:45:50Z</time>
<desc>lat.=22.055666, lon.=104.143593, Alt.=243.923950m. Speed=0.036000m/h.</desc>
<speed>0.010000</speed>
</trkpt>
<trkpt lat="22.055668" lon="104.143593">
<ele>243.904419</ele>
<time>2011-04-26T09:45:55Z</time>
<desc>lat.=22.055668, lon.=104.143593, Alt.=243.904419m. Speed=0.036000m/h.</desc>
<speed>0.010000</speed>
</trkpt>
<trkpt lat="22.055666" lon="104.143593">
<ele>243.888794</ele>
<time>2011-04-26T09:46:00Z</time>
<desc>lat.=22.055666, lon.=104.143593, Alt.=243.888794m. Speed=0.036000m/h.</desc>
<speed>0.010000</speed>
</trkpt>
<trkpt lat="22.055666" lon="104.143593">
<ele>243.873169</ele>
<time>2011-04-26T09:46:05Z</time>
<desc>lat.=22.055666, lon.=104.143593, Alt.=243.873169m. Speed=0.036000m/h.</desc>
<speed>0.010000</speed>
</trkpt>
<trkpt lat="22.055666" lon="104.143593">
<ele>243.857544</ele>
<time>2011-04-26T09:46:10Z</time>
<desc>lat.=22.055666, lon.=104.143593, Alt.=243.857544m. Speed=0.108000m/h.</desc>
<speed>0.030000</speed>
</trkpt>
<trkpt lat="22.055666" lon="104.143593">
<ele>243.845825</ele>
<time>2011-04-26T09:46:15Z</time>
<desc>lat.=22.055666, lon.=104.143593, Alt.=243.845825m. Speed=0.000000m/h.</desc>
<speed>0.000000</speed>
</trkpt>
<trkpt lat="22.055666" lon="104.143593">
<ele>243.830200</ele>
<time>2011-04-26T09:46:20Z</time>
<desc>lat.=22.055666, lon.=104.143593, Alt.=243.830200m. Speed=0.036000m/h.</desc>
<speed>0.010000</speed>
</trkpt>
<trkpt lat="22.055666" lon="104.143593">
<ele>243.822388</ele>
<time>2011-04-26T09:46:25Z</time>
<desc>lat.=22.055666, lon.=104.143593, Alt.=243.822388m. Speed=0.036000m/h.</desc>
<speed>0.010000</speed>
</trkpt>
<trkpt lat="22.055666" lon="104.143593">
<ele>243.834106</ele>
<time>2011-04-26T09:46:30Z</time>
<desc>lat.=22.055666, lon.=104.143593, Alt.=243.834106m. Speed=0.000000m/h.</desc>
<speed>0.000000</speed>
</trkpt>
<trkpt lat="22.055666" lon="104.143593">
<ele>243.830200</ele>
<time>2011-04-26T09:46:35Z</time>
<desc>lat.=22.055666, lon.=104.143593, Alt.=243.830200m. Speed=0.036000m/h.</desc>
<speed>0.010000</speed>
</trkpt>
<trkpt lat="22.055666" lon="104.143593">
<ele>243.826294</ele>
<time>2011-04-26T09:46:40Z</time>
<desc>lat.=22.055666, lon.=104.143593, Alt.=243.826294m. Speed=0.036000m/h.</desc>
<speed>0.010000</speed>
</trkpt>
<trkpt lat="22.055664" lon="104.143593">
<ele>243.810669</ele>
<time>2011-04-26T09:46:45Z</time>
<desc>lat.=22.055664, lon.=104.143593, Alt.=243.810669m. Speed=0.036000m/h.</desc>
<speed>0.010000</speed>
</trkpt>
<trkpt lat="22.055664" lon="104.143593">
<ele>243.791138</ele>
<time>2011-04-26T09:46:50Z</time>
<desc>lat.=22.055664, lon.=104.143593, Alt.=243.791138m. Speed=0.036000m/h.</desc>
<speed>0.010000</speed>
</trkpt>
<trkpt lat="22.055664" lon="104.143593">
<ele>243.795044</ele>
<time>2011-04-26T09:46:55Z</time>
<desc>lat.=22.055664, lon.=104.143593, Alt.=243.795044m. Speed=0.000000m/h.</desc>
<speed>0.000000</speed>
</trkpt>
<trkpt lat="22.055664" lon="104.143593">
<ele>243.771606</ele>
<time>2011-04-26T09:47:00Z</time>
<desc>lat.=22.055664, lon.=104.143593, Alt.=243.771606m. Speed=0.036000m/h.</desc>
<speed>0.010000</speed>
</trkpt>
<trkpt lat="22.055664" lon="104.143593">
<ele>243.755981</ele>
<time>2011-04-26T09:47:05Z</time>
<desc>lat.=22.055664, lon.=104.143593, Alt.=243.755981m. Speed=0.036000m/h.</desc>
<speed>0.010000</speed>
</trkpt>
<trkpt lat="22.055664" lon="104.143585">
<ele>243.755981</ele>
<time>2011-04-26T09:47:10Z</time>
<desc>lat.=22.055664, lon.=104.143585, Alt.=243.755981m. Speed=0.144000m/h.</desc>
<speed>0.040000</speed>
</trkpt>
<trkpt lat="22.055664" lon="104.143585">
<ele>243.759888</ele>
<time>2011-04-26T09:47:15Z</time>
<desc>lat.=22.055664, lon.=104.143585, Alt.=243.759888m. Speed=0.000000m/h.</desc>
<speed>0.000000</speed>
</trkpt>
<trkpt lat="22.055664" lon="104.143585">
<ele>243.763794</ele>
<time>2011-04-26T09:47:20Z</time>
<desc>lat.=22.055664, lon.=104.143585, Alt.=243.763794m. Speed=0.000000m/h.</desc>
<speed>0.000000</speed>
</trkpt>
<trkpt lat="22.055664" lon="104.143585">
<ele>243.759888</ele>
<time>2011-04-26T09:47:25Z</time>
<desc>lat.=22.055664, lon.=104.143585, Alt.=243.759888m. Speed=0.000000m/h.</desc>
<speed>0.000000</speed>
</trkpt>
<trkpt lat="22.055664" lon="104.143585">
<ele>243.752075</ele>
<time>2011-04-26T09:47:30Z</time>
<desc>lat.=22.055664, lon.=104.143585, Alt.=243.752075m. Speed=0.036000m/h.</desc>
<speed>0.010000</speed>
</trkpt>
<trkpt lat="22.055664" lon="104.143585">
<ele>243.748169</ele>
<time>2011-04-26T09:47:35Z</time>
<desc>lat.=22.055664, lon.=104.143585, Alt.=243.748169m. Speed=0.036000m/h.</desc>
<speed>0.010000</speed>
</trkpt>
<trkpt lat="22.055664" lon="104.143585">
<ele>243.767700</ele>
<time>2011-04-26T09:47:40Z</time>
<desc>lat.=22.055664, lon.=104.143585, Alt.=243.767700m. Speed=0.036000m/h.</desc>
<speed>0.010000</speed>
</trkpt>
<trkpt lat="22.055664" lon="104.143585">
<ele>243.771606</ele>
<time>2011-04-26T09:47:45Z</time>
<desc>lat.=22.055664, lon.=104.143585, Alt.=243.771606m. Speed=0.000000m/h.</desc>
<speed>0.000000</speed>
</trkpt>
<trkpt lat="22.055664" lon="104.143585">
<ele>243.763794</ele>
<time>2011-04-26T09:47:50Z</time>
<desc>lat.=22.055664, lon.=104.143585, Alt.=243.763794m. Speed=0.036000m/h.</desc>
<speed>0.010000</speed>
</trkpt>
<trkpt lat="22.055664" lon="104.143585">
<ele>243.748169</ele>
<time>2011-04-26T09:47:55Z</time>
<desc>lat.=22.055664, lon.=104.143585, Alt.=243.748169m. Speed=0.036000m/h.</desc>
<speed>0.010000</speed>
</trkpt>
<trkpt lat="22.055664" lon="104.143585">
<ele>243.740356</ele>
<time>2011-04-26T09:48:00Z</time>
<desc>lat.=22.055664, lon.=104.143585, Alt.=243.740356m. Speed=0.000000m/h.</desc>
<speed>0.000000</speed>
</trkpt>
<trkpt lat="22.055662" lon="104.143585">
<ele>243.720825</ele>
<time>2011-04-26T09:48:05Z</time>
<desc>lat.=22.055662, lon.=104.143585, Alt.=243.720825m. Speed=0.072000m/h.</desc>
<speed>0.020000</speed>
</trkpt>
<trkpt lat="22.055662" lon="104.143585">
<ele>243.705200</ele>
<time>2011-04-26T09:48:10Z</time>
<desc>lat.=22.055662, lon.=104.143585, Alt.=243.705200m. Speed=0.036000m/h.</desc>
<speed>0.010000</speed>
</trkpt>
<trkpt lat="22.055662" lon="104.143585">
<ele>243.697388</ele>
<time>2011-04-26T09:48:15Z</time>
<desc>lat.=22.055662, lon.=104.143585, Alt.=243.697388m. Speed=0.000000m/h.</desc>
<speed>0.000000</speed>
</trkpt>
<trkpt lat="22.055662" lon="104.143585">
<ele>243.724731</ele>
<time>2011-04-26T09:48:20Z</time>
<desc>lat.=22.055662, lon.=104.143585, Alt.=243.724731m. Speed=0.036000m/h.</desc>
<speed>0.010000</speed>
</trkpt>
<trkpt lat="22.055662" lon="104.143585">
<ele>243.728638</ele>
<time>2011-04-26T09:48:25Z</time>
<desc>lat.=22.055662, lon.=104.143585, Alt.=243.728638m. Speed=0.036000m/h.</desc>
<speed>0.010000</speed>
</trkpt>
<trkpt lat="22.055662" lon="104.143585">
<ele>243.763794</ele>
<time>2011-04-26T09:48:30Z</time>
<desc>lat.=22.055662, lon.=104.143585, Alt.=243.763794m. Speed=0.000000m/h.</desc>
<speed>0.000000</speed>
</trkpt>
<trkpt lat="22.055662" lon="104.143585">
<ele>243.783325</ele>
<time>2011-04-26T09:48:35Z</time>
<desc>lat.=22.055662, lon.=104.143585, Alt.=243.783325m. Speed=0.000000m/h.</desc>
<speed>0.000000</speed>
</trkpt>
<trkpt lat="22.055662" lon="104.143585">
<ele>243.795044</ele>
<time>2011-04-26T09:48:40Z</time>
<desc>lat.=22.055662, lon.=104.143585, Alt.=243.795044m. Speed=0.000000m/h.</desc>
<speed>0.000000</speed>
</trkpt>
<trkpt lat="22.055660" lon="104.143585">
<ele>243.795044</ele>
<time>2011-04-26T09:48:45Z</time>
<desc>lat.=22.055660, lon.=104.143585, Alt.=243.795044m. Speed=0.072000m/h.</desc>
<speed>0.020000</speed>
</trkpt>
<trkpt lat="22.055660" lon="104.143585">
<ele>243.779419</ele>
<time>2011-04-26T09:48:50Z</time>
<desc>lat.=22.055660, lon.=104.143585, Alt.=243.779419m. Speed=0.036000m/h.</desc>
<speed>0.010000</speed>
</trkpt>
<trkpt lat="22.055660" lon="104.143585">
<ele>243.759888</ele>
<time>2011-04-26T09:48:55Z</time>
<desc>lat.=22.055660, lon.=104.143585, Alt.=243.759888m. Speed=0.000000m/h.</desc>
<speed>0.000000</speed>
</trkpt>
<trkpt lat="22.055660" lon="104.143585">
<ele>243.740356</ele>
<time>2011-04-26T09:49:00Z</time>
<desc>lat.=22.055660, lon.=104.143585, Alt.=243.740356m. Speed=0.072000m/h.</desc>
<speed>0.020000</speed>
</trkpt>
<trkpt lat="22.055660" lon="104.143585">
<ele>243.724731</ele>
<time>2011-04-26T09:49:05Z</time>
<desc>lat.=22.055660, lon.=104.143585, Alt.=243.724731m. Speed=0.072000m/h.</desc>
<speed>0.020000</speed>
</trkpt>
<trkpt lat="22.055660" lon="104.143585">
<ele>243.705200</ele>
<time>2011-04-26T09:49:10Z</time>
<desc>lat.=22.055660, lon.=104.143585, Alt.=243.705200m. Speed=0.072000m/h.</desc>
<speed>0.020000</speed>
</trkpt>
<trkpt lat="22.055660" lon="104.143585">
<ele>243.705200</ele>
<time>2011-04-26T09:49:15Z</time>
<desc>lat.=22.055660, lon.=104.143585, Alt.=243.705200m. Speed=0.072000m/h.</desc>
<speed>0.020000</speed>
</trkpt>
<trkpt lat="22.055660" lon="104.143585">
<ele>243.681763</ele>
<time>2011-04-26T09:49:20Z</time>
<desc>lat.=22.055660, lon.=104.143585, Alt.=243.681763m. Speed=0.036000m/h.</desc>
<speed>0.010000</speed>
</trkpt>
<trkpt lat="22.055660" lon="104.143585">
<ele>243.677856</ele>
<time>2011-04-26T09:49:25Z</time>
<desc>lat.=22.055660, lon.=104.143585, Alt.=243.677856m. Speed=0.000000m/h.</desc>
<speed>0.000000</speed>
</trkpt>
<trkpt lat="22.055658" lon="104.143585">
<ele>243.654419</ele>
<time>2011-04-26T09:49:30Z</time>
<desc>lat.=22.055658, lon.=104.143585, Alt.=243.654419m. Speed=0.036000m/h.</desc>
<speed>0.010000</speed>
</trkpt>
<trkpt lat="22.055658" lon="104.143585">
<ele>243.642700</ele>
<time>2011-04-26T09:49:35Z</time>
<desc>lat.=22.055658, lon.=104.143585, Alt.=243.642700m. Speed=0.072000m/h.</desc>
<speed>0.020000</speed>
</trkpt>
<trkpt lat="22.055658" lon="104.143585">
<ele>243.630981</ele>
<time>2011-04-26T09:49:40Z</time>
<desc>lat.=22.055658, lon.=104.143585, Alt.=243.630981m. Speed=0.000000m/h.</desc>
<speed>0.000000</speed>
</trkpt>
<trkpt lat="22.055658" lon="104.143585">
<ele>243.623169</ele>
<time>2011-04-26T09:49:45Z</time>
<desc>lat.=22.055658, lon.=104.143585, Alt.=243.623169m. Speed=0.036000m/h.</desc>
<speed>0.010000</speed>
</trkpt>
<trkpt lat="22.055658" lon="104.143585">
<ele>243.603638</ele>
<time>2011-04-26T09:49:50Z</time>
<desc>lat.=22.055658, lon.=104.143585, Alt.=243.603638m. Speed=0.036000m/h.</desc>
<speed>0.010000</speed>
</trkpt>
<trkpt lat="22.055658" lon="104.143585">
<ele>243.591919</ele>
<time>2011-04-26T09:49:55Z</time>
<desc>lat.=22.055658, lon.=104.143585, Alt.=243.591919m. Speed=0.036000m/h.</desc>
<speed>0.010000</speed>
</trkpt>
<trkpt lat="22.055658" lon="104.143585">
<ele>243.568481</ele>
<time>2011-04-26T09:50:00Z</time>
<desc>lat.=22.055658, lon.=104.143585, Alt.=243.568481m. Speed=0.000000m/h.</desc>
<speed>0.000000</speed>
</trkpt>
<trkpt lat="22.055656" lon="104.143585">
<ele>243.517700</ele>
<time>2011-04-26T09:50:05Z</time>
<desc>lat.=22.055656, lon.=104.143585, Alt.=243.517700m. Speed=0.108000m/h.</desc>
<speed>0.030000</speed>
</trkpt>
<trkpt lat="22.055656" lon="104.143585">
<ele>243.482544</ele>
<time>2011-04-26T09:50:10Z</time>
<desc>lat.=22.055656, lon.=104.143585, Alt.=243.482544m. Speed=0.000000m/h.</desc>
<speed>0.000000</speed>
</trkpt>
<trkpt lat="22.055656" lon="104.143585">
<ele>243.435669</ele>
<time>2011-04-26T09:50:15Z</time>
<desc>lat.=22.055656, lon.=104.143585, Alt.=243.435669m. Speed=0.036000m/h.</desc>
<speed>0.010000</speed>
</trkpt>
<trkpt lat="22.055656" lon="104.143585">
<ele>243.412231</ele>
<time>2011-04-26T09:50:20Z</time>
<desc>lat.=22.055656, lon.=104.143585, Alt.=243.412231m. Speed=0.144000m/h.</desc>
<speed>0.040000</speed>
</trkpt>
<trkpt lat="22.055656" lon="104.143585">
<ele>243.396606</ele>
<time>2011-04-26T09:50:25Z</time>
<desc>lat.=22.055656, lon.=104.143585, Alt.=243.396606m. Speed=0.000000m/h.</desc>
<speed>0.000000</speed>
</trkpt>
<trkpt lat="22.055656" lon="104.143585">
<ele>243.380981</ele>
<time>2011-04-26T09:50:30Z</time>
<desc>lat.=22.055656, lon.=104.143585, Alt.=243.380981m. Speed=0.108000m/h.</desc>
<speed>0.030000</speed>
</trkpt>
<trkpt lat="22.055656" lon="104.143585">
<ele>243.341919</ele>
<time>2011-04-26T09:50:35Z</time>
<desc>lat.=22.055656, lon.=104.143585, Alt.=243.341919m. Speed=0.036000m/h.</desc>
<speed>0.010000</speed>
</trkpt>
<trkpt lat="22.055656" lon="104.143585">
<ele>243.322388</ele>
<time>2011-04-26T09:50:40Z</time>
<desc>lat.=22.055656, lon.=104.143585, Alt.=243.322388m. Speed=0.000000m/h.</desc>
<speed>0.000000</speed>
</trkpt>
<trkpt lat="22.055656" lon="104.143585">
<ele>243.298950</ele>
<time>2011-04-26T09:50:45Z</time>
<desc>lat.=22.055656, lon.=104.143585, Alt.=243.298950m. Speed=0.036000m/h.</desc>
<speed>0.010000</speed>
</trkpt>
<trkpt lat="22.055656" lon="104.143585">
<ele>243.209106</ele>
<time>2011-04-26T09:50:50Z</time>
<desc>lat.=22.055656, lon.=104.143585, Alt.=243.209106m. Speed=0.072000m/h.</desc>
<speed>0.020000</speed>
</trkpt>
<trkpt lat="22.055656" lon="104.143593">
<ele>243.056763</ele>
<time>2011-04-26T09:50:55Z</time>
<desc>lat.=22.055656, lon.=104.143593, Alt.=243.056763m. Speed=0.216000m/h.</desc>
<speed>0.060000</speed>
</trkpt>
<trkpt lat="22.055656" lon="104.143593">
<ele>243.037231</ele>
<time>2011-04-26T09:51:00Z</time>
<desc>lat.=22.055656, lon.=104.143593, Alt.=243.037231m. Speed=0.000000m/h.</desc>
<speed>0.000000</speed>
</trkpt>
<trkpt lat="22.055656" lon="104.143593">
<ele>243.017700</ele>
<time>2011-04-26T09:51:05Z</time>
<desc>lat.=22.055656, lon.=104.143593, Alt.=243.017700m. Speed=0.000000m/h.</desc>
<speed>0.000000</speed>
</trkpt>
<trkpt lat="22.055656" lon="104.143593">
<ele>242.986450</ele>
<time>2011-04-26T09:51:10Z</time>
<desc>lat.=22.055656, lon.=104.143593, Alt.=242.986450m. Speed=0.000000m/h.</desc>
<speed>0.000000</speed>
</trkpt>
<trkpt lat="22.055656" lon="104.143593">
<ele>242.970825</ele>
<time>2011-04-26T09:51:15Z</time>
<desc>lat.=22.055656, lon.=104.143593, Alt.=242.970825m. Speed=0.000000m/h.</desc>
<speed>0.000000</speed>
</trkpt>
<trkpt lat="22.055655" lon="104.143593">
<ele>242.963013</ele>
<time>2011-04-26T09:51:20Z</time>
<desc>lat.=22.055655, lon.=104.143593, Alt.=242.963013m. Speed=0.000000m/h.</desc>
<speed>0.000000</speed>
</trkpt>
<trkpt lat="22.055655" lon="104.143593">
<ele>242.966919</ele>
<time>2011-04-26T09:51:25Z</time>
<desc>lat.=22.055655, lon.=104.143593, Alt.=242.966919m. Speed=0.036000m/h.</desc>
<speed>0.010000</speed>
</trkpt>
<trkpt lat="22.055655" lon="104.143593">
<ele>242.986450</ele>
<time>2011-04-26T09:51:30Z</time>
<desc>lat.=22.055655, lon.=104.143593, Alt.=242.986450m. Speed=0.072000m/h.</desc>
<speed>0.020000</speed>
</trkpt>
<trkpt lat="22.055655" lon="104.143593">
<ele>242.970825</ele>
<time>2011-04-26T09:51:35Z</time>
<desc>lat.=22.055655, lon.=104.143593, Alt.=242.970825m. Speed=0.036000m/h.</desc>
<speed>0.010000</speed>
</trkpt>
<trkpt lat="22.055655" lon="104.143593">
<ele>242.955200</ele>
<time>2011-04-26T09:51:40Z</time>
<desc>lat.=22.055655, lon.=104.143593, Alt.=242.955200m. Speed=0.036000m/h.</desc>
<speed>0.010000</speed>
</trkpt>
<trkpt lat="22.055655" lon="104.143593">
<ele>242.931763</ele>
<time>2011-04-26T09:51:45Z</time>
<desc>lat.=22.055655, lon.=104.143593, Alt.=242.931763m. Speed=0.036000m/h.</desc>
<speed>0.010000</speed>
</trkpt>
<trkpt lat="22.055655" lon="104.143593">
<ele>242.892700</ele>
<time>2011-04-26T09:51:50Z</time>
<desc>lat.=22.055655, lon.=104.143593, Alt.=242.892700m. Speed=0.000000m/h.</desc>
<speed>0.000000</speed>
</trkpt>
<trkpt lat="22.055655" lon="104.143593">
<ele>242.853638</ele>
<time>2011-04-26T09:51:55Z</time>
<desc>lat.=22.055655, lon.=104.143593, Alt.=242.853638m. Speed=0.036000m/h.</desc>
<speed>0.010000</speed>
</trkpt>
<trkpt lat="22.055653" lon="104.143593">
<ele>242.834106</ele>
<time>2011-04-26T09:52:00Z</time>
<desc>lat.=22.055653, lon.=104.143593, Alt.=242.834106m. Speed=0.108000m/h.</desc>
<speed>0.030000</speed>
</trkpt>
<trkpt lat="22.055653" lon="104.143593">
<ele>242.826294</ele>
<time>2011-04-26T09:52:05Z</time>
<desc>lat.=22.055653, lon.=104.143593, Alt.=242.826294m. Speed=0.000000m/h.</desc>
<speed>0.000000</speed>
</trkpt>
<trkpt lat="22.055653" lon="104.143593">
<ele>242.810669</ele>
<time>2011-04-26T09:52:10Z</time>
<desc>lat.=22.055653, lon.=104.143593, Alt.=242.810669m. Speed=0.036000m/h.</desc>
<speed>0.010000</speed>
</trkpt>
<trkpt lat="22.055653" lon="104.143593">
<ele>242.795044</ele>
<time>2011-04-26T09:52:15Z</time>
<desc>lat.=22.055653, lon.=104.143593, Alt.=242.795044m. Speed=0.036000m/h.</desc>
<speed>0.010000</speed>
</trkpt>
<trkpt lat="22.055653" lon="104.143593">
<ele>242.798950</ele>
<time>2011-04-26T09:52:20Z</time>
<desc>lat.=22.055653, lon.=104.143593, Alt.=242.798950m. Speed=0.072000m/h.</desc>
<speed>0.020000</speed>
</trkpt>
<trkpt lat="22.055653" lon="104.143593">
<ele>242.806763</ele>
<time>2011-04-26T09:52:25Z</time>
<desc>lat.=22.055653, lon.=104.143593, Alt.=242.806763m. Speed=0.000000m/h.</desc>
<speed>0.000000</speed>
</trkpt>
<trkpt lat="22.055653" lon="104.143593">
<ele>242.791138</ele>
<time>2011-04-26T09:52:30Z</time>
<desc>lat.=22.055653, lon.=104.143593, Alt.=242.791138m. Speed=0.000000m/h.</desc>
<speed>0.000000</speed>
</trkpt>
<trkpt lat="22.055653" lon="104.143593">
<ele>242.806763</ele>
<time>2011-04-26T09:52:35Z</time>
<desc>lat.=22.055653, lon.=104.143593, Alt.=242.806763m. Speed=0.036000m/h.</desc>
<speed>0.010000</speed>
</trkpt>
<trkpt lat="22.055653" lon="104.143593">
<ele>242.795044</ele>
<time>2011-04-26T09:52:40Z</time>
<desc>lat.=22.055653, lon.=104.143593, Alt.=242.795044m. Speed=0.036000m/h.</desc>
<speed>0.010000</speed>
</trkpt>
<trkpt lat="22.055653" lon="104.143593">
<ele>242.767700</ele>
<time>2011-04-26T09:52:45Z</time>
<desc>lat.=22.055653, lon.=104.143593, Alt.=242.767700m. Speed=0.000000m/h.</desc>
<speed>0.000000</speed>
</trkpt>
<trkpt lat="22.055653" lon="104.143593">
<ele>242.755981</ele>
<time>2011-04-26T09:52:50Z</time>
<desc>lat.=22.055653, lon.=104.143593, Alt.=242.755981m. Speed=0.036000m/h.</desc>
<speed>0.010000</speed>
</trkpt>
<trkpt lat="22.055653" lon="104.143593">
<ele>242.744263</ele>
<time>2011-04-26T09:52:55Z</time>
<desc>lat.=22.055653, lon.=104.143593, Alt.=242.744263m. Speed=0.000000m/h.</desc>
<speed>0.000000</speed>
</trkpt>
<trkpt lat="22.055653" lon="104.143593">
<ele>242.720825</ele>
<time>2011-04-26T09:53:00Z</time>
<desc>lat.=22.055653, lon.=104.143593, Alt.=242.720825m. Speed=0.036000m/h.</desc>
<speed>0.010000</speed>
</trkpt>
<trkpt lat="22.055653" lon="104.143593">
<ele>242.724731</ele>
<time>2011-04-26T09:53:05Z</time>
<desc>lat.=22.055653, lon.=104.143593, Alt.=242.724731m. Speed=0.000000m/h.</desc>
<speed>0.000000</speed>
</trkpt>
<trkpt lat="22.055653" lon="104.143593">
<ele>242.716919</ele>
<time>2011-04-26T09:53:10Z</time>
<desc>lat.=22.055653, lon.=104.143593, Alt.=242.716919m. Speed=0.000000m/h.</desc>
<speed>0.000000</speed>
</trkpt>
<trkpt lat="22.055651" lon="104.143593">
<ele>242.716919</ele>
<time>2011-04-26T09:53:15Z</time>
<desc>lat.=22.055651, lon.=104.143593, Alt.=242.716919m. Speed=0.072000m/h.</desc>
<speed>0.020000</speed>
</trkpt>
<trkpt lat="22.055651" lon="104.143593">
<ele>242.732544</ele>
<time>2011-04-26T09:53:20Z</time>
<desc>lat.=22.055651, lon.=104.143593, Alt.=242.732544m. Speed=0.072000m/h.</desc>
<speed>0.020000</speed>
</trkpt>
<trkpt lat="22.055651" lon="104.143585">
<ele>242.748169</ele>
<time>2011-04-26T09:53:25Z</time>
<desc>lat.=22.055651, lon.=104.143585, Alt.=242.748169m. Speed=0.072000m/h.</desc>
<speed>0.020000</speed>
</trkpt>
<trkpt lat="22.055651" lon="104.143585">
<ele>242.755981</ele>
<time>2011-04-26T09:53:30Z</time>
<desc>lat.=22.055651, lon.=104.143585, Alt.=242.755981m. Speed=0.036000m/h.</desc>
<speed>0.010000</speed>
</trkpt>
<trkpt lat="22.055651" lon="104.143585">
<ele>242.755981</ele>
<time>2011-04-26T09:53:35Z</time>
<desc>lat.=22.055651, lon.=104.143585, Alt.=242.755981m. Speed=0.144000m/h.</desc>
<speed>0.040000</speed>
</trkpt>
<trkpt lat="22.055651" lon="104.143585">
<ele>242.740356</ele>
<time>2011-04-26T09:53:40Z</time>
<desc>lat.=22.055651, lon.=104.143585, Alt.=242.740356m. Speed=0.000000m/h.</desc>
<speed>0.000000</speed>
</trkpt>
<trkpt lat="22.055649" lon="104.143585">
<ele>242.728638</ele>
<time>2011-04-26T09:53:45Z</time>
<desc>lat.=22.055649, lon.=104.143585, Alt.=242.728638m. Speed=0.000000m/h.</desc>
<speed>0.000000</speed>
</trkpt>
<trkpt lat="22.055649" lon="104.143585">
<ele>242.724731</ele>
<time>2011-04-26T09:53:50Z</time>
<desc>lat.=22.055649, lon.=104.143585, Alt.=242.724731m. Speed=0.036000m/h.</desc>
<speed>0.010000</speed>
</trkpt>
<trkpt lat="22.055649" lon="104.143585">
<ele>242.732544</ele>
<time>2011-04-26T09:53:55Z</time>
<desc>lat.=22.055649, lon.=104.143585, Alt.=242.732544m. Speed=0.036000m/h.</desc>
<speed>0.010000</speed>
</trkpt>
<trkpt lat="22.055649" lon="104.143585">
<ele>242.744263</ele>
<time>2011-04-26T09:54:00Z</time>
<desc>lat.=22.055649, lon.=104.143585, Alt.=242.744263m. Speed=0.036000m/h.</desc>
<speed>0.010000</speed>
</trkpt>
<trkpt lat="22.055649" lon="104.143585">
<ele>242.736450</ele>
<time>2011-04-26T09:54:05Z</time>
<desc>lat.=22.055649, lon.=104.143585, Alt.=242.736450m. Speed=0.000000m/h.</desc>
<speed>0.000000</speed>
</trkpt>
<trkpt lat="22.055649" lon="104.143585">
<ele>242.763794</ele>
<time>2011-04-26T09:54:10Z</time>
<desc>lat.=22.055649, lon.=104.143585, Alt.=242.763794m. Speed=0.072000m/h.</desc>
<speed>0.020000</speed>
</trkpt>
<trkpt lat="22.055649" lon="104.143585">
<ele>242.779419</ele>
<time>2011-04-26T09:54:15Z</time>
<desc>lat.=22.055649, lon.=104.143585, Alt.=242.779419m. Speed=0.036000m/h.</desc>
<speed>0.010000</speed>
</trkpt>
<trkpt lat="22.055647" lon="104.143585">
<ele>242.755981</ele>
<time>2011-04-26T09:54:20Z</time>
<desc>lat.=22.055647, lon.=104.143585, Alt.=242.755981m. Speed=0.252000m/h.</desc>
<speed>0.070000</speed>
</trkpt>
<trkpt lat="22.055641" lon="104.143585">
<ele>242.709106</ele>
<time>2011-04-26T09:54:25Z</time>
<desc>lat.=22.055641, lon.=104.143585, Alt.=242.709106m. Speed=0.468000m/h.</desc>
<speed>0.130000</speed>
</trkpt>
<trkpt lat="22.055635" lon="104.143585">
<ele>242.619263</ele>
<time>2011-04-26T09:54:30Z</time>
<desc>lat.=22.055635, lon.=104.143585, Alt.=242.619263m. Speed=0.540000m/h.</desc>
<speed>0.150000</speed>
</trkpt>
<trkpt lat="22.055628" lon="104.143585">
<ele>242.486450</ele>
<time>2011-04-26T09:54:35Z</time>
<desc>lat.=22.055628, lon.=104.143585, Alt.=242.486450m. Speed=0.504000m/h.</desc>
<speed>0.140000</speed>
</trkpt>
<trkpt lat="22.055622" lon="104.143585">
<ele>242.338013</ele>
<time>2011-04-26T09:54:40Z</time>
<desc>lat.=22.055622, lon.=104.143585, Alt.=242.338013m. Speed=0.396000m/h.</desc>
<speed>0.110000</speed>
</trkpt>
<trkpt lat="22.055618" lon="104.143585">
<ele>242.173950</ele>
<time>2011-04-26T09:54:45Z</time>
<desc>lat.=22.055618, lon.=104.143585, Alt.=242.173950m. Speed=0.036000m/h.</desc>
<speed>0.010000</speed>
</trkpt>
<trkpt lat="22.055618" lon="104.143585">
<ele>242.005981</ele>
<time>2011-04-26T09:54:50Z</time>
<desc>lat.=22.055618, lon.=104.143585, Alt.=242.005981m. Speed=0.072000m/h.</desc>
<speed>0.020000</speed>
</trkpt>
<trkpt lat="22.055618" lon="104.143585">
<ele>241.861450</ele>
<time>2011-04-26T09:54:55Z</time>
<desc>lat.=22.055618, lon.=104.143585, Alt.=241.861450m. Speed=0.072000m/h.</desc>
<speed>0.020000</speed>
</trkpt>
<trkpt lat="22.055620" lon="104.143585">
<ele>241.720825</ele>
<time>2011-04-26T09:55:00Z</time>
<desc>lat.=22.055620, lon.=104.143585, Alt.=241.720825m. Speed=0.180000m/h.</desc>
<speed>0.050000</speed>
</trkpt>
<trkpt lat="22.055622" lon="104.143585">
<ele>241.580200</ele>
<time>2011-04-26T09:55:05Z</time>
<desc>lat.=22.055622, lon.=104.143585, Alt.=241.580200m. Speed=0.180000m/h.</desc>
<speed>0.050000</speed>
</trkpt>
<trkpt lat="22.055624" lon="104.143585">
<ele>241.443481</ele>
<time>2011-04-26T09:55:10Z</time>
<desc>lat.=22.055624, lon.=104.143585, Alt.=241.443481m. Speed=0.108000m/h.</desc>
<speed>0.030000</speed>
</trkpt>
<trkpt lat="22.055626" lon="104.143585">
<ele>241.298950</ele>
<time>2011-04-26T09:55:15Z</time>
<desc>lat.=22.055626, lon.=104.143585, Alt.=241.298950m. Speed=0.108000m/h.</desc>
<speed>0.030000</speed>
</trkpt>
<trkpt lat="22.055626" lon="104.143585">
<ele>241.142700</ele>
<time>2011-04-26T09:55:20Z</time>
<desc>lat.=22.055626, lon.=104.143585, Alt.=241.142700m. Speed=0.036000m/h.</desc>
<speed>0.010000</speed>
</trkpt>
<trkpt lat="22.055628" lon="104.143585">
<ele>241.041138</ele>
<time>2011-04-26T09:55:25Z</time>
<desc>lat.=22.055628, lon.=104.143585, Alt.=241.041138m. Speed=0.036000m/h.</desc>
<speed>0.010000</speed>
</trkpt>
<trkpt lat="22.055626" lon="104.143585">
<ele>241.060669</ele>
<time>2011-04-26T09:55:30Z</time>
<desc>lat.=22.055626, lon.=104.143585, Alt.=241.060669m. Speed=0.072000m/h.</desc>
<speed>0.020000</speed>
</trkpt>
<trkpt lat="22.055626" lon="104.143585">
<ele>241.056763</ele>
<time>2011-04-26T09:55:35Z</time>
<desc>lat.=22.055626, lon.=104.143585, Alt.=241.056763m. Speed=0.000000m/h.</desc>
<speed>0.000000</speed>
</trkpt>
<trkpt lat="22.055626" lon="104.143585">
<ele>241.068481</ele>
<time>2011-04-26T09:55:40Z</time>
<desc>lat.=22.055626, lon.=104.143585, Alt.=241.068481m. Speed=0.000000m/h.</desc>
<speed>0.000000</speed>
</trkpt>
<trkpt lat="22.055626" lon="104.143585">
<ele>241.056763</ele>
<time>2011-04-26T09:55:45Z</time>
<desc>lat.=22.055626, lon.=104.143585, Alt.=241.056763m. Speed=0.000000m/h.</desc>
<speed>0.000000</speed>
</trkpt>
<trkpt lat="22.055626" lon="104.143585">
<ele>241.045044</ele>
<time>2011-04-26T09:55:50Z</time>
<desc>lat.=22.055626, lon.=104.143585, Alt.=241.045044m. Speed=0.036000m/h.</desc>
<speed>0.010000</speed>
</trkpt>
<trkpt lat="22.055626" lon="104.143585">
<ele>241.017700</ele>
<time>2011-04-26T09:55:55Z</time>
<desc>lat.=22.055626, lon.=104.143585, Alt.=241.017700m. Speed=0.036000m/h.</desc>
<speed>0.010000</speed>
</trkpt>
<trkpt lat="22.055626" lon="104.143585">
<ele>240.966919</ele>
<time>2011-04-26T09:56:00Z</time>
<desc>lat.=22.055626, lon.=104.143585, Alt.=240.966919m. Speed=0.000000m/h.</desc>
<speed>0.000000</speed>
</trkpt>
<trkpt lat="22.055626" lon="104.143585">
<ele>240.916138</ele>
<time>2011-04-26T09:56:05Z</time>
<desc>lat.=22.055626, lon.=104.143585, Alt.=240.916138m. Speed=0.000000m/h.</desc>
<speed>0.000000</speed>
</trkpt>
<trkpt lat="22.055626" lon="104.143585">
<ele>240.869263</ele>
<time>2011-04-26T09:56:10Z</time>
<desc>lat.=22.055626, lon.=104.143585, Alt.=240.869263m. Speed=0.000000m/h.</desc>
<speed>0.000000</speed>
</trkpt>
<trkpt lat="22.055626" lon="104.143585">
<ele>240.841919</ele>
<time>2011-04-26T09:56:15Z</time>
<desc>lat.=22.055626, lon.=104.143585, Alt.=240.841919m. Speed=0.000000m/h.</desc>
<speed>0.000000</speed>
</trkpt>
<trkpt lat="22.055626" lon="104.143585">
<ele>240.791138</ele>
<time>2011-04-26T09:56:20Z</time>
<desc>lat.=22.055626, lon.=104.143585, Alt.=240.791138m. Speed=0.000000m/h.</desc>
<speed>0.000000</speed>
</trkpt>
<trkpt lat="22.055626" lon="104.143585">
<ele>240.755981</ele>
<time>2011-04-26T09:56:25Z</time>
<desc>lat.=22.055626, lon.=104.143585, Alt.=240.755981m. Speed=0.036000m/h.</desc>
<speed>0.010000</speed>
</trkpt>
<trkpt lat="22.055626" lon="104.143585">
<ele>240.728638</ele>
<time>2011-04-26T09:56:30Z</time>
<desc>lat.=22.055626, lon.=104.143585, Alt.=240.728638m. Speed=0.000000m/h.</desc>
<speed>0.000000</speed>
</trkpt>
<trkpt lat="22.055626" lon="104.143585">
<ele>240.689575</ele>
<time>2011-04-26T09:56:35Z</time>
<desc>lat.=22.055626, lon.=104.143585, Alt.=240.689575m. Speed=0.000000m/h.</desc>
<speed>0.000000</speed>
</trkpt>
<trkpt lat="22.055622" lon="104.143585">
<ele>240.291138</ele>
<time>2011-04-26T09:56:40Z</time>
<desc>lat.=22.055622, lon.=104.143585, Alt.=240.291138m. Speed=0.000000m/h.</desc>
<speed>0.000000</speed>
</trkpt>
<trkpt lat="22.055622" lon="104.143585">
<ele>240.283325</ele>
<time>2011-04-26T09:56:45Z</time>
<desc>lat.=22.055622, lon.=104.143585, Alt.=240.283325m. Speed=0.000000m/h.</desc>
<speed>0.000000</speed>
</trkpt>
<trkpt lat="22.055620" lon="104.143578">
<ele>239.990356</ele>
<time>2011-04-26T09:56:50Z</time>
<desc>lat.=22.055620, lon.=104.143578, Alt.=239.990356m. Speed=0.000000m/h.</desc>
<speed>0.000000</speed>
</trkpt>
<trkpt lat="22.055616" lon="104.143578">
<ele>239.412231</ele>
<time>2011-04-26T09:56:55Z</time>
<desc>lat.=22.055616, lon.=104.143578, Alt.=239.412231m. Speed=0.000000m/h.</desc>
<speed>0.000000</speed>
</trkpt>
<trkpt lat="22.055613" lon="104.143578">
<ele>239.025513</ele>
<time>2011-04-26T09:57:00Z</time>
<desc>lat.=22.055613, lon.=104.143578, Alt.=239.025513m. Speed=0.036000m/h.</desc>
<speed>0.010000</speed>
</trkpt>
<trkpt lat="22.055613" lon="104.143578">
<ele>239.127075</ele>
<time>2011-04-26T09:57:05Z</time>
<desc>lat.=22.055613, lon.=104.143578, Alt.=239.127075m. Speed=0.000000m/h.</desc>
<speed>0.000000</speed>
</trkpt>
<trkpt lat="22.055611" lon="104.143578">
<ele>239.091919</ele>
<time>2011-04-26T09:57:10Z</time>
<desc>lat.=22.055611, lon.=104.143578, Alt.=239.091919m. Speed=0.000000m/h.</desc>
<speed>0.000000</speed>
</trkpt>
<trkpt lat="22.055607" lon="104.143578">
<ele>239.017700</ele>
<time>2011-04-26T09:57:15Z</time>
<desc>lat.=22.055607, lon.=104.143578, Alt.=239.017700m. Speed=0.072000m/h.</desc>
<speed>0.020000</speed>
</trkpt>
<trkpt lat="22.055603" lon="104.143578">
<ele>238.935669</ele>
<time>2011-04-26T09:57:20Z</time>
<desc>lat.=22.055603, lon.=104.143578, Alt.=238.935669m. Speed=0.144000m/h.</desc>
<speed>0.040000</speed>
</trkpt>
<trkpt lat="22.055601" lon="104.143578">
<ele>238.931763</ele>
<time>2011-04-26T09:57:25Z</time>
<desc>lat.=22.055601, lon.=104.143578, Alt.=238.931763m. Speed=0.108000m/h.</desc>
<speed>0.030000</speed>
</trkpt>
<trkpt lat="22.055599" lon="104.143578">
<ele>238.927856</ele>
<time>2011-04-26T09:57:30Z</time>
<desc>lat.=22.055599, lon.=104.143578, Alt.=238.927856m. Speed=0.108000m/h.</desc>
<speed>0.030000</speed>
</trkpt>
<trkpt lat="22.055597" lon="104.143578">
<ele>238.927856</ele>
<time>2011-04-26T09:57:35Z</time>
<desc>lat.=22.055597, lon.=104.143578, Alt.=238.927856m. Speed=0.108000m/h.</desc>
<speed>0.030000</speed>
</trkpt>
<trkpt lat="22.055597" lon="104.143578">
<ele>238.927856</ele>
<time>2011-04-26T09:57:40Z</time>
<desc>lat.=22.055597, lon.=104.143578, Alt.=238.927856m. Speed=0.072000m/h.</desc>
<speed>0.020000</speed>
</trkpt>
<trkpt lat="22.055597" lon="104.143578">
<ele>238.935669</ele>
<time>2011-04-26T09:57:45Z</time>
<desc>lat.=22.055597, lon.=104.143578, Alt.=238.935669m. Speed=0.108000m/h.</desc>
<speed>0.030000</speed>
</trkpt>
<trkpt lat="22.055597" lon="104.143578">
<ele>238.943481</ele>
<time>2011-04-26T09:57:50Z</time>
<desc>lat.=22.055597, lon.=104.143578, Alt.=238.943481m. Speed=0.072000m/h.</desc>
<speed>0.020000</speed>
</trkpt>
<trkpt lat="22.055599" lon="104.143578">
<ele>238.947388</ele>
<time>2011-04-26T09:57:55Z</time>
<desc>lat.=22.055599, lon.=104.143578, Alt.=238.947388m. Speed=0.072000m/h.</desc>
<speed>0.020000</speed>
</trkpt>
<trkpt lat="22.055597" lon="104.143578">
<ele>238.947388</ele>
<time>2011-04-26T09:58:00Z</time>
<desc>lat.=22.055597, lon.=104.143578, Alt.=238.947388m. Speed=0.180000m/h.</desc>
<speed>0.050000</speed>
</trkpt>
<trkpt lat="22.055599" lon="104.143578">
<ele>238.947388</ele>
<time>2011-04-26T09:58:05Z</time>
<desc>lat.=22.055599, lon.=104.143578, Alt.=238.947388m. Speed=0.216000m/h.</desc>
<speed>0.060000</speed>
</trkpt>
<trkpt lat="22.055599" lon="104.143585">
<ele>238.943481</ele>
<time>2011-04-26T09:58:10Z</time>
<desc>lat.=22.055599, lon.=104.143585, Alt.=238.943481m. Speed=0.288000m/h.</desc>
<speed>0.080000</speed>
</trkpt>
<trkpt lat="22.055597" lon="104.143585">
<ele>238.931763</ele>
<time>2011-04-26T09:58:15Z</time>
<desc>lat.=22.055597, lon.=104.143585, Alt.=238.931763m. Speed=0.252000m/h.</desc>
<speed>0.070000</speed>
</trkpt>
<trkpt lat="22.055595" lon="104.143593">
<ele>238.916138</ele>
<time>2011-04-26T09:58:20Z</time>
<desc>lat.=22.055595, lon.=104.143593, Alt.=238.916138m. Speed=0.288000m/h.</desc>
<speed>0.080000</speed>
</trkpt>
<trkpt lat="22.055593" lon="104.143593">
<ele>238.896606</ele>
<time>2011-04-26T09:58:25Z</time>
<desc>lat.=22.055593, lon.=104.143593, Alt.=238.896606m. Speed=0.180000m/h.</desc>
<speed>0.050000</speed>
</trkpt>
<trkpt lat="22.055592" lon="104.143593">
<ele>238.877075</ele>
<time>2011-04-26T09:58:30Z</time>
<desc>lat.=22.055592, lon.=104.143593, Alt.=238.877075m. Speed=0.216000m/h.</desc>
<speed>0.060000</speed>
</trkpt>
<trkpt lat="22.055590" lon="104.143600">
<ele>238.857544</ele>
<time>2011-04-26T09:58:35Z</time>
<desc>lat.=22.055590, lon.=104.143600, Alt.=238.857544m. Speed=0.216000m/h.</desc>
<speed>0.060000</speed>
</trkpt>
<trkpt lat="22.055588" lon="104.143600">
<ele>238.838013</ele>
<time>2011-04-26T09:58:40Z</time>
<desc>lat.=22.055588, lon.=104.143600, Alt.=238.838013m. Speed=0.144000m/h.</desc>
<speed>0.040000</speed>
</trkpt>
<trkpt lat="22.055586" lon="104.143600">
<ele>238.818481</ele>
<time>2011-04-26T09:58:45Z</time>
<desc>lat.=22.055586, lon.=104.143600, Alt.=238.818481m. Speed=0.072000m/h.</desc>
<speed>0.020000</speed>
</trkpt>
<trkpt lat="22.055586" lon="104.143600">
<ele>238.802856</ele>
<time>2011-04-26T09:58:50Z</time>
<desc>lat.=22.055586, lon.=104.143600, Alt.=238.802856m. Speed=0.144000m/h.</desc>
<speed>0.040000</speed>
</trkpt>
<trkpt lat="22.055582" lon="104.143600">
<ele>238.798950</ele>
<time>2011-04-26T09:58:55Z</time>
<desc>lat.=22.055582, lon.=104.143600, Alt.=238.798950m. Speed=0.180000m/h.</desc>
<speed>0.050000</speed>
</trkpt>
<trkpt lat="22.055580" lon="104.143600">
<ele>238.791138</ele>
<time>2011-04-26T09:59:00Z</time>
<desc>lat.=22.055580, lon.=104.143600, Alt.=238.791138m. Speed=0.144000m/h.</desc>
<speed>0.040000</speed>
</trkpt>
<trkpt lat="22.055578" lon="104.143600">
<ele>238.783325</ele>
<time>2011-04-26T09:59:05Z</time>
<desc>lat.=22.055578, lon.=104.143600, Alt.=238.783325m. Speed=0.144000m/h.</desc>
<speed>0.040000</speed>
</trkpt>
<trkpt lat="22.055578" lon="104.143593">
<ele>238.775513</ele>
<time>2011-04-26T09:59:10Z</time>
<desc>lat.=22.055578, lon.=104.143593, Alt.=238.775513m. Speed=0.108000m/h.</desc>
<speed>0.030000</speed>
</trkpt>
<trkpt lat="22.055576" lon="104.143600">
<ele>238.763794</ele>
<time>2011-04-26T09:59:15Z</time>
<desc>lat.=22.055576, lon.=104.143600, Alt.=238.763794m. Speed=0.072000m/h.</desc>
<speed>0.020000</speed>
</trkpt>
<trkpt lat="22.055576" lon="104.143600">
<ele>238.755981</ele>
<time>2011-04-26T09:59:20Z</time>
<desc>lat.=22.055576, lon.=104.143600, Alt.=238.755981m. Speed=0.072000m/h.</desc>
<speed>0.020000</speed>
</trkpt>
<trkpt lat="22.055576" lon="104.143600">
<ele>238.744263</ele>
<time>2011-04-26T09:59:25Z</time>
<desc>lat.=22.055576, lon.=104.143600, Alt.=238.744263m. Speed=0.216000m/h.</desc>
<speed>0.060000</speed>
</trkpt>
<trkpt lat="22.055576" lon="104.143600">
<ele>238.732544</ele>
<time>2011-04-26T09:59:30Z</time>
<desc>lat.=22.055576, lon.=104.143600, Alt.=238.732544m. Speed=0.144000m/h.</desc>
<speed>0.040000</speed>
</trkpt>
<trkpt lat="22.055576" lon="104.143608">
<ele>238.693481</ele>
<time>2011-04-26T09:59:35Z</time>
<desc>lat.=22.055576, lon.=104.143608, Alt.=238.693481m. Speed=0.180000m/h.</desc>
<speed>0.050000</speed>
</trkpt>
<trkpt lat="22.055578" lon="104.143608">
<ele>238.670044</ele>
<time>2011-04-26T09:59:40Z</time>
<desc>lat.=22.055578, lon.=104.143608, Alt.=238.670044m. Speed=0.000000m/h.</desc>
<speed>0.000000</speed>
</trkpt>
<trkpt lat="22.055578" lon="104.143608">
<ele>238.673950</ele>
<time>2011-04-26T09:59:45Z</time>
<desc>lat.=22.055578, lon.=104.143608, Alt.=238.673950m. Speed=0.036000m/h.</desc>
<speed>0.010000</speed>
</trkpt>
<trkpt lat="22.055578" lon="104.143608">
<ele>238.677856</ele>
<time>2011-04-26T09:59:50Z</time>
<desc>lat.=22.055578, lon.=104.143608, Alt.=238.677856m. Speed=0.000000m/h.</desc>
<speed>0.000000</speed>
</trkpt>
<trkpt lat="22.055578" lon="104.143608">
<ele>238.685669</ele>
<time>2011-04-26T09:59:55Z</time>
<desc>lat.=22.055578, lon.=104.143608, Alt.=238.685669m. Speed=0.036000m/h.</desc>
<speed>0.010000</speed>
</trkpt>
<trkpt lat="22.055578" lon="104.143608">
<ele>238.689575</ele>
<time>2011-04-26T10:00:00Z</time>
<desc>lat.=22.055578, lon.=104.143608, Alt.=238.689575m. Speed=0.144000m/h.</desc>
<speed>0.040000</speed>
</trkpt>
<trkpt lat="22.055578" lon="104.143608">
<ele>238.709106</ele>
<time>2011-04-26T10:00:05Z</time>
<desc>lat.=22.055578, lon.=104.143608, Alt.=238.709106m. Speed=0.000000m/h.</desc>
<speed>0.000000</speed>
</trkpt>
<trkpt lat="22.055578" lon="104.143608">
<ele>238.716919</ele>
<time>2011-04-26T10:00:10Z</time>
<desc>lat.=22.055578, lon.=104.143608, Alt.=238.716919m. Speed=0.000000m/h.</desc>
<speed>0.000000</speed>
</trkpt>
<trkpt lat="22.055578" lon="104.143608">
<ele>238.732544</ele>
<time>2011-04-26T10:00:15Z</time>
<desc>lat.=22.055578, lon.=104.143608, Alt.=238.732544m. Speed=0.036000m/h.</desc>
<speed>0.010000</speed>
</trkpt>
<trkpt lat="22.055578" lon="104.143608">
<ele>238.740356</ele>
<time>2011-04-26T10:00:20Z</time>
<desc>lat.=22.055578, lon.=104.143608, Alt.=238.740356m. Speed=0.036000m/h.</desc>
<speed>0.010000</speed>
</trkpt>
<trkpt lat="22.055578" lon="104.143608">
<ele>238.736450</ele>
<time>2011-04-26T10:00:25Z</time>
<desc>lat.=22.055578, lon.=104.143608, Alt.=238.736450m. Speed=0.000000m/h.</desc>
<speed>0.000000</speed>
</trkpt>
<trkpt lat="22.055578" lon="104.143608">
<ele>238.728638</ele>
<time>2011-04-26T10:00:30Z</time>
<desc>lat.=22.055578, lon.=104.143608, Alt.=238.728638m. Speed=0.000000m/h.</desc>
<speed>0.000000</speed>
</trkpt>
<trkpt lat="22.055578" lon="104.143608">
<ele>238.724731</ele>
<time>2011-04-26T10:00:35Z</time>
<desc>lat.=22.055578, lon.=104.143608, Alt.=238.724731m. Speed=0.000000m/h.</desc>
<speed>0.000000</speed>
</trkpt>
<trkpt lat="22.055578" lon="104.143608">
<ele>238.724731</ele>
<time>2011-04-26T10:00:40Z</time>
<desc>lat.=22.055578, lon.=104.143608, Alt.=238.724731m. Speed=0.000000m/h.</desc>
<speed>0.000000</speed>
</trkpt>
<trkpt lat="22.055578" lon="104.143608">
<ele>238.744263</ele>
<time>2011-04-26T10:00:45Z</time>
<desc>lat.=22.055578, lon.=104.143608, Alt.=238.744263m. Speed=0.036000m/h.</desc>
<speed>0.010000</speed>
</trkpt>
<trkpt lat="22.055578" lon="104.143608">
<ele>238.771606</ele>
<time>2011-04-26T10:00:50Z</time>
<desc>lat.=22.055578, lon.=104.143608, Alt.=238.771606m. Speed=0.036000m/h.</desc>
<speed>0.010000</speed>
</trkpt>
<trkpt lat="22.055578" lon="104.143608">
<ele>238.814575</ele>
<time>2011-04-26T10:00:55Z</time>
<desc>lat.=22.055578, lon.=104.143608, Alt.=238.814575m. Speed=0.108000m/h.</desc>
<speed>0.030000</speed>
</trkpt>
<trkpt lat="22.055578" lon="104.143608">
<ele>238.838013</ele>
<time>2011-04-26T10:01:00Z</time>
<desc>lat.=22.055578, lon.=104.143608, Alt.=238.838013m. Speed=0.072000m/h.</desc>
<speed>0.020000</speed>
</trkpt>
<trkpt lat="22.055578" lon="104.143608">
<ele>238.861450</ele>
<time>2011-04-26T10:01:05Z</time>
<desc>lat.=22.055578, lon.=104.143608, Alt.=238.861450m. Speed=0.036000m/h.</desc>
<speed>0.010000</speed>
</trkpt>
<trkpt lat="22.055578" lon="104.143608">
<ele>238.888794</ele>
<time>2011-04-26T10:01:10Z</time>
<desc>lat.=22.055578, lon.=104.143608, Alt.=238.888794m. Speed=0.036000m/h.</desc>
<speed>0.010000</speed>
</trkpt>
<trkpt lat="22.055578" lon="104.143608">
<ele>238.912231</ele>
<time>2011-04-26T10:01:15Z</time>
<desc>lat.=22.055578, lon.=104.143608, Alt.=238.912231m. Speed=0.072000m/h.</desc>
<speed>0.020000</speed>
</trkpt>
<trkpt lat="22.055578" lon="104.143608">
<ele>238.943481</ele>
<time>2011-04-26T10:01:20Z</time>
<desc>lat.=22.055578, lon.=104.143608, Alt.=238.943481m. Speed=0.108000m/h.</desc>
<speed>0.030000</speed>
</trkpt>
<trkpt lat="22.055578" lon="104.143600">
<ele>239.017700</ele>
<time>2011-04-26T10:01:25Z</time>
<desc>lat.=22.055578, lon.=104.143600, Alt.=239.017700m. Speed=0.360000m/h.</desc>
<speed>0.100000</speed>
</trkpt>
<trkpt lat="22.055576" lon="104.143600">
<ele>239.181763</ele>
<time>2011-04-26T10:01:30Z</time>
<desc>lat.=22.055576, lon.=104.143600, Alt.=239.181763m. Speed=0.288000m/h.</desc>
<speed>0.080000</speed>
</trkpt>
<trkpt lat="22.055576" lon="104.143593">
<ele>239.404419</ele>
<time>2011-04-26T10:01:35Z</time>
<desc>lat.=22.055576, lon.=104.143593, Alt.=239.404419m. Speed=0.288000m/h.</desc>
<speed>0.080000</speed>
</trkpt>
<trkpt lat="22.055574" lon="104.143593">
<ele>239.662231</ele>
<time>2011-04-26T10:01:40Z</time>
<desc>lat.=22.055574, lon.=104.143593, Alt.=239.662231m. Speed=0.324000m/h.</desc>
<speed>0.090000</speed>
</trkpt>
<trkpt lat="22.055576" lon="104.143585">
<ele>239.982544</ele>
<time>2011-04-26T10:01:45Z</time>
<desc>lat.=22.055576, lon.=104.143585, Alt.=239.982544m. Speed=0.252000m/h.</desc>
<speed>0.070000</speed>
</trkpt>
<trkpt lat="22.055576" lon="104.143585">
<ele>240.357544</ele>
<time>2011-04-26T10:01:50Z</time>
<desc>lat.=22.055576, lon.=104.143585, Alt.=240.357544m. Speed=0.180000m/h.</desc>
<speed>0.050000</speed>
</trkpt>
<trkpt lat="22.055574" lon="104.143578">
<ele>240.767700</ele>
<time>2011-04-26T10:01:55Z</time>
<desc>lat.=22.055574, lon.=104.143578, Alt.=240.767700m. Speed=0.108000m/h.</desc>
<speed>0.030000</speed>
</trkpt>
<trkpt lat="22.055574" lon="104.143585">
<ele>241.232544</ele>
<time>2011-04-26T10:02:00Z</time>
<desc>lat.=22.055574, lon.=104.143585, Alt.=241.232544m. Speed=0.144000m/h.</desc>
<speed>0.040000</speed>
</trkpt>
<trkpt lat="22.055571" lon="104.143585">
<ele>241.744263</ele>
<time>2011-04-26T10:02:05Z</time>
<desc>lat.=22.055571, lon.=104.143585, Alt.=241.744263m. Speed=0.252000m/h.</desc>
<speed>0.070000</speed>
</trkpt>
<trkpt lat="22.055569" lon="104.143578">
<ele>242.252075</ele>
<time>2011-04-26T10:02:10Z</time>
<desc>lat.=22.055569, lon.=104.143578, Alt.=242.252075m. Speed=0.216000m/h.</desc>
<speed>0.060000</speed>
</trkpt>
<trkpt lat="22.055565" lon="104.143578">
<ele>242.759888</ele>
<time>2011-04-26T10:02:15Z</time>
<desc>lat.=22.055565, lon.=104.143578, Alt.=242.759888m. Speed=0.324000m/h.</desc>
<speed>0.090000</speed>
</trkpt>
<trkpt lat="22.055561" lon="104.143578">
<ele>243.275513</ele>
<time>2011-04-26T10:02:20Z</time>
<desc>lat.=22.055561, lon.=104.143578, Alt.=243.275513m. Speed=0.324000m/h.</desc>
<speed>0.090000</speed>
</trkpt>
<trkpt lat="22.055555" lon="104.143578">
<ele>243.755981</ele>
<time>2011-04-26T10:02:25Z</time>
<desc>lat.=22.055555, lon.=104.143578, Alt.=243.755981m. Speed=0.396000m/h.</desc>
<speed>0.110000</speed>
</trkpt>
<trkpt lat="22.055552" lon="104.143578">
<ele>244.224731</ele>
<time>2011-04-26T10:02:30Z</time>
<desc>lat.=22.055552, lon.=104.143578, Alt.=244.224731m. Speed=0.216000m/h.</desc>
<speed>0.060000</speed>
</trkpt>
<trkpt lat="22.055550" lon="104.143578">
<ele>244.693481</ele>
<time>2011-04-26T10:02:35Z</time>
<desc>lat.=22.055550, lon.=104.143578, Alt.=244.693481m. Speed=0.360000m/h.</desc>
<speed>0.100000</speed>
</trkpt>
<trkpt lat="22.055548" lon="104.143578">
<ele>245.013794</ele>
<time>2011-04-26T10:02:40Z</time>
<desc>lat.=22.055548, lon.=104.143578, Alt.=245.013794m. Speed=0.036000m/h.</desc>
<speed>0.010000</speed>
</trkpt>
<trkpt lat="22.055548" lon="104.143570">
<ele>245.154419</ele>
<time>2011-04-26T10:02:45Z</time>
<desc>lat.=22.055548, lon.=104.143570, Alt.=245.154419m. Speed=0.252000m/h.</desc>
<speed>0.070000</speed>
</trkpt>
<trkpt lat="22.055548" lon="104.143570">
<ele>245.213013</ele>
<time>2011-04-26T10:02:50Z</time>
<desc>lat.=22.055548, lon.=104.143570, Alt.=245.213013m. Speed=0.000000m/h.</desc>
<speed>0.000000</speed>
</trkpt>
<trkpt lat="22.055548" lon="104.143570">
<ele>245.138794</ele>
<time>2011-04-26T10:02:55Z</time>
<desc>lat.=22.055548, lon.=104.143570, Alt.=245.138794m. Speed=0.180000m/h.</desc>
<speed>0.050000</speed>
</trkpt>
<trkpt lat="22.055553" lon="104.143570">
<ele>244.869263</ele>
<time>2011-04-26T10:03:00Z</time>
<desc>lat.=22.055553, lon.=104.143570, Alt.=244.869263m. Speed=0.468000m/h.</desc>
<speed>0.130000</speed>
</trkpt>
<trkpt lat="22.055555" lon="104.143570">
<ele>244.588013</ele>
<time>2011-04-26T10:03:05Z</time>
<desc>lat.=22.055555, lon.=104.143570, Alt.=244.588013m. Speed=0.252000m/h.</desc>
<speed>0.070000</speed>
</trkpt>
<trkpt lat="22.055557" lon="104.143578">
<ele>244.404419</ele>
<time>2011-04-26T10:03:10Z</time>
<desc>lat.=22.055557, lon.=104.143578, Alt.=244.404419m. Speed=0.000000m/h.</desc>
<speed>0.000000</speed>
</trkpt>
<trkpt lat="22.055557" lon="104.143578">
<ele>244.224731</ele>
<time>2011-04-26T10:03:15Z</time>
<desc>lat.=22.055557, lon.=104.143578, Alt.=244.224731m. Speed=0.072000m/h.</desc>
<speed>0.020000</speed>
</trkpt>
<trkpt lat="22.055557" lon="104.143578">
<ele>244.228638</ele>
<time>2011-04-26T10:03:20Z</time>
<desc>lat.=22.055557, lon.=104.143578, Alt.=244.228638m. Speed=0.036000m/h.</desc>
<speed>0.010000</speed>
</trkpt>
<trkpt lat="22.055557" lon="104.143570">
<ele>244.287231</ele>
<time>2011-04-26T10:03:25Z</time>
<desc>lat.=22.055557, lon.=104.143570, Alt.=244.287231m. Speed=0.216000m/h.</desc>
<speed>0.060000</speed>
</trkpt>
<trkpt lat="22.055563" lon="104.143578">
<ele>244.314575</ele>
<time>2011-04-26T10:03:30Z</time>
<desc>lat.=22.055563, lon.=104.143578, Alt.=244.314575m. Speed=0.432000m/h.</desc>
<speed>0.120000</speed>
</trkpt>
<trkpt lat="22.055565" lon="104.143578">
<ele>244.404419</ele>
<time>2011-04-26T10:03:35Z</time>
<desc>lat.=22.055565, lon.=104.143578, Alt.=244.404419m. Speed=0.108000m/h.</desc>
<speed>0.030000</speed>
</trkpt>
<trkpt lat="22.055567" lon="104.143578">
<ele>244.423950</ele>
<time>2011-04-26T10:03:40Z</time>
<desc>lat.=22.055567, lon.=104.143578, Alt.=244.423950m. Speed=0.252000m/h.</desc>
<speed>0.070000</speed>
</trkpt>
<trkpt lat="22.055567" lon="104.143585">
<ele>244.408325</ele>
<time>2011-04-26T10:03:45Z</time>
<desc>lat.=22.055567, lon.=104.143585, Alt.=244.408325m. Speed=0.036000m/h.</desc>
<speed>0.010000</speed>
</trkpt>
<trkpt lat="22.055567" lon="104.143585">
<ele>244.412231</ele>
<time>2011-04-26T10:03:50Z</time>
<desc>lat.=22.055567, lon.=104.143585, Alt.=244.412231m. Speed=0.072000m/h.</desc>
<speed>0.020000</speed>
</trkpt>
<trkpt lat="22.055567" lon="104.143585">
<ele>244.443481</ele>
<time>2011-04-26T10:03:55Z</time>
<desc>lat.=22.055567, lon.=104.143585, Alt.=244.443481m. Speed=0.036000m/h.</desc>
<speed>0.010000</speed>
</trkpt>
<trkpt lat="22.055567" lon="104.143585">
<ele>244.466919</ele>
<time>2011-04-26T10:04:00Z</time>
<desc>lat.=22.055567, lon.=104.143585, Alt.=244.466919m. Speed=0.036000m/h.</desc>
<speed>0.010000</speed>
</trkpt>
<trkpt lat="22.055565" lon="104.143585">
<ele>244.466919</ele>
<time>2011-04-26T10:04:05Z</time>
<desc>lat.=22.055565, lon.=104.143585, Alt.=244.466919m. Speed=0.216000m/h.</desc>
<speed>0.060000</speed>
</trkpt>
<trkpt lat="22.055567" lon="104.143600">
<ele>243.689575</ele>
<time>2011-04-26T10:04:10Z</time>
<desc>lat.=22.055567, lon.=104.143600, Alt.=243.689575m. Speed=2.160000m/h.</desc>
<speed>0.600000</speed>
</trkpt>
<trkpt lat="22.055548" lon="104.143738">
<ele>242.017700</ele>
<time>2011-04-26T10:04:15Z</time>
<desc>lat.=22.055548, lon.=104.143738, Alt.=242.017700m. Speed=12.240000m/h.</desc>
<speed>3.400000</speed>
</trkpt>
<trkpt lat="22.055511" lon="104.143898">
<ele>242.302856</ele>
<time>2011-04-26T10:04:20Z</time>
<desc>lat.=22.055511, lon.=104.143898, Alt.=242.302856m. Speed=10.584000m/h.</desc>
<speed>2.940000</speed>
</trkpt>
<trkpt lat="22.055464" lon="104.144157">
<ele>241.865356</ele>
<time>2011-04-26T10:04:25Z</time>
<desc>lat.=22.055464, lon.=104.144157, Alt.=241.865356m. Speed=18.504000m/h.</desc>
<speed>5.140000</speed>
</trkpt>
<trkpt lat="22.055387" lon="104.144447">
<ele>240.545044</ele>
<time>2011-04-26T10:04:30Z</time>
<desc>lat.=22.055387, lon.=104.144447, Alt.=240.545044m. Speed=17.604000m/h.</desc>
<speed>4.890000</speed>
</trkpt>
<trkpt lat="22.055300" lon="104.144753">
<ele>239.095825</ele>
<time>2011-04-26T10:04:35Z</time>
<desc>lat.=22.055300, lon.=104.144753, Alt.=239.095825m. Speed=21.924000m/h.</desc>
<speed>6.090000</speed>
</trkpt>
<trkpt lat="22.055237" lon="104.145042">
<ele>238.572388</ele>
<time>2011-04-26T10:04:40Z</time>
<desc>lat.=22.055237, lon.=104.145042, Alt.=238.572388m. Speed=21.420000m/h.</desc>
<speed>5.950000</speed>
</trkpt>
<trkpt lat="22.055218" lon="104.145370">
<ele>237.052856</ele>
<time>2011-04-26T10:04:45Z</time>
<desc>lat.=22.055218, lon.=104.145370, Alt.=237.052856m. Speed=21.959999m/h.</desc>
<speed>6.100000</speed>
</trkpt>
<trkpt lat="22.055281" lon="104.145714">
<ele>234.326294</ele>
<time>2011-04-26T10:04:50Z</time>
<desc>lat.=22.055281, lon.=104.145714, Alt.=234.326294m. Speed=27.827999m/h.</desc>
<speed>7.730000</speed>
</trkpt>
<trkpt lat="22.055384" lon="104.146049">
<ele>232.216919</ele>
<time>2011-04-26T10:04:55Z</time>
<desc>lat.=22.055384, lon.=104.146049, Alt.=232.216919m. Speed=23.076000m/h.</desc>
<speed>6.410000</speed>
</trkpt>
<trkpt lat="22.055487" lon="104.146416">
<ele>228.162231</ele>
<time>2011-04-26T10:05:00Z</time>
<desc>lat.=22.055487, lon.=104.146416, Alt.=228.162231m. Speed=24.011999m/h.</desc>
<speed>6.670000</speed>
</trkpt>
<trkpt lat="22.055567" lon="104.146698">
<ele>225.857544</ele>
<time>2011-04-26T10:05:05Z</time>
<desc>lat.=22.055567, lon.=104.146698, Alt.=225.857544m. Speed=18.719999m/h.</desc>
<speed>5.200000</speed>
</trkpt>
<trkpt lat="22.055628" lon="104.146889">
<ele>224.115356</ele>
<time>2011-04-26T10:05:10Z</time>
<desc>lat.=22.055628, lon.=104.146889, Alt.=224.115356m. Speed=9.216000m/h.</desc>
<speed>2.560000</speed>
</trkpt>
<trkpt lat="22.055626" lon="104.146935">
<ele>223.420044</ele>
<time>2011-04-26T10:05:15Z</time>
<desc>lat.=22.055626, lon.=104.146935, Alt.=223.420044m. Speed=0.324000m/h.</desc>
<speed>0.090000</speed>
</trkpt>
<trkpt lat="22.055628" lon="104.146942">
<ele>223.173950</ele>
<time>2011-04-26T10:05:20Z</time>
<desc>lat.=22.055628, lon.=104.146942, Alt.=223.173950m. Speed=0.216000m/h.</desc>
<speed>0.060000</speed>
</trkpt>
<trkpt lat="22.055630" lon="104.146942">
<ele>222.990356</ele>
<time>2011-04-26T10:05:25Z</time>
<desc>lat.=22.055630, lon.=104.146942, Alt.=222.990356m. Speed=0.036000m/h.</desc>
<speed>0.010000</speed>
</trkpt>
<trkpt lat="22.055630" lon="104.146942">
<ele>222.877075</ele>
<time>2011-04-26T10:05:30Z</time>
<desc>lat.=22.055630, lon.=104.146942, Alt.=222.877075m. Speed=0.504000m/h.</desc>
<speed>0.140000</speed>
</trkpt>
<trkpt lat="22.055637" lon="104.146957">
<ele>223.005981</ele>
<time>2011-04-26T10:05:35Z</time>
<desc>lat.=22.055637, lon.=104.146957, Alt.=223.005981m. Speed=5.184000m/h.</desc>
<speed>1.440000</speed>
</trkpt>
<trkpt lat="22.055689" lon="104.147049">
<ele>222.736450</ele>
<time>2011-04-26T10:05:40Z</time>
<desc>lat.=22.055689, lon.=104.147049, Alt.=222.736450m. Speed=11.484000m/h.</desc>
<speed>3.190000</speed>
</trkpt>
<trkpt lat="22.055775" lon="104.147202">
<ele>222.646606</ele>
<time>2011-04-26T10:05:45Z</time>
<desc>lat.=22.055775, lon.=104.147202, Alt.=222.646606m. Speed=13.500000m/h.</desc>
<speed>3.750000</speed>
</trkpt>
<trkpt lat="22.055904" lon="104.147362">
<ele>222.517700</ele>
<time>2011-04-26T10:05:50Z</time>
<desc>lat.=22.055904, lon.=104.147362, Alt.=222.517700m. Speed=18.648001m/h.</desc>
<speed>5.180000</speed>
</trkpt>
<trkpt lat="22.056137" lon="104.147522">
<ele>220.705200</ele>
<time>2011-04-26T10:05:55Z</time>
<desc>lat.=22.056137, lon.=104.147522, Alt.=220.705200m. Speed=24.156000m/h.</desc>
<speed>6.710000</speed>
</trkpt>
<trkpt lat="22.056416" lon="104.147720">
<ele>219.810669</ele>
<time>2011-04-26T10:06:00Z</time>
<desc>lat.=22.056416, lon.=104.147720, Alt.=219.810669m. Speed=26.388000m/h.</desc>
<speed>7.330000</speed>
</trkpt>
<trkpt lat="22.056644" lon="104.147987">
<ele>218.912231</ele>
<time>2011-04-26T10:06:05Z</time>
<desc>lat.=22.056644, lon.=104.147987, Alt.=218.912231m. Speed=27.180000m/h.</desc>
<speed>7.550000</speed>
</trkpt>
<trkpt lat="22.056883" lon="104.148247">
<ele>218.373169</ele>
<time>2011-04-26T10:06:10Z</time>
<desc>lat.=22.056883, lon.=104.148247, Alt.=218.373169m. Speed=26.424000m/h.</desc>
<speed>7.340000</speed>
</trkpt>
<trkpt lat="22.057135" lon="104.148460">
<ele>217.838013</ele>
<time>2011-04-26T10:06:15Z</time>
<desc>lat.=22.057135, lon.=104.148460, Alt.=217.838013m. Speed=22.752001m/h.</desc>
<speed>6.320000</speed>
</trkpt>
<trkpt lat="22.057379" lon="104.148598">
<ele>217.279419</ele>
<time>2011-04-26T10:06:20Z</time>
<desc>lat.=22.057379, lon.=104.148598, Alt.=217.279419m. Speed=19.115999m/h.</desc>
<speed>5.310000</speed>
</trkpt>
<trkpt lat="22.057596" lon="104.148705">
<ele>216.806763</ele>
<time>2011-04-26T10:06:25Z</time>
<desc>lat.=22.057596, lon.=104.148705, Alt.=216.806763m. Speed=19.260000m/h.</desc>
<speed>5.350000</speed>
</trkpt>
<trkpt lat="22.057823" lon="104.148811">
<ele>217.201294</ele>
<time>2011-04-26T10:06:30Z</time>
<desc>lat.=22.057823, lon.=104.148811, Alt.=217.201294m. Speed=18.827999m/h.</desc>
<speed>5.230000</speed>
</trkpt>
<trkpt lat="22.058058" lon="104.148933">
<ele>218.314575</ele>
<time>2011-04-26T10:06:35Z</time>
<desc>lat.=22.058058, lon.=104.148933, Alt.=218.314575m. Speed=20.268000m/h.</desc>
<speed>5.630000</speed>
</trkpt>
<trkpt lat="22.058277" lon="104.149055">
<ele>218.400513</ele>
<time>2011-04-26T10:06:40Z</time>
<desc>lat.=22.058277, lon.=104.149055, Alt.=218.400513m. Speed=18.252001m/h.</desc>
<speed>5.070000</speed>
</trkpt>
<trkpt lat="22.058487" lon="104.149139">
<ele>217.525513</ele>
<time>2011-04-26T10:06:45Z</time>
<desc>lat.=22.058487, lon.=104.149139, Alt.=217.525513m. Speed=17.172001m/h.</desc>
<speed>4.770000</speed>
</trkpt>
<trkpt lat="22.058723" lon="104.149216">
<ele>217.310669</ele>
<time>2011-04-26T10:06:50Z</time>
<desc>lat.=22.058723, lon.=104.149216, Alt.=217.310669m. Speed=18.540001m/h.</desc>
<speed>5.150000</speed>
</trkpt>
<trkpt lat="22.058964" lon="104.149292">
<ele>215.849731</ele>
<time>2011-04-26T10:06:55Z</time>
<desc>lat.=22.058964, lon.=104.149292, Alt.=215.849731m. Speed=17.028000m/h.</desc>
<speed>4.730000</speed>
</trkpt>
<trkpt lat="22.059149" lon="104.149422">
<ele>215.681763</ele>
<time>2011-04-26T10:07:00Z</time>
<desc>lat.=22.059149, lon.=104.149422, Alt.=215.681763m. Speed=22.464001m/h.</desc>
<speed>6.240000</speed>
</trkpt>
<trkpt lat="22.059296" lon="104.149605">
<ele>214.869263</ele>
<time>2011-04-26T10:07:05Z</time>
<desc>lat.=22.059296, lon.=104.149605, Alt.=214.869263m. Speed=18.936001m/h.</desc>
<speed>5.260000</speed>
</trkpt>
<trkpt lat="22.059355" lon="104.149857">
<ele>215.248169</ele>
<time>2011-04-26T10:07:10Z</time>
<desc>lat.=22.059355, lon.=104.149857, Alt.=215.248169m. Speed=19.188000m/h.</desc>
<speed>5.330000</speed>
</trkpt>
<trkpt lat="22.059372" lon="104.150139">
<ele>214.463013</ele>
<time>2011-04-26T10:07:15Z</time>
<desc>lat.=22.059372, lon.=104.150139, Alt.=214.463013m. Speed=18.000000m/h.</desc>
<speed>5.000000</speed>
</trkpt>
<trkpt lat="22.059366" lon="104.150398">
<ele>217.173950</ele>
<time>2011-04-26T10:07:20Z</time>
<desc>lat.=22.059366, lon.=104.150398, Alt.=217.173950m. Speed=16.884001m/h.</desc>
<speed>4.690000</speed>
</trkpt>
<trkpt lat="22.059351" lon="104.150612">
<ele>216.470825</ele>
<time>2011-04-26T10:07:25Z</time>
<desc>lat.=22.059351, lon.=104.150612, Alt.=216.470825m. Speed=15.552000m/h.</desc>
<speed>4.320000</speed>
</trkpt>
<trkpt lat="22.059340" lon="104.150826">
<ele>216.025513</ele>
<time>2011-04-26T10:07:30Z</time>
<desc>lat.=22.059340, lon.=104.150826, Alt.=216.025513m. Speed=16.848000m/h.</desc>
<speed>4.680000</speed>
</trkpt>
<trkpt lat="22.059275" lon="104.151047">
<ele>215.588013</ele>
<time>2011-04-26T10:07:35Z</time>
<desc>lat.=22.059275, lon.=104.151047, Alt.=215.588013m. Speed=15.732000m/h.</desc>
<speed>4.370000</speed>
</trkpt>
<trkpt lat="22.059145" lon="104.151245">
<ele>214.752075</ele>
<time>2011-04-26T10:07:40Z</time>
<desc>lat.=22.059145, lon.=104.151245, Alt.=214.752075m. Speed=14.544000m/h.</desc>
<speed>4.040000</speed>
</trkpt>
<trkpt lat="22.058973" lon="104.151466">
<ele>213.798950</ele>
<time>2011-04-26T10:07:45Z</time>
<desc>lat.=22.058973, lon.=104.151466, Alt.=213.798950m. Speed=22.356001m/h.</desc>
<speed>6.210000</speed>
</trkpt>
<trkpt lat="22.058796" lon="104.151642">
<ele>213.673950</ele>
<time>2011-04-26T10:07:50Z</time>
<desc>lat.=22.058796, lon.=104.151642, Alt.=213.673950m. Speed=18.108000m/h.</desc>
<speed>5.030000</speed>
</trkpt>
<trkpt lat="22.058661" lon="104.151787">
<ele>213.982544</ele>
<time>2011-04-26T10:07:55Z</time>
<desc>lat.=22.058661, lon.=104.151787, Alt.=213.982544m. Speed=14.796000m/h.</desc>
<speed>4.110000</speed>
</trkpt>
<trkpt lat="22.058502" lon="104.151947">
<ele>214.099731</ele>
<time>2011-04-26T10:08:00Z</time>
<desc>lat.=22.058502, lon.=104.151947, Alt.=214.099731m. Speed=19.440001m/h.</desc>
<speed>5.400000</speed>
</trkpt>
<trkpt lat="22.058304" lon="104.152176">
<ele>214.830200</ele>
<time>2011-04-26T10:08:05Z</time>
<desc>lat.=22.058304, lon.=104.152176, Alt.=214.830200m. Speed=18.900000m/h.</desc>
<speed>5.250000</speed>
</trkpt>
<trkpt lat="22.058182" lon="104.152428">
<ele>214.498169</ele>
<time>2011-04-26T10:08:10Z</time>
<desc>lat.=22.058182, lon.=104.152428, Alt.=214.498169m. Speed=16.559999m/h.</desc>
<speed>4.600000</speed>
</trkpt>
<trkpt lat="22.058123" lon="104.152649">
<ele>215.099731</ele>
<time>2011-04-26T10:08:15Z</time>
<desc>lat.=22.058123, lon.=104.152649, Alt.=215.099731m. Speed=17.604000m/h.</desc>
<speed>4.890000</speed>
</trkpt>
<trkpt lat="22.058075" lon="104.152870">
<ele>216.255981</ele>
<time>2011-04-26T10:08:20Z</time>
<desc>lat.=22.058075, lon.=104.152870, Alt.=216.255981m. Speed=16.559999m/h.</desc>
<speed>4.600000</speed>
</trkpt>
<trkpt lat="22.058031" lon="104.153145">
<ele>218.291138</ele>
<time>2011-04-26T10:08:25Z</time>
<desc>lat.=22.058031, lon.=104.153145, Alt.=218.291138m. Speed=17.639999m/h.</desc>
<speed>4.900000</speed>
</trkpt>
<trkpt lat="22.058092" lon="104.153404">
<ele>219.463013</ele>
<time>2011-04-26T10:08:30Z</time>
<desc>lat.=22.058092, lon.=104.153404, Alt.=219.463013m. Speed=17.964001m/h.</desc>
<speed>4.990000</speed>
</trkpt>
<trkpt lat="22.058168" lon="104.153610">
<ele>219.025513</ele>
<time>2011-04-26T10:08:35Z</time>
<desc>lat.=22.058168, lon.=104.153610, Alt.=219.025513m. Speed=14.436000m/h.</desc>
<speed>4.010000</speed>
</trkpt>
<trkpt lat="22.058279" lon="104.153755">
<ele>220.209106</ele>
<time>2011-04-26T10:08:40Z</time>
<desc>lat.=22.058279, lon.=104.153755, Alt.=220.209106m. Speed=13.716000m/h.</desc>
<speed>3.810000</speed>
</trkpt>
<trkpt lat="22.058413" lon="104.153900">
<ele>220.767700</ele>
<time>2011-04-26T10:08:45Z</time>
<desc>lat.=22.058413, lon.=104.153900, Alt.=220.767700m. Speed=13.968000m/h.</desc>
<speed>3.880000</speed>
</trkpt>
<trkpt lat="22.058546" lon="104.154045">
<ele>220.974731</ele>
<time>2011-04-26T10:08:50Z</time>
<desc>lat.=22.058546, lon.=104.154045, Alt.=220.974731m. Speed=14.652000m/h.</desc>
<speed>4.070000</speed>
</trkpt>
<trkpt lat="22.058689" lon="104.154182">
<ele>221.197388</ele>
<time>2011-04-26T10:08:55Z</time>
<desc>lat.=22.058689, lon.=104.154182, Alt.=221.197388m. Speed=13.716000m/h.</desc>
<speed>3.810000</speed>
</trkpt>
<trkpt lat="22.058826" lon="104.154312">
<ele>221.611450</ele>
<time>2011-04-26T10:09:00Z</time>
<desc>lat.=22.058826, lon.=104.154312, Alt.=221.611450m. Speed=16.524000m/h.</desc>
<speed>4.590000</speed>
</trkpt>
<trkpt lat="22.058971" lon="104.154449">
<ele>221.838013</ele>
<time>2011-04-26T10:09:05Z</time>
<desc>lat.=22.058971, lon.=104.154449, Alt.=221.838013m. Speed=12.168000m/h.</desc>
<speed>3.380000</speed>
</trkpt>
<trkpt lat="22.059118" lon="104.154587">
<ele>221.892700</ele>
<time>2011-04-26T10:09:10Z</time>
<desc>lat.=22.059118, lon.=104.154587, Alt.=221.892700m. Speed=16.236000m/h.</desc>
<speed>4.510000</speed>
</trkpt>
<trkpt lat="22.059273" lon="104.154747">
<ele>220.943481</ele>
<time>2011-04-26T10:09:15Z</time>
<desc>lat.=22.059273, lon.=104.154747, Alt.=220.943481m. Speed=16.596001m/h.</desc>
<speed>4.610000</speed>
</trkpt>
<trkpt lat="22.059416" lon="104.154884">
<ele>219.943481</ele>
<time>2011-04-26T10:09:20Z</time>
<desc>lat.=22.059416, lon.=104.154884, Alt.=219.943481m. Speed=11.700000m/h.</desc>
<speed>3.250000</speed>
</trkpt>
<trkpt lat="22.059542" lon="104.154991">
<ele>219.017700</ele>
<time>2011-04-26T10:09:25Z</time>
<desc>lat.=22.059542, lon.=104.154991, Alt.=219.017700m. Speed=12.924000m/h.</desc>
<speed>3.590000</speed>
</trkpt>
<trkpt lat="22.059656" lon="104.155098">
<ele>218.513794</ele>
<time>2011-04-26T10:09:30Z</time>
<desc>lat.=22.059656, lon.=104.155098, Alt.=218.513794m. Speed=10.332000m/h.</desc>
<speed>2.870000</speed>
</trkpt>
<trkpt lat="22.059776" lon="104.155212">
<ele>218.420044</ele>
<time>2011-04-26T10:09:35Z</time>
<desc>lat.=22.059776, lon.=104.155212, Alt.=218.420044m. Speed=12.708000m/h.</desc>
<speed>3.530000</speed>
</trkpt>
<trkpt lat="22.059870" lon="104.155342">
<ele>218.556763</ele>
<time>2011-04-26T10:09:40Z</time>
<desc>lat.=22.059870, lon.=104.155342, Alt.=218.556763m. Speed=9.576000m/h.</desc>
<speed>2.660000</speed>
</trkpt>
<trkpt lat="22.059937" lon="104.155449">
<ele>218.548950</ele>
<time>2011-04-26T10:09:45Z</time>
<desc>lat.=22.059937, lon.=104.155449, Alt.=218.548950m. Speed=8.568000m/h.</desc>
<speed>2.380000</speed>
</trkpt>
<trkpt lat="22.060003" lon="104.155556">
<ele>218.775513</ele>
<time>2011-04-26T10:09:50Z</time>
<desc>lat.=22.060003, lon.=104.155556, Alt.=218.775513m. Speed=8.316000m/h.</desc>
<speed>2.310000</speed>
</trkpt>
<trkpt lat="22.060074" lon="104.155663">
<ele>218.920044</ele>
<time>2011-04-26T10:09:55Z</time>
<desc>lat.=22.060074, lon.=104.155663, Alt.=218.920044m. Speed=7.776000m/h.</desc>
<speed>2.160000</speed>
</trkpt>
<trkpt lat="22.060143" lon="104.155762">
<ele>219.002075</ele>
<time>2011-04-26T10:10:00Z</time>
<desc>lat.=22.060143, lon.=104.155762, Alt.=219.002075m. Speed=7.272000m/h.</desc>
<speed>2.020000</speed>
</trkpt>
<trkpt lat="22.060205" lon="104.155846">
<ele>218.888794</ele>
<time>2011-04-26T10:10:05Z</time>
<desc>lat.=22.060205, lon.=104.155846, Alt.=218.888794m. Speed=5.688000m/h.</desc>
<speed>1.580000</speed>
</trkpt>
<trkpt lat="22.060297" lon="104.155922">
<ele>218.927856</ele>
<time>2011-04-26T10:10:10Z</time>
<desc>lat.=22.060297, lon.=104.155922, Alt.=218.927856m. Speed=8.460000m/h.</desc>
<speed>2.350000</speed>
</trkpt>
<trkpt lat="22.060364" lon="104.156029">
<ele>219.533325</ele>
<time>2011-04-26T10:10:15Z</time>
<desc>lat.=22.060364, lon.=104.156029, Alt.=219.533325m. Speed=7.020000m/h.</desc>
<speed>1.950000</speed>
</trkpt>
<trkpt lat="22.060522" lon="104.156120">
<ele>218.990356</ele>
<time>2011-04-26T10:10:20Z</time>
<desc>lat.=22.060522, lon.=104.156120, Alt.=218.990356m. Speed=10.440000m/h.</desc>
<speed>2.900000</speed>
</trkpt>
<trkpt lat="22.060667" lon="104.156189">
<ele>217.990356</ele>
<time>2011-04-26T10:10:25Z</time>
<desc>lat.=22.060667, lon.=104.156189, Alt.=217.990356m. Speed=11.880000m/h.</desc>
<speed>3.300000</speed>
</trkpt>
<trkpt lat="22.060791" lon="104.156258">
<ele>217.920044</ele>
<time>2011-04-26T10:10:30Z</time>
<desc>lat.=22.060791, lon.=104.156258, Alt.=217.920044m. Speed=10.332000m/h.</desc>
<speed>2.870000</speed>
</trkpt>
<trkpt lat="22.060953" lon="104.156334">
<ele>217.716919</ele>
<time>2011-04-26T10:10:35Z</time>
<desc>lat.=22.060953, lon.=104.156334, Alt.=217.716919m. Speed=12.492000m/h.</desc>
<speed>3.470000</speed>
</trkpt>
<trkpt lat="22.061123" lon="104.156342">
<ele>216.990356</ele>
<time>2011-04-26T10:10:40Z</time>
<desc>lat.=22.061123, lon.=104.156342, Alt.=216.990356m. Speed=12.384000m/h.</desc>
<speed>3.440000</speed>
</trkpt>
<trkpt lat="22.061344" lon="104.156311">
<ele>216.146606</ele>
<time>2011-04-26T10:10:45Z</time>
<desc>lat.=22.061344, lon.=104.156311, Alt.=216.146606m. Speed=17.459999m/h.</desc>
<speed>4.850000</speed>
</trkpt>
<trkpt lat="22.061647" lon="104.156242">
<ele>215.275513</ele>
<time>2011-04-26T10:10:50Z</time>
<desc>lat.=22.061647, lon.=104.156242, Alt.=215.275513m. Speed=22.716000m/h.</desc>
<speed>6.310000</speed>
</trkpt>
<trkpt lat="22.061989" lon="104.156197">
<ele>214.045044</ele>
<time>2011-04-26T10:10:55Z</time>
<desc>lat.=22.061989, lon.=104.156197, Alt.=214.045044m. Speed=24.768000m/h.</desc>
<speed>6.880000</speed>
</trkpt>
<trkpt lat="22.062313" lon="104.156197">
<ele>213.552856</ele>
<time>2011-04-26T10:11:00Z</time>
<desc>lat.=22.062313, lon.=104.156197, Alt.=213.552856m. Speed=21.600000m/h.</desc>
<speed>6.000000</speed>
</trkpt>
<trkpt lat="22.062620" lon="104.156296">
<ele>211.720825</ele>
<time>2011-04-26T10:11:05Z</time>
<desc>lat.=22.062620, lon.=104.156296, Alt.=211.720825m. Speed=23.400000m/h.</desc>
<speed>6.500000</speed>
</trkpt>
<trkpt lat="22.062902" lon="104.156380">
<ele>213.681763</ele>
<time>2011-04-26T10:11:10Z</time>
<desc>lat.=22.062902, lon.=104.156380, Alt.=213.681763m. Speed=17.172001m/h.</desc>
<speed>4.770000</speed>
</trkpt>
<trkpt lat="22.063137" lon="104.156456">
<ele>216.908325</ele>
<time>2011-04-26T10:11:15Z</time>
<desc>lat.=22.063137, lon.=104.156456, Alt.=216.908325m. Speed=14.292000m/h.</desc>
<speed>3.970000</speed>
</trkpt>
<trkpt lat="22.063307" lon="104.156525">
<ele>217.920044</ele>
<time>2011-04-26T10:11:20Z</time>
<desc>lat.=22.063307, lon.=104.156525, Alt.=217.920044m. Speed=11.124000m/h.</desc>
<speed>3.090000</speed>
</trkpt>
<trkpt lat="22.063461" lon="104.156555">
<ele>219.580200</ele>
<time>2011-04-26T10:11:25Z</time>
<desc>lat.=22.063461, lon.=104.156555, Alt.=219.580200m. Speed=10.044000m/h.</desc>
<speed>2.790000</speed>
</trkpt>
<trkpt lat="22.063591" lon="104.156563">
<ele>222.255981</ele>
<time>2011-04-26T10:11:30Z</time>
<desc>lat.=22.063591, lon.=104.156563, Alt.=222.255981m. Speed=10.368000m/h.</desc>
<speed>2.880000</speed>
</trkpt>
<trkpt lat="22.063711" lon="104.156563">
<ele>223.181763</ele>
<time>2011-04-26T10:11:35Z</time>
<desc>lat.=22.063711, lon.=104.156563, Alt.=223.181763m. Speed=8.424000m/h.</desc>
<speed>2.340000</speed>
</trkpt>
<trkpt lat="22.063807" lon="104.156540">
<ele>221.963013</ele>
<time>2011-04-26T10:11:40Z</time>
<desc>lat.=22.063807, lon.=104.156540, Alt.=221.963013m. Speed=5.904000m/h.</desc>
<speed>1.640000</speed>
</trkpt>
<trkpt lat="22.063967" lon="104.156563">
<ele>223.193481</ele>
<time>2011-04-26T10:11:45Z</time>
<desc>lat.=22.063967, lon.=104.156563, Alt.=223.193481m. Speed=7.524000m/h.</desc>
<speed>2.090000</speed>
</trkpt>
<trkpt lat="22.064068" lon="104.156578">
<ele>221.095825</ele>
<time>2011-04-26T10:11:50Z</time>
<desc>lat.=22.064068, lon.=104.156578, Alt.=221.095825m. Speed=5.760000m/h.</desc>
<speed>1.600000</speed>
</trkpt>
<trkpt lat="22.064123" lon="104.156578">
<ele>221.630981</ele>
<time>2011-04-26T10:11:55Z</time>
<desc>lat.=22.064123, lon.=104.156578, Alt.=221.630981m. Speed=4.248000m/h.</desc>
<speed>1.180000</speed>
</trkpt>
<trkpt lat="22.064154" lon="104.156578">
<ele>224.798950</ele>
<time>2011-04-26T10:12:00Z</time>
<desc>lat.=22.064154, lon.=104.156578, Alt.=224.798950m. Speed=0.972000m/h.</desc>
<speed>0.270000</speed>
</trkpt>
<trkpt lat="22.064156" lon="104.156578">
<ele>225.013794</ele>
<time>2011-04-26T10:12:05Z</time>
<desc>lat.=22.064156, lon.=104.156578, Alt.=225.013794m. Speed=0.072000m/h.</desc>
<speed>0.020000</speed>
</trkpt>
<trkpt lat="22.064156" lon="104.156586">
<ele>225.123169</ele>
<time>2011-04-26T10:12:10Z</time>
<desc>lat.=22.064156, lon.=104.156586, Alt.=225.123169m. Speed=2.916000m/h.</desc>
<speed>0.810000</speed>
</trkpt>
<trkpt lat="22.064135" lon="104.156601">
<ele>225.291138</ele>
<time>2011-04-26T10:12:15Z</time>
<desc>lat.=22.064135, lon.=104.156601, Alt.=225.291138m. Speed=1.152000m/h.</desc>
<speed>0.320000</speed>
</trkpt>
<trkpt lat="22.064177" lon="104.156609">
<ele>225.330200</ele>
<time>2011-04-26T10:12:20Z</time>
<desc>lat.=22.064177, lon.=104.156609, Alt.=225.330200m. Speed=9.972000m/h.</desc>
<speed>2.770000</speed>
</trkpt>
<trkpt lat="22.064407" lon="104.156708">
<ele>225.498169</ele>
<time>2011-04-26T10:12:25Z</time>
<desc>lat.=22.064407, lon.=104.156708, Alt.=225.498169m. Speed=19.152000m/h.</desc>
<speed>5.320000</speed>
</trkpt>
<trkpt lat="22.064642" lon="104.156937">
<ele>225.209106</ele>
<time>2011-04-26T10:12:30Z</time>
<desc>lat.=22.064642, lon.=104.156937, Alt.=225.209106m. Speed=23.364000m/h.</desc>
<speed>6.490000</speed>
</trkpt>
<trkpt lat="22.064829" lon="104.157135">
<ele>225.787231</ele>
<time>2011-04-26T10:12:35Z</time>
<desc>lat.=22.064829, lon.=104.157135, Alt.=225.787231m. Speed=17.568001m/h.</desc>
<speed>4.880000</speed>
</trkpt>
<trkpt lat="22.064976" lon="104.157310">
<ele>227.009888</ele>
<time>2011-04-26T10:12:40Z</time>
<desc>lat.=22.064976, lon.=104.157310, Alt.=227.009888m. Speed=16.524000m/h.</desc>
<speed>4.590000</speed>
</trkpt>
<trkpt lat="22.065138" lon="104.157463">
<ele>227.166138</ele>
<time>2011-04-26T10:12:45Z</time>
<desc>lat.=22.065138, lon.=104.157463, Alt.=227.166138m. Speed=16.236000m/h.</desc>
<speed>4.510000</speed>
</trkpt>
<trkpt lat="22.065298" lon="104.157616">
<ele>227.634888</ele>
<time>2011-04-26T10:12:50Z</time>
<desc>lat.=22.065298, lon.=104.157616, Alt.=227.634888m. Speed=17.316000m/h.</desc>
<speed>4.810000</speed>
</trkpt>
<trkpt lat="22.065529" lon="104.157883">
<ele>226.806763</ele>
<time>2011-04-26T10:12:55Z</time>
<desc>lat.=22.065529, lon.=104.157883, Alt.=226.806763m. Speed=25.992001m/h.</desc>
<speed>7.220000</speed>
</trkpt>
<trkpt lat="22.065783" lon="104.158096">
<ele>226.814575</ele>
<time>2011-04-26T10:13:00Z</time>
<desc>lat.=22.065783, lon.=104.158096, Alt.=226.814575m. Speed=23.832001m/h.</desc>
<speed>6.620000</speed>
</trkpt>
<trkpt lat="22.066025" lon="104.158257">
<ele>226.728638</ele>
<time>2011-04-26T10:13:05Z</time>
<desc>lat.=22.066025, lon.=104.158257, Alt.=226.728638m. Speed=20.736000m/h.</desc>
<speed>5.760000</speed>
</trkpt>
<trkpt lat="22.066254" lon="104.158371">
<ele>226.646606</ele>
<time>2011-04-26T10:13:10Z</time>
<desc>lat.=22.066254, lon.=104.158371, Alt.=226.646606m. Speed=16.884001m/h.</desc>
<speed>4.690000</speed>
</trkpt>
<trkpt lat="22.066460" lon="104.158524">
<ele>227.380981</ele>
<time>2011-04-26T10:13:15Z</time>
<desc>lat.=22.066460, lon.=104.158524, Alt.=227.380981m. Speed=15.228000m/h.</desc>
<speed>4.230000</speed>
</trkpt>
<trkpt lat="22.066618" lon="104.158638">
<ele>228.072388</ele>
<time>2011-04-26T10:13:20Z</time>
<desc>lat.=22.066618, lon.=104.158638, Alt.=228.072388m. Speed=12.708000m/h.</desc>
<speed>3.530000</speed>
</trkpt>
<trkpt lat="22.066748" lon="104.158730">
<ele>228.240356</ele>
<time>2011-04-26T10:13:25Z</time>
<desc>lat.=22.066748, lon.=104.158730, Alt.=228.240356m. Speed=15.048000m/h.</desc>
<speed>4.180000</speed>
</trkpt>
<trkpt lat="22.066927" lon="104.158867">
<ele>227.111450</ele>
<time>2011-04-26T10:13:30Z</time>
<desc>lat.=22.066927, lon.=104.158867, Alt.=227.111450m. Speed=15.588000m/h.</desc>
<speed>4.330000</speed>
</trkpt>
<trkpt lat="22.067085" lon="104.158936">
<ele>227.412231</ele>
<time>2011-04-26T10:13:35Z</time>
<desc>lat.=22.067085, lon.=104.158936, Alt.=227.412231m. Speed=9.828000m/h.</desc>
<speed>2.730000</speed>
</trkpt>
<trkpt lat="22.067278" lon="104.159035">
<ele>229.017700</ele>
<time>2011-04-26T10:13:40Z</time>
<desc>lat.=22.067278, lon.=104.159035, Alt.=229.017700m. Speed=16.128000m/h.</desc>
<speed>4.480000</speed>
</trkpt>
<trkpt lat="22.067539" lon="104.159218">
<ele>225.869263</ele>
<time>2011-04-26T10:13:45Z</time>
<desc>lat.=22.067539, lon.=104.159218, Alt.=225.869263m. Speed=23.760000m/h.</desc>
<speed>6.600000</speed>
</trkpt>
<trkpt lat="22.067890" lon="104.159523">
<ele>221.365356</ele>
<time>2011-04-26T10:13:50Z</time>
<desc>lat.=22.067890, lon.=104.159523, Alt.=221.365356m. Speed=31.535999m/h.</desc>
<speed>8.760000</speed>
</trkpt>
<trkpt lat="22.068207" lon="104.159805">
<ele>219.673950</ele>
<time>2011-04-26T10:13:55Z</time>
<desc>lat.=22.068207, lon.=104.159805, Alt.=219.673950m. Speed=29.808001m/h.</desc>
<speed>8.280000</speed>
</trkpt>
<trkpt lat="22.068497" lon="104.160103">
<ele>216.982544</ele>
<time>2011-04-26T10:14:00Z</time>
<desc>lat.=22.068497, lon.=104.160103, Alt.=216.982544m. Speed=29.700001m/h.</desc>
<speed>8.250000</speed>
</trkpt>
<trkpt lat="22.068758" lon="104.160378">
<ele>215.248169</ele>
<time>2011-04-26T10:14:05Z</time>
<desc>lat.=22.068758, lon.=104.160378, Alt.=215.248169m. Speed=25.955999m/h.</desc>
<speed>7.210000</speed>
</trkpt>
<trkpt lat="22.068996" lon="104.160530">
<ele>213.677856</ele>
<time>2011-04-26T10:14:10Z</time>
<desc>lat.=22.068996, lon.=104.160530, Alt.=213.677856m. Speed=16.704000m/h.</desc>
<speed>4.640000</speed>
</trkpt>
<trkpt lat="22.069239" lon="104.160683">
<ele>212.068481</ele>
<time>2011-04-26T10:14:15Z</time>
<desc>lat.=22.069239, lon.=104.160683, Alt.=212.068481m. Speed=16.056000m/h.</desc>
<speed>4.460000</speed>
</trkpt>
<trkpt lat="22.069469" lon="104.160759">
<ele>212.013794</ele>
<time>2011-04-26T10:14:20Z</time>
<desc>lat.=22.069469, lon.=104.160759, Alt.=212.013794m. Speed=14.508000m/h.</desc>
<speed>4.030000</speed>
</trkpt>
<trkpt lat="22.069668" lon="104.160835">
<ele>213.474731</ele>
<time>2011-04-26T10:14:25Z</time>
<desc>lat.=22.069668, lon.=104.160835, Alt.=213.474731m. Speed=14.112000m/h.</desc>
<speed>3.920000</speed>
</trkpt>
<trkpt lat="22.069843" lon="104.160896">
<ele>215.275513</ele>
<time>2011-04-26T10:14:30Z</time>
<desc>lat.=22.069843, lon.=104.160896, Alt.=215.275513m. Speed=11.376000m/h.</desc>
<speed>3.160000</speed>
</trkpt>
<trkpt lat="22.069967" lon="104.160934">
<ele>216.537231</ele>
<time>2011-04-26T10:14:35Z</time>
<desc>lat.=22.069967, lon.=104.160934, Alt.=216.537231m. Speed=7.452000m/h.</desc>
<speed>2.070000</speed>
</trkpt>
<trkpt lat="22.070053" lon="104.160973">
<ele>216.877075</ele>
<time>2011-04-26T10:14:40Z</time>
<desc>lat.=22.070053, lon.=104.160973, Alt.=216.877075m. Speed=7.596000m/h.</desc>
<speed>2.110000</speed>
</trkpt>
<trkpt lat="22.070158" lon="104.160980">
<ele>217.052856</ele>
<time>2011-04-26T10:14:45Z</time>
<desc>lat.=22.070158, lon.=104.160980, Alt.=217.052856m. Speed=10.044000m/h.</desc>
<speed>2.790000</speed>
</trkpt>
<trkpt lat="22.070322" lon="104.160988">
<ele>219.154419</ele>
<time>2011-04-26T10:14:50Z</time>
<desc>lat.=22.070322, lon.=104.160988, Alt.=219.154419m. Speed=11.412000m/h.</desc>
<speed>3.170000</speed>
</trkpt>
<trkpt lat="22.070459" lon="104.161003">
<ele>219.927856</ele>
<time>2011-04-26T10:14:55Z</time>
<desc>lat.=22.070459, lon.=104.161003, Alt.=219.927856m. Speed=9.432000m/h.</desc>
<speed>2.620000</speed>
</trkpt>
<trkpt lat="22.070627" lon="104.161018">
<ele>219.380981</ele>
<time>2011-04-26T10:15:00Z</time>
<desc>lat.=22.070627, lon.=104.161018, Alt.=219.380981m. Speed=11.448000m/h.</desc>
<speed>3.180000</speed>
</trkpt>
<trkpt lat="22.070814" lon="104.161034">
<ele>216.580200</ele>
<time>2011-04-26T10:15:05Z</time>
<desc>lat.=22.070814, lon.=104.161034, Alt.=216.580200m. Speed=14.148000m/h.</desc>
<speed>3.930000</speed>
</trkpt>
<trkpt lat="22.070965" lon="104.161018">
<ele>215.244263</ele>
<time>2011-04-26T10:15:10Z</time>
<desc>lat.=22.070965, lon.=104.161018, Alt.=215.244263m. Speed=10.080000m/h.</desc>
<speed>2.800000</speed>
</trkpt>
<trkpt lat="22.071157" lon="104.161003">
<ele>209.545044</ele>
<time>2011-04-26T10:15:15Z</time>
<desc>lat.=22.071157, lon.=104.161003, Alt.=209.545044m. Speed=12.420000m/h.</desc>
<speed>3.450000</speed>
</trkpt>
<trkpt lat="22.071350" lon="104.160995">
<ele>205.736450</ele>
<time>2011-04-26T10:15:20Z</time>
<desc>lat.=22.071350, lon.=104.160995, Alt.=205.736450m. Speed=13.968000m/h.</desc>
<speed>3.880000</speed>
</trkpt>
<trkpt lat="22.071560" lon="104.161003">
<ele>202.681763</ele>
<time>2011-04-26T10:15:25Z</time>
<desc>lat.=22.071560, lon.=104.161003, Alt.=202.681763m. Speed=16.416000m/h.</desc>
<speed>4.560000</speed>
</trkpt>
<trkpt lat="22.071835" lon="104.160957">
<ele>208.025513</ele>
<time>2011-04-26T10:15:30Z</time>
<desc>lat.=22.071835, lon.=104.160957, Alt.=208.025513m. Speed=21.132000m/h.</desc>
<speed>5.870000</speed>
</trkpt>
<trkpt lat="22.072124" lon="104.160942">
<ele>214.193481</ele>
<time>2011-04-26T10:15:35Z</time>
<desc>lat.=22.072124, lon.=104.160942, Alt.=214.193481m. Speed=20.160000m/h.</desc>
<speed>5.600000</speed>
</trkpt>
<trkpt lat="22.072386" lon="104.160957">
<ele>213.494263</ele>
<time>2011-04-26T10:15:40Z</time>
<desc>lat.=22.072386, lon.=104.160957, Alt.=213.494263m. Speed=20.664000m/h.</desc>
<speed>5.740000</speed>
</trkpt>
<trkpt lat="22.072636" lon="104.160995">
<ele>211.068481</ele>
<time>2011-04-26T10:15:45Z</time>
<desc>lat.=22.072636, lon.=104.160995, Alt.=211.068481m. Speed=19.872000m/h.</desc>
<speed>5.520000</speed>
</trkpt>
<trkpt lat="22.072908" lon="104.161011">
<ele>210.466919</ele>
<time>2011-04-26T10:15:50Z</time>
<desc>lat.=22.072908, lon.=104.161011, Alt.=210.466919m. Speed=18.000000m/h.</desc>
<speed>5.000000</speed>
</trkpt>
<trkpt lat="22.073141" lon="104.161011">
<ele>216.970825</ele>
<time>2011-04-26T10:15:55Z</time>
<desc>lat.=22.073141, lon.=104.161011, Alt.=216.970825m. Speed=16.128000m/h.</desc>
<speed>4.480000</speed>
</trkpt>
<trkpt lat="22.073357" lon="104.161034">
<ele>213.529419</ele>
<time>2011-04-26T10:16:00Z</time>
<desc>lat.=22.073357, lon.=104.161034, Alt.=213.529419m. Speed=16.884001m/h.</desc>
<speed>4.690000</speed>
</trkpt>
<trkpt lat="22.073582" lon="104.161041">
<ele>211.209106</ele>
<time>2011-04-26T10:16:05Z</time>
<desc>lat.=22.073582, lon.=104.161041, Alt.=211.209106m. Speed=15.552000m/h.</desc>
<speed>4.320000</speed>
</trkpt>
<trkpt lat="22.073776" lon="104.161041">
<ele>207.193481</ele>
<time>2011-04-26T10:16:10Z</time>
<desc>lat.=22.073776, lon.=104.161041, Alt.=207.193481m. Speed=13.932000m/h.</desc>
<speed>3.870000</speed>
</trkpt>
<trkpt lat="22.073957" lon="104.161018">
<ele>205.744263</ele>
<time>2011-04-26T10:16:15Z</time>
<desc>lat.=22.073957, lon.=104.161018, Alt.=205.744263m. Speed=11.412000m/h.</desc>
<speed>3.170000</speed>
</trkpt>
<trkpt lat="22.074137" lon="104.161095">
<ele>203.002075</ele>
<time>2011-04-26T10:16:20Z</time>
<desc>lat.=22.074137, lon.=104.161095, Alt.=203.002075m. Speed=14.436000m/h.</desc>
<speed>4.010000</speed>
</trkpt>
<trkpt lat="22.074312" lon="104.161255">
<ele>201.080200</ele>
<time>2011-04-26T10:16:25Z</time>
<desc>lat.=22.074312, lon.=104.161255, Alt.=201.080200m. Speed=16.379999m/h.</desc>
<speed>4.550000</speed>
</trkpt>
<trkpt lat="22.074467" lon="104.161438">
<ele>199.779419</ele>
<time>2011-04-26T10:16:30Z</time>
<desc>lat.=22.074467, lon.=104.161438, Alt.=199.779419m. Speed=17.280001m/h.</desc>
<speed>4.800000</speed>
</trkpt>
<trkpt lat="22.074612" lon="104.161667">
<ele>199.158325</ele>
<time>2011-04-26T10:16:35Z</time>
<desc>lat.=22.074612, lon.=104.161667, Alt.=199.158325m. Speed=22.680000m/h.</desc>
<speed>6.300000</speed>
</trkpt>
<trkpt lat="22.074795" lon="104.161964">
<ele>196.084106</ele>
<time>2011-04-26T10:16:40Z</time>
<desc>lat.=22.074795, lon.=104.161964, Alt.=196.084106m. Speed=25.416000m/h.</desc>
<speed>7.060000</speed>
</trkpt>
<trkpt lat="22.074976" lon="104.162193">
<ele>192.466919</ele>
<time>2011-04-26T10:16:45Z</time>
<desc>lat.=22.074976, lon.=104.162193, Alt.=192.466919m. Speed=18.072001m/h.</desc>
<speed>5.020000</speed>
</trkpt>
<trkpt lat="22.075119" lon="104.162437">
<ele>192.463013</ele>
<time>2011-04-26T10:16:50Z</time>
<desc>lat.=22.075119, lon.=104.162437, Alt.=192.463013m. Speed=18.216000m/h.</desc>
<speed>5.060000</speed>
</trkpt>
<trkpt lat="22.075249" lon="104.162651">
<ele>193.177856</ele>
<time>2011-04-26T10:16:55Z</time>
<desc>lat.=22.075249, lon.=104.162651, Alt.=193.177856m. Speed=15.120000m/h.</desc>
<speed>4.200000</speed>
</trkpt>
<trkpt lat="22.075357" lon="104.162827">
<ele>192.888794</ele>
<time>2011-04-26T10:17:00Z</time>
<desc>lat.=22.075357, lon.=104.162827, Alt.=192.888794m. Speed=13.824000m/h.</desc>
<speed>3.840000</speed>
</trkpt>
<trkpt lat="22.075464" lon="104.163002">
<ele>193.353638</ele>
<time>2011-04-26T10:17:05Z</time>
<desc>lat.=22.075464, lon.=104.163002, Alt.=193.353638m. Speed=15.264000m/h.</desc>
<speed>4.240000</speed>
</trkpt>
<trkpt lat="22.075605" lon="104.163193">
<ele>192.326294</ele>
<time>2011-04-26T10:17:10Z</time>
<desc>lat.=22.075605, lon.=104.163193, Alt.=192.326294m. Speed=16.740000m/h.</desc>
<speed>4.650000</speed>
</trkpt>
<trkpt lat="22.075724" lon="104.163368">
<ele>191.877075</ele>
<time>2011-04-26T10:17:15Z</time>
<desc>lat.=22.075724, lon.=104.163368, Alt.=191.877075m. Speed=16.812000m/h.</desc>
<speed>4.670000</speed>
</trkpt>
<trkpt lat="22.075832" lon="104.163582">
<ele>191.802856</ele>
<time>2011-04-26T10:17:20Z</time>
<desc>lat.=22.075832, lon.=104.163582, Alt.=191.802856m. Speed=15.480000m/h.</desc>
<speed>4.300000</speed>
</trkpt>
<trkpt lat="22.075907" lon="104.163788">
<ele>191.666138</ele>
<time>2011-04-26T10:17:25Z</time>
<desc>lat.=22.075907, lon.=104.163788, Alt.=191.666138m. Speed=14.508000m/h.</desc>
<speed>4.030000</speed>
</trkpt>
<trkpt lat="22.075968" lon="104.163979">
<ele>192.259888</ele>
<time>2011-04-26T10:17:30Z</time>
<desc>lat.=22.075968, lon.=104.163979, Alt.=192.259888m. Speed=16.884001m/h.</desc>
<speed>4.690000</speed>
</trkpt>
<trkpt lat="22.076080" lon="104.164192">
<ele>193.486450</ele>
<time>2011-04-26T10:17:35Z</time>
<desc>lat.=22.076080, lon.=104.164192, Alt.=193.486450m. Speed=20.087999m/h.</desc>
<speed>5.580000</speed>
</trkpt>
<trkpt lat="22.076181" lon="104.164505">
<ele>196.201294</ele>
<time>2011-04-26T10:17:40Z</time>
<desc>lat.=22.076181, lon.=104.164505, Alt.=196.201294m. Speed=21.132000m/h.</desc>
<speed>5.870000</speed>
</trkpt>
<trkpt lat="22.076265" lon="104.164772">
<ele>197.197388</ele>
<time>2011-04-26T10:17:45Z</time>
<desc>lat.=22.076265, lon.=104.164772, Alt.=197.197388m. Speed=19.403999m/h.</desc>
<speed>5.390000</speed>
</trkpt>
<trkpt lat="22.076326" lon="104.165031">
<ele>198.435669</ele>
<time>2011-04-26T10:17:50Z</time>
<desc>lat.=22.076326, lon.=104.165031, Alt.=198.435669m. Speed=21.132000m/h.</desc>
<speed>5.870000</speed>
</trkpt>
<trkpt lat="22.076357" lon="104.165321">
<ele>199.158325</ele>
<time>2011-04-26T10:17:55Z</time>
<desc>lat.=22.076357, lon.=104.165321, Alt.=199.158325m. Speed=21.959999m/h.</desc>
<speed>6.100000</speed>
</trkpt>
<trkpt lat="22.076384" lon="104.165627">
<ele>200.115356</ele>
<time>2011-04-26T10:18:00Z</time>
<desc>lat.=22.076384, lon.=104.165627, Alt.=200.115356m. Speed=21.996000m/h.</desc>
<speed>6.110000</speed>
</trkpt>
<trkpt lat="22.076454" lon="104.165932">
<ele>200.474731</ele>
<time>2011-04-26T10:18:05Z</time>
<desc>lat.=22.076454, lon.=104.165932, Alt.=200.474731m. Speed=22.752001m/h.</desc>
<speed>6.320000</speed>
</trkpt>
<trkpt lat="22.076555" lon="104.166229">
<ele>200.888794</ele>
<time>2011-04-26T10:18:10Z</time>
<desc>lat.=22.076555, lon.=104.166229, Alt.=200.888794m. Speed=24.191999m/h.</desc>
<speed>6.720000</speed>
</trkpt>
<trkpt lat="22.076687" lon="104.166534">
<ele>200.502075</ele>
<time>2011-04-26T10:18:15Z</time>
<desc>lat.=22.076687, lon.=104.166534, Alt.=200.502075m. Speed=24.156000m/h.</desc>
<speed>6.710000</speed>
</trkpt>
<trkpt lat="22.076824" lon="104.166824">
<ele>200.271606</ele>
<time>2011-04-26T10:18:20Z</time>
<desc>lat.=22.076824, lon.=104.166824, Alt.=200.271606m. Speed=22.247999m/h.</desc>
<speed>6.180000</speed>
</trkpt>
<trkpt lat="22.076942" lon="104.167091">
<ele>199.740356</ele>
<time>2011-04-26T10:18:25Z</time>
<desc>lat.=22.076942, lon.=104.167091, Alt.=199.740356m. Speed=20.520000m/h.</desc>
<speed>5.700000</speed>
</trkpt>
<trkpt lat="22.077065" lon="104.167351">
<ele>199.177856</ele>
<time>2011-04-26T10:18:30Z</time>
<desc>lat.=22.077065, lon.=104.167351, Alt.=199.177856m. Speed=21.204000m/h.</desc>
<speed>5.890000</speed>
</trkpt>
<trkpt lat="22.077164" lon="104.167580">
<ele>200.685669</ele>
<time>2011-04-26T10:18:35Z</time>
<desc>lat.=22.077164, lon.=104.167580, Alt.=200.685669m. Speed=14.544000m/h.</desc>
<speed>4.040000</speed>
</trkpt>
<trkpt lat="22.077234" lon="104.167770">
<ele>202.556763</ele>
<time>2011-04-26T10:18:40Z</time>
<desc>lat.=22.077234, lon.=104.167770, Alt.=202.556763m. Speed=12.276000m/h.</desc>
<speed>3.410000</speed>
</trkpt>
<trkpt lat="22.077309" lon="104.167938">
<ele>203.513794</ele>
<time>2011-04-26T10:18:45Z</time>
<desc>lat.=22.077309, lon.=104.167938, Alt.=203.513794m. Speed=13.788000m/h.</desc>
<speed>3.830000</speed>
</trkpt>
<trkpt lat="22.077414" lon="104.168152">
<ele>203.861450</ele>
<time>2011-04-26T10:18:50Z</time>
<desc>lat.=22.077414, lon.=104.168152, Alt.=203.861450m. Speed=15.984000m/h.</desc>
<speed>4.440000</speed>
</trkpt>
<trkpt lat="22.077524" lon="104.168335">
<ele>204.564575</ele>
<time>2011-04-26T10:18:55Z</time>
<desc>lat.=22.077524, lon.=104.168335, Alt.=204.564575m. Speed=15.444000m/h.</desc>
<speed>4.290000</speed>
</trkpt>
<trkpt lat="22.077637" lon="104.168526">
<ele>204.037231</ele>
<time>2011-04-26T10:19:00Z</time>
<desc>lat.=22.077637, lon.=104.168526, Alt.=204.037231m. Speed=16.271999m/h.</desc>
<speed>4.520000</speed>
</trkpt>
<trkpt lat="22.077776" lon="104.168762">
<ele>203.677856</ele>
<time>2011-04-26T10:19:05Z</time>
<desc>lat.=22.077776, lon.=104.168762, Alt.=203.677856m. Speed=23.615999m/h.</desc>
<speed>6.560000</speed>
</trkpt>
<trkpt lat="22.077953" lon="104.169060">
<ele>203.459106</ele>
<time>2011-04-26T10:19:10Z</time>
<desc>lat.=22.077953, lon.=104.169060, Alt.=203.459106m. Speed=26.496000m/h.</desc>
<speed>7.360000</speed>
</trkpt>
<trkpt lat="22.078112" lon="104.169434">
<ele>206.377075</ele>
<time>2011-04-26T10:19:15Z</time>
<desc>lat.=22.078112, lon.=104.169434, Alt.=206.377075m. Speed=28.656000m/h.</desc>
<speed>7.960000</speed>
</trkpt>
<trkpt lat="22.078260" lon="104.169754">
<ele>208.873169</ele>
<time>2011-04-26T10:19:20Z</time>
<desc>lat.=22.078260, lon.=104.169754, Alt.=208.873169m. Speed=24.624001m/h.</desc>
<speed>6.840000</speed>
</trkpt>
<trkpt lat="22.078362" lon="104.169998">
<ele>211.435669</ele>
<time>2011-04-26T10:19:25Z</time>
<desc>lat.=22.078362, lon.=104.169998, Alt.=211.435669m. Speed=18.035999m/h.</desc>
<speed>5.010000</speed>
</trkpt>
<trkpt lat="22.078442" lon="104.170235">
<ele>214.310669</ele>
<time>2011-04-26T10:19:30Z</time>
<desc>lat.=22.078442, lon.=104.170235, Alt.=214.310669m. Speed=15.552000m/h.</desc>
<speed>4.320000</speed>
</trkpt>
<trkpt lat="22.078541" lon="104.170456">
<ele>212.947388</ele>
<time>2011-04-26T10:19:35Z</time>
<desc>lat.=22.078541, lon.=104.170456, Alt.=212.947388m. Speed=18.900000m/h.</desc>
<speed>5.250000</speed>
</trkpt>
<trkpt lat="22.078636" lon="104.170723">
<ele>211.673950</ele>
<time>2011-04-26T10:19:40Z</time>
<desc>lat.=22.078636, lon.=104.170723, Alt.=211.673950m. Speed=20.556000m/h.</desc>
<speed>5.710000</speed>
</trkpt>
<trkpt lat="22.078730" lon="104.170975">
<ele>211.201294</ele>
<time>2011-04-26T10:19:45Z</time>
<desc>lat.=22.078730, lon.=104.170975, Alt.=211.201294m. Speed=19.224001m/h.</desc>
<speed>5.340000</speed>
</trkpt>
<trkpt lat="22.078817" lon="104.171204">
<ele>210.892700</ele>
<time>2011-04-26T10:19:50Z</time>
<desc>lat.=22.078817, lon.=104.171204, Alt.=210.892700m. Speed=17.676001m/h.</desc>
<speed>4.910000</speed>
</trkpt>
<trkpt lat="22.078918" lon="104.171463">
<ele>211.275513</ele>
<time>2011-04-26T10:19:55Z</time>
<desc>lat.=22.078918, lon.=104.171463, Alt.=211.275513m. Speed=19.691999m/h.</desc>
<speed>5.470000</speed>
</trkpt>
<trkpt lat="22.078997" lon="104.171707">
<ele>211.963013</ele>
<time>2011-04-26T10:20:00Z</time>
<desc>lat.=22.078997, lon.=104.171707, Alt.=211.963013m. Speed=18.612000m/h.</desc>
<speed>5.170000</speed>
</trkpt>
<trkpt lat="22.079063" lon="104.171967">
<ele>210.857544</ele>
<time>2011-04-26T10:20:05Z</time>
<desc>lat.=22.079063, lon.=104.171967, Alt.=210.857544m. Speed=18.143999m/h.</desc>
<speed>5.040000</speed>
</trkpt>
<trkpt lat="22.079170" lon="104.172241">
<ele>210.795044</ele>
<time>2011-04-26T10:20:10Z</time>
<desc>lat.=22.079170, lon.=104.172241, Alt.=210.795044m. Speed=20.304001m/h.</desc>
<speed>5.640000</speed>
</trkpt>
<trkpt lat="22.079298" lon="104.172447">
<ele>211.509888</ele>
<time>2011-04-26T10:20:15Z</time>
<desc>lat.=22.079298, lon.=104.172447, Alt.=211.509888m. Speed=15.624000m/h.</desc>
<speed>4.340000</speed>
</trkpt>
<trkpt lat="22.079449" lon="104.172607">
<ele>212.439575</ele>
<time>2011-04-26T10:20:20Z</time>
<desc>lat.=22.079449, lon.=104.172607, Alt.=212.439575m. Speed=16.091999m/h.</desc>
<speed>4.470000</speed>
</trkpt>
<trkpt lat="22.079601" lon="104.172806">
<ele>212.502075</ele>
<time>2011-04-26T10:20:25Z</time>
<desc>lat.=22.079601, lon.=104.172806, Alt.=212.502075m. Speed=16.632000m/h.</desc>
<speed>4.620000</speed>
</trkpt>
<trkpt lat="22.079735" lon="104.173172">
<ele>209.904419</ele>
<time>2011-04-26T10:20:30Z</time>
<desc>lat.=22.079735, lon.=104.173172, Alt.=209.904419m. Speed=23.436001m/h.</desc>
<speed>6.510000</speed>
</trkpt>
<trkpt lat="22.079844" lon="104.173531">
<ele>208.084106</ele>
<time>2011-04-26T10:20:35Z</time>
<desc>lat.=22.079844, lon.=104.173531, Alt.=208.084106m. Speed=26.856001m/h.</desc>
<speed>7.460000</speed>
</trkpt>
<trkpt lat="22.079996" lon="104.173874">
<ele>209.705200</ele>
<time>2011-04-26T10:20:40Z</time>
<desc>lat.=22.079996, lon.=104.173874, Alt.=209.705200m. Speed=21.959999m/h.</desc>
<speed>6.100000</speed>
</trkpt>
<trkpt lat="22.080143" lon="104.174026">
<ele>211.423950</ele>
<time>2011-04-26T10:20:45Z</time>
<desc>lat.=22.080143, lon.=104.174026, Alt.=211.423950m. Speed=11.556000m/h.</desc>
<speed>3.210000</speed>
</trkpt>
<trkpt lat="22.080231" lon="104.174133">
<ele>212.900513</ele>
<time>2011-04-26T10:20:50Z</time>
<desc>lat.=22.080231, lon.=104.174133, Alt.=212.900513m. Speed=5.868000m/h.</desc>
<speed>1.630000</speed>
</trkpt>
<trkpt lat="22.080336" lon="104.174255">
<ele>214.611450</ele>
<time>2011-04-26T10:20:55Z</time>
<desc>lat.=22.080336, lon.=104.174255, Alt.=214.611450m. Speed=7.524000m/h.</desc>
<speed>2.090000</speed>
</trkpt>
<trkpt lat="22.080397" lon="104.174355">
<ele>215.732544</ele>
<time>2011-04-26T10:21:00Z</time>
<desc>lat.=22.080397, lon.=104.174355, Alt.=215.732544m. Speed=9.612000m/h.</desc>
<speed>2.670000</speed>
</trkpt>
<trkpt lat="22.080446" lon="104.174461">
<ele>215.767700</ele>
<time>2011-04-26T10:21:05Z</time>
<desc>lat.=22.080446, lon.=104.174461, Alt.=215.767700m. Speed=7.416000m/h.</desc>
<speed>2.060000</speed>
</trkpt>
<trkpt lat="22.080538" lon="104.174568">
<ele>216.693481</ele>
<time>2011-04-26T10:21:10Z</time>
<desc>lat.=22.080538, lon.=104.174568, Alt.=216.693481m. Speed=8.172000m/h.</desc>
<speed>2.270000</speed>
</trkpt>
<trkpt lat="22.080585" lon="104.174667">
<ele>218.552856</ele>
<time>2011-04-26T10:21:15Z</time>
<desc>lat.=22.080585, lon.=104.174667, Alt.=218.552856m. Speed=6.912000m/h.</desc>
<speed>1.920000</speed>
</trkpt>
<trkpt lat="22.080622" lon="104.174767">
<ele>219.826294</ele>
<time>2011-04-26T10:21:20Z</time>
<desc>lat.=22.080622, lon.=104.174767, Alt.=219.826294m. Speed=7.128000m/h.</desc>
<speed>1.980000</speed>
</trkpt>
<trkpt lat="22.080658" lon="104.174866">
<ele>221.271606</ele>
<time>2011-04-26T10:21:25Z</time>
<desc>lat.=22.080658, lon.=104.174866, Alt.=221.271606m. Speed=7.092000m/h.</desc>
<speed>1.970000</speed>
</trkpt>
<trkpt lat="22.080750" lon="104.174950">
<ele>223.056763</ele>
<time>2011-04-26T10:21:30Z</time>
<desc>lat.=22.080750, lon.=104.174950, Alt.=223.056763m. Speed=6.228000m/h.</desc>
<speed>1.730000</speed>
</trkpt>
<trkpt lat="22.080860" lon="104.175049">
<ele>225.662231</ele>
<time>2011-04-26T10:21:35Z</time>
<desc>lat.=22.080860, lon.=104.175049, Alt.=225.662231m. Speed=6.012000m/h.</desc>
<speed>1.670000</speed>
</trkpt>
<trkpt lat="22.080925" lon="104.175148">
<ele>228.033325</ele>
<time>2011-04-26T10:21:40Z</time>
<desc>lat.=22.080925, lon.=104.175148, Alt.=228.033325m. Speed=6.228000m/h.</desc>
<speed>1.730000</speed>
</trkpt>
<trkpt lat="22.080975" lon="104.175247">
<ele>230.373169</ele>
<time>2011-04-26T10:21:45Z</time>
<desc>lat.=22.080975, lon.=104.175247, Alt.=230.373169m. Speed=9.000000m/h.</desc>
<speed>2.500000</speed>
</trkpt>
<trkpt lat="22.081034" lon="104.175354">
<ele>232.935669</ele>
<time>2011-04-26T10:21:50Z</time>
<desc>lat.=22.081034, lon.=104.175354, Alt.=232.935669m. Speed=7.992000m/h.</desc>
<speed>2.220000</speed>
</trkpt>
<trkpt lat="22.081108" lon="104.175468">
<ele>235.037231</ele>
<time>2011-04-26T10:21:55Z</time>
<desc>lat.=22.081108, lon.=104.175468, Alt.=235.037231m. Speed=9.900000m/h.</desc>
<speed>2.750000</speed>
</trkpt>
<trkpt lat="22.081190" lon="104.175674">
<ele>232.470825</ele>
<time>2011-04-26T10:22:00Z</time>
<desc>lat.=22.081190, lon.=104.175674, Alt.=232.470825m. Speed=13.824000m/h.</desc>
<speed>3.840000</speed>
</trkpt>
<trkpt lat="22.081253" lon="104.175941">
<ele>231.338013</ele>
<time>2011-04-26T10:22:05Z</time>
<desc>lat.=22.081253, lon.=104.175941, Alt.=231.338013m. Speed=20.124001m/h.</desc>
<speed>5.590000</speed>
</trkpt>
<trkpt lat="22.081289" lon="104.176285">
<ele>226.771606</ele>
<time>2011-04-26T10:22:10Z</time>
<desc>lat.=22.081289, lon.=104.176285, Alt.=226.771606m. Speed=28.188000m/h.</desc>
<speed>7.830000</speed>
</trkpt>
<trkpt lat="22.081333" lon="104.176720">
<ele>225.931763</ele>
<time>2011-04-26T10:22:15Z</time>
<desc>lat.=22.081333, lon.=104.176720, Alt.=225.931763m. Speed=33.299999m/h.</desc>
<speed>9.250000</speed>
</trkpt>
<trkpt lat="22.081470" lon="104.177177">
<ele>221.056763</ele>
<time>2011-04-26T10:22:20Z</time>
<desc>lat.=22.081470, lon.=104.177177, Alt.=221.056763m. Speed=35.208000m/h.</desc>
<speed>9.780000</speed>
</trkpt>
<trkpt lat="22.081619" lon="104.177650">
<ele>217.005981</ele>
<time>2011-04-26T10:22:25Z</time>
<desc>lat.=22.081619, lon.=104.177650, Alt.=217.005981m. Speed=37.259998m/h.</desc>
<speed>10.350000</speed>
</trkpt>
<trkpt lat="22.081694" lon="104.178223">
<ele>213.369263</ele>
<time>2011-04-26T10:22:30Z</time>
<desc>lat.=22.081694, lon.=104.178223, Alt.=213.369263m. Speed=45.504002m/h.</desc>
<speed>12.640000</speed>
</trkpt>
<trkpt lat="22.081858" lon="104.178719">
<ele>213.115356</ele>
<time>2011-04-26T10:22:35Z</time>
<desc>lat.=22.081858, lon.=104.178719, Alt.=213.115356m. Speed=30.455999m/h.</desc>
<speed>8.460000</speed>
</trkpt>
<trkpt lat="22.082052" lon="104.178909">
<ele>212.568481</ele>
<time>2011-04-26T10:22:40Z</time>
<desc>lat.=22.082052, lon.=104.178909, Alt.=212.568481m. Speed=18.504000m/h.</desc>
<speed>5.140000</speed>
</trkpt>
<trkpt lat="22.082264" lon="104.179054">
<ele>212.580200</ele>
<time>2011-04-26T10:22:45Z</time>
<desc>lat.=22.082264, lon.=104.179054, Alt.=212.580200m. Speed=15.912000m/h.</desc>
<speed>4.420000</speed>
</trkpt>
<trkpt lat="22.082449" lon="104.179253">
<ele>211.986450</ele>
<time>2011-04-26T10:22:50Z</time>
<desc>lat.=22.082449, lon.=104.179253, Alt.=211.986450m. Speed=18.288000m/h.</desc>
<speed>5.080000</speed>
</trkpt>
<trkpt lat="22.082590" lon="104.179520">
<ele>211.283325</ele>
<time>2011-04-26T10:22:55Z</time>
<desc>lat.=22.082590, lon.=104.179520, Alt.=211.283325m. Speed=20.952000m/h.</desc>
<speed>5.820000</speed>
</trkpt>
<trkpt lat="22.082766" lon="104.179794">
<ele>211.291138</ele>
<time>2011-04-26T10:23:00Z</time>
<desc>lat.=22.082766, lon.=104.179794, Alt.=211.291138m. Speed=17.820000m/h.</desc>
<speed>4.950000</speed>
</trkpt>
<trkpt lat="22.082903" lon="104.179977">
<ele>210.806763</ele>
<time>2011-04-26T10:23:05Z</time>
<desc>lat.=22.082903, lon.=104.179977, Alt.=210.806763m. Speed=12.312000m/h.</desc>
<speed>3.420000</speed>
</trkpt>
<trkpt lat="22.082989" lon="104.180122">
<ele>210.064575</ele>
<time>2011-04-26T10:23:10Z</time>
<desc>lat.=22.082989, lon.=104.180122, Alt.=210.064575m. Speed=10.764000m/h.</desc>
<speed>2.990000</speed>
</trkpt>
<trkpt lat="22.083040" lon="104.180328">
<ele>207.505981</ele>
<time>2011-04-26T10:23:15Z</time>
<desc>lat.=22.083040, lon.=104.180328, Alt.=207.505981m. Speed=11.952000m/h.</desc>
<speed>3.320000</speed>
</trkpt>
<trkpt lat="22.083134" lon="104.180504">
<ele>206.099731</ele>
<time>2011-04-26T10:23:20Z</time>
<desc>lat.=22.083134, lon.=104.180504, Alt.=206.099731m. Speed=10.908000m/h.</desc>
<speed>3.030000</speed>
</trkpt>
<trkpt lat="22.083210" lon="104.180649">
<ele>207.037231</ele>
<time>2011-04-26T10:23:25Z</time>
<desc>lat.=22.083210, lon.=104.180649, Alt.=207.037231m. Speed=10.512000m/h.</desc>
<speed>2.920000</speed>
</trkpt>
<trkpt lat="22.083269" lon="104.180801">
<ele>206.584106</ele>
<time>2011-04-26T10:23:30Z</time>
<desc>lat.=22.083269, lon.=104.180801, Alt.=206.584106m. Speed=11.340000m/h.</desc>
<speed>3.150000</speed>
</trkpt>
<trkpt lat="22.083345" lon="104.180962">
<ele>207.818481</ele>
<time>2011-04-26T10:23:35Z</time>
<desc>lat.=22.083345, lon.=104.180962, Alt.=207.818481m. Speed=10.800000m/h.</desc>
<speed>3.000000</speed>
</trkpt>
<trkpt lat="22.083405" lon="104.181114">
<ele>207.744263</ele>
<time>2011-04-26T10:23:40Z</time>
<desc>lat.=22.083405, lon.=104.181114, Alt.=207.744263m. Speed=10.368000m/h.</desc>
<speed>2.880000</speed>
</trkpt>
<trkpt lat="22.083488" lon="104.181290">
<ele>209.795044</ele>
<time>2011-04-26T10:23:45Z</time>
<desc>lat.=22.083488, lon.=104.181290, Alt.=209.795044m. Speed=11.880000m/h.</desc>
<speed>3.300000</speed>
</trkpt>
<trkpt lat="22.083559" lon="104.181412">
<ele>210.068481</ele>
<time>2011-04-26T10:23:50Z</time>
<desc>lat.=22.083559, lon.=104.181412, Alt.=210.068481m. Speed=10.656000m/h.</desc>
<speed>2.960000</speed>
</trkpt>
<trkpt lat="22.083628" lon="104.181564">
<ele>211.119263</ele>
<time>2011-04-26T10:23:55Z</time>
<desc>lat.=22.083628, lon.=104.181564, Alt.=211.119263m. Speed=12.456000m/h.</desc>
<speed>3.460000</speed>
</trkpt>
<trkpt lat="22.083708" lon="104.181770">
<ele>210.025513</ele>
<time>2011-04-26T10:24:00Z</time>
<desc>lat.=22.083708, lon.=104.181770, Alt.=210.025513m. Speed=13.248000m/h.</desc>
<speed>3.680000</speed>
</trkpt>
<trkpt lat="22.083841" lon="104.181984">
<ele>209.642700</ele>
<time>2011-04-26T10:24:05Z</time>
<desc>lat.=22.083841, lon.=104.181984, Alt.=209.642700m. Speed=15.840000m/h.</desc>
<speed>4.400000</speed>
</trkpt>
<trkpt lat="22.083954" lon="104.182190">
<ele>209.017700</ele>
<time>2011-04-26T10:24:10Z</time>
<desc>lat.=22.083954, lon.=104.182190, Alt.=209.017700m. Speed=18.756001m/h.</desc>
<speed>5.210000</speed>
</trkpt>
<trkpt lat="22.084023" lon="104.182487">
<ele>206.361450</ele>
<time>2011-04-26T10:24:15Z</time>
<desc>lat.=22.084023, lon.=104.182487, Alt.=206.361450m. Speed=22.427999m/h.</desc>
<speed>6.230000</speed>
</trkpt>
<trkpt lat="22.083998" lon="104.182838">
<ele>207.326294</ele>
<time>2011-04-26T10:24:20Z</time>
<desc>lat.=22.083998, lon.=104.182838, Alt.=207.326294m. Speed=26.604000m/h.</desc>
<speed>7.390000</speed>
</trkpt>
<trkpt lat="22.083763" lon="104.183151">
<ele>205.216919</ele>
<time>2011-04-26T10:24:25Z</time>
<desc>lat.=22.083763, lon.=104.183151, Alt.=205.216919m. Speed=30.059999m/h.</desc>
<speed>8.350000</speed>
</trkpt>
<trkpt lat="22.083540" lon="104.183571">
<ele>204.240356</ele>
<time>2011-04-26T10:24:30Z</time>
<desc>lat.=22.083540, lon.=104.183571, Alt.=204.240356m. Speed=31.356001m/h.</desc>
<speed>8.710000</speed>
</trkpt>
<trkpt lat="22.083504" lon="104.184212">
<ele>207.213013</ele>
<time>2011-04-26T10:24:35Z</time>
<desc>lat.=22.083504, lon.=104.184212, Alt.=207.213013m. Speed=37.584000m/h.</desc>
<speed>10.440000</speed>
</trkpt>
<trkpt lat="22.083536" lon="104.184593">
<ele>209.755981</ele>
<time>2011-04-26T10:24:40Z</time>
<desc>lat.=22.083536, lon.=104.184593, Alt.=209.755981m. Speed=17.892000m/h.</desc>
<speed>4.970000</speed>
</trkpt>
<trkpt lat="22.083603" lon="104.184868">
<ele>213.181763</ele>
<time>2011-04-26T10:24:45Z</time>
<desc>lat.=22.083603, lon.=104.184868, Alt.=213.181763m. Speed=20.664000m/h.</desc>
<speed>5.740000</speed>
</trkpt>
<trkpt lat="22.083673" lon="104.185165">
<ele>212.541138</ele>
<time>2011-04-26T10:24:50Z</time>
<desc>lat.=22.083673, lon.=104.185165, Alt.=212.541138m. Speed=18.252001m/h.</desc>
<speed>5.070000</speed>
</trkpt>
<trkpt lat="22.083740" lon="104.185455">
<ele>212.806763</ele>
<time>2011-04-26T10:24:55Z</time>
<desc>lat.=22.083740, lon.=104.185455, Alt.=212.806763m. Speed=21.888000m/h.</desc>
<speed>6.080000</speed>
</trkpt>
<trkpt lat="22.083803" lon="104.185768">
<ele>212.752075</ele>
<time>2011-04-26T10:25:00Z</time>
<desc>lat.=22.083803, lon.=104.185768, Alt.=212.752075m. Speed=22.823999m/h.</desc>
<speed>6.340000</speed>
</trkpt>
<trkpt lat="22.083874" lon="104.186089">
<ele>211.795044</ele>
<time>2011-04-26T10:25:05Z</time>
<desc>lat.=22.083874, lon.=104.186089, Alt.=211.795044m. Speed=22.139999m/h.</desc>
<speed>6.150000</speed>
</trkpt>
<trkpt lat="22.083937" lon="104.186409">
<ele>212.048950</ele>
<time>2011-04-26T10:25:10Z</time>
<desc>lat.=22.083937, lon.=104.186409, Alt.=212.048950m. Speed=20.124001m/h.</desc>
<speed>5.590000</speed>
</trkpt>
<trkpt lat="22.084013" lon="104.186661">
<ele>213.470825</ele>
<time>2011-04-26T10:25:15Z</time>
<desc>lat.=22.084013, lon.=104.186661, Alt.=213.470825m. Speed=18.864000m/h.</desc>
<speed>5.240000</speed>
</trkpt>
<trkpt lat="22.084078" lon="104.186981">
<ele>214.607544</ele>
<time>2011-04-26T10:25:20Z</time>
<desc>lat.=22.084078, lon.=104.186981, Alt.=214.607544m. Speed=21.996000m/h.</desc>
<speed>6.110000</speed>
</trkpt>
<trkpt lat="22.084162" lon="104.187248">
<ele>215.767700</ele>
<time>2011-04-26T10:25:25Z</time>
<desc>lat.=22.084162, lon.=104.187248, Alt.=215.767700m. Speed=18.252001m/h.</desc>
<speed>5.070000</speed>
</trkpt>
<trkpt lat="22.084232" lon="104.187492">
<ele>216.861450</ele>
<time>2011-04-26T10:25:30Z</time>
<desc>lat.=22.084232, lon.=104.187492, Alt.=216.861450m. Speed=14.688000m/h.</desc>
<speed>4.080000</speed>
</trkpt>
<trkpt lat="22.084339" lon="104.187729">
<ele>218.005981</ele>
<time>2011-04-26T10:25:35Z</time>
<desc>lat.=22.084339, lon.=104.187729, Alt.=218.005981m. Speed=18.612000m/h.</desc>
<speed>5.170000</speed>
</trkpt>
<trkpt lat="22.084492" lon="104.187981">
<ele>218.330200</ele>
<time>2011-04-26T10:25:40Z</time>
<desc>lat.=22.084492, lon.=104.187981, Alt.=218.330200m. Speed=18.035999m/h.</desc>
<speed>5.010000</speed>
</trkpt>
<trkpt lat="22.084614" lon="104.188232">
<ele>219.681763</ele>
<time>2011-04-26T10:25:45Z</time>
<desc>lat.=22.084614, lon.=104.188232, Alt.=219.681763m. Speed=18.792000m/h.</desc>
<speed>5.220000</speed>
</trkpt>
<trkpt lat="22.084732" lon="104.188499">
<ele>220.888794</ele>
<time>2011-04-26T10:25:50Z</time>
<desc>lat.=22.084732, lon.=104.188499, Alt.=220.888794m. Speed=19.728001m/h.</desc>
<speed>5.480000</speed>
</trkpt>
<trkpt lat="22.084852" lon="104.188789">
<ele>220.048950</ele>
<time>2011-04-26T10:25:55Z</time>
<desc>lat.=22.084852, lon.=104.188789, Alt.=220.048950m. Speed=20.844000m/h.</desc>
<speed>5.790000</speed>
</trkpt>
<trkpt lat="22.084993" lon="104.189018">
<ele>220.095825</ele>
<time>2011-04-26T10:26:00Z</time>
<desc>lat.=22.084993, lon.=104.189018, Alt.=220.095825m. Speed=18.972000m/h.</desc>
<speed>5.270000</speed>
</trkpt>
<trkpt lat="22.085127" lon="104.189201">
<ele>221.123169</ele>
<time>2011-04-26T10:26:05Z</time>
<desc>lat.=22.085127, lon.=104.189201, Alt.=221.123169m. Speed=15.912000m/h.</desc>
<speed>4.420000</speed>
</trkpt>
<trkpt lat="22.085283" lon="104.189491">
<ele>218.584106</ele>
<time>2011-04-26T10:26:10Z</time>
<desc>lat.=22.085283, lon.=104.189491, Alt.=218.584106m. Speed=19.548000m/h.</desc>
<speed>5.430000</speed>
</trkpt>
<trkpt lat="22.085403" lon="104.189751">
<ele>217.908325</ele>
<time>2011-04-26T10:26:15Z</time>
<desc>lat.=22.085403, lon.=104.189751, Alt.=217.908325m. Speed=21.059999m/h.</desc>
<speed>5.850000</speed>
</trkpt>
<trkpt lat="22.085512" lon="104.190018">
<ele>217.302856</ele>
<time>2011-04-26T10:26:20Z</time>
<desc>lat.=22.085512, lon.=104.190018, Alt.=217.302856m. Speed=21.996000m/h.</desc>
<speed>6.110000</speed>
</trkpt>
<trkpt lat="22.085625" lon="104.190285">
<ele>216.865356</ele>
<time>2011-04-26T10:26:25Z</time>
<desc>lat.=22.085625, lon.=104.190285, Alt.=216.865356m. Speed=22.392000m/h.</desc>
<speed>6.220000</speed>
</trkpt>
<trkpt lat="22.085712" lon="104.190582">
<ele>216.365356</ele>
<time>2011-04-26T10:26:30Z</time>
<desc>lat.=22.085712, lon.=104.190582, Alt.=216.365356m. Speed=20.879999m/h.</desc>
<speed>5.800000</speed>
</trkpt>
<trkpt lat="22.085770" lon="104.190842">
<ele>215.365356</ele>
<time>2011-04-26T10:26:35Z</time>
<desc>lat.=22.085770, lon.=104.190842, Alt.=215.365356m. Speed=19.188000m/h.</desc>
<speed>5.330000</speed>
</trkpt>
<trkpt lat="22.085844" lon="104.191139">
<ele>215.037231</ele>
<time>2011-04-26T10:26:40Z</time>
<desc>lat.=22.085844, lon.=104.191139, Alt.=215.037231m. Speed=24.011999m/h.</desc>
<speed>6.670000</speed>
</trkpt>
<trkpt lat="22.085962" lon="104.191483">
<ele>214.400513</ele>
<time>2011-04-26T10:26:45Z</time>
<desc>lat.=22.085962, lon.=104.191483, Alt.=214.400513m. Speed=24.516001m/h.</desc>
<speed>6.810000</speed>
</trkpt>
<trkpt lat="22.086084" lon="104.191757">
<ele>213.916138</ele>
<time>2011-04-26T10:26:50Z</time>
<desc>lat.=22.086084, lon.=104.191757, Alt.=213.916138m. Speed=22.716000m/h.</desc>
<speed>6.310000</speed>
</trkpt>
<trkpt lat="22.086187" lon="104.192055">
<ele>213.505981</ele>
<time>2011-04-26T10:26:55Z</time>
<desc>lat.=22.086187, lon.=104.192055, Alt.=213.505981m. Speed=21.492001m/h.</desc>
<speed>5.970000</speed>
</trkpt>
<trkpt lat="22.086304" lon="104.192352">
<ele>213.072388</ele>
<time>2011-04-26T10:27:00Z</time>
<desc>lat.=22.086304, lon.=104.192352, Alt.=213.072388m. Speed=22.427999m/h.</desc>
<speed>6.230000</speed>
</trkpt>
<trkpt lat="22.086416" lon="104.192642">
<ele>212.814575</ele>
<time>2011-04-26T10:27:05Z</time>
<desc>lat.=22.086416, lon.=104.192642, Alt.=212.814575m. Speed=20.483999m/h.</desc>
<speed>5.690000</speed>
</trkpt>
<trkpt lat="22.086588" lon="104.192863">
<ele>212.666138</ele>
<time>2011-04-26T10:27:10Z</time>
<desc>lat.=22.086588, lon.=104.192863, Alt.=212.666138m. Speed=21.132000m/h.</desc>
<speed>5.870000</speed>
</trkpt>
<trkpt lat="22.086817" lon="104.193077">
<ele>212.873169</ele>
<time>2011-04-26T10:27:15Z</time>
<desc>lat.=22.086817, lon.=104.193077, Alt.=212.873169m. Speed=23.796000m/h.</desc>
<speed>6.610000</speed>
</trkpt>
<trkpt lat="22.087097" lon="104.193268">
<ele>215.080200</ele>
<time>2011-04-26T10:27:20Z</time>
<desc>lat.=22.087097, lon.=104.193268, Alt.=215.080200m. Speed=24.372000m/h.</desc>
<speed>6.770000</speed>
</trkpt>
<trkpt lat="22.087404" lon="104.193428">
<ele>218.255981</ele>
<time>2011-04-26T10:27:25Z</time>
<desc>lat.=22.087404, lon.=104.193428, Alt.=218.255981m. Speed=23.688000m/h.</desc>
<speed>6.580000</speed>
</trkpt>
<trkpt lat="22.087641" lon="104.193695">
<ele>220.158325</ele>
<time>2011-04-26T10:27:30Z</time>
<desc>lat.=22.087641, lon.=104.193695, Alt.=220.158325m. Speed=25.559999m/h.</desc>
<speed>7.100000</speed>
</trkpt>
<trkpt lat="22.087820" lon="104.194016">
<ele>221.287231</ele>
<time>2011-04-26T10:27:35Z</time>
<desc>lat.=22.087820, lon.=104.194016, Alt.=221.287231m. Speed=27.648001m/h.</desc>
<speed>7.680000</speed>
</trkpt>
<trkpt lat="22.088078" lon="104.194283">
<ele>221.322388</ele>
<time>2011-04-26T10:27:40Z</time>
<desc>lat.=22.088078, lon.=104.194283, Alt.=221.322388m. Speed=26.063999m/h.</desc>
<speed>7.240000</speed>
</trkpt>
<trkpt lat="22.088318" lon="104.194473">
<ele>222.064575</ele>
<time>2011-04-26T10:27:45Z</time>
<desc>lat.=22.088318, lon.=104.194473, Alt.=222.064575m. Speed=20.016001m/h.</desc>
<speed>5.560000</speed>
</trkpt>
<trkpt lat="22.088514" lon="104.194595">
<ele>222.556763</ele>
<time>2011-04-26T10:27:50Z</time>
<desc>lat.=22.088514, lon.=104.194595, Alt.=222.556763m. Speed=16.524000m/h.</desc>
<speed>4.590000</speed>
</trkpt>
<trkpt lat="22.088741" lon="104.194763">
<ele>223.154419</ele>
<time>2011-04-26T10:27:55Z</time>
<desc>lat.=22.088741, lon.=104.194763, Alt.=223.154419m. Speed=15.804000m/h.</desc>
<speed>4.390000</speed>
</trkpt>
<trkpt lat="22.088961" lon="104.194946">
<ele>223.857544</ele>
<time>2011-04-26T10:28:00Z</time>
<desc>lat.=22.088961, lon.=104.194946, Alt.=223.857544m. Speed=19.296000m/h.</desc>
<speed>5.360000</speed>
</trkpt>
<trkpt lat="22.089211" lon="104.195099">
<ele>224.056763</ele>
<time>2011-04-26T10:28:05Z</time>
<desc>lat.=22.089211, lon.=104.195099, Alt.=224.056763m. Speed=19.007999m/h.</desc>
<speed>5.280000</speed>
</trkpt>
<trkpt lat="22.089485" lon="104.195229">
<ele>223.486450</ele>
<time>2011-04-26T10:28:10Z</time>
<desc>lat.=22.089485, lon.=104.195229, Alt.=223.486450m. Speed=18.972000m/h.</desc>
<speed>5.270000</speed>
</trkpt>
<trkpt lat="22.089727" lon="104.195335">
<ele>223.220825</ele>
<time>2011-04-26T10:28:15Z</time>
<desc>lat.=22.089727, lon.=104.195335, Alt.=223.220825m. Speed=14.976000m/h.</desc>
<speed>4.160000</speed>
</trkpt>
<trkpt lat="22.089966" lon="104.195412">
<ele>222.916138</ele>
<time>2011-04-26T10:28:20Z</time>
<desc>lat.=22.089966, lon.=104.195412, Alt.=222.916138m. Speed=17.927999m/h.</desc>
<speed>4.980000</speed>
</trkpt>
<trkpt lat="22.090218" lon="104.195541">
<ele>221.920044</ele>
<time>2011-04-26T10:28:25Z</time>
<desc>lat.=22.090218, lon.=104.195541, Alt.=221.920044m. Speed=18.180000m/h.</desc>
<speed>5.050000</speed>
</trkpt>
<trkpt lat="22.090429" lon="104.195633">
<ele>221.748169</ele>
<time>2011-04-26T10:28:30Z</time>
<desc>lat.=22.090429, lon.=104.195633, Alt.=221.748169m. Speed=11.592000m/h.</desc>
<speed>3.220000</speed>
</trkpt>
<trkpt lat="22.090620" lon="104.195717">
<ele>220.298950</ele>
<time>2011-04-26T10:28:35Z</time>
<desc>lat.=22.090620, lon.=104.195717, Alt.=220.298950m. Speed=9.864000m/h.</desc>
<speed>2.740000</speed>
</trkpt>
<trkpt lat="22.090784" lon="104.195854">
<ele>218.896606</ele>
<time>2011-04-26T10:28:40Z</time>
<desc>lat.=22.090784, lon.=104.195854, Alt.=218.896606m. Speed=8.892000m/h.</desc>
<speed>2.470000</speed>
</trkpt>
<trkpt lat="22.090963" lon="104.196030">
<ele>217.943481</ele>
<time>2011-04-26T10:28:45Z</time>
<desc>lat.=22.090963, lon.=104.196030, Alt.=217.943481m. Speed=15.120000m/h.</desc>
<speed>4.200000</speed>
</trkpt>
<trkpt lat="22.091091" lon="104.196266">
<ele>216.373169</ele>
<time>2011-04-26T10:28:50Z</time>
<desc>lat.=22.091091, lon.=104.196266, Alt.=216.373169m. Speed=14.976000m/h.</desc>
<speed>4.160000</speed>
</trkpt>
<trkpt lat="22.091211" lon="104.196487">
<ele>215.201294</ele>
<time>2011-04-26T10:28:55Z</time>
<desc>lat.=22.091211, lon.=104.196487, Alt.=215.201294m. Speed=15.588000m/h.</desc>
<speed>4.330000</speed>
</trkpt>
<trkpt lat="22.091341" lon="104.196785">
<ele>212.912231</ele>
<time>2011-04-26T10:29:00Z</time>
<desc>lat.=22.091341, lon.=104.196785, Alt.=212.912231m. Speed=17.712000m/h.</desc>
<speed>4.920000</speed>
</trkpt>
<trkpt lat="22.091467" lon="104.196983">
<ele>212.380981</ele>
<time>2011-04-26T10:29:05Z</time>
<desc>lat.=22.091467, lon.=104.196983, Alt.=212.380981m. Speed=17.280001m/h.</desc>
<speed>4.800000</speed>
</trkpt>
<trkpt lat="22.091576" lon="104.197220">
<ele>209.107544</ele>
<time>2011-04-26T10:29:10Z</time>
<desc>lat.=22.091576, lon.=104.197220, Alt.=209.107544m. Speed=13.896000m/h.</desc>
<speed>3.860000</speed>
</trkpt>
<trkpt lat="22.091654" lon="104.197464">
<ele>208.377075</ele>
<time>2011-04-26T10:29:15Z</time>
<desc>lat.=22.091654, lon.=104.197464, Alt.=208.377075m. Speed=14.760000m/h.</desc>
<speed>4.100000</speed>
</trkpt>
<trkpt lat="22.091675" lon="104.197693">
<ele>207.716919</ele>
<time>2011-04-26T10:29:20Z</time>
<desc>lat.=22.091675, lon.=104.197693, Alt.=207.716919m. Speed=13.284000m/h.</desc>
<speed>3.690000</speed>
</trkpt>
<trkpt lat="22.091675" lon="104.197853">
<ele>208.220825</ele>
<time>2011-04-26T10:29:25Z</time>
<desc>lat.=22.091675, lon.=104.197853, Alt.=208.220825m. Speed=13.140000m/h.</desc>
<speed>3.650000</speed>
</trkpt>
<trkpt lat="22.091616" lon="104.198074">
<ele>209.232544</ele>
<time>2011-04-26T10:29:30Z</time>
<desc>lat.=22.091616, lon.=104.198074, Alt.=209.232544m. Speed=16.020000m/h.</desc>
<speed>4.450000</speed>
</trkpt>
<trkpt lat="22.091516" lon="104.198273">
<ele>210.045044</ele>
<time>2011-04-26T10:29:35Z</time>
<desc>lat.=22.091516, lon.=104.198273, Alt.=210.045044m. Speed=19.224001m/h.</desc>
<speed>5.340000</speed>
</trkpt>
<trkpt lat="22.091398" lon="104.198456">
<ele>211.314575</ele>
<time>2011-04-26T10:29:40Z</time>
<desc>lat.=22.091398, lon.=104.198456, Alt.=211.314575m. Speed=17.532000m/h.</desc>
<speed>4.870000</speed>
</trkpt>
<trkpt lat="22.091269" lon="104.198677">
<ele>211.603638</ele>
<time>2011-04-26T10:29:45Z</time>
<desc>lat.=22.091269, lon.=104.198677, Alt.=211.603638m. Speed=20.016001m/h.</desc>
<speed>5.560000</speed>
</trkpt>
<trkpt lat="22.091150" lon="104.198891">
<ele>211.584106</ele>
<time>2011-04-26T10:29:50Z</time>
<desc>lat.=22.091150, lon.=104.198891, Alt.=211.584106m. Speed=19.584000m/h.</desc>
<speed>5.440000</speed>
</trkpt>
<trkpt lat="22.091028" lon="104.199135">
<ele>212.146606</ele>
<time>2011-04-26T10:29:55Z</time>
<desc>lat.=22.091028, lon.=104.199135, Alt.=212.146606m. Speed=21.167999m/h.</desc>
<speed>5.880000</speed>
</trkpt>
<trkpt lat="22.090908" lon="104.199333">
<ele>213.689575</ele>
<time>2011-04-26T10:30:00Z</time>
<desc>lat.=22.090908, lon.=104.199333, Alt.=213.689575m. Speed=16.740000m/h.</desc>
<speed>4.650000</speed>
</trkpt>
<trkpt lat="22.090809" lon="104.199577">
<ele>215.134888</ele>
<time>2011-04-26T10:30:05Z</time>
<desc>lat.=22.090809, lon.=104.199577, Alt.=215.134888m. Speed=20.087999m/h.</desc>
<speed>5.580000</speed>
</trkpt>
<trkpt lat="22.090740" lon="104.199837">
<ele>216.470825</ele>
<time>2011-04-26T10:30:10Z</time>
<desc>lat.=22.090740, lon.=104.199837, Alt.=216.470825m. Speed=18.323999m/h.</desc>
<speed>5.090000</speed>
</trkpt>
<trkpt lat="22.090708" lon="104.200073">
<ele>217.091919</ele>
<time>2011-04-26T10:30:15Z</time>
<desc>lat.=22.090708, lon.=104.200073, Alt.=217.091919m. Speed=13.032000m/h.</desc>
<speed>3.620000</speed>
</trkpt>
<trkpt lat="22.090708" lon="104.200226">
<ele>218.814575</ele>
<time>2011-04-26T10:30:20Z</time>
<desc>lat.=22.090708, lon.=104.200226, Alt.=218.814575m. Speed=10.908000m/h.</desc>
<speed>3.030000</speed>
</trkpt>
<trkpt lat="22.090687" lon="104.200462">
<ele>218.002075</ele>
<time>2011-04-26T10:30:25Z</time>
<desc>lat.=22.090687, lon.=104.200462, Alt.=218.002075m. Speed=16.308001m/h.</desc>
<speed>4.530000</speed>
</trkpt>
<trkpt lat="22.090645" lon="104.200760">
<ele>218.474731</ele>
<time>2011-04-26T10:30:30Z</time>
<desc>lat.=22.090645, lon.=104.200760, Alt.=218.474731m. Speed=22.535999m/h.</desc>
<speed>6.260000</speed>
</trkpt>
<trkpt lat="22.090588" lon="104.201118">
<ele>219.673950</ele>
<time>2011-04-26T10:30:35Z</time>
<desc>lat.=22.090588, lon.=104.201118, Alt.=219.673950m. Speed=24.264000m/h.</desc>
<speed>6.740000</speed>
</trkpt>
<trkpt lat="22.090521" lon="104.201454">
<ele>220.045044</ele>
<time>2011-04-26T10:30:40Z</time>
<desc>lat.=22.090521, lon.=104.201454, Alt.=220.045044m. Speed=22.500000m/h.</desc>
<speed>6.250000</speed>
</trkpt>
<trkpt lat="22.090477" lon="104.201767">
<ele>220.248169</ele>
<time>2011-04-26T10:30:45Z</time>
<desc>lat.=22.090477, lon.=104.201767, Alt.=220.248169m. Speed=21.996000m/h.</desc>
<speed>6.110000</speed>
</trkpt>
<trkpt lat="22.090443" lon="104.202072">
<ele>220.275513</ele>
<time>2011-04-26T10:30:50Z</time>
<desc>lat.=22.090443, lon.=104.202072, Alt.=220.275513m. Speed=22.931999m/h.</desc>
<speed>6.370000</speed>
</trkpt>
<trkpt lat="22.090412" lon="104.202408">
<ele>219.697388</ele>
<time>2011-04-26T10:30:55Z</time>
<desc>lat.=22.090412, lon.=104.202408, Alt.=219.697388m. Speed=25.344000m/h.</desc>
<speed>7.040000</speed>
</trkpt>
<trkpt lat="22.090395" lon="104.202751">
<ele>219.408325</ele>
<time>2011-04-26T10:31:00Z</time>
<desc>lat.=22.090395, lon.=104.202751, Alt.=219.408325m. Speed=24.516001m/h.</desc>
<speed>6.810000</speed>
</trkpt>
<trkpt lat="22.090378" lon="104.203056">
<ele>220.084106</ele>
<time>2011-04-26T10:31:05Z</time>
<desc>lat.=22.090378, lon.=104.203056, Alt.=220.084106m. Speed=20.160000m/h.</desc>
<speed>5.600000</speed>
</trkpt>
<trkpt lat="22.090366" lon="104.203285">
<ele>220.509888</ele>
<time>2011-04-26T10:31:10Z</time>
<desc>lat.=22.090366, lon.=104.203285, Alt.=220.509888m. Speed=11.088000m/h.</desc>
<speed>3.080000</speed>
</trkpt>
<trkpt lat="22.090343" lon="104.203377">
<ele>220.798950</ele>
<time>2011-04-26T10:31:15Z</time>
<desc>lat.=22.090343, lon.=104.203377, Alt.=220.798950m. Speed=1.044000m/h.</desc>
<speed>0.290000</speed>
</trkpt>
<trkpt lat="22.090336" lon="104.203392">
<ele>220.642700</ele>
<time>2011-04-26T10:31:20Z</time>
<desc>lat.=22.090336, lon.=104.203392, Alt.=220.642700m. Speed=1.044000m/h.</desc>
<speed>0.290000</speed>
</trkpt>
<trkpt lat="22.090330" lon="104.203415">
<ele>220.716919</ele>
<time>2011-04-26T10:31:25Z</time>
<desc>lat.=22.090330, lon.=104.203415, Alt.=220.716919m. Speed=3.384000m/h.</desc>
<speed>0.940000</speed>
</trkpt>
<trkpt lat="22.090322" lon="104.203491">
<ele>220.482544</ele>
<time>2011-04-26T10:31:30Z</time>
<desc>lat.=22.090322, lon.=104.203491, Alt.=220.482544m. Speed=5.724000m/h.</desc>
<speed>1.590000</speed>
</trkpt>
<trkpt lat="22.090267" lon="104.203690">
<ele>220.470825</ele>
<time>2011-04-26T10:31:35Z</time>
<desc>lat.=22.090267, lon.=104.203690, Alt.=220.470825m. Speed=12.240000m/h.</desc>
<speed>3.400000</speed>
</trkpt>
<trkpt lat="22.090233" lon="104.203850">
<ele>219.673950</ele>
<time>2011-04-26T10:31:40Z</time>
<desc>lat.=22.090233, lon.=104.203850, Alt.=219.673950m. Speed=14.148000m/h.</desc>
<speed>3.930000</speed>
</trkpt>
<trkpt lat="22.090172" lon="104.204018">
<ele>219.103638</ele>
<time>2011-04-26T10:31:45Z</time>
<desc>lat.=22.090172, lon.=104.204018, Alt.=219.103638m. Speed=10.764000m/h.</desc>
<speed>2.990000</speed>
</trkpt>
<trkpt lat="22.090124" lon="104.204216">
<ele>218.861450</ele>
<time>2011-04-26T10:31:50Z</time>
<desc>lat.=22.090124, lon.=104.204216, Alt.=218.861450m. Speed=14.076000m/h.</desc>
<speed>3.910000</speed>
</trkpt>
<trkpt lat="22.090075" lon="104.204407">
<ele>218.857544</ele>
<time>2011-04-26T10:31:55Z</time>
<desc>lat.=22.090075, lon.=104.204407, Alt.=218.857544m. Speed=11.700000m/h.</desc>
<speed>3.250000</speed>
</trkpt>
<trkpt lat="22.090044" lon="104.204613">
<ele>218.959106</ele>
<time>2011-04-26T10:32:00Z</time>
<desc>lat.=22.090044, lon.=104.204613, Alt.=218.959106m. Speed=17.424000m/h.</desc>
<speed>4.840000</speed>
</trkpt>
<trkpt lat="22.089973" lon="104.204880">
<ele>219.713013</ele>
<time>2011-04-26T10:32:05Z</time>
<desc>lat.=22.089973, lon.=104.204880, Alt.=219.713013m. Speed=15.012000m/h.</desc>
<speed>4.170000</speed>
</trkpt>
<trkpt lat="22.089918" lon="104.205101">
<ele>219.595825</ele>
<time>2011-04-26T10:32:10Z</time>
<desc>lat.=22.089918, lon.=104.205101, Alt.=219.595825m. Speed=13.968000m/h.</desc>
<speed>3.880000</speed>
</trkpt>
<trkpt lat="22.089819" lon="104.205368">
<ele>219.521606</ele>
<time>2011-04-26T10:32:15Z</time>
<desc>lat.=22.089819, lon.=104.205368, Alt.=219.521606m. Speed=19.728001m/h.</desc>
<speed>5.480000</speed>
</trkpt>
<trkpt lat="22.089739" lon="104.205605">
<ele>218.459106</ele>
<time>2011-04-26T10:32:20Z</time>
<desc>lat.=22.089739, lon.=104.205605, Alt.=218.459106m. Speed=14.868000m/h.</desc>
<speed>4.130000</speed>
</trkpt>
<trkpt lat="22.089640" lon="104.205917">
<ele>217.502075</ele>
<time>2011-04-26T10:32:25Z</time>
<desc>lat.=22.089640, lon.=104.205917, Alt.=217.502075m. Speed=20.124001m/h.</desc>
<speed>5.590000</speed>
</trkpt>
<trkpt lat="22.089527" lon="104.206192">
<ele>217.627075</ele>
<time>2011-04-26T10:32:30Z</time>
<desc>lat.=22.089527, lon.=104.206192, Alt.=217.627075m. Speed=21.816000m/h.</desc>
<speed>6.060000</speed>
</trkpt>
<trkpt lat="22.089418" lon="104.206474">
<ele>216.513794</ele>
<time>2011-04-26T10:32:35Z</time>
<desc>lat.=22.089418, lon.=104.206474, Alt.=216.513794m. Speed=20.160000m/h.</desc>
<speed>5.600000</speed>
</trkpt>
<trkpt lat="22.089306" lon="104.206764">
<ele>216.213013</ele>
<time>2011-04-26T10:32:40Z</time>
<desc>lat.=22.089306, lon.=104.206764, Alt.=216.213013m. Speed=22.680000m/h.</desc>
<speed>6.300000</speed>
</trkpt>
<trkpt lat="22.089186" lon="104.207047">
<ele>214.900513</ele>
<time>2011-04-26T10:32:45Z</time>
<desc>lat.=22.089186, lon.=104.207047, Alt.=214.900513m. Speed=20.087999m/h.</desc>
<speed>5.580000</speed>
</trkpt>
<trkpt lat="22.089069" lon="104.207283">
<ele>214.681763</ele>
<time>2011-04-26T10:32:50Z</time>
<desc>lat.=22.089069, lon.=104.207283, Alt.=214.681763m. Speed=17.784000m/h.</desc>
<speed>4.940000</speed>
</trkpt>
<trkpt lat="22.088972" lon="104.207489">
<ele>214.404419</ele>
<time>2011-04-26T10:32:55Z</time>
<desc>lat.=22.088972, lon.=104.207489, Alt.=214.404419m. Speed=15.120000m/h.</desc>
<speed>4.200000</speed>
</trkpt>
<trkpt lat="22.088875" lon="104.207664">
<ele>217.630981</ele>
<time>2011-04-26T10:33:00Z</time>
<desc>lat.=22.088875, lon.=104.207664, Alt.=217.630981m. Speed=14.832000m/h.</desc>
<speed>4.120000</speed>
</trkpt>
<trkpt lat="22.088793" lon="104.207840">
<ele>220.306763</ele>
<time>2011-04-26T10:33:05Z</time>
<desc>lat.=22.088793, lon.=104.207840, Alt.=220.306763m. Speed=10.404000m/h.</desc>
<speed>2.890000</speed>
</trkpt>
<trkpt lat="22.088722" lon="104.207977">
<ele>221.853638</ele>
<time>2011-04-26T10:33:10Z</time>
<desc>lat.=22.088722, lon.=104.207977, Alt.=221.853638m. Speed=10.332000m/h.</desc>
<speed>2.870000</speed>
</trkpt>
<trkpt lat="22.088669" lon="104.208122">
<ele>222.275513</ele>
<time>2011-04-26T10:33:15Z</time>
<desc>lat.=22.088669, lon.=104.208122, Alt.=222.275513m. Speed=9.540000m/h.</desc>
<speed>2.650000</speed>
</trkpt>
<trkpt lat="22.088604" lon="104.208252">
<ele>223.873169</ele>
<time>2011-04-26T10:33:20Z</time>
<desc>lat.=22.088604, lon.=104.208252, Alt.=223.873169m. Speed=10.512000m/h.</desc>
<speed>2.920000</speed>
</trkpt>
<trkpt lat="22.088535" lon="104.208374">
<ele>223.767700</ele>
<time>2011-04-26T10:33:25Z</time>
<desc>lat.=22.088535, lon.=104.208374, Alt.=223.767700m. Speed=10.368000m/h.</desc>
<speed>2.880000</speed>
</trkpt>
<trkpt lat="22.088459" lon="104.208473">
<ele>225.857544</ele>
<time>2011-04-26T10:33:30Z</time>
<desc>lat.=22.088459, lon.=104.208473, Alt.=225.857544m. Speed=7.344000m/h.</desc>
<speed>2.040000</speed>
</trkpt>
<trkpt lat="22.088385" lon="104.208572">
<ele>226.806763</ele>
<time>2011-04-26T10:33:35Z</time>
<desc>lat.=22.088385, lon.=104.208572, Alt.=226.806763m. Speed=10.296000m/h.</desc>
<speed>2.860000</speed>
</trkpt>
<trkpt lat="22.088320" lon="104.208656">
<ele>226.693481</ele>
<time>2011-04-26T10:33:40Z</time>
<desc>lat.=22.088320, lon.=104.208656, Alt.=226.693481m. Speed=6.732000m/h.</desc>
<speed>1.870000</speed>
</trkpt>
<trkpt lat="22.088243" lon="104.208717">
<ele>227.642700</ele>
<time>2011-04-26T10:33:45Z</time>
<desc>lat.=22.088243, lon.=104.208717, Alt.=227.642700m. Speed=7.704000m/h.</desc>
<speed>2.140000</speed>
</trkpt>
<trkpt lat="22.088161" lon="104.208778">
<ele>226.818481</ele>
<time>2011-04-26T10:33:50Z</time>
<desc>lat.=22.088161, lon.=104.208778, Alt.=226.818481m. Speed=7.380000m/h.</desc>
<speed>2.050000</speed>
</trkpt>
<trkpt lat="22.088085" lon="104.208870">
<ele>227.291138</ele>
<time>2011-04-26T10:33:55Z</time>
<desc>lat.=22.088085, lon.=104.208870, Alt.=227.291138m. Speed=8.280000m/h.</desc>
<speed>2.300000</speed>
</trkpt>
<trkpt lat="22.088005" lon="104.208969">
<ele>227.068481</ele>
<time>2011-04-26T10:34:00Z</time>
<desc>lat.=22.088005, lon.=104.208969, Alt.=227.068481m. Speed=7.776000m/h.</desc>
<speed>2.160000</speed>
</trkpt>
<trkpt lat="22.087927" lon="104.209038">
<ele>227.759888</ele>
<time>2011-04-26T10:34:05Z</time>
<desc>lat.=22.087927, lon.=104.209038, Alt.=227.759888m. Speed=9.180000m/h.</desc>
<speed>2.550000</speed>
</trkpt>
<trkpt lat="22.087833" lon="104.209122">
<ele>228.205200</ele>
<time>2011-04-26T10:34:10Z</time>
<desc>lat.=22.087833, lon.=104.209122, Alt.=228.205200m. Speed=11.880000m/h.</desc>
<speed>3.300000</speed>
</trkpt>
<trkpt lat="22.087746" lon="104.209198">
<ele>229.345825</ele>
<time>2011-04-26T10:34:15Z</time>
<desc>lat.=22.087746, lon.=104.209198, Alt.=229.345825m. Speed=9.324000m/h.</desc>
<speed>2.590000</speed>
</trkpt>
<trkpt lat="22.087664" lon="104.209274">
<ele>229.630981</ele>
<time>2011-04-26T10:34:20Z</time>
<desc>lat.=22.087664, lon.=104.209274, Alt.=229.630981m. Speed=7.380000m/h.</desc>
<speed>2.050000</speed>
</trkpt>
<trkpt lat="22.087555" lon="104.209389">
<ele>228.572388</ele>
<time>2011-04-26T10:34:25Z</time>
<desc>lat.=22.087555, lon.=104.209389, Alt.=228.572388m. Speed=8.064000m/h.</desc>
<speed>2.240000</speed>
</trkpt>
<trkpt lat="22.087473" lon="104.209488">
<ele>227.970825</ele>
<time>2011-04-26T10:34:30Z</time>
<desc>lat.=22.087473, lon.=104.209488, Alt.=227.970825m. Speed=8.748000m/h.</desc>
<speed>2.430000</speed>
</trkpt>
<trkpt lat="22.087376" lon="104.209595">
<ele>227.966919</ele>
<time>2011-04-26T10:34:35Z</time>
<desc>lat.=22.087376, lon.=104.209595, Alt.=227.966919m. Speed=6.840000m/h.</desc>
<speed>1.900000</speed>
</trkpt>
<trkpt lat="22.087317" lon="104.209686">
<ele>228.795044</ele>
<time>2011-04-26T10:34:40Z</time>
<desc>lat.=22.087317, lon.=104.209686, Alt.=228.795044m. Speed=8.820000m/h.</desc>
<speed>2.450000</speed>
</trkpt>
<trkpt lat="22.087246" lon="104.209770">
<ele>228.431763</ele>
<time>2011-04-26T10:34:45Z</time>
<desc>lat.=22.087246, lon.=104.209770, Alt.=228.431763m. Speed=8.244000m/h.</desc>
<speed>2.290000</speed>
</trkpt>
<trkpt lat="22.087189" lon="104.209846">
<ele>228.900513</ele>
<time>2011-04-26T10:34:50Z</time>
<desc>lat.=22.087189, lon.=104.209846, Alt.=228.900513m. Speed=6.984000m/h.</desc>
<speed>1.940000</speed>
</trkpt>
<trkpt lat="22.087111" lon="104.209923">
<ele>229.205200</ele>
<time>2011-04-26T10:34:55Z</time>
<desc>lat.=22.087111, lon.=104.209923, Alt.=229.205200m. Speed=8.064000m/h.</desc>
<speed>2.240000</speed>
</trkpt>
<trkpt lat="22.087048" lon="104.210014">
<ele>228.279419</ele>
<time>2011-04-26T10:35:00Z</time>
<desc>lat.=22.087048, lon.=104.210014, Alt.=228.279419m. Speed=8.640000m/h.</desc>
<speed>2.400000</speed>
</trkpt>
<trkpt lat="22.086981" lon="104.210091">
<ele>228.220825</ele>
<time>2011-04-26T10:35:05Z</time>
<desc>lat.=22.086981, lon.=104.210091, Alt.=228.220825m. Speed=7.056000m/h.</desc>
<speed>1.960000</speed>
</trkpt>
<trkpt lat="22.086903" lon="104.210144">
<ele>229.388794</ele>
<time>2011-04-26T10:35:10Z</time>
<desc>lat.=22.086903, lon.=104.210144, Alt.=229.388794m. Speed=9.144000m/h.</desc>
<speed>2.540000</speed>
</trkpt>
<trkpt lat="22.086830" lon="104.210236">
<ele>229.931763</ele>
<time>2011-04-26T10:35:15Z</time>
<desc>lat.=22.086830, lon.=104.210236, Alt.=229.931763m. Speed=7.056000m/h.</desc>
<speed>1.960000</speed>
</trkpt>
<trkpt lat="22.086775" lon="104.210320">
<ele>229.959106</ele>
<time>2011-04-26T10:35:20Z</time>
<desc>lat.=22.086775, lon.=104.210320, Alt.=229.959106m. Speed=6.660000m/h.</desc>
<speed>1.850000</speed>
</trkpt>
<trkpt lat="22.086714" lon="104.210396">
<ele>229.959106</ele>
<time>2011-04-26T10:35:25Z</time>
<desc>lat.=22.086714, lon.=104.210396, Alt.=229.959106m. Speed=8.100000m/h.</desc>
<speed>2.250000</speed>
</trkpt>
<trkpt lat="22.086658" lon="104.210457">
<ele>230.033325</ele>
<time>2011-04-26T10:35:30Z</time>
<desc>lat.=22.086658, lon.=104.210457, Alt.=230.033325m. Speed=5.868000m/h.</desc>
<speed>1.630000</speed>
</trkpt>
<trkpt lat="22.086592" lon="104.210510">
<ele>230.552856</ele>
<time>2011-04-26T10:35:35Z</time>
<desc>lat.=22.086592, lon.=104.210510, Alt.=230.552856m. Speed=6.984000m/h.</desc>
<speed>1.940000</speed>
</trkpt>
<trkpt lat="22.086525" lon="104.210556">
<ele>231.080200</ele>
<time>2011-04-26T10:35:40Z</time>
<desc>lat.=22.086525, lon.=104.210556, Alt.=231.080200m. Speed=5.436000m/h.</desc>
<speed>1.510000</speed>
</trkpt>
<trkpt lat="22.086443" lon="104.210609">
<ele>231.650513</ele>
<time>2011-04-26T10:35:45Z</time>
<desc>lat.=22.086443, lon.=104.210609, Alt.=231.650513m. Speed=6.912000m/h.</desc>
<speed>1.920000</speed>
</trkpt>
<trkpt lat="22.086370" lon="104.210670">
<ele>231.939575</ele>
<time>2011-04-26T10:35:50Z</time>
<desc>lat.=22.086370, lon.=104.210670, Alt.=231.939575m. Speed=5.616000m/h.</desc>
<speed>1.560000</speed>
</trkpt>
<trkpt lat="22.086288" lon="104.210709">
<ele>232.033325</ele>
<time>2011-04-26T10:35:55Z</time>
<desc>lat.=22.086288, lon.=104.210709, Alt.=232.033325m. Speed=4.824000m/h.</desc>
<speed>1.340000</speed>
</trkpt>
<trkpt lat="22.086235" lon="104.210777">
<ele>232.084106</ele>
<time>2011-04-26T10:36:00Z</time>
<desc>lat.=22.086235, lon.=104.210777, Alt.=232.084106m. Speed=5.904000m/h.</desc>
<speed>1.640000</speed>
</trkpt>
<trkpt lat="22.086189" lon="104.210838">
<ele>231.970825</ele>
<time>2011-04-26T10:36:05Z</time>
<desc>lat.=22.086189, lon.=104.210838, Alt.=231.970825m. Speed=4.068000m/h.</desc>
<speed>1.130000</speed>
</trkpt>
<trkpt lat="22.086142" lon="104.210915">
<ele>231.759888</ele>
<time>2011-04-26T10:36:10Z</time>
<desc>lat.=22.086142, lon.=104.210915, Alt.=231.759888m. Speed=4.608000m/h.</desc>
<speed>1.280000</speed>
</trkpt>
<trkpt lat="22.086100" lon="104.210968">
<ele>231.927856</ele>
<time>2011-04-26T10:36:15Z</time>
<desc>lat.=22.086100, lon.=104.210968, Alt.=231.927856m. Speed=4.356000m/h.</desc>
<speed>1.210000</speed>
</trkpt>
<trkpt lat="22.086033" lon="104.210999">
<ele>232.380981</ele>
<time>2011-04-26T10:36:20Z</time>
<desc>lat.=22.086033, lon.=104.210999, Alt.=232.380981m. Speed=4.932000m/h.</desc>
<speed>1.370000</speed>
</trkpt>
<trkpt lat="22.085962" lon="104.211052">
<ele>232.556763</ele>
<time>2011-04-26T10:36:25Z</time>
<desc>lat.=22.085962, lon.=104.211052, Alt.=232.556763m. Speed=4.824000m/h.</desc>
<speed>1.340000</speed>
</trkpt>
<trkpt lat="22.085892" lon="104.211098">
<ele>232.498169</ele>
<time>2011-04-26T10:36:30Z</time>
<desc>lat.=22.085892, lon.=104.211098, Alt.=232.498169m. Speed=4.932000m/h.</desc>
<speed>1.370000</speed>
</trkpt>
<trkpt lat="22.085844" lon="104.211136">
<ele>232.728638</ele>
<time>2011-04-26T10:36:35Z</time>
<desc>lat.=22.085844, lon.=104.211136, Alt.=232.728638m. Speed=4.788000m/h.</desc>
<speed>1.330000</speed>
</trkpt>
<trkpt lat="22.085781" lon="104.211182">
<ele>233.056763</ele>
<time>2011-04-26T10:36:40Z</time>
<desc>lat.=22.085781, lon.=104.211182, Alt.=233.056763m. Speed=5.292000m/h.</desc>
<speed>1.470000</speed>
</trkpt>
<trkpt lat="22.085724" lon="104.211235">
<ele>233.271606</ele>
<time>2011-04-26T10:36:45Z</time>
<desc>lat.=22.085724, lon.=104.211235, Alt.=233.271606m. Speed=4.068000m/h.</desc>
<speed>1.130000</speed>
</trkpt>
<trkpt lat="22.085693" lon="104.211281">
<ele>233.740356</ele>
<time>2011-04-26T10:36:50Z</time>
<desc>lat.=22.085693, lon.=104.211281, Alt.=233.740356m. Speed=3.528000m/h.</desc>
<speed>0.980000</speed>
</trkpt>
<trkpt lat="22.085625" lon="104.211365">
<ele>234.431763</ele>
<time>2011-04-26T10:36:55Z</time>
<desc>lat.=22.085625, lon.=104.211365, Alt.=234.431763m. Speed=4.968000m/h.</desc>
<speed>1.380000</speed>
</trkpt>
<trkpt lat="22.085588" lon="104.211449">
<ele>235.107544</ele>
<time>2011-04-26T10:37:00Z</time>
<desc>lat.=22.085588, lon.=104.211449, Alt.=235.107544m. Speed=4.176000m/h.</desc>
<speed>1.160000</speed>
</trkpt>
<trkpt lat="22.085564" lon="104.211502">
<ele>236.084106</ele>
<time>2011-04-26T10:37:05Z</time>
<desc>lat.=22.085564, lon.=104.211502, Alt.=236.084106m. Speed=5.724000m/h.</desc>
<speed>1.590000</speed>
</trkpt>
<trkpt lat="22.085522" lon="104.211578">
<ele>236.896606</ele>
<time>2011-04-26T10:37:10Z</time>
<desc>lat.=22.085522, lon.=104.211578, Alt.=236.896606m. Speed=3.420000m/h.</desc>
<speed>0.950000</speed>
</trkpt>
<trkpt lat="22.085461" lon="104.211662">
<ele>237.560669</ele>
<time>2011-04-26T10:37:15Z</time>
<desc>lat.=22.085461, lon.=104.211662, Alt.=237.560669m. Speed=4.464000m/h.</desc>
<speed>1.240000</speed>
</trkpt>
<trkpt lat="22.085417" lon="104.211716">
<ele>237.994263</ele>
<time>2011-04-26T10:37:20Z</time>
<desc>lat.=22.085417, lon.=104.211716, Alt.=237.994263m. Speed=3.672000m/h.</desc>
<speed>1.020000</speed>
</trkpt>
<trkpt lat="22.085382" lon="104.211761">
<ele>239.185669</ele>
<time>2011-04-26T10:37:25Z</time>
<desc>lat.=22.085382, lon.=104.211761, Alt.=239.185669m. Speed=3.420000m/h.</desc>
<speed>0.950000</speed>
</trkpt>
<trkpt lat="22.085335" lon="104.211830">
<ele>239.947388</ele>
<time>2011-04-26T10:37:30Z</time>
<desc>lat.=22.085335, lon.=104.211830, Alt.=239.947388m. Speed=5.112000m/h.</desc>
<speed>1.420000</speed>
</trkpt>
<trkpt lat="22.085283" lon="104.211914">
<ele>240.111450</ele>
<time>2011-04-26T10:37:35Z</time>
<desc>lat.=22.085283, lon.=104.211914, Alt.=240.111450m. Speed=4.968000m/h.</desc>
<speed>1.380000</speed>
</trkpt>
<trkpt lat="22.085241" lon="104.212021">
<ele>239.916138</ele>
<time>2011-04-26T10:37:40Z</time>
<desc>lat.=22.085241, lon.=104.212021, Alt.=239.916138m. Speed=5.040000m/h.</desc>
<speed>1.400000</speed>
</trkpt>
<trkpt lat="22.085201" lon="104.212090">
<ele>240.056763</ele>
<time>2011-04-26T10:37:45Z</time>
<desc>lat.=22.085201, lon.=104.212090, Alt.=240.056763m. Speed=4.716000m/h.</desc>
<speed>1.310000</speed>
</trkpt>
<trkpt lat="22.085169" lon="104.212143">
<ele>240.431763</ele>
<time>2011-04-26T10:37:50Z</time>
<desc>lat.=22.085169, lon.=104.212143, Alt.=240.431763m. Speed=3.456000m/h.</desc>
<speed>0.960000</speed>
</trkpt>
<trkpt lat="22.085144" lon="104.212219">
<ele>241.349731</ele>
<time>2011-04-26T10:37:55Z</time>
<desc>lat.=22.085144, lon.=104.212219, Alt.=241.349731m. Speed=4.644000m/h.</desc>
<speed>1.290000</speed>
</trkpt>
<trkpt lat="22.085094" lon="104.212311">
<ele>241.271606</ele>
<time>2011-04-26T10:38:00Z</time>
<desc>lat.=22.085094, lon.=104.212311, Alt.=241.271606m. Speed=4.644000m/h.</desc>
<speed>1.290000</speed>
</trkpt>
<trkpt lat="22.085072" lon="104.212372">
<ele>241.963013</ele>
<time>2011-04-26T10:38:05Z</time>
<desc>lat.=22.085072, lon.=104.212372, Alt.=241.963013m. Speed=4.680000m/h.</desc>
<speed>1.300000</speed>
</trkpt>
<trkpt lat="22.085003" lon="104.212418">
<ele>242.673950</ele>
<time>2011-04-26T10:38:10Z</time>
<desc>lat.=22.085003, lon.=104.212418, Alt.=242.673950m. Speed=4.788000m/h.</desc>
<speed>1.330000</speed>
</trkpt>
<trkpt lat="22.084980" lon="104.212479">
<ele>243.494263</ele>
<time>2011-04-26T10:38:15Z</time>
<desc>lat.=22.084980, lon.=104.212479, Alt.=243.494263m. Speed=4.104000m/h.</desc>
<speed>1.140000</speed>
</trkpt>
<trkpt lat="22.084942" lon="104.212585">
<ele>244.119263</ele>
<time>2011-04-26T10:38:20Z</time>
<desc>lat.=22.084942, lon.=104.212585, Alt.=244.119263m. Speed=4.428000m/h.</desc>
<speed>1.230000</speed>
</trkpt>
<trkpt lat="22.084919" lon="104.212692">
<ele>244.752075</ele>
<time>2011-04-26T10:38:25Z</time>
<desc>lat.=22.084919, lon.=104.212692, Alt.=244.752075m. Speed=4.968000m/h.</desc>
<speed>1.380000</speed>
</trkpt>
<trkpt lat="22.084911" lon="104.212837">
<ele>244.709106</ele>
<time>2011-04-26T10:38:30Z</time>
<desc>lat.=22.084911, lon.=104.212837, Alt.=244.709106m. Speed=0.036000m/h.</desc>
<speed>0.010000</speed>
</trkpt>
<trkpt lat="22.084927" lon="104.212860">
<ele>244.623169</ele>
<time>2011-04-26T10:38:35Z</time>
<desc>lat.=22.084927, lon.=104.212860, Alt.=244.623169m. Speed=0.396000m/h.</desc>
<speed>0.110000</speed>
</trkpt>
<trkpt lat="22.084923" lon="104.212875">
<ele>244.349731</ele>
<time>2011-04-26T10:38:40Z</time>
<desc>lat.=22.084923, lon.=104.212875, Alt.=244.349731m. Speed=1.080000m/h.</desc>
<speed>0.300000</speed>
</trkpt>
<trkpt lat="22.084921" lon="104.212906">
<ele>244.345825</ele>
<time>2011-04-26T10:38:45Z</time>
<desc>lat.=22.084921, lon.=104.212906, Alt.=244.345825m. Speed=1.368000m/h.</desc>
<speed>0.380000</speed>
</trkpt>
<trkpt lat="22.084913" lon="104.212921">
<ele>244.892700</ele>
<time>2011-04-26T10:38:50Z</time>
<desc>lat.=22.084913, lon.=104.212921, Alt.=244.892700m. Speed=0.288000m/h.</desc>
<speed>0.080000</speed>
</trkpt>
<trkpt lat="22.084915" lon="104.212921">
<ele>244.943481</ele>
<time>2011-04-26T10:38:55Z</time>
<desc>lat.=22.084915, lon.=104.212921, Alt.=244.943481m. Speed=0.144000m/h.</desc>
<speed>0.040000</speed>
</trkpt>
<trkpt lat="22.084917" lon="104.212921">
<ele>244.966919</ele>
<time>2011-04-26T10:39:00Z</time>
<desc>lat.=22.084917, lon.=104.212921, Alt.=244.966919m. Speed=0.216000m/h.</desc>
<speed>0.060000</speed>
</trkpt>
<trkpt lat="22.084919" lon="104.212921">
<ele>245.005981</ele>
<time>2011-04-26T10:39:05Z</time>
<desc>lat.=22.084919, lon.=104.212921, Alt.=245.005981m. Speed=0.180000m/h.</desc>
<speed>0.050000</speed>
</trkpt>
<trkpt lat="22.084919" lon="104.212921">
<ele>245.033325</ele>
<time>2011-04-26T10:39:10Z</time>
<desc>lat.=22.084919, lon.=104.212921, Alt.=245.033325m. Speed=0.180000m/h.</desc>
<speed>0.050000</speed>
</trkpt>
<trkpt lat="22.084915" lon="104.212921">
<ele>245.021606</ele>
<time>2011-04-26T10:39:15Z</time>
<desc>lat.=22.084915, lon.=104.212921, Alt.=245.021606m. Speed=0.612000m/h.</desc>
<speed>0.170000</speed>
</trkpt>
<trkpt lat="22.084909" lon="104.212914">
<ele>245.021606</ele>
<time>2011-04-26T10:39:20Z</time>
<desc>lat.=22.084909, lon.=104.212914, Alt.=245.021606m. Speed=0.540000m/h.</desc>
<speed>0.150000</speed>
</trkpt>
<trkpt lat="22.084908" lon="104.212914">
<ele>244.990356</ele>
<time>2011-04-26T10:39:25Z</time>
<desc>lat.=22.084908, lon.=104.212914, Alt.=244.990356m. Speed=0.180000m/h.</desc>
<speed>0.050000</speed>
</trkpt>
<trkpt lat="22.084913" lon="104.212914">
<ele>244.978638</ele>
<time>2011-04-26T10:39:30Z</time>
<desc>lat.=22.084913, lon.=104.212914, Alt.=244.978638m. Speed=0.180000m/h.</desc>
<speed>0.050000</speed>
</trkpt>
<trkpt lat="22.084917" lon="104.212914">
<ele>244.970825</ele>
<time>2011-04-26T10:39:35Z</time>
<desc>lat.=22.084917, lon.=104.212914, Alt.=244.970825m. Speed=0.396000m/h.</desc>
<speed>0.110000</speed>
</trkpt>
<trkpt lat="22.084921" lon="104.212914">
<ele>244.990356</ele>
<time>2011-04-26T10:39:40Z</time>
<desc>lat.=22.084921, lon.=104.212914, Alt.=244.990356m. Speed=0.144000m/h.</desc>
<speed>0.040000</speed>
</trkpt>
<trkpt lat="22.084925" lon="104.212914">
<ele>244.970825</ele>
<time>2011-04-26T10:39:45Z</time>
<desc>lat.=22.084925, lon.=104.212914, Alt.=244.970825m. Speed=0.324000m/h.</desc>
<speed>0.090000</speed>
</trkpt>
<trkpt lat="22.084927" lon="104.212914">
<ele>244.986450</ele>
<time>2011-04-26T10:39:50Z</time>
<desc>lat.=22.084927, lon.=104.212914, Alt.=244.986450m. Speed=0.036000m/h.</desc>
<speed>0.010000</speed>
</trkpt>
<trkpt lat="22.084929" lon="104.212914">
<ele>244.982544</ele>
<time>2011-04-26T10:39:55Z</time>
<desc>lat.=22.084929, lon.=104.212914, Alt.=244.982544m. Speed=0.432000m/h.</desc>
<speed>0.120000</speed>
</trkpt>
<trkpt lat="22.084930" lon="104.212914">
<ele>244.998169</ele>
<time>2011-04-26T10:40:00Z</time>
<desc>lat.=22.084930, lon.=104.212914, Alt.=244.998169m. Speed=0.648000m/h.</desc>
<speed>0.180000</speed>
</trkpt>
<trkpt lat="22.084932" lon="104.212906">
<ele>245.017700</ele>
<time>2011-04-26T10:40:05Z</time>
<desc>lat.=22.084932, lon.=104.212906, Alt.=245.017700m. Speed=0.108000m/h.</desc>
<speed>0.030000</speed>
</trkpt>
<trkpt lat="22.084932" lon="104.212914">
<ele>245.037231</ele>
<time>2011-04-26T10:40:10Z</time>
<desc>lat.=22.084932, lon.=104.212914, Alt.=245.037231m. Speed=0.468000m/h.</desc>
<speed>0.130000</speed>
</trkpt>
<trkpt lat="22.084929" lon="104.212914">
<ele>245.068481</ele>
<time>2011-04-26T10:40:15Z</time>
<desc>lat.=22.084929, lon.=104.212914, Alt.=245.068481m. Speed=0.072000m/h.</desc>
<speed>0.020000</speed>
</trkpt>
<trkpt lat="22.084932" lon="104.212914">
<ele>245.103638</ele>
<time>2011-04-26T10:40:20Z</time>
<desc>lat.=22.084932, lon.=104.212914, Alt.=245.103638m. Speed=0.108000m/h.</desc>
<speed>0.030000</speed>
</trkpt>
<trkpt lat="22.084930" lon="104.212914">
<ele>245.166138</ele>
<time>2011-04-26T10:40:25Z</time>
<desc>lat.=22.084930, lon.=104.212914, Alt.=245.166138m. Speed=0.180000m/h.</desc>
<speed>0.050000</speed>
</trkpt>
<trkpt lat="22.084932" lon="104.212906">
<ele>245.177856</ele>
<time>2011-04-26T10:40:30Z</time>
<desc>lat.=22.084932, lon.=104.212906, Alt.=245.177856m. Speed=0.108000m/h.</desc>
<speed>0.030000</speed>
</trkpt>
<trkpt lat="22.084930" lon="104.212906">
<ele>245.177856</ele>
<time>2011-04-26T10:40:35Z</time>
<desc>lat.=22.084930, lon.=104.212906, Alt.=245.177856m. Speed=0.360000m/h.</desc>
<speed>0.100000</speed>
</trkpt>
<trkpt lat="22.084927" lon="104.212906">
<ele>245.162231</ele>
<time>2011-04-26T10:40:40Z</time>
<desc>lat.=22.084927, lon.=104.212906, Alt.=245.162231m. Speed=0.000000m/h.</desc>
<speed>0.000000</speed>
</trkpt>
<trkpt lat="22.084927" lon="104.212906">
<ele>245.130981</ele>
<time>2011-04-26T10:40:45Z</time>
<desc>lat.=22.084927, lon.=104.212906, Alt.=245.130981m. Speed=0.036000m/h.</desc>
<speed>0.010000</speed>
</trkpt>
<trkpt lat="22.084925" lon="104.212906">
<ele>245.127075</ele>
<time>2011-04-26T10:40:50Z</time>
<desc>lat.=22.084925, lon.=104.212906, Alt.=245.127075m. Speed=0.288000m/h.</desc>
<speed>0.080000</speed>
</trkpt>
<trkpt lat="22.084925" lon="104.212914">
<ele>245.158325</ele>
<time>2011-04-26T10:40:55Z</time>
<desc>lat.=22.084925, lon.=104.212914, Alt.=245.158325m. Speed=0.684000m/h.</desc>
<speed>0.190000</speed>
</trkpt>
<trkpt lat="22.084917" lon="104.212914">
<ele>245.189575</ele>
<time>2011-04-26T10:41:00Z</time>
<desc>lat.=22.084917, lon.=104.212914, Alt.=245.189575m. Speed=0.072000m/h.</desc>
<speed>0.020000</speed>
</trkpt>
<trkpt lat="22.084919" lon="104.212914">
<ele>245.216919</ele>
<time>2011-04-26T10:41:05Z</time>
<desc>lat.=22.084919, lon.=104.212914, Alt.=245.216919m. Speed=0.180000m/h.</desc>
<speed>0.050000</speed>
</trkpt>
<trkpt lat="22.084919" lon="104.212914">
<ele>245.228638</ele>
<time>2011-04-26T10:41:10Z</time>
<desc>lat.=22.084919, lon.=104.212914, Alt.=245.228638m. Speed=0.216000m/h.</desc>
<speed>0.060000</speed>
</trkpt>
<trkpt lat="22.084913" lon="104.212914">
<ele>245.154419</ele>
<time>2011-04-26T10:41:15Z</time>
<desc>lat.=22.084913, lon.=104.212914, Alt.=245.154419m. Speed=0.396000m/h.</desc>
<speed>0.110000</speed>
</trkpt>
<trkpt lat="22.084908" lon="104.212921">
<ele>245.576294</ele>
<time>2011-04-26T10:41:20Z</time>
<desc>lat.=22.084908, lon.=104.212921, Alt.=245.576294m. Speed=1.260000m/h.</desc>
<speed>0.350000</speed>
</trkpt>
<trkpt lat="22.084908" lon="104.212975">
<ele>246.923950</ele>
<time>2011-04-26T10:41:25Z</time>
<desc>lat.=22.084908, lon.=104.212975, Alt.=246.923950m. Speed=2.412000m/h.</desc>
<speed>0.670000</speed>
</trkpt>
<trkpt lat="22.084911" lon="104.213020">
<ele>247.990356</ele>
<time>2011-04-26T10:41:30Z</time>
<desc>lat.=22.084911, lon.=104.213020, Alt.=247.990356m. Speed=1.872000m/h.</desc>
<speed>0.520000</speed>
</trkpt>
<trkpt lat="22.084929" lon="104.213036">
<ele>249.369263</ele>
<time>2011-04-26T10:41:35Z</time>
<desc>lat.=22.084929, lon.=104.213036, Alt.=249.369263m. Speed=1.116000m/h.</desc>
<speed>0.310000</speed>
</trkpt>
<trkpt lat="22.084942" lon="104.213066">
<ele>250.338013</ele>
<time>2011-04-26T10:41:40Z</time>
<desc>lat.=22.084942, lon.=104.213066, Alt.=250.338013m. Speed=0.900000m/h.</desc>
<speed>0.250000</speed>
</trkpt>
<trkpt lat="22.084949" lon="104.213074">
<ele>250.576294</ele>
<time>2011-04-26T10:41:45Z</time>
<desc>lat.=22.084949, lon.=104.213074, Alt.=250.576294m. Speed=0.756000m/h.</desc>
<speed>0.210000</speed>
</trkpt>
<trkpt lat="22.084953" lon="104.213089">
<ele>250.662231</ele>
<time>2011-04-26T10:41:50Z</time>
<desc>lat.=22.084953, lon.=104.213089, Alt.=250.662231m. Speed=0.468000m/h.</desc>
<speed>0.130000</speed>
</trkpt>
<trkpt lat="22.084955" lon="104.213097">
<ele>250.802856</ele>
<time>2011-04-26T10:41:55Z</time>
<desc>lat.=22.084955, lon.=104.213097, Alt.=250.802856m. Speed=0.468000m/h.</desc>
<speed>0.130000</speed>
</trkpt>
<trkpt lat="22.084951" lon="104.213097">
<ele>251.029419</ele>
<time>2011-04-26T10:42:00Z</time>
<desc>lat.=22.084951, lon.=104.213097, Alt.=251.029419m. Speed=0.288000m/h.</desc>
<speed>0.080000</speed>
</trkpt>
<trkpt lat="22.084949" lon="104.213097">
<ele>251.369263</ele>
<time>2011-04-26T10:42:05Z</time>
<desc>lat.=22.084949, lon.=104.213097, Alt.=251.369263m. Speed=0.144000m/h.</desc>
<speed>0.040000</speed>
</trkpt>
<trkpt lat="22.084949" lon="104.213097">
<ele>251.802856</ele>
<time>2011-04-26T10:42:10Z</time>
<desc>lat.=22.084949, lon.=104.213097, Alt.=251.802856m. Speed=0.144000m/h.</desc>
<speed>0.040000</speed>
</trkpt>
<trkpt lat="22.084948" lon="104.213104">
<ele>252.279419</ele>
<time>2011-04-26T10:42:15Z</time>
<desc>lat.=22.084948, lon.=104.213104, Alt.=252.279419m. Speed=0.324000m/h.</desc>
<speed>0.090000</speed>
</trkpt>
<trkpt lat="22.084949" lon="104.213104">
<ele>252.580200</ele>
<time>2011-04-26T10:42:20Z</time>
<desc>lat.=22.084949, lon.=104.213104, Alt.=252.580200m. Speed=0.288000m/h.</desc>
<speed>0.080000</speed>
</trkpt>
<trkpt lat="22.084949" lon="104.213104">
<ele>252.603638</ele>
<time>2011-04-26T10:42:25Z</time>
<desc>lat.=22.084949, lon.=104.213104, Alt.=252.603638m. Speed=0.324000m/h.</desc>
<speed>0.090000</speed>
</trkpt>
<trkpt lat="22.084949" lon="104.213104">
<ele>252.615356</ele>
<time>2011-04-26T10:42:30Z</time>
<desc>lat.=22.084949, lon.=104.213104, Alt.=252.615356m. Speed=0.036000m/h.</desc>
<speed>0.010000</speed>
</trkpt>
<trkpt lat="22.084948" lon="104.213097">
<ele>252.892700</ele>
<time>2011-04-26T10:42:35Z</time>
<desc>lat.=22.084948, lon.=104.213097, Alt.=252.892700m. Speed=0.036000m/h.</desc>
<speed>0.010000</speed>
</trkpt>
<trkpt lat="22.084948" lon="104.213089">
<ele>253.377075</ele>
<time>2011-04-26T10:42:40Z</time>
<desc>lat.=22.084948, lon.=104.213089, Alt.=253.377075m. Speed=0.000000m/h.</desc>
<speed>0.000000</speed>
</trkpt>
<trkpt lat="22.084946" lon="104.213104">
<ele>254.998169</ele>
<time>2011-04-26T10:42:45Z</time>
<desc>lat.=22.084946, lon.=104.213104, Alt.=254.998169m. Speed=0.072000m/h.</desc>
<speed>0.020000</speed>
</trkpt>
<trkpt lat="22.084944" lon="104.213104">
<ele>255.447388</ele>
<time>2011-04-26T10:42:50Z</time>
<desc>lat.=22.084944, lon.=104.213104, Alt.=255.447388m. Speed=0.000000m/h.</desc>
<speed>0.000000</speed>
</trkpt>
<trkpt lat="22.084948" lon="104.213104">
<ele>255.994263</ele>
<time>2011-04-26T10:42:55Z</time>
<desc>lat.=22.084948, lon.=104.213104, Alt.=255.994263m. Speed=0.036000m/h.</desc>
<speed>0.010000</speed>
</trkpt>
<trkpt lat="22.084946" lon="104.213104">
<ele>256.894775</ele>
<time>2011-04-26T10:43:00Z</time>
<desc>lat.=22.084946, lon.=104.213104, Alt.=256.894775m. Speed=0.000000m/h.</desc>
<speed>0.000000</speed>
</trkpt>
<trkpt lat="22.084946" lon="104.213112">
<ele>257.949463</ele>
<time>2011-04-26T10:43:05Z</time>
<desc>lat.=22.084946, lon.=104.213112, Alt.=257.949463m. Speed=0.000000m/h.</desc>
<speed>0.000000</speed>
</trkpt>
<trkpt lat="22.084946" lon="104.213104">
<ele>257.519775</ele>
<time>2011-04-26T10:43:10Z</time>
<desc>lat.=22.084946, lon.=104.213104, Alt.=257.519775m. Speed=0.108000m/h.</desc>
<speed>0.030000</speed>
</trkpt>
<trkpt lat="22.084946" lon="104.213104">
<ele>257.691650</ele>
<time>2011-04-26T10:43:15Z</time>
<desc>lat.=22.084946, lon.=104.213104, Alt.=257.691650m. Speed=0.036000m/h.</desc>
<speed>0.010000</speed>
</trkpt>
<trkpt lat="22.084946" lon="104.213104">
<ele>257.691650</ele>
<time>2011-04-26T10:43:20Z</time>
<desc>lat.=22.084946, lon.=104.213104, Alt.=257.691650m. Speed=0.000000m/h.</desc>
<speed>0.000000</speed>
</trkpt>
<trkpt lat="22.084946" lon="104.213104">
<ele>257.683838</ele>
<time>2011-04-26T10:43:25Z</time>
<desc>lat.=22.084946, lon.=104.213104, Alt.=257.683838m. Speed=0.144000m/h.</desc>
<speed>0.040000</speed>
</trkpt>
<trkpt lat="22.084946" lon="104.213104">
<ele>257.683838</ele>
<time>2011-04-26T10:43:30Z</time>
<desc>lat.=22.084946, lon.=104.213104, Alt.=257.683838m. Speed=0.072000m/h.</desc>
<speed>0.020000</speed>
</trkpt>
<trkpt lat="22.084946" lon="104.213104">
<ele>257.691650</ele>
<time>2011-04-26T10:43:35Z</time>
<desc>lat.=22.084946, lon.=104.213104, Alt.=257.691650m. Speed=0.000000m/h.</desc>
<speed>0.000000</speed>
</trkpt>
<trkpt lat="22.084946" lon="104.213104">
<ele>257.699463</ele>
<time>2011-04-26T10:43:40Z</time>
<desc>lat.=22.084946, lon.=104.213104, Alt.=257.699463m. Speed=0.108000m/h.</desc>
<speed>0.030000</speed>
</trkpt>
<trkpt lat="22.084946" lon="104.213104">
<ele>257.707275</ele>
<time>2011-04-26T10:43:45Z</time>
<desc>lat.=22.084946, lon.=104.213104, Alt.=257.707275m. Speed=0.000000m/h.</desc>
<speed>0.000000</speed>
</trkpt>
<trkpt lat="22.084946" lon="104.213104">
<ele>257.707275</ele>
<time>2011-04-26T10:43:50Z</time>
<desc>lat.=22.084946, lon.=104.213104, Alt.=257.707275m. Speed=0.000000m/h.</desc>
<speed>0.000000</speed>
</trkpt>
<trkpt lat="22.084946" lon="104.213104">
<ele>257.707275</ele>
<time>2011-04-26T10:43:55Z</time>
<desc>lat.=22.084946, lon.=104.213104, Alt.=257.707275m. Speed=0.072000m/h.</desc>
<speed>0.020000</speed>
</trkpt>
<trkpt lat="22.084946" lon="104.213104">
<ele>257.699463</ele>
<time>2011-04-26T10:44:00Z</time>
<desc>lat.=22.084946, lon.=104.213104, Alt.=257.699463m. Speed=0.036000m/h.</desc>
<speed>0.010000</speed>
</trkpt>
<trkpt lat="22.084946" lon="104.213104">
<ele>257.691650</ele>
<time>2011-04-26T10:44:05Z</time>
<desc>lat.=22.084946, lon.=104.213104, Alt.=257.691650m. Speed=0.000000m/h.</desc>
<speed>0.000000</speed>
</trkpt>
<trkpt lat="22.084946" lon="104.213104">
<ele>257.683838</ele>
<time>2011-04-26T10:44:10Z</time>
<desc>lat.=22.084946, lon.=104.213104, Alt.=257.683838m. Speed=0.396000m/h.</desc>
<speed>0.110000</speed>
</trkpt>
<trkpt lat="22.084946" lon="104.213104">
<ele>257.691650</ele>
<time>2011-04-26T10:44:15Z</time>
<desc>lat.=22.084946, lon.=104.213104, Alt.=257.691650m. Speed=4.716000m/h.</desc>
<speed>1.310000</speed>
</trkpt>
<trkpt lat="22.084940" lon="104.213196">
<ele>257.832275</ele>
<time>2011-04-26T10:44:20Z</time>
<desc>lat.=22.084940, lon.=104.213196, Alt.=257.832275m. Speed=7.560000m/h.</desc>
<speed>2.100000</speed>
</trkpt>
<trkpt lat="22.084938" lon="104.213318">
<ele>257.933838</ele>
<time>2011-04-26T10:44:25Z</time>
<desc>lat.=22.084938, lon.=104.213318, Alt.=257.933838m. Speed=10.188000m/h.</desc>
<speed>2.830000</speed>
</trkpt>
<trkpt lat="22.084929" lon="104.213463">
<ele>257.293213</ele>
<time>2011-04-26T10:44:30Z</time>
<desc>lat.=22.084929, lon.=104.213463, Alt.=257.293213m. Speed=12.600000m/h.</desc>
<speed>3.500000</speed>
</trkpt>
<trkpt lat="22.084902" lon="104.213692">
<ele>256.066650</ele>
<time>2011-04-26T10:44:35Z</time>
<desc>lat.=22.084902, lon.=104.213692, Alt.=256.066650m. Speed=22.139999m/h.</desc>
<speed>6.150000</speed>
</trkpt>
<trkpt lat="22.084764" lon="104.214035">
<ele>253.853638</ele>
<time>2011-04-26T10:44:40Z</time>
<desc>lat.=22.084764, lon.=104.214035, Alt.=253.853638m. Speed=32.076000m/h.</desc>
<speed>8.910000</speed>
</trkpt>
<trkpt lat="22.084515" lon="104.214455">
<ele>251.713013</ele>
<time>2011-04-26T10:44:45Z</time>
<desc>lat.=22.084515, lon.=104.214455, Alt.=251.713013m. Speed=39.779999m/h.</desc>
<speed>11.050000</speed>
</trkpt>
<trkpt lat="22.084145" lon="104.214867">
<ele>248.365356</ele>
<time>2011-04-26T10:44:50Z</time>
<desc>lat.=22.084145, lon.=104.214867, Alt.=248.365356m. Speed=42.155998m/h.</desc>
<speed>11.710000</speed>
</trkpt>
<trkpt lat="22.083719" lon="104.215195">
<ele>246.259888</ele>
<time>2011-04-26T10:44:55Z</time>
<desc>lat.=22.083719, lon.=104.215195, Alt.=246.259888m. Speed=38.160000m/h.</desc>
<speed>10.600000</speed>
</trkpt>
<trkpt lat="22.083344" lon="104.215462">
<ele>244.763794</ele>
<time>2011-04-26T10:45:00Z</time>
<desc>lat.=22.083344, lon.=104.215462, Alt.=244.763794m. Speed=34.380001m/h.</desc>
<speed>9.550000</speed>
</trkpt>
<trkpt lat="22.083023" lon="104.215767">
<ele>243.670044</ele>
<time>2011-04-26T10:45:05Z</time>
<desc>lat.=22.083023, lon.=104.215767, Alt.=243.670044m. Speed=34.056000m/h.</desc>
<speed>9.460000</speed>
</trkpt>
<trkpt lat="22.082745" lon="104.216133">
<ele>242.115356</ele>
<time>2011-04-26T10:45:10Z</time>
<desc>lat.=22.082745, lon.=104.216133, Alt.=242.115356m. Speed=33.264000m/h.</desc>
<speed>9.240000</speed>
</trkpt>
<trkpt lat="22.082577" lon="104.216492">
<ele>239.123169</ele>
<time>2011-04-26T10:45:15Z</time>
<desc>lat.=22.082577, lon.=104.216492, Alt.=239.123169m. Speed=29.016001m/h.</desc>
<speed>8.060000</speed>
</trkpt>
<trkpt lat="22.082655" lon="104.216850">
<ele>236.291138</ele>
<time>2011-04-26T10:45:20Z</time>
<desc>lat.=22.082655, lon.=104.216850, Alt.=236.291138m. Speed=20.879999m/h.</desc>
<speed>5.800000</speed>
</trkpt>
<trkpt lat="22.082800" lon="104.217110">
<ele>236.209106</ele>
<time>2011-04-26T10:45:25Z</time>
<desc>lat.=22.082800, lon.=104.217110, Alt.=236.209106m. Speed=24.695999m/h.</desc>
<speed>6.860000</speed>
</trkpt>
<trkpt lat="22.083010" lon="104.217430">
<ele>234.713013</ele>
<time>2011-04-26T10:45:30Z</time>
<desc>lat.=22.083010, lon.=104.217430, Alt.=234.713013m. Speed=33.264000m/h.</desc>
<speed>9.240000</speed>
</trkpt>
<trkpt lat="22.083138" lon="104.217926">
<ele>229.470825</ele>
<time>2011-04-26T10:45:35Z</time>
<desc>lat.=22.083138, lon.=104.217926, Alt.=229.470825m. Speed=41.112000m/h.</desc>
<speed>11.420000</speed>
</trkpt>
<trkpt lat="22.083302" lon="104.218369">
<ele>225.021606</ele>
<time>2011-04-26T10:45:40Z</time>
<desc>lat.=22.083302, lon.=104.218369, Alt.=225.021606m. Speed=35.568001m/h.</desc>
<speed>9.880000</speed>
</trkpt>
<trkpt lat="22.083704" lon="104.218704">
<ele>219.248169</ele>
<time>2011-04-26T10:45:45Z</time>
<desc>lat.=22.083704, lon.=104.218704, Alt.=219.248169m. Speed=45.972000m/h.</desc>
<speed>12.770000</speed>
</trkpt>
<trkpt lat="22.084116" lon="104.219147">
<ele>216.670044</ele>
<time>2011-04-26T10:45:50Z</time>
<desc>lat.=22.084116, lon.=104.219147, Alt.=216.670044m. Speed=44.316002m/h.</desc>
<speed>12.310001</speed>
</trkpt>
<trkpt lat="22.084375" lon="104.219627">
<ele>217.408325</ele>
<time>2011-04-26T10:45:55Z</time>
<desc>lat.=22.084375, lon.=104.219627, Alt.=217.408325m. Speed=36.756001m/h.</desc>
<speed>10.210000</speed>
</trkpt>
<trkpt lat="22.084528" lon="104.220032">
<ele>217.627075</ele>
<time>2011-04-26T10:46:00Z</time>
<desc>lat.=22.084528, lon.=104.220032, Alt.=217.627075m. Speed=26.639999m/h.</desc>
<speed>7.400000</speed>
</trkpt>
<trkpt lat="22.084574" lon="104.220306">
<ele>219.525513</ele>
<time>2011-04-26T10:46:05Z</time>
<desc>lat.=22.084574, lon.=104.220306, Alt.=219.525513m. Speed=16.596001m/h.</desc>
<speed>4.610000</speed>
</trkpt>
<trkpt lat="22.084585" lon="104.220474">
<ele>220.072388</ele>
<time>2011-04-26T10:46:10Z</time>
<desc>lat.=22.084585, lon.=104.220474, Alt.=220.072388m. Speed=10.080000m/h.</desc>
<speed>2.800000</speed>
</trkpt>
<trkpt lat="22.084635" lon="104.220612">
<ele>219.431763</ele>
<time>2011-04-26T10:46:15Z</time>
<desc>lat.=22.084635, lon.=104.220612, Alt.=219.431763m. Speed=12.024000m/h.</desc>
<speed>3.340000</speed>
</trkpt>
<trkpt lat="22.084681" lon="104.220787">
<ele>219.091919</ele>
<time>2011-04-26T10:46:20Z</time>
<desc>lat.=22.084681, lon.=104.220787, Alt.=219.091919m. Speed=15.048000m/h.</desc>
<speed>4.180000</speed>
</trkpt>
<trkpt lat="22.084724" lon="104.221001">
<ele>219.447388</ele>
<time>2011-04-26T10:46:25Z</time>
<desc>lat.=22.084724, lon.=104.221001, Alt.=219.447388m. Speed=16.056000m/h.</desc>
<speed>4.460000</speed>
</trkpt>
<trkpt lat="22.084768" lon="104.221214">
<ele>219.791138</ele>
<time>2011-04-26T10:46:30Z</time>
<desc>lat.=22.084768, lon.=104.221214, Alt.=219.791138m. Speed=16.091999m/h.</desc>
<speed>4.470000</speed>
</trkpt>
<trkpt lat="22.084839" lon="104.221420">
<ele>220.158325</ele>
<time>2011-04-26T10:46:35Z</time>
<desc>lat.=22.084839, lon.=104.221420, Alt.=220.158325m. Speed=15.408000m/h.</desc>
<speed>4.280000</speed>
</trkpt>
<trkpt lat="22.084888" lon="104.221611">
<ele>219.548950</ele>
<time>2011-04-26T10:46:40Z</time>
<desc>lat.=22.084888, lon.=104.221611, Alt.=219.548950m. Speed=13.824000m/h.</desc>
<speed>3.840000</speed>
</trkpt>
<trkpt lat="22.084929" lon="104.221779">
<ele>219.365356</ele>
<time>2011-04-26T10:46:45Z</time>
<desc>lat.=22.084929, lon.=104.221779, Alt.=219.365356m. Speed=12.096000m/h.</desc>
<speed>3.360000</speed>
</trkpt>
<trkpt lat="22.084982" lon="104.221962">
<ele>218.841919</ele>
<time>2011-04-26T10:46:50Z</time>
<desc>lat.=22.084982, lon.=104.221962, Alt.=218.841919m. Speed=14.904000m/h.</desc>
<speed>4.140000</speed>
</trkpt>
<trkpt lat="22.085024" lon="104.222168">
<ele>218.404419</ele>
<time>2011-04-26T10:46:55Z</time>
<desc>lat.=22.085024, lon.=104.222168, Alt.=218.404419m. Speed=15.768000m/h.</desc>
<speed>4.380000</speed>
</trkpt>
<trkpt lat="22.085072" lon="104.222382">
<ele>218.634888</ele>
<time>2011-04-26T10:47:00Z</time>
<desc>lat.=22.085072, lon.=104.222382, Alt.=218.634888m. Speed=15.876000m/h.</desc>
<speed>4.410000</speed>
</trkpt>
<trkpt lat="22.085117" lon="104.222595">
<ele>218.834106</ele>
<time>2011-04-26T10:47:05Z</time>
<desc>lat.=22.085117, lon.=104.222595, Alt.=218.834106m. Speed=15.408000m/h.</desc>
<speed>4.280000</speed>
</trkpt>
<trkpt lat="22.085176" lon="104.222794">
<ele>218.982544</ele>
<time>2011-04-26T10:47:10Z</time>
<desc>lat.=22.085176, lon.=104.222794, Alt.=218.982544m. Speed=15.768000m/h.</desc>
<speed>4.380000</speed>
</trkpt>
<trkpt lat="22.085239" lon="104.222992">
<ele>219.033325</ele>
<time>2011-04-26T10:47:15Z</time>
<desc>lat.=22.085239, lon.=104.222992, Alt.=219.033325m. Speed=17.063999m/h.</desc>
<speed>4.740000</speed>
</trkpt>
<trkpt lat="22.085295" lon="104.223228">
<ele>218.998169</ele>
<time>2011-04-26T10:47:20Z</time>
<desc>lat.=22.085295, lon.=104.223228, Alt.=218.998169m. Speed=18.323999m/h.</desc>
<speed>5.090000</speed>
</trkpt>
<trkpt lat="22.085329" lon="104.223480">
<ele>218.931763</ele>
<time>2011-04-26T10:47:25Z</time>
<desc>lat.=22.085329, lon.=104.223480, Alt.=218.931763m. Speed=18.792000m/h.</desc>
<speed>5.220000</speed>
</trkpt>
<trkpt lat="22.085390" lon="104.223732">
<ele>219.123169</ele>
<time>2011-04-26T10:47:30Z</time>
<desc>lat.=22.085390, lon.=104.223732, Alt.=219.123169m. Speed=19.440001m/h.</desc>
<speed>5.400000</speed>
</trkpt>
<trkpt lat="22.085445" lon="104.223953">
<ele>218.447388</ele>
<time>2011-04-26T10:47:35Z</time>
<desc>lat.=22.085445, lon.=104.223953, Alt.=218.447388m. Speed=17.820000m/h.</desc>
<speed>4.950000</speed>
</trkpt>
<trkpt lat="22.085505" lon="104.224167">
<ele>218.763794</ele>
<time>2011-04-26T10:47:40Z</time>
<desc>lat.=22.085505, lon.=104.224167, Alt.=218.763794m. Speed=16.559999m/h.</desc>
<speed>4.600000</speed>
</trkpt>
<trkpt lat="22.085567" lon="104.224411">
<ele>218.681763</ele>
<time>2011-04-26T10:47:45Z</time>
<desc>lat.=22.085567, lon.=104.224411, Alt.=218.681763m. Speed=19.691999m/h.</desc>
<speed>5.470000</speed>
</trkpt>
<trkpt lat="22.085638" lon="104.224663">
<ele>217.529419</ele>
<time>2011-04-26T10:47:50Z</time>
<desc>lat.=22.085638, lon.=104.224663, Alt.=217.529419m. Speed=21.384001m/h.</desc>
<speed>5.940000</speed>
</trkpt>
<trkpt lat="22.085787" lon="104.225067">
<ele>216.005981</ele>
<time>2011-04-26T10:47:55Z</time>
<desc>lat.=22.085787, lon.=104.225067, Alt.=216.005981m. Speed=27.972000m/h.</desc>
<speed>7.770000</speed>
</trkpt>
<trkpt lat="22.086048" lon="104.225372">
<ele>214.236450</ele>
<time>2011-04-26T10:48:00Z</time>
<desc>lat.=22.086048, lon.=104.225372, Alt.=214.236450m. Speed=27.792000m/h.</desc>
<speed>7.720000</speed>
</trkpt>
<trkpt lat="22.086321" lon="104.225586">
<ele>212.494263</ele>
<time>2011-04-26T10:48:05Z</time>
<desc>lat.=22.086321, lon.=104.225586, Alt.=212.494263m. Speed=24.875999m/h.</desc>
<speed>6.910000</speed>
</trkpt>
<trkpt lat="22.086573" lon="104.225761">
<ele>209.162231</ele>
<time>2011-04-26T10:48:10Z</time>
<desc>lat.=22.086573, lon.=104.225761, Alt.=209.162231m. Speed=24.372000m/h.</desc>
<speed>6.770000</speed>
</trkpt>
<trkpt lat="22.086811" lon="104.225983">
<ele>207.548950</ele>
<time>2011-04-26T10:48:15Z</time>
<desc>lat.=22.086811, lon.=104.225983, Alt.=207.548950m. Speed=26.604000m/h.</desc>
<speed>7.390000</speed>
</trkpt>
<trkpt lat="22.087009" lon="104.226303">
<ele>205.689575</ele>
<time>2011-04-26T10:48:20Z</time>
<desc>lat.=22.087009, lon.=104.226303, Alt.=205.689575m. Speed=26.028000m/h.</desc>
<speed>7.230000</speed>
</trkpt>
<trkpt lat="22.087122" lon="104.226608">
<ele>206.588013</ele>
<time>2011-04-26T10:48:25Z</time>
<desc>lat.=22.087122, lon.=104.226608, Alt.=206.588013m. Speed=21.780001m/h.</desc>
<speed>6.050000</speed>
</trkpt>
<trkpt lat="22.087187" lon="104.226860">
<ele>207.392700</ele>
<time>2011-04-26T10:48:30Z</time>
<desc>lat.=22.087187, lon.=104.226860, Alt.=207.392700m. Speed=17.172001m/h.</desc>
<speed>4.770000</speed>
</trkpt>
<trkpt lat="22.087234" lon="104.227081">
<ele>207.986450</ele>
<time>2011-04-26T10:48:35Z</time>
<desc>lat.=22.087234, lon.=104.227081, Alt.=207.986450m. Speed=17.459999m/h.</desc>
<speed>4.850000</speed>
</trkpt>
<trkpt lat="22.087254" lon="104.227295">
<ele>209.181763</ele>
<time>2011-04-26T10:48:40Z</time>
<desc>lat.=22.087254, lon.=104.227295, Alt.=209.181763m. Speed=15.408000m/h.</desc>
<speed>4.280000</speed>
</trkpt>
<trkpt lat="22.087267" lon="104.227493">
<ele>209.744263</ele>
<time>2011-04-26T10:48:45Z</time>
<desc>lat.=22.087267, lon.=104.227493, Alt.=209.744263m. Speed=15.840000m/h.</desc>
<speed>4.400000</speed>
</trkpt>
<trkpt lat="22.087275" lon="104.227692">
<ele>210.283325</ele>
<time>2011-04-26T10:48:50Z</time>
<desc>lat.=22.087275, lon.=104.227692, Alt.=210.283325m. Speed=12.492000m/h.</desc>
<speed>3.470000</speed>
</trkpt>
<trkpt lat="22.087238" lon="104.227875">
<ele>211.435669</ele>
<time>2011-04-26T10:48:55Z</time>
<desc>lat.=22.087238, lon.=104.227875, Alt.=211.435669m. Speed=12.816000m/h.</desc>
<speed>3.560000</speed>
</trkpt>
<trkpt lat="22.087179" lon="104.228012">
<ele>213.154419</ele>
<time>2011-04-26T10:49:00Z</time>
<desc>lat.=22.087179, lon.=104.228012, Alt.=213.154419m. Speed=9.864000m/h.</desc>
<speed>2.740000</speed>
</trkpt>
<trkpt lat="22.087112" lon="104.228127">
<ele>214.521606</ele>
<time>2011-04-26T10:49:05Z</time>
<desc>lat.=22.087112, lon.=104.228127, Alt.=214.521606m. Speed=11.628000m/h.</desc>
<speed>3.230000</speed>
</trkpt>
<trkpt lat="22.087051" lon="104.228279">
<ele>215.904419</ele>
<time>2011-04-26T10:49:10Z</time>
<desc>lat.=22.087051, lon.=104.228279, Alt.=215.904419m. Speed=11.448000m/h.</desc>
<speed>3.180000</speed>
</trkpt>
<trkpt lat="22.086975" lon="104.228424">
<ele>216.173950</ele>
<time>2011-04-26T10:49:15Z</time>
<desc>lat.=22.086975, lon.=104.228424, Alt.=216.173950m. Speed=9.900000m/h.</desc>
<speed>2.750000</speed>
</trkpt>
<trkpt lat="22.086939" lon="104.228508">
<ele>217.900513</ele>
<time>2011-04-26T10:49:20Z</time>
<desc>lat.=22.086939, lon.=104.228508, Alt.=217.900513m. Speed=5.580000m/h.</desc>
<speed>1.550000</speed>
</trkpt>
<trkpt lat="22.086899" lon="104.228622">
<ele>219.880981</ele>
<time>2011-04-26T10:49:25Z</time>
<desc>lat.=22.086899, lon.=104.228622, Alt.=219.880981m. Speed=5.976000m/h.</desc>
<speed>1.660000</speed>
</trkpt>
<trkpt lat="22.086887" lon="104.228722">
<ele>221.591919</ele>
<time>2011-04-26T10:49:30Z</time>
<desc>lat.=22.086887, lon.=104.228722, Alt.=221.591919m. Speed=6.912000m/h.</desc>
<speed>1.920000</speed>
</trkpt>
<trkpt lat="22.086866" lon="104.228836">
<ele>223.798950</ele>
<time>2011-04-26T10:49:35Z</time>
<desc>lat.=22.086866, lon.=104.228836, Alt.=223.798950m. Speed=7.308000m/h.</desc>
<speed>2.030000</speed>
</trkpt>
<trkpt lat="22.086861" lon="104.228951">
<ele>225.795044</ele>
<time>2011-04-26T10:49:40Z</time>
<desc>lat.=22.086861, lon.=104.228951, Alt.=225.795044m. Speed=7.416000m/h.</desc>
<speed>2.060000</speed>
</trkpt>
<trkpt lat="22.086853" lon="104.229073">
<ele>225.240356</ele>
<time>2011-04-26T10:49:45Z</time>
<desc>lat.=22.086853, lon.=104.229073, Alt.=225.240356m. Speed=6.768000m/h.</desc>
<speed>1.880000</speed>
</trkpt>
<trkpt lat="22.086845" lon="104.229210">
<ele>225.130981</ele>
<time>2011-04-26T10:49:50Z</time>
<desc>lat.=22.086845, lon.=104.229210, Alt.=225.130981m. Speed=8.280000m/h.</desc>
<speed>2.300000</speed>
</trkpt>
<trkpt lat="22.086834" lon="104.229347">
<ele>224.880981</ele>
<time>2011-04-26T10:49:55Z</time>
<desc>lat.=22.086834, lon.=104.229347, Alt.=224.880981m. Speed=10.116000m/h.</desc>
<speed>2.810000</speed>
</trkpt>
<trkpt lat="22.086821" lon="104.229500">
<ele>224.955200</ele>
<time>2011-04-26T10:50:00Z</time>
<desc>lat.=22.086821, lon.=104.229500, Alt.=224.955200m. Speed=9.396000m/h.</desc>
<speed>2.610000</speed>
</trkpt>
<trkpt lat="22.086809" lon="104.229630">
<ele>224.693481</ele>
<time>2011-04-26T10:50:05Z</time>
<desc>lat.=22.086809, lon.=104.229630, Alt.=224.693481m. Speed=7.848000m/h.</desc>
<speed>2.180000</speed>
</trkpt>
<trkpt lat="22.086784" lon="104.229767">
<ele>222.728638</ele>
<time>2011-04-26T10:50:10Z</time>
<desc>lat.=22.086784, lon.=104.229767, Alt.=222.728638m. Speed=10.404000m/h.</desc>
<speed>2.890000</speed>
</trkpt>
<trkpt lat="22.086775" lon="104.229904">
<ele>223.365356</ele>
<time>2011-04-26T10:50:15Z</time>
<desc>lat.=22.086775, lon.=104.229904, Alt.=223.365356m. Speed=9.216000m/h.</desc>
<speed>2.560000</speed>
</trkpt>
<trkpt lat="22.086765" lon="104.230011">
<ele>224.853638</ele>
<time>2011-04-26T10:50:20Z</time>
<desc>lat.=22.086765, lon.=104.230011, Alt.=224.853638m. Speed=6.372000m/h.</desc>
<speed>1.770000</speed>
</trkpt>
<trkpt lat="22.086752" lon="104.230110">
<ele>225.818481</ele>
<time>2011-04-26T10:50:25Z</time>
<desc>lat.=22.086752, lon.=104.230110, Alt.=225.818481m. Speed=7.056000m/h.</desc>
<speed>1.960000</speed>
</trkpt>
<trkpt lat="22.086737" lon="104.230217">
<ele>226.306763</ele>
<time>2011-04-26T10:50:30Z</time>
<desc>lat.=22.086737, lon.=104.230217, Alt.=226.306763m. Speed=7.704000m/h.</desc>
<speed>2.140000</speed>
</trkpt>
<trkpt lat="22.086727" lon="104.230316">
<ele>227.763794</ele>
<time>2011-04-26T10:50:35Z</time>
<desc>lat.=22.086727, lon.=104.230316, Alt.=227.763794m. Speed=9.000000m/h.</desc>
<speed>2.500000</speed>
</trkpt>
<trkpt lat="22.086733" lon="104.230408">
<ele>229.545044</ele>
<time>2011-04-26T10:50:40Z</time>
<desc>lat.=22.086733, lon.=104.230408, Alt.=229.545044m. Speed=6.156000m/h.</desc>
<speed>1.710000</speed>
</trkpt>
<trkpt lat="22.086784" lon="104.230515">
<ele>227.068481</ele>
<time>2011-04-26T10:50:45Z</time>
<desc>lat.=22.086784, lon.=104.230515, Alt.=227.068481m. Speed=7.200000m/h.</desc>
<speed>2.000000</speed>
</trkpt>
<trkpt lat="22.086843" lon="104.230621">
<ele>225.259888</ele>
<time>2011-04-26T10:50:50Z</time>
<desc>lat.=22.086843, lon.=104.230621, Alt.=225.259888m. Speed=9.864000m/h.</desc>
<speed>2.740000</speed>
</trkpt>
<trkpt lat="22.086927" lon="104.230751">
<ele>224.189575</ele>
<time>2011-04-26T10:50:55Z</time>
<desc>lat.=22.086927, lon.=104.230751, Alt.=224.189575m. Speed=11.124000m/h.</desc>
<speed>3.090000</speed>
</trkpt>
<trkpt lat="22.087004" lon="104.230865">
<ele>223.845825</ele>
<time>2011-04-26T10:51:00Z</time>
<desc>lat.=22.087004, lon.=104.230865, Alt.=223.845825m. Speed=10.080000m/h.</desc>
<speed>2.800000</speed>
</trkpt>
<trkpt lat="22.087061" lon="104.230972">
<ele>224.252075</ele>
<time>2011-04-26T10:51:05Z</time>
<desc>lat.=22.087061, lon.=104.230972, Alt.=224.252075m. Speed=9.432000m/h.</desc>
<speed>2.620000</speed>
</trkpt>
<trkpt lat="22.087133" lon="104.231056">
<ele>224.775513</ele>
<time>2011-04-26T10:51:10Z</time>
<desc>lat.=22.087133, lon.=104.231056, Alt.=224.775513m. Speed=9.108000m/h.</desc>
<speed>2.530000</speed>
</trkpt>
<trkpt lat="22.087219" lon="104.231171">
<ele>225.326294</ele>
<time>2011-04-26T10:51:15Z</time>
<desc>lat.=22.087219, lon.=104.231171, Alt.=225.326294m. Speed=11.736000m/h.</desc>
<speed>3.260000</speed>
</trkpt>
<trkpt lat="22.087317" lon="104.231293">
<ele>225.341919</ele>
<time>2011-04-26T10:51:20Z</time>
<desc>lat.=22.087317, lon.=104.231293, Alt.=225.341919m. Speed=11.556000m/h.</desc>
<speed>3.210000</speed>
</trkpt>
<trkpt lat="22.087402" lon="104.231445">
<ele>225.150513</ele>
<time>2011-04-26T10:51:25Z</time>
<desc>lat.=22.087402, lon.=104.231445, Alt.=225.150513m. Speed=11.916000m/h.</desc>
<speed>3.310000</speed>
</trkpt>
<trkpt lat="22.087549" lon="104.231613">
<ele>225.650513</ele>
<time>2011-04-26T10:51:30Z</time>
<desc>lat.=22.087549, lon.=104.231613, Alt.=225.650513m. Speed=16.308001m/h.</desc>
<speed>4.530000</speed>
</trkpt>
<trkpt lat="22.087734" lon="104.231819">
<ele>223.720825</ele>
<time>2011-04-26T10:51:35Z</time>
<desc>lat.=22.087734, lon.=104.231819, Alt.=223.720825m. Speed=20.268000m/h.</desc>
<speed>5.630000</speed>
</trkpt>
<trkpt lat="22.087879" lon="104.232056">
<ele>223.224731</ele>
<time>2011-04-26T10:51:40Z</time>
<desc>lat.=22.087879, lon.=104.232056, Alt.=223.224731m. Speed=22.968000m/h.</desc>
<speed>6.380000</speed>
</trkpt>
<trkpt lat="22.088039" lon="104.232376">
<ele>222.638794</ele>
<time>2011-04-26T10:51:45Z</time>
<desc>lat.=22.088039, lon.=104.232376, Alt.=222.638794m. Speed=28.007999m/h.</desc>
<speed>7.780000</speed>
</trkpt>
<trkpt lat="22.088186" lon="104.232780">
<ele>221.537231</ele>
<time>2011-04-26T10:51:50Z</time>
<desc>lat.=22.088186, lon.=104.232780, Alt.=221.537231m. Speed=33.768002m/h.</desc>
<speed>9.380000</speed>
</trkpt>
<trkpt lat="22.088219" lon="104.233307">
<ele>220.236450</ele>
<time>2011-04-26T10:51:55Z</time>
<desc>lat.=22.088219, lon.=104.233307, Alt.=220.236450m. Speed=43.560001m/h.</desc>
<speed>12.100000</speed>
</trkpt>
<trkpt lat="22.088154" lon="104.233948">
<ele>219.271606</ele>
<time>2011-04-26T10:52:00Z</time>
<desc>lat.=22.088154, lon.=104.233948, Alt.=219.271606m. Speed=43.992001m/h.</desc>
<speed>12.220000</speed>
</trkpt>
<trkpt lat="22.088209" lon="104.234482">
<ele>217.505981</ele>
<time>2011-04-26T10:52:05Z</time>
<desc>lat.=22.088209, lon.=104.234482, Alt.=217.505981m. Speed=35.964001m/h.</desc>
<speed>9.990000</speed>
</trkpt>
<trkpt lat="22.088488" lon="104.234825">
<ele>215.283325</ele>
<time>2011-04-26T10:52:10Z</time>
<desc>lat.=22.088488, lon.=104.234825, Alt.=215.283325m. Speed=30.959999m/h.</desc>
<speed>8.600000</speed>
</trkpt>
<trkpt lat="22.088821" lon="104.234978">
<ele>213.607544</ele>
<time>2011-04-26T10:52:15Z</time>
<desc>lat.=22.088821, lon.=104.234978, Alt.=213.607544m. Speed=26.316000m/h.</desc>
<speed>7.310000</speed>
</trkpt>
<trkpt lat="22.089140" lon="104.235275">
<ele>210.513794</ele>
<time>2011-04-26T10:52:20Z</time>
<desc>lat.=22.089140, lon.=104.235275, Alt.=210.513794m. Speed=32.363998m/h.</desc>
<speed>8.990000</speed>
</trkpt>
<trkpt lat="22.089251" lon="104.235672">
<ele>208.857544</ele>
<time>2011-04-26T10:52:25Z</time>
<desc>lat.=22.089251, lon.=104.235672, Alt.=208.857544m. Speed=30.312000m/h.</desc>
<speed>8.420000</speed>
</trkpt>
<trkpt lat="22.089317" lon="104.236046">
<ele>208.123169</ele>
<time>2011-04-26T10:52:30Z</time>
<desc>lat.=22.089317, lon.=104.236046, Alt.=208.123169m. Speed=27.252001m/h.</desc>
<speed>7.570000</speed>
</trkpt>
<trkpt lat="22.089342" lon="104.236389">
<ele>206.869263</ele>
<time>2011-04-26T10:52:35Z</time>
<desc>lat.=22.089342, lon.=104.236389, Alt.=206.869263m. Speed=24.011999m/h.</desc>
<speed>6.670000</speed>
</trkpt>
<trkpt lat="22.089376" lon="104.236732">
<ele>206.619263</ele>
<time>2011-04-26T10:52:40Z</time>
<desc>lat.=22.089376, lon.=104.236732, Alt.=206.619263m. Speed=23.040001m/h.</desc>
<speed>6.400000</speed>
</trkpt>
<trkpt lat="22.089397" lon="104.237030">
<ele>205.443481</ele>
<time>2011-04-26T10:52:45Z</time>
<desc>lat.=22.089397, lon.=104.237030, Alt.=205.443481m. Speed=23.004000m/h.</desc>
<speed>6.390000</speed>
</trkpt>
<trkpt lat="22.089441" lon="104.237343">
<ele>203.951294</ele>
<time>2011-04-26T10:52:50Z</time>
<desc>lat.=22.089441, lon.=104.237343, Alt.=203.951294m. Speed=23.256001m/h.</desc>
<speed>6.460000</speed>
</trkpt>
<trkpt lat="22.089493" lon="104.237640">
<ele>203.216919</ele>
<time>2011-04-26T10:52:55Z</time>
<desc>lat.=22.089493, lon.=104.237640, Alt.=203.216919m. Speed=22.752001m/h.</desc>
<speed>6.320000</speed>
</trkpt>
<trkpt lat="22.089533" lon="104.237930">
<ele>202.158325</ele>
<time>2011-04-26T10:53:00Z</time>
<desc>lat.=22.089533, lon.=104.237930, Alt.=202.158325m. Speed=21.275999m/h.</desc>
<speed>5.910000</speed>
</trkpt>
<trkpt lat="22.089567" lon="104.238228">
<ele>201.193481</ele>
<time>2011-04-26T10:53:05Z</time>
<desc>lat.=22.089567, lon.=104.238228, Alt.=201.193481m. Speed=21.455999m/h.</desc>
<speed>5.960000</speed>
</trkpt>
<trkpt lat="22.089602" lon="104.238525">
<ele>199.806763</ele>
<time>2011-04-26T10:53:10Z</time>
<desc>lat.=22.089602, lon.=104.238525, Alt.=199.806763m. Speed=21.528000m/h.</desc>
<speed>5.980000</speed>
</trkpt>
<trkpt lat="22.089634" lon="104.238800">
<ele>199.162231</ele>
<time>2011-04-26T10:53:15Z</time>
<desc>lat.=22.089634, lon.=104.238800, Alt.=199.162231m. Speed=19.764000m/h.</desc>
<speed>5.490000</speed>
</trkpt>
<trkpt lat="22.089666" lon="104.239044">
<ele>199.822388</ele>
<time>2011-04-26T10:53:20Z</time>
<desc>lat.=22.089666, lon.=104.239044, Alt.=199.822388m. Speed=16.452000m/h.</desc>
<speed>4.570000</speed>
</trkpt>
<trkpt lat="22.089706" lon="104.239250">
<ele>200.197388</ele>
<time>2011-04-26T10:53:25Z</time>
<desc>lat.=22.089706, lon.=104.239250, Alt.=200.197388m. Speed=14.328000m/h.</desc>
<speed>3.980000</speed>
</trkpt>
<trkpt lat="22.089756" lon="104.239441">
<ele>199.545044</ele>
<time>2011-04-26T10:53:30Z</time>
<desc>lat.=22.089756, lon.=104.239441, Alt.=199.545044m. Speed=13.392000m/h.</desc>
<speed>3.720000</speed>
</trkpt>
<trkpt lat="22.089798" lon="104.239616">
<ele>201.763794</ele>
<time>2011-04-26T10:53:35Z</time>
<desc>lat.=22.089798, lon.=104.239616, Alt.=201.763794m. Speed=15.048000m/h.</desc>
<speed>4.180000</speed>
</trkpt>
<trkpt lat="22.089857" lon="104.239822">
<ele>203.388794</ele>
<time>2011-04-26T10:53:40Z</time>
<desc>lat.=22.089857, lon.=104.239822, Alt.=203.388794m. Speed=16.056000m/h.</desc>
<speed>4.460000</speed>
</trkpt>
<trkpt lat="22.089897" lon="104.240044">
<ele>205.732544</ele>
<time>2011-04-26T10:53:45Z</time>
<desc>lat.=22.089897, lon.=104.240044, Alt.=205.732544m. Speed=20.448000m/h.</desc>
<speed>5.680000</speed>
</trkpt>
<trkpt lat="22.089819" lon="104.240341">
<ele>208.115356</ele>
<time>2011-04-26T10:53:50Z</time>
<desc>lat.=22.089819, lon.=104.240341, Alt.=208.115356m. Speed=26.172001m/h.</desc>
<speed>7.270000</speed>
</trkpt>
<trkpt lat="22.089685" lon="104.240677">
<ele>210.306763</ele>
<time>2011-04-26T10:53:55Z</time>
<desc>lat.=22.089685, lon.=104.240677, Alt.=210.306763m. Speed=26.820000m/h.</desc>
<speed>7.450000</speed>
</trkpt>
<trkpt lat="22.089512" lon="104.241051">
<ele>212.091919</ele>
<time>2011-04-26T10:54:00Z</time>
<desc>lat.=22.089512, lon.=104.241051, Alt.=212.091919m. Speed=28.188000m/h.</desc>
<speed>7.830000</speed>
</trkpt>
<trkpt lat="22.089359" lon="104.241379">
<ele>213.986450</ele>
<time>2011-04-26T10:54:05Z</time>
<desc>lat.=22.089359, lon.=104.241379, Alt.=213.986450m. Speed=24.732000m/h.</desc>
<speed>6.870000</speed>
</trkpt>
<trkpt lat="22.089231" lon="104.241676">
<ele>215.947388</ele>
<time>2011-04-26T10:54:10Z</time>
<desc>lat.=22.089231, lon.=104.241676, Alt.=215.947388m. Speed=22.968000m/h.</desc>
<speed>6.380000</speed>
</trkpt>
<trkpt lat="22.089119" lon="104.241943">
<ele>217.787231</ele>
<time>2011-04-26T10:54:15Z</time>
<desc>lat.=22.089119, lon.=104.241943, Alt.=217.787231m. Speed=20.556000m/h.</desc>
<speed>5.710000</speed>
</trkpt>
<trkpt lat="22.089008" lon="104.242180">
<ele>219.685669</ele>
<time>2011-04-26T10:54:20Z</time>
<desc>lat.=22.089008, lon.=104.242180, Alt.=219.685669m. Speed=19.007999m/h.</desc>
<speed>5.280000</speed>
</trkpt>
<trkpt lat="22.088930" lon="104.242432">
<ele>221.084106</ele>
<time>2011-04-26T10:54:25Z</time>
<desc>lat.=22.088930, lon.=104.242432, Alt.=221.084106m. Speed=19.332001m/h.</desc>
<speed>5.370000</speed>
</trkpt>
<trkpt lat="22.088823" lon="104.242676">
<ele>222.158325</ele>
<time>2011-04-26T10:54:30Z</time>
<desc>lat.=22.088823, lon.=104.242676, Alt.=222.158325m. Speed=19.799999m/h.</desc>
<speed>5.500000</speed>
</trkpt>
<trkpt lat="22.088724" lon="104.242912">
<ele>223.158325</ele>
<time>2011-04-26T10:54:35Z</time>
<desc>lat.=22.088724, lon.=104.242912, Alt.=223.158325m. Speed=17.316000m/h.</desc>
<speed>4.810000</speed>
</trkpt>
<trkpt lat="22.088642" lon="104.243111">
<ele>223.877075</ele>
<time>2011-04-26T10:54:40Z</time>
<desc>lat.=22.088642, lon.=104.243111, Alt.=223.877075m. Speed=14.652000m/h.</desc>
<speed>4.070000</speed>
</trkpt>
<trkpt lat="22.088562" lon="104.243294">
<ele>225.205200</ele>
<time>2011-04-26T10:54:45Z</time>
<desc>lat.=22.088562, lon.=104.243294, Alt.=225.205200m. Speed=15.552000m/h.</desc>
<speed>4.320000</speed>
</trkpt>
<trkpt lat="22.088490" lon="104.243462">
<ele>225.662231</ele>
<time>2011-04-26T10:54:50Z</time>
<desc>lat.=22.088490, lon.=104.243462, Alt.=225.662231m. Speed=11.628000m/h.</desc>
<speed>3.230000</speed>
</trkpt>
<trkpt lat="22.088430" lon="104.243584">
<ele>225.943481</ele>
<time>2011-04-26T10:54:55Z</time>
<desc>lat.=22.088430, lon.=104.243584, Alt.=225.943481m. Speed=8.784000m/h.</desc>
<speed>2.440000</speed>
</trkpt>
<trkpt lat="22.088388" lon="104.243706">
<ele>225.974731</ele>
<time>2011-04-26T10:55:00Z</time>
<desc>lat.=22.088388, lon.=104.243706, Alt.=225.974731m. Speed=9.504000m/h.</desc>
<speed>2.640000</speed>
</trkpt>
<trkpt lat="22.088348" lon="104.243835">
<ele>225.900513</ele>
<time>2011-04-26T10:55:05Z</time>
<desc>lat.=22.088348, lon.=104.243835, Alt.=225.900513m. Speed=10.512000m/h.</desc>
<speed>2.920000</speed>
</trkpt>
<trkpt lat="22.088322" lon="104.243965">
<ele>225.662231</ele>
<time>2011-04-26T10:55:10Z</time>
<desc>lat.=22.088322, lon.=104.243965, Alt.=225.662231m. Speed=8.460000m/h.</desc>
<speed>2.350000</speed>
</trkpt>
<trkpt lat="22.088308" lon="104.244102">
<ele>225.158325</ele>
<time>2011-04-26T10:55:15Z</time>
<desc>lat.=22.088308, lon.=104.244102, Alt.=225.158325m. Speed=6.192000m/h.</desc>
<speed>1.720000</speed>
</trkpt>
<trkpt lat="22.088276" lon="104.244225">
<ele>225.310669</ele>
<time>2011-04-26T10:55:20Z</time>
<desc>lat.=22.088276, lon.=104.244225, Alt.=225.310669m. Speed=7.812000m/h.</desc>
<speed>2.170000</speed>
</trkpt>
<trkpt lat="22.088266" lon="104.244347">
<ele>224.814575</ele>
<time>2011-04-26T10:55:25Z</time>
<desc>lat.=22.088266, lon.=104.244347, Alt.=224.814575m. Speed=7.416000m/h.</desc>
<speed>2.060000</speed>
</trkpt>
<trkpt lat="22.088289" lon="104.244461">
<ele>223.763794</ele>
<time>2011-04-26T10:55:30Z</time>
<desc>lat.=22.088289, lon.=104.244461, Alt.=223.763794m. Speed=3.708000m/h.</desc>
<speed>1.030000</speed>
</trkpt>
<trkpt lat="22.088291" lon="104.244537">
<ele>221.783325</ele>
<time>2011-04-26T10:55:35Z</time>
<desc>lat.=22.088291, lon.=104.244537, Alt.=221.783325m. Speed=3.420000m/h.</desc>
<speed>0.950000</speed>
</trkpt>
<trkpt lat="22.088297" lon="104.244568">
<ele>221.287231</ele>
<time>2011-04-26T10:55:40Z</time>
<desc>lat.=22.088297, lon.=104.244568, Alt.=221.287231m. Speed=0.432000m/h.</desc>
<speed>0.120000</speed>
</trkpt>
<trkpt lat="22.088297" lon="104.244568">
<ele>221.638794</ele>
<time>2011-04-26T10:55:45Z</time>
<desc>lat.=22.088297, lon.=104.244568, Alt.=221.638794m. Speed=0.468000m/h.</desc>
<speed>0.130000</speed>
</trkpt>
<trkpt lat="22.088291" lon="104.244568">
<ele>221.716919</ele>
<time>2011-04-26T10:55:50Z</time>
<desc>lat.=22.088291, lon.=104.244568, Alt.=221.716919m. Speed=0.792000m/h.</desc>
<speed>0.220000</speed>
</trkpt>
<trkpt lat="22.088282" lon="104.244568">
<ele>221.677856</ele>
<time>2011-04-26T10:55:55Z</time>
<desc>lat.=22.088282, lon.=104.244568, Alt.=221.677856m. Speed=0.648000m/h.</desc>
<speed>0.180000</speed>
</trkpt>
<trkpt lat="22.088270" lon="104.244576">
<ele>221.607544</ele>
<time>2011-04-26T10:56:00Z</time>
<desc>lat.=22.088270, lon.=104.244576, Alt.=221.607544m. Speed=1.008000m/h.</desc>
<speed>0.280000</speed>
</trkpt>
<trkpt lat="22.088257" lon="104.244576">
<ele>221.541138</ele>
<time>2011-04-26T10:56:05Z</time>
<desc>lat.=22.088257, lon.=104.244576, Alt.=221.541138m. Speed=1.116000m/h.</desc>
<speed>0.310000</speed>
</trkpt>
<trkpt lat="22.088245" lon="104.244576">
<ele>221.451294</ele>
<time>2011-04-26T10:56:10Z</time>
<desc>lat.=22.088245, lon.=104.244576, Alt.=221.451294m. Speed=0.900000m/h.</desc>
<speed>0.250000</speed>
</trkpt>
<trkpt lat="22.088234" lon="104.244576">
<ele>221.341919</ele>
<time>2011-04-26T10:56:15Z</time>
<desc>lat.=22.088234, lon.=104.244576, Alt.=221.341919m. Speed=0.576000m/h.</desc>
<speed>0.160000</speed>
</trkpt>
<trkpt lat="22.088230" lon="104.244576">
<ele>221.201294</ele>
<time>2011-04-26T10:56:20Z</time>
<desc>lat.=22.088230, lon.=104.244576, Alt.=221.201294m. Speed=0.180000m/h.</desc>
<speed>0.050000</speed>
</trkpt>
<trkpt lat="22.088232" lon="104.244583">
<ele>221.052856</ele>
<time>2011-04-26T10:56:25Z</time>
<desc>lat.=22.088232, lon.=104.244583, Alt.=221.052856m. Speed=0.216000m/h.</desc>
<speed>0.060000</speed>
</trkpt>
<trkpt lat="22.088234" lon="104.244583">
<ele>220.841919</ele>
<time>2011-04-26T10:56:30Z</time>
<desc>lat.=22.088234, lon.=104.244583, Alt.=220.841919m. Speed=0.252000m/h.</desc>
<speed>0.070000</speed>
</trkpt>
<trkpt lat="22.088236" lon="104.244583">
<ele>220.619263</ele>
<time>2011-04-26T10:56:35Z</time>
<desc>lat.=22.088236, lon.=104.244583, Alt.=220.619263m. Speed=0.036000m/h.</desc>
<speed>0.010000</speed>
</trkpt>
<trkpt lat="22.088236" lon="104.244583">
<ele>220.568481</ele>
<time>2011-04-26T10:56:40Z</time>
<desc>lat.=22.088236, lon.=104.244583, Alt.=220.568481m. Speed=0.144000m/h.</desc>
<speed>0.040000</speed>
</trkpt>
<trkpt lat="22.088236" lon="104.244583">
<ele>220.498169</ele>
<time>2011-04-26T10:56:45Z</time>
<desc>lat.=22.088236, lon.=104.244583, Alt.=220.498169m. Speed=0.036000m/h.</desc>
<speed>0.010000</speed>
</trkpt>
<trkpt lat="22.088236" lon="104.244583">
<ele>220.443481</ele>
<time>2011-04-26T10:56:50Z</time>
<desc>lat.=22.088236, lon.=104.244583, Alt.=220.443481m. Speed=0.072000m/h.</desc>
<speed>0.020000</speed>
</trkpt>
<trkpt lat="22.088236" lon="104.244583">
<ele>220.361450</ele>
<time>2011-04-26T10:56:55Z</time>
<desc>lat.=22.088236, lon.=104.244583, Alt.=220.361450m. Speed=0.072000m/h.</desc>
<speed>0.020000</speed>
</trkpt>
<trkpt lat="22.088236" lon="104.244583">
<ele>220.201294</ele>
<time>2011-04-26T10:57:00Z</time>
<desc>lat.=22.088236, lon.=104.244583, Alt.=220.201294m. Speed=4.212000m/h.</desc>
<speed>1.170000</speed>
</trkpt>
<trkpt lat="22.088249" lon="104.244774">
<ele>217.267700</ele>
<time>2011-04-26T10:57:05Z</time>
<desc>lat.=22.088249, lon.=104.244774, Alt.=217.267700m. Speed=12.708000m/h.</desc>
<speed>3.530000</speed>
</trkpt>
<trkpt lat="22.088251" lon="104.244957">
<ele>216.752075</ele>
<time>2011-04-26T10:57:10Z</time>
<desc>lat.=22.088251, lon.=104.244957, Alt.=216.752075m. Speed=9.828000m/h.</desc>
<speed>2.730000</speed>
</trkpt>
<trkpt lat="22.088261" lon="104.245110">
<ele>216.193481</ele>
<time>2011-04-26T10:57:15Z</time>
<desc>lat.=22.088261, lon.=104.245110, Alt.=216.193481m. Speed=10.044000m/h.</desc>
<speed>2.790000</speed>
</trkpt>
<trkpt lat="22.088255" lon="104.245262">
<ele>214.232544</ele>
<time>2011-04-26T10:57:20Z</time>
<desc>lat.=22.088255, lon.=104.245262, Alt.=214.232544m. Speed=7.992000m/h.</desc>
<speed>2.220000</speed>
</trkpt>
<trkpt lat="22.088253" lon="104.245399">
<ele>211.396606</ele>
<time>2011-04-26T10:57:25Z</time>
<desc>lat.=22.088253, lon.=104.245399, Alt.=211.396606m. Speed=6.120000m/h.</desc>
<speed>1.700000</speed>
</trkpt>
<trkpt lat="22.088257" lon="104.245506">
<ele>205.556763</ele>
<time>2011-04-26T10:57:30Z</time>
<desc>lat.=22.088257, lon.=104.245506, Alt.=205.556763m. Speed=7.812000m/h.</desc>
<speed>2.170000</speed>
</trkpt>
<trkpt lat="22.088259" lon="104.245621">
<ele>203.994263</ele>
<time>2011-04-26T10:57:35Z</time>
<desc>lat.=22.088259, lon.=104.245621, Alt.=203.994263m. Speed=10.656000m/h.</desc>
<speed>2.960000</speed>
</trkpt>
<trkpt lat="22.088287" lon="104.245789">
<ele>202.209106</ele>
<time>2011-04-26T10:57:40Z</time>
<desc>lat.=22.088287, lon.=104.245789, Alt.=202.209106m. Speed=13.932000m/h.</desc>
<speed>3.870000</speed>
</trkpt>
<trkpt lat="22.088337" lon="104.245995">
<ele>200.259888</ele>
<time>2011-04-26T10:57:45Z</time>
<desc>lat.=22.088337, lon.=104.245995, Alt.=200.259888m. Speed=17.063999m/h.</desc>
<speed>4.740000</speed>
</trkpt>
<trkpt lat="22.088404" lon="104.246216">
<ele>199.521606</ele>
<time>2011-04-26T10:57:50Z</time>
<desc>lat.=22.088404, lon.=104.246216, Alt.=199.521606m. Speed=15.264000m/h.</desc>
<speed>4.240000</speed>
</trkpt>
<trkpt lat="22.088461" lon="104.246414">
<ele>200.607544</ele>
<time>2011-04-26T10:57:55Z</time>
<desc>lat.=22.088461, lon.=104.246414, Alt.=200.607544m. Speed=13.428000m/h.</desc>
<speed>3.730000</speed>
</trkpt>
<trkpt lat="22.088518" lon="104.246582">
<ele>201.345825</ele>
<time>2011-04-26T10:58:00Z</time>
<desc>lat.=22.088518, lon.=104.246582, Alt.=201.345825m. Speed=13.356000m/h.</desc>
<speed>3.710000</speed>
</trkpt>
<trkpt lat="22.088581" lon="104.246765">
<ele>203.263794</ele>
<time>2011-04-26T10:58:05Z</time>
<desc>lat.=22.088581, lon.=104.246765, Alt.=203.263794m. Speed=15.012000m/h.</desc>
<speed>4.170000</speed>
</trkpt>
<trkpt lat="22.088625" lon="104.246971">
<ele>203.298950</ele>
<time>2011-04-26T10:58:10Z</time>
<desc>lat.=22.088625, lon.=104.246971, Alt.=203.298950m. Speed=15.588000m/h.</desc>
<speed>4.330000</speed>
</trkpt>
<trkpt lat="22.088671" lon="104.247162">
<ele>200.509888</ele>
<time>2011-04-26T10:58:15Z</time>
<desc>lat.=22.088671, lon.=104.247162, Alt.=200.509888m. Speed=14.868000m/h.</desc>
<speed>4.130000</speed>
</trkpt>
<trkpt lat="22.088722" lon="104.247353">
<ele>199.744263</ele>
<time>2011-04-26T10:58:20Z</time>
<desc>lat.=22.088722, lon.=104.247353, Alt.=199.744263m. Speed=14.616000m/h.</desc>
<speed>4.060000</speed>
</trkpt>
<trkpt lat="22.088770" lon="104.247543">
<ele>199.056763</ele>
<time>2011-04-26T10:58:25Z</time>
<desc>lat.=22.088770, lon.=104.247543, Alt.=199.056763m. Speed=11.520000m/h.</desc>
<speed>3.200000</speed>
</trkpt>
<trkpt lat="22.088800" lon="104.247688">
<ele>197.904419</ele>
<time>2011-04-26T10:58:30Z</time>
<desc>lat.=22.088800, lon.=104.247688, Alt.=197.904419m. Speed=10.152000m/h.</desc>
<speed>2.820000</speed>
</trkpt>
<trkpt lat="22.088854" lon="104.247849">
<ele>196.884888</ele>
<time>2011-04-26T10:58:35Z</time>
<desc>lat.=22.088854, lon.=104.247849, Alt.=196.884888m. Speed=11.664000m/h.</desc>
<speed>3.240000</speed>
</trkpt>
<trkpt lat="22.088894" lon="104.248009">
<ele>194.943481</ele>
<time>2011-04-26T10:58:40Z</time>
<desc>lat.=22.088894, lon.=104.248009, Alt.=194.943481m. Speed=10.692000m/h.</desc>
<speed>2.970000</speed>
</trkpt>
<trkpt lat="22.088934" lon="104.248161">
<ele>195.213013</ele>
<time>2011-04-26T10:58:45Z</time>
<desc>lat.=22.088934, lon.=104.248161, Alt.=195.213013m. Speed=8.784000m/h.</desc>
<speed>2.440000</speed>
</trkpt>
<trkpt lat="22.088972" lon="104.248314">
<ele>195.916138</ele>
<time>2011-04-26T10:58:50Z</time>
<desc>lat.=22.088972, lon.=104.248314, Alt.=195.916138m. Speed=9.864000m/h.</desc>
<speed>2.740000</speed>
</trkpt>
<trkpt lat="22.089010" lon="104.248444">
<ele>198.580200</ele>
<time>2011-04-26T10:58:55Z</time>
<desc>lat.=22.089010, lon.=104.248444, Alt.=198.580200m. Speed=7.704000m/h.</desc>
<speed>2.140000</speed>
</trkpt>
<trkpt lat="22.089035" lon="104.248566">
<ele>200.576294</ele>
<time>2011-04-26T10:59:00Z</time>
<desc>lat.=22.089035, lon.=104.248566, Alt.=200.576294m. Speed=8.136000m/h.</desc>
<speed>2.260000</speed>
</trkpt>
<trkpt lat="22.089069" lon="104.248672">
<ele>202.673950</ele>
<time>2011-04-26T10:59:05Z</time>
<desc>lat.=22.089069, lon.=104.248672, Alt.=202.673950m. Speed=4.536000m/h.</desc>
<speed>1.260000</speed>
</trkpt>
<trkpt lat="22.089098" lon="104.248741">
<ele>204.654419</ele>
<time>2011-04-26T10:59:10Z</time>
<desc>lat.=22.089098, lon.=104.248741, Alt.=204.654419m. Speed=4.140000m/h.</desc>
<speed>1.150000</speed>
</trkpt>
<trkpt lat="22.089125" lon="104.248810">
<ele>204.267700</ele>
<time>2011-04-26T10:59:15Z</time>
<desc>lat.=22.089125, lon.=104.248810, Alt.=204.267700m. Speed=3.996000m/h.</desc>
<speed>1.110000</speed>
</trkpt>
<trkpt lat="22.089138" lon="104.248894">
<ele>203.935669</ele>
<time>2011-04-26T10:59:20Z</time>
<desc>lat.=22.089138, lon.=104.248894, Alt.=203.935669m. Speed=5.760000m/h.</desc>
<speed>1.600000</speed>
</trkpt>
<trkpt lat="22.089161" lon="104.248993">
<ele>203.630981</ele>
<time>2011-04-26T10:59:25Z</time>
<desc>lat.=22.089161, lon.=104.248993, Alt.=203.630981m. Speed=8.928000m/h.</desc>
<speed>2.480000</speed>
</trkpt>
<trkpt lat="22.089197" lon="104.249115">
<ele>204.017700</ele>
<time>2011-04-26T10:59:30Z</time>
<desc>lat.=22.089197, lon.=104.249115, Alt.=204.017700m. Speed=8.892000m/h.</desc>
<speed>2.470000</speed>
</trkpt>
<trkpt lat="22.089230" lon="104.249229">
<ele>204.158325</ele>
<time>2011-04-26T10:59:35Z</time>
<desc>lat.=22.089230, lon.=104.249229, Alt.=204.158325m. Speed=6.948000m/h.</desc>
<speed>1.930000</speed>
</trkpt>
<trkpt lat="22.089270" lon="104.249359">
<ele>204.732544</ele>
<time>2011-04-26T10:59:40Z</time>
<desc>lat.=22.089270, lon.=104.249359, Alt.=204.732544m. Speed=8.928000m/h.</desc>
<speed>2.480000</speed>
</trkpt>
<trkpt lat="22.089291" lon="104.249512">
<ele>205.345825</ele>
<time>2011-04-26T10:59:45Z</time>
<desc>lat.=22.089291, lon.=104.249512, Alt.=205.345825m. Speed=9.396000m/h.</desc>
<speed>2.610000</speed>
</trkpt>
<trkpt lat="22.089302" lon="104.249619">
<ele>203.252075</ele>
<time>2011-04-26T10:59:50Z</time>
<desc>lat.=22.089302, lon.=104.249619, Alt.=203.252075m. Speed=8.028000m/h.</desc>
<speed>2.230000</speed>
</trkpt>
<trkpt lat="22.089338" lon="104.249718">
<ele>202.662231</ele>
<time>2011-04-26T10:59:55Z</time>
<desc>lat.=22.089338, lon.=104.249718, Alt.=202.662231m. Speed=7.596000m/h.</desc>
<speed>2.110000</speed>
</trkpt>
<trkpt lat="22.089373" lon="104.249802">
<ele>202.029419</ele>
<time>2011-04-26T11:00:00Z</time>
<desc>lat.=22.089373, lon.=104.249802, Alt.=202.029419m. Speed=6.120000m/h.</desc>
<speed>1.700000</speed>
</trkpt>
<trkpt lat="22.089392" lon="104.249832">
<ele>201.838013</ele>
<time>2011-04-26T11:00:05Z</time>
<desc>lat.=22.089392, lon.=104.249832, Alt.=201.838013m. Speed=0.576000m/h.</desc>
<speed>0.160000</speed>
</trkpt>
<trkpt lat="22.089396" lon="104.249840">
<ele>201.666138</ele>
<time>2011-04-26T11:00:10Z</time>
<desc>lat.=22.089396, lon.=104.249840, Alt.=201.666138m. Speed=0.108000m/h.</desc>
<speed>0.030000</speed>
</trkpt>
<trkpt lat="22.089399" lon="104.249847">
<ele>201.623169</ele>
<time>2011-04-26T11:00:15Z</time>
<desc>lat.=22.089399, lon.=104.249847, Alt.=201.623169m. Speed=2.052000m/h.</desc>
<speed>0.570000</speed>
</trkpt>
<trkpt lat="22.089434" lon="104.249939">
<ele>201.978638</ele>
<time>2011-04-26T11:00:20Z</time>
<desc>lat.=22.089434, lon.=104.249939, Alt.=201.978638m. Speed=9.216000m/h.</desc>
<speed>2.560000</speed>
</trkpt>
<trkpt lat="22.089458" lon="104.250061">
<ele>202.627075</ele>
<time>2011-04-26T11:00:25Z</time>
<desc>lat.=22.089458, lon.=104.250061, Alt.=202.627075m. Speed=9.612000m/h.</desc>
<speed>2.670000</speed>
</trkpt>
<trkpt lat="22.089491" lon="104.250206">
<ele>203.845825</ele>
<time>2011-04-26T11:00:30Z</time>
<desc>lat.=22.089491, lon.=104.250206, Alt.=203.845825m. Speed=9.360000m/h.</desc>
<speed>2.600000</speed>
</trkpt>
<trkpt lat="22.089499" lon="104.250343">
<ele>204.720825</ele>
<time>2011-04-26T11:00:35Z</time>
<desc>lat.=22.089499, lon.=104.250343, Alt.=204.720825m. Speed=9.288000m/h.</desc>
<speed>2.580000</speed>
</trkpt>
<trkpt lat="22.089502" lon="104.250481">
<ele>206.994263</ele>
<time>2011-04-26T11:00:40Z</time>
<desc>lat.=22.089502, lon.=104.250481, Alt.=206.994263m. Speed=7.164000m/h.</desc>
<speed>1.990000</speed>
</trkpt>
<trkpt lat="22.089493" lon="104.250587">
<ele>208.373169</ele>
<time>2011-04-26T11:00:45Z</time>
<desc>lat.=22.089493, lon.=104.250587, Alt.=208.373169m. Speed=5.976000m/h.</desc>
<speed>1.660000</speed>
</trkpt>
<trkpt lat="22.089499" lon="104.250694">
<ele>210.345825</ele>
<time>2011-04-26T11:00:50Z</time>
<desc>lat.=22.089499, lon.=104.250694, Alt.=210.345825m. Speed=6.516000m/h.</desc>
<speed>1.810000</speed>
</trkpt>
<trkpt lat="22.089487" lon="104.250816">
<ele>209.142700</ele>
<time>2011-04-26T11:00:55Z</time>
<desc>lat.=22.089487, lon.=104.250816, Alt.=209.142700m. Speed=9.072000m/h.</desc>
<speed>2.520000</speed>
</trkpt>
<trkpt lat="22.089499" lon="104.250969">
<ele>210.130981</ele>
<time>2011-04-26T11:01:00Z</time>
<desc>lat.=22.089499, lon.=104.250969, Alt.=210.130981m. Speed=12.492000m/h.</desc>
<speed>3.470000</speed>
</trkpt>
<trkpt lat="22.089508" lon="104.251144">
<ele>210.295044</ele>
<time>2011-04-26T11:01:05Z</time>
<desc>lat.=22.089508, lon.=104.251144, Alt.=210.295044m. Speed=11.736000m/h.</desc>
<speed>3.260000</speed>
</trkpt>
<trkpt lat="22.089518" lon="104.251320">
<ele>210.673950</ele>
<time>2011-04-26T11:01:10Z</time>
<desc>lat.=22.089518, lon.=104.251320, Alt.=210.673950m. Speed=13.824000m/h.</desc>
<speed>3.840000</speed>
</trkpt>
<trkpt lat="22.089518" lon="104.251503">
<ele>211.666138</ele>
<time>2011-04-26T11:01:15Z</time>
<desc>lat.=22.089518, lon.=104.251503, Alt.=211.666138m. Speed=11.952000m/h.</desc>
<speed>3.320000</speed>
</trkpt>
<trkpt lat="22.089521" lon="104.251709">
<ele>210.380981</ele>
<time>2011-04-26T11:01:20Z</time>
<desc>lat.=22.089521, lon.=104.251709, Alt.=210.380981m. Speed=14.688000m/h.</desc>
<speed>4.080000</speed>
</trkpt>
<trkpt lat="22.089516" lon="104.251877">
<ele>209.138794</ele>
<time>2011-04-26T11:01:25Z</time>
<desc>lat.=22.089516, lon.=104.251877, Alt.=209.138794m. Speed=7.272000m/h.</desc>
<speed>2.020000</speed>
</trkpt>
<trkpt lat="22.089502" lon="104.251907">
<ele>208.384888</ele>
<time>2011-04-26T11:01:30Z</time>
<desc>lat.=22.089502, lon.=104.251907, Alt.=208.384888m. Speed=0.468000m/h.</desc>
<speed>0.130000</speed>
</trkpt>
<trkpt lat="22.089502" lon="104.251915">
<ele>208.486450</ele>
<time>2011-04-26T11:01:35Z</time>
<desc>lat.=22.089502, lon.=104.251915, Alt.=208.486450m. Speed=2.160000m/h.</desc>
<speed>0.600000</speed>
</trkpt>
<trkpt lat="22.089518" lon="104.252007">
<ele>207.673950</ele>
<time>2011-04-26T11:01:40Z</time>
<desc>lat.=22.089518, lon.=104.252007, Alt.=207.673950m. Speed=10.440000m/h.</desc>
<speed>2.900000</speed>
</trkpt>
<trkpt lat="22.089510" lon="104.252205">
<ele>210.017700</ele>
<time>2011-04-26T11:01:45Z</time>
<desc>lat.=22.089510, lon.=104.252205, Alt.=210.017700m. Speed=12.384000m/h.</desc>
<speed>3.440000</speed>
</trkpt>
<trkpt lat="22.089483" lon="104.252357">
<ele>209.365356</ele>
<time>2011-04-26T11:01:50Z</time>
<desc>lat.=22.089483, lon.=104.252357, Alt.=209.365356m. Speed=7.632000m/h.</desc>
<speed>2.120000</speed>
</trkpt>
<trkpt lat="22.089420" lon="104.252411">
<ele>208.630981</ele>
<time>2011-04-26T11:01:55Z</time>
<desc>lat.=22.089420, lon.=104.252411, Alt.=208.630981m. Speed=6.768000m/h.</desc>
<speed>1.880000</speed>
</trkpt>
<trkpt lat="22.089268" lon="104.252388">
<ele>208.880981</ele>
<time>2011-04-26T11:02:00Z</time>
<desc>lat.=22.089268, lon.=104.252388, Alt.=208.880981m. Speed=15.120000m/h.</desc>
<speed>4.200000</speed>
</trkpt>
<trkpt lat="22.089088" lon="104.252350">
<ele>208.052856</ele>
<time>2011-04-26T11:02:05Z</time>
<desc>lat.=22.089088, lon.=104.252350, Alt.=208.052856m. Speed=10.332000m/h.</desc>
<speed>2.870000</speed>
</trkpt>
<trkpt lat="22.089066" lon="104.252342">
<ele>207.627075</ele>
<time>2011-04-26T11:02:10Z</time>
<desc>lat.=22.089066, lon.=104.252342, Alt.=207.627075m. Speed=0.360000m/h.</desc>
<speed>0.100000</speed>
</trkpt>
<trkpt lat="22.089066" lon="104.252342">
<ele>207.588013</ele>
<time>2011-04-26T11:02:15Z</time>
<desc>lat.=22.089066, lon.=104.252342, Alt.=207.588013m. Speed=0.252000m/h.</desc>
<speed>0.070000</speed>
</trkpt>
<trkpt lat="22.089064" lon="104.252350">
<ele>207.533325</ele>
<time>2011-04-26T11:02:20Z</time>
<desc>lat.=22.089064, lon.=104.252350, Alt.=207.533325m. Speed=0.432000m/h.</desc>
<speed>0.120000</speed>
</trkpt>
<trkpt lat="22.089060" lon="104.252350">
<ele>207.494263</ele>
<time>2011-04-26T11:02:25Z</time>
<desc>lat.=22.089060, lon.=104.252350, Alt.=207.494263m. Speed=0.108000m/h.</desc>
<speed>0.030000</speed>
</trkpt>
<trkpt lat="22.089060" lon="104.252350">
<ele>207.474731</ele>
<time>2011-04-26T11:02:30Z</time>
<desc>lat.=22.089060, lon.=104.252350, Alt.=207.474731m. Speed=0.252000m/h.</desc>
<speed>0.070000</speed>
</trkpt>
<trkpt lat="22.089060" lon="104.252342">
<ele>207.455200</ele>
<time>2011-04-26T11:02:35Z</time>
<desc>lat.=22.089060, lon.=104.252342, Alt.=207.455200m. Speed=1.404000m/h.</desc>
<speed>0.390000</speed>
</trkpt>
<trkpt lat="22.089006" lon="104.252304">
<ele>206.548950</ele>
<time>2011-04-26T11:02:40Z</time>
<desc>lat.=22.089006, lon.=104.252304, Alt.=206.548950m. Speed=7.488000m/h.</desc>
<speed>2.080000</speed>
</trkpt>
<trkpt lat="22.088900" lon="104.252228">
<ele>205.826294</ele>
<time>2011-04-26T11:02:45Z</time>
<desc>lat.=22.088900, lon.=104.252228, Alt.=205.826294m. Speed=11.088000m/h.</desc>
<speed>3.080000</speed>
</trkpt>
<trkpt lat="22.088787" lon="104.252159">
<ele>204.951294</ele>
<time>2011-04-26T11:02:50Z</time>
<desc>lat.=22.088787, lon.=104.252159, Alt.=204.951294m. Speed=8.028000m/h.</desc>
<speed>2.230000</speed>
</trkpt>
<trkpt lat="22.088720" lon="104.252151">
<ele>204.287231</ele>
<time>2011-04-26T11:02:55Z</time>
<desc>lat.=22.088720, lon.=104.252151, Alt.=204.287231m. Speed=2.268000m/h.</desc>
<speed>0.630000</speed>
</trkpt>
<trkpt lat="22.088728" lon="104.252098">
<ele>202.435669</ele>
<time>2011-04-26T11:03:00Z</time>
<desc>lat.=22.088728, lon.=104.252098, Alt.=202.435669m. Speed=0.180000m/h.</desc>
<speed>0.050000</speed>
</trkpt>
<trkpt lat="22.088726" lon="104.252098">
<ele>202.388794</ele>
<time>2011-04-26T11:03:05Z</time>
<desc>lat.=22.088726, lon.=104.252098, Alt.=202.388794m. Speed=2.376000m/h.</desc>
<speed>0.660000</speed>
</trkpt>
<trkpt lat="22.088682" lon="104.252083">
<ele>203.119263</ele>
<time>2011-04-26T11:03:10Z</time>
<desc>lat.=22.088682, lon.=104.252083, Alt.=203.119263m. Speed=5.508000m/h.</desc>
<speed>1.530000</speed>
</trkpt>
<trkpt lat="22.088600" lon="104.252151">
<ele>202.752075</ele>
<time>2011-04-26T11:03:15Z</time>
<desc>lat.=22.088600, lon.=104.252151, Alt.=202.752075m. Speed=4.608000m/h.</desc>
<speed>1.280000</speed>
</trkpt>
<trkpt lat="22.088522" lon="104.252205">
<ele>203.377075</ele>
<time>2011-04-26T11:03:20Z</time>
<desc>lat.=22.088522, lon.=104.252205, Alt.=203.377075m. Speed=2.772000m/h.</desc>
<speed>0.770000</speed>
</trkpt>
<trkpt lat="22.088409" lon="104.252312">
<ele>205.306763</ele>
<time>2011-04-26T11:03:25Z</time>
<desc>lat.=22.088409, lon.=104.252312, Alt.=205.306763m. Speed=6.840000m/h.</desc>
<speed>1.900000</speed>
</trkpt>
<trkpt lat="22.088329" lon="104.252396">
<ele>206.302856</ele>
<time>2011-04-26T11:03:30Z</time>
<desc>lat.=22.088329, lon.=104.252396, Alt.=206.302856m. Speed=0.756000m/h.</desc>
<speed>0.210000</speed>
</trkpt>
<trkpt lat="22.088310" lon="104.252419">
<ele>205.658325</ele>
<time>2011-04-26T11:03:35Z</time>
<desc>lat.=22.088310, lon.=104.252419, Alt.=205.658325m. Speed=0.900000m/h.</desc>
<speed>0.250000</speed>
</trkpt>
<trkpt lat="22.088268" lon="104.252495">
<ele>204.701294</ele>
<time>2011-04-26T11:03:40Z</time>
<desc>lat.=22.088268, lon.=104.252495, Alt.=204.701294m. Speed=4.068000m/h.</desc>
<speed>1.130000</speed>
</trkpt>
<trkpt lat="22.088238" lon="104.252617">
<ele>204.822388</ele>
<time>2011-04-26T11:03:45Z</time>
<desc>lat.=22.088238, lon.=104.252617, Alt.=204.822388m. Speed=2.052000m/h.</desc>
<speed>0.570000</speed>
</trkpt>
<trkpt lat="22.088224" lon="104.252693">
<ele>204.724731</ele>
<time>2011-04-26T11:03:50Z</time>
<desc>lat.=22.088224, lon.=104.252693, Alt.=204.724731m. Speed=0.936000m/h.</desc>
<speed>0.260000</speed>
</trkpt>
<trkpt lat="22.088205" lon="104.252739">
<ele>204.447388</ele>
<time>2011-04-26T11:03:55Z</time>
<desc>lat.=22.088205, lon.=104.252739, Alt.=204.447388m. Speed=2.772000m/h.</desc>
<speed>0.770000</speed>
</trkpt>
<trkpt lat="22.088167" lon="104.252823">
<ele>204.033325</ele>
<time>2011-04-26T11:04:00Z</time>
<desc>lat.=22.088167, lon.=104.252823, Alt.=204.033325m. Speed=4.608000m/h.</desc>
<speed>1.280000</speed>
</trkpt>
<trkpt lat="22.088127" lon="104.252953">
<ele>202.892700</ele>
<time>2011-04-26T11:04:05Z</time>
<desc>lat.=22.088127, lon.=104.252953, Alt.=202.892700m. Speed=2.484000m/h.</desc>
<speed>0.690000</speed>
</trkpt>
<trkpt lat="22.088089" lon="104.253075">
<ele>201.451294</ele>
<time>2011-04-26T11:04:10Z</time>
<desc>lat.=22.088089, lon.=104.253075, Alt.=201.451294m. Speed=6.048000m/h.</desc>
<speed>1.680000</speed>
</trkpt>
<trkpt lat="22.088036" lon="104.253166">
<ele>199.951294</ele>
<time>2011-04-26T11:04:15Z</time>
<desc>lat.=22.088036, lon.=104.253166, Alt.=199.951294m. Speed=2.268000m/h.</desc>
<speed>0.630000</speed>
</trkpt>
<trkpt lat="22.088013" lon="104.253296">
<ele>200.615356</ele>
<time>2011-04-26T11:04:20Z</time>
<desc>lat.=22.088013, lon.=104.253296, Alt.=200.615356m. Speed=3.924000m/h.</desc>
<speed>1.090000</speed>
</trkpt>
<trkpt lat="22.087976" lon="104.253380">
<ele>200.591919</ele>
<time>2011-04-26T11:04:25Z</time>
<desc>lat.=22.087976, lon.=104.253380, Alt.=200.591919m. Speed=5.868000m/h.</desc>
<speed>1.630000</speed>
</trkpt>
<trkpt lat="22.087948" lon="104.253471">
<ele>200.873169</ele>
<time>2011-04-26T11:04:30Z</time>
<desc>lat.=22.087948, lon.=104.253471, Alt.=200.873169m. Speed=4.572000m/h.</desc>
<speed>1.270000</speed>
</trkpt>
<trkpt lat="22.087925" lon="104.253563">
<ele>200.697388</ele>
<time>2011-04-26T11:04:35Z</time>
<desc>lat.=22.087925, lon.=104.253563, Alt.=200.697388m. Speed=3.168000m/h.</desc>
<speed>0.880000</speed>
</trkpt>
<trkpt lat="22.087872" lon="104.253654">
<ele>200.908325</ele>
<time>2011-04-26T11:04:40Z</time>
<desc>lat.=22.087872, lon.=104.253654, Alt.=200.908325m. Speed=5.076000m/h.</desc>
<speed>1.410000</speed>
</trkpt>
<trkpt lat="22.087845" lon="104.253769">
<ele>201.646606</ele>
<time>2011-04-26T11:04:45Z</time>
<desc>lat.=22.087845, lon.=104.253769, Alt.=201.646606m. Speed=2.232000m/h.</desc>
<speed>0.620000</speed>
</trkpt>
<trkpt lat="22.087837" lon="104.253815">
<ele>202.076294</ele>
<time>2011-04-26T11:04:50Z</time>
<desc>lat.=22.087837, lon.=104.253815, Alt.=202.076294m. Speed=1.836000m/h.</desc>
<speed>0.510000</speed>
</trkpt>
<trkpt lat="22.087824" lon="104.253845">
<ele>202.580200</ele>
<time>2011-04-26T11:04:55Z</time>
<desc>lat.=22.087824, lon.=104.253845, Alt.=202.580200m. Speed=2.052000m/h.</desc>
<speed>0.570000</speed>
</trkpt>
<trkpt lat="22.087841" lon="104.253860">
<ele>203.994263</ele>
<time>2011-04-26T11:05:00Z</time>
<desc>lat.=22.087841, lon.=104.253860, Alt.=203.994263m. Speed=0.432000m/h.</desc>
<speed>0.120000</speed>
</trkpt>
<trkpt lat="22.087851" lon="104.253853">
<ele>204.306763</ele>
<time>2011-04-26T11:05:05Z</time>
<desc>lat.=22.087851, lon.=104.253853, Alt.=204.306763m. Speed=0.576000m/h.</desc>
<speed>0.160000</speed>
</trkpt>
<trkpt lat="22.087858" lon="104.253838">
<ele>204.775513</ele>
<time>2011-04-26T11:05:10Z</time>
<desc>lat.=22.087858, lon.=104.253838, Alt.=204.775513m. Speed=1.836000m/h.</desc>
<speed>0.510000</speed>
</trkpt>
<trkpt lat="22.087868" lon="104.253807">
<ele>206.252075</ele>
<time>2011-04-26T11:05:15Z</time>
<desc>lat.=22.087868, lon.=104.253807, Alt.=206.252075m. Speed=1.044000m/h.</desc>
<speed>0.290000</speed>
</trkpt>
<trkpt lat="22.087872" lon="104.253799">
<ele>207.213013</ele>
<time>2011-04-26T11:05:20Z</time>
<desc>lat.=22.087872, lon.=104.253799, Alt.=207.213013m. Speed=0.900000m/h.</desc>
<speed>0.250000</speed>
</trkpt>
<trkpt lat="22.087868" lon="104.253792">
<ele>207.365356</ele>
<time>2011-04-26T11:05:25Z</time>
<desc>lat.=22.087868, lon.=104.253792, Alt.=207.365356m. Speed=0.612000m/h.</desc>
<speed>0.170000</speed>
</trkpt>
<trkpt lat="22.087870" lon="104.253784">
<ele>207.552856</ele>
<time>2011-04-26T11:05:30Z</time>
<desc>lat.=22.087870, lon.=104.253784, Alt.=207.552856m. Speed=1.404000m/h.</desc>
<speed>0.390000</speed>
</trkpt>
<trkpt lat="22.087872" lon="104.253761">
<ele>208.255981</ele>
<time>2011-04-26T11:05:35Z</time>
<desc>lat.=22.087872, lon.=104.253761, Alt.=208.255981m. Speed=0.648000m/h.</desc>
<speed>0.180000</speed>
</trkpt>
<trkpt lat="22.087873" lon="104.253746">
<ele>208.755981</ele>
<time>2011-04-26T11:05:40Z</time>
<desc>lat.=22.087873, lon.=104.253746, Alt.=208.755981m. Speed=0.720000m/h.</desc>
<speed>0.200000</speed>
</trkpt>
<trkpt lat="22.087877" lon="104.253738">
<ele>208.787231</ele>
<time>2011-04-26T11:05:45Z</time>
<desc>lat.=22.087877, lon.=104.253738, Alt.=208.787231m. Speed=0.792000m/h.</desc>
<speed>0.220000</speed>
</trkpt>
<trkpt lat="22.087877" lon="104.253723">
<ele>208.826294</ele>
<time>2011-04-26T11:05:50Z</time>
<desc>lat.=22.087877, lon.=104.253723, Alt.=208.826294m. Speed=0.612000m/h.</desc>
<speed>0.170000</speed>
</trkpt>
<trkpt lat="22.087873" lon="104.253723">
<ele>208.865356</ele>
<time>2011-04-26T11:05:55Z</time>
<desc>lat.=22.087873, lon.=104.253723, Alt.=208.865356m. Speed=0.648000m/h.</desc>
<speed>0.180000</speed>
</trkpt>
<trkpt lat="22.087864" lon="104.253708">
<ele>209.193481</ele>
<time>2011-04-26T11:06:00Z</time>
<desc>lat.=22.087864, lon.=104.253708, Alt.=209.193481m. Speed=1.188000m/h.</desc>
<speed>0.330000</speed>
</trkpt>
<trkpt lat="22.087856" lon="104.253685">
<ele>210.099731</ele>
<time>2011-04-26T11:06:05Z</time>
<desc>lat.=22.087856, lon.=104.253685, Alt.=210.099731m. Speed=1.008000m/h.</desc>
<speed>0.280000</speed>
</trkpt>
<trkpt lat="22.087860" lon="104.253639">
<ele>210.900513</ele>
<time>2011-04-26T11:06:10Z</time>
<desc>lat.=22.087860, lon.=104.253639, Alt.=210.900513m. Speed=1.152000m/h.</desc>
<speed>0.320000</speed>
</trkpt>
<trkpt lat="22.087868" lon="104.253639">
<ele>211.443481</ele>
<time>2011-04-26T11:06:15Z</time>
<desc>lat.=22.087868, lon.=104.253639, Alt.=211.443481m. Speed=1.044000m/h.</desc>
<speed>0.290000</speed>
</trkpt>
<trkpt lat="22.087847" lon="104.253670">
<ele>211.138794</ele>
<time>2011-04-26T11:06:20Z</time>
<desc>lat.=22.087847, lon.=104.253670, Alt.=211.138794m. Speed=1.872000m/h.</desc>
<speed>0.520000</speed>
</trkpt>
<trkpt lat="22.087837" lon="104.253769">
<ele>211.423950</ele>
<time>2011-04-26T11:06:25Z</time>
<desc>lat.=22.087837, lon.=104.253769, Alt.=211.423950m. Speed=1.368000m/h.</desc>
<speed>0.380000</speed>
</trkpt>
<trkpt lat="22.087852" lon="104.253784">
<ele>211.900513</ele>
<time>2011-04-26T11:06:30Z</time>
<desc>lat.=22.087852, lon.=104.253784, Alt.=211.900513m. Speed=0.792000m/h.</desc>
<speed>0.220000</speed>
</trkpt>
<trkpt lat="22.087856" lon="104.253815">
<ele>212.005981</ele>
<time>2011-04-26T11:06:35Z</time>
<desc>lat.=22.087856, lon.=104.253815, Alt.=212.005981m. Speed=1.224000m/h.</desc>
<speed>0.340000</speed>
</trkpt>
<trkpt lat="22.087845" lon="104.253830">
<ele>212.306763</ele>
<time>2011-04-26T11:06:40Z</time>
<desc>lat.=22.087845, lon.=104.253830, Alt.=212.306763m. Speed=0.468000m/h.</desc>
<speed>0.130000</speed>
</trkpt>
<trkpt lat="22.087841" lon="104.253830">
<ele>212.326294</ele>
<time>2011-04-26T11:06:45Z</time>
<desc>lat.=22.087841, lon.=104.253830, Alt.=212.326294m. Speed=0.072000m/h.</desc>
<speed>0.020000</speed>
</trkpt>
<trkpt lat="22.087845" lon="104.253830">
<ele>212.334106</ele>
<time>2011-04-26T11:06:50Z</time>
<desc>lat.=22.087845, lon.=104.253830, Alt.=212.334106m. Speed=0.468000m/h.</desc>
<speed>0.130000</speed>
</trkpt>
<trkpt lat="22.087854" lon="104.253830">
<ele>212.357544</ele>
<time>2011-04-26T11:06:55Z</time>
<desc>lat.=22.087854, lon.=104.253830, Alt.=212.357544m. Speed=1.296000m/h.</desc>
<speed>0.360000</speed>
</trkpt>
<trkpt lat="22.087879" lon="104.253845">
<ele>212.755981</ele>
<time>2011-04-26T11:07:00Z</time>
<desc>lat.=22.087879, lon.=104.253845, Alt.=212.755981m. Speed=1.440000m/h.</desc>
<speed>0.400000</speed>
</trkpt>
<trkpt lat="22.087889" lon="104.253853">
<ele>212.966919</ele>
<time>2011-04-26T11:07:05Z</time>
<desc>lat.=22.087889, lon.=104.253853, Alt.=212.966919m. Speed=1.152000m/h.</desc>
<speed>0.320000</speed>
</trkpt>
<trkpt lat="22.087896" lon="104.253853">
<ele>212.880981</ele>
<time>2011-04-26T11:07:10Z</time>
<desc>lat.=22.087896, lon.=104.253853, Alt.=212.880981m. Speed=0.540000m/h.</desc>
<speed>0.150000</speed>
</trkpt>
<trkpt lat="22.087921" lon="104.253860">
<ele>213.045044</ele>
<time>2011-04-26T11:07:15Z</time>
<desc>lat.=22.087921, lon.=104.253860, Alt.=213.045044m. Speed=2.088000m/h.</desc>
<speed>0.580000</speed>
</trkpt>
<trkpt lat="22.087954" lon="104.253860">
<ele>213.595825</ele>
<time>2011-04-26T11:07:20Z</time>
<desc>lat.=22.087954, lon.=104.253860, Alt.=213.595825m. Speed=1.620000m/h.</desc>
<speed>0.450000</speed>
</trkpt>
<trkpt lat="22.087969" lon="104.253860">
<ele>213.931763</ele>
<time>2011-04-26T11:07:25Z</time>
<desc>lat.=22.087969, lon.=104.253860, Alt.=213.931763m. Speed=1.368000m/h.</desc>
<speed>0.380000</speed>
</trkpt>
<trkpt lat="22.087967" lon="104.253845">
<ele>214.505981</ele>
<time>2011-04-26T11:07:30Z</time>
<desc>lat.=22.087967, lon.=104.253845, Alt.=214.505981m. Speed=0.468000m/h.</desc>
<speed>0.130000</speed>
</trkpt>
<trkpt lat="22.087944" lon="104.253822">
<ele>214.779419</ele>
<time>2011-04-26T11:07:35Z</time>
<desc>lat.=22.087944, lon.=104.253822, Alt.=214.779419m. Speed=0.576000m/h.</desc>
<speed>0.160000</speed>
</trkpt>
<trkpt lat="22.087931" lon="104.253822">
<ele>215.205200</ele>
<time>2011-04-26T11:07:40Z</time>
<desc>lat.=22.087931, lon.=104.253822, Alt.=215.205200m. Speed=0.108000m/h.</desc>
<speed>0.030000</speed>
</trkpt>
<trkpt lat="22.087925" lon="104.253838">
<ele>215.310669</ele>
<time>2011-04-26T11:07:45Z</time>
<desc>lat.=22.087925, lon.=104.253838, Alt.=215.310669m. Speed=0.648000m/h.</desc>
<speed>0.180000</speed>
</trkpt>
<trkpt lat="22.087910" lon="104.253830">
<ele>215.443481</ele>
<time>2011-04-26T11:07:50Z</time>
<desc>lat.=22.087910, lon.=104.253830, Alt.=215.443481m. Speed=1.404000m/h.</desc>
<speed>0.390000</speed>
</trkpt>
<trkpt lat="22.087893" lon="104.253807">
<ele>216.388794</ele>
<time>2011-04-26T11:07:55Z</time>
<desc>lat.=22.087893, lon.=104.253807, Alt.=216.388794m. Speed=1.440000m/h.</desc>
<speed>0.400000</speed>
</trkpt>
<trkpt lat="22.087860" lon="104.253815">
<ele>217.033325</ele>
<time>2011-04-26T11:08:00Z</time>
<desc>lat.=22.087860, lon.=104.253815, Alt.=217.033325m. Speed=1.944000m/h.</desc>
<speed>0.540000</speed>
</trkpt>
<trkpt lat="22.087847" lon="104.253815">
<ele>217.670044</ele>
<time>2011-04-26T11:08:05Z</time>
<desc>lat.=22.087847, lon.=104.253815, Alt.=217.670044m. Speed=0.828000m/h.</desc>
<speed>0.230000</speed>
</trkpt>
<trkpt lat="22.087833" lon="104.253815">
<ele>217.752075</ele>
<time>2011-04-26T11:08:10Z</time>
<desc>lat.=22.087833, lon.=104.253815, Alt.=217.752075m. Speed=0.828000m/h.</desc>
<speed>0.230000</speed>
</trkpt>
<trkpt lat="22.087828" lon="104.253822">
<ele>217.783325</ele>
<time>2011-04-26T11:08:15Z</time>
<desc>lat.=22.087828, lon.=104.253822, Alt.=217.783325m. Speed=0.324000m/h.</desc>
<speed>0.090000</speed>
</trkpt>
<trkpt lat="22.087820" lon="104.253822">
<ele>217.822388</ele>
<time>2011-04-26T11:08:20Z</time>
<desc>lat.=22.087820, lon.=104.253822, Alt.=217.822388m. Speed=1.080000m/h.</desc>
<speed>0.300000</speed>
</trkpt>
<trkpt lat="22.087830" lon="104.253838">
<ele>218.357544</ele>
<time>2011-04-26T11:08:25Z</time>
<desc>lat.=22.087830, lon.=104.253838, Alt.=218.357544m. Speed=0.576000m/h.</desc>
<speed>0.160000</speed>
</trkpt>
<trkpt lat="22.087826" lon="104.253845">
<ele>218.416138</ele>
<time>2011-04-26T11:08:30Z</time>
<desc>lat.=22.087826, lon.=104.253845, Alt.=218.416138m. Speed=0.396000m/h.</desc>
<speed>0.110000</speed>
</trkpt>
<trkpt lat="22.087822" lon="104.253845">
<ele>218.478638</ele>
<time>2011-04-26T11:08:35Z</time>
<desc>lat.=22.087822, lon.=104.253845, Alt.=218.478638m. Speed=0.576000m/h.</desc>
<speed>0.160000</speed>
</trkpt>
<trkpt lat="22.087824" lon="104.253845">
<ele>218.517700</ele>
<time>2011-04-26T11:08:40Z</time>
<desc>lat.=22.087824, lon.=104.253845, Alt.=218.517700m. Speed=1.512000m/h.</desc>
<speed>0.420000</speed>
</trkpt>
<trkpt lat="22.087831" lon="104.253838">
<ele>218.705200</ele>
<time>2011-04-26T11:08:45Z</time>
<desc>lat.=22.087831, lon.=104.253838, Alt.=218.705200m. Speed=0.360000m/h.</desc>
<speed>0.100000</speed>
</trkpt>
<trkpt lat="22.087841" lon="104.253822">
<ele>218.748169</ele>
<time>2011-04-26T11:08:50Z</time>
<desc>lat.=22.087841, lon.=104.253822, Alt.=218.748169m. Speed=1.584000m/h.</desc>
<speed>0.440000</speed>
</trkpt>
<trkpt lat="22.087868" lon="104.253807">
<ele>218.552856</ele>
<time>2011-04-26T11:08:55Z</time>
<desc>lat.=22.087868, lon.=104.253807, Alt.=218.552856m. Speed=1.836000m/h.</desc>
<speed>0.510000</speed>
</trkpt>
<trkpt lat="22.087870" lon="104.253815">
<ele>218.638794</ele>
<time>2011-04-26T11:09:00Z</time>
<desc>lat.=22.087870, lon.=104.253815, Alt.=218.638794m. Speed=0.828000m/h.</desc>
<speed>0.230000</speed>
</trkpt>
<trkpt lat="22.087872" lon="104.253815">
<ele>218.998169</ele>
<time>2011-04-26T11:09:05Z</time>
<desc>lat.=22.087872, lon.=104.253815, Alt.=218.998169m. Speed=0.972000m/h.</desc>
<speed>0.270000</speed>
</trkpt>
<trkpt lat="22.087870" lon="104.253799">
<ele>219.443481</ele>
<time>2011-04-26T11:09:10Z</time>
<desc>lat.=22.087870, lon.=104.253799, Alt.=219.443481m. Speed=0.972000m/h.</desc>
<speed>0.270000</speed>
</trkpt>
<trkpt lat="22.087851" lon="104.253807">
<ele>219.685669</ele>
<time>2011-04-26T11:09:15Z</time>
<desc>lat.=22.087851, lon.=104.253807, Alt.=219.685669m. Speed=0.720000m/h.</desc>
<speed>0.200000</speed>
</trkpt>
<trkpt lat="22.087862" lon="104.253807">
<ele>219.728638</ele>
<time>2011-04-26T11:09:20Z</time>
<desc>lat.=22.087862, lon.=104.253807, Alt.=219.728638m. Speed=0.864000m/h.</desc>
<speed>0.240000</speed>
</trkpt>
<trkpt lat="22.087879" lon="104.253815">
<ele>219.920044</ele>
<time>2011-04-26T11:09:25Z</time>
<desc>lat.=22.087879, lon.=104.253815, Alt.=219.920044m. Speed=0.936000m/h.</desc>
<speed>0.260000</speed>
</trkpt>
<trkpt lat="22.087875" lon="104.253799">
<ele>220.509888</ele>
<time>2011-04-26T11:09:30Z</time>
<desc>lat.=22.087875, lon.=104.253799, Alt.=220.509888m. Speed=2.232000m/h.</desc>
<speed>0.620000</speed>
</trkpt>
<trkpt lat="22.087868" lon="104.253777">
<ele>220.998169</ele>
<time>2011-04-26T11:09:35Z</time>
<desc>lat.=22.087868, lon.=104.253777, Alt.=220.998169m. Speed=1.908000m/h.</desc>
<speed>0.530000</speed>
</trkpt>
<trkpt lat="22.087868" lon="104.253777">
<ele>221.732544</ele>
<time>2011-04-26T11:09:40Z</time>
<desc>lat.=22.087868, lon.=104.253777, Alt.=221.732544m. Speed=0.792000m/h.</desc>
<speed>0.220000</speed>
</trkpt>
<trkpt lat="22.087860" lon="104.253777">
<ele>222.185669</ele>
<time>2011-04-26T11:09:45Z</time>
<desc>lat.=22.087860, lon.=104.253777, Alt.=222.185669m. Speed=0.936000m/h.</desc>
<speed>0.260000</speed>
</trkpt>
<trkpt lat="22.087856" lon="104.253754">
<ele>222.548950</ele>
<time>2011-04-26T11:09:50Z</time>
<desc>lat.=22.087856, lon.=104.253754, Alt.=222.548950m. Speed=1.908000m/h.</desc>
<speed>0.530000</speed>
</trkpt>
<trkpt lat="22.087870" lon="104.253746">
<ele>223.170044</ele>
<time>2011-04-26T11:09:55Z</time>
<desc>lat.=22.087870, lon.=104.253746, Alt.=223.170044m. Speed=1.908000m/h.</desc>
<speed>0.530000</speed>
</trkpt>
<trkpt lat="22.087849" lon="104.253731">
<ele>223.713013</ele>
<time>2011-04-26T11:10:00Z</time>
<desc>lat.=22.087849, lon.=104.253731, Alt.=223.713013m. Speed=0.612000m/h.</desc>
<speed>0.170000</speed>
</trkpt>
<trkpt lat="22.087854" lon="104.253723">
<ele>223.783325</ele>
<time>2011-04-26T11:10:05Z</time>
<desc>lat.=22.087854, lon.=104.253723, Alt.=223.783325m. Speed=0.360000m/h.</desc>
<speed>0.100000</speed>
</trkpt>
<trkpt lat="22.087856" lon="104.253723">
<ele>223.822388</ele>
<time>2011-04-26T11:10:10Z</time>
<desc>lat.=22.087856, lon.=104.253723, Alt.=223.822388m. Speed=0.396000m/h.</desc>
<speed>0.110000</speed>
</trkpt>
<trkpt lat="22.087830" lon="104.253731">
<ele>223.810669</ele>
<time>2011-04-26T11:10:15Z</time>
<desc>lat.=22.087830, lon.=104.253731, Alt.=223.810669m. Speed=1.404000m/h.</desc>
<speed>0.390000</speed>
</trkpt>
<trkpt lat="22.087814" lon="104.253761">
<ele>223.838013</ele>
<time>2011-04-26T11:10:20Z</time>
<desc>lat.=22.087814, lon.=104.253761, Alt.=223.838013m. Speed=1.296000m/h.</desc>
<speed>0.360000</speed>
</trkpt>
<trkpt lat="22.087797" lon="104.253777">
<ele>224.451294</ele>
<time>2011-04-26T11:10:25Z</time>
<desc>lat.=22.087797, lon.=104.253777, Alt.=224.451294m. Speed=1.440000m/h.</desc>
<speed>0.400000</speed>
</trkpt>
<trkpt lat="22.087784" lon="104.253807">
<ele>224.427856</ele>
<time>2011-04-26T11:10:30Z</time>
<desc>lat.=22.087784, lon.=104.253807, Alt.=224.427856m. Speed=1.008000m/h.</desc>
<speed>0.280000</speed>
</trkpt>
<trkpt lat="22.087732" lon="104.253792">
<ele>224.170044</ele>
<time>2011-04-26T11:10:35Z</time>
<desc>lat.=22.087732, lon.=104.253792, Alt.=224.170044m. Speed=3.492000m/h.</desc>
<speed>0.970000</speed>
</trkpt>
<trkpt lat="22.087709" lon="104.253769">
<ele>224.166138</ele>
<time>2011-04-26T11:10:40Z</time>
<desc>lat.=22.087709, lon.=104.253769, Alt.=224.166138m. Speed=2.772000m/h.</desc>
<speed>0.770000</speed>
</trkpt>
<trkpt lat="22.087734" lon="104.253754">
<ele>224.138794</ele>
<time>2011-04-26T11:10:45Z</time>
<desc>lat.=22.087734, lon.=104.253754, Alt.=224.138794m. Speed=1.656000m/h.</desc>
<speed>0.460000</speed>
</trkpt>
<trkpt lat="22.087744" lon="104.253746">
<ele>224.119263</ele>
<time>2011-04-26T11:10:50Z</time>
<desc>lat.=22.087744, lon.=104.253746, Alt.=224.119263m. Speed=0.972000m/h.</desc>
<speed>0.270000</speed>
</trkpt>
<trkpt lat="22.087755" lon="104.253731">
<ele>224.021606</ele>
<time>2011-04-26T11:10:55Z</time>
<desc>lat.=22.087755, lon.=104.253731, Alt.=224.021606m. Speed=0.468000m/h.</desc>
<speed>0.130000</speed>
</trkpt>
<trkpt lat="22.087770" lon="104.253738">
<ele>223.916138</ele>
<time>2011-04-26T11:11:00Z</time>
<desc>lat.=22.087770, lon.=104.253738, Alt.=223.916138m. Speed=1.584000m/h.</desc>
<speed>0.440000</speed>
</trkpt>
<trkpt lat="22.087807" lon="104.253754">
<ele>223.873169</ele>
<time>2011-04-26T11:11:05Z</time>
<desc>lat.=22.087807, lon.=104.253754, Alt.=223.873169m. Speed=1.836000m/h.</desc>
<speed>0.510000</speed>
</trkpt>
<trkpt lat="22.087856" lon="104.253777">
<ele>224.189575</ele>
<time>2011-04-26T11:11:10Z</time>
<desc>lat.=22.087856, lon.=104.253777, Alt.=224.189575m. Speed=1.692000m/h.</desc>
<speed>0.470000</speed>
</trkpt>
<trkpt lat="22.087938" lon="104.253815">
<ele>224.603638</ele>
<time>2011-04-26T11:11:15Z</time>
<desc>lat.=22.087938, lon.=104.253815, Alt.=224.603638m. Speed=3.168000m/h.</desc>
<speed>0.880000</speed>
</trkpt>
<trkpt lat="22.088005" lon="104.253830">
<ele>225.107544</ele>
<time>2011-04-26T11:11:20Z</time>
<desc>lat.=22.088005, lon.=104.253830, Alt.=225.107544m. Speed=2.880000m/h.</desc>
<speed>0.800000</speed>
</trkpt>
<trkpt lat="22.088020" lon="104.253792">
<ele>225.646606</ele>
<time>2011-04-26T11:11:25Z</time>
<desc>lat.=22.088020, lon.=104.253792, Alt.=225.646606m. Speed=1.980000m/h.</desc>
<speed>0.550000</speed>
</trkpt>
<trkpt lat="22.088001" lon="104.253738">
<ele>226.416138</ele>
<time>2011-04-26T11:11:30Z</time>
<desc>lat.=22.088001, lon.=104.253738, Alt.=226.416138m. Speed=1.800000m/h.</desc>
<speed>0.500000</speed>
</trkpt>
<trkpt lat="22.087997" lon="104.253708">
<ele>227.056763</ele>
<time>2011-04-26T11:11:35Z</time>
<desc>lat.=22.087997, lon.=104.253708, Alt.=227.056763m. Speed=1.332000m/h.</desc>
<speed>0.370000</speed>
</trkpt>
<trkpt lat="22.088011" lon="104.253685">
<ele>227.556763</ele>
<time>2011-04-26T11:11:40Z</time>
<desc>lat.=22.088011, lon.=104.253685, Alt.=227.556763m. Speed=1.800000m/h.</desc>
<speed>0.500000</speed>
</trkpt>
<trkpt lat="22.088001" lon="104.253677">
<ele>228.170044</ele>
<time>2011-04-26T11:11:45Z</time>
<desc>lat.=22.088001, lon.=104.253677, Alt.=228.170044m. Speed=0.540000m/h.</desc>
<speed>0.150000</speed>
</trkpt>
<trkpt lat="22.087969" lon="104.253677">
<ele>228.623169</ele>
<time>2011-04-26T11:11:50Z</time>
<desc>lat.=22.087969, lon.=104.253677, Alt.=228.623169m. Speed=0.540000m/h.</desc>
<speed>0.150000</speed>
</trkpt>
<trkpt lat="22.087961" lon="104.253670">
<ele>228.662231</ele>
<time>2011-04-26T11:11:55Z</time>
<desc>lat.=22.087961, lon.=104.253670, Alt.=228.662231m. Speed=0.900000m/h.</desc>
<speed>0.250000</speed>
</trkpt>
<trkpt lat="22.087955" lon="104.253677">
<ele>228.670044</ele>
<time>2011-04-26T11:12:00Z</time>
<desc>lat.=22.087955, lon.=104.253677, Alt.=228.670044m. Speed=1.008000m/h.</desc>
<speed>0.280000</speed>
</trkpt>
<trkpt lat="22.087934" lon="104.253708">
<ele>228.295044</ele>
<time>2011-04-26T11:12:05Z</time>
<desc>lat.=22.087934, lon.=104.253708, Alt.=228.295044m. Speed=0.756000m/h.</desc>
<speed>0.210000</speed>
</trkpt>
<trkpt lat="22.087927" lon="104.253738">
<ele>227.959106</ele>
<time>2011-04-26T11:12:10Z</time>
<desc>lat.=22.087927, lon.=104.253738, Alt.=227.959106m. Speed=1.260000m/h.</desc>
<speed>0.350000</speed>
</trkpt>
<trkpt lat="22.087902" lon="104.253746">
<ele>227.572388</ele>
<time>2011-04-26T11:12:15Z</time>
<desc>lat.=22.087902, lon.=104.253746, Alt.=227.572388m. Speed=0.144000m/h.</desc>
<speed>0.040000</speed>
</trkpt>
<trkpt lat="22.087894" lon="104.253754">
<ele>227.517700</ele>
<time>2011-04-26T11:12:20Z</time>
<desc>lat.=22.087894, lon.=104.253754, Alt.=227.517700m. Speed=0.972000m/h.</desc>
<speed>0.270000</speed>
</trkpt>
<trkpt lat="22.087868" lon="104.253769">
<ele>226.830200</ele>
<time>2011-04-26T11:12:25Z</time>
<desc>lat.=22.087868, lon.=104.253769, Alt.=226.830200m. Speed=0.792000m/h.</desc>
<speed>0.220000</speed>
</trkpt>
<trkpt lat="22.087870" lon="104.253792">
<ele>226.490356</ele>
<time>2011-04-26T11:12:30Z</time>
<desc>lat.=22.087870, lon.=104.253792, Alt.=226.490356m. Speed=0.612000m/h.</desc>
<speed>0.170000</speed>
</trkpt>
<trkpt lat="22.087887" lon="104.253822">
<ele>226.088013</ele>
<time>2011-04-26T11:12:35Z</time>
<desc>lat.=22.087887, lon.=104.253822, Alt.=226.088013m. Speed=1.368000m/h.</desc>
<speed>0.380000</speed>
</trkpt>
<trkpt lat="22.087887" lon="104.253815">
<ele>225.896606</ele>
<time>2011-04-26T11:12:40Z</time>
<desc>lat.=22.087887, lon.=104.253815, Alt.=225.896606m. Speed=1.008000m/h.</desc>
<speed>0.280000</speed>
</trkpt>
<trkpt lat="22.087885" lon="104.253822">
<ele>225.681763</ele>
<time>2011-04-26T11:12:45Z</time>
<desc>lat.=22.087885, lon.=104.253822, Alt.=225.681763m. Speed=0.792000m/h.</desc>
<speed>0.220000</speed>
</trkpt>
<trkpt lat="22.087885" lon="104.253830">
<ele>225.486450</ele>
<time>2011-04-26T11:12:50Z</time>
<desc>lat.=22.087885, lon.=104.253830, Alt.=225.486450m. Speed=0.288000m/h.</desc>
<speed>0.080000</speed>
</trkpt>
<trkpt lat="22.087887" lon="104.253830">
<ele>225.455200</ele>
<time>2011-04-26T11:12:55Z</time>
<desc>lat.=22.087887, lon.=104.253830, Alt.=225.455200m. Speed=1.188000m/h.</desc>
<speed>0.330000</speed>
</trkpt>
<trkpt lat="22.087898" lon="104.253799">
<ele>225.295044</ele>
<time>2011-04-26T11:13:00Z</time>
<desc>lat.=22.087898, lon.=104.253799, Alt.=225.295044m. Speed=1.584000m/h.</desc>
<speed>0.440000</speed>
</trkpt>
<trkpt lat="22.087914" lon="104.253761">
<ele>225.189575</ele>
<time>2011-04-26T11:13:05Z</time>
<desc>lat.=22.087914, lon.=104.253761, Alt.=225.189575m. Speed=2.160000m/h.</desc>
<speed>0.600000</speed>
</trkpt>
<trkpt lat="22.087900" lon="104.253731">
<ele>225.115356</ele>
<time>2011-04-26T11:13:10Z</time>
<desc>lat.=22.087900, lon.=104.253731, Alt.=225.115356m. Speed=1.980000m/h.</desc>
<speed>0.550000</speed>
</trkpt>
<trkpt lat="22.087875" lon="104.253693">
<ele>224.865356</ele>
<time>2011-04-26T11:13:15Z</time>
<desc>lat.=22.087875, lon.=104.253693, Alt.=224.865356m. Speed=1.764000m/h.</desc>
<speed>0.490000</speed>
</trkpt>
<trkpt lat="22.087885" lon="104.253677">
<ele>225.076294</ele>
<time>2011-04-26T11:13:20Z</time>
<desc>lat.=22.087885, lon.=104.253677, Alt.=225.076294m. Speed=1.764000m/h.</desc>
<speed>0.490000</speed>
</trkpt>
<trkpt lat="22.087893" lon="104.253677">
<ele>225.033325</ele>
<time>2011-04-26T11:13:25Z</time>
<desc>lat.=22.087893, lon.=104.253677, Alt.=225.033325m. Speed=1.044000m/h.</desc>
<speed>0.290000</speed>
</trkpt>
<trkpt lat="22.087902" lon="104.253693">
<ele>224.951294</ele>
<time>2011-04-26T11:13:30Z</time>
<desc>lat.=22.087902, lon.=104.253693, Alt.=224.951294m. Speed=1.116000m/h.</desc>
<speed>0.310000</speed>
</trkpt>
<trkpt lat="22.087891" lon="104.253700">
<ele>224.892700</ele>
<time>2011-04-26T11:13:35Z</time>
<desc>lat.=22.087891, lon.=104.253700, Alt.=224.892700m. Speed=0.360000m/h.</desc>
<speed>0.100000</speed>
</trkpt>
<trkpt lat="22.087887" lon="104.253700">
<ele>224.916138</ele>
<time>2011-04-26T11:13:40Z</time>
<desc>lat.=22.087887, lon.=104.253700, Alt.=224.916138m. Speed=0.432000m/h.</desc>
<speed>0.120000</speed>
</trkpt>
<trkpt lat="22.087883" lon="104.253700">
<ele>224.978638</ele>
<time>2011-04-26T11:13:45Z</time>
<desc>lat.=22.087883, lon.=104.253700, Alt.=224.978638m. Speed=0.180000m/h.</desc>
<speed>0.050000</speed>
</trkpt>
<trkpt lat="22.087879" lon="104.253700">
<ele>224.986450</ele>
<time>2011-04-26T11:13:50Z</time>
<desc>lat.=22.087879, lon.=104.253700, Alt.=224.986450m. Speed=0.792000m/h.</desc>
<speed>0.220000</speed>
</trkpt>
<trkpt lat="22.087868" lon="104.253700">
<ele>225.029419</ele>
<time>2011-04-26T11:13:55Z</time>
<desc>lat.=22.087868, lon.=104.253700, Alt.=225.029419m. Speed=0.792000m/h.</desc>
<speed>0.220000</speed>
</trkpt>
<trkpt lat="22.087860" lon="104.253700">
<ele>225.056763</ele>
<time>2011-04-26T11:14:00Z</time>
<desc>lat.=22.087860, lon.=104.253700, Alt.=225.056763m. Speed=0.612000m/h.</desc>
<speed>0.170000</speed>
</trkpt>
<trkpt lat="22.087839" lon="104.253693">
<ele>225.142700</ele>
<time>2011-04-26T11:14:05Z</time>
<desc>lat.=22.087839, lon.=104.253693, Alt.=225.142700m. Speed=1.404000m/h.</desc>
<speed>0.390000</speed>
</trkpt>
<trkpt lat="22.087835" lon="104.253700">
<ele>225.341919</ele>
<time>2011-04-26T11:14:10Z</time>
<desc>lat.=22.087835, lon.=104.253700, Alt.=225.341919m. Speed=0.360000m/h.</desc>
<speed>0.100000</speed>
</trkpt>
<trkpt lat="22.087839" lon="104.253693">
<ele>225.334106</ele>
<time>2011-04-26T11:14:15Z</time>
<desc>lat.=22.087839, lon.=104.253693, Alt.=225.334106m. Speed=0.504000m/h.</desc>
<speed>0.140000</speed>
</trkpt>
<trkpt lat="22.087833" lon="104.253693">
<ele>225.298950</ele>
<time>2011-04-26T11:14:20Z</time>
<desc>lat.=22.087833, lon.=104.253693, Alt.=225.298950m. Speed=0.360000m/h.</desc>
<speed>0.100000</speed>
</trkpt>
<trkpt lat="22.087826" lon="104.253693">
<ele>225.283325</ele>
<time>2011-04-26T11:14:25Z</time>
<desc>lat.=22.087826, lon.=104.253693, Alt.=225.283325m. Speed=0.432000m/h.</desc>
<speed>0.120000</speed>
</trkpt>
<trkpt lat="22.087830" lon="104.253693">
<ele>225.306763</ele>
<time>2011-04-26T11:14:30Z</time>
<desc>lat.=22.087830, lon.=104.253693, Alt.=225.306763m. Speed=0.468000m/h.</desc>
<speed>0.130000</speed>
</trkpt>
<trkpt lat="22.087835" lon="104.253700">
<ele>225.330200</ele>
<time>2011-04-26T11:14:35Z</time>
<desc>lat.=22.087835, lon.=104.253700, Alt.=225.330200m. Speed=0.612000m/h.</desc>
<speed>0.170000</speed>
</trkpt>
<trkpt lat="22.087849" lon="104.253716">
<ele>225.193481</ele>
<time>2011-04-26T11:14:40Z</time>
<desc>lat.=22.087849, lon.=104.253716, Alt.=225.193481m. Speed=0.864000m/h.</desc>
<speed>0.240000</speed>
</trkpt>
<trkpt lat="22.087858" lon="104.253716">
<ele>225.298950</ele>
<time>2011-04-26T11:14:45Z</time>
<desc>lat.=22.087858, lon.=104.253716, Alt.=225.298950m. Speed=0.324000m/h.</desc>
<speed>0.090000</speed>
</trkpt>
<trkpt lat="22.087864" lon="104.253708">
<ele>225.338013</ele>
<time>2011-04-26T11:14:50Z</time>
<desc>lat.=22.087864, lon.=104.253708, Alt.=225.338013m. Speed=0.540000m/h.</desc>
<speed>0.150000</speed>
</trkpt>
<trkpt lat="22.087872" lon="104.253700">
<ele>225.392700</ele>
<time>2011-04-26T11:14:55Z</time>
<desc>lat.=22.087872, lon.=104.253700, Alt.=225.392700m. Speed=1.260000m/h.</desc>
<speed>0.350000</speed>
</trkpt>
<trkpt lat="22.087870" lon="104.253716">
<ele>225.838013</ele>
<time>2011-04-26T11:15:00Z</time>
<desc>lat.=22.087870, lon.=104.253716, Alt.=225.838013m. Speed=0.612000m/h.</desc>
<speed>0.170000</speed>
</trkpt>
<trkpt lat="22.087864" lon="104.253716">
<ele>225.849731</ele>
<time>2011-04-26T11:15:05Z</time>
<desc>lat.=22.087864, lon.=104.253716, Alt.=225.849731m. Speed=0.936000m/h.</desc>
<speed>0.260000</speed>
</trkpt>
<trkpt lat="22.087837" lon="104.253708">
<ele>225.736450</ele>
<time>2011-04-26T11:15:10Z</time>
<desc>lat.=22.087837, lon.=104.253708, Alt.=225.736450m. Speed=0.936000m/h.</desc>
<speed>0.260000</speed>
</trkpt>
<trkpt lat="22.087828" lon="104.253716">
<ele>225.693481</ele>
<time>2011-04-26T11:15:15Z</time>
<desc>lat.=22.087828, lon.=104.253716, Alt.=225.693481m. Speed=0.540000m/h.</desc>
<speed>0.150000</speed>
</trkpt>
<trkpt lat="22.087837" lon="104.253716">
<ele>225.634888</ele>
<time>2011-04-26T11:15:20Z</time>
<desc>lat.=22.087837, lon.=104.253716, Alt.=225.634888m. Speed=1.476000m/h.</desc>
<speed>0.410000</speed>
</trkpt>
<trkpt lat="22.087864" lon="104.253777">
<ele>225.947388</ele>
<time>2011-04-26T11:15:25Z</time>
<desc>lat.=22.087864, lon.=104.253777, Alt.=225.947388m. Speed=1.584000m/h.</desc>
<speed>0.440000</speed>
</trkpt>
<trkpt lat="22.087852" lon="104.253792">
<ele>225.732544</ele>
<time>2011-04-26T11:15:30Z</time>
<desc>lat.=22.087852, lon.=104.253792, Alt.=225.732544m. Speed=0.036000m/h.</desc>
<speed>0.010000</speed>
</trkpt>
<trkpt lat="22.087854" lon="104.253792">
<ele>225.709106</ele>
<time>2011-04-26T11:15:35Z</time>
<desc>lat.=22.087854, lon.=104.253792, Alt.=225.709106m. Speed=0.432000m/h.</desc>
<speed>0.120000</speed>
</trkpt>
<trkpt lat="22.087847" lon="104.253799">
<ele>225.638794</ele>
<time>2011-04-26T11:15:40Z</time>
<desc>lat.=22.087847, lon.=104.253799, Alt.=225.638794m. Speed=1.008000m/h.</desc>
<speed>0.280000</speed>
</trkpt>
<trkpt lat="22.087839" lon="104.253799">
<ele>225.607544</ele>
<time>2011-04-26T11:15:45Z</time>
<desc>lat.=22.087839, lon.=104.253799, Alt.=225.607544m. Speed=0.396000m/h.</desc>
<speed>0.110000</speed>
</trkpt>
<trkpt lat="22.087831" lon="104.253807">
<ele>225.591919</ele>
<time>2011-04-26T11:15:50Z</time>
<desc>lat.=22.087831, lon.=104.253807, Alt.=225.591919m. Speed=0.612000m/h.</desc>
<speed>0.170000</speed>
</trkpt>
<trkpt lat="22.087822" lon="104.253807">
<ele>225.576294</ele>
<time>2011-04-26T11:15:55Z</time>
<desc>lat.=22.087822, lon.=104.253807, Alt.=225.576294m. Speed=0.360000m/h.</desc>
<speed>0.100000</speed>
</trkpt>
<trkpt lat="22.087826" lon="104.253815">
<ele>225.693481</ele>
<time>2011-04-26T11:16:00Z</time>
<desc>lat.=22.087826, lon.=104.253815, Alt.=225.693481m. Speed=1.188000m/h.</desc>
<speed>0.330000</speed>
</trkpt>
<trkpt lat="22.087824" lon="104.253807">
<ele>225.861450</ele>
<time>2011-04-26T11:16:05Z</time>
<desc>lat.=22.087824, lon.=104.253807, Alt.=225.861450m. Speed=1.548000m/h.</desc>
<speed>0.430000</speed>
</trkpt>
<trkpt lat="22.087809" lon="104.253769">
<ele>225.713013</ele>
<time>2011-04-26T11:16:10Z</time>
<desc>lat.=22.087809, lon.=104.253769, Alt.=225.713013m. Speed=2.916000m/h.</desc>
<speed>0.810000</speed>
</trkpt>
<trkpt lat="22.087788" lon="104.253777">
<ele>225.447388</ele>
<time>2011-04-26T11:16:15Z</time>
<desc>lat.=22.087788, lon.=104.253777, Alt.=225.447388m. Speed=0.936000m/h.</desc>
<speed>0.260000</speed>
</trkpt>
<trkpt lat="22.087786" lon="104.253769">
<ele>225.474731</ele>
<time>2011-04-26T11:16:20Z</time>
<desc>lat.=22.087786, lon.=104.253769, Alt.=225.474731m. Speed=0.324000m/h.</desc>
<speed>0.090000</speed>
</trkpt>
<trkpt lat="22.087790" lon="104.253769">
<ele>225.505981</ele>
<time>2011-04-26T11:16:25Z</time>
<desc>lat.=22.087790, lon.=104.253769, Alt.=225.505981m. Speed=0.864000m/h.</desc>
<speed>0.240000</speed>
</trkpt>
<trkpt lat="22.087778" lon="104.253769">
<ele>225.396606</ele>
<time>2011-04-26T11:16:30Z</time>
<desc>lat.=22.087778, lon.=104.253769, Alt.=225.396606m. Speed=0.108000m/h.</desc>
<speed>0.030000</speed>
</trkpt>
<trkpt lat="22.087778" lon="104.253769">
<ele>225.416138</ele>
<time>2011-04-26T11:16:35Z</time>
<desc>lat.=22.087778, lon.=104.253769, Alt.=225.416138m. Speed=0.180000m/h.</desc>
<speed>0.050000</speed>
</trkpt>
<trkpt lat="22.087786" lon="104.253769">
<ele>225.322388</ele>
<time>2011-04-26T11:16:40Z</time>
<desc>lat.=22.087786, lon.=104.253769, Alt.=225.322388m. Speed=0.936000m/h.</desc>
<speed>0.260000</speed>
</trkpt>
<trkpt lat="22.087776" lon="104.253799">
<ele>224.931763</ele>
<time>2011-04-26T11:16:45Z</time>
<desc>lat.=22.087776, lon.=104.253799, Alt.=224.931763m. Speed=0.720000m/h.</desc>
<speed>0.200000</speed>
</trkpt>
<trkpt lat="22.087770" lon="104.253807">
<ele>224.853638</ele>
<time>2011-04-26T11:16:50Z</time>
<desc>lat.=22.087770, lon.=104.253807, Alt.=224.853638m. Speed=0.828000m/h.</desc>
<speed>0.230000</speed>
</trkpt>
<trkpt lat="22.087759" lon="104.253815">
<ele>224.736450</ele>
<time>2011-04-26T11:16:55Z</time>
<desc>lat.=22.087759, lon.=104.253815, Alt.=224.736450m. Speed=0.468000m/h.</desc>
<speed>0.130000</speed>
</trkpt>
<trkpt lat="22.087759" lon="104.253807">
<ele>224.463013</ele>
<time>2011-04-26T11:17:00Z</time>
<desc>lat.=22.087759, lon.=104.253807, Alt.=224.463013m. Speed=1.548000m/h.</desc>
<speed>0.430000</speed>
</trkpt>
<trkpt lat="22.087740" lon="104.253822">
<ele>223.920044</ele>
<time>2011-04-26T11:17:05Z</time>
<desc>lat.=22.087740, lon.=104.253822, Alt.=223.920044m. Speed=0.540000m/h.</desc>
<speed>0.150000</speed>
</trkpt>
<trkpt lat="22.087734" lon="104.253830">
<ele>223.861450</ele>
<time>2011-04-26T11:17:10Z</time>
<desc>lat.=22.087734, lon.=104.253830, Alt.=223.861450m. Speed=0.972000m/h.</desc>
<speed>0.270000</speed>
</trkpt>
<trkpt lat="22.087738" lon="104.253815">
<ele>223.802856</ele>
<time>2011-04-26T11:17:15Z</time>
<desc>lat.=22.087738, lon.=104.253815, Alt.=223.802856m. Speed=0.324000m/h.</desc>
<speed>0.090000</speed>
</trkpt>
<trkpt lat="22.087736" lon="104.253822">
<ele>223.869263</ele>
<time>2011-04-26T11:17:20Z</time>
<desc>lat.=22.087736, lon.=104.253822, Alt.=223.869263m. Speed=0.216000m/h.</desc>
<speed>0.060000</speed>
</trkpt>
<trkpt lat="22.087730" lon="104.253838">
<ele>223.986450</ele>
<time>2011-04-26T11:17:25Z</time>
<desc>lat.=22.087730, lon.=104.253838, Alt.=223.986450m. Speed=0.288000m/h.</desc>
<speed>0.080000</speed>
</trkpt>
<trkpt lat="22.087730" lon="104.253830">
<ele>223.986450</ele>
<time>2011-04-26T11:17:30Z</time>
<desc>lat.=22.087730, lon.=104.253830, Alt.=223.986450m. Speed=0.144000m/h.</desc>
<speed>0.040000</speed>
</trkpt>
<trkpt lat="22.087736" lon="104.253845">
<ele>223.927856</ele>
<time>2011-04-26T11:17:35Z</time>
<desc>lat.=22.087736, lon.=104.253845, Alt.=223.927856m. Speed=0.684000m/h.</desc>
<speed>0.190000</speed>
</trkpt>
<trkpt lat="22.087761" lon="104.253838">
<ele>223.810669</ele>
<time>2011-04-26T11:17:40Z</time>
<desc>lat.=22.087761, lon.=104.253838, Alt.=223.810669m. Speed=1.692000m/h.</desc>
<speed>0.470000</speed>
</trkpt>
<trkpt lat="22.087793" lon="104.253799">
<ele>223.642700</ele>
<time>2011-04-26T11:17:45Z</time>
<desc>lat.=22.087793, lon.=104.253799, Alt.=223.642700m. Speed=2.772000m/h.</desc>
<speed>0.770000</speed>
</trkpt>
<trkpt lat="22.087807" lon="104.253799">
<ele>223.072388</ele>
<time>2011-04-26T11:17:50Z</time>
<desc>lat.=22.087807, lon.=104.253799, Alt.=223.072388m. Speed=2.016000m/h.</desc>
<speed>0.560000</speed>
</trkpt>
<trkpt lat="22.087786" lon="104.253822">
<ele>222.685669</ele>
<time>2011-04-26T11:17:55Z</time>
<desc>lat.=22.087786, lon.=104.253822, Alt.=222.685669m. Speed=0.900000m/h.</desc>
<speed>0.250000</speed>
</trkpt>
<trkpt lat="22.087778" lon="104.253815">
<ele>223.091919</ele>
<time>2011-04-26T11:18:00Z</time>
<desc>lat.=22.087778, lon.=104.253815, Alt.=223.091919m. Speed=0.864000m/h.</desc>
<speed>0.240000</speed>
</trkpt>
<trkpt lat="22.087778" lon="104.253799">
<ele>223.795044</ele>
<time>2011-04-26T11:18:05Z</time>
<desc>lat.=22.087778, lon.=104.253799, Alt.=223.795044m. Speed=1.008000m/h.</desc>
<speed>0.280000</speed>
</trkpt>
<trkpt lat="22.087765" lon="104.253784">
<ele>224.517700</ele>
<time>2011-04-26T11:18:10Z</time>
<desc>lat.=22.087765, lon.=104.253784, Alt.=224.517700m. Speed=1.116000m/h.</desc>
<speed>0.310000</speed>
</trkpt>
<trkpt lat="22.087742" lon="104.253807">
<ele>224.951294</ele>
<time>2011-04-26T11:18:15Z</time>
<desc>lat.=22.087742, lon.=104.253807, Alt.=224.951294m. Speed=0.252000m/h.</desc>
<speed>0.070000</speed>
</trkpt>
<trkpt lat="22.087742" lon="104.253807">
<ele>225.037231</ele>
<time>2011-04-26T11:18:20Z</time>
<desc>lat.=22.087742, lon.=104.253807, Alt.=225.037231m. Speed=0.432000m/h.</desc>
<speed>0.120000</speed>
</trkpt>
<trkpt lat="22.087732" lon="104.253815">
<ele>224.986450</ele>
<time>2011-04-26T11:18:25Z</time>
<desc>lat.=22.087732, lon.=104.253815, Alt.=224.986450m. Speed=1.728000m/h.</desc>
<speed>0.480000</speed>
</trkpt>
<trkpt lat="22.087723" lon="104.253815">
<ele>225.439575</ele>
<time>2011-04-26T11:18:30Z</time>
<desc>lat.=22.087723, lon.=104.253815, Alt.=225.439575m. Speed=0.648000m/h.</desc>
<speed>0.180000</speed>
</trkpt>
<trkpt lat="22.087723" lon="104.253845">
<ele>225.974731</ele>
<time>2011-04-26T11:18:35Z</time>
<desc>lat.=22.087723, lon.=104.253845, Alt.=225.974731m. Speed=1.260000m/h.</desc>
<speed>0.350000</speed>
</trkpt>
<trkpt lat="22.087715" lon="104.253883">
<ele>226.263794</ele>
<time>2011-04-26T11:18:40Z</time>
<desc>lat.=22.087715, lon.=104.253883, Alt.=226.263794m. Speed=0.936000m/h.</desc>
<speed>0.260000</speed>
</trkpt>
<trkpt lat="22.087723" lon="104.253876">
<ele>226.392700</ele>
<time>2011-04-26T11:18:45Z</time>
<desc>lat.=22.087723, lon.=104.253876, Alt.=226.392700m. Speed=0.684000m/h.</desc>
<speed>0.190000</speed>
</trkpt>
<trkpt lat="22.087753" lon="104.253883">
<ele>226.244263</ele>
<time>2011-04-26T11:18:50Z</time>
<desc>lat.=22.087753, lon.=104.253883, Alt.=226.244263m. Speed=0.936000m/h.</desc>
<speed>0.260000</speed>
</trkpt>
<trkpt lat="22.087767" lon="104.253868">
<ele>226.150513</ele>
<time>2011-04-26T11:18:55Z</time>
<desc>lat.=22.087767, lon.=104.253868, Alt.=226.150513m. Speed=0.540000m/h.</desc>
<speed>0.150000</speed>
</trkpt>
<trkpt lat="22.087770" lon="104.253876">
<ele>226.127075</ele>
<time>2011-04-26T11:19:00Z</time>
<desc>lat.=22.087770, lon.=104.253876, Alt.=226.127075m. Speed=0.324000m/h.</desc>
<speed>0.090000</speed>
</trkpt>
<trkpt lat="22.087770" lon="104.253876">
<ele>226.107544</ele>
<time>2011-04-26T11:19:05Z</time>
<desc>lat.=22.087770, lon.=104.253876, Alt.=226.107544m. Speed=0.288000m/h.</desc>
<speed>0.080000</speed>
</trkpt>
<trkpt lat="22.087782" lon="104.253860">
<ele>226.205200</ele>
<time>2011-04-26T11:19:10Z</time>
<desc>lat.=22.087782, lon.=104.253860, Alt.=226.205200m. Speed=0.756000m/h.</desc>
<speed>0.210000</speed>
</trkpt>
<trkpt lat="22.087795" lon="104.253853">
<ele>226.240356</ele>
<time>2011-04-26T11:19:15Z</time>
<desc>lat.=22.087795, lon.=104.253853, Alt.=226.240356m. Speed=0.972000m/h.</desc>
<speed>0.270000</speed>
</trkpt>
<trkpt lat="22.087811" lon="104.253845">
<ele>226.271606</ele>
<time>2011-04-26T11:19:20Z</time>
<desc>lat.=22.087811, lon.=104.253845, Alt.=226.271606m. Speed=1.656000m/h.</desc>
<speed>0.460000</speed>
</trkpt>
<trkpt lat="22.087830" lon="104.253830">
<ele>226.181763</ele>
<time>2011-04-26T11:19:25Z</time>
<desc>lat.=22.087830, lon.=104.253830, Alt.=226.181763m. Speed=1.692000m/h.</desc>
<speed>0.470000</speed>
</trkpt>
<trkpt lat="22.087822" lon="104.253838">
<ele>226.205200</ele>
<time>2011-04-26T11:19:30Z</time>
<desc>lat.=22.087822, lon.=104.253838, Alt.=226.205200m. Speed=0.396000m/h.</desc>
<speed>0.110000</speed>
</trkpt>
<trkpt lat="22.087822" lon="104.253838">
<ele>226.232544</ele>
<time>2011-04-26T11:19:35Z</time>
<desc>lat.=22.087822, lon.=104.253838, Alt.=226.232544m. Speed=0.288000m/h.</desc>
<speed>0.080000</speed>
</trkpt>
<trkpt lat="22.087820" lon="104.253838">
<ele>226.248169</ele>
<time>2011-04-26T11:19:40Z</time>
<desc>lat.=22.087820, lon.=104.253838, Alt.=226.248169m. Speed=0.612000m/h.</desc>
<speed>0.170000</speed>
</trkpt>
<trkpt lat="22.087828" lon="104.253830">
<ele>226.220825</ele>
<time>2011-04-26T11:19:45Z</time>
<desc>lat.=22.087828, lon.=104.253830, Alt.=226.220825m. Speed=1.296000m/h.</desc>
<speed>0.360000</speed>
</trkpt>
<trkpt lat="22.087830" lon="104.253822">
<ele>226.037231</ele>
<time>2011-04-26T11:19:50Z</time>
<desc>lat.=22.087830, lon.=104.253822, Alt.=226.037231m. Speed=0.468000m/h.</desc>
<speed>0.130000</speed>
</trkpt>
<trkpt lat="22.087828" lon="104.253830">
<ele>226.029419</ele>
<time>2011-04-26T11:19:55Z</time>
<desc>lat.=22.087828, lon.=104.253830, Alt.=226.029419m. Speed=1.152000m/h.</desc>
<speed>0.320000</speed>
</trkpt>
<trkpt lat="22.087828" lon="104.253830">
<ele>226.525513</ele>
<time>2011-04-26T11:20:00Z</time>
<desc>lat.=22.087828, lon.=104.253830, Alt.=226.525513m. Speed=0.360000m/h.</desc>
<speed>0.100000</speed>
</trkpt>
<trkpt lat="22.087837" lon="104.253853">
<ele>226.634888</ele>
<time>2011-04-26T11:20:05Z</time>
<desc>lat.=22.087837, lon.=104.253853, Alt.=226.634888m. Speed=1.692000m/h.</desc>
<speed>0.470000</speed>
</trkpt>
<trkpt lat="22.087824" lon="104.253899">
<ele>226.802856</ele>
<time>2011-04-26T11:20:10Z</time>
<desc>lat.=22.087824, lon.=104.253899, Alt.=226.802856m. Speed=1.872000m/h.</desc>
<speed>0.520000</speed>
</trkpt>
<trkpt lat="22.087845" lon="104.253876">
<ele>226.892700</ele>
<time>2011-04-26T11:20:15Z</time>
<desc>lat.=22.087845, lon.=104.253876, Alt.=226.892700m. Speed=1.152000m/h.</desc>
<speed>0.320000</speed>
</trkpt>
<trkpt lat="22.087841" lon="104.253860">
<ele>226.865356</ele>
<time>2011-04-26T11:20:20Z</time>
<desc>lat.=22.087841, lon.=104.253860, Alt.=226.865356m. Speed=0.432000m/h.</desc>
<speed>0.120000</speed>
</trkpt>
<trkpt lat="22.087841" lon="104.253860">
<ele>226.869263</ele>
<time>2011-04-26T11:20:25Z</time>
<desc>lat.=22.087841, lon.=104.253860, Alt.=226.869263m. Speed=0.432000m/h.</desc>
<speed>0.120000</speed>
</trkpt>
<trkpt lat="22.087858" lon="104.253860">
<ele>226.830200</ele>
<time>2011-04-26T11:20:30Z</time>
<desc>lat.=22.087858, lon.=104.253860, Alt.=226.830200m. Speed=1.728000m/h.</desc>
<speed>0.480000</speed>
</trkpt>
<trkpt lat="22.087889" lon="104.253845">
<ele>226.509888</ele>
<time>2011-04-26T11:20:35Z</time>
<desc>lat.=22.087889, lon.=104.253845, Alt.=226.509888m. Speed=1.188000m/h.</desc>
<speed>0.330000</speed>
</trkpt>
<trkpt lat="22.087898" lon="104.253822">
<ele>226.279419</ele>
<time>2011-04-26T11:20:40Z</time>
<desc>lat.=22.087898, lon.=104.253822, Alt.=226.279419m. Speed=1.152000m/h.</desc>
<speed>0.320000</speed>
</trkpt>
<trkpt lat="22.087896" lon="104.253815">
<ele>225.865356</ele>
<time>2011-04-26T11:20:45Z</time>
<desc>lat.=22.087896, lon.=104.253815, Alt.=225.865356m. Speed=1.368000m/h.</desc>
<speed>0.380000</speed>
</trkpt>
<trkpt lat="22.087887" lon="104.253815">
<ele>224.951294</ele>
<time>2011-04-26T11:20:50Z</time>
<desc>lat.=22.087887, lon.=104.253815, Alt.=224.951294m. Speed=0.072000m/h.</desc>
<speed>0.020000</speed>
</trkpt>
<trkpt lat="22.087875" lon="104.253830">
<ele>224.556763</ele>
<time>2011-04-26T11:20:55Z</time>
<desc>lat.=22.087875, lon.=104.253830, Alt.=224.556763m. Speed=1.224000m/h.</desc>
<speed>0.340000</speed>
</trkpt>
<trkpt lat="22.087860" lon="104.253845">
<ele>223.802856</ele>
<time>2011-04-26T11:21:00Z</time>
<desc>lat.=22.087860, lon.=104.253845, Alt.=223.802856m. Speed=0.360000m/h.</desc>
<speed>0.100000</speed>
</trkpt>
<trkpt lat="22.087862" lon="104.253845">
<ele>223.771606</ele>
<time>2011-04-26T11:21:05Z</time>
<desc>lat.=22.087862, lon.=104.253845, Alt.=223.771606m. Speed=0.540000m/h.</desc>
<speed>0.150000</speed>
</trkpt>
<trkpt lat="22.087860" lon="104.253853">
<ele>223.736450</ele>
<time>2011-04-26T11:21:10Z</time>
<desc>lat.=22.087860, lon.=104.253853, Alt.=223.736450m. Speed=0.936000m/h.</desc>
<speed>0.260000</speed>
</trkpt>
<trkpt lat="22.087854" lon="104.253860">
<ele>223.740356</ele>
<time>2011-04-26T11:21:15Z</time>
<desc>lat.=22.087854, lon.=104.253860, Alt.=223.740356m. Speed=0.144000m/h.</desc>
<speed>0.040000</speed>
</trkpt>
<trkpt lat="22.087854" lon="104.253853">
<ele>223.646606</ele>
<time>2011-04-26T11:21:20Z</time>
<desc>lat.=22.087854, lon.=104.253853, Alt.=223.646606m. Speed=1.080000m/h.</desc>
<speed>0.300000</speed>
</trkpt>
<trkpt lat="22.087858" lon="104.253845">
<ele>223.326294</ele>
<time>2011-04-26T11:21:25Z</time>
<desc>lat.=22.087858, lon.=104.253845, Alt.=223.326294m. Speed=1.044000m/h.</desc>
<speed>0.290000</speed>
</trkpt>
<trkpt lat="22.087877" lon="104.253807">
<ele>223.334106</ele>
<time>2011-04-26T11:21:30Z</time>
<desc>lat.=22.087877, lon.=104.253807, Alt.=223.334106m. Speed=1.440000m/h.</desc>
<speed>0.400000</speed>
</trkpt>
<trkpt lat="22.087885" lon="104.253807">
<ele>223.130981</ele>
<time>2011-04-26T11:21:35Z</time>
<desc>lat.=22.087885, lon.=104.253807, Alt.=223.130981m. Speed=1.008000m/h.</desc>
<speed>0.280000</speed>
</trkpt>
<trkpt lat="22.087875" lon="104.253807">
<ele>223.095825</ele>
<time>2011-04-26T11:21:40Z</time>
<desc>lat.=22.087875, lon.=104.253807, Alt.=223.095825m. Speed=1.476000m/h.</desc>
<speed>0.410000</speed>
</trkpt>
<trkpt lat="22.087854" lon="104.253815">
<ele>223.201294</ele>
<time>2011-04-26T11:21:45Z</time>
<desc>lat.=22.087854, lon.=104.253815, Alt.=223.201294m. Speed=0.360000m/h.</desc>
<speed>0.100000</speed>
</trkpt>
<trkpt lat="22.087849" lon="104.253822">
<ele>223.228638</ele>
<time>2011-04-26T11:21:50Z</time>
<desc>lat.=22.087849, lon.=104.253822, Alt.=223.228638m. Speed=1.188000m/h.</desc>
<speed>0.330000</speed>
</trkpt>
<trkpt lat="22.087822" lon="104.253807">
<ele>223.330200</ele>
<time>2011-04-26T11:21:55Z</time>
<desc>lat.=22.087822, lon.=104.253807, Alt.=223.330200m. Speed=1.188000m/h.</desc>
<speed>0.330000</speed>
</trkpt>
<trkpt lat="22.087835" lon="104.253799">
<ele>223.248169</ele>
<time>2011-04-26T11:22:00Z</time>
<desc>lat.=22.087835, lon.=104.253799, Alt.=223.248169m. Speed=0.900000m/h.</desc>
<speed>0.250000</speed>
</trkpt>
<trkpt lat="22.087811" lon="104.253784">
<ele>223.341919</ele>
<time>2011-04-26T11:22:05Z</time>
<desc>lat.=22.087811, lon.=104.253784, Alt.=223.341919m. Speed=1.728000m/h.</desc>
<speed>0.480000</speed>
</trkpt>
<trkpt lat="22.087803" lon="104.253784">
<ele>223.572388</ele>
<time>2011-04-26T11:22:10Z</time>
<desc>lat.=22.087803, lon.=104.253784, Alt.=223.572388m. Speed=0.540000m/h.</desc>
<speed>0.150000</speed>
</trkpt>
<trkpt lat="22.087786" lon="104.253799">
<ele>223.693481</ele>
<time>2011-04-26T11:22:15Z</time>
<desc>lat.=22.087786, lon.=104.253799, Alt.=223.693481m. Speed=0.720000m/h.</desc>
<speed>0.200000</speed>
</trkpt>
<trkpt lat="22.087778" lon="104.253815">
<ele>223.572388</ele>
<time>2011-04-26T11:22:20Z</time>
<desc>lat.=22.087778, lon.=104.253815, Alt.=223.572388m. Speed=1.368000m/h.</desc>
<speed>0.380000</speed>
</trkpt>
<trkpt lat="22.087793" lon="104.253815">
<ele>223.486450</ele>
<time>2011-04-26T11:22:25Z</time>
<desc>lat.=22.087793, lon.=104.253815, Alt.=223.486450m. Speed=0.684000m/h.</desc>
<speed>0.190000</speed>
</trkpt>
<trkpt lat="22.087797" lon="104.253822">
<ele>223.556763</ele>
<time>2011-04-26T11:22:30Z</time>
<desc>lat.=22.087797, lon.=104.253822, Alt.=223.556763m. Speed=0.792000m/h.</desc>
<speed>0.220000</speed>
</trkpt>
<trkpt lat="22.087784" lon="104.253838">
<ele>223.576294</ele>
<time>2011-04-26T11:22:35Z</time>
<desc>lat.=22.087784, lon.=104.253838, Alt.=223.576294m. Speed=1.368000m/h.</desc>
<speed>0.380000</speed>
</trkpt>
<trkpt lat="22.087791" lon="104.253891">
<ele>223.795044</ele>
<time>2011-04-26T11:22:40Z</time>
<desc>lat.=22.087791, lon.=104.253891, Alt.=223.795044m. Speed=2.880000m/h.</desc>
<speed>0.800000</speed>
</trkpt>
<trkpt lat="22.087799" lon="104.253883">
<ele>224.091919</ele>
<time>2011-04-26T11:22:45Z</time>
<desc>lat.=22.087799, lon.=104.253883, Alt.=224.091919m. Speed=1.872000m/h.</desc>
<speed>0.520000</speed>
</trkpt>
<trkpt lat="22.087782" lon="104.253838">
<ele>224.568481</ele>
<time>2011-04-26T11:22:50Z</time>
<desc>lat.=22.087782, lon.=104.253838, Alt.=224.568481m. Speed=0.900000m/h.</desc>
<speed>0.250000</speed>
</trkpt>
<trkpt lat="22.087788" lon="104.253845">
<ele>224.650513</ele>
<time>2011-04-26T11:22:55Z</time>
<desc>lat.=22.087788, lon.=104.253845, Alt.=224.650513m. Speed=1.872000m/h.</desc>
<speed>0.520000</speed>
</trkpt>
<trkpt lat="22.087778" lon="104.253830">
<ele>224.892700</ele>
<time>2011-04-26T11:23:00Z</time>
<desc>lat.=22.087778, lon.=104.253830, Alt.=224.892700m. Speed=0.360000m/h.</desc>
<speed>0.100000</speed>
</trkpt>
<trkpt lat="22.087753" lon="104.253799">
<ele>224.736450</ele>
<time>2011-04-26T11:23:05Z</time>
<desc>lat.=22.087753, lon.=104.253799, Alt.=224.736450m. Speed=2.196000m/h.</desc>
<speed>0.610000</speed>
</trkpt>
<trkpt lat="22.087748" lon="104.253761">
<ele>224.396606</ele>
<time>2011-04-26T11:23:10Z</time>
<desc>lat.=22.087748, lon.=104.253761, Alt.=224.396606m. Speed=2.880000m/h.</desc>
<speed>0.800000</speed>
</trkpt>
<trkpt lat="22.087723" lon="104.253723">
<ele>223.400513</ele>
<time>2011-04-26T11:23:15Z</time>
<desc>lat.=22.087723, lon.=104.253723, Alt.=223.400513m. Speed=3.888000m/h.</desc>
<speed>1.080000</speed>
</trkpt>
<trkpt lat="22.087715" lon="104.253693">
<ele>222.111450</ele>
<time>2011-04-26T11:23:20Z</time>
<desc>lat.=22.087715, lon.=104.253693, Alt.=222.111450m. Speed=3.852000m/h.</desc>
<speed>1.070000</speed>
</trkpt>
<trkpt lat="22.087730" lon="104.253731">
<ele>220.341919</ele>
<time>2011-04-26T11:23:25Z</time>
<desc>lat.=22.087730, lon.=104.253731, Alt.=220.341919m. Speed=0.324000m/h.</desc>
<speed>0.090000</speed>
</trkpt>
<trkpt lat="22.087749" lon="104.253777">
<ele>219.275513</ele>
<time>2011-04-26T11:23:30Z</time>
<desc>lat.=22.087749, lon.=104.253777, Alt.=219.275513m. Speed=1.296000m/h.</desc>
<speed>0.360000</speed>
</trkpt>
<trkpt lat="22.087738" lon="104.253792">
<ele>218.670044</ele>
<time>2011-04-26T11:23:35Z</time>
<desc>lat.=22.087738, lon.=104.253792, Alt.=218.670044m. Speed=2.160000m/h.</desc>
<speed>0.600000</speed>
</trkpt>
<trkpt lat="22.087708" lon="104.253761">
<ele>218.412231</ele>
<time>2011-04-26T11:23:40Z</time>
<desc>lat.=22.087708, lon.=104.253761, Alt.=218.412231m. Speed=3.384000m/h.</desc>
<speed>0.940000</speed>
</trkpt>
<trkpt lat="22.087704" lon="104.253761">
<ele>218.130981</ele>
<time>2011-04-26T11:23:45Z</time>
<desc>lat.=22.087704, lon.=104.253761, Alt.=218.130981m. Speed=2.016000m/h.</desc>
<speed>0.560000</speed>
</trkpt>
<trkpt lat="22.087704" lon="104.253754">
<ele>217.935669</ele>
<time>2011-04-26T11:23:50Z</time>
<desc>lat.=22.087704, lon.=104.253754, Alt.=217.935669m. Speed=0.936000m/h.</desc>
<speed>0.260000</speed>
</trkpt>
<trkpt lat="22.087744" lon="104.253708">
<ele>217.732544</ele>
<time>2011-04-26T11:23:55Z</time>
<desc>lat.=22.087744, lon.=104.253708, Alt.=217.732544m. Speed=2.700000m/h.</desc>
<speed>0.750000</speed>
</trkpt>
<trkpt lat="22.087774" lon="104.253677">
<ele>217.650513</ele>
<time>2011-04-26T11:24:00Z</time>
<desc>lat.=22.087774, lon.=104.253677, Alt.=217.650513m. Speed=2.664000m/h.</desc>
<speed>0.740000</speed>
</trkpt>
<trkpt lat="22.087797" lon="104.253685">
<ele>217.810669</ele>
<time>2011-04-26T11:24:05Z</time>
<desc>lat.=22.087797, lon.=104.253685, Alt.=217.810669m. Speed=1.836000m/h.</desc>
<speed>0.510000</speed>
</trkpt>
<trkpt lat="22.087839" lon="104.253723">
<ele>218.361450</ele>
<time>2011-04-26T11:24:10Z</time>
<desc>lat.=22.087839, lon.=104.253723, Alt.=218.361450m. Speed=1.944000m/h.</desc>
<speed>0.540000</speed>
</trkpt>
<trkpt lat="22.087864" lon="104.253738">
<ele>218.896606</ele>
<time>2011-04-26T11:24:15Z</time>
<desc>lat.=22.087864, lon.=104.253738, Alt.=218.896606m. Speed=2.088000m/h.</desc>
<speed>0.580000</speed>
</trkpt>
<trkpt lat="22.087866" lon="104.253777">
<ele>219.127075</ele>
<time>2011-04-26T11:24:20Z</time>
<desc>lat.=22.087866, lon.=104.253777, Alt.=219.127075m. Speed=0.828000m/h.</desc>
<speed>0.230000</speed>
</trkpt>
<trkpt lat="22.087873" lon="104.253784">
<ele>219.084106</ele>
<time>2011-04-26T11:24:25Z</time>
<desc>lat.=22.087873, lon.=104.253784, Alt.=219.084106m. Speed=1.404000m/h.</desc>
<speed>0.390000</speed>
</trkpt>
<trkpt lat="22.087872" lon="104.253799">
<ele>218.720825</ele>
<time>2011-04-26T11:24:30Z</time>
<desc>lat.=22.087872, lon.=104.253799, Alt.=218.720825m. Speed=0.972000m/h.</desc>
<speed>0.270000</speed>
</trkpt>
<trkpt lat="22.087870" lon="104.253777">
<ele>218.689575</ele>
<time>2011-04-26T11:24:35Z</time>
<desc>lat.=22.087870, lon.=104.253777, Alt.=218.689575m. Speed=1.584000m/h.</desc>
<speed>0.440000</speed>
</trkpt>
<trkpt lat="22.087845" lon="104.253822">
<ele>218.357544</ele>
<time>2011-04-26T11:24:40Z</time>
<desc>lat.=22.087845, lon.=104.253822, Alt.=218.357544m. Speed=0.360000m/h.</desc>
<speed>0.100000</speed>
</trkpt>
<trkpt lat="22.087870" lon="104.253860">
<ele>218.283325</ele>
<time>2011-04-26T11:24:45Z</time>
<desc>lat.=22.087870, lon.=104.253860, Alt.=218.283325m. Speed=2.448000m/h.</desc>
<speed>0.680000</speed>
</trkpt>
<trkpt lat="22.087900" lon="104.253868">
<ele>218.060669</ele>
<time>2011-04-26T11:24:50Z</time>
<desc>lat.=22.087900, lon.=104.253868, Alt.=218.060669m. Speed=2.628000m/h.</desc>
<speed>0.730000</speed>
</trkpt>
<trkpt lat="22.087940" lon="104.253860">
<ele>217.920044</ele>
<time>2011-04-26T11:24:55Z</time>
<desc>lat.=22.087940, lon.=104.253860, Alt.=217.920044m. Speed=2.016000m/h.</desc>
<speed>0.560000</speed>
</trkpt>
<trkpt lat="22.087914" lon="104.253822">
<ele>218.095825</ele>
<time>2011-04-26T11:25:00Z</time>
<desc>lat.=22.087914, lon.=104.253822, Alt.=218.095825m. Speed=2.844000m/h.</desc>
<speed>0.790000</speed>
</trkpt>
<trkpt lat="22.087887" lon="104.253799">
<ele>218.302856</ele>
<time>2011-04-26T11:25:05Z</time>
<desc>lat.=22.087887, lon.=104.253799, Alt.=218.302856m. Speed=1.800000m/h.</desc>
<speed>0.500000</speed>
</trkpt>
<trkpt lat="22.087864" lon="104.253799">
<ele>218.720825</ele>
<time>2011-04-26T11:25:10Z</time>
<desc>lat.=22.087864, lon.=104.253799, Alt.=218.720825m. Speed=0.792000m/h.</desc>
<speed>0.220000</speed>
</trkpt>
<trkpt lat="22.087860" lon="104.253799">
<ele>219.041138</ele>
<time>2011-04-26T11:25:15Z</time>
<desc>lat.=22.087860, lon.=104.253799, Alt.=219.041138m. Speed=0.720000m/h.</desc>
<speed>0.200000</speed>
</trkpt>
<trkpt lat="22.087845" lon="104.253815">
<ele>219.498169</ele>
<time>2011-04-26T11:25:20Z</time>
<desc>lat.=22.087845, lon.=104.253815, Alt.=219.498169m. Speed=0.756000m/h.</desc>
<speed>0.210000</speed>
</trkpt>
<trkpt lat="22.087841" lon="104.253815">
<ele>219.529419</ele>
<time>2011-04-26T11:25:25Z</time>
<desc>lat.=22.087841, lon.=104.253815, Alt.=219.529419m. Speed=0.432000m/h.</desc>
<speed>0.120000</speed>
</trkpt>
<trkpt lat="22.087818" lon="104.253838">
<ele>219.345825</ele>
<time>2011-04-26T11:25:30Z</time>
<desc>lat.=22.087818, lon.=104.253838, Alt.=219.345825m. Speed=1.224000m/h.</desc>
<speed>0.340000</speed>
</trkpt>
<trkpt lat="22.087820" lon="104.253860">
<ele>219.158325</ele>
<time>2011-04-26T11:25:35Z</time>
<desc>lat.=22.087820, lon.=104.253860, Alt.=219.158325m. Speed=0.504000m/h.</desc>
<speed>0.140000</speed>
</trkpt>
<trkpt lat="22.087820" lon="104.253860">
<ele>219.150513</ele>
<time>2011-04-26T11:25:40Z</time>
<desc>lat.=22.087820, lon.=104.253860, Alt.=219.150513m. Speed=0.612000m/h.</desc>
<speed>0.170000</speed>
</trkpt>
<trkpt lat="22.087820" lon="104.253853">
<ele>219.138794</ele>
<time>2011-04-26T11:25:45Z</time>
<desc>lat.=22.087820, lon.=104.253853, Alt.=219.138794m. Speed=1.080000m/h.</desc>
<speed>0.300000</speed>
</trkpt>
<trkpt lat="22.087795" lon="104.253822">
<ele>219.095825</ele>
<time>2011-04-26T11:25:50Z</time>
<desc>lat.=22.087795, lon.=104.253822, Alt.=219.095825m. Speed=1.332000m/h.</desc>
<speed>0.370000</speed>
</trkpt>
<trkpt lat="22.087780" lon="104.253830">
<ele>218.955200</ele>
<time>2011-04-26T11:25:55Z</time>
<desc>lat.=22.087780, lon.=104.253830, Alt.=218.955200m. Speed=0.900000m/h.</desc>
<speed>0.250000</speed>
</trkpt>
<trkpt lat="22.087784" lon="104.253815">
<ele>219.349731</ele>
<time>2011-04-26T11:26:00Z</time>
<desc>lat.=22.087784, lon.=104.253815, Alt.=219.349731m. Speed=0.972000m/h.</desc>
<speed>0.270000</speed>
</trkpt>
<trkpt lat="22.087790" lon="104.253815">
<ele>219.463013</ele>
<time>2011-04-26T11:26:05Z</time>
<desc>lat.=22.087790, lon.=104.253815, Alt.=219.463013m. Speed=0.144000m/h.</desc>
<speed>0.040000</speed>
</trkpt>
<trkpt lat="22.087793" lon="104.253815">
<ele>219.498169</ele>
<time>2011-04-26T11:26:10Z</time>
<desc>lat.=22.087793, lon.=104.253815, Alt.=219.498169m. Speed=0.792000m/h.</desc>
<speed>0.220000</speed>
</trkpt>
<trkpt lat="22.087780" lon="104.253822">
<ele>219.447388</ele>
<time>2011-04-26T11:26:15Z</time>
<desc>lat.=22.087780, lon.=104.253822, Alt.=219.447388m. Speed=1.404000m/h.</desc>
<speed>0.390000</speed>
</trkpt>
<trkpt lat="22.087755" lon="104.253860">
<ele>219.537231</ele>
<time>2011-04-26T11:26:20Z</time>
<desc>lat.=22.087755, lon.=104.253860, Alt.=219.537231m. Speed=0.972000m/h.</desc>
<speed>0.270000</speed>
</trkpt>
<trkpt lat="22.087742" lon="104.253883">
<ele>220.095825</ele>
<time>2011-04-26T11:26:25Z</time>
<desc>lat.=22.087742, lon.=104.253883, Alt.=220.095825m. Speed=0.936000m/h.</desc>
<speed>0.260000</speed>
</trkpt>
<trkpt lat="22.087727" lon="104.253883">
<ele>220.295044</ele>
<time>2011-04-26T11:26:30Z</time>
<desc>lat.=22.087727, lon.=104.253883, Alt.=220.295044m. Speed=0.684000m/h.</desc>
<speed>0.190000</speed>
</trkpt>
<trkpt lat="22.087723" lon="104.253891">
<ele>220.314575</ele>
<time>2011-04-26T11:26:35Z</time>
<desc>lat.=22.087723, lon.=104.253891, Alt.=220.314575m. Speed=0.432000m/h.</desc>
<speed>0.120000</speed>
</trkpt>
<trkpt lat="22.087725" lon="104.253891">
<ele>220.338013</ele>
<time>2011-04-26T11:26:40Z</time>
<desc>lat.=22.087725, lon.=104.253891, Alt.=220.338013m. Speed=0.288000m/h.</desc>
<speed>0.080000</speed>
</trkpt>
<trkpt lat="22.087730" lon="104.253891">
<ele>220.353638</ele>
<time>2011-04-26T11:26:45Z</time>
<desc>lat.=22.087730, lon.=104.253891, Alt.=220.353638m. Speed=0.684000m/h.</desc>
<speed>0.190000</speed>
</trkpt>
<trkpt lat="22.087765" lon="104.253853">
<ele>220.853638</ele>
<time>2011-04-26T11:26:50Z</time>
<desc>lat.=22.087765, lon.=104.253853, Alt.=220.853638m. Speed=2.124000m/h.</desc>
<speed>0.590000</speed>
</trkpt>
<trkpt lat="22.087769" lon="104.253838">
<ele>220.923950</ele>
<time>2011-04-26T11:26:55Z</time>
<desc>lat.=22.087769, lon.=104.253838, Alt.=220.923950m. Speed=1.692000m/h.</desc>
<speed>0.470000</speed>
</trkpt>
<trkpt lat="22.087772" lon="104.253822">
<ele>221.466919</ele>
<time>2011-04-26T11:27:00Z</time>
<desc>lat.=22.087772, lon.=104.253822, Alt.=221.466919m. Speed=2.088000m/h.</desc>
<speed>0.580000</speed>
</trkpt>
<trkpt lat="22.087778" lon="104.253815">
<ele>221.713013</ele>
<time>2011-04-26T11:27:05Z</time>
<desc>lat.=22.087778, lon.=104.253815, Alt.=221.713013m. Speed=0.720000m/h.</desc>
<speed>0.200000</speed>
</trkpt>
<trkpt lat="22.087799" lon="104.253799">
<ele>221.841919</ele>
<time>2011-04-26T11:27:10Z</time>
<desc>lat.=22.087799, lon.=104.253799, Alt.=221.841919m. Speed=0.936000m/h.</desc>
<speed>0.260000</speed>
</trkpt>
<trkpt lat="22.087812" lon="104.253830">
<ele>221.986450</ele>
<time>2011-04-26T11:27:15Z</time>
<desc>lat.=22.087812, lon.=104.253830, Alt.=221.986450m. Speed=1.044000m/h.</desc>
<speed>0.290000</speed>
</trkpt>
<trkpt lat="22.087801" lon="104.253830">
<ele>221.900513</ele>
<time>2011-04-26T11:27:20Z</time>
<desc>lat.=22.087801, lon.=104.253830, Alt.=221.900513m. Speed=0.540000m/h.</desc>
<speed>0.150000</speed>
</trkpt>
<trkpt lat="22.087791" lon="104.253860">
<ele>221.724731</ele>
<time>2011-04-26T11:27:25Z</time>
<desc>lat.=22.087791, lon.=104.253860, Alt.=221.724731m. Speed=1.656000m/h.</desc>
<speed>0.460000</speed>
</trkpt>
<trkpt lat="22.087791" lon="104.253876">
<ele>221.576294</ele>
<time>2011-04-26T11:27:30Z</time>
<desc>lat.=22.087791, lon.=104.253876, Alt.=221.576294m. Speed=1.296000m/h.</desc>
<speed>0.360000</speed>
</trkpt>
<trkpt lat="22.087784" lon="104.253891">
<ele>221.201294</ele>
<time>2011-04-26T11:27:35Z</time>
<desc>lat.=22.087784, lon.=104.253891, Alt.=221.201294m. Speed=0.900000m/h.</desc>
<speed>0.250000</speed>
</trkpt>
<trkpt lat="22.087776" lon="104.253906">
<ele>220.888794</ele>
<time>2011-04-26T11:27:40Z</time>
<desc>lat.=22.087776, lon.=104.253906, Alt.=220.888794m. Speed=1.044000m/h.</desc>
<speed>0.290000</speed>
</trkpt>
<trkpt lat="22.087780" lon="104.253922">
<ele>220.670044</ele>
<time>2011-04-26T11:27:45Z</time>
<desc>lat.=22.087780, lon.=104.253922, Alt.=220.670044m. Speed=0.432000m/h.</desc>
<speed>0.120000</speed>
</trkpt>
<trkpt lat="22.087784" lon="104.253922">
<ele>220.642700</ele>
<time>2011-04-26T11:27:50Z</time>
<desc>lat.=22.087784, lon.=104.253922, Alt.=220.642700m. Speed=0.180000m/h.</desc>
<speed>0.050000</speed>
</trkpt>
<trkpt lat="22.087786" lon="104.253922">
<ele>220.630981</ele>
<time>2011-04-26T11:27:55Z</time>
<desc>lat.=22.087786, lon.=104.253922, Alt.=220.630981m. Speed=0.180000m/h.</desc>
<speed>0.050000</speed>
</trkpt>
<trkpt lat="22.087786" lon="104.253922">
<ele>220.627075</ele>
<time>2011-04-26T11:28:00Z</time>
<desc>lat.=22.087786, lon.=104.253922, Alt.=220.627075m. Speed=0.288000m/h.</desc>
<speed>0.080000</speed>
</trkpt>
<trkpt lat="22.087786" lon="104.253922">
<ele>220.619263</ele>
<time>2011-04-26T11:28:05Z</time>
<desc>lat.=22.087786, lon.=104.253922, Alt.=220.619263m. Speed=0.432000m/h.</desc>
<speed>0.120000</speed>
</trkpt>
<trkpt lat="22.087793" lon="104.253922">
<ele>220.634888</ele>
<time>2011-04-26T11:28:10Z</time>
<desc>lat.=22.087793, lon.=104.253922, Alt.=220.634888m. Speed=0.540000m/h.</desc>
<speed>0.150000</speed>
</trkpt>
<trkpt lat="22.087797" lon="104.253914">
<ele>220.673950</ele>
<time>2011-04-26T11:28:15Z</time>
<desc>lat.=22.087797, lon.=104.253914, Alt.=220.673950m. Speed=0.972000m/h.</desc>
<speed>0.270000</speed>
</trkpt>
<trkpt lat="22.087801" lon="104.253899">
<ele>220.603638</ele>
<time>2011-04-26T11:28:20Z</time>
<desc>lat.=22.087801, lon.=104.253899, Alt.=220.603638m. Speed=0.936000m/h.</desc>
<speed>0.260000</speed>
</trkpt>
<trkpt lat="22.087809" lon="104.253883">
<ele>220.783325</ele>
<time>2011-04-26T11:28:25Z</time>
<desc>lat.=22.087809, lon.=104.253883, Alt.=220.783325m. Speed=0.576000m/h.</desc>
<speed>0.160000</speed>
</trkpt>
<trkpt lat="22.087818" lon="104.253883">
<ele>220.752075</ele>
<time>2011-04-26T11:28:30Z</time>
<desc>lat.=22.087818, lon.=104.253883, Alt.=220.752075m. Speed=1.476000m/h.</desc>
<speed>0.410000</speed>
</trkpt>
<trkpt lat="22.087812" lon="104.253876">
<ele>220.670044</ele>
<time>2011-04-26T11:28:35Z</time>
<desc>lat.=22.087812, lon.=104.253876, Alt.=220.670044m. Speed=0.792000m/h.</desc>
<speed>0.220000</speed>
</trkpt>
<trkpt lat="22.087818" lon="104.253883">
<ele>220.744263</ele>
<time>2011-04-26T11:28:40Z</time>
<desc>lat.=22.087818, lon.=104.253883, Alt.=220.744263m. Speed=0.360000m/h.</desc>
<speed>0.100000</speed>
</trkpt>
<trkpt lat="22.087818" lon="104.253876">
<ele>220.736450</ele>
<time>2011-04-26T11:28:45Z</time>
<desc>lat.=22.087818, lon.=104.253876, Alt.=220.736450m. Speed=0.648000m/h.</desc>
<speed>0.180000</speed>
</trkpt>
<trkpt lat="22.087824" lon="104.253860">
<ele>220.408325</ele>
<time>2011-04-26T11:28:50Z</time>
<desc>lat.=22.087824, lon.=104.253860, Alt.=220.408325m. Speed=0.432000m/h.</desc>
<speed>0.120000</speed>
</trkpt>
<trkpt lat="22.087824" lon="104.253853">
<ele>220.369263</ele>
<time>2011-04-26T11:28:55Z</time>
<desc>lat.=22.087824, lon.=104.253853, Alt.=220.369263m. Speed=0.648000m/h.</desc>
<speed>0.180000</speed>
</trkpt>
<trkpt lat="22.087818" lon="104.253845">
<ele>220.130981</ele>
<time>2011-04-26T11:29:00Z</time>
<desc>lat.=22.087818, lon.=104.253845, Alt.=220.130981m. Speed=0.864000m/h.</desc>
<speed>0.240000</speed>
</trkpt>
<trkpt lat="22.087831" lon="104.253838">
<ele>219.541138</ele>
<time>2011-04-26T11:29:05Z</time>
<desc>lat.=22.087831, lon.=104.253838, Alt.=219.541138m. Speed=0.648000m/h.</desc>
<speed>0.180000</speed>
</trkpt>
<trkpt lat="22.087828" lon="104.253838">
<ele>219.591919</ele>
<time>2011-04-26T11:29:10Z</time>
<desc>lat.=22.087828, lon.=104.253838, Alt.=219.591919m. Speed=0.828000m/h.</desc>
<speed>0.230000</speed>
</trkpt>
<trkpt lat="22.087816" lon="104.253838">
<ele>219.607544</ele>
<time>2011-04-26T11:29:15Z</time>
<desc>lat.=22.087816, lon.=104.253838, Alt.=219.607544m. Speed=1.368000m/h.</desc>
<speed>0.380000</speed>
</trkpt>
<trkpt lat="22.087807" lon="104.253838">
<ele>219.455200</ele>
<time>2011-04-26T11:29:20Z</time>
<desc>lat.=22.087807, lon.=104.253838, Alt.=219.455200m. Speed=0.792000m/h.</desc>
<speed>0.220000</speed>
</trkpt>
<trkpt lat="22.087797" lon="104.253838">
<ele>219.482544</ele>
<time>2011-04-26T11:29:25Z</time>
<desc>lat.=22.087797, lon.=104.253838, Alt.=219.482544m. Speed=0.864000m/h.</desc>
<speed>0.240000</speed>
</trkpt>
<trkpt lat="22.087790" lon="104.253838">
<ele>219.505981</ele>
<time>2011-04-26T11:29:30Z</time>
<desc>lat.=22.087790, lon.=104.253838, Alt.=219.505981m. Speed=1.008000m/h.</desc>
<speed>0.280000</speed>
</trkpt>
<trkpt lat="22.087784" lon="104.253845">
<ele>219.084106</ele>
<time>2011-04-26T11:29:35Z</time>
<desc>lat.=22.087784, lon.=104.253845, Alt.=219.084106m. Speed=0.936000m/h.</desc>
<speed>0.260000</speed>
</trkpt>
<trkpt lat="22.087803" lon="104.253830">
<ele>218.923950</ele>
<time>2011-04-26T11:29:40Z</time>
<desc>lat.=22.087803, lon.=104.253830, Alt.=218.923950m. Speed=1.080000m/h.</desc>
<speed>0.300000</speed>
</trkpt>
<trkpt lat="22.087812" lon="104.253845">
<ele>219.127075</ele>
<time>2011-04-26T11:29:45Z</time>
<desc>lat.=22.087812, lon.=104.253845, Alt.=219.127075m. Speed=1.692000m/h.</desc>
<speed>0.470000</speed>
</trkpt>
<trkpt lat="22.087837" lon="104.253853">
<ele>218.779419</ele>
<time>2011-04-26T11:29:50Z</time>
<desc>lat.=22.087837, lon.=104.253853, Alt.=218.779419m. Speed=1.656000m/h.</desc>
<speed>0.460000</speed>
</trkpt>
<trkpt lat="22.087849" lon="104.253853">
<ele>217.740356</ele>
<time>2011-04-26T11:29:55Z</time>
<desc>lat.=22.087849, lon.=104.253853, Alt.=217.740356m. Speed=0.936000m/h.</desc>
<speed>0.260000</speed>
</trkpt>
<trkpt lat="22.087856" lon="104.253838">
<ele>217.052856</ele>
<time>2011-04-26T11:30:00Z</time>
<desc>lat.=22.087856, lon.=104.253838, Alt.=217.052856m. Speed=1.152000m/h.</desc>
<speed>0.320000</speed>
</trkpt>
<trkpt lat="22.087847" lon="104.253845">
<ele>216.744263</ele>
<time>2011-04-26T11:30:05Z</time>
<desc>lat.=22.087847, lon.=104.253845, Alt.=216.744263m. Speed=0.288000m/h.</desc>
<speed>0.080000</speed>
</trkpt>
<trkpt lat="22.087847" lon="104.253845">
<ele>216.689575</ele>
<time>2011-04-26T11:30:10Z</time>
<desc>lat.=22.087847, lon.=104.253845, Alt.=216.689575m. Speed=0.288000m/h.</desc>
<speed>0.080000</speed>
</trkpt>
<trkpt lat="22.087845" lon="104.253853">
<ele>216.662231</ele>
<time>2011-04-26T11:30:15Z</time>
<desc>lat.=22.087845, lon.=104.253853, Alt.=216.662231m. Speed=0.540000m/h.</desc>
<speed>0.150000</speed>
</trkpt>
<trkpt lat="22.087852" lon="104.253853">
<ele>216.627075</ele>
<time>2011-04-26T11:30:20Z</time>
<desc>lat.=22.087852, lon.=104.253853, Alt.=216.627075m. Speed=0.684000m/h.</desc>
<speed>0.190000</speed>
</trkpt>
<trkpt lat="22.087860" lon="104.253853">
<ele>216.591919</ele>
<time>2011-04-26T11:30:25Z</time>
<desc>lat.=22.087860, lon.=104.253853, Alt.=216.591919m. Speed=0.612000m/h.</desc>
<speed>0.170000</speed>
</trkpt>
<trkpt lat="22.087866" lon="104.253853">
<ele>216.548950</ele>
<time>2011-04-26T11:30:30Z</time>
<desc>lat.=22.087866, lon.=104.253853, Alt.=216.548950m. Speed=0.576000m/h.</desc>
<speed>0.160000</speed>
</trkpt>
<trkpt lat="22.087870" lon="104.253853">
<ele>216.509888</ele>
<time>2011-04-26T11:30:35Z</time>
<desc>lat.=22.087870, lon.=104.253853, Alt.=216.509888m. Speed=0.504000m/h.</desc>
<speed>0.140000</speed>
</trkpt>
<trkpt lat="22.087862" lon="104.253853">
<ele>216.502075</ele>
<time>2011-04-26T11:30:40Z</time>
<desc>lat.=22.087862, lon.=104.253853, Alt.=216.502075m. Speed=0.864000m/h.</desc>
<speed>0.240000</speed>
</trkpt>
<trkpt lat="22.087854" lon="104.253845">
<ele>216.498169</ele>
<time>2011-04-26T11:30:45Z</time>
<desc>lat.=22.087854, lon.=104.253845, Alt.=216.498169m. Speed=0.720000m/h.</desc>
<speed>0.200000</speed>
</trkpt>
<trkpt lat="22.087851" lon="104.253860">
<ele>216.420044</ele>
<time>2011-04-26T11:30:50Z</time>
<desc>lat.=22.087851, lon.=104.253860, Alt.=216.420044m. Speed=0.648000m/h.</desc>
<speed>0.180000</speed>
</trkpt>
</trkseg>
</trk>
</gpx>